﻿<?xml version="1.0" encoding="utf-8"?><gpx creator="Garmin Desktop App" version="1.1" xsi:schemaLocation="http://www.topografix.com/GPX/1/1 http://www.topografix.com/GPX/1/1/gpx.xsd http://www.garmin.com/xmlschemas/WaypointExtension/v1 http://www8.garmin.com/xmlschemas/WaypointExtensionv1.xsd http://www.garmin.com/xmlschemas/TrackPointExtension/v1 http://www.garmin.com/xmlschemas/TrackPointExtensionv1.xsd http://www.garmin.com/xmlschemas/GpxExtensions/v3 http://www8.garmin.com/xmlschemas/GpxExtensionsv3.xsd http://www.garmin.com/xmlschemas/ActivityExtension/v1 http://www8.garmin.com/xmlschemas/ActivityExtensionv1.xsd http://www.garmin.com/xmlschemas/AdventuresExtensions/v1 http://www8.garmin.com/xmlschemas/AdventuresExtensionv1.xsd http://www.garmin.com/xmlschemas/PressureExtension/v1 http://www.garmin.com/xmlschemas/PressureExtensionv1.xsd http://www.garmin.com/xmlschemas/TripExtensions/v1 http://www.garmin.com/xmlschemas/TripExtensionsv1.xsd http://www.garmin.com/xmlschemas/TripMetaDataExtensions/v1 http://www.garmin.com/xmlschemas/TripMetaDataExtensionsv1.xsd http://www.garmin.com/xmlschemas/ViaPointTransportationModeExtensions/v1 http://www.garmin.com/xmlschemas/ViaPointTransportationModeExtensionsv1.xsd http://www.garmin.com/xmlschemas/CreationTimeExtension/v1 http://www.garmin.com/xmlschemas/CreationTimeExtensionsv1.xsd http://www.garmin.com/xmlschemas/AccelerationExtension/v1 http://www.garmin.com/xmlschemas/AccelerationExtensionv1.xsd http://www.garmin.com/xmlschemas/PowerExtension/v1 http://www.garmin.com/xmlschemas/PowerExtensionv1.xsd http://www.garmin.com/xmlschemas/VideoExtension/v1 http://www.garmin.com/xmlschemas/VideoExtensionv1.xsd" xmlns="http://www.topografix.com/GPX/1/1" xmlns:xsi="http://www.w3.org/2001/XMLSchema-instance" xmlns:wptx1="http://www.garmin.com/xmlschemas/WaypointExtension/v1" xmlns:gpxtrx="http://www.garmin.com/xmlschemas/GpxExtensions/v3" xmlns:gpxtpx="http://www.garmin.com/xmlschemas/TrackPointExtension/v1" xmlns:gpxx="http://www.garmin.com/xmlschemas/GpxExtensions/v3" xmlns:trp="http://www.garmin.com/xmlschemas/TripExtensions/v1" xmlns:adv="http://www.garmin.com/xmlschemas/AdventuresExtensions/v1" xmlns:prs="http://www.garmin.com/xmlschemas/PressureExtension/v1" xmlns:tmd="http://www.garmin.com/xmlschemas/TripMetaDataExtensions/v1" xmlns:vptm="http://www.garmin.com/xmlschemas/ViaPointTransportationModeExtensions/v1" xmlns:ctx="http://www.garmin.com/xmlschemas/CreationTimeExtension/v1" xmlns:gpxacc="http://www.garmin.com/xmlschemas/AccelerationExtension/v1" xmlns:gpxpx="http://www.garmin.com/xmlschemas/PowerExtension/v1" xmlns:vidx1="http://www.garmin.com/xmlschemas/VideoExtension/v1">

  <metadata>
    <link href="http://www.garmin.com">
      <text>Garmin International</text>
    </link>
    <time>2026-07-02T20:28:57Z</time>
    <bounds maxlat="53.778673969209194" maxlon="-8.867593975737691" minlat="52.964133024215698" minlon="-10.048413025215268" />
  </metadata>

  <trk>
    <name>Track vom: 2026-07-02 07:48</name>
    <extensions>
      <gpxx:TrackExtension>
        <gpxx:DisplayColor>DarkGray</gpxx:DisplayColor>
      </gpxx:TrackExtension>
    </extensions>
    <trkseg>
      <trkpt lat="52.964814975857735" lon="-9.334928998723626">
        <ele>52.049999999999997</ele>
        <time>2026-07-02T06:48:50Z</time>
      </trkpt>
      <trkpt lat="52.964855041354895" lon="-9.334951965138316">
        <ele>51.090000000000003</ele>
        <time>2026-07-02T06:50:10Z</time>
      </trkpt>
      <trkpt lat="52.964869039133191" lon="-9.334950037300587">
        <ele>50.609999999999999</ele>
        <time>2026-07-02T06:50:38Z</time>
      </trkpt>
      <trkpt lat="52.964908014982939" lon="-9.334948025643826">
        <ele>50.609999999999999</ele>
        <time>2026-07-02T06:50:57Z</time>
      </trkpt>
      <trkpt lat="52.964981021359563" lon="-9.335071993991733">
        <ele>49.159999999999997</ele>
        <time>2026-07-02T06:51:02Z</time>
      </trkpt>
      <trkpt lat="52.965227030217648" lon="-9.335255976766348">
        <ele>46.280000000000001</ele>
        <time>2026-07-02T06:51:09Z</time>
      </trkpt>
      <trkpt lat="52.965228036046028" lon="-9.335219012573361">
        <ele>46.280000000000001</ele>
        <time>2026-07-02T06:51:10Z</time>
      </trkpt>
      <trkpt lat="52.965229963883758" lon="-9.335154974833131">
        <ele>45.799999999999997</ele>
        <time>2026-07-02T06:51:11Z</time>
      </trkpt>
      <trkpt lat="52.965232981368899" lon="-9.335069982334971">
        <ele>45.32</ele>
        <time>2026-07-02T06:51:12Z</time>
      </trkpt>
      <trkpt lat="52.965234993025661" lon="-9.334973003715277">
        <ele>44.840000000000003</ele>
        <time>2026-07-02T06:51:13Z</time>
      </trkpt>
      <trkpt lat="52.965238010510802" lon="-9.334869990125299">
        <ele>44.359999999999999</ele>
        <time>2026-07-02T06:51:14Z</time>
      </trkpt>
      <trkpt lat="52.965241027995944" lon="-9.334767982363701">
        <ele>43.880000000000003</ele>
        <time>2026-07-02T06:51:15Z</time>
      </trkpt>
      <trkpt lat="52.965243961662054" lon="-9.334656000137329">
        <ele>43.399999999999999</ele>
        <time>2026-07-02T06:51:16Z</time>
      </trkpt>
      <trkpt lat="52.965247984975576" lon="-9.334532031789422">
        <ele>42.920000000000002</ele>
        <time>2026-07-02T06:51:17Z</time>
      </trkpt>
      <trkpt lat="52.965247984975576" lon="-9.334532031789422">
        <ele>42.439999999999998</ele>
        <time>2026-07-02T06:51:18Z</time>
      </trkpt>
      <trkpt lat="52.96525502577424" lon="-9.334300020709634">
        <ele>41.469999999999999</ele>
        <time>2026-07-02T06:51:19Z</time>
      </trkpt>
      <trkpt lat="52.965257959440351" lon="-9.334194995462894">
        <ele>40.509999999999998</ele>
        <time>2026-07-02T06:51:20Z</time>
      </trkpt>
      <trkpt lat="52.965259971097112" lon="-9.334108997136354">
        <ele>39.549999999999997</ele>
        <time>2026-07-02T06:51:21Z</time>
      </trkpt>
      <trkpt lat="52.965216971933842" lon="-9.334024004638195">
        <ele>39.07</ele>
        <time>2026-07-02T06:51:22Z</time>
      </trkpt>
      <trkpt lat="52.965180007740855" lon="-9.333950998261571">
        <ele>38.109999999999999</ele>
        <time>2026-07-02T06:51:23Z</time>
      </trkpt>
      <trkpt lat="52.965143965557218" lon="-9.333880003541708">
        <ele>37.630000000000003</ele>
        <time>2026-07-02T06:51:24Z</time>
      </trkpt>
      <trkpt lat="52.965108007192612" lon="-9.333808002993465">
        <ele>36.670000000000002</ele>
        <time>2026-07-02T06:51:25Z</time>
      </trkpt>
      <trkpt lat="52.965070037171245" lon="-9.333732984960079">
        <ele>36.189999999999998</ele>
        <time>2026-07-02T06:51:26Z</time>
      </trkpt>
      <trkpt lat="52.965030977502465" lon="-9.333655033260584">
        <ele>35.229999999999997</ele>
        <time>2026-07-02T06:51:27Z</time>
      </trkpt>
      <trkpt lat="52.964984960854053" lon="-9.333566017448902">
        <ele>34.740000000000002</ele>
        <time>2026-07-02T06:51:28Z</time>
      </trkpt>
      <trkpt lat="52.964935004711151" lon="-9.333467027172446">
        <ele>33.780000000000001</ele>
        <time>2026-07-02T06:51:29Z</time>
      </trkpt>
      <trkpt lat="52.964883958920836" lon="-9.333365019410849">
        <ele>33.299999999999997</ele>
        <time>2026-07-02T06:51:30Z</time>
      </trkpt>
      <trkpt lat="52.964401999488473" lon="-9.332414008677006">
        <ele>25.129999999999999</ele>
        <time>2026-07-02T06:51:41Z</time>
      </trkpt>
      <trkpt lat="52.964405016973615" lon="-9.332365980371833">
        <ele>24.649999999999999</ele>
        <time>2026-07-02T06:51:42Z</time>
      </trkpt>
      <trkpt lat="52.964434018358588" lon="-9.331924002617598">
        <ele>24.170000000000002</ele>
        <time>2026-07-02T06:51:46Z</time>
      </trkpt>
      <trkpt lat="52.964542983099818" lon="-9.330260027199984">
        <ele>23.210000000000001</ele>
        <time>2026-07-02T06:51:57Z</time>
      </trkpt>
      <trkpt lat="52.964650020003319" lon="-9.328623963519931">
        <ele>21.77</ele>
        <time>2026-07-02T06:52:06Z</time>
      </trkpt>
      <trkpt lat="52.964663011953235" lon="-9.328436041250825">
        <ele>21.289999999999999</ele>
        <time>2026-07-02T06:52:07Z</time>
      </trkpt>
      <trkpt lat="52.964816987514496" lon="-9.326078966259956">
        <ele>25.609999999999999</ele>
        <time>2026-07-02T06:52:20Z</time>
      </trkpt>
      <trkpt lat="52.965044975280762" lon="-9.324160013347864">
        <ele>19.84</ele>
        <time>2026-07-02T06:52:32Z</time>
      </trkpt>
      <trkpt lat="52.965132985264063" lon="-9.323156028985977">
        <ele>14.56</ele>
        <time>2026-07-02T06:52:39Z</time>
      </trkpt>
      <trkpt lat="52.965139020234346" lon="-9.323091991245747">
        <ele>14.08</ele>
        <time>2026-07-02T06:52:40Z</time>
      </trkpt>
      <trkpt lat="52.965142959728837" lon="-9.323045974597335">
        <ele>14.08</ele>
        <time>2026-07-02T06:52:41Z</time>
      </trkpt>
      <trkpt lat="52.965145977213979" lon="-9.323006998747587">
        <ele>13.6</ele>
        <time>2026-07-02T06:52:42Z</time>
      </trkpt>
      <trkpt lat="52.965150000527501" lon="-9.322962993755937">
        <ele>13.6</ele>
        <time>2026-07-02T06:52:43Z</time>
      </trkpt>
      <trkpt lat="52.965154023841023" lon="-9.322908008471131">
        <ele>13.119999999999999</ele>
        <time>2026-07-02T06:52:44Z</time>
      </trkpt>
      <trkpt lat="52.965159974992275" lon="-9.322823015972972">
        <ele>13.119999999999999</ele>
        <time>2026-07-02T06:52:45Z</time>
      </trkpt>
      <trkpt lat="52.96516802161932" lon="-9.322715979069471">
        <ele>12.630000000000001</ele>
        <time>2026-07-02T06:52:46Z</time>
      </trkpt>
      <trkpt lat="52.965175984427333" lon="-9.322595028206706">
        <ele>12.630000000000001</ele>
        <time>2026-07-02T06:52:47Z</time>
      </trkpt>
      <trkpt lat="52.965185958892107" lon="-9.3224520329386">
        <ele>12.15</ele>
        <time>2026-07-02T06:52:48Z</time>
      </trkpt>
      <trkpt lat="52.965197023004293" lon="-9.322293028235436">
        <ele>11.67</ele>
        <time>2026-07-02T06:52:49Z</time>
      </trkpt>
      <trkpt lat="52.965202974155545" lon="-9.321755999699235">
        <ele>9.75</ele>
        <time>2026-07-02T06:52:52Z</time>
      </trkpt>
      <trkpt lat="52.965084034949541" lon="-9.319979036226869">
        <ele>6.87</ele>
        <time>2026-07-02T06:53:01Z</time>
      </trkpt>
      <trkpt lat="52.965053021907806" lon="-9.319793041795492">
        <ele>6.39</ele>
        <time>2026-07-02T06:53:02Z</time>
      </trkpt>
      <trkpt lat="52.964994013309479" lon="-9.319430021569133">
        <ele>6.87</ele>
        <time>2026-07-02T06:53:04Z</time>
      </trkpt>
      <trkpt lat="52.964959982782602" lon="-9.319217037409544">
        <ele>7.83</ele>
        <time>2026-07-02T06:53:05Z</time>
      </trkpt>
      <trkpt lat="52.964897034689784" lon="-9.319050991907716">
        <ele>8.310000000000001</ele>
        <time>2026-07-02T06:53:06Z</time>
      </trkpt>
      <trkpt lat="52.964771976694465" lon="-9.318718984723091">
        <ele>8.789999999999999</ele>
        <time>2026-07-02T06:53:08Z</time>
      </trkpt>
      <trkpt lat="52.964595034718513" lon="-9.318252028897405">
        <ele>9.27</ele>
        <time>2026-07-02T06:53:12Z</time>
      </trkpt>
      <trkpt lat="52.96458899974823" lon="-9.318097969517112">
        <ele>9.75</ele>
        <time>2026-07-02T06:53:13Z</time>
      </trkpt>
      <trkpt lat="52.964579025283456" lon="-9.317822037264705">
        <ele>10.23</ele>
        <time>2026-07-02T06:53:15Z</time>
      </trkpt>
      <trkpt lat="52.964520016685128" lon="-9.316942021250725">
        <ele>9.27</ele>
        <time>2026-07-02T06:53:21Z</time>
      </trkpt>
      <trkpt lat="52.964489003643394" lon="-9.316800031810999">
        <ele>8.789999999999999</ele>
        <time>2026-07-02T06:53:22Z</time>
      </trkpt>
      <trkpt lat="52.964394958689809" lon="-9.316358976066113">
        <ele>10.23</ele>
        <time>2026-07-02T06:53:28Z</time>
      </trkpt>
      <trkpt lat="52.964293034747243" lon="-9.315809961408377">
        <ele>10.710000000000001</ele>
        <time>2026-07-02T06:53:35Z</time>
      </trkpt>
      <trkpt lat="52.964133024215698" lon="-9.314231984317303">
        <ele>10.710000000000001</ele>
        <time>2026-07-02T06:53:45Z</time>
      </trkpt>
      <trkpt lat="52.964141992852092" lon="-9.314068034291267">
        <ele>11.19</ele>
        <time>2026-07-02T06:53:46Z</time>
      </trkpt>
      <trkpt lat="52.964164959266782" lon="-9.313913974910975">
        <ele>11.19</ele>
        <time>2026-07-02T06:53:47Z</time>
      </trkpt>
      <trkpt lat="52.964193960651755" lon="-9.313756981864572">
        <ele>11.67</ele>
        <time>2026-07-02T06:53:48Z</time>
      </trkpt>
      <trkpt lat="52.96422204002738" lon="-9.31360200047493">
        <ele>12.15</ele>
        <time>2026-07-02T06:53:49Z</time>
      </trkpt>
      <trkpt lat="52.964251041412354" lon="-9.313444001600146">
        <ele>12.630000000000001</ele>
        <time>2026-07-02T06:53:50Z</time>
      </trkpt>
      <trkpt lat="52.964279958978295" lon="-9.313286002725363">
        <ele>12.630000000000001</ele>
        <time>2026-07-02T06:53:51Z</time>
      </trkpt>
      <trkpt lat="52.964650020003319" lon="-9.312083031982184">
        <ele>13.6</ele>
        <time>2026-07-02T06:54:00Z</time>
      </trkpt>
      <trkpt lat="52.965344963595271" lon="-9.310322999954224">
        <ele>15.039999999999999</ele>
        <time>2026-07-02T06:54:12Z</time>
      </trkpt>
      <trkpt lat="52.966035967692733" lon="-9.30861703120172">
        <ele>16.48</ele>
        <time>2026-07-02T06:54:23Z</time>
      </trkpt>
      <trkpt lat="52.966606020927429" lon="-9.307233011350036">
        <ele>16.960000000000001</ele>
        <time>2026-07-02T06:54:33Z</time>
      </trkpt>
      <trkpt lat="52.966727977618575" lon="-9.306936962530017">
        <ele>16.960000000000001</ele>
        <time>2026-07-02T06:54:36Z</time>
      </trkpt>
      <trkpt lat="52.966815987601876" lon="-9.306724984198809">
        <ele>16.960000000000001</ele>
        <time>2026-07-02T06:54:38Z</time>
      </trkpt>
      <trkpt lat="52.966858986765146" lon="-9.306619958952069">
        <ele>16.48</ele>
        <time>2026-07-02T06:54:39Z</time>
      </trkpt>
      <trkpt lat="52.966903997585177" lon="-9.30651200003922">
        <ele>16.48</ele>
        <time>2026-07-02T06:54:40Z</time>
      </trkpt>
      <trkpt lat="52.966996030882001" lon="-9.306287029758096">
        <ele>16.48</ele>
        <time>2026-07-02T06:54:42Z</time>
      </trkpt>
      <trkpt lat="52.967582009732723" lon="-9.304865961894393">
        <ele>18.879999999999999</ele>
        <time>2026-07-02T06:54:52Z</time>
      </trkpt>
      <trkpt lat="52.967645963653922" lon="-9.304710980504751">
        <ele>18.879999999999999</ele>
        <time>2026-07-02T06:54:53Z</time>
      </trkpt>
      <trkpt lat="52.967708995565772" lon="-9.304558010771871">
        <ele>19.359999999999999</ele>
        <time>2026-07-02T06:54:54Z</time>
      </trkpt>
      <trkpt lat="52.967774039134383" lon="-9.304400011897087">
        <ele>19.359999999999999</ele>
        <time>2026-07-02T06:54:55Z</time>
      </trkpt>
      <trkpt lat="52.968728989362717" lon="-9.302288023754954">
        <ele>22.25</ele>
        <time>2026-07-02T06:55:08Z</time>
      </trkpt>
      <trkpt lat="52.969972025603056" lon="-9.299879986792803">
        <ele>26.09</ele>
        <time>2026-07-02T06:55:23Z</time>
      </trkpt>
      <trkpt lat="52.971018003299832" lon="-9.298206958919764">
        <ele>28.5</ele>
        <time>2026-07-02T06:55:35Z</time>
      </trkpt>
      <trkpt lat="52.972045037895441" lon="-9.29656402207911">
        <ele>26.57</ele>
        <time>2026-07-02T06:55:46Z</time>
      </trkpt>
      <trkpt lat="52.972467988729477" lon="-9.295778973028064">
        <ele>26.57</ele>
        <time>2026-07-02T06:55:53Z</time>
      </trkpt>
      <trkpt lat="52.972549041733146" lon="-9.295626003295183">
        <ele>28.02</ele>
        <time>2026-07-02T06:55:57Z</time>
      </trkpt>
      <trkpt lat="52.972961012274027" lon="-9.294900968670845">
        <ele>28.5</ele>
        <time>2026-07-02T06:56:04Z</time>
      </trkpt>
      <trkpt lat="52.973717981949449" lon="-9.292932981625199">
        <ele>26.57</ele>
        <time>2026-07-02T06:56:16Z</time>
      </trkpt>
      <trkpt lat="52.974379984661937" lon="-9.29020500741899">
        <ele>27.530000000000001</ele>
        <time>2026-07-02T06:56:31Z</time>
      </trkpt>
      <trkpt lat="52.974877031520009" lon="-9.288158984854817">
        <ele>30.420000000000002</ele>
        <time>2026-07-02T06:56:43Z</time>
      </trkpt>
      <trkpt lat="52.975273998454213" lon="-9.286524010822177">
        <ele>35.229999999999997</ele>
        <time>2026-07-02T06:56:53Z</time>
      </trkpt>
      <trkpt lat="52.975845979526639" lon="-9.284169031307101">
        <ele>35.710000000000001</ele>
        <time>2026-07-02T06:57:07Z</time>
      </trkpt>
      <trkpt lat="52.9764489736408" lon="-9.28165496326983">
        <ele>39.07</ele>
        <time>2026-07-02T06:57:22Z</time>
      </trkpt>
      <trkpt lat="52.977122962474823" lon="-9.27855902351439">
        <ele>40.030000000000001</ele>
        <time>2026-07-02T06:57:39Z</time>
      </trkpt>
      <trkpt lat="52.977496962994337" lon="-9.275970021262765">
        <ele>39.549999999999997</ele>
        <time>2026-07-02T06:57:52Z</time>
      </trkpt>
      <trkpt lat="52.977773984894156" lon="-9.273942019790411">
        <ele>40.509999999999998</ele>
        <time>2026-07-02T06:58:03Z</time>
      </trkpt>
      <trkpt lat="52.977955034002662" lon="-9.272418022155762">
        <ele>43.399999999999999</ele>
        <time>2026-07-02T06:58:13Z</time>
      </trkpt>
      <trkpt lat="52.978117978200316" lon="-9.270935012027621">
        <ele>44.359999999999999</ele>
        <time>2026-07-02T06:58:22Z</time>
      </trkpt>
      <trkpt lat="52.978134993463755" lon="-9.270776007324457">
        <ele>44.359999999999999</ele>
        <time>2026-07-02T06:58:23Z</time>
      </trkpt>
      <trkpt lat="52.978310007601976" lon="-9.269156958907843">
        <ele>43.399999999999999</ele>
        <time>2026-07-02T06:58:33Z</time>
      </trkpt>
      <trkpt lat="52.978523997589946" lon="-9.266873979941011">
        <ele>46.759999999999998</ele>
        <time>2026-07-02T06:58:46Z</time>
      </trkpt>
      <trkpt lat="52.978710997849703" lon="-9.264879003167152">
        <ele>47.719999999999999</ele>
        <time>2026-07-02T06:58:57Z</time>
      </trkpt>
      <trkpt lat="52.978859022259712" lon="-9.263289039954543">
        <ele>46.759999999999998</ele>
        <time>2026-07-02T06:59:07Z</time>
      </trkpt>
      <trkpt lat="52.978929011151195" lon="-9.262547995895147">
        <ele>47.240000000000002</ele>
        <time>2026-07-02T06:59:11Z</time>
      </trkpt>
      <trkpt lat="52.979109976440668" lon="-9.260283960029483">
        <ele>48.68</ele>
        <time>2026-07-02T06:59:24Z</time>
      </trkpt>
      <trkpt lat="52.979307034984231" lon="-9.257820015773177">
        <ele>55.890000000000001</ele>
        <time>2026-07-02T06:59:39Z</time>
      </trkpt>
      <trkpt lat="52.979526976123452" lon="-9.254981987178326">
        <ele>62.140000000000001</ele>
        <time>2026-07-02T06:59:54Z</time>
      </trkpt>
      <trkpt lat="52.97971498221159" lon="-9.251855034381151">
        <ele>67.430000000000007</ele>
        <time>2026-07-02T07:00:09Z</time>
      </trkpt>
      <trkpt lat="52.979682963341475" lon="-9.250060971826315">
        <ele>68.870000000000005</ele>
        <time>2026-07-02T07:00:18Z</time>
      </trkpt>
      <trkpt lat="52.979624960571527" lon="-9.249529978260398">
        <ele>70.790000000000006</ele>
        <time>2026-07-02T07:00:24Z</time>
      </trkpt>
      <trkpt lat="52.979551032185555" lon="-9.249437022954226">
        <ele>71.760000000000005</ele>
        <time>2026-07-02T07:00:31Z</time>
      </trkpt>
      <trkpt lat="52.979567041620612" lon="-9.249350018799305">
        <ele>71.760000000000005</ele>
        <time>2026-07-02T07:00:32Z</time>
      </trkpt>
      <trkpt lat="52.979589002206922" lon="-9.249234013259411">
        <ele>71.760000000000005</ele>
        <time>2026-07-02T07:00:33Z</time>
      </trkpt>
      <trkpt lat="52.979639964178205" lon="-9.248956991359592">
        <ele>72.239999999999995</ele>
        <time>2026-07-02T07:00:35Z</time>
      </trkpt>
      <trkpt lat="52.979965014383197" lon="-9.247194025665522">
        <ele>73.680000000000007</ele>
        <time>2026-07-02T07:00:44Z</time>
      </trkpt>
      <trkpt lat="52.980619976297021" lon="-9.243567008525133">
        <ele>77.040000000000006</ele>
        <time>2026-07-02T07:01:00Z</time>
      </trkpt>
      <trkpt lat="52.980660041794181" lon="-9.243336003273726">
        <ele>77.040000000000006</ele>
        <time>2026-07-02T07:01:01Z</time>
      </trkpt>
      <trkpt lat="52.980903033167124" lon="-9.242221964523196">
        <ele>78</ele>
        <time>2026-07-02T07:01:06Z</time>
      </trkpt>
      <trkpt lat="52.98096003010869" lon="-9.242034964263439">
        <ele>78.480000000000004</ele>
        <time>2026-07-02T07:01:07Z</time>
      </trkpt>
      <trkpt lat="52.98104502260685" lon="-9.241889035329223">
        <ele>78.969999999999999</ele>
        <time>2026-07-02T07:01:08Z</time>
      </trkpt>
      <trkpt lat="52.981134038418531" lon="-9.241747967898846">
        <ele>79.450000000000003</ele>
        <time>2026-07-02T07:01:09Z</time>
      </trkpt>
      <trkpt lat="52.98122095875442" lon="-9.241608995944262">
        <ele>79.930000000000007</ele>
        <time>2026-07-02T07:01:10Z</time>
      </trkpt>
      <trkpt lat="52.981332018971443" lon="-9.241432975977659">
        <ele>80.890000000000001</ele>
        <time>2026-07-02T07:01:11Z</time>
      </trkpt>
      <trkpt lat="52.981419023126364" lon="-9.241335997357965">
        <ele>81.849999999999994</ele>
        <time>2026-07-02T07:01:12Z</time>
      </trkpt>
      <trkpt lat="52.982428036630154" lon="-9.240141995251179">
        <ele>88.099999999999994</ele>
        <time>2026-07-02T07:01:21Z</time>
      </trkpt>
      <trkpt lat="52.982746968045831" lon="-9.239697000011802">
        <ele>89.060000000000002</ele>
        <time>2026-07-02T07:01:24Z</time>
      </trkpt>
      <trkpt lat="52.982862973585725" lon="-9.239579988643527">
        <ele>89.060000000000002</ele>
        <time>2026-07-02T07:01:25Z</time>
      </trkpt>
      <trkpt lat="52.982995994389057" lon="-9.239487033337355">
        <ele>88.579999999999998</ele>
        <time>2026-07-02T07:01:26Z</time>
      </trkpt>
      <trkpt lat="52.98313002102077" lon="-9.239405980333686">
        <ele>88.099999999999994</ele>
        <time>2026-07-02T07:01:28Z</time>
      </trkpt>
      <trkpt lat="52.983354991301894" lon="-9.239198025316">
        <ele>87.620000000000005</ele>
        <time>2026-07-02T07:01:29Z</time>
      </trkpt>
      <trkpt lat="52.983436966314912" lon="-9.239037008956075">
        <ele>86.659999999999997</ele>
        <time>2026-07-02T07:01:30Z</time>
      </trkpt>
      <trkpt lat="52.983521958813071" lon="-9.23885403200984">
        <ele>86.180000000000007</ele>
        <time>2026-07-02T07:01:31Z</time>
      </trkpt>
      <trkpt lat="52.983610974624753" lon="-9.238663008436561">
        <ele>85.689999999999998</ele>
        <time>2026-07-02T07:01:32Z</time>
      </trkpt>
      <trkpt lat="52.984300972893834" lon="-9.237091988325119">
        <ele>80.890000000000001</ele>
        <time>2026-07-02T07:01:40Z</time>
      </trkpt>
      <trkpt lat="52.984361993148923" lon="-9.236885039135814">
        <ele>80.409999999999997</ele>
        <time>2026-07-02T07:01:41Z</time>
      </trkpt>
      <trkpt lat="52.984417984262109" lon="-9.236672976985574">
        <ele>79.930000000000007</ele>
        <time>2026-07-02T07:01:42Z</time>
      </trkpt>
      <trkpt lat="52.984776981174946" lon="-9.235316030681133">
        <ele>75.120000000000005</ele>
        <time>2026-07-02T07:01:48Z</time>
      </trkpt>
      <trkpt lat="52.984853005036712" lon="-9.235113020986319">
        <ele>74.640000000000001</ele>
        <time>2026-07-02T07:01:49Z</time>
      </trkpt>
      <trkpt lat="52.98495601862669" lon="-9.234971031546593">
        <ele>73.680000000000007</ele>
        <time>2026-07-02T07:01:50Z</time>
      </trkpt>
      <trkpt lat="52.985065989196301" lon="-9.234854020178318">
        <ele>72.719999999999999</ele>
        <time>2026-07-02T07:01:51Z</time>
      </trkpt>
      <trkpt lat="52.985173026099801" lon="-9.234738014638424">
        <ele>72.239999999999995</ele>
        <time>2026-07-02T07:01:52Z</time>
      </trkpt>
      <trkpt lat="52.985293976962566" lon="-9.234669031575322">
        <ele>71.269999999999996</ele>
        <time>2026-07-02T07:01:53Z</time>
      </trkpt>
      <trkpt lat="52.985420962795615" lon="-9.234597031027079">
        <ele>70.790000000000006</ele>
        <time>2026-07-02T07:01:54Z</time>
      </trkpt>
      <trkpt lat="52.985677029937506" lon="-9.23445001244545">
        <ele>68.870000000000005</ele>
        <time>2026-07-02T07:01:56Z</time>
      </trkpt>
      <trkpt lat="52.985791023820639" lon="-9.234368959441781">
        <ele>68.870000000000005</ele>
        <time>2026-07-02T07:01:57Z</time>
      </trkpt>
      <trkpt lat="52.985878027975559" lon="-9.234230993315578">
        <ele>68.870000000000005</ele>
        <time>2026-07-02T07:01:58Z</time>
      </trkpt>
      <trkpt lat="52.985950028523803" lon="-9.234084980562329">
        <ele>68.870000000000005</ele>
        <time>2026-07-02T07:01:59Z</time>
      </trkpt>
      <trkpt lat="52.98601096495986" lon="-9.233908038586378">
        <ele>68.390000000000001</ele>
        <time>2026-07-02T07:02:00Z</time>
      </trkpt>
      <trkpt lat="52.98607500270009" lon="-9.233724977821112">
        <ele>68.870000000000005</ele>
        <time>2026-07-02T07:02:01Z</time>
      </trkpt>
      <trkpt lat="52.986124958842993" lon="-9.233528003096581">
        <ele>68.870000000000005</ele>
        <time>2026-07-02T07:02:02Z</time>
      </trkpt>
      <trkpt lat="52.9863559640944" lon="-9.23159102909267">
        <ele>66.469999999999999</ele>
        <time>2026-07-02T07:02:10Z</time>
      </trkpt>
      <trkpt lat="52.986484039574862" lon="-9.228244973346591">
        <ele>62.140000000000001</ele>
        <time>2026-07-02T07:02:23Z</time>
      </trkpt>
      <trkpt lat="52.986521003767848" lon="-9.226295007392764">
        <ele>63.579999999999998</ele>
        <time>2026-07-02T07:02:31Z</time>
      </trkpt>
      <trkpt lat="52.98652502708137" lon="-9.226090991869569">
        <ele>64.069999999999993</ele>
        <time>2026-07-02T07:02:32Z</time>
      </trkpt>
      <trkpt lat="52.986566014587879" lon="-9.225897034630179">
        <ele>64.069999999999993</ele>
        <time>2026-07-02T07:02:33Z</time>
      </trkpt>
      <trkpt lat="52.986603984609246" lon="-9.225716991350055">
        <ele>64.549999999999997</ele>
        <time>2026-07-02T07:02:34Z</time>
      </trkpt>
      <trkpt lat="52.9866530187428" lon="-9.225554969161749">
        <ele>65.030000000000001</ele>
        <time>2026-07-02T07:02:35Z</time>
      </trkpt>
      <trkpt lat="52.986731976270676" lon="-9.225440975278616">
        <ele>65.030000000000001</ele>
        <time>2026-07-02T07:02:36Z</time>
      </trkpt>
      <trkpt lat="52.986823003739119" lon="-9.225309966132045">
        <ele>65.510000000000005</ele>
        <time>2026-07-02T07:02:37Z</time>
      </trkpt>
      <trkpt lat="52.986915959045291" lon="-9.225175017490983">
        <ele>65.989999999999995</ele>
        <time>2026-07-02T07:02:38Z</time>
      </trkpt>
      <trkpt lat="52.987360032275319" lon="-9.224532041698694">
        <ele>66.469999999999999</ele>
        <time>2026-07-02T07:02:43Z</time>
      </trkpt>
      <trkpt lat="52.987439995631576" lon="-9.2244160361588">
        <ele>66.469999999999999</ele>
        <time>2026-07-02T07:02:44Z</time>
      </trkpt>
      <trkpt lat="52.987500010058284" lon="-9.224271029233933">
        <ele>66.469999999999999</ele>
        <time>2026-07-02T07:02:45Z</time>
      </trkpt>
      <trkpt lat="52.987550972029567" lon="-9.224104983732104">
        <ele>66.469999999999999</ele>
        <time>2026-07-02T07:02:46Z</time>
      </trkpt>
      <trkpt lat="52.987603023648262" lon="-9.223933992907405">
        <ele>65.989999999999995</ele>
        <time>2026-07-02T07:02:47Z</time>
      </trkpt>
      <trkpt lat="52.987950034439564" lon="-9.222078993916512">
        <ele>64.069999999999993</ele>
        <time>2026-07-02T07:02:57Z</time>
      </trkpt>
      <trkpt lat="52.988056987524033" lon="-9.221270978450775">
        <ele>64.069999999999993</ele>
        <time>2026-07-02T07:03:02Z</time>
      </trkpt>
      <trkpt lat="52.988096969202161" lon="-9.221142986789346">
        <ele>64.069999999999993</ele>
        <time>2026-07-02T07:03:03Z</time>
      </trkpt>
      <trkpt lat="52.988137034699321" lon="-9.221023041754961">
        <ele>64.069999999999993</ele>
        <time>2026-07-02T07:03:04Z</time>
      </trkpt>
      <trkpt lat="52.988198976963758" lon="-9.220925979316235">
        <ele>64.069999999999993</ele>
        <time>2026-07-02T07:03:05Z</time>
      </trkpt>
      <trkpt lat="52.988263014703989" lon="-9.220824977383018">
        <ele>64.069999999999993</ele>
        <time>2026-07-02T07:03:06Z</time>
      </trkpt>
      <trkpt lat="52.988342978060246" lon="-9.220766974613071">
        <ele>64.069999999999993</ele>
        <time>2026-07-02T07:03:07Z</time>
      </trkpt>
      <trkpt lat="52.988432999700308" lon="-9.220730010420084">
        <ele>64.069999999999993</ele>
        <time>2026-07-02T07:03:08Z</time>
      </trkpt>
      <trkpt lat="52.988525032997131" lon="-9.220692040398717">
        <ele>64.069999999999993</ele>
        <time>2026-07-02T07:03:09Z</time>
      </trkpt>
      <trkpt lat="52.988649001345038" lon="-9.220640994608402">
        <ele>64.069999999999993</ele>
        <time>2026-07-02T07:03:10Z</time>
      </trkpt>
      <trkpt lat="52.988711027428508" lon="-9.220640994608402">
        <ele>64.549999999999997</ele>
        <time>2026-07-02T07:03:11Z</time>
      </trkpt>
      <trkpt lat="52.988811023533344" lon="-9.220640994608402">
        <ele>64.549999999999997</ele>
        <time>2026-07-02T07:03:12Z</time>
      </trkpt>
      <trkpt lat="52.989529017359018" lon="-9.220662033185363">
        <ele>62.140000000000001</ele>
        <time>2026-07-02T07:03:19Z</time>
      </trkpt>
      <trkpt lat="52.989633958786726" lon="-9.220609981566668">
        <ele>62.140000000000001</ele>
        <time>2026-07-02T07:03:20Z</time>
      </trkpt>
      <trkpt lat="52.989700008183718" lon="-9.220576034858823">
        <ele>62.140000000000001</ele>
        <time>2026-07-02T07:03:21Z</time>
      </trkpt>
      <trkpt lat="52.989742001518607" lon="-9.220478972420096">
        <ele>62.140000000000001</ele>
        <time>2026-07-02T07:03:22Z</time>
      </trkpt>
      <trkpt lat="52.989771002903581" lon="-9.220380987972021">
        <ele>62.619999999999997</ele>
        <time>2026-07-02T07:03:23Z</time>
      </trkpt>
      <trkpt lat="52.989787012338638" lon="-9.220261964946985">
        <ele>62.619999999999997</ele>
        <time>2026-07-02T07:03:24Z</time>
      </trkpt>
      <trkpt lat="52.989807967096567" lon="-9.220103966072202">
        <ele>62.619999999999997</ele>
        <time>2026-07-02T07:03:25Z</time>
      </trkpt>
      <trkpt lat="52.989915004000068" lon="-9.218711983412504">
        <ele>62.619999999999997</ele>
        <time>2026-07-02T07:03:36Z</time>
      </trkpt>
      <trkpt lat="52.989915004000068" lon="-9.218576028943062">
        <ele>62.619999999999997</ele>
        <time>2026-07-02T07:03:37Z</time>
      </trkpt>
      <trkpt lat="52.989913998171687" lon="-9.218434039503336">
        <ele>62.619999999999997</ele>
        <time>2026-07-02T07:03:38Z</time>
      </trkpt>
      <trkpt lat="52.989895977079868" lon="-9.217681009322405">
        <ele>66.469999999999999</ele>
        <time>2026-07-02T07:03:43Z</time>
      </trkpt>
      <trkpt lat="52.98989899456501" lon="-9.217524016276002">
        <ele>66.950000000000003</ele>
        <time>2026-07-02T07:03:44Z</time>
      </trkpt>
      <trkpt lat="52.990004019811749" lon="-9.216751959174871">
        <ele>70.790000000000006</ele>
        <time>2026-07-02T07:03:49Z</time>
      </trkpt>
      <trkpt lat="52.990356981754303" lon="-9.215325023978949">
        <ele>72.239999999999995</ele>
        <time>2026-07-02T07:03:59Z</time>
      </trkpt>
      <trkpt lat="52.990406015887856" lon="-9.214173015207052">
        <ele>72.719999999999999</ele>
        <time>2026-07-02T07:04:07Z</time>
      </trkpt>
      <trkpt lat="52.990407021716237" lon="-9.214095985516906">
        <ele>72.719999999999999</ele>
        <time>2026-07-02T07:04:08Z</time>
      </trkpt>
      <trkpt lat="52.990408027544618" lon="-9.214033959433436">
        <ele>72.719999999999999</ele>
        <time>2026-07-02T07:04:09Z</time>
      </trkpt>
      <trkpt lat="52.990375002846122" lon="-9.213881995528936">
        <ele>72.239999999999995</ele>
        <time>2026-07-02T07:04:14Z</time>
      </trkpt>
      <trkpt lat="52.990368967875838" lon="-9.213859029114246">
        <ele>72.239999999999995</ele>
        <time>2026-07-02T07:04:23Z</time>
      </trkpt>
      <trkpt lat="52.990377014502883" lon="-9.213889036327601">
        <ele>71.760000000000005</ele>
        <time>2026-07-02T07:04:24Z</time>
      </trkpt>
      <trkpt lat="52.990385983139277" lon="-9.213923988863826">
        <ele>71.760000000000005</ele>
        <time>2026-07-02T07:04:25Z</time>
      </trkpt>
      <trkpt lat="52.990385983139277" lon="-9.213923988863826">
        <ele>71.760000000000005</ele>
        <time>2026-07-02T07:04:26Z</time>
      </trkpt>
      <trkpt lat="52.990407021716237" lon="-9.214078970253468">
        <ele>71.760000000000005</ele>
        <time>2026-07-02T07:04:27Z</time>
      </trkpt>
      <trkpt lat="52.990405010059476" lon="-9.214185001328588">
        <ele>71.760000000000005</ele>
        <time>2026-07-02T07:04:28Z</time>
      </trkpt>
      <trkpt lat="52.990402998402715" lon="-9.214309975504875">
        <ele>71.760000000000005</ele>
        <time>2026-07-02T07:04:29Z</time>
      </trkpt>
      <trkpt lat="52.990400986745954" lon="-9.214434027671814">
        <ele>71.760000000000005</ele>
        <time>2026-07-02T07:04:30Z</time>
      </trkpt>
      <trkpt lat="52.990390006452799" lon="-9.215052025392652">
        <ele>70.790000000000006</ele>
        <time>2026-07-02T07:04:36Z</time>
      </trkpt>
      <trkpt lat="52.990387994796038" lon="-9.215126959607005">
        <ele>70.790000000000006</ele>
        <time>2026-07-02T07:04:37Z</time>
      </trkpt>
      <trkpt lat="52.990444991737604" lon="-9.215206000953913">
        <ele>70.790000000000006</ele>
        <time>2026-07-02T07:04:38Z</time>
      </trkpt>
      <trkpt lat="52.990505006164312" lon="-9.21522201038897">
        <ele>70.790000000000006</ele>
        <time>2026-07-02T07:04:39Z</time>
      </trkpt>
      <trkpt lat="52.990580024197698" lon="-9.215241959318519">
        <ele>70.790000000000006</ele>
        <time>2026-07-02T07:04:40Z</time>
      </trkpt>
      <trkpt lat="52.990658981725574" lon="-9.215262997895479">
        <ele>70.310000000000002</ele>
        <time>2026-07-02T07:04:41Z</time>
      </trkpt>
      <trkpt lat="52.990733999758959" lon="-9.215273978188634">
        <ele>70.310000000000002</ele>
        <time>2026-07-02T07:04:42Z</time>
      </trkpt>
      <trkpt lat="52.990807006135583" lon="-9.215269032865763">
        <ele>69.829999999999998</ele>
        <time>2026-07-02T07:04:43Z</time>
      </trkpt>
      <trkpt lat="52.991054020822048" lon="-9.21524397097528">
        <ele>68.390000000000001</ele>
        <time>2026-07-02T07:04:49Z</time>
      </trkpt>
      <trkpt lat="52.991268010810018" lon="-9.215224022045732">
        <ele>67.909999999999997</ele>
        <time>2026-07-02T07:04:52Z</time>
      </trkpt>
      <trkpt lat="52.992399986833334" lon="-9.215282024815679">
        <ele>67.909999999999997</ele>
        <time>2026-07-02T07:05:03Z</time>
      </trkpt>
      <trkpt lat="52.993305986747146" lon="-9.215366011485457">
        <ele>66.469999999999999</ele>
        <time>2026-07-02T07:05:08Z</time>
      </trkpt>
      <trkpt lat="52.994972979649901" lon="-9.215533984825015">
        <ele>62.140000000000001</ele>
        <time>2026-07-02T07:05:18Z</time>
      </trkpt>
      <trkpt lat="52.997059989720583" lon="-9.215785022825003">
        <ele>65.030000000000001</ele>
        <time>2026-07-02T07:05:31Z</time>
      </trkpt>
      <trkpt lat="52.998441997915506" lon="-9.215959031134844">
        <ele>65.510000000000005</ele>
        <time>2026-07-02T07:05:40Z</time>
      </trkpt>
      <trkpt lat="52.99918002448976" lon="-9.216104038059712">
        <ele>64.069999999999993</ele>
        <time>2026-07-02T07:05:45Z</time>
      </trkpt>
      <trkpt lat="52.99928798340261" lon="-9.216186013072729">
        <ele>64.069999999999993</ele>
        <time>2026-07-02T07:05:46Z</time>
      </trkpt>
      <trkpt lat="52.999378005042672" lon="-9.216306963935494">
        <ele>64.069999999999993</ele>
        <time>2026-07-02T07:05:47Z</time>
      </trkpt>
      <trkpt lat="52.999453023076057" lon="-9.216457000002265">
        <ele>64.069999999999993</ele>
        <time>2026-07-02T07:05:48Z</time>
      </trkpt>
      <trkpt lat="52.999526029452682" lon="-9.216619022190571">
        <ele>64.549999999999997</ele>
        <time>2026-07-02T07:05:49Z</time>
      </trkpt>
      <trkpt lat="52.999598030000925" lon="-9.216794958338141">
        <ele>65.510000000000005</ele>
        <time>2026-07-02T07:05:50Z</time>
      </trkpt>
      <trkpt lat="53.000302026048303" lon="-9.218219965696335">
        <ele>73.200000000000003</ele>
        <time>2026-07-02T07:05:58Z</time>
      </trkpt>
      <trkpt lat="53.000395987182856" lon="-9.218376036733389">
        <ele>74.159999999999997</ele>
        <time>2026-07-02T07:05:59Z</time>
      </trkpt>
      <trkpt lat="53.000500006601214" lon="-9.218501010909677">
        <ele>74.640000000000001</ele>
        <time>2026-07-02T07:06:00Z</time>
      </trkpt>
      <trkpt lat="53.000614000484347" lon="-9.21861601062119">
        <ele>75.599999999999994</ele>
        <time>2026-07-02T07:06:01Z</time>
      </trkpt>
      <trkpt lat="53.000741992145777" lon="-9.218685999512672">
        <ele>76.560000000000002</ele>
        <time>2026-07-02T07:06:02Z</time>
      </trkpt>
      <trkpt lat="53.00087601877749" lon="-9.218753976747394">
        <ele>77.040000000000006</ele>
        <time>2026-07-02T07:06:03Z</time>
      </trkpt>
      <trkpt lat="53.002053005620837" lon="-9.219370968639851">
        <ele>87.140000000000001</ele>
        <time>2026-07-02T07:06:12Z</time>
      </trkpt>
      <trkpt lat="53.002199018374085" lon="-9.219415979459882">
        <ele>87.620000000000005</ele>
        <time>2026-07-02T07:06:13Z</time>
      </trkpt>
      <trkpt lat="53.002350982278585" lon="-9.219436012208462">
        <ele>88.099999999999994</ele>
        <time>2026-07-02T07:06:14Z</time>
      </trkpt>
      <trkpt lat="53.004116965457797" lon="-9.219212969765067">
        <ele>100.11</ele>
        <time>2026-07-02T07:06:26Z</time>
      </trkpt>
      <trkpt lat="53.004751978442073" lon="-9.218935025855899">
        <ele>103.95999999999999</ele>
        <time>2026-07-02T07:06:31Z</time>
      </trkpt>
      <trkpt lat="53.004853986203671" lon="-9.218843998387456">
        <ele>104.92</ele>
        <time>2026-07-02T07:06:32Z</time>
      </trkpt>
      <trkpt lat="53.004946019500494" lon="-9.218715000897646">
        <ele>105.88</ele>
        <time>2026-07-02T07:06:33Z</time>
      </trkpt>
      <trkpt lat="53.005040986463428" lon="-9.218579968437553">
        <ele>106.36</ele>
        <time>2026-07-02T07:06:34Z</time>
      </trkpt>
      <trkpt lat="53.005138970911503" lon="-9.218442002311349">
        <ele>106.84</ele>
        <time>2026-07-02T07:06:35Z</time>
      </trkpt>
      <trkpt lat="53.005415992811322" lon="-9.217919977381825">
        <ele>108.77</ele>
        <time>2026-07-02T07:06:38Z</time>
      </trkpt>
      <trkpt lat="53.006042037159204" lon="-9.216304030269384">
        <ele>115.5</ele>
        <time>2026-07-02T07:06:46Z</time>
      </trkpt>
      <trkpt lat="53.006122000515461" lon="-9.216172015294433">
        <ele>116.45999999999999</ele>
        <time>2026-07-02T07:06:47Z</time>
      </trkpt>
      <trkpt lat="53.006214033812284" lon="-9.216096997261047">
        <ele>116.94</ele>
        <time>2026-07-02T07:06:48Z</time>
      </trkpt>
      <trkpt lat="53.006309000775218" lon="-9.216070007532835">
        <ele>117.42</ele>
        <time>2026-07-02T07:06:49Z</time>
      </trkpt>
      <trkpt lat="53.006410002708435" lon="-9.216114012524486">
        <ele>117.42</ele>
        <time>2026-07-02T07:06:50Z</time>
      </trkpt>
      <trkpt lat="53.006497006863356" lon="-9.216193975880742">
        <ele>117.90000000000001</ele>
        <time>2026-07-02T07:06:51Z</time>
      </trkpt>
      <trkpt lat="53.006581999361515" lon="-9.216323979198933">
        <ele>118.38</ele>
        <time>2026-07-02T07:06:52Z</time>
      </trkpt>
      <trkpt lat="53.006674032658339" lon="-9.216464962810278">
        <ele>118.38</ele>
        <time>2026-07-02T07:06:53Z</time>
      </trkpt>
      <trkpt lat="53.00727903842926" lon="-9.21784202568233">
        <ele>117.90000000000001</ele>
        <time>2026-07-02T07:07:00Z</time>
      </trkpt>
      <trkpt lat="53.007831992581487" lon="-9.220091979950666">
        <ele>116.45999999999999</ele>
        <time>2026-07-02T07:07:09Z</time>
      </trkpt>
      <trkpt lat="53.007904998958111" lon="-9.220303958281875">
        <ele>115.98</ele>
        <time>2026-07-02T07:07:10Z</time>
      </trkpt>
      <trkpt lat="53.00798898562789" lon="-9.220491964370012">
        <ele>115.5</ele>
        <time>2026-07-02T07:07:11Z</time>
      </trkpt>
      <trkpt lat="53.008085964247584" lon="-9.220664966851473">
        <ele>115.5</ele>
        <time>2026-07-02T07:07:12Z</time>
      </trkpt>
      <trkpt lat="53.00820398144424" lon="-9.220803016796708">
        <ele>115.01000000000001</ele>
        <time>2026-07-02T07:07:13Z</time>
      </trkpt>
      <trkpt lat="53.008326021954417" lon="-9.22093503177166">
        <ele>114.53</ele>
        <time>2026-07-02T07:07:14Z</time>
      </trkpt>
      <trkpt lat="53.008467005565763" lon="-9.221036033704877">
        <ele>114.05</ele>
        <time>2026-07-02T07:07:15Z</time>
      </trkpt>
      <trkpt lat="53.008604971691966" lon="-9.221134018152952">
        <ele>114.05</ele>
        <time>2026-07-02T07:07:16Z</time>
      </trkpt>
      <trkpt lat="53.008761964738369" lon="-9.221176011487842">
        <ele>114.05</ele>
        <time>2026-07-02T07:07:17Z</time>
      </trkpt>
      <trkpt lat="53.008922981098294" lon="-9.221219010651112">
        <ele>113.56999999999999</ele>
        <time>2026-07-02T07:07:18Z</time>
      </trkpt>
      <trkpt lat="53.0090850032866" lon="-9.221262009814382">
        <ele>113.56999999999999</ele>
        <time>2026-07-02T07:07:19Z</time>
      </trkpt>
      <trkpt lat="53.010029979050159" lon="-9.221599968150258">
        <ele>112.61</ele>
        <time>2026-07-02T07:07:25Z</time>
      </trkpt>
      <trkpt lat="53.010175991803408" lon="-9.221687978133559">
        <ele>113.09</ele>
        <time>2026-07-02T07:07:26Z</time>
      </trkpt>
      <trkpt lat="53.011388015002012" lon="-9.22280696220696">
        <ele>117.90000000000001</ele>
        <time>2026-07-02T07:07:35Z</time>
      </trkpt>
      <trkpt lat="53.011507960036397" lon="-9.22295599244535">
        <ele>118.38</ele>
        <time>2026-07-02T07:07:36Z</time>
      </trkpt>
      <trkpt lat="53.012417983263731" lon="-9.224905036389828">
        <ele>123.67</ele>
        <time>2026-07-02T07:07:46Z</time>
      </trkpt>
      <trkpt lat="53.012941014021635" lon="-9.22705901786685">
        <ele>126.55</ele>
        <time>2026-07-02T07:07:56Z</time>
      </trkpt>
      <trkpt lat="53.013573009520769" lon="-9.228540016338229">
        <ele>127.51000000000001</ele>
        <time>2026-07-02T07:08:06Z</time>
      </trkpt>
      <trkpt lat="53.014493007212877" lon="-9.230376994237304">
        <ele>130.40000000000001</ele>
        <time>2026-07-02T07:08:17Z</time>
      </trkpt>
      <trkpt lat="53.015544014051557" lon="-9.231952959671617">
        <ele>133.28</ele>
        <time>2026-07-02T07:08:28Z</time>
      </trkpt>
      <trkpt lat="53.016087999567389" lon="-9.233653983101249">
        <ele>132.31999999999999</ele>
        <time>2026-07-02T07:08:37Z</time>
      </trkpt>
      <trkpt lat="53.016113983467221" lon="-9.23376202583313">
        <ele>132.80000000000001</ele>
        <time>2026-07-02T07:08:41Z</time>
      </trkpt>
      <trkpt lat="53.016113983467221" lon="-9.23376202583313">
        <ele>132.31999999999999</ele>
        <time>2026-07-02T07:08:50Z</time>
      </trkpt>
      <trkpt lat="53.016194030642509" lon="-9.233812987804413">
        <ele>132.31999999999999</ele>
        <time>2026-07-02T07:09:02Z</time>
      </trkpt>
      <trkpt lat="53.016194030642509" lon="-9.233812987804413">
        <ele>132.31999999999999</ele>
        <time>2026-07-02T07:09:08Z</time>
      </trkpt>
      <trkpt lat="53.016014993190765" lon="-9.233344020321965">
        <ele>131.36000000000001</ele>
        <time>2026-07-02T07:09:15Z</time>
      </trkpt>
      <trkpt lat="53.015643004328012" lon="-9.232141971588135">
        <ele>132.80000000000001</ele>
        <time>2026-07-02T07:09:22Z</time>
      </trkpt>
      <trkpt lat="53.014768017455935" lon="-9.230846967548132">
        <ele>132.80000000000001</ele>
        <time>2026-07-02T07:09:30Z</time>
      </trkpt>
      <trkpt lat="53.013860005885363" lon="-9.229177040979266">
        <ele>130.88</ele>
        <time>2026-07-02T07:09:39Z</time>
      </trkpt>
      <trkpt lat="53.012840012088418" lon="-9.226772021502256">
        <ele>126.06999999999999</ele>
        <time>2026-07-02T07:09:51Z</time>
      </trkpt>
      <trkpt lat="53.012356040999293" lon="-9.22469699755311">
        <ele>123.67</ele>
        <time>2026-07-02T07:10:00Z</time>
      </trkpt>
      <trkpt lat="53.012273982167244" lon="-9.22448200173676">
        <ele>123.19</ele>
        <time>2026-07-02T07:10:01Z</time>
      </trkpt>
      <trkpt lat="53.011735025793314" lon="-9.223367962986231">
        <ele>118.38</ele>
        <time>2026-07-02T07:10:08Z</time>
      </trkpt>
      <trkpt lat="53.011565040796995" lon="-9.22297703102231">
        <ele>118.38</ele>
        <time>2026-07-02T07:10:15Z</time>
      </trkpt>
      <trkpt lat="53.011593036353588" lon="-9.222945012152195">
        <ele>118.38</ele>
        <time>2026-07-02T07:10:16Z</time>
      </trkpt>
      <trkpt lat="53.011627988889813" lon="-9.222904024645686">
        <ele>118.86</ele>
        <time>2026-07-02T07:10:17Z</time>
      </trkpt>
      <trkpt lat="53.011671993881464" lon="-9.222852978855372">
        <ele>118.86</ele>
        <time>2026-07-02T07:10:18Z</time>
      </trkpt>
      <trkpt lat="53.011724967509508" lon="-9.222791036590934">
        <ele>118.86</ele>
        <time>2026-07-02T07:10:19Z</time>
      </trkpt>
      <trkpt lat="53.011785987764597" lon="-9.22272096388042">
        <ele>119.34</ele>
        <time>2026-07-02T07:10:20Z</time>
      </trkpt>
      <trkpt lat="53.012685030698776" lon="-9.221850000321865">
        <ele>123.67</ele>
        <time>2026-07-02T07:10:30Z</time>
      </trkpt>
      <trkpt lat="53.013947010040283" lon="-9.220858002081513">
        <ele>130.88</ele>
        <time>2026-07-02T07:10:42Z</time>
      </trkpt>
      <trkpt lat="53.015365982428193" lon="-9.220178984105587">
        <ele>132.31999999999999</ele>
        <time>2026-07-02T07:10:53Z</time>
      </trkpt>
      <trkpt lat="53.017228022217751" lon="-9.219704987481237">
        <ele>127.51000000000001</ele>
        <time>2026-07-02T07:11:04Z</time>
      </trkpt>
      <trkpt lat="53.018830977380276" lon="-9.219067040830851">
        <ele>131.36000000000001</ele>
        <time>2026-07-02T07:11:14Z</time>
      </trkpt>
      <trkpt lat="53.020743979141116" lon="-9.217795003205538">
        <ele>138.09</ele>
        <time>2026-07-02T07:11:27Z</time>
      </trkpt>
      <trkpt lat="53.02223302423954" lon="-9.216373013332486">
        <ele>140.00999999999999</ele>
        <time>2026-07-02T07:11:38Z</time>
      </trkpt>
      <trkpt lat="53.023024024441838" lon="-9.215404987335205">
        <ele>141.93000000000001</ele>
        <time>2026-07-02T07:11:46Z</time>
      </trkpt>
      <trkpt lat="53.023107005283237" lon="-9.215371962636709">
        <ele>141.93000000000001</ele>
        <time>2026-07-02T07:11:47Z</time>
      </trkpt>
      <trkpt lat="53.023190991953015" lon="-9.215339021757245">
        <ele>142.41</ele>
        <time>2026-07-02T07:11:48Z</time>
      </trkpt>
      <trkpt lat="53.023280007764697" lon="-9.215318989008665">
        <ele>142.88999999999999</ele>
        <time>2026-07-02T07:11:49Z</time>
      </trkpt>
      <trkpt lat="53.023377992212772" lon="-9.215318989008665">
        <ele>142.88999999999999</ele>
        <time>2026-07-02T07:11:50Z</time>
      </trkpt>
      <trkpt lat="53.024513991549611" lon="-9.215355031192303">
        <ele>139.05000000000001</ele>
        <time>2026-07-02T07:11:59Z</time>
      </trkpt>
      <trkpt lat="53.025646973401308" lon="-9.21565200202167">
        <ele>142.88999999999999</ele>
        <time>2026-07-02T07:12:09Z</time>
      </trkpt>
      <trkpt lat="53.025726014748216" lon="-9.215648984536529">
        <ele>143.37</ele>
        <time>2026-07-02T07:12:10Z</time>
      </trkpt>
      <trkpt lat="53.025805978104472" lon="-9.215621994808316">
        <ele>143.84999999999999</ele>
        <time>2026-07-02T07:12:11Z</time>
      </trkpt>
      <trkpt lat="53.02588602527976" lon="-9.215589975938201">
        <ele>143.84999999999999</ele>
        <time>2026-07-02T07:12:12Z</time>
      </trkpt>
      <trkpt lat="53.02597101777792" lon="-9.21550297178328">
        <ele>144.34</ele>
        <time>2026-07-02T07:12:13Z</time>
      </trkpt>
      <trkpt lat="53.026062967255712" lon="-9.215408004820347">
        <ele>144.34</ele>
        <time>2026-07-02T07:12:14Z</time>
      </trkpt>
      <trkpt lat="53.026825971901417" lon="-9.214717000722885">
        <ele>144.34</ele>
        <time>2026-07-02T07:12:21Z</time>
      </trkpt>
      <trkpt lat="53.026935020461679" lon="-9.214680958539248">
        <ele>144.81999999999999</ele>
        <time>2026-07-02T07:12:22Z</time>
      </trkpt>
      <trkpt lat="53.02704700268805" lon="-9.214643994346261">
        <ele>145.30000000000001</ele>
        <time>2026-07-02T07:12:23Z</time>
      </trkpt>
      <trkpt lat="53.02704700268805" lon="-9.214643994346261">
        <ele>145.78</ele>
        <time>2026-07-02T07:12:24Z</time>
      </trkpt>
      <trkpt lat="53.02728203125298" lon="-9.214670984074473">
        <ele>146.74000000000001</ele>
        <time>2026-07-02T07:12:25Z</time>
      </trkpt>
      <trkpt lat="53.027384961023927" lon="-9.214715994894505">
        <ele>146.74000000000001</ele>
        <time>2026-07-02T07:12:26Z</time>
      </trkpt>
      <trkpt lat="53.027474982663989" lon="-9.214755976572633">
        <ele>147.69999999999999</ele>
        <time>2026-07-02T07:12:27Z</time>
      </trkpt>
      <trkpt lat="53.027541032060981" lon="-9.214852033182979">
        <ele>148.18000000000001</ele>
        <time>2026-07-02T07:12:28Z</time>
      </trkpt>
      <trkpt lat="53.027602974325418" lon="-9.214955968782306">
        <ele>148.18000000000001</ele>
        <time>2026-07-02T07:12:29Z</time>
      </trkpt>
      <trkpt lat="53.027670029550791" lon="-9.21506904065609">
        <ele>148.66</ele>
        <time>2026-07-02T07:12:30Z</time>
      </trkpt>
      <trkpt lat="53.027740018442273" lon="-9.215186974033713">
        <ele>149.13999999999999</ele>
        <time>2026-07-02T07:12:31Z</time>
      </trkpt>
      <trkpt lat="53.027875972911716" lon="-9.21541596762836">
        <ele>149.13999999999999</ele>
        <time>2026-07-02T07:12:33Z</time>
      </trkpt>
      <trkpt lat="53.02794998511672" lon="-9.215455027297139">
        <ele>149.13999999999999</ele>
        <time>2026-07-02T07:12:34Z</time>
      </trkpt>
      <trkpt lat="53.028031038120389" lon="-9.215465001761913">
        <ele>149.13999999999999</ele>
        <time>2026-07-02T07:12:35Z</time>
      </trkpt>
      <trkpt lat="53.028108989819884" lon="-9.215412028133869">
        <ele>149.62</ele>
        <time>2026-07-02T07:12:36Z</time>
      </trkpt>
      <trkpt lat="53.028191970661283" lon="-9.215300967916846">
        <ele>150.09999999999999</ele>
        <time>2026-07-02T07:12:37Z</time>
      </trkpt>
      <trkpt lat="53.028286015614867" lon="-9.215174987912178">
        <ele>150.58000000000001</ele>
        <time>2026-07-02T07:12:38Z</time>
      </trkpt>
      <trkpt lat="53.029621001332998" lon="-9.213384026661515">
        <ele>157.78999999999999</ele>
        <time>2026-07-02T07:12:51Z</time>
      </trkpt>
      <trkpt lat="53.029920989647508" lon="-9.213112033903599">
        <ele>158.75</ele>
        <time>2026-07-02T07:12:54Z</time>
      </trkpt>
      <trkpt lat="53.030021991580725" lon="-9.213074985891581">
        <ele>158.75</ele>
        <time>2026-07-02T07:12:55Z</time>
      </trkpt>
      <trkpt lat="53.030299013480544" lon="-9.212973983958364">
        <ele>159.24000000000001</ele>
        <time>2026-07-02T07:12:58Z</time>
      </trkpt>
      <trkpt lat="53.030383000150323" lon="-9.212917992845178">
        <ele>159.24000000000001</ele>
        <time>2026-07-02T07:12:59Z</time>
      </trkpt>
      <trkpt lat="53.030468998476863" lon="-9.212830988690257">
        <ele>159.72</ele>
        <time>2026-07-02T07:13:00Z</time>
      </trkpt>
      <trkpt lat="53.03054703399539" lon="-9.212719006463885">
        <ele>159.72</ele>
        <time>2026-07-02T07:13:01Z</time>
      </trkpt>
      <trkpt lat="53.030616017058492" lon="-9.212581962347031">
        <ele>160.68000000000001</ele>
        <time>2026-07-02T07:13:02Z</time>
      </trkpt>
      <trkpt lat="53.030688017606735" lon="-9.212438967078924">
        <ele>161.16</ele>
        <time>2026-07-02T07:13:03Z</time>
      </trkpt>
      <trkpt lat="53.030764041468501" lon="-9.212288009002805">
        <ele>161.63999999999999</ele>
        <time>2026-07-02T07:13:04Z</time>
      </trkpt>
      <trkpt lat="53.030842998996377" lon="-9.212131015956402">
        <ele>162.12</ele>
        <time>2026-07-02T07:13:05Z</time>
      </trkpt>
      <trkpt lat="53.030923968181014" lon="-9.211969999596477">
        <ele>162.59999999999999</ele>
        <time>2026-07-02T07:13:06Z</time>
      </trkpt>
      <trkpt lat="53.032058039680123" lon="-9.209714010357857">
        <ele>168.84999999999999</ele>
        <time>2026-07-02T07:13:20Z</time>
      </trkpt>
      <trkpt lat="53.032487025484443" lon="-9.208859978243709">
        <ele>173.16999999999999</ele>
        <time>2026-07-02T07:13:26Z</time>
      </trkpt>
      <trkpt lat="53.032565983012319" lon="-9.208744978532195">
        <ele>173.66</ele>
        <time>2026-07-02T07:13:27Z</time>
      </trkpt>
      <trkpt lat="53.032668996602297" lon="-9.208660991862416">
        <ele>174.62</ele>
        <time>2026-07-02T07:13:28Z</time>
      </trkpt>
      <trkpt lat="53.032786007970572" lon="-9.208574993535876">
        <ele>175.58000000000001</ele>
        <time>2026-07-02T07:13:29Z</time>
      </trkpt>
      <trkpt lat="53.032910982146859" lon="-9.208534006029367">
        <ele>176.06</ele>
        <time>2026-07-02T07:13:30Z</time>
      </trkpt>
      <trkpt lat="53.033022964373231" lon="-9.208496036008">
        <ele>177.02000000000001</ele>
        <time>2026-07-02T07:13:31Z</time>
      </trkpt>
      <trkpt lat="53.033155985176563" lon="-9.20851799659431">
        <ele>177.5</ele>
        <time>2026-07-02T07:13:32Z</time>
      </trkpt>
      <trkpt lat="53.033280037343502" lon="-9.20853802934289">
        <ele>177.97999999999999</ele>
        <time>2026-07-02T07:13:33Z</time>
      </trkpt>
      <trkpt lat="53.03340601734817" lon="-9.208558984100819">
        <ele>178.46000000000001</ele>
        <time>2026-07-02T07:13:34Z</time>
      </trkpt>
      <trkpt lat="53.033529985696077" lon="-9.208580022677779">
        <ele>179.41999999999999</ele>
        <time>2026-07-02T07:13:35Z</time>
      </trkpt>
      <trkpt lat="53.033648002892733" lon="-9.208599971607328">
        <ele>179.41999999999999</ele>
        <time>2026-07-02T07:13:36Z</time>
      </trkpt>
      <trkpt lat="53.033752022311091" lon="-9.208578011021018">
        <ele>180.38</ele>
        <time>2026-07-02T07:13:37Z</time>
      </trkpt>
      <trkpt lat="53.033850006759167" lon="-9.208548003807664">
        <ele>180.87</ele>
        <time>2026-07-02T07:13:38Z</time>
      </trkpt>
      <trkpt lat="53.033928964287043" lon="-9.208468040451407">
        <ele>181.34999999999999</ele>
        <time>2026-07-02T07:13:39Z</time>
      </trkpt>
      <trkpt lat="53.03398797288537" lon="-9.208341976627708">
        <ele>181.83000000000001</ele>
        <time>2026-07-02T07:13:40Z</time>
      </trkpt>
      <trkpt lat="53.034032983705401" lon="-9.208192024379969">
        <ele>182.31</ele>
        <time>2026-07-02T07:13:41Z</time>
      </trkpt>
      <trkpt lat="53.034076988697052" lon="-9.208048023283482">
        <ele>182.31</ele>
        <time>2026-07-02T07:13:42Z</time>
      </trkpt>
      <trkpt lat="53.034240016713738" lon="-9.207510994747281">
        <ele>183.75</ele>
        <time>2026-07-02T07:13:48Z</time>
      </trkpt>
      <trkpt lat="53.03426600061357" lon="-9.207502026110888">
        <ele>184.22999999999999</ele>
        <time>2026-07-02T07:13:49Z</time>
      </trkpt>
      <trkpt lat="53.034298019483685" lon="-9.207525998353958">
        <ele>184.22999999999999</ele>
        <time>2026-07-02T07:13:50Z</time>
      </trkpt>
      <trkpt lat="53.03433196619153" lon="-9.20755198225379">
        <ele>184.22999999999999</ele>
        <time>2026-07-02T07:13:51Z</time>
      </trkpt>
      <trkpt lat="53.034344036132097" lon="-9.207609985023737">
        <ele>184.22999999999999</ele>
        <time>2026-07-02T07:13:52Z</time>
      </trkpt>
      <trkpt lat="53.034360967576504" lon="-9.207695983350277">
        <ele>184.22999999999999</ele>
        <time>2026-07-02T07:13:53Z</time>
      </trkpt>
      <trkpt lat="53.034378988668323" lon="-9.207804026082158">
        <ele>184.22999999999999</ele>
        <time>2026-07-02T07:13:54Z</time>
      </trkpt>
      <trkpt lat="53.034530030563474" lon="-9.209396000951529">
        <ele>189.52000000000001</ele>
        <time>2026-07-02T07:14:05Z</time>
      </trkpt>
      <trkpt lat="53.034712001681328" lon="-9.211312020197511">
        <ele>186.63</ele>
        <time>2026-07-02T07:14:16Z</time>
      </trkpt>
      <trkpt lat="53.034949963912368" lon="-9.213827010244131">
        <ele>170.28999999999999</ele>
        <time>2026-07-02T07:14:29Z</time>
      </trkpt>
      <trkpt lat="53.035179041326046" lon="-9.216233035549521">
        <ele>173.16999999999999</ele>
        <time>2026-07-02T07:14:42Z</time>
      </trkpt>
      <trkpt lat="53.035263027995825" lon="-9.217914026230574">
        <ele>171.25</ele>
        <time>2026-07-02T07:14:51Z</time>
      </trkpt>
      <trkpt lat="53.035049038007855" lon="-9.219771958887577">
        <ele>169.33000000000001</ele>
        <time>2026-07-02T07:15:00Z</time>
      </trkpt>
      <trkpt lat="53.034576969221234" lon="-9.223482040688396">
        <ele>157.78999999999999</ele>
        <time>2026-07-02T07:15:16Z</time>
      </trkpt>
      <trkpt lat="53.034203974530101" lon="-9.226212026551366">
        <ele>158.75</ele>
        <time>2026-07-02T07:15:30Z</time>
      </trkpt>
      <trkpt lat="53.034207997843623" lon="-9.226892972365022">
        <ele>158.27000000000001</ele>
        <time>2026-07-02T07:15:34Z</time>
      </trkpt>
      <trkpt lat="53.034231970086694" lon="-9.227057006210089">
        <ele>158.27000000000001</ele>
        <time>2026-07-02T07:15:35Z</time>
      </trkpt>
      <trkpt lat="53.034496000036597" lon="-9.228875963017345">
        <ele>148.66</ele>
        <time>2026-07-02T07:15:45Z</time>
      </trkpt>
      <trkpt lat="53.034568000584841" lon="-9.229425983503461">
        <ele>146.74000000000001</ele>
        <time>2026-07-02T07:15:48Z</time>
      </trkpt>
      <trkpt lat="53.034568000584841" lon="-9.229579959064722">
        <ele>146.25999999999999</ele>
        <time>2026-07-02T07:15:49Z</time>
      </trkpt>
      <trkpt lat="53.034568000584841" lon="-9.229760002344847">
        <ele>146.25999999999999</ele>
        <time>2026-07-02T07:15:50Z</time>
      </trkpt>
      <trkpt lat="53.034538999199867" lon="-9.229883970692754">
        <ele>146.25999999999999</ele>
        <time>2026-07-02T07:15:51Z</time>
      </trkpt>
      <trkpt lat="53.0345010291785" lon="-9.230038030073047">
        <ele>146.25999999999999</ele>
        <time>2026-07-02T07:15:52Z</time>
      </trkpt>
      <trkpt lat="53.034461969509721" lon="-9.230199968442321">
        <ele>146.74000000000001</ele>
        <time>2026-07-02T07:15:53Z</time>
      </trkpt>
      <trkpt lat="53.033910021185875" lon="-9.232054967433214">
        <ele>143.37</ele>
        <time>2026-07-02T07:16:03Z</time>
      </trkpt>
      <trkpt lat="53.033422026783228" lon="-9.233687007799745">
        <ele>137.61000000000001</ele>
        <time>2026-07-02T07:16:12Z</time>
      </trkpt>
      <trkpt lat="53.033424038439989" lon="-9.233803013339639">
        <ele>137.61000000000001</ele>
        <time>2026-07-02T07:16:13Z</time>
      </trkpt>
      <trkpt lat="53.033455973491073" lon="-9.233875013887882">
        <ele>137.61000000000001</ele>
        <time>2026-07-02T07:16:14Z</time>
      </trkpt>
      <trkpt lat="53.033504001796246" lon="-9.233951037749648">
        <ele>137.61000000000001</ele>
        <time>2026-07-02T07:16:15Z</time>
      </trkpt>
      <trkpt lat="53.033558987081051" lon="-9.234036030247808">
        <ele>138.09</ele>
        <time>2026-07-02T07:16:16Z</time>
      </trkpt>
      <trkpt lat="53.033624030649662" lon="-9.234138038009405">
        <ele>138.56999999999999</ele>
        <time>2026-07-02T07:16:17Z</time>
      </trkpt>
      <trkpt lat="53.033699970692396" lon="-9.23419201746583">
        <ele>139.53</ele>
        <time>2026-07-02T07:16:18Z</time>
      </trkpt>
      <trkpt lat="53.034507986158133" lon="-9.234756035730243">
        <ele>140.97</ele>
        <time>2026-07-02T07:16:27Z</time>
      </trkpt>
      <trkpt lat="53.035642979666591" lon="-9.235265990719199">
        <ele>139.05000000000001</ele>
        <time>2026-07-02T07:16:40Z</time>
      </trkpt>
      <trkpt lat="53.036687029525638" lon="-9.235677039250732">
        <ele>138.56999999999999</ele>
        <time>2026-07-02T07:16:50Z</time>
      </trkpt>
      <trkpt lat="53.03813299164176" lon="-9.235952971503139">
        <ele>141.44999999999999</ele>
        <time>2026-07-02T07:17:05Z</time>
      </trkpt>
      <trkpt lat="53.039461020380259" lon="-9.236095966771245">
        <ele>146.74000000000001</ele>
        <time>2026-07-02T07:17:18Z</time>
      </trkpt>
      <trkpt lat="53.040632978081703" lon="-9.236468961462379">
        <ele>147.22</ele>
        <time>2026-07-02T07:17:30Z</time>
      </trkpt>
      <trkpt lat="53.040715036913753" lon="-9.236495029181242">
        <ele>147.22</ele>
        <time>2026-07-02T07:17:31Z</time>
      </trkpt>
      <trkpt lat="53.041707035154104" lon="-9.237249987199903">
        <ele>147.22</ele>
        <time>2026-07-02T07:17:42Z</time>
      </trkpt>
      <trkpt lat="53.042955016717315" lon="-9.238247014582157">
        <ele>154.91</ele>
        <time>2026-07-02T07:17:56Z</time>
      </trkpt>
      <trkpt lat="53.043738976120949" lon="-9.239058969542384">
        <ele>155.87</ele>
        <time>2026-07-02T07:18:05Z</time>
      </trkpt>
      <trkpt lat="53.045070022344589" lon="-9.240347016602755">
        <ele>157.78999999999999</ele>
        <time>2026-07-02T07:18:20Z</time>
      </trkpt>
      <trkpt lat="53.045903015881777" lon="-9.241062998771668">
        <ele>157.78999999999999</ele>
        <time>2026-07-02T07:18:28Z</time>
      </trkpt>
      <trkpt lat="53.046390004456043" lon="-9.241405986249447">
        <ele>157.31</ele>
        <time>2026-07-02T07:18:36Z</time>
      </trkpt>
      <trkpt lat="53.046414982527494" lon="-9.241419984027743">
        <ele>157.31</ele>
        <time>2026-07-02T07:18:45Z</time>
      </trkpt>
      <trkpt lat="53.04642797447741" lon="-9.241427024826407">
        <ele>157.31</ele>
        <time>2026-07-02T07:18:55Z</time>
      </trkpt>
      <trkpt lat="53.046477008610964" lon="-9.241455020383">
        <ele>157.31</ele>
        <time>2026-07-02T07:18:56Z</time>
      </trkpt>
      <trkpt lat="53.046488994732499" lon="-9.241403974592686">
        <ele>157.78999999999999</ele>
        <time>2026-07-02T07:18:57Z</time>
      </trkpt>
      <trkpt lat="53.046514978632331" lon="-9.241288974881172">
        <ele>157.78999999999999</ele>
        <time>2026-07-02T07:18:58Z</time>
      </trkpt>
      <trkpt lat="53.046546997502446" lon="-9.241150002926588">
        <ele>157.78999999999999</ele>
        <time>2026-07-02T07:18:59Z</time>
      </trkpt>
      <trkpt lat="53.046846985816956" lon="-9.239763971418142">
        <ele>157.31</ele>
        <time>2026-07-02T07:19:06Z</time>
      </trkpt>
      <trkpt lat="53.047432964667678" lon="-9.237547041848302">
        <ele>160.19999999999999</ele>
        <time>2026-07-02T07:19:15Z</time>
      </trkpt>
      <trkpt lat="53.048556977882981" lon="-9.234039969742298">
        <ele>166.44999999999999</ele>
        <time>2026-07-02T07:19:28Z</time>
      </trkpt>
      <trkpt lat="53.049276983365417" lon="-9.231522968038917">
        <ele>169.33000000000001</ele>
        <time>2026-07-02T07:19:37Z</time>
      </trkpt>
      <trkpt lat="53.049879977479577" lon="-9.229546012356877">
        <ele>172.69</ele>
        <time>2026-07-02T07:19:46Z</time>
      </trkpt>
      <trkpt lat="53.050609035417438" lon="-9.227037979289889">
        <ele>180.87</ele>
        <time>2026-07-02T07:19:56Z</time>
      </trkpt>
      <trkpt lat="53.051544958725572" lon="-9.223352959379554">
        <ele>192.88</ele>
        <time>2026-07-02T07:20:09Z</time>
      </trkpt>
      <trkpt lat="53.052459005266428" lon="-9.220387022942305">
        <ele>184.22999999999999</ele>
        <time>2026-07-02T07:20:19Z</time>
      </trkpt>
      <trkpt lat="53.053363999351859" lon="-9.218485001474619">
        <ele>184.71000000000001</ele>
        <time>2026-07-02T07:20:27Z</time>
      </trkpt>
      <trkpt lat="53.053676979616284" lon="-9.217804977670312">
        <ele>187.59</ele>
        <time>2026-07-02T07:20:30Z</time>
      </trkpt>
      <trkpt lat="53.053754009306431" lon="-9.217550000175834">
        <ele>188.56</ele>
        <time>2026-07-02T07:20:31Z</time>
      </trkpt>
      <trkpt lat="53.053808994591236" lon="-9.21728303655982">
        <ele>189.52000000000001</ele>
        <time>2026-07-02T07:20:32Z</time>
      </trkpt>
      <trkpt lat="53.05385903455317" lon="-9.21700500883162">
        <ele>190.47999999999999</ele>
        <time>2026-07-02T07:20:33Z</time>
      </trkpt>
      <trkpt lat="53.053909996524453" lon="-9.216721029952169">
        <ele>190.96000000000001</ele>
        <time>2026-07-02T07:20:34Z</time>
      </trkpt>
      <trkpt lat="53.054106971248984" lon="-9.21590899117291">
        <ele>191.91999999999999</ele>
        <time>2026-07-02T07:20:37Z</time>
      </trkpt>
      <trkpt lat="53.054197998717427" lon="-9.21567102894187">
        <ele>191.91999999999999</ele>
        <time>2026-07-02T07:20:38Z</time>
      </trkpt>
      <trkpt lat="53.055246993899345" lon="-9.213042967021465">
        <ele>195.28</ele>
        <time>2026-07-02T07:20:49Z</time>
      </trkpt>
      <trkpt lat="53.056203033775091" lon="-9.210954029113054">
        <ele>204.41999999999999</ele>
        <time>2026-07-02T07:20:58Z</time>
      </trkpt>
      <trkpt lat="53.056808961555362" lon="-9.209717027842999">
        <ele>205.86000000000001</ele>
        <time>2026-07-02T07:21:03Z</time>
      </trkpt>
      <trkpt lat="53.057066034525633" lon="-9.209240013733506">
        <ele>204.90000000000001</ele>
        <time>2026-07-02T07:21:05Z</time>
      </trkpt>
      <trkpt lat="53.057184973731637" lon="-9.208984030410647">
        <ele>204.90000000000001</ele>
        <time>2026-07-02T07:21:06Z</time>
      </trkpt>
      <trkpt lat="53.057904979214072" lon="-9.207562962546945">
        <ele>211.15000000000001</ele>
        <time>2026-07-02T07:21:12Z</time>
      </trkpt>
      <trkpt lat="53.059236025437713" lon="-9.205419961363077">
        <ele>221.72</ele>
        <time>2026-07-02T07:21:22Z</time>
      </trkpt>
      <trkpt lat="53.059484967961907" lon="-9.204944036900997">
        <ele>222.19999999999999</ele>
        <time>2026-07-02T07:21:24Z</time>
      </trkpt>
      <trkpt lat="53.059622012078762" lon="-9.204762987792492">
        <ele>222.68000000000001</ele>
        <time>2026-07-02T07:21:25Z</time>
      </trkpt>
      <trkpt lat="53.059771964326501" lon="-9.204599959775806">
        <ele>222.68000000000001</ele>
        <time>2026-07-02T07:21:26Z</time>
      </trkpt>
      <trkpt lat="53.060363978147507" lon="-9.203915996477008">
        <ele>223.63999999999999</ele>
        <time>2026-07-02T07:21:30Z</time>
      </trkpt>
      <trkpt lat="53.060495993122458" lon="-9.203711980953813">
        <ele>223.16</ele>
        <time>2026-07-02T07:21:31Z</time>
      </trkpt>
      <trkpt lat="53.061122037470341" lon="-9.20177198946476">
        <ele>220.75999999999999</ele>
        <time>2026-07-02T07:21:38Z</time>
      </trkpt>
      <trkpt lat="53.061639033257961" lon="-9.200079012662172">
        <ele>216.43000000000001</ele>
        <time>2026-07-02T07:21:44Z</time>
      </trkpt>
      <trkpt lat="53.061747997999191" lon="-9.199835015460849">
        <ele>214.99000000000001</ele>
        <time>2026-07-02T07:21:45Z</time>
      </trkpt>
      <trkpt lat="53.061971040442586" lon="-9.199335034936667">
        <ele>212.59</ele>
        <time>2026-07-02T07:21:47Z</time>
      </trkpt>
      <trkpt lat="53.062081011012197" lon="-9.199080979451537">
        <ele>211.63</ele>
        <time>2026-07-02T07:21:48Z</time>
      </trkpt>
      <trkpt lat="53.062140019610524" lon="-9.198789037764072">
        <ele>211.15000000000001</ele>
        <time>2026-07-02T07:21:49Z</time>
      </trkpt>
      <trkpt lat="53.062508990988135" lon="-9.196925992146134">
        <ele>211.15000000000001</ele>
        <time>2026-07-02T07:21:56Z</time>
      </trkpt>
      <trkpt lat="53.062571017071605" lon="-9.196135997772217">
        <ele>211.63</ele>
        <time>2026-07-02T07:22:01Z</time>
      </trkpt>
      <trkpt lat="53.062571017071605" lon="-9.195899963378906">
        <ele>211.63</ele>
        <time>2026-07-02T07:22:03Z</time>
      </trkpt>
      <trkpt lat="53.062571017071605" lon="-9.195899963378906">
        <ele>211.63</ele>
        <time>2026-07-02T07:22:04Z</time>
      </trkpt>
      <trkpt lat="53.06251703761518" lon="-9.195915972813964">
        <ele>211.63</ele>
        <time>2026-07-02T07:22:05Z</time>
      </trkpt>
      <trkpt lat="53.062459034845233" lon="-9.195933993905783">
        <ele>211.63</ele>
        <time>2026-07-02T07:22:06Z</time>
      </trkpt>
      <trkpt lat="53.062384016811848" lon="-9.195956038311124">
        <ele>211.63</ele>
        <time>2026-07-02T07:22:07Z</time>
      </trkpt>
      <trkpt lat="53.062298018485308" lon="-9.195982022210956">
        <ele>211.15000000000001</ele>
        <time>2026-07-02T07:22:08Z</time>
      </trkpt>
      <trkpt lat="53.062199028208852" lon="-9.19601202942431">
        <ele>211.15000000000001</ele>
        <time>2026-07-02T07:22:09Z</time>
      </trkpt>
      <trkpt lat="53.062092997133732" lon="-9.196038013324142">
        <ele>210.66999999999999</ele>
        <time>2026-07-02T07:22:10Z</time>
      </trkpt>
      <trkpt lat="53.061973974108696" lon="-9.19605896808207">
        <ele>210.19</ele>
        <time>2026-07-02T07:22:11Z</time>
      </trkpt>
      <trkpt lat="53.060952974483371" lon="-9.196183020249009">
        <ele>205.86000000000001</ele>
        <time>2026-07-02T07:22:19Z</time>
      </trkpt>
      <trkpt lat="53.060835963115096" lon="-9.196173967793584">
        <ele>204.90000000000001</ele>
        <time>2026-07-02T07:22:20Z</time>
      </trkpt>
      <trkpt lat="53.060720041394234" lon="-9.19616499915719">
        <ele>204.41999999999999</ele>
        <time>2026-07-02T07:22:21Z</time>
      </trkpt>
      <trkpt lat="53.060605963692069" lon="-9.196161981672049">
        <ele>203.94</ele>
        <time>2026-07-02T07:22:22Z</time>
      </trkpt>
      <trkpt lat="53.060492975637317" lon="-9.19620699249208">
        <ele>202.97999999999999</ele>
        <time>2026-07-02T07:22:23Z</time>
      </trkpt>
      <trkpt lat="53.060269011184573" lon="-9.196297014132142">
        <ele>202.00999999999999</ele>
        <time>2026-07-02T07:22:25Z</time>
      </trkpt>
      <trkpt lat="53.060160968452692" lon="-9.196320986375213">
        <ele>202.00999999999999</ele>
        <time>2026-07-02T07:22:26Z</time>
      </trkpt>
      <trkpt lat="53.060058960691094" lon="-9.196288967505097">
        <ele>201.53</ele>
        <time>2026-07-02T07:22:27Z</time>
      </trkpt>
      <trkpt lat="53.059157989919186" lon="-9.196129962801933">
        <ele>198.65000000000001</ele>
        <time>2026-07-02T07:22:34Z</time>
      </trkpt>
      <trkpt lat="53.05815702304244" lon="-9.196135997772217">
        <ele>195.28</ele>
        <time>2026-07-02T07:22:41Z</time>
      </trkpt>
      <trkpt lat="53.056934019550681" lon="-9.196092998608947">
        <ele>190</ele>
        <time>2026-07-02T07:22:50Z</time>
      </trkpt>
      <trkpt lat="53.055282030254602" lon="-9.196044970303774">
        <ele>184.22999999999999</ele>
        <time>2026-07-02T07:23:02Z</time>
      </trkpt>
      <trkpt lat="53.054588008671999" lon="-9.196135997772217">
        <ele>182.31</ele>
        <time>2026-07-02T07:23:07Z</time>
      </trkpt>
      <trkpt lat="53.05448398925364" lon="-9.196105990558863">
        <ele>182.31</ele>
        <time>2026-07-02T07:23:08Z</time>
      </trkpt>
      <trkpt lat="53.054088028147817" lon="-9.196007000282407">
        <ele>181.83000000000001</ele>
        <time>2026-07-02T07:23:11Z</time>
      </trkpt>
      <trkpt lat="53.053951989859343" lon="-9.196007000282407">
        <ele>181.34999999999999</ele>
        <time>2026-07-02T07:23:12Z</time>
      </trkpt>
      <trkpt lat="53.053687959909439" lon="-9.196007000282407">
        <ele>180.38</ele>
        <time>2026-07-02T07:23:14Z</time>
      </trkpt>
      <trkpt lat="53.053563991561532" lon="-9.195952014997602">
        <ele>179.90000000000001</ele>
        <time>2026-07-02T07:23:15Z</time>
      </trkpt>
      <trkpt lat="53.053438011556864" lon="-9.195884959772229">
        <ele>179.41999999999999</ele>
        <time>2026-07-02T07:23:16Z</time>
      </trkpt>
      <trkpt lat="53.053311025723815" lon="-9.19584003277123">
        <ele>179.41999999999999</ele>
        <time>2026-07-02T07:23:17Z</time>
      </trkpt>
      <trkpt lat="53.053182028234005" lon="-9.195810025557876">
        <ele>178.94</ele>
        <time>2026-07-02T07:23:18Z</time>
      </trkpt>
      <trkpt lat="53.053040960803628" lon="-9.19579703360796">
        <ele>178.94</ele>
        <time>2026-07-02T07:23:19Z</time>
      </trkpt>
      <trkpt lat="53.052896037697792" lon="-9.195804996415973">
        <ele>178.94</ele>
        <time>2026-07-02T07:23:20Z</time>
      </trkpt>
      <trkpt lat="53.052748013287783" lon="-9.195813965052366">
        <ele>178.94</ele>
        <time>2026-07-02T07:23:21Z</time>
      </trkpt>
      <trkpt lat="53.051756015047431" lon="-9.19573500752449">
        <ele>177.02000000000001</ele>
        <time>2026-07-02T07:23:28Z</time>
      </trkpt>
      <trkpt lat="53.051629029214382" lon="-9.195749005302787">
        <ele>177.02000000000001</ele>
        <time>2026-07-02T07:23:29Z</time>
      </trkpt>
      <trkpt lat="53.051507994532585" lon="-9.195780018344522">
        <ele>176.53999999999999</ele>
        <time>2026-07-02T07:23:30Z</time>
      </trkpt>
      <trkpt lat="53.051397018134594" lon="-9.195807008072734">
        <ele>176.53999999999999</ele>
        <time>2026-07-02T07:23:31Z</time>
      </trkpt>
      <trkpt lat="53.051312025636435" lon="-9.195880014449358">
        <ele>176.53999999999999</ele>
        <time>2026-07-02T07:23:32Z</time>
      </trkpt>
      <trkpt lat="53.051242958754301" lon="-9.195957966148853">
        <ele>176.53999999999999</ele>
        <time>2026-07-02T07:23:33Z</time>
      </trkpt>
      <trkpt lat="53.051172969862819" lon="-9.196037007495761">
        <ele>176.53999999999999</ele>
        <time>2026-07-02T07:23:34Z</time>
      </trkpt>
      <trkpt lat="53.051097029820085" lon="-9.196124011650682">
        <ele>176.53999999999999</ele>
        <time>2026-07-02T07:23:35Z</time>
      </trkpt>
      <trkpt lat="53.050993010401726" lon="-9.19618796557188">
        <ele>176.53999999999999</ele>
        <time>2026-07-02T07:23:36Z</time>
      </trkpt>
      <trkpt lat="53.05087398737669" lon="-9.196209004148841">
        <ele>176.53999999999999</ele>
        <time>2026-07-02T07:23:37Z</time>
      </trkpt>
      <trkpt lat="53.05074498988688" lon="-9.19623096473515">
        <ele>176.53999999999999</ele>
        <time>2026-07-02T07:23:38Z</time>
      </trkpt>
      <trkpt lat="53.049014965072274" lon="-9.196573030203581">
        <ele>172.69</ele>
        <time>2026-07-02T07:23:51Z</time>
      </trkpt>
      <trkpt lat="53.048179037868977" lon="-9.196672020480037">
        <ele>171.72999999999999</ele>
        <time>2026-07-02T07:23:57Z</time>
      </trkpt>
      <trkpt lat="53.048046017065644" lon="-9.196632960811257">
        <ele>171.25</ele>
        <time>2026-07-02T07:23:58Z</time>
      </trkpt>
      <trkpt lat="53.047536984086037" lon="-9.196503963321447">
        <ele>171.25</ele>
        <time>2026-07-02T07:24:02Z</time>
      </trkpt>
      <trkpt lat="53.047408992424607" lon="-9.19648602604866">
        <ele>170.77000000000001</ele>
        <time>2026-07-02T07:24:03Z</time>
      </trkpt>
      <trkpt lat="53.047275971621275" lon="-9.196498012170196">
        <ele>170.28999999999999</ele>
        <time>2026-07-02T07:24:04Z</time>
      </trkpt>
      <trkpt lat="53.046717988327146" lon="-9.196623992174864">
        <ele>168.37</ele>
        <time>2026-07-02T07:24:08Z</time>
      </trkpt>
      <trkpt lat="53.046606006100774" lon="-9.196687024086714">
        <ele>168.37</ele>
        <time>2026-07-02T07:24:09Z</time>
      </trkpt>
      <trkpt lat="53.046520007774234" lon="-9.196785008534789">
        <ele>168.37</ele>
        <time>2026-07-02T07:24:10Z</time>
      </trkpt>
      <trkpt lat="53.046442978084087" lon="-9.196906965225935">
        <ele>168.84999999999999</ele>
        <time>2026-07-02T07:24:11Z</time>
      </trkpt>
      <trkpt lat="53.046359997242689" lon="-9.197039986029267">
        <ele>168.84999999999999</ele>
        <time>2026-07-02T07:24:12Z</time>
      </trkpt>
      <trkpt lat="53.045995971187949" lon="-9.197594029828906">
        <ele>169.33000000000001</ele>
        <time>2026-07-02T07:24:16Z</time>
      </trkpt>
      <trkpt lat="53.045884994789958" lon="-9.197664018720388">
        <ele>168.84999999999999</ele>
        <time>2026-07-02T07:24:17Z</time>
      </trkpt>
      <trkpt lat="53.045765971764922" lon="-9.197724033147097">
        <ele>168.37</ele>
        <time>2026-07-02T07:24:18Z</time>
      </trkpt>
      <trkpt lat="53.045647032558918" lon="-9.197722021490336">
        <ele>167.41</ele>
        <time>2026-07-02T07:24:19Z</time>
      </trkpt>
      <trkpt lat="53.045528009533882" lon="-9.197721015661955">
        <ele>166.93000000000001</ele>
        <time>2026-07-02T07:24:20Z</time>
      </trkpt>
      <trkpt lat="53.044193023815751" lon="-9.197705006226897">
        <ele>165.47999999999999</ele>
        <time>2026-07-02T07:24:30Z</time>
      </trkpt>
      <trkpt lat="53.044078024104238" lon="-9.197702994570136">
        <ele>166.44999999999999</ele>
        <time>2026-07-02T07:24:31Z</time>
      </trkpt>
      <trkpt lat="53.043975010514259" lon="-9.197740964591503">
        <ele>166.93000000000001</ele>
        <time>2026-07-02T07:24:32Z</time>
      </trkpt>
      <trkpt lat="53.043863028287888" lon="-9.197797039523721">
        <ele>166.93000000000001</ele>
        <time>2026-07-02T07:24:33Z</time>
      </trkpt>
      <trkpt lat="53.043739981949329" lon="-9.197858981788158">
        <ele>167.41</ele>
        <time>2026-07-02T07:24:34Z</time>
      </trkpt>
      <trkpt lat="53.043614001944661" lon="-9.197922013700008">
        <ele>167.88999999999999</ele>
        <time>2026-07-02T07:24:35Z</time>
      </trkpt>
      <trkpt lat="53.042254038155079" lon="-9.198344964534044">
        <ele>169.81</ele>
        <time>2026-07-02T07:24:45Z</time>
      </trkpt>
      <trkpt lat="53.040660973638296" lon="-9.198744026944041">
        <ele>172.21000000000001</ele>
        <time>2026-07-02T07:24:57Z</time>
      </trkpt>
      <trkpt lat="53.040557038038969" lon="-9.198770010843873">
        <ele>172.69</ele>
        <time>2026-07-02T07:24:58Z</time>
      </trkpt>
      <trkpt lat="53.040479002520442" lon="-9.198705973103643">
        <ele>172.21000000000001</ele>
        <time>2026-07-02T07:24:59Z</time>
      </trkpt>
      <trkpt lat="53.040405996143818" lon="-9.198614023625851">
        <ele>172.21000000000001</ele>
        <time>2026-07-02T07:25:00Z</time>
      </trkpt>
      <trkpt lat="53.040330978110433" lon="-9.198517967015505">
        <ele>172.69</ele>
        <time>2026-07-02T07:25:01Z</time>
      </trkpt>
      <trkpt lat="53.040254032239318" lon="-9.19841998256743">
        <ele>172.69</ele>
        <time>2026-07-02T07:25:02Z</time>
      </trkpt>
      <trkpt lat="53.03980995900929" lon="-9.197910027578473">
        <ele>172.69</ele>
        <time>2026-07-02T07:25:07Z</time>
      </trkpt>
      <trkpt lat="53.039707029238343" lon="-9.197811037302017">
        <ele>172.21000000000001</ele>
        <time>2026-07-02T07:25:08Z</time>
      </trkpt>
      <trkpt lat="53.039608960971236" lon="-9.197716992348433">
        <ele>172.21000000000001</ele>
        <time>2026-07-02T07:25:09Z</time>
      </trkpt>
      <trkpt lat="53.039518017321825" lon="-9.197630994021893">
        <ele>171.72999999999999</ele>
        <time>2026-07-02T07:25:10Z</time>
      </trkpt>
      <trkpt lat="53.039476023986936" lon="-9.197479030117393">
        <ele>171.72999999999999</ele>
        <time>2026-07-02T07:25:11Z</time>
      </trkpt>
      <trkpt lat="53.039446016773582" lon="-9.19732597656548">
        <ele>171.25</ele>
        <time>2026-07-02T07:25:12Z</time>
      </trkpt>
      <trkpt lat="53.039412992075086" lon="-9.197163032367826">
        <ele>171.25</ele>
        <time>2026-07-02T07:25:13Z</time>
      </trkpt>
      <trkpt lat="53.039332022890449" lon="-9.196566995233297">
        <ele>171.72999999999999</ele>
        <time>2026-07-02T07:25:16Z</time>
      </trkpt>
      <trkpt lat="53.039332022890449" lon="-9.195475000888109">
        <ele>171.25</ele>
        <time>2026-07-02T07:25:22Z</time>
      </trkpt>
      <trkpt lat="53.039295980706811" lon="-9.195060012862086">
        <ele>171.25</ele>
        <time>2026-07-02T07:25:23Z</time>
      </trkpt>
      <trkpt lat="53.039258010685444" lon="-9.194849040359259">
        <ele>171.25</ele>
        <time>2026-07-02T07:25:24Z</time>
      </trkpt>
      <trkpt lat="53.038714025169611" lon="-9.192630015313625">
        <ele>169.81</ele>
        <time>2026-07-02T07:25:33Z</time>
      </trkpt>
      <trkpt lat="53.03813399747014" lon="-9.19083796441555">
        <ele>167.41</ele>
        <time>2026-07-02T07:25:42Z</time>
      </trkpt>
      <trkpt lat="53.038096027448773" lon="-9.190734028816223">
        <ele>166.93000000000001</ele>
        <time>2026-07-02T07:25:43Z</time>
      </trkpt>
      <trkpt lat="53.038037018850446" lon="-9.190569994971156">
        <ele>166.44999999999999</ele>
        <time>2026-07-02T07:25:45Z</time>
      </trkpt>
      <trkpt lat="53.038023021072149" lon="-9.190392969176173">
        <ele>166.44999999999999</ele>
        <time>2026-07-02T07:25:46Z</time>
      </trkpt>
      <trkpt lat="53.03804699331522" lon="-9.190310994163156">
        <ele>165.96000000000001</ele>
        <time>2026-07-02T07:25:47Z</time>
      </trkpt>
      <trkpt lat="53.038077000528574" lon="-9.190202029421926">
        <ele>165.96000000000001</ele>
        <time>2026-07-02T07:25:48Z</time>
      </trkpt>
      <trkpt lat="53.038112036883831" lon="-9.190075965598226">
        <ele>165</ele>
        <time>2026-07-02T07:25:49Z</time>
      </trkpt>
      <trkpt lat="53.038150006905198" lon="-9.189940011128783">
        <ele>164.52000000000001</ele>
        <time>2026-07-02T07:25:50Z</time>
      </trkpt>
      <trkpt lat="53.038570024073124" lon="-9.188437974080443">
        <ele>159.72</ele>
        <time>2026-07-02T07:25:59Z</time>
      </trkpt>
      <trkpt lat="53.039231020957232" lon="-9.186073020100594">
        <ele>147.69999999999999</ele>
        <time>2026-07-02T07:26:11Z</time>
      </trkpt>
      <trkpt lat="53.03974499925971" lon="-9.184235958382487">
        <ele>140.97</ele>
        <time>2026-07-02T07:26:21Z</time>
      </trkpt>
      <trkpt lat="53.040226958692074" lon="-9.182361010462046">
        <ele>138.09</ele>
        <time>2026-07-02T07:26:30Z</time>
      </trkpt>
      <trkpt lat="53.0407540127635" lon="-9.17998599819839">
        <ele>135.68000000000001</ele>
        <time>2026-07-02T07:26:40Z</time>
      </trkpt>
      <trkpt lat="53.041231026872993" lon="-9.17826502583921">
        <ele>134.72</ele>
        <time>2026-07-02T07:26:48Z</time>
      </trkpt>
      <trkpt lat="53.04137502796948" lon="-9.177427003160119">
        <ele>133.75999999999999</ele>
        <time>2026-07-02T07:26:52Z</time>
      </trkpt>
      <trkpt lat="53.041379973292351" lon="-9.177208989858627">
        <ele>133.75999999999999</ele>
        <time>2026-07-02T07:26:53Z</time>
      </trkpt>
      <trkpt lat="53.041385002434254" lon="-9.176986031234264">
        <ele>133.28</ele>
        <time>2026-07-02T07:26:54Z</time>
      </trkpt>
      <trkpt lat="53.041390031576157" lon="-9.17676399461925">
        <ele>133.28</ele>
        <time>2026-07-02T07:26:55Z</time>
      </trkpt>
      <trkpt lat="53.041369998827577" lon="-9.176553022116423">
        <ele>133.28</ele>
        <time>2026-07-02T07:26:56Z</time>
      </trkpt>
      <trkpt lat="53.041337979957461" lon="-9.176346994936466">
        <ele>132.80000000000001</ele>
        <time>2026-07-02T07:26:57Z</time>
      </trkpt>
      <trkpt lat="53.041305961087346" lon="-9.1761380340904">
        <ele>132.80000000000001</ele>
        <time>2026-07-02T07:26:58Z</time>
      </trkpt>
      <trkpt lat="53.041243012994528" lon="-9.175948016345501">
        <ele>132.31999999999999</ele>
        <time>2026-07-02T07:26:59Z</time>
      </trkpt>
      <trkpt lat="53.041178975254297" lon="-9.17575498111546">
        <ele>131.84</ele>
        <time>2026-07-02T07:27:00Z</time>
      </trkpt>
      <trkpt lat="53.04099096916616" lon="-9.175191968679428">
        <ele>131.84</ele>
        <time>2026-07-02T07:27:03Z</time>
      </trkpt>
      <trkpt lat="53.040919974446297" lon="-9.174978984519839">
        <ele>131.84</ele>
        <time>2026-07-02T07:27:04Z</time>
      </trkpt>
      <trkpt lat="53.040849985554814" lon="-9.174877982586622">
        <ele>131.84</ele>
        <time>2026-07-02T07:27:05Z</time>
      </trkpt>
      <trkpt lat="53.040515966713428" lon="-9.174365010112524">
        <ele>132.31999999999999</ele>
        <time>2026-07-02T07:27:09Z</time>
      </trkpt>
      <trkpt lat="53.040471961721778" lon="-9.174225032329559">
        <ele>132.80000000000001</ele>
        <time>2026-07-02T07:27:10Z</time>
      </trkpt>
      <trkpt lat="53.040426028892398" lon="-9.174078013747931">
        <ele>132.80000000000001</ele>
        <time>2026-07-02T07:27:11Z</time>
      </trkpt>
      <trkpt lat="53.040404990315437" lon="-9.173933006823063">
        <ele>132.80000000000001</ele>
        <time>2026-07-02T07:27:12Z</time>
      </trkpt>
      <trkpt lat="53.040382023900747" lon="-9.173775007948279">
        <ele>133.28</ele>
        <time>2026-07-02T07:27:13Z</time>
      </trkpt>
      <trkpt lat="53.040341036394238" lon="-9.173438977450132">
        <ele>132.80000000000001</ele>
        <time>2026-07-02T07:27:15Z</time>
      </trkpt>
      <trkpt lat="53.040341036394238" lon="-9.173249965533614">
        <ele>132.80000000000001</ele>
        <time>2026-07-02T07:27:16Z</time>
      </trkpt>
      <trkpt lat="53.040341036394238" lon="-9.171682968735695">
        <ele>129.91999999999999</ele>
        <time>2026-07-02T07:27:23Z</time>
      </trkpt>
      <trkpt lat="53.040365008637309" lon="-9.171243002638221">
        <ele>128.94999999999999</ele>
        <time>2026-07-02T07:27:25Z</time>
      </trkpt>
      <trkpt lat="53.040567012503743" lon="-9.170158971101046">
        <ele>127.51000000000001</ele>
        <time>2026-07-02T07:27:31Z</time>
      </trkpt>
      <trkpt lat="53.040615040808916" lon="-9.1700179874897">
        <ele>127.51000000000001</ele>
        <time>2026-07-02T07:27:32Z</time>
      </trkpt>
      <trkpt lat="53.040675977244973" lon="-9.169877003878355">
        <ele>127.51000000000001</ele>
        <time>2026-07-02T07:27:33Z</time>
      </trkpt>
      <trkpt lat="53.040748983621597" lon="-9.169740965589881">
        <ele>127.51000000000001</ele>
        <time>2026-07-02T07:27:34Z</time>
      </trkpt>
      <trkpt lat="53.040830958634615" lon="-9.169616997241974">
        <ele>127.51000000000001</ele>
        <time>2026-07-02T07:27:35Z</time>
      </trkpt>
      <trkpt lat="53.04116003215313" lon="-9.169118022546172">
        <ele>126.06999999999999</ele>
        <time>2026-07-02T07:27:40Z</time>
      </trkpt>
      <trkpt lat="53.041284000501037" lon="-9.168930016458035">
        <ele>124.63</ele>
        <time>2026-07-02T07:27:43Z</time>
      </trkpt>
      <trkpt lat="53.041328005492687" lon="-9.168862961232662">
        <ele>124.15000000000001</ele>
        <time>2026-07-02T07:27:44Z</time>
      </trkpt>
      <trkpt lat="53.041382990777493" lon="-9.168828008696437">
        <ele>123.19</ele>
        <time>2026-07-02T07:27:45Z</time>
      </trkpt>
      <trkpt lat="53.041927982121706" lon="-9.168476974591613">
        <ele>125.11</ele>
        <time>2026-07-02T07:27:53Z</time>
      </trkpt>
      <trkpt lat="53.041983973234892" lon="-9.168397011235356">
        <ele>125.59</ele>
        <time>2026-07-02T07:27:54Z</time>
      </trkpt>
      <trkpt lat="53.04210601374507" lon="-9.168219985440373">
        <ele>126.55</ele>
        <time>2026-07-02T07:27:56Z</time>
      </trkpt>
      <trkpt lat="53.042159993201494" lon="-9.168141027912498">
        <ele>127.03</ele>
        <time>2026-07-02T07:27:57Z</time>
      </trkpt>
      <trkpt lat="53.042225036770105" lon="-9.168103979900479">
        <ele>127.51000000000001</ele>
        <time>2026-07-02T07:27:58Z</time>
      </trkpt>
      <trkpt lat="53.042293014004827" lon="-9.168069027364254">
        <ele>127.98999999999999</ele>
        <time>2026-07-02T07:27:59Z</time>
      </trkpt>
      <trkpt lat="53.042350010946393" lon="-9.168063998222351">
        <ele>128.47</ele>
        <time>2026-07-02T07:28:00Z</time>
      </trkpt>
      <trkpt lat="53.042412037029862" lon="-9.168057041242719">
        <ele>128.94999999999999</ele>
        <time>2026-07-02T07:28:01Z</time>
      </trkpt>
      <trkpt lat="53.042475990951061" lon="-9.168050000444055">
        <ele>129.43000000000001</ele>
        <time>2026-07-02T07:28:02Z</time>
      </trkpt>
      <trkpt lat="53.042542040348053" lon="-9.168042959645391">
        <ele>129.91999999999999</ele>
        <time>2026-07-02T07:28:03Z</time>
      </trkpt>
      <trkpt lat="53.042609011754394" lon="-9.168036002665758">
        <ele>130.88</ele>
        <time>2026-07-02T07:28:04Z</time>
      </trkpt>
      <trkpt lat="53.042679000645876" lon="-9.168028961867094">
        <ele>131.36000000000001</ele>
        <time>2026-07-02T07:28:05Z</time>
      </trkpt>
      <trkpt lat="53.042748989537358" lon="-9.167999038472772">
        <ele>132.31999999999999</ele>
        <time>2026-07-02T07:28:06Z</time>
      </trkpt>
      <trkpt lat="53.042812021449208" lon="-9.167962996289134">
        <ele>133.28</ele>
        <time>2026-07-02T07:28:07Z</time>
      </trkpt>
      <trkpt lat="53.042872035875916" lon="-9.167908011004329">
        <ele>134.24000000000001</ele>
        <time>2026-07-02T07:28:08Z</time>
      </trkpt>
      <trkpt lat="53.04292400367558" lon="-9.167825030162931">
        <ele>135.19999999999999</ele>
        <time>2026-07-02T07:28:09Z</time>
      </trkpt>
      <trkpt lat="53.042978988960385" lon="-9.16773802600801">
        <ele>135.68000000000001</ele>
        <time>2026-07-02T07:28:10Z</time>
      </trkpt>
      <trkpt lat="53.043037997558713" lon="-9.167643981054425">
        <ele>136.16</ele>
        <time>2026-07-02T07:28:11Z</time>
      </trkpt>
      <trkpt lat="53.043100023642182" lon="-9.16754599660635">
        <ele>136.63999999999999</ele>
        <time>2026-07-02T07:28:12Z</time>
      </trkpt>
      <trkpt lat="53.043845007196069" lon="-9.166495995596051">
        <ele>141.44999999999999</ele>
        <time>2026-07-02T07:28:23Z</time>
      </trkpt>
      <trkpt lat="53.044239040464163" lon="-9.166101962327957">
        <ele>143.84999999999999</ele>
        <time>2026-07-02T07:28:28Z</time>
      </trkpt>
      <trkpt lat="53.044311963021755" lon="-9.166029039770365">
        <ele>144.34</ele>
        <time>2026-07-02T07:28:29Z</time>
      </trkpt>
      <trkpt lat="53.044383963569999" lon="-9.165931977331638">
        <ele>144.81999999999999</ele>
        <time>2026-07-02T07:28:30Z</time>
      </trkpt>
      <trkpt lat="53.045490039512515" lon="-9.164428012445569">
        <ele>149.62</ele>
        <time>2026-07-02T07:28:44Z</time>
      </trkpt>
      <trkpt lat="53.045581988990307" lon="-9.164360035210848">
        <ele>150.09999999999999</ele>
        <time>2026-07-02T07:28:45Z</time>
      </trkpt>
      <trkpt lat="53.045672010630369" lon="-9.164293985813856">
        <ele>150.09999999999999</ele>
        <time>2026-07-02T07:28:46Z</time>
      </trkpt>
      <trkpt lat="53.04575901478529" lon="-9.164230031892657">
        <ele>150.58000000000001</ele>
        <time>2026-07-02T07:28:47Z</time>
      </trkpt>
      <trkpt lat="53.045834032818675" lon="-9.164131041616201">
        <ele>150.58000000000001</ele>
        <time>2026-07-02T07:28:48Z</time>
      </trkpt>
      <trkpt lat="53.045895975083113" lon="-9.164003971964121">
        <ele>151.06</ele>
        <time>2026-07-02T07:28:49Z</time>
      </trkpt>
      <trkpt lat="53.045949032530189" lon="-9.163860976696014">
        <ele>151.06</ele>
        <time>2026-07-02T07:28:50Z</time>
      </trkpt>
      <trkpt lat="53.046007035300136" lon="-9.163707001134753">
        <ele>151.06</ele>
        <time>2026-07-02T07:28:51Z</time>
      </trkpt>
      <trkpt lat="53.046859977766871" lon="-9.161408012732863">
        <ele>155.87</ele>
        <time>2026-07-02T07:29:06Z</time>
      </trkpt>
      <trkpt lat="53.047721972689033" lon="-9.158732006326318">
        <ele>155.38999999999999</ele>
        <time>2026-07-02T07:29:23Z</time>
      </trkpt>
      <trkpt lat="53.048133021220565" lon="-9.15703902952373">
        <ele>156.83000000000001</ele>
        <time>2026-07-02T07:29:35Z</time>
      </trkpt>
      <trkpt lat="53.048384981229901" lon="-9.155338006094098">
        <ele>155.38999999999999</ele>
        <time>2026-07-02T07:29:46Z</time>
      </trkpt>
      <trkpt lat="53.048452036455274" lon="-9.154872978106141">
        <ele>152.99000000000001</ele>
        <time>2026-07-02T07:29:50Z</time>
      </trkpt>
      <trkpt lat="53.048452036455274" lon="-9.15473903529346">
        <ele>152.50999999999999</ele>
        <time>2026-07-02T07:29:51Z</time>
      </trkpt>
      <trkpt lat="53.048452036455274" lon="-9.154622023925185">
        <ele>152.03</ele>
        <time>2026-07-02T07:29:52Z</time>
      </trkpt>
      <trkpt lat="53.048452036455274" lon="-9.154506018385291">
        <ele>151.53999999999999</ele>
        <time>2026-07-02T07:29:53Z</time>
      </trkpt>
      <trkpt lat="53.048452036455274" lon="-9.154396969825029">
        <ele>151.06</ele>
        <time>2026-07-02T07:29:54Z</time>
      </trkpt>
      <trkpt lat="53.048452036455274" lon="-9.154295967891812">
        <ele>150.58000000000001</ele>
        <time>2026-07-02T07:29:55Z</time>
      </trkpt>
      <trkpt lat="53.0484679620713" lon="-9.154197983443737">
        <ele>150.09999999999999</ele>
        <time>2026-07-02T07:29:56Z</time>
      </trkpt>
      <trkpt lat="53.04851196706295" lon="-9.154116008430719">
        <ele>149.62</ele>
        <time>2026-07-02T07:29:57Z</time>
      </trkpt>
      <trkpt lat="53.048558989539742" lon="-9.154027998447418">
        <ele>148.66</ele>
        <time>2026-07-02T07:29:58Z</time>
      </trkpt>
      <trkpt lat="53.048610035330057" lon="-9.153932025656104">
        <ele>147.69999999999999</ele>
        <time>2026-07-02T07:29:59Z</time>
      </trkpt>
      <trkpt lat="53.048851015046239" lon="-9.153392985463142">
        <ele>143.37</ele>
        <time>2026-07-02T07:30:04Z</time>
      </trkpt>
      <trkpt lat="53.048879010602832" lon="-9.153275974094868">
        <ele>142.88999999999999</ele>
        <time>2026-07-02T07:30:05Z</time>
      </trkpt>
      <trkpt lat="53.048948999494314" lon="-9.152974979951978">
        <ele>141.93000000000001</ele>
        <time>2026-07-02T07:30:08Z</time>
      </trkpt>
      <trkpt lat="53.048960985615849" lon="-9.152925023809075">
        <ele>141.44999999999999</ele>
        <time>2026-07-02T07:30:09Z</time>
      </trkpt>
      <trkpt lat="53.048960985615849" lon="-9.152925023809075">
        <ele>140.97</ele>
        <time>2026-07-02T07:30:20Z</time>
      </trkpt>
      <trkpt lat="53.048960985615849" lon="-9.152925023809075">
        <ele>140.97</ele>
        <time>2026-07-02T07:31:02Z</time>
      </trkpt>
      <trkpt lat="53.048989987000823" lon="-9.152796026319265">
        <ele>141.44999999999999</ele>
        <time>2026-07-02T07:31:29Z</time>
      </trkpt>
      <trkpt lat="53.049127031117678" lon="-9.152225973084569">
        <ele>140.49000000000001</ele>
        <time>2026-07-02T07:31:34Z</time>
      </trkpt>
      <trkpt lat="53.049171958118677" lon="-9.152094963937998">
        <ele>140.00999999999999</ele>
        <time>2026-07-02T07:31:35Z</time>
      </trkpt>
      <trkpt lat="53.049491979181767" lon="-9.151167003437877">
        <ele>140.00999999999999</ele>
        <time>2026-07-02T07:31:42Z</time>
      </trkpt>
      <trkpt lat="53.049678979441524" lon="-9.149686004966497">
        <ele>139.53</ele>
        <time>2026-07-02T07:31:52Z</time>
      </trkpt>
      <trkpt lat="53.049691971391439" lon="-9.148610020056367">
        <ele>135.68000000000001</ele>
        <time>2026-07-02T07:32:01Z</time>
      </trkpt>
      <trkpt lat="53.04969297721982" lon="-9.148493008688092">
        <ele>135.19999999999999</ele>
        <time>2026-07-02T07:32:02Z</time>
      </trkpt>
      <trkpt lat="53.049694988876581" lon="-9.148373985663056">
        <ele>133.28</ele>
        <time>2026-07-02T07:32:04Z</time>
      </trkpt>
      <trkpt lat="53.049991959705949" lon="-9.147030031308532">
        <ele>127.51000000000001</ele>
        <time>2026-07-02T07:32:15Z</time>
      </trkpt>
      <trkpt lat="53.050149036571383" lon="-9.14646802470088">
        <ele>126.06999999999999</ele>
        <time>2026-07-02T07:32:20Z</time>
      </trkpt>
      <trkpt lat="53.050190024077892" lon="-9.146375991404057">
        <ele>126.06999999999999</ele>
        <time>2026-07-02T07:32:21Z</time>
      </trkpt>
      <trkpt lat="53.050232017412782" lon="-9.146332992240787">
        <ele>126.06999999999999</ele>
        <time>2026-07-02T07:32:22Z</time>
      </trkpt>
      <trkpt lat="53.050283985212445" lon="-9.146287981420755">
        <ele>125.59</ele>
        <time>2026-07-02T07:32:23Z</time>
      </trkpt>
      <trkpt lat="53.050343999639153" lon="-9.146277001127601">
        <ele>125.59</ele>
        <time>2026-07-02T07:32:24Z</time>
      </trkpt>
      <trkpt lat="53.050412982702255" lon="-9.146264009177685">
        <ele>125.59</ele>
        <time>2026-07-02T07:32:25Z</time>
      </trkpt>
      <trkpt lat="53.051287969574332" lon="-9.146099975332618">
        <ele>128.94999999999999</ele>
        <time>2026-07-02T07:32:36Z</time>
      </trkpt>
      <trkpt lat="53.051466001197696" lon="-9.146067034453154">
        <ele>130.88</ele>
        <time>2026-07-02T07:32:42Z</time>
      </trkpt>
      <trkpt lat="53.05149600841105" lon="-9.14606099948287">
        <ele>132.31999999999999</ele>
        <time>2026-07-02T07:32:52Z</time>
      </trkpt>
      <trkpt lat="53.051524003967643" lon="-9.146055970340967">
        <ele>132.31999999999999</ele>
        <time>2026-07-02T07:32:53Z</time>
      </trkpt>
      <trkpt lat="53.051556022837758" lon="-9.146050019189715">
        <ele>132.31999999999999</ele>
        <time>2026-07-02T07:32:54Z</time>
      </trkpt>
      <trkpt lat="53.051650989800692" lon="-9.146019006147981">
        <ele>132.80000000000001</ele>
        <time>2026-07-02T07:32:55Z</time>
      </trkpt>
      <trkpt lat="53.051666999235749" lon="-9.145907023921609">
        <ele>133.28</ele>
        <time>2026-07-02T07:32:56Z</time>
      </trkpt>
      <trkpt lat="53.051685020327568" lon="-9.145776014775038">
        <ele>134.24000000000001</ele>
        <time>2026-07-02T07:32:57Z</time>
      </trkpt>
      <trkpt lat="53.051705975085497" lon="-9.145633019506931">
        <ele>134.72</ele>
        <time>2026-07-02T07:32:58Z</time>
      </trkpt>
      <trkpt lat="53.051705975085497" lon="-9.145467979833484">
        <ele>135.19999999999999</ele>
        <time>2026-07-02T07:32:59Z</time>
      </trkpt>
      <trkpt lat="53.051697006449103" lon="-9.145301012322307">
        <ele>135.19999999999999</ele>
        <time>2026-07-02T07:33:00Z</time>
      </trkpt>
      <trkpt lat="53.051660964265466" lon="-9.145124992355704">
        <ele>135.68000000000001</ele>
        <time>2026-07-02T07:33:01Z</time>
      </trkpt>
      <trkpt lat="53.05160597898066" lon="-9.144960036501288">
        <ele>135.68000000000001</ele>
        <time>2026-07-02T07:33:02Z</time>
      </trkpt>
      <trkpt lat="53.051507994532585" lon="-9.144818969070911">
        <ele>135.68000000000001</ele>
        <time>2026-07-02T07:33:03Z</time>
      </trkpt>
      <trkpt lat="53.051413027569652" lon="-9.144681002944708">
        <ele>135.68000000000001</ele>
        <time>2026-07-02T07:33:04Z</time>
      </trkpt>
      <trkpt lat="53.051299033686519" lon="-9.144558040425181">
        <ele>135.68000000000001</ele>
        <time>2026-07-02T07:33:05Z</time>
      </trkpt>
      <trkpt lat="53.051191996783018" lon="-9.144442034885287">
        <ele>135.68000000000001</ele>
        <time>2026-07-02T07:33:06Z</time>
      </trkpt>
      <trkpt lat="53.051084037870169" lon="-9.144366011023521">
        <ele>135.68000000000001</ele>
        <time>2026-07-02T07:33:07Z</time>
      </trkpt>
      <trkpt lat="53.050977000966668" lon="-9.144313037395477">
        <ele>135.68000000000001</ele>
        <time>2026-07-02T07:33:08Z</time>
      </trkpt>
      <trkpt lat="53.050770973786712" lon="-9.144210023805499">
        <ele>136.16</ele>
        <time>2026-07-02T07:33:10Z</time>
      </trkpt>
      <trkpt lat="53.050682963803411" lon="-9.144166018813849">
        <ele>137.13</ele>
        <time>2026-07-02T07:33:11Z</time>
      </trkpt>
      <trkpt lat="53.050627978518605" lon="-9.144034003838897">
        <ele>137.61000000000001</ele>
        <time>2026-07-02T07:33:12Z</time>
      </trkpt>
      <trkpt lat="53.050573999062181" lon="-9.143906012177467">
        <ele>137.61000000000001</ele>
        <time>2026-07-02T07:33:13Z</time>
      </trkpt>
      <trkpt lat="53.050515996292233" lon="-9.143767962232232">
        <ele>138.09</ele>
        <time>2026-07-02T07:33:14Z</time>
      </trkpt>
      <trkpt lat="53.050455981865525" lon="-9.143624966964126">
        <ele>138.09</ele>
        <time>2026-07-02T07:33:15Z</time>
      </trkpt>
      <trkpt lat="53.050404014065862" lon="-9.143499992787838">
        <ele>138.09</ele>
        <time>2026-07-02T07:33:16Z</time>
      </trkpt>
      <trkpt lat="53.050299994647503" lon="-9.143365966156125">
        <ele>138.09</ele>
        <time>2026-07-02T07:33:17Z</time>
      </trkpt>
      <trkpt lat="53.050207039341331" lon="-9.143281979486346">
        <ele>138.56999999999999</ele>
        <time>2026-07-02T07:33:18Z</time>
      </trkpt>
      <trkpt lat="53.050105031579733" lon="-9.14322498254478">
        <ele>139.05000000000001</ele>
        <time>2026-07-02T07:33:19Z</time>
      </trkpt>
      <trkpt lat="53.050003023818135" lon="-9.143192963674665">
        <ele>139.53</ele>
        <time>2026-07-02T07:33:20Z</time>
      </trkpt>
      <trkpt lat="53.049891041591763" lon="-9.143178965896368">
        <ele>140.00999999999999</ele>
        <time>2026-07-02T07:33:21Z</time>
      </trkpt>
      <trkpt lat="53.04977897554636" lon="-9.143164968118072">
        <ele>140.00999999999999</ele>
        <time>2026-07-02T07:33:22Z</time>
      </trkpt>
      <trkpt lat="53.049037009477615" lon="-9.14290496148169">
        <ele>139.05000000000001</ele>
        <time>2026-07-02T07:33:29Z</time>
      </trkpt>
      <trkpt lat="53.049038015305996" lon="-9.14290496148169">
        <ele>139.05000000000001</ele>
        <time>2026-07-02T07:33:30Z</time>
      </trkpt>
      <trkpt lat="53.048884039744735" lon="-9.142747968435288">
        <ele>139.05000000000001</ele>
        <time>2026-07-02T07:33:31Z</time>
      </trkpt>
      <trkpt lat="53.047923976555467" lon="-9.141750019043684">
        <ele>140.00999999999999</ele>
        <time>2026-07-02T07:33:43Z</time>
      </trkpt>
      <trkpt lat="53.04765097796917" lon="-9.141488000750542">
        <ele>140.00999999999999</ele>
        <time>2026-07-02T07:33:50Z</time>
      </trkpt>
      <trkpt lat="53.047604961320758" lon="-9.141443995758891">
        <ele>140.49000000000001</ele>
        <time>2026-07-02T07:34:01Z</time>
      </trkpt>
      <trkpt lat="53.047355012968183" lon="-9.141219025477767">
        <ele>140.97</ele>
        <time>2026-07-02T07:34:09Z</time>
      </trkpt>
      <trkpt lat="53.046960979700089" lon="-9.140973016619682">
        <ele>142.88999999999999</ele>
        <time>2026-07-02T07:34:18Z</time>
      </trkpt>
      <trkpt lat="53.04696399718523" lon="-9.140674034133554">
        <ele>143.37</ele>
        <time>2026-07-02T07:34:23Z</time>
      </trkpt>
      <trkpt lat="53.046991992741823" lon="-9.14058200083673">
        <ele>143.37</ele>
        <time>2026-07-02T07:34:28Z</time>
      </trkpt>
      <trkpt lat="53.046991992741823" lon="-9.14058200083673">
        <ele>143.84999999999999</ele>
        <time>2026-07-02T07:34:29Z</time>
      </trkpt>
      <trkpt lat="53.047145968303084" lon="-9.140527015551925">
        <ele>143.84999999999999</ele>
        <time>2026-07-02T07:34:41Z</time>
      </trkpt>
      <trkpt lat="53.047143034636974" lon="-9.140531960874796">
        <ele>143.84999999999999</ele>
        <time>2026-07-02T07:35:23Z</time>
      </trkpt>
      <trkpt lat="53.04715502075851" lon="-9.140576971694827">
        <ele>146.25999999999999</ele>
        <time>2026-07-02T08:08:13Z</time>
      </trkpt>
      <trkpt lat="53.047146974131465" lon="-9.14051896892488">
        <ele>146.74000000000001</ele>
        <time>2026-07-02T08:09:00Z</time>
      </trkpt>
      <trkpt lat="53.047144040465355" lon="-9.14051896892488">
        <ele>146.25999999999999</ele>
        <time>2026-07-02T08:09:53Z</time>
      </trkpt>
      <trkpt lat="53.047153009101748" lon="-9.140491979196668">
        <ele>145.78</ele>
        <time>2026-07-02T08:10:01Z</time>
      </trkpt>
      <trkpt lat="53.046991992741823" lon="-9.14058200083673">
        <ele>144.81999999999999</ele>
        <time>2026-07-02T08:10:06Z</time>
      </trkpt>
      <trkpt lat="53.046991992741823" lon="-9.14058200083673">
        <ele>144.34</ele>
        <time>2026-07-02T08:10:07Z</time>
      </trkpt>
      <trkpt lat="53.046991992741823" lon="-9.14058200083673">
        <ele>144.34</ele>
        <time>2026-07-02T08:10:08Z</time>
      </trkpt>
      <trkpt lat="53.046977994963527" lon="-9.140629023313522">
        <ele>144.34</ele>
        <time>2026-07-02T08:10:09Z</time>
      </trkpt>
      <trkpt lat="53.046829970553517" lon="-9.140870003029704">
        <ele>144.34</ele>
        <time>2026-07-02T08:10:16Z</time>
      </trkpt>
      <trkpt lat="53.046787977218628" lon="-9.140827003866434">
        <ele>144.34</ele>
        <time>2026-07-02T08:10:17Z</time>
      </trkpt>
      <trkpt lat="53.046732991933823" lon="-9.140771012753248">
        <ele>144.34</ele>
        <time>2026-07-02T08:10:18Z</time>
      </trkpt>
      <trkpt lat="53.046587985008955" lon="-9.140623994171619">
        <ele>144.34</ele>
        <time>2026-07-02T08:10:20Z</time>
      </trkpt>
      <trkpt lat="53.045811988413334" lon="-9.139836011454463">
        <ele>145.78</ele>
        <time>2026-07-02T08:10:31Z</time>
      </trkpt>
      <trkpt lat="53.044895008206367" lon="-9.139154981821775">
        <ele>141.44999999999999</ele>
        <time>2026-07-02T08:10:42Z</time>
      </trkpt>
      <trkpt lat="53.043531021103263" lon="-9.138313019648194">
        <ele>136.16</ele>
        <time>2026-07-02T08:10:57Z</time>
      </trkpt>
      <trkpt lat="53.042619992047548" lon="-9.137596031650901">
        <ele>132.80000000000001</ele>
        <time>2026-07-02T08:11:10Z</time>
      </trkpt>
      <trkpt lat="53.042025966569781" lon="-9.137201998382807">
        <ele>127.98999999999999</ele>
        <time>2026-07-02T08:11:21Z</time>
      </trkpt>
      <trkpt lat="53.041907027363777" lon="-9.137492012232542">
        <ele>127.51000000000001</ele>
        <time>2026-07-02T08:11:31Z</time>
      </trkpt>
      <trkpt lat="53.041907027363777" lon="-9.137492012232542">
        <ele>128.94999999999999</ele>
        <time>2026-07-02T08:11:40Z</time>
      </trkpt>
      <trkpt lat="53.041907027363777" lon="-9.137492012232542">
        <ele>128.94999999999999</ele>
        <time>2026-07-02T08:12:09Z</time>
      </trkpt>
      <trkpt lat="53.041907027363777" lon="-9.137492012232542">
        <ele>129.91999999999999</ele>
        <time>2026-07-02T08:13:05Z</time>
      </trkpt>
      <trkpt lat="53.041907027363777" lon="-9.137492012232542">
        <ele>129.91999999999999</ele>
        <time>2026-07-02T08:13:14Z</time>
      </trkpt>
      <trkpt lat="53.041907027363777" lon="-9.137492012232542">
        <ele>129.91999999999999</ele>
        <time>2026-07-02T08:13:15Z</time>
      </trkpt>
      <trkpt lat="53.041907027363777" lon="-9.137492012232542">
        <ele>129.91999999999999</ele>
        <time>2026-07-02T08:13:16Z</time>
      </trkpt>
      <trkpt lat="53.041907027363777" lon="-9.137492012232542">
        <ele>129.91999999999999</ele>
        <time>2026-07-02T08:13:17Z</time>
      </trkpt>
      <trkpt lat="53.04191499017179" lon="-9.137453958392143">
        <ele>129.91999999999999</ele>
        <time>2026-07-02T08:13:18Z</time>
      </trkpt>
      <trkpt lat="53.041823962703347" lon="-9.137388998642564">
        <ele>129.91999999999999</ele>
        <time>2026-07-02T08:13:19Z</time>
      </trkpt>
      <trkpt lat="53.041951032355428" lon="-9.137269975617528">
        <ele>129.43000000000001</ele>
        <time>2026-07-02T08:13:25Z</time>
      </trkpt>
      <trkpt lat="53.041955977678299" lon="-9.137246003374457">
        <ele>129.43000000000001</ele>
        <time>2026-07-02T08:13:26Z</time>
      </trkpt>
      <trkpt lat="53.041961006820202" lon="-9.137220019474626">
        <ele>129.43000000000001</ele>
        <time>2026-07-02T08:13:27Z</time>
      </trkpt>
      <trkpt lat="53.041901998221874" lon="-9.137126980349422">
        <ele>129.43000000000001</ele>
        <time>2026-07-02T08:13:28Z</time>
      </trkpt>
      <trkpt lat="53.04184902459383" lon="-9.137094039469957">
        <ele>129.43000000000001</ele>
        <time>2026-07-02T08:13:29Z</time>
      </trkpt>
      <trkpt lat="53.041780963540077" lon="-9.137051040306687">
        <ele>129.91999999999999</ele>
        <time>2026-07-02T08:13:30Z</time>
      </trkpt>
      <trkpt lat="53.041706029325724" lon="-9.137005023658276">
        <ele>129.91999999999999</ele>
        <time>2026-07-02T08:13:31Z</time>
      </trkpt>
      <trkpt lat="53.040790976956487" lon="-9.136431030929089">
        <ele>127.98999999999999</ele>
        <time>2026-07-02T08:13:41Z</time>
      </trkpt>
      <trkpt lat="53.039625976234674" lon="-9.135771039873362">
        <ele>120.3</ele>
        <time>2026-07-02T08:13:50Z</time>
      </trkpt>
      <trkpt lat="53.037899974733591" lon="-9.135315986350179">
        <ele>115.98</ele>
        <time>2026-07-02T08:14:02Z</time>
      </trkpt>
      <trkpt lat="53.037039991468191" lon="-9.135448001325131">
        <ele>115.98</ele>
        <time>2026-07-02T08:14:08Z</time>
      </trkpt>
      <trkpt lat="53.036894984543324" lon="-9.135503992438316">
        <ele>115.98</ele>
        <time>2026-07-02T08:14:09Z</time>
      </trkpt>
      <trkpt lat="53.036766992881894" lon="-9.135610023513436">
        <ele>116.45999999999999</ele>
        <time>2026-07-02T08:14:10Z</time>
      </trkpt>
      <trkpt lat="53.036007005721331" lon="-9.136101035401225">
        <ele>120.3</ele>
        <time>2026-07-02T08:14:16Z</time>
      </trkpt>
      <trkpt lat="53.035874990746379" lon="-9.136144034564495">
        <ele>120.3</ele>
        <time>2026-07-02T08:14:17Z</time>
      </trkpt>
      <trkpt lat="53.035351959988475" lon="-9.136189967393875">
        <ele>121.26000000000001</ele>
        <time>2026-07-02T08:14:21Z</time>
      </trkpt>
      <trkpt lat="53.035222962498665" lon="-9.136172030121088">
        <ele>121.73999999999999</ele>
        <time>2026-07-02T08:14:22Z</time>
      </trkpt>
      <trkpt lat="53.035101005807519" lon="-9.136126013472676">
        <ele>122.22</ele>
        <time>2026-07-02T08:14:23Z</time>
      </trkpt>
      <trkpt lat="53.034986006096005" lon="-9.136034986004233">
        <ele>122.70999999999999</ele>
        <time>2026-07-02T08:14:24Z</time>
      </trkpt>
      <trkpt lat="53.03486798889935" lon="-9.135943036526442">
        <ele>123.67</ele>
        <time>2026-07-02T08:14:25Z</time>
      </trkpt>
      <trkpt lat="53.034426011145115" lon="-9.13559703156352">
        <ele>127.03</ele>
        <time>2026-07-02T08:14:29Z</time>
      </trkpt>
      <trkpt lat="53.034334983676672" lon="-9.135545985773206">
        <ele>127.51000000000001</ele>
        <time>2026-07-02T08:14:30Z</time>
      </trkpt>
      <trkpt lat="53.034234987571836" lon="-9.135579010471702">
        <ele>128.47</ele>
        <time>2026-07-02T08:14:31Z</time>
      </trkpt>
      <trkpt lat="53.034132979810238" lon="-9.135631984099746">
        <ele>129.43000000000001</ele>
        <time>2026-07-02T08:14:32Z</time>
      </trkpt>
      <trkpt lat="53.03403097204864" lon="-9.135732986032963">
        <ele>129.91999999999999</ele>
        <time>2026-07-02T08:14:33Z</time>
      </trkpt>
      <trkpt lat="53.033923013135791" lon="-9.135842034593225">
        <ele>130.40000000000001</ele>
        <time>2026-07-02T08:14:34Z</time>
      </trkpt>
      <trkpt lat="53.033569967374206" lon="-9.136149985715747">
        <ele>131.84</ele>
        <time>2026-07-02T08:14:37Z</time>
      </trkpt>
      <trkpt lat="53.033440969884396" lon="-9.136219974607229">
        <ele>132.31999999999999</ele>
        <time>2026-07-02T08:14:38Z</time>
      </trkpt>
      <trkpt lat="53.032443020492792" lon="-9.13697199895978">
        <ele>138.09</ele>
        <time>2026-07-02T08:14:47Z</time>
      </trkpt>
      <trkpt lat="53.032351993024349" lon="-9.137006029486656">
        <ele>138.56999999999999</ele>
        <time>2026-07-02T08:14:48Z</time>
      </trkpt>
      <trkpt lat="53.032274963334203" lon="-9.13699303753674">
        <ele>139.05000000000001</ele>
        <time>2026-07-02T08:14:49Z</time>
      </trkpt>
      <trkpt lat="53.032208997756243" lon="-9.136910978704691">
        <ele>139.53</ele>
        <time>2026-07-02T08:14:50Z</time>
      </trkpt>
      <trkpt lat="53.032144038006663" lon="-9.136806037276983">
        <ele>139.53</ele>
        <time>2026-07-02T08:14:51Z</time>
      </trkpt>
      <trkpt lat="53.032124005258083" lon="-9.136663964018226">
        <ele>139.53</ele>
        <time>2026-07-02T08:14:52Z</time>
      </trkpt>
      <trkpt lat="53.032102966681123" lon="-9.136514011770487">
        <ele>139.53</ele>
        <time>2026-07-02T08:14:53Z</time>
      </trkpt>
      <trkpt lat="53.032081006094813" lon="-9.136354001238942">
        <ele>139.53</ele>
        <time>2026-07-02T08:14:54Z</time>
      </trkpt>
      <trkpt lat="53.032057033851743" lon="-9.136182004585862">
        <ele>139.53</ele>
        <time>2026-07-02T08:14:55Z</time>
      </trkpt>
      <trkpt lat="53.032035995274782" lon="-9.136032974347472">
        <ele>139.05000000000001</ele>
        <time>2026-07-02T08:14:56Z</time>
      </trkpt>
      <trkpt lat="53.031963994726539" lon="-9.135861983522773">
        <ele>139.05000000000001</ele>
        <time>2026-07-02T08:14:57Z</time>
      </trkpt>
      <trkpt lat="53.031898029148579" lon="-9.13570499047637">
        <ele>138.56999999999999</ele>
        <time>2026-07-02T08:14:58Z</time>
      </trkpt>
      <trkpt lat="53.03181798197329" lon="-9.135552020743489">
        <ele>139.05000000000001</ele>
        <time>2026-07-02T08:14:59Z</time>
      </trkpt>
      <trkpt lat="53.031728966161609" lon="-9.135412964969873">
        <ele>139.05000000000001</ele>
        <time>2026-07-02T08:15:00Z</time>
      </trkpt>
      <trkpt lat="53.031553030014038" lon="-9.135138038545847">
        <ele>140.49000000000001</ele>
        <time>2026-07-02T08:15:02Z</time>
      </trkpt>
      <trkpt lat="53.031398970633745" lon="-9.134895969182253">
        <ele>141.93000000000001</ele>
        <time>2026-07-02T08:15:04Z</time>
      </trkpt>
      <trkpt lat="53.031307021155953" lon="-9.134803013876081">
        <ele>142.41</ele>
        <time>2026-07-02T08:15:05Z</time>
      </trkpt>
      <trkpt lat="53.031205013394356" lon="-9.134723972529173">
        <ele>142.88999999999999</ele>
        <time>2026-07-02T08:15:06Z</time>
      </trkpt>
      <trkpt lat="53.031096970662475" lon="-9.134687008336186">
        <ele>143.84999999999999</ele>
        <time>2026-07-02T08:15:07Z</time>
      </trkpt>
      <trkpt lat="53.030981970950961" lon="-9.134663958102465">
        <ele>144.81999999999999</ele>
        <time>2026-07-02T08:15:08Z</time>
      </trkpt>
      <trkpt lat="53.030865965411067" lon="-9.134687008336186">
        <ele>145.30000000000001</ele>
        <time>2026-07-02T08:15:09Z</time>
      </trkpt>
      <trkpt lat="53.030743002891541" lon="-9.134721960872412">
        <ele>145.30000000000001</ele>
        <time>2026-07-02T08:15:10Z</time>
      </trkpt>
      <trkpt lat="53.030617022886872" lon="-9.134756997227669">
        <ele>146.25999999999999</ele>
        <time>2026-07-02T08:15:11Z</time>
      </trkpt>
      <trkpt lat="53.030490037053823" lon="-9.134792033582926">
        <ele>146.74000000000001</ele>
        <time>2026-07-02T08:15:12Z</time>
      </trkpt>
      <trkpt lat="53.030365984886885" lon="-9.13486797362566">
        <ele>147.22</ele>
        <time>2026-07-02T08:15:13Z</time>
      </trkpt>
      <trkpt lat="53.030246961861849" lon="-9.134980039671063">
        <ele>147.69999999999999</ele>
        <time>2026-07-02T08:15:14Z</time>
      </trkpt>
      <trkpt lat="53.030125005170703" lon="-9.135094033554196">
        <ele>148.18000000000001</ele>
        <time>2026-07-02T08:15:15Z</time>
      </trkpt>
      <trkpt lat="53.030006987974048" lon="-9.1352319996804">
        <ele>148.66</ele>
        <time>2026-07-02T08:15:16Z</time>
      </trkpt>
      <trkpt lat="53.029895005747676" lon="-9.135388992726803">
        <ele>148.66</ele>
        <time>2026-07-02T08:15:17Z</time>
      </trkpt>
      <trkpt lat="53.029483035206795" lon="-9.135969020426273">
        <ele>149.13999999999999</ele>
        <time>2026-07-02T08:15:21Z</time>
      </trkpt>
      <trkpt lat="53.02936602383852" lon="-9.136059964075685">
        <ele>148.66</ele>
        <time>2026-07-02T08:15:22Z</time>
      </trkpt>
      <trkpt lat="53.02923702634871" lon="-9.136142022907734">
        <ele>148.18000000000001</ele>
        <time>2026-07-02T08:15:23Z</time>
      </trkpt>
      <trkpt lat="53.029102999716997" lon="-9.13619801402092">
        <ele>148.18000000000001</ele>
        <time>2026-07-02T08:15:24Z</time>
      </trkpt>
      <trkpt lat="53.028976013883948" lon="-9.136251993477345">
        <ele>148.18000000000001</ele>
        <time>2026-07-02T08:15:25Z</time>
      </trkpt>
      <trkpt lat="53.028733022511005" lon="-9.136355007067323">
        <ele>147.69999999999999</ele>
        <time>2026-07-02T08:15:27Z</time>
      </trkpt>
      <trkpt lat="53.028603019192815" lon="-9.136332962661982">
        <ele>147.69999999999999</ele>
        <time>2026-07-02T08:15:28Z</time>
      </trkpt>
      <trkpt lat="53.028459018096328" lon="-9.13630798459053">
        <ele>147.69999999999999</ele>
        <time>2026-07-02T08:15:29Z</time>
      </trkpt>
      <trkpt lat="53.026893027126789" lon="-9.13604998961091">
        <ele>145.78</ele>
        <time>2026-07-02T08:15:39Z</time>
      </trkpt>
      <trkpt lat="53.024743990972638" lon="-9.135730974376202">
        <ele>143.37</ele>
        <time>2026-07-02T08:15:53Z</time>
      </trkpt>
      <trkpt lat="53.023354019969702" lon="-9.135370971634984">
        <ele>136.63999999999999</ele>
        <time>2026-07-02T08:16:03Z</time>
      </trkpt>
      <trkpt lat="53.023224016651511" lon="-9.135291008278728">
        <ele>136.16</ele>
        <time>2026-07-02T08:16:04Z</time>
      </trkpt>
      <trkpt lat="53.023096024990082" lon="-9.13518900051713">
        <ele>135.68000000000001</ele>
        <time>2026-07-02T08:16:05Z</time>
      </trkpt>
      <trkpt lat="53.022609036415815" lon="-9.134741993620992">
        <ele>132.80000000000001</ele>
        <time>2026-07-02T08:16:09Z</time>
      </trkpt>
      <trkpt lat="53.02247098647058" lon="-9.134666975587606">
        <ele>132.31999999999999</ele>
        <time>2026-07-02T08:16:10Z</time>
      </trkpt>
      <trkpt lat="53.021221999078989" lon="-9.133994998410344">
        <ele>127.51000000000001</ele>
        <time>2026-07-02T08:16:20Z</time>
      </trkpt>
      <trkpt lat="53.020047023892403" lon="-9.133414970710874">
        <ele>120.3</ele>
        <time>2026-07-02T08:16:29Z</time>
      </trkpt>
      <trkpt lat="53.018814967945218" lon="-9.132851958274841">
        <ele>117.90000000000001</ele>
        <time>2026-07-02T08:16:38Z</time>
      </trkpt>
      <trkpt lat="53.017111010849476" lon="-9.131994992494583">
        <ele>119.34</ele>
        <time>2026-07-02T08:16:50Z</time>
      </trkpt>
      <trkpt lat="53.015280989930034" lon="-9.13095697760582">
        <ele>119.34</ele>
        <time>2026-07-02T08:17:03Z</time>
      </trkpt>
      <trkpt lat="53.013927983120084" lon="-9.130056006833911">
        <ele>115.5</ele>
        <time>2026-07-02T08:17:13Z</time>
      </trkpt>
      <trkpt lat="53.012303989380598" lon="-9.128931993618608">
        <ele>107.81</ele>
        <time>2026-07-02T08:17:25Z</time>
      </trkpt>
      <trkpt lat="53.012163005769253" lon="-9.128884971141815">
        <ele>107.81</ele>
        <time>2026-07-02T08:17:26Z</time>
      </trkpt>
      <trkpt lat="53.012014981359243" lon="-9.128878014162183">
        <ele>107.31999999999999</ele>
        <time>2026-07-02T08:17:27Z</time>
      </trkpt>
      <trkpt lat="53.010049005970359" lon="-9.128752034157515">
        <ele>107.31999999999999</ele>
        <time>2026-07-02T08:17:40Z</time>
      </trkpt>
      <trkpt lat="53.008132986724377" lon="-9.128158008679748">
        <ele>110.20999999999999</ele>
        <time>2026-07-02T08:17:53Z</time>
      </trkpt>
      <trkpt lat="53.00732497125864" lon="-9.127862965688109">
        <ele>110.69</ele>
        <time>2026-07-02T08:17:59Z</time>
      </trkpt>
      <trkpt lat="53.006891962140799" lon="-9.127682000398636">
        <ele>109.25</ele>
        <time>2026-07-02T08:18:04Z</time>
      </trkpt>
      <trkpt lat="53.006252003833652" lon="-9.127742014825344">
        <ele>107.81</ele>
        <time>2026-07-02T08:18:12Z</time>
      </trkpt>
      <trkpt lat="53.005034029483795" lon="-9.127931026741862">
        <ele>104.92</ele>
        <time>2026-07-02T08:18:21Z</time>
      </trkpt>
      <trkpt lat="53.003103006631136" lon="-9.128029011189938">
        <ele>96.75</ele>
        <time>2026-07-02T08:18:33Z</time>
      </trkpt>
      <trkpt lat="53.00102898851037" lon="-9.128122972324491">
        <ele>91.939999999999998</ele>
        <time>2026-07-02T08:18:46Z</time>
      </trkpt>
      <trkpt lat="52.999651003628969" lon="-9.128532009199262">
        <ele>90.5</ele>
        <time>2026-07-02T08:18:55Z</time>
      </trkpt>
      <trkpt lat="52.997926007956266" lon="-9.128982033580542">
        <ele>85.689999999999998</ele>
        <time>2026-07-02T08:19:06Z</time>
      </trkpt>
      <trkpt lat="52.997481012716889" lon="-9.129079012200236">
        <ele>83.769999999999996</ele>
        <time>2026-07-02T08:19:11Z</time>
      </trkpt>
      <trkpt lat="52.997342040762305" lon="-9.12910901941359">
        <ele>81.849999999999994</ele>
        <time>2026-07-02T08:19:16Z</time>
      </trkpt>
      <trkpt lat="52.997329970821738" lon="-9.129112036898732">
        <ele>81.370000000000005</ele>
        <time>2026-07-02T08:19:17Z</time>
      </trkpt>
      <trkpt lat="52.997324019670486" lon="-9.129041964188218">
        <ele>80.890000000000001</ele>
        <time>2026-07-02T08:19:18Z</time>
      </trkpt>
      <trkpt lat="52.997337011620402" lon="-9.129021009430289">
        <ele>80.890000000000001</ele>
        <time>2026-07-02T08:19:19Z</time>
      </trkpt>
      <trkpt lat="52.997350003570318" lon="-9.128997959196568">
        <ele>80.409999999999997</ele>
        <time>2026-07-02T08:19:20Z</time>
      </trkpt>
      <trkpt lat="52.997366013005376" lon="-9.128971975296736">
        <ele>80.409999999999997</ele>
        <time>2026-07-02T08:19:21Z</time>
      </trkpt>
      <trkpt lat="52.997653009369969" lon="-9.128679027780891">
        <ele>80.409999999999997</ele>
        <time>2026-07-02T08:19:29Z</time>
      </trkpt>
      <trkpt lat="52.998206969350576" lon="-9.128167983144522">
        <ele>80.890000000000001</ele>
        <time>2026-07-02T08:19:39Z</time>
      </trkpt>
      <trkpt lat="52.998346025124192" lon="-9.128095982596278">
        <ele>81.370000000000005</ele>
        <time>2026-07-02T08:19:41Z</time>
      </trkpt>
      <trkpt lat="52.998420959338546" lon="-9.128065975382924">
        <ele>81.370000000000005</ele>
        <time>2026-07-02T08:19:42Z</time>
      </trkpt>
      <trkpt lat="52.998670991510153" lon="-9.127967990934849">
        <ele>81.849999999999994</ele>
        <time>2026-07-02T08:19:45Z</time>
      </trkpt>
      <trkpt lat="52.998759001493454" lon="-9.127933038398624">
        <ele>81.849999999999994</ele>
        <time>2026-07-02T08:19:46Z</time>
      </trkpt>
      <trkpt lat="52.998846005648375" lon="-9.127896996214986">
        <ele>81.849999999999994</ele>
        <time>2026-07-02T08:19:47Z</time>
      </trkpt>
      <trkpt lat="52.998930998146534" lon="-9.127826001495123">
        <ele>82.329999999999998</ele>
        <time>2026-07-02T08:19:48Z</time>
      </trkpt>
      <trkpt lat="52.999016996473074" lon="-9.127754000946879">
        <ele>82.810000000000002</ele>
        <time>2026-07-02T08:19:49Z</time>
      </trkpt>
      <trkpt lat="52.999767009168863" lon="-9.127225019037724">
        <ele>84.25</ele>
        <time>2026-07-02T08:19:58Z</time>
      </trkpt>
      <trkpt lat="53.000261960551143" lon="-9.126901980489492">
        <ele>86.180000000000007</ele>
        <time>2026-07-02T08:20:04Z</time>
      </trkpt>
      <trkpt lat="53.000327004119754" lon="-9.126826040446758">
        <ele>86.180000000000007</ele>
        <time>2026-07-02T08:20:05Z</time>
      </trkpt>
      <trkpt lat="53.000649036839604" lon="-9.126405017450452">
        <ele>84.25</ele>
        <time>2026-07-02T08:20:10Z</time>
      </trkpt>
      <trkpt lat="53.000681977719069" lon="-9.126303009688854">
        <ele>83.290000000000006</ele>
        <time>2026-07-02T08:20:11Z</time>
      </trkpt>
      <trkpt lat="53.000716008245945" lon="-9.126201001927257">
        <ele>82.329999999999998</ele>
        <time>2026-07-02T08:20:12Z</time>
      </trkpt>
      <trkpt lat="53.000863026827574" lon="-9.125749971717596">
        <ele>81.370000000000005</ele>
        <time>2026-07-02T08:20:16Z</time>
      </trkpt>
      <trkpt lat="53.001255970448256" lon="-9.12455203011632">
        <ele>78.969999999999999</ele>
        <time>2026-07-02T08:20:26Z</time>
      </trkpt>
      <trkpt lat="53.00190799869597" lon="-9.122738018631935">
        <ele>81.849999999999994</ele>
        <time>2026-07-02T08:20:41Z</time>
      </trkpt>
      <trkpt lat="53.00201402977109" lon="-9.122324036434293">
        <ele>83.290000000000006</ele>
        <time>2026-07-02T08:20:44Z</time>
      </trkpt>
      <trkpt lat="53.00216599367559" lon="-9.121726993471384">
        <ele>83.769999999999996</ele>
        <time>2026-07-02T08:20:49Z</time>
      </trkpt>
      <trkpt lat="53.00220899283886" lon="-9.121633032336831">
        <ele>83.769999999999996</ele>
        <time>2026-07-02T08:20:50Z</time>
      </trkpt>
      <trkpt lat="53.002260038629174" lon="-9.121527001261711">
        <ele>83.769999999999996</ele>
        <time>2026-07-02T08:20:51Z</time>
      </trkpt>
      <trkpt lat="53.002770999446511" lon="-9.120326964184642">
        <ele>84.25</ele>
        <time>2026-07-02T08:21:01Z</time>
      </trkpt>
      <trkpt lat="53.002850040793419" lon="-9.120100988075137">
        <ele>83.769999999999996</ele>
        <time>2026-07-02T08:21:03Z</time>
      </trkpt>
      <trkpt lat="53.002902008593082" lon="-9.120023036375642">
        <ele>83.769999999999996</ele>
        <time>2026-07-02T08:21:04Z</time>
      </trkpt>
      <trkpt lat="53.002964034676552" lon="-9.119936032220721">
        <ele>83.769999999999996</ele>
        <time>2026-07-02T08:21:05Z</time>
      </trkpt>
      <trkpt lat="53.003226974979043" lon="-9.119563959538937">
        <ele>83.769999999999996</ele>
        <time>2026-07-02T08:21:09Z</time>
      </trkpt>
      <trkpt lat="53.003290006890893" lon="-9.119476033374667">
        <ele>83.769999999999996</ele>
        <time>2026-07-02T08:21:10Z</time>
      </trkpt>
      <trkpt lat="53.003335017710924" lon="-9.119359022006393">
        <ele>82.810000000000002</ele>
        <time>2026-07-02T08:21:11Z</time>
      </trkpt>
      <trkpt lat="53.003351027145982" lon="-9.119233964011073">
        <ele>82.329999999999998</ele>
        <time>2026-07-02T08:21:12Z</time>
      </trkpt>
      <trkpt lat="53.003367958590388" lon="-9.119104966521263">
        <ele>81.370000000000005</ele>
        <time>2026-07-02T08:21:13Z</time>
      </trkpt>
      <trkpt lat="53.003439959138632" lon="-9.118428966030479">
        <ele>76.079999999999998</ele>
        <time>2026-07-02T08:21:18Z</time>
      </trkpt>
      <trkpt lat="53.003453034907579" lon="-9.118106011301279">
        <ele>74.159999999999997</ele>
        <time>2026-07-02T08:21:21Z</time>
      </trkpt>
      <trkpt lat="53.003463009372354" lon="-9.118026969954372">
        <ele>73.680000000000007</ele>
        <time>2026-07-02T08:21:22Z</time>
      </trkpt>
      <trkpt lat="53.003489999100566" lon="-9.117946000769734">
        <ele>73.200000000000003</ele>
        <time>2026-07-02T08:21:23Z</time>
      </trkpt>
      <trkpt lat="53.003529980778694" lon="-9.117881041020155">
        <ele>73.200000000000003</ele>
        <time>2026-07-02T08:21:24Z</time>
      </trkpt>
      <trkpt lat="53.003584966063499" lon="-9.11780996248126">
        <ele>73.200000000000003</ele>
        <time>2026-07-02T08:21:25Z</time>
      </trkpt>
      <trkpt lat="53.003643974661827" lon="-9.117733016610146">
        <ele>73.200000000000003</ele>
        <time>2026-07-02T08:21:26Z</time>
      </trkpt>
      <trkpt lat="53.004423994570971" lon="-9.116722997277975">
        <ele>75.120000000000005</ele>
        <time>2026-07-02T08:21:37Z</time>
      </trkpt>
      <trkpt lat="53.004934033378959" lon="-9.115412989631295">
        <ele>75.120000000000005</ele>
        <time>2026-07-02T08:21:47Z</time>
      </trkpt>
      <trkpt lat="53.005290012806654" lon="-9.113606018945575">
        <ele>74.640000000000001</ele>
        <time>2026-07-02T08:21:58Z</time>
      </trkpt>
      <trkpt lat="53.005484975874424" lon="-9.111697040498257">
        <ele>75.599999999999994</ele>
        <time>2026-07-02T08:22:10Z</time>
      </trkpt>
      <trkpt lat="53.00547500140965" lon="-9.111381964758039">
        <ele>75.599999999999994</ele>
        <time>2026-07-02T08:22:12Z</time>
      </trkpt>
      <trkpt lat="53.005257993936539" lon="-9.109651017934084">
        <ele>77.040000000000006</ele>
        <time>2026-07-02T08:22:22Z</time>
      </trkpt>
      <trkpt lat="53.005141988396645" lon="-9.107341971248388">
        <ele>79.930000000000007</ele>
        <time>2026-07-02T08:22:35Z</time>
      </trkpt>
      <trkpt lat="53.005062025040388" lon="-9.105026973411441">
        <ele>85.689999999999998</ele>
        <time>2026-07-02T08:22:49Z</time>
      </trkpt>
      <trkpt lat="53.005258999764919" lon="-9.10298204049468">
        <ele>90.5</ele>
        <time>2026-07-02T08:23:02Z</time>
      </trkpt>
      <trkpt lat="53.00545496866107" lon="-9.100900981575251">
        <ele>91.459999999999994</ele>
        <time>2026-07-02T08:23:15Z</time>
      </trkpt>
      <trkpt lat="53.005459997802973" lon="-9.100433019921184">
        <ele>91.939999999999998</ele>
        <time>2026-07-02T08:23:18Z</time>
      </trkpt>
      <trkpt lat="53.00543200224638" lon="-9.100281978026032">
        <ele>92.420000000000002</ele>
        <time>2026-07-02T08:23:19Z</time>
      </trkpt>
      <trkpt lat="53.005404006689787" lon="-9.100129008293152">
        <ele>92.420000000000002</ele>
        <time>2026-07-02T08:23:20Z</time>
      </trkpt>
      <trkpt lat="53.005027994513512" lon="-9.098172001540661">
        <ele>93.870000000000005</ele>
        <time>2026-07-02T08:23:32Z</time>
      </trkpt>
      <trkpt lat="53.004549974575639" lon="-9.096675999462605">
        <ele>91.939999999999998</ele>
        <time>2026-07-02T08:23:43Z</time>
      </trkpt>
      <trkpt lat="53.004434974864125" lon="-9.096318008378148">
        <ele>89.540000000000006</ele>
        <time>2026-07-02T08:23:46Z</time>
      </trkpt>
      <trkpt lat="53.004399016499519" lon="-9.096208037808538">
        <ele>89.060000000000002</ele>
        <time>2026-07-02T08:23:47Z</time>
      </trkpt>
      <trkpt lat="53.004323998466134" lon="-9.094975981861353">
        <ele>85.689999999999998</ele>
        <time>2026-07-02T08:23:56Z</time>
      </trkpt>
      <trkpt lat="53.004446038976312" lon="-9.094004016369581">
        <ele>89.060000000000002</ele>
        <time>2026-07-02T08:24:03Z</time>
      </trkpt>
      <trkpt lat="53.004481997340918" lon="-9.093865966424346">
        <ele>89.060000000000002</ele>
        <time>2026-07-02T08:24:04Z</time>
      </trkpt>
      <trkpt lat="53.004549974575639" lon="-9.093602020293474">
        <ele>90.019999999999996</ele>
        <time>2026-07-02T08:24:06Z</time>
      </trkpt>
      <trkpt lat="53.004579981788993" lon="-9.09348601475358">
        <ele>90.5</ele>
        <time>2026-07-02T08:24:07Z</time>
      </trkpt>
      <trkpt lat="53.00459498539567" lon="-9.093359028920531">
        <ele>91.459999999999994</ele>
        <time>2026-07-02T08:24:08Z</time>
      </trkpt>
      <trkpt lat="53.004599008709192" lon="-9.093203963711858">
        <ele>91.459999999999994</ele>
        <time>2026-07-02T08:24:09Z</time>
      </trkpt>
      <trkpt lat="53.004604959860444" lon="-9.093027021735907">
        <ele>91.939999999999998</ele>
        <time>2026-07-02T08:24:10Z</time>
      </trkpt>
      <trkpt lat="53.004724988713861" lon="-9.091259026899934">
        <ele>96.75</ele>
        <time>2026-07-02T08:24:19Z</time>
      </trkpt>
      <trkpt lat="53.004975020885468" lon="-9.088691985234618">
        <ele>100.59999999999999</ele>
        <time>2026-07-02T08:24:32Z</time>
      </trkpt>
      <trkpt lat="53.005107035860419" lon="-9.08635200932622">
        <ele>103</ele>
        <time>2026-07-02T08:24:45Z</time>
      </trkpt>
      <trkpt lat="53.004963034763932" lon="-9.085080977529287">
        <ele>102.52</ele>
        <time>2026-07-02T08:24:54Z</time>
      </trkpt>
      <trkpt lat="53.004924980923533" lon="-9.084756011143327">
        <ele>102.04000000000001</ele>
        <time>2026-07-02T08:24:59Z</time>
      </trkpt>
      <trkpt lat="53.004926992580295" lon="-9.084654003381729">
        <ele>102.04000000000001</ele>
        <time>2026-07-02T08:25:00Z</time>
      </trkpt>
      <trkpt lat="53.004968985915184" lon="-9.084626007825136">
        <ele>102.52</ele>
        <time>2026-07-02T08:25:01Z</time>
      </trkpt>
      <trkpt lat="53.005020031705499" lon="-9.084590971469879">
        <ele>103</ele>
        <time>2026-07-02T08:25:02Z</time>
      </trkpt>
      <trkpt lat="53.005083985626698" lon="-9.084546966478229">
        <ele>103.48</ele>
        <time>2026-07-02T08:25:03Z</time>
      </trkpt>
      <trkpt lat="53.005152968689799" lon="-9.084499021992087">
        <ele>103.48</ele>
        <time>2026-07-02T08:25:04Z</time>
      </trkpt>
      <trkpt lat="53.005228992551565" lon="-9.084446970373392">
        <ele>103.95999999999999</ele>
        <time>2026-07-02T08:25:05Z</time>
      </trkpt>
      <trkpt lat="53.005300993099809" lon="-9.084358960390091">
        <ele>103.95999999999999</ele>
        <time>2026-07-02T08:25:06Z</time>
      </trkpt>
      <trkpt lat="53.005371987819672" lon="-9.084249995648861">
        <ele>103.95999999999999</ele>
        <time>2026-07-02T08:25:07Z</time>
      </trkpt>
      <trkpt lat="53.005443988367915" lon="-9.084138013422489">
        <ele>103.95999999999999</ele>
        <time>2026-07-02T08:25:08Z</time>
      </trkpt>
      <trkpt lat="53.005654960870743" lon="-9.083810029551387">
        <ele>105.88</ele>
        <time>2026-07-02T08:25:11Z</time>
      </trkpt>
      <trkpt lat="53.005727967247367" lon="-9.083730988204479">
        <ele>106.36</ele>
        <time>2026-07-02T08:25:12Z</time>
      </trkpt>
      <trkpt lat="53.005808014422655" lon="-9.083670973777771">
        <ele>106.84</ele>
        <time>2026-07-02T08:25:13Z</time>
      </trkpt>
      <trkpt lat="53.005892001092434" lon="-9.08362596295774">
        <ele>106.84</ele>
        <time>2026-07-02T08:25:14Z</time>
      </trkpt>
      <trkpt lat="53.005981016904116" lon="-9.08360400237143">
        <ele>107.31999999999999</ele>
        <time>2026-07-02T08:25:15Z</time>
      </trkpt>
      <trkpt lat="53.006073972210288" lon="-9.083582041785121">
        <ele>107.31999999999999</ele>
        <time>2026-07-02T08:25:16Z</time>
      </trkpt>
      <trkpt lat="53.006449984386563" lon="-9.083493025973439">
        <ele>108.29000000000001</ele>
        <time>2026-07-02T08:25:20Z</time>
      </trkpt>
      <trkpt lat="53.006544029340148" lon="-9.083470981568098">
        <ele>108.29000000000001</ele>
        <time>2026-07-02T08:25:21Z</time>
      </trkpt>
      <trkpt lat="53.006734969094396" lon="-9.083425970748067">
        <ele>109.25</ele>
        <time>2026-07-02T08:25:23Z</time>
      </trkpt>
      <trkpt lat="53.006830019876361" lon="-9.083403004333377">
        <ele>109.25</ele>
        <time>2026-07-02T08:25:24Z</time>
      </trkpt>
      <trkpt lat="53.006926998496056" lon="-9.083380037918687">
        <ele>109.73</ele>
        <time>2026-07-02T08:25:25Z</time>
      </trkpt>
      <trkpt lat="53.007540972903371" lon="-9.083198988810182">
        <ele>111.65000000000001</ele>
        <time>2026-07-02T08:25:31Z</time>
      </trkpt>
      <trkpt lat="53.007632000371814" lon="-9.083116007968783">
        <ele>112.13</ele>
        <time>2026-07-02T08:25:32Z</time>
      </trkpt>
      <trkpt lat="53.007719004526734" lon="-9.083035038784146">
        <ele>112.61</ele>
        <time>2026-07-02T08:25:33Z</time>
      </trkpt>
      <trkpt lat="53.007960990071297" lon="-9.082710994407535">
        <ele>113.56999999999999</ele>
        <time>2026-07-02T08:25:36Z</time>
      </trkpt>
      <trkpt lat="53.008045982569456" lon="-9.082655003294349">
        <ele>114.05</ele>
        <time>2026-07-02T08:25:37Z</time>
      </trkpt>
      <trkpt lat="53.008142039179802" lon="-9.082591971382499">
        <ele>114.53</ele>
        <time>2026-07-02T08:25:38Z</time>
      </trkpt>
      <trkpt lat="53.00912800244987" lon="-9.082035999745131">
        <ele>119.34</ele>
        <time>2026-07-02T08:25:48Z</time>
      </trkpt>
      <trkpt lat="53.010034002363682" lon="-9.081728970631957">
        <ele>122.70999999999999</ele>
        <time>2026-07-02T08:25:57Z</time>
      </trkpt>
      <trkpt lat="53.010120000690222" lon="-9.081702986732125">
        <ele>123.19</ele>
        <time>2026-07-02T08:25:58Z</time>
      </trkpt>
      <trkpt lat="53.010210022330284" lon="-9.08171103335917">
        <ele>123.67</ele>
        <time>2026-07-02T08:25:59Z</time>
      </trkpt>
      <trkpt lat="53.011302016675472" lon="-9.081804994493723">
        <ele>120.78</ele>
        <time>2026-07-02T08:26:10Z</time>
      </trkpt>
      <trkpt lat="53.012188989669085" lon="-9.081566026434302">
        <ele>115.5</ele>
        <time>2026-07-02T08:26:18Z</time>
      </trkpt>
      <trkpt lat="53.012461988255382" lon="-9.081486985087395">
        <ele>114.53</ele>
        <time>2026-07-02T08:26:21Z</time>
      </trkpt>
      <trkpt lat="53.012530971318483" lon="-9.081466030329466">
        <ele>114.05</ele>
        <time>2026-07-02T08:26:22Z</time>
      </trkpt>
      <trkpt lat="53.012574976310134" lon="-9.081357987597585">
        <ele>113.56999999999999</ele>
        <time>2026-07-02T08:26:23Z</time>
      </trkpt>
      <trkpt lat="53.012612024322152" lon="-9.081266038119793">
        <ele>113.09</ele>
        <time>2026-07-02T08:26:24Z</time>
      </trkpt>
      <trkpt lat="53.012620992958546" lon="-9.081141985952854">
        <ele>112.61</ele>
        <time>2026-07-02T08:26:25Z</time>
      </trkpt>
      <trkpt lat="53.012626022100449" lon="-9.081007037311792">
        <ele>112.13</ele>
        <time>2026-07-02T08:26:26Z</time>
      </trkpt>
      <trkpt lat="53.012629961594939" lon="-9.08087401650846">
        <ele>111.65000000000001</ele>
        <time>2026-07-02T08:26:27Z</time>
      </trkpt>
      <trkpt lat="53.012634990736842" lon="-9.080750970169902">
        <ele>110.69</ele>
        <time>2026-07-02T08:26:28Z</time>
      </trkpt>
      <trkpt lat="53.012638008221984" lon="-9.080646028742194">
        <ele>109.73</ele>
        <time>2026-07-02T08:26:29Z</time>
      </trkpt>
      <trkpt lat="53.012682013213634" lon="-9.080586014315486">
        <ele>109.25</ele>
        <time>2026-07-02T08:26:30Z</time>
      </trkpt>
      <trkpt lat="53.012734986841679" lon="-9.080533040687442">
        <ele>108.77</ele>
        <time>2026-07-02T08:26:31Z</time>
      </trkpt>
      <trkpt lat="53.012793995440006" lon="-9.080489035695791">
        <ele>107.81</ele>
        <time>2026-07-02T08:26:32Z</time>
      </trkpt>
      <trkpt lat="53.012873036786914" lon="-9.080453999340534">
        <ele>106.84</ele>
        <time>2026-07-02T08:26:33Z</time>
      </trkpt>
      <trkpt lat="53.012961968779564" lon="-9.080415023490787">
        <ele>105.88</ele>
        <time>2026-07-02T08:26:34Z</time>
      </trkpt>
      <trkpt lat="53.013062970712781" lon="-9.080392979085445">
        <ele>104.92</ele>
        <time>2026-07-02T08:26:35Z</time>
      </trkpt>
      <trkpt lat="53.013165984302759" lon="-9.080372024327517">
        <ele>104.44</ele>
        <time>2026-07-02T08:26:36Z</time>
      </trkpt>
      <trkpt lat="53.013487011194229" lon="-9.080329025164247">
        <ele>101.56</ele>
        <time>2026-07-02T08:26:39Z</time>
      </trkpt>
      <trkpt lat="53.01454296335578" lon="-9.080241015180945">
        <ele>94.349999999999994</ele>
        <time>2026-07-02T08:26:50Z</time>
      </trkpt>
      <trkpt lat="53.014632984995842" lon="-9.080210002139211">
        <ele>94.349999999999994</ele>
        <time>2026-07-02T08:26:51Z</time>
      </trkpt>
      <trkpt lat="53.014710014685988" lon="-9.080183012410998">
        <ele>94.349999999999994</ele>
        <time>2026-07-02T08:26:52Z</time>
      </trkpt>
      <trkpt lat="53.01486499607563" lon="-9.080076981335878">
        <ele>93.870000000000005</ele>
        <time>2026-07-02T08:26:55Z</time>
      </trkpt>
      <trkpt lat="53.015076974406838" lon="-9.07986500300467">
        <ele>93.870000000000005</ele>
        <time>2026-07-02T08:27:00Z</time>
      </trkpt>
      <trkpt lat="53.015216030180454" lon="-9.079726031050086">
        <ele>93.390000000000001</ele>
        <time>2026-07-02T08:27:03Z</time>
      </trkpt>
      <trkpt lat="53.015731014311314" lon="-9.079052964225411">
        <ele>97.709999999999994</ele>
        <time>2026-07-02T08:27:09Z</time>
      </trkpt>
      <trkpt lat="53.016098979860544" lon="-9.078475032001734">
        <ele>101.08</ele>
        <time>2026-07-02T08:27:13Z</time>
      </trkpt>
      <trkpt lat="53.01619503647089" lon="-9.078367995098233">
        <ele>102.52</ele>
        <time>2026-07-02T08:27:14Z</time>
      </trkpt>
      <trkpt lat="53.017125008627772" lon="-9.077124036848545">
        <ele>110.20999999999999</ele>
        <time>2026-07-02T08:27:24Z</time>
      </trkpt>
      <trkpt lat="53.017362970858812" lon="-9.076808039098978">
        <ele>113.09</ele>
        <time>2026-07-02T08:27:27Z</time>
      </trkpt>
      <trkpt lat="53.017444023862481" lon="-9.076730003580451">
        <ele>114.05</ele>
        <time>2026-07-02T08:27:28Z</time>
      </trkpt>
      <trkpt lat="53.017525998875499" lon="-9.076650962233543">
        <ele>115.01000000000001</ele>
        <time>2026-07-02T08:27:29Z</time>
      </trkpt>
      <trkpt lat="53.018154976889491" lon="-9.075970016419888">
        <ele>119.81999999999999</ele>
        <time>2026-07-02T08:27:38Z</time>
      </trkpt>
      <trkpt lat="53.019189974293113" lon="-9.074642993509769">
        <ele>130.40000000000001</ele>
        <time>2026-07-02T08:27:54Z</time>
      </trkpt>
      <trkpt lat="53.02032396197319" lon="-9.073606990277767">
        <ele>133.28</ele>
        <time>2026-07-02T08:28:07Z</time>
      </trkpt>
      <trkpt lat="53.021651990711689" lon="-9.072842979803681">
        <ele>134.24000000000001</ele>
        <time>2026-07-02T08:28:20Z</time>
      </trkpt>
      <trkpt lat="53.022681958973408" lon="-9.072490017861128">
        <ele>130.40000000000001</ele>
        <time>2026-07-02T08:28:30Z</time>
      </trkpt>
      <trkpt lat="53.023667000234127" lon="-9.071971010416746">
        <ele>129.43000000000001</ele>
        <time>2026-07-02T08:28:40Z</time>
      </trkpt>
      <trkpt lat="53.024418018758297" lon="-9.071190990507603">
        <ele>126.06999999999999</ele>
        <time>2026-07-02T08:28:49Z</time>
      </trkpt>
      <trkpt lat="53.024476021528244" lon="-9.071182021871209">
        <ele>126.06999999999999</ele>
        <time>2026-07-02T08:28:50Z</time>
      </trkpt>
      <trkpt lat="53.024538969621062" lon="-9.071209011599422">
        <ele>126.06999999999999</ele>
        <time>2026-07-02T08:28:51Z</time>
      </trkpt>
      <trkpt lat="53.024605019018054" lon="-9.071237007156014">
        <ele>126.06999999999999</ele>
        <time>2026-07-02T08:28:52Z</time>
      </trkpt>
      <trkpt lat="53.024678025394678" lon="-9.071268020197749">
        <ele>126.06999999999999</ele>
        <time>2026-07-02T08:28:53Z</time>
      </trkpt>
      <trkpt lat="53.024755977094173" lon="-9.071301966905594">
        <ele>126.55</ele>
        <time>2026-07-02T08:28:54Z</time>
      </trkpt>
      <trkpt lat="53.024838035926223" lon="-9.071337003260851">
        <ele>126.55</ele>
        <time>2026-07-02T08:28:55Z</time>
      </trkpt>
      <trkpt lat="53.024914981797338" lon="-9.071345971897245">
        <ele>126.55</ele>
        <time>2026-07-02T08:28:56Z</time>
      </trkpt>
      <trkpt lat="53.025000980123878" lon="-9.071296015754342">
        <ele>126.55</ele>
        <time>2026-07-02T08:28:57Z</time>
      </trkpt>
      <trkpt lat="53.025097036734223" lon="-9.071240024641156">
        <ele>126.55</ele>
        <time>2026-07-02T08:28:58Z</time>
      </trkpt>
      <trkpt lat="53.025677986443043" lon="-9.070980018004775">
        <ele>125.11</ele>
        <time>2026-07-02T08:29:04Z</time>
      </trkpt>
      <trkpt lat="53.026585998013616" lon="-9.070912040770054">
        <ele>125.11</ele>
        <time>2026-07-02T08:29:14Z</time>
      </trkpt>
      <trkpt lat="53.026732010766864" lon="-9.070909023284912">
        <ele>124.15000000000001</ele>
        <time>2026-07-02T08:29:16Z</time>
      </trkpt>
      <trkpt lat="53.026804011315107" lon="-9.070909023284912">
        <ele>123.19</ele>
        <time>2026-07-02T08:29:17Z</time>
      </trkpt>
      <trkpt lat="53.02693996578455" lon="-9.070932995527983">
        <ele>121.73999999999999</ele>
        <time>2026-07-02T08:29:19Z</time>
      </trkpt>
      <trkpt lat="53.027007021009922" lon="-9.070963002741337">
        <ele>120.78</ele>
        <time>2026-07-02T08:29:20Z</time>
      </trkpt>
      <trkpt lat="53.027139035984874" lon="-9.07109702937305">
        <ele>119.81999999999999</ele>
        <time>2026-07-02T08:29:22Z</time>
      </trkpt>
      <trkpt lat="53.027187986299396" lon="-9.071181016042829">
        <ele>119.34</ele>
        <time>2026-07-02T08:29:23Z</time>
      </trkpt>
      <trkpt lat="53.027229979634285" lon="-9.071252010762692">
        <ele>118.86</ele>
        <time>2026-07-02T08:29:24Z</time>
      </trkpt>
      <trkpt lat="53.027270967140794" lon="-9.071390982717276">
        <ele>119.34</ele>
        <time>2026-07-02T08:29:25Z</time>
      </trkpt>
      <trkpt lat="53.027306003496051" lon="-9.071511011570692">
        <ele>119.81999999999999</ele>
        <time>2026-07-02T08:29:26Z</time>
      </trkpt>
      <trkpt lat="53.027341039851308" lon="-9.071637997403741">
        <ele>119.81999999999999</ele>
        <time>2026-07-02T08:29:27Z</time>
      </trkpt>
      <trkpt lat="53.027365012094378" lon="-9.071776969358325">
        <ele>119.81999999999999</ele>
        <time>2026-07-02T08:29:28Z</time>
      </trkpt>
      <trkpt lat="53.027392001822591" lon="-9.071928011253476">
        <ele>119.81999999999999</ele>
        <time>2026-07-02T08:29:29Z</time>
      </trkpt>
      <trkpt lat="53.027703976258636" lon="-9.073851993307471">
        <ele>119.81999999999999</ele>
        <time>2026-07-02T08:29:40Z</time>
      </trkpt>
      <trkpt lat="53.027717974036932" lon="-9.074018960818648">
        <ele>119.81999999999999</ele>
        <time>2026-07-02T08:29:41Z</time>
      </trkpt>
      <trkpt lat="53.027718979865313" lon="-9.07419003546238">
        <ele>119.81999999999999</ele>
        <time>2026-07-02T08:29:42Z</time>
      </trkpt>
      <trkpt lat="53.027657037600875" lon="-9.075056975707412">
        <ele>118.38</ele>
        <time>2026-07-02T08:29:47Z</time>
      </trkpt>
      <trkpt lat="53.02762501873076" lon="-9.075522003695369">
        <ele>118.38</ele>
        <time>2026-07-02T08:29:50Z</time>
      </trkpt>
      <trkpt lat="53.027643039822578" lon="-9.075661981478334">
        <ele>118.38</ele>
        <time>2026-07-02T08:29:51Z</time>
      </trkpt>
      <trkpt lat="53.027666006237268" lon="-9.075799025595188">
        <ele>118.86</ele>
        <time>2026-07-02T08:29:52Z</time>
      </trkpt>
      <trkpt lat="53.027717974036932" lon="-9.075935985893011">
        <ele>119.34</ele>
        <time>2026-07-02T08:29:53Z</time>
      </trkpt>
      <trkpt lat="53.027770025655627" lon="-9.076076969504356">
        <ele>119.81999999999999</ele>
        <time>2026-07-02T08:29:54Z</time>
      </trkpt>
      <trkpt lat="53.028062973171473" lon="-9.076808039098978">
        <ele>124.15000000000001</ele>
        <time>2026-07-02T08:29:59Z</time>
      </trkpt>
      <trkpt lat="53.028137991204858" lon="-9.076923038810492">
        <ele>125.11</ele>
        <time>2026-07-02T08:30:00Z</time>
      </trkpt>
      <trkpt lat="53.028214015066624" lon="-9.077039966359735">
        <ele>126.06999999999999</ele>
        <time>2026-07-02T08:30:01Z</time>
      </trkpt>
      <trkpt lat="53.028666973114014" lon="-9.077739017084241">
        <ele>126.55</ele>
        <time>2026-07-02T08:30:09Z</time>
      </trkpt>
      <trkpt lat="53.028705026954412" lon="-9.077798025682569">
        <ele>127.51000000000001</ele>
        <time>2026-07-02T08:30:17Z</time>
      </trkpt>
      <trkpt lat="53.028732016682625" lon="-9.077840019017458">
        <ele>127.03</ele>
        <time>2026-07-02T08:30:18Z</time>
      </trkpt>
      <trkpt lat="53.028760012239218" lon="-9.077815962955356">
        <ele>127.03</ele>
        <time>2026-07-02T08:30:19Z</time>
      </trkpt>
      <trkpt lat="53.028813991695642" lon="-9.077767012640834">
        <ele>127.03</ele>
        <time>2026-07-02T08:30:20Z</time>
      </trkpt>
      <trkpt lat="53.029287988319993" lon="-9.077348001301289">
        <ele>126.55</ele>
        <time>2026-07-02T08:30:26Z</time>
      </trkpt>
      <trkpt lat="53.029383961111307" lon="-9.077314976602793">
        <ele>126.55</ele>
        <time>2026-07-02T08:30:27Z</time>
      </trkpt>
      <trkpt lat="53.029486974701285" lon="-9.077282035723329">
        <ele>126.55</ele>
        <time>2026-07-02T08:30:28Z</time>
      </trkpt>
      <trkpt lat="53.030669996514916" lon="-9.077237024903297">
        <ele>133.28</ele>
        <time>2026-07-02T08:30:38Z</time>
      </trkpt>
      <trkpt lat="53.030787007883191" lon="-9.077219003811479">
        <ele>133.28</ele>
        <time>2026-07-02T08:30:39Z</time>
      </trkpt>
      <trkpt lat="53.030910976231098" lon="-9.077186984941363">
        <ele>133.28</ele>
        <time>2026-07-02T08:30:40Z</time>
      </trkpt>
      <trkpt lat="53.03102002479136" lon="-9.077101992443204">
        <ele>134.24000000000001</ele>
        <time>2026-07-02T08:30:41Z</time>
      </trkpt>
      <trkpt lat="53.031582031399012" lon="-9.07666303217411">
        <ele>137.13</ele>
        <time>2026-07-02T08:30:46Z</time>
      </trkpt>
      <trkpt lat="53.031696025282145" lon="-9.076650962233543">
        <ele>137.13</ele>
        <time>2026-07-02T08:30:47Z</time>
      </trkpt>
      <trkpt lat="53.031804990023375" lon="-9.07664299942553">
        <ele>137.61000000000001</ele>
        <time>2026-07-02T08:30:48Z</time>
      </trkpt>
      <trkpt lat="53.032907964661717" lon="-9.076602011919022">
        <ele>144.81999999999999</ele>
        <time>2026-07-02T08:30:57Z</time>
      </trkpt>
      <trkpt lat="53.033847995102406" lon="-9.076612992212176">
        <ele>148.18000000000001</ele>
        <time>2026-07-02T08:31:05Z</time>
      </trkpt>
      <trkpt lat="53.03508197888732" lon="-9.07674802467227">
        <ele>152.50999999999999</ele>
        <time>2026-07-02T08:31:15Z</time>
      </trkpt>
      <trkpt lat="53.03581103682518" lon="-9.076638976112008">
        <ele>152.03</ele>
        <time>2026-07-02T08:31:22Z</time>
      </trkpt>
      <trkpt lat="53.036917028948665" lon="-9.076256006956101">
        <ele>142.88999999999999</ele>
        <time>2026-07-02T08:31:30Z</time>
      </trkpt>
      <trkpt lat="53.037048960104585" lon="-9.07621200196445">
        <ele>141.93000000000001</ele>
        <time>2026-07-02T08:31:31Z</time>
      </trkpt>
      <trkpt lat="53.038415964692831" lon="-9.075869014486671">
        <ele>132.80000000000001</ele>
        <time>2026-07-02T08:31:42Z</time>
      </trkpt>
      <trkpt lat="53.039935017004609" lon="-9.075674973428249">
        <ele>134.72</ele>
        <time>2026-07-02T08:31:55Z</time>
      </trkpt>
      <trkpt lat="53.041176041588187" lon="-9.075687965378165">
        <ele>137.13</ele>
        <time>2026-07-02T08:32:05Z</time>
      </trkpt>
      <trkpt lat="53.042141972109675" lon="-9.075756026431918">
        <ele>140.00999999999999</ele>
        <time>2026-07-02T08:32:14Z</time>
      </trkpt>
      <trkpt lat="53.042201986536384" lon="-9.075736999511719">
        <ele>140.49000000000001</ele>
        <time>2026-07-02T08:32:15Z</time>
      </trkpt>
      <trkpt lat="53.042246997356415" lon="-9.075672961771488">
        <ele>140.97</ele>
        <time>2026-07-02T08:32:16Z</time>
      </trkpt>
      <trkpt lat="53.042302988469601" lon="-9.075591992586851">
        <ele>140.97</ele>
        <time>2026-07-02T08:32:17Z</time>
      </trkpt>
      <trkpt lat="53.04236501455307" lon="-9.075505994260311">
        <ele>140.49000000000001</ele>
        <time>2026-07-02T08:32:18Z</time>
      </trkpt>
      <trkpt lat="53.042425028979778" lon="-9.075419995933771">
        <ele>140.00999999999999</ele>
        <time>2026-07-02T08:32:19Z</time>
      </trkpt>
      <trkpt lat="53.042460987344384" lon="-9.075312959030271">
        <ele>139.05000000000001</ele>
        <time>2026-07-02T08:32:20Z</time>
      </trkpt>
      <trkpt lat="53.042490994557738" lon="-9.075172981247306">
        <ele>138.56999999999999</ele>
        <time>2026-07-02T08:32:21Z</time>
      </trkpt>
      <trkpt lat="53.042524019256234" lon="-9.075019005686045">
        <ele>137.61000000000001</ele>
        <time>2026-07-02T08:32:22Z</time>
      </trkpt>
      <trkpt lat="53.04281503893435" lon="-9.073757026344538">
        <ele>134.72</ele>
        <time>2026-07-02T08:32:32Z</time>
      </trkpt>
      <trkpt lat="53.043146962299943" lon="-9.072631001472473">
        <ele>133.75999999999999</ele>
        <time>2026-07-02T08:32:41Z</time>
      </trkpt>
      <trkpt lat="53.043559016659856" lon="-9.071230972185731">
        <ele>130.88</ele>
        <time>2026-07-02T08:32:52Z</time>
      </trkpt>
      <trkpt lat="53.044054973870516" lon="-9.069378990679979">
        <ele>129.91999999999999</ele>
        <time>2026-07-02T08:33:06Z</time>
      </trkpt>
      <trkpt lat="53.04447297938168" lon="-9.067882988601923">
        <ele>134.72</ele>
        <time>2026-07-02T08:33:18Z</time>
      </trkpt>
      <trkpt lat="53.04451597854495" lon="-9.067800007760525">
        <ele>135.19999999999999</ele>
        <time>2026-07-02T08:33:19Z</time>
      </trkpt>
      <trkpt lat="53.04455797187984" lon="-9.067718032747507">
        <ele>135.68000000000001</ele>
        <time>2026-07-02T08:33:20Z</time>
      </trkpt>
      <trkpt lat="53.04511796683073" lon="-9.066639030352235">
        <ele>139.53</ele>
        <time>2026-07-02T08:33:30Z</time>
      </trkpt>
      <trkpt lat="53.045666981488466" lon="-9.065574025735259">
        <ele>139.53</ele>
        <time>2026-07-02T08:33:39Z</time>
      </trkpt>
      <trkpt lat="53.046180037781596" lon="-9.06450399197638">
        <ele>137.13</ele>
        <time>2026-07-02T08:33:48Z</time>
      </trkpt>
      <trkpt lat="53.046773979440331" lon="-9.063265984877944">
        <ele>139.05000000000001</ele>
        <time>2026-07-02T08:34:00Z</time>
      </trkpt>
      <trkpt lat="53.046952011063695" lon="-9.062893996015191">
        <ele>140.49000000000001</ele>
        <time>2026-07-02T08:34:09Z</time>
      </trkpt>
      <trkpt lat="53.046952011063695" lon="-9.062893996015191">
        <ele>140.97</ele>
        <time>2026-07-02T08:34:53Z</time>
      </trkpt>
      <trkpt lat="53.046952011063695" lon="-9.062893996015191">
        <ele>140.49000000000001</ele>
        <time>2026-07-02T08:35:52Z</time>
      </trkpt>
      <trkpt lat="53.046952011063695" lon="-9.062893996015191">
        <ele>140.97</ele>
        <time>2026-07-02T08:36:44Z</time>
      </trkpt>
      <trkpt lat="53.046952011063695" lon="-9.062893996015191">
        <ele>140.97</ele>
        <time>2026-07-02T08:37:20Z</time>
      </trkpt>
      <trkpt lat="53.046952011063695" lon="-9.062893996015191">
        <ele>140.97</ele>
        <time>2026-07-02T08:37:37Z</time>
      </trkpt>
      <trkpt lat="53.046952011063695" lon="-9.062893996015191">
        <ele>140.97</ele>
        <time>2026-07-02T08:37:38Z</time>
      </trkpt>
      <trkpt lat="53.046980006620288" lon="-9.062834987416863">
        <ele>140.97</ele>
        <time>2026-07-02T08:37:39Z</time>
      </trkpt>
      <trkpt lat="53.046779008582234" lon="-9.063253998756409">
        <ele>141.44999999999999</ele>
        <time>2026-07-02T08:37:47Z</time>
      </trkpt>
      <trkpt lat="53.046743972226977" lon="-9.063328010961413">
        <ele>141.44999999999999</ele>
        <time>2026-07-02T08:37:48Z</time>
      </trkpt>
      <trkpt lat="53.046708013862371" lon="-9.063403028994799">
        <ele>140.97</ele>
        <time>2026-07-02T08:37:49Z</time>
      </trkpt>
      <trkpt lat="53.046241980046034" lon="-9.06437398865819">
        <ele>139.53</ele>
        <time>2026-07-02T08:38:00Z</time>
      </trkpt>
      <trkpt lat="53.046161010861397" lon="-9.064542967826128">
        <ele>139.05000000000001</ele>
        <time>2026-07-02T08:38:02Z</time>
      </trkpt>
      <trkpt lat="53.046122035011649" lon="-9.064626032486558">
        <ele>139.05000000000001</ele>
        <time>2026-07-02T08:38:03Z</time>
      </trkpt>
      <trkpt lat="53.04608004167676" lon="-9.064711024984717">
        <ele>139.05000000000001</ele>
        <time>2026-07-02T08:38:04Z</time>
      </trkpt>
      <trkpt lat="53.0460399761796" lon="-9.064796017482877">
        <ele>139.05000000000001</ele>
        <time>2026-07-02T08:38:05Z</time>
      </trkpt>
      <trkpt lat="53.04599798284471" lon="-9.064883021637797">
        <ele>139.05000000000001</ele>
        <time>2026-07-02T08:38:06Z</time>
      </trkpt>
      <trkpt lat="53.045955989509821" lon="-9.064972037449479">
        <ele>139.05000000000001</ele>
        <time>2026-07-02T08:38:07Z</time>
      </trkpt>
      <trkpt lat="53.045915002003312" lon="-9.065057029947639">
        <ele>139.05000000000001</ele>
        <time>2026-07-02T08:38:08Z</time>
      </trkpt>
      <trkpt lat="53.045875020325184" lon="-9.065139004960656">
        <ele>139.05000000000001</ele>
        <time>2026-07-02T08:38:09Z</time>
      </trkpt>
      <trkpt lat="53.045835038647056" lon="-9.065222991630435">
        <ele>139.05000000000001</ele>
        <time>2026-07-02T08:38:10Z</time>
      </trkpt>
      <trkpt lat="53.04530899040401" lon="-9.066270980983973">
        <ele>140.97</ele>
        <time>2026-07-02T08:38:20Z</time>
      </trkpt>
      <trkpt lat="53.044635001569986" lon="-9.067571014165878">
        <ele>140.49000000000001</ele>
        <time>2026-07-02T08:38:31Z</time>
      </trkpt>
      <trkpt lat="53.044503992423415" lon="-9.067821968346834">
        <ele>140.00999999999999</ele>
        <time>2026-07-02T08:38:33Z</time>
      </trkpt>
      <trkpt lat="53.044437021017075" lon="-9.067955994978547">
        <ele>139.53</ele>
        <time>2026-07-02T08:38:34Z</time>
      </trkpt>
      <trkpt lat="53.044394021853805" lon="-9.068116005510092">
        <ele>139.53</ele>
        <time>2026-07-02T08:38:35Z</time>
      </trkpt>
      <trkpt lat="53.043926982209086" lon="-9.069858016446233">
        <ele>135.68000000000001</ele>
        <time>2026-07-02T08:38:46Z</time>
      </trkpt>
      <trkpt lat="53.043472012504935" lon="-9.07152802683413">
        <ele>136.63999999999999</ele>
        <time>2026-07-02T08:38:59Z</time>
      </trkpt>
      <trkpt lat="53.043011007830501" lon="-9.073092006146908">
        <ele>138.56999999999999</ele>
        <time>2026-07-02T08:39:12Z</time>
      </trkpt>
      <trkpt lat="53.042686963453889" lon="-9.074263041839004">
        <ele>138.56999999999999</ele>
        <time>2026-07-02T08:39:21Z</time>
      </trkpt>
      <trkpt lat="53.042443972080946" lon="-9.075389988720417">
        <ele>140.00999999999999</ele>
        <time>2026-07-02T08:39:30Z</time>
      </trkpt>
      <trkpt lat="53.042399967089295" lon="-9.075456038117409">
        <ele>140.49000000000001</ele>
        <time>2026-07-02T08:39:31Z</time>
      </trkpt>
      <trkpt lat="53.042352022603154" lon="-9.07552401535213">
        <ele>140.49000000000001</ele>
        <time>2026-07-02T08:39:32Z</time>
      </trkpt>
      <trkpt lat="53.042309023439884" lon="-9.075585035607219">
        <ele>140.97</ele>
        <time>2026-07-02T08:39:33Z</time>
      </trkpt>
      <trkpt lat="53.042269041761756" lon="-9.075640020892024">
        <ele>141.44999999999999</ele>
        <time>2026-07-02T08:39:34Z</time>
      </trkpt>
      <trkpt lat="53.042228976264596" lon="-9.075698023661971">
        <ele>141.93000000000001</ele>
        <time>2026-07-02T08:39:35Z</time>
      </trkpt>
      <trkpt lat="53.042195029556751" lon="-9.075745968148112">
        <ele>142.41</ele>
        <time>2026-07-02T08:39:36Z</time>
      </trkpt>
      <trkpt lat="53.042195029556751" lon="-9.075745968148112">
        <ele>142.88999999999999</ele>
        <time>2026-07-02T08:39:38Z</time>
      </trkpt>
      <trkpt lat="53.042195029556751" lon="-9.075745968148112">
        <ele>144.34</ele>
        <time>2026-07-02T08:39:44Z</time>
      </trkpt>
      <trkpt lat="53.042185977101326" lon="-9.075758960098028">
        <ele>144.81999999999999</ele>
        <time>2026-07-02T08:39:46Z</time>
      </trkpt>
      <trkpt lat="53.042185977101326" lon="-9.075758960098028">
        <ele>145.30000000000001</ele>
        <time>2026-07-02T08:39:47Z</time>
      </trkpt>
      <trkpt lat="53.041923036798835" lon="-9.075740016996861">
        <ele>145.30000000000001</ele>
        <time>2026-07-02T08:39:49Z</time>
      </trkpt>
      <trkpt lat="53.041834020987153" lon="-9.075733982026577">
        <ele>145.30000000000001</ele>
        <time>2026-07-02T08:39:50Z</time>
      </trkpt>
      <trkpt lat="53.041732013225555" lon="-9.075727025046945">
        <ele>144.81999999999999</ele>
        <time>2026-07-02T08:39:51Z</time>
      </trkpt>
      <trkpt lat="53.040571035817266" lon="-9.075645972043276">
        <ele>140.00999999999999</ele>
        <time>2026-07-02T08:40:00Z</time>
      </trkpt>
      <trkpt lat="53.039098000153899" lon="-9.075768012553453">
        <ele>136.63999999999999</ele>
        <time>2026-07-02T08:40:11Z</time>
      </trkpt>
      <trkpt lat="53.038257965818048" lon="-9.075893992558122">
        <ele>134.72</ele>
        <time>2026-07-02T08:40:19Z</time>
      </trkpt>
      <trkpt lat="53.038194011896849" lon="-9.075903967022896">
        <ele>134.72</ele>
        <time>2026-07-02T08:40:20Z</time>
      </trkpt>
      <trkpt lat="53.038142966106534" lon="-9.075912013649941">
        <ele>134.72</ele>
        <time>2026-07-02T08:40:21Z</time>
      </trkpt>
      <trkpt lat="53.038038024678826" lon="-9.075810005888343">
        <ele>134.72</ele>
        <time>2026-07-02T08:40:22Z</time>
      </trkpt>
      <trkpt lat="53.038044981658459" lon="-9.075745968148112">
        <ele>134.72</ele>
        <time>2026-07-02T08:40:23Z</time>
      </trkpt>
      <trkpt lat="53.038055039942265" lon="-9.075661981478334">
        <ele>134.72</ele>
        <time>2026-07-02T08:40:24Z</time>
      </trkpt>
      <trkpt lat="53.03806803189218" lon="-9.075554022565484">
        <ele>134.24000000000001</ele>
        <time>2026-07-02T08:40:25Z</time>
      </trkpt>
      <trkpt lat="53.038083035498857" lon="-9.075427036732435">
        <ele>134.24000000000001</ele>
        <time>2026-07-02T08:40:26Z</time>
      </trkpt>
      <trkpt lat="53.038457036018372" lon="-9.074181988835335">
        <ele>131.36000000000001</ele>
        <time>2026-07-02T08:40:34Z</time>
      </trkpt>
      <trkpt lat="53.038491988554597" lon="-9.074023989960551">
        <ele>130.88</ele>
        <time>2026-07-02T08:40:35Z</time>
      </trkpt>
      <trkpt lat="53.038526019081473" lon="-9.07387001439929">
        <ele>130.88</ele>
        <time>2026-07-02T08:40:36Z</time>
      </trkpt>
      <trkpt lat="53.038557032123208" lon="-9.073700029402971">
        <ele>130.40000000000001</ele>
        <time>2026-07-02T08:40:37Z</time>
      </trkpt>
      <trkpt lat="53.038535993546247" lon="-9.073532978072763">
        <ele>130.40000000000001</ele>
        <time>2026-07-02T08:40:38Z</time>
      </trkpt>
      <trkpt lat="53.038516966626048" lon="-9.07337699085474">
        <ele>129.91999999999999</ele>
        <time>2026-07-02T08:40:39Z</time>
      </trkpt>
      <trkpt lat="53.038451001048088" lon="-9.073211029171944">
        <ele>129.43000000000001</ele>
        <time>2026-07-02T08:40:40Z</time>
      </trkpt>
      <trkpt lat="53.038389980792999" lon="-9.07305596396327">
        <ele>128.94999999999999</ele>
        <time>2026-07-02T08:40:41Z</time>
      </trkpt>
      <trkpt lat="53.038208009675145" lon="-9.072594037279487">
        <ele>127.51000000000001</ele>
        <time>2026-07-02T08:40:44Z</time>
      </trkpt>
      <trkpt lat="53.038184037432075" lon="-9.072417011484504">
        <ele>126.55</ele>
        <time>2026-07-02T08:40:45Z</time>
      </trkpt>
      <trkpt lat="53.038180014118552" lon="-9.072243003174663">
        <ele>125.59</ele>
        <time>2026-07-02T08:40:46Z</time>
      </trkpt>
      <trkpt lat="53.038209015503526" lon="-9.072078969329596">
        <ele>124.63</ele>
        <time>2026-07-02T08:40:47Z</time>
      </trkpt>
      <trkpt lat="53.038241034373641" lon="-9.071900015696883">
        <ele>123.67</ele>
        <time>2026-07-02T08:40:48Z</time>
      </trkpt>
      <trkpt lat="53.038343964144588" lon="-9.071323005482554">
        <ele>119.34</ele>
        <time>2026-07-02T08:40:51Z</time>
      </trkpt>
      <trkpt lat="53.038573963567615" lon="-9.069743016734719">
        <ele>116.45999999999999</ele>
        <time>2026-07-02T08:40:59Z</time>
      </trkpt>
      <trkpt lat="53.03856298327446" lon="-9.069540007039905">
        <ele>116.45999999999999</ele>
        <time>2026-07-02T08:41:00Z</time>
      </trkpt>
      <trkpt lat="53.038534987717867" lon="-9.069344960153103">
        <ele>116.45999999999999</ele>
        <time>2026-07-02T08:41:01Z</time>
      </trkpt>
      <trkpt lat="53.038310017436743" lon="-9.068225976079702">
        <ele>116.94</ele>
        <time>2026-07-02T08:41:08Z</time>
      </trkpt>
      <trkpt lat="53.03828596137464" lon="-9.068125979974866">
        <ele>116.94</ele>
        <time>2026-07-02T08:41:09Z</time>
      </trkpt>
      <trkpt lat="53.03826299495995" lon="-9.068029001355171">
        <ele>116.94</ele>
        <time>2026-07-02T08:41:10Z</time>
      </trkpt>
      <trkpt lat="53.038238016888499" lon="-9.067921964451671">
        <ele>116.94</ele>
        <time>2026-07-02T08:41:11Z</time>
      </trkpt>
      <trkpt lat="53.038208009675145" lon="-9.067797996103764">
        <ele>116.94</ele>
        <time>2026-07-02T08:41:12Z</time>
      </trkpt>
      <trkpt lat="53.038174984976649" lon="-9.067658018320799">
        <ele>116.94</ele>
        <time>2026-07-02T08:41:13Z</time>
      </trkpt>
      <trkpt lat="53.038150006905198" lon="-9.06750999391079">
        <ele>116.94</ele>
        <time>2026-07-02T08:41:14Z</time>
      </trkpt>
      <trkpt lat="53.038142966106534" lon="-9.067342020571232">
        <ele>116.94</ele>
        <time>2026-07-02T08:41:15Z</time>
      </trkpt>
      <trkpt lat="53.038036013022065" lon="-9.06579002737999">
        <ele>116.94</ele>
        <time>2026-07-02T08:41:24Z</time>
      </trkpt>
      <trkpt lat="53.037980021908879" lon="-9.065648959949613">
        <ele>116.94</ele>
        <time>2026-07-02T08:41:25Z</time>
      </trkpt>
      <trkpt lat="53.037912966683507" lon="-9.065510993823409">
        <ele>116.94</ele>
        <time>2026-07-02T08:41:26Z</time>
      </trkpt>
      <trkpt lat="53.037843983620405" lon="-9.065369004383683">
        <ele>116.94</ele>
        <time>2026-07-02T08:41:27Z</time>
      </trkpt>
      <trkpt lat="53.037772988900542" lon="-9.065220979973674">
        <ele>117.42</ele>
        <time>2026-07-02T08:41:28Z</time>
      </trkpt>
      <trkpt lat="53.037701994180679" lon="-9.065075973048806">
        <ele>117.42</ele>
        <time>2026-07-02T08:41:29Z</time>
      </trkpt>
      <trkpt lat="53.037651032209396" lon="-9.064929960295558">
        <ele>116.94</ele>
        <time>2026-07-02T08:41:30Z</time>
      </trkpt>
      <trkpt lat="53.037609038874507" lon="-9.064783025532961">
        <ele>116.94</ele>
        <time>2026-07-02T08:41:31Z</time>
      </trkpt>
      <trkpt lat="53.03759403526783" lon="-9.064640030264854">
        <ele>116.94</ele>
        <time>2026-07-02T08:41:32Z</time>
      </trkpt>
      <trkpt lat="53.03759403526783" lon="-9.06448001973331">
        <ele>116.94</ele>
        <time>2026-07-02T08:41:33Z</time>
      </trkpt>
      <trkpt lat="53.03761700168252" lon="-9.064319003373385">
        <ele>116.94</ele>
        <time>2026-07-02T08:41:34Z</time>
      </trkpt>
      <trkpt lat="53.037657989189029" lon="-9.064161004498601">
        <ele>117.42</ele>
        <time>2026-07-02T08:41:35Z</time>
      </trkpt>
      <trkpt lat="53.037698976695538" lon="-9.064000993967056">
        <ele>117.90000000000001</ele>
        <time>2026-07-02T08:41:36Z</time>
      </trkpt>
      <trkpt lat="53.037743987515569" lon="-9.063827991485596">
        <ele>117.90000000000001</ele>
        <time>2026-07-02T08:41:37Z</time>
      </trkpt>
      <trkpt lat="53.037801990285516" lon="-9.063748028129339">
        <ele>118.38</ele>
        <time>2026-07-02T08:41:38Z</time>
      </trkpt>
      <trkpt lat="53.037858987227082" lon="-9.063670998439193">
        <ele>118.38</ele>
        <time>2026-07-02T08:41:39Z</time>
      </trkpt>
      <trkpt lat="53.038424011319876" lon="-9.062820989638567">
        <ele>119.34</ele>
        <time>2026-07-02T08:41:47Z</time>
      </trkpt>
      <trkpt lat="53.038501963019371" lon="-9.062668019905686">
        <ele>119.34</ele>
        <time>2026-07-02T08:41:48Z</time>
      </trkpt>
      <trkpt lat="53.038559965789318" lon="-9.062480013817549">
        <ele>118.86</ele>
        <time>2026-07-02T08:41:49Z</time>
      </trkpt>
      <trkpt lat="53.038601037114859" lon="-9.062287984415889">
        <ele>118.38</ele>
        <time>2026-07-02T08:41:50Z</time>
      </trkpt>
      <trkpt lat="53.038663985207677" lon="-9.06190300360322">
        <ele>118.38</ele>
        <time>2026-07-02T08:41:52Z</time>
      </trkpt>
      <trkpt lat="53.038693992421031" lon="-9.061711980029941">
        <ele>118.38</ele>
        <time>2026-07-02T08:41:53Z</time>
      </trkpt>
      <trkpt lat="53.038703966885805" lon="-9.06151601113379">
        <ele>118.38</ele>
        <time>2026-07-02T08:41:54Z</time>
      </trkpt>
      <trkpt lat="53.038640012964606" lon="-9.060444971546531">
        <ele>118.38</ele>
        <time>2026-07-02T08:42:00Z</time>
      </trkpt>
      <trkpt lat="53.038530964404345" lon="-9.060145989060402">
        <ele>116.45999999999999</ele>
        <time>2026-07-02T08:42:02Z</time>
      </trkpt>
      <trkpt lat="53.03847698494792" lon="-9.059996958822012">
        <ele>115.5</ele>
        <time>2026-07-02T08:42:03Z</time>
      </trkpt>
      <trkpt lat="53.038386963307858" lon="-9.059907021000981">
        <ele>115.01000000000001</ele>
        <time>2026-07-02T08:42:04Z</time>
      </trkpt>
      <trkpt lat="53.038290990516543" lon="-9.05981901101768">
        <ele>115.01000000000001</ele>
        <time>2026-07-02T08:42:05Z</time>
      </trkpt>
      <trkpt lat="53.038193006068468" lon="-9.059728989377618">
        <ele>114.53</ele>
        <time>2026-07-02T08:42:06Z</time>
      </trkpt>
      <trkpt lat="53.037626976147294" lon="-9.059079978615046">
        <ele>113.56999999999999</ele>
        <time>2026-07-02T08:42:13Z</time>
      </trkpt>
      <trkpt lat="53.037578025832772" lon="-9.058996997773647">
        <ele>113.56999999999999</ele>
        <time>2026-07-02T08:42:14Z</time>
      </trkpt>
      <trkpt lat="53.037529997527599" lon="-9.058912005275488">
        <ele>113.56999999999999</ele>
        <time>2026-07-02T08:42:15Z</time>
      </trkpt>
      <trkpt lat="53.037423966452479" lon="-9.05872399918735">
        <ele>113.56999999999999</ele>
        <time>2026-07-02T08:42:17Z</time>
      </trkpt>
      <trkpt lat="53.036856008693576" lon="-9.057622030377388">
        <ele>115.5</ele>
        <time>2026-07-02T08:42:25Z</time>
      </trkpt>
      <trkpt lat="53.036515032872558" lon="-9.056932032108307">
        <ele>115.5</ele>
        <time>2026-07-02T08:42:30Z</time>
      </trkpt>
      <trkpt lat="53.036444960162044" lon="-9.0567890368402">
        <ele>115.01000000000001</ele>
        <time>2026-07-02T08:42:31Z</time>
      </trkpt>
      <trkpt lat="53.035647002980113" lon="-9.055346008390188">
        <ele>117.90000000000001</ele>
        <time>2026-07-02T08:42:42Z</time>
      </trkpt>
      <trkpt lat="53.035613978281617" lon="-9.055207036435604">
        <ele>118.86</ele>
        <time>2026-07-02T08:42:43Z</time>
      </trkpt>
      <trkpt lat="53.035590006038547" lon="-9.055064963176847">
        <ele>119.81999999999999</ele>
        <time>2026-07-02T08:42:44Z</time>
      </trkpt>
      <trkpt lat="53.035559998825192" lon="-9.054787019267678">
        <ele>122.22</ele>
        <time>2026-07-02T08:42:46Z</time>
      </trkpt>
      <trkpt lat="53.035505013540387" lon="-9.054689034819603">
        <ele>123.19</ele>
        <time>2026-07-02T08:42:47Z</time>
      </trkpt>
      <trkpt lat="53.035443993285298" lon="-9.054612005129457">
        <ele>124.63</ele>
        <time>2026-07-02T08:42:48Z</time>
      </trkpt>
      <trkpt lat="53.035381967201829" lon="-9.05453497543931">
        <ele>125.59</ele>
        <time>2026-07-02T08:42:49Z</time>
      </trkpt>
      <trkpt lat="53.035321030765772" lon="-9.054459035396576">
        <ele>126.55</ele>
        <time>2026-07-02T08:42:50Z</time>
      </trkpt>
      <trkpt lat="53.035269984975457" lon="-9.05436297878623">
        <ele>127.03</ele>
        <time>2026-07-02T08:42:51Z</time>
      </trkpt>
      <trkpt lat="53.035228997468948" lon="-9.054242027923465">
        <ele>127.51000000000001</ele>
        <time>2026-07-02T08:42:52Z</time>
      </trkpt>
      <trkpt lat="53.035209970548749" lon="-9.054100960493088">
        <ele>127.98999999999999</ele>
        <time>2026-07-02T08:42:53Z</time>
      </trkpt>
      <trkpt lat="53.035191027447581" lon="-9.053954025730491">
        <ele>127.98999999999999</ele>
        <time>2026-07-02T08:42:54Z</time>
      </trkpt>
      <trkpt lat="53.035170994699001" lon="-9.053799966350198">
        <ele>128.47</ele>
        <time>2026-07-02T08:42:55Z</time>
      </trkpt>
      <trkpt lat="53.035160014405847" lon="-9.053636016324163">
        <ele>128.94999999999999</ele>
        <time>2026-07-02T08:42:56Z</time>
      </trkpt>
      <trkpt lat="53.035149034112692" lon="-9.053463013842702">
        <ele>128.94999999999999</ele>
        <time>2026-07-02T08:42:57Z</time>
      </trkpt>
      <trkpt lat="53.034924985840917" lon="-9.05105497688055">
        <ele>135.68000000000001</ele>
        <time>2026-07-02T08:43:10Z</time>
      </trkpt>
      <trkpt lat="53.034825995564461" lon="-9.05036598443985">
        <ele>138.09</ele>
        <time>2026-07-02T08:43:14Z</time>
      </trkpt>
      <trkpt lat="53.034825995564461" lon="-9.050233969464898">
        <ele>139.05000000000001</ele>
        <time>2026-07-02T08:43:15Z</time>
      </trkpt>
      <trkpt lat="53.034835970029235" lon="-9.050097009167075">
        <ele>139.53</ele>
        <time>2026-07-02T08:43:16Z</time>
      </trkpt>
      <trkpt lat="53.034885004162788" lon="-9.05000195838511">
        <ele>140.49000000000001</ele>
        <time>2026-07-02T08:43:17Z</time>
      </trkpt>
      <trkpt lat="53.034940995275974" lon="-9.049893999472261">
        <ele>140.97</ele>
        <time>2026-07-02T08:43:18Z</time>
      </trkpt>
      <trkpt lat="53.035002015531063" lon="-9.049773970618844">
        <ele>141.44999999999999</ele>
        <time>2026-07-02T08:43:19Z</time>
      </trkpt>
      <trkpt lat="53.035139981657267" lon="-9.049504995346069">
        <ele>141.93000000000001</ele>
        <time>2026-07-02T08:43:21Z</time>
      </trkpt>
      <trkpt lat="53.035783963277936" lon="-9.048252990469337">
        <ele>142.88999999999999</ele>
        <time>2026-07-02T08:43:29Z</time>
      </trkpt>
      <trkpt lat="53.036557026207447" lon="-9.046916998922825">
        <ele>136.63999999999999</ele>
        <time>2026-07-02T08:43:38Z</time>
      </trkpt>
      <trkpt lat="53.037112997844815" lon="-9.045817041769624">
        <ele>134.24000000000001</ele>
        <time>2026-07-02T08:43:45Z</time>
      </trkpt>
      <trkpt lat="53.037232020869851" lon="-9.045564997941256">
        <ele>134.72</ele>
        <time>2026-07-02T08:43:47Z</time>
      </trkpt>
      <trkpt lat="53.037283988669515" lon="-9.045456033200026">
        <ele>134.24000000000001</ele>
        <time>2026-07-02T08:43:48Z</time>
      </trkpt>
      <trkpt lat="53.037332016974688" lon="-9.045355031266809">
        <ele>134.72</ele>
        <time>2026-07-02T08:43:49Z</time>
      </trkpt>
      <trkpt lat="53.037374010309577" lon="-9.045264003798366">
        <ele>134.72</ele>
        <time>2026-07-02T08:43:50Z</time>
      </trkpt>
      <trkpt lat="53.037412986159325" lon="-9.045182028785348">
        <ele>134.72</ele>
        <time>2026-07-02T08:43:51Z</time>
      </trkpt>
      <trkpt lat="53.037443999201059" lon="-9.045116985216737">
        <ele>135.19999999999999</ele>
        <time>2026-07-02T08:43:52Z</time>
      </trkpt>
      <trkpt lat="53.037632005289197" lon="-9.044647011905909">
        <ele>136.16</ele>
        <time>2026-07-02T08:44:02Z</time>
      </trkpt>
      <trkpt lat="53.037751028314233" lon="-9.04411400668323">
        <ele>136.16</ele>
        <time>2026-07-02T08:44:14Z</time>
      </trkpt>
      <trkpt lat="53.037763014435768" lon="-9.044037982821465">
        <ele>136.63999999999999</ele>
        <time>2026-07-02T08:44:15Z</time>
      </trkpt>
      <trkpt lat="53.037776006385684" lon="-9.043952990323305">
        <ele>137.13</ele>
        <time>2026-07-02T08:44:16Z</time>
      </trkpt>
      <trkpt lat="53.037829985842109" lon="-9.043593993410468">
        <ele>139.05000000000001</ele>
        <time>2026-07-02T08:44:20Z</time>
      </trkpt>
      <trkpt lat="53.037872985005379" lon="-9.043314959853888">
        <ele>141.44999999999999</ele>
        <time>2026-07-02T08:44:23Z</time>
      </trkpt>
      <trkpt lat="53.037903998047113" lon="-9.043241031467915">
        <ele>142.41</ele>
        <time>2026-07-02T08:44:24Z</time>
      </trkpt>
      <trkpt lat="53.037935011088848" lon="-9.043165007606149">
        <ele>142.88999999999999</ele>
        <time>2026-07-02T08:44:25Z</time>
      </trkpt>
      <trkpt lat="53.038371037691832" lon="-9.042259007692337">
        <ele>149.13999999999999</ele>
        <time>2026-07-02T08:44:35Z</time>
      </trkpt>
      <trkpt lat="53.038427028805017" lon="-9.042168986052275">
        <ele>149.13999999999999</ele>
        <time>2026-07-02T08:44:36Z</time>
      </trkpt>
      <trkpt lat="53.038480002433062" lon="-9.042084999382496">
        <ele>149.13999999999999</ele>
        <time>2026-07-02T08:44:37Z</time>
      </trkpt>
      <trkpt lat="53.038527024909854" lon="-9.04200897552073">
        <ele>149.62</ele>
        <time>2026-07-02T08:44:38Z</time>
      </trkpt>
      <trkpt lat="53.038573963567615" lon="-9.041933035477996">
        <ele>149.62</ele>
        <time>2026-07-02T08:44:39Z</time>
      </trkpt>
      <trkpt lat="53.03862702101469" lon="-9.041848964989185">
        <ele>149.62</ele>
        <time>2026-07-02T08:44:40Z</time>
      </trkpt>
      <trkpt lat="53.039059024304152" lon="-9.041069028899074">
        <ele>147.22</ele>
        <time>2026-07-02T08:44:48Z</time>
      </trkpt>
      <trkpt lat="53.03916497156024" lon="-9.040708020329475">
        <ele>146.74000000000001</ele>
        <time>2026-07-02T08:44:51Z</time>
      </trkpt>
      <trkpt lat="53.039199002087116" lon="-9.040593020617962">
        <ele>146.74000000000001</ele>
        <time>2026-07-02T08:44:52Z</time>
      </trkpt>
      <trkpt lat="53.03933403454721" lon="-9.040187001228333">
        <ele>147.69999999999999</ele>
        <time>2026-07-02T08:44:56Z</time>
      </trkpt>
      <trkpt lat="53.039728989824653" lon="-9.039288964122534">
        <ele>149.13999999999999</ele>
        <time>2026-07-02T08:45:05Z</time>
      </trkpt>
      <trkpt lat="53.039772994816303" lon="-9.039188968017697">
        <ele>149.13999999999999</ele>
        <time>2026-07-02T08:45:06Z</time>
      </trkpt>
      <trkpt lat="53.039813982322812" lon="-9.039095006883144">
        <ele>149.13999999999999</ele>
        <time>2026-07-02T08:45:07Z</time>
      </trkpt>
      <trkpt lat="53.040339024737477" lon="-9.037899998947978">
        <ele>151.06</ele>
        <time>2026-07-02T08:45:19Z</time>
      </trkpt>
      <trkpt lat="53.04085903801024" lon="-9.037100030109286">
        <ele>154.91</ele>
        <time>2026-07-02T08:45:30Z</time>
      </trkpt>
      <trkpt lat="53.04099197499454" lon="-9.036904983222485">
        <ele>155.38999999999999</ele>
        <time>2026-07-02T08:45:34Z</time>
      </trkpt>
      <trkpt lat="53.041243012994528" lon="-9.036468034610152">
        <ele>156.34999999999999</ele>
        <time>2026-07-02T08:45:39Z</time>
      </trkpt>
      <trkpt lat="53.041415009647608" lon="-9.036124041303992">
        <ele>157.31</ele>
        <time>2026-07-02T08:45:42Z</time>
      </trkpt>
      <trkpt lat="53.04148399271071" lon="-9.036014992743731">
        <ele>157.78999999999999</ele>
        <time>2026-07-02T08:45:43Z</time>
      </trkpt>
      <trkpt lat="53.042340036481619" lon="-9.034753013402224">
        <ele>160.19999999999999</ele>
        <time>2026-07-02T08:45:53Z</time>
      </trkpt>
      <trkpt lat="53.043055012822151" lon="-9.032775973901153">
        <ele>162.59999999999999</ele>
        <time>2026-07-02T08:46:05Z</time>
      </trkpt>
      <trkpt lat="53.043108992278576" lon="-9.032586039975286">
        <ele>162.59999999999999</ele>
        <time>2026-07-02T08:46:06Z</time>
      </trkpt>
      <trkpt lat="53.043132964521646" lon="-9.032433992251754">
        <ele>162.59999999999999</ele>
        <time>2026-07-02T08:46:07Z</time>
      </trkpt>
      <trkpt lat="53.043215023353696" lon="-9.03190903365612">
        <ele>163.08000000000001</ele>
        <time>2026-07-02T08:46:10Z</time>
      </trkpt>
      <trkpt lat="53.043574020266533" lon="-9.030501963570714">
        <ele>166.44999999999999</ele>
        <time>2026-07-02T08:46:19Z</time>
      </trkpt>
      <trkpt lat="53.043606039136648" lon="-9.030363997444511">
        <ele>166.93000000000001</ele>
        <time>2026-07-02T08:46:20Z</time>
      </trkpt>
      <trkpt lat="53.043623976409435" lon="-9.030225025489926">
        <ele>167.41</ele>
        <time>2026-07-02T08:46:21Z</time>
      </trkpt>
      <trkpt lat="53.043580977246165" lon="-9.030107008293271">
        <ele>167.41</ele>
        <time>2026-07-02T08:46:22Z</time>
      </trkpt>
      <trkpt lat="53.043542001396418" lon="-9.029997959733009">
        <ele>167.41</ele>
        <time>2026-07-02T08:46:23Z</time>
      </trkpt>
      <trkpt lat="53.043487016111612" lon="-9.029897963628173">
        <ele>167.41</ele>
        <time>2026-07-02T08:46:24Z</time>
      </trkpt>
      <trkpt lat="53.043406968936324" lon="-9.029823029413819">
        <ele>166.93000000000001</ele>
        <time>2026-07-02T08:46:25Z</time>
      </trkpt>
      <trkpt lat="53.04333102889359" lon="-9.029752034693956">
        <ele>167.41</ele>
        <time>2026-07-02T08:46:26Z</time>
      </trkpt>
      <trkpt lat="53.04307596758008" lon="-9.029513988643885">
        <ele>167.41</ele>
        <time>2026-07-02T08:46:30Z</time>
      </trkpt>
      <trkpt lat="53.043041015043855" lon="-9.029480963945389">
        <ele>167.88999999999999</ele>
        <time>2026-07-02T08:46:35Z</time>
      </trkpt>
      <trkpt lat="53.043041015043855" lon="-9.029480963945389">
        <ele>167.88999999999999</ele>
        <time>2026-07-02T08:47:13Z</time>
      </trkpt>
      <trkpt lat="53.043041015043855" lon="-9.029480963945389">
        <ele>167.88999999999999</ele>
        <time>2026-07-02T08:47:45Z</time>
      </trkpt>
      <trkpt lat="53.043041015043855" lon="-9.029480963945389">
        <ele>168.37</ele>
        <time>2026-07-02T08:47:54Z</time>
      </trkpt>
      <trkpt lat="53.043041015043855" lon="-9.029480963945389">
        <ele>168.37</ele>
        <time>2026-07-02T08:47:55Z</time>
      </trkpt>
      <trkpt lat="53.043041015043855" lon="-9.029480963945389">
        <ele>167.88999999999999</ele>
        <time>2026-07-02T08:47:56Z</time>
      </trkpt>
      <trkpt lat="53.043041015043855" lon="-9.029480963945389">
        <ele>167.88999999999999</ele>
        <time>2026-07-02T08:48:15Z</time>
      </trkpt>
      <trkpt lat="53.043041015043855" lon="-9.029480963945389">
        <ele>167.88999999999999</ele>
        <time>2026-07-02T08:49:06Z</time>
      </trkpt>
      <trkpt lat="53.042806992307305" lon="-9.029262028634548">
        <ele>167.88999999999999</ele>
        <time>2026-07-02T08:49:47Z</time>
      </trkpt>
      <trkpt lat="53.042531982064247" lon="-9.029005039483309">
        <ele>165.96000000000001</ele>
        <time>2026-07-02T08:49:56Z</time>
      </trkpt>
      <trkpt lat="53.042278010398149" lon="-9.028767999261618">
        <ele>163.56</ele>
        <time>2026-07-02T08:50:01Z</time>
      </trkpt>
      <trkpt lat="53.04223601706326" lon="-9.028728017583489">
        <ele>163.08000000000001</ele>
        <time>2026-07-02T08:50:02Z</time>
      </trkpt>
      <trkpt lat="53.042207015678287" lon="-9.028673032298684">
        <ele>162.59999999999999</ele>
        <time>2026-07-02T08:50:03Z</time>
      </trkpt>
      <trkpt lat="53.042207015678287" lon="-9.02860295958817">
        <ele>162.12</ele>
        <time>2026-07-02T08:50:04Z</time>
      </trkpt>
      <trkpt lat="53.042231993749738" lon="-9.02853598818183">
        <ele>161.63999999999999</ele>
        <time>2026-07-02T08:50:05Z</time>
      </trkpt>
      <trkpt lat="53.042283961549401" lon="-9.028508998453617">
        <ele>161.16</ele>
        <time>2026-07-02T08:50:06Z</time>
      </trkpt>
      <trkpt lat="53.042341964319348" lon="-9.028508998453617">
        <ele>160.68000000000001</ele>
        <time>2026-07-02T08:50:07Z</time>
      </trkpt>
      <trkpt lat="53.042403990402818" lon="-9.028508998453617">
        <ele>160.19999999999999</ele>
        <time>2026-07-02T08:50:08Z</time>
      </trkpt>
      <trkpt lat="53.042674977332354" lon="-9.028508998453617">
        <ele>157.78999999999999</ele>
        <time>2026-07-02T08:50:15Z</time>
      </trkpt>
      <trkpt lat="53.04272904060781" lon="-9.028481002897024">
        <ele>157.31</ele>
        <time>2026-07-02T08:50:25Z</time>
      </trkpt>
      <trkpt lat="53.042763993144035" lon="-9.028445966541767">
        <ele>156.83000000000001</ele>
        <time>2026-07-02T08:50:26Z</time>
      </trkpt>
      <trkpt lat="53.0427520070225" lon="-9.028367009013891">
        <ele>156.34999999999999</ele>
        <time>2026-07-02T08:50:27Z</time>
      </trkpt>
      <trkpt lat="53.042743960395455" lon="-9.028315963223577">
        <ele>155.87</ele>
        <time>2026-07-02T08:50:28Z</time>
      </trkpt>
      <trkpt lat="53.042692998424172" lon="-9.028295008465648">
        <ele>155.38999999999999</ele>
        <time>2026-07-02T08:50:29Z</time>
      </trkpt>
      <trkpt lat="53.042620997875929" lon="-9.028266007080674">
        <ele>154.91</ele>
        <time>2026-07-02T08:50:30Z</time>
      </trkpt>
      <trkpt lat="53.042249009013176" lon="-9.02810599654913">
        <ele>152.50999999999999</ele>
        <time>2026-07-02T08:50:34Z</time>
      </trkpt>
      <trkpt lat="53.042163010686636" lon="-9.028044976294041">
        <ele>152.03</ele>
        <time>2026-07-02T08:50:35Z</time>
      </trkpt>
      <trkpt lat="53.042105007916689" lon="-9.027969958260655">
        <ele>151.06</ele>
        <time>2026-07-02T08:50:36Z</time>
      </trkpt>
      <trkpt lat="53.042069971561432" lon="-9.027879014611244">
        <ele>150.09999999999999</ele>
        <time>2026-07-02T08:50:37Z</time>
      </trkpt>
      <trkpt lat="53.042083969339728" lon="-9.027770971879363">
        <ele>149.13999999999999</ele>
        <time>2026-07-02T08:50:38Z</time>
      </trkpt>
      <trkpt lat="53.042122023180127" lon="-9.027671981602907">
        <ele>148.66</ele>
        <time>2026-07-02T08:50:39Z</time>
      </trkpt>
      <trkpt lat="53.042180025950074" lon="-9.027643986046314">
        <ele>147.69999999999999</ele>
        <time>2026-07-02T08:50:40Z</time>
      </trkpt>
      <trkpt lat="53.04225797764957" lon="-9.027606016024947">
        <ele>146.74000000000001</ele>
        <time>2026-07-02T08:50:41Z</time>
      </trkpt>
      <trkpt lat="53.042355962097645" lon="-9.027558993548155">
        <ele>145.78</ele>
        <time>2026-07-02T08:50:42Z</time>
      </trkpt>
      <trkpt lat="53.042588979005814" lon="-9.027447011321783">
        <ele>143.37</ele>
        <time>2026-07-02T08:50:45Z</time>
      </trkpt>
      <trkpt lat="53.042652010917664" lon="-9.027417004108429">
        <ele>142.41</ele>
        <time>2026-07-02T08:50:46Z</time>
      </trkpt>
      <trkpt lat="53.04270900785923" lon="-9.027367969974876">
        <ele>141.44999999999999</ele>
        <time>2026-07-02T08:50:47Z</time>
      </trkpt>
      <trkpt lat="53.042739015072584" lon="-9.027277026325464">
        <ele>140.97</ele>
        <time>2026-07-02T08:50:48Z</time>
      </trkpt>
      <trkpt lat="53.042756030336022" lon="-9.027166971936822">
        <ele>140.49000000000001</ele>
        <time>2026-07-02T08:50:49Z</time>
      </trkpt>
      <trkpt lat="53.04272904060781" lon="-9.027068987488747">
        <ele>139.53</ele>
        <time>2026-07-02T08:50:50Z</time>
      </trkpt>
      <trkpt lat="53.042694004252553" lon="-9.026955999433994">
        <ele>138.56999999999999</ele>
        <time>2026-07-02T08:50:51Z</time>
      </trkpt>
      <trkpt lat="53.04262300953269" lon="-9.026875030249357">
        <ele>138.09</ele>
        <time>2026-07-02T08:50:52Z</time>
      </trkpt>
      <trkpt lat="53.042541034519672" lon="-9.026780985295773">
        <ele>137.61000000000001</ele>
        <time>2026-07-02T08:50:53Z</time>
      </trkpt>
      <trkpt lat="53.042452018707991" lon="-9.026678977534175">
        <ele>137.13</ele>
        <time>2026-07-02T08:50:54Z</time>
      </trkpt>
      <trkpt lat="53.04236501455307" lon="-9.026579987257719">
        <ele>136.16</ele>
        <time>2026-07-02T08:50:55Z</time>
      </trkpt>
      <trkpt lat="53.042282033711672" lon="-9.026485020294786">
        <ele>135.68000000000001</ele>
        <time>2026-07-02T08:50:56Z</time>
      </trkpt>
      <trkpt lat="53.042216990143061" lon="-9.026383012533188">
        <ele>134.72</ele>
        <time>2026-07-02T08:50:57Z</time>
      </trkpt>
      <trkpt lat="53.042182959616184" lon="-9.026254015043378">
        <ele>134.24000000000001</ele>
        <time>2026-07-02T08:50:58Z</time>
      </trkpt>
      <trkpt lat="53.042177008464932" lon="-9.026096016168594">
        <ele>133.28</ele>
        <time>2026-07-02T08:50:59Z</time>
      </trkpt>
      <trkpt lat="53.042168961837888" lon="-9.025922007858753">
        <ele>132.31999999999999</ele>
        <time>2026-07-02T08:51:00Z</time>
      </trkpt>
      <trkpt lat="53.042169967666268" lon="-9.025737019255757">
        <ele>131.36000000000001</ele>
        <time>2026-07-02T08:51:01Z</time>
      </trkpt>
      <trkpt lat="53.042186982929707" lon="-9.025551024824381">
        <ele>130.40000000000001</ele>
        <time>2026-07-02T08:51:02Z</time>
      </trkpt>
      <trkpt lat="53.042191006243229" lon="-9.02524801902473">
        <ele>128.47</ele>
        <time>2026-07-02T08:51:04Z</time>
      </trkpt>
      <trkpt lat="53.042162004858255" lon="-9.025128995999694">
        <ele>127.51000000000001</ele>
        <time>2026-07-02T08:51:05Z</time>
      </trkpt>
      <trkpt lat="53.042126968502998" lon="-9.025025982409716">
        <ele>127.03</ele>
        <time>2026-07-02T08:51:06Z</time>
      </trkpt>
      <trkpt lat="53.042067959904671" lon="-9.024922968819737">
        <ele>126.55</ele>
        <time>2026-07-02T08:51:07Z</time>
      </trkpt>
      <trkpt lat="53.042006017640233" lon="-9.024814004078507">
        <ele>126.06999999999999</ele>
        <time>2026-07-02T08:51:08Z</time>
      </trkpt>
      <trkpt lat="53.041943991556764" lon="-9.024705961346626">
        <ele>125.11</ele>
        <time>2026-07-02T08:51:09Z</time>
      </trkpt>
      <trkpt lat="53.041884982958436" lon="-9.024602025747299">
        <ele>124.15000000000001</ele>
        <time>2026-07-02T08:51:10Z</time>
      </trkpt>
      <trkpt lat="53.041876014322042" lon="-9.024463975802064">
        <ele>123.67</ele>
        <time>2026-07-02T08:51:11Z</time>
      </trkpt>
      <trkpt lat="53.041865034028888" lon="-9.024315029382706">
        <ele>122.70999999999999</ele>
        <time>2026-07-02T08:51:12Z</time>
      </trkpt>
      <trkpt lat="53.041882971301675" lon="-9.0241530071944">
        <ele>121.73999999999999</ele>
        <time>2026-07-02T08:51:13Z</time>
      </trkpt>
      <trkpt lat="53.041907027363777" lon="-9.023959971964359">
        <ele>120.78</ele>
        <time>2026-07-02T08:51:14Z</time>
      </trkpt>
      <trkpt lat="53.041953966021538" lon="-9.023829968646169">
        <ele>119.34</ele>
        <time>2026-07-02T08:51:15Z</time>
      </trkpt>
      <trkpt lat="53.042008029296994" lon="-9.023681022226811">
        <ele>118.38</ele>
        <time>2026-07-02T08:51:16Z</time>
      </trkpt>
      <trkpt lat="53.042061002925038" lon="-9.023535009473562">
        <ele>116.94</ele>
        <time>2026-07-02T08:51:17Z</time>
      </trkpt>
      <trkpt lat="53.042138032615185" lon="-9.023424033075571">
        <ele>115.98</ele>
        <time>2026-07-02T08:51:18Z</time>
      </trkpt>
      <trkpt lat="53.042217995971441" lon="-9.023337028920651">
        <ele>115.5</ele>
        <time>2026-07-02T08:51:19Z</time>
      </trkpt>
      <trkpt lat="53.042296031489968" lon="-9.023252036422491">
        <ele>114.53</ele>
        <time>2026-07-02T08:51:20Z</time>
      </trkpt>
      <trkpt lat="53.042375994846225" lon="-9.023166038095951">
        <ele>114.05</ele>
        <time>2026-07-02T08:51:21Z</time>
      </trkpt>
      <trkpt lat="53.042455958202481" lon="-9.023079033941031">
        <ele>113.09</ele>
        <time>2026-07-02T08:51:22Z</time>
      </trkpt>
      <trkpt lat="53.042536005377769" lon="-9.02299202978611">
        <ele>112.13</ele>
        <time>2026-07-02T08:51:23Z</time>
      </trkpt>
      <trkpt lat="53.042603982612491" lon="-9.022890022024512">
        <ele>111.65000000000001</ele>
        <time>2026-07-02T08:51:24Z</time>
      </trkpt>
      <trkpt lat="53.042642958462238" lon="-9.022745015099645">
        <ele>110.69</ele>
        <time>2026-07-02T08:51:25Z</time>
      </trkpt>
      <trkpt lat="53.042681012302637" lon="-9.022600008174777">
        <ele>109.73</ele>
        <time>2026-07-02T08:51:26Z</time>
      </trkpt>
      <trkpt lat="53.042718982324004" lon="-9.022461036220193">
        <ele>108.77</ele>
        <time>2026-07-02T08:51:27Z</time>
      </trkpt>
      <trkpt lat="53.0427520070225" lon="-9.022335978224874">
        <ele>107.81</ele>
        <time>2026-07-02T08:51:28Z</time>
      </trkpt>
      <trkpt lat="53.042803974822164" lon="-9.022273030132055">
        <ele>106.36</ele>
        <time>2026-07-02T08:51:29Z</time>
      </trkpt>
      <trkpt lat="53.042873963713646" lon="-9.022249979898334">
        <ele>105.40000000000001</ele>
        <time>2026-07-02T08:51:30Z</time>
      </trkpt>
      <trkpt lat="53.04294403642416" lon="-9.022227013483644">
        <ele>104.44</ele>
        <time>2026-07-02T08:51:31Z</time>
      </trkpt>
      <trkpt lat="53.043014025315642" lon="-9.022203041240573">
        <ele>103.48</ele>
        <time>2026-07-02T08:51:32Z</time>
      </trkpt>
      <trkpt lat="53.043091977015138" lon="-9.022176973521709">
        <ele>102.52</ele>
        <time>2026-07-02T08:51:33Z</time>
      </trkpt>
      <trkpt lat="53.043175963684916" lon="-9.022126011550427">
        <ele>102.04000000000001</ele>
        <time>2026-07-02T08:51:34Z</time>
      </trkpt>
      <trkpt lat="53.043252993375063" lon="-9.022027021273971">
        <ele>101.08</ele>
        <time>2026-07-02T08:51:35Z</time>
      </trkpt>
      <trkpt lat="53.043314013630152" lon="-9.021883020177484">
        <ele>100.59999999999999</ele>
        <time>2026-07-02T08:51:36Z</time>
      </trkpt>
      <trkpt lat="53.043335974216461" lon="-9.021742958575487">
        <ele>99.629999999999995</ele>
        <time>2026-07-02T08:51:37Z</time>
      </trkpt>
      <trkpt lat="53.043319964781404" lon="-9.021587977185845">
        <ele>98.670000000000002</ele>
        <time>2026-07-02T08:51:38Z</time>
      </trkpt>
      <trkpt lat="53.043290041387081" lon="-9.02146702632308">
        <ele>98.189999999999998</ele>
        <time>2026-07-02T08:51:39Z</time>
      </trkpt>
      <trkpt lat="53.043229021131992" lon="-9.021364012733102">
        <ele>97.709999999999994</ele>
        <time>2026-07-02T08:51:40Z</time>
      </trkpt>
      <trkpt lat="53.043156014755368" lon="-9.021307015791535">
        <ele>96.75</ele>
        <time>2026-07-02T08:51:41Z</time>
      </trkpt>
      <trkpt lat="53.043071022257209" lon="-9.021277008578181">
        <ele>96.75</ele>
        <time>2026-07-02T08:51:42Z</time>
      </trkpt>
      <trkpt lat="53.042974965646863" lon="-9.021242978051305">
        <ele>95.790000000000006</ele>
        <time>2026-07-02T08:51:43Z</time>
      </trkpt>
      <trkpt lat="53.04288100451231" lon="-9.021210037171841">
        <ele>95.310000000000002</ele>
        <time>2026-07-02T08:51:44Z</time>
      </trkpt>
      <trkpt lat="53.042801041156054" lon="-9.021157985553145">
        <ele>94.349999999999994</ele>
        <time>2026-07-02T08:51:45Z</time>
      </trkpt>
      <trkpt lat="53.042734991759062" lon="-9.021081039682031">
        <ele>93.870000000000005</ele>
        <time>2026-07-02T08:51:46Z</time>
      </trkpt>
      <trkpt lat="53.042690986767411" lon="-9.020981965586543">
        <ele>93.390000000000001</ele>
        <time>2026-07-02T08:51:47Z</time>
      </trkpt>
      <trkpt lat="53.042669026181102" lon="-9.020848022773862">
        <ele>92.900000000000006</ele>
        <time>2026-07-02T08:51:48Z</time>
      </trkpt>
      <trkpt lat="53.042653016746044" lon="-9.020689018070698">
        <ele>91.939999999999998</ele>
        <time>2026-07-02T08:51:49Z</time>
      </trkpt>
      <trkpt lat="53.042618986219168" lon="-9.020105972886086">
        <ele>89.540000000000006</ele>
        <time>2026-07-02T08:51:52Z</time>
      </trkpt>
      <trkpt lat="53.042607000097632" lon="-9.019907992333174">
        <ele>89.060000000000002</ele>
        <time>2026-07-02T08:51:53Z</time>
      </trkpt>
      <trkpt lat="53.042571041733027" lon="-9.019519994035363">
        <ele>88.099999999999994</ele>
        <time>2026-07-02T08:51:55Z</time>
      </trkpt>
      <trkpt lat="53.042543968185782" lon="-9.01934003457427">
        <ele>87.140000000000001</ele>
        <time>2026-07-02T08:51:56Z</time>
      </trkpt>
      <trkpt lat="53.042424023151398" lon="-9.019028982147574">
        <ele>85.689999999999998</ele>
        <time>2026-07-02T08:51:58Z</time>
      </trkpt>
      <trkpt lat="53.042355040088296" lon="-9.018919011577964">
        <ele>84.730000000000004</ele>
        <time>2026-07-02T08:51:59Z</time>
      </trkpt>
      <trkpt lat="53.042271975427866" lon="-9.018852962180972">
        <ele>83.769999999999996</ele>
        <time>2026-07-02T08:52:00Z</time>
      </trkpt>
      <trkpt lat="53.042188994586468" lon="-9.018786996603012">
        <ele>82.810000000000002</ele>
        <time>2026-07-02T08:52:01Z</time>
      </trkpt>
      <trkpt lat="53.04210701957345" lon="-9.018721031025052">
        <ele>81.849999999999994</ele>
        <time>2026-07-02T08:52:02Z</time>
      </trkpt>
      <trkpt lat="53.042032001540065" lon="-9.018661016598344">
        <ele>81.370000000000005</ele>
        <time>2026-07-02T08:52:03Z</time>
      </trkpt>
      <trkpt lat="53.041970981284976" lon="-9.018612988293171">
        <ele>80.409999999999997</ele>
        <time>2026-07-02T08:52:04Z</time>
      </trkpt>
      <trkpt lat="53.041926976293325" lon="-9.018492037430406">
        <ele>79.450000000000003</ele>
        <time>2026-07-02T08:52:05Z</time>
      </trkpt>
      <trkpt lat="53.041901998221874" lon="-9.018377037718892">
        <ele>78.480000000000004</ele>
        <time>2026-07-02T08:52:06Z</time>
      </trkpt>
      <trkpt lat="53.041875008493662" lon="-9.018250973895192">
        <ele>78</ele>
        <time>2026-07-02T08:52:07Z</time>
      </trkpt>
      <trkpt lat="53.041845001280308" lon="-9.01811602525413">
        <ele>77.040000000000006</ele>
        <time>2026-07-02T08:52:08Z</time>
      </trkpt>
      <trkpt lat="53.041814994066954" lon="-9.017978981137276">
        <ele>76.560000000000002</ele>
        <time>2026-07-02T08:52:09Z</time>
      </trkpt>
      <trkpt lat="53.041789010167122" lon="-9.017856018617749">
        <ele>76.079999999999998</ele>
        <time>2026-07-02T08:52:10Z</time>
      </trkpt>
      <trkpt lat="53.041733019053936" lon="-9.017601041123271">
        <ele>75.599999999999994</ele>
        <time>2026-07-02T08:52:16Z</time>
      </trkpt>
      <trkpt lat="53.041736958548427" lon="-9.017391996458173">
        <ele>76.079999999999998</ele>
        <time>2026-07-02T08:52:36Z</time>
      </trkpt>
      <trkpt lat="53.041769983246922" lon="-9.017372969537973">
        <ele>76.079999999999998</ele>
        <time>2026-07-02T08:52:37Z</time>
      </trkpt>
      <trkpt lat="53.04180895909667" lon="-9.017353020608425">
        <ele>76.560000000000002</ele>
        <time>2026-07-02T08:52:38Z</time>
      </trkpt>
      <trkpt lat="53.041861010715365" lon="-9.017325025051832">
        <ele>76.560000000000002</ele>
        <time>2026-07-02T08:52:39Z</time>
      </trkpt>
      <trkpt lat="53.041920019313693" lon="-9.017293006181717">
        <ele>76.079999999999998</ele>
        <time>2026-07-02T08:52:40Z</time>
      </trkpt>
      <trkpt lat="53.042545979842544" lon="-9.016915988177061">
        <ele>73.200000000000003</ele>
        <time>2026-07-02T08:52:47Z</time>
      </trkpt>
      <trkpt lat="53.043819023296237" lon="-9.015919966623187">
        <ele>71.760000000000005</ele>
        <time>2026-07-02T08:53:00Z</time>
      </trkpt>
      <trkpt lat="53.045233972370625" lon="-9.01450602337718">
        <ele>74.159999999999997</ele>
        <time>2026-07-02T08:53:15Z</time>
      </trkpt>
      <trkpt lat="53.045319970697165" lon="-9.014387000352144">
        <ele>74.640000000000001</ele>
        <time>2026-07-02T08:53:16Z</time>
      </trkpt>
      <trkpt lat="53.04629503749311" lon="-9.013204984366894">
        <ele>74.640000000000001</ele>
        <time>2026-07-02T08:53:26Z</time>
      </trkpt>
      <trkpt lat="53.047590963542461" lon="-9.011835968121886">
        <ele>71.760000000000005</ele>
        <time>2026-07-02T08:53:38Z</time>
      </trkpt>
      <trkpt lat="53.047774024307728" lon="-9.011643016710877">
        <ele>71.269999999999996</ele>
        <time>2026-07-02T08:53:40Z</time>
      </trkpt>
      <trkpt lat="53.047860022634268" lon="-9.011552995070815">
        <ele>70.790000000000006</ele>
        <time>2026-07-02T08:53:41Z</time>
      </trkpt>
      <trkpt lat="53.047948032617569" lon="-9.011465990915895">
        <ele>70.310000000000002</ele>
        <time>2026-07-02T08:53:42Z</time>
      </trkpt>
      <trkpt lat="53.048903988674283" lon="-9.011022001504898">
        <ele>66.950000000000003</ele>
        <time>2026-07-02T08:53:50Z</time>
      </trkpt>
      <trkpt lat="53.049959018826485" lon="-9.010496037080884">
        <ele>64.549999999999997</ele>
        <time>2026-07-02T08:54:00Z</time>
      </trkpt>
      <trkpt lat="53.050911035388708" lon="-9.009897988289595">
        <ele>65.989999999999995</ele>
        <time>2026-07-02T08:54:10Z</time>
      </trkpt>
      <trkpt lat="53.051113039255142" lon="-9.009769996628165">
        <ele>65.989999999999995</ele>
        <time>2026-07-02T08:54:12Z</time>
      </trkpt>
      <trkpt lat="53.05121798068285" lon="-9.009704031050205">
        <ele>65.510000000000005</ele>
        <time>2026-07-02T08:54:13Z</time>
      </trkpt>
      <trkpt lat="53.051661970093846" lon="-9.009428014978766">
        <ele>65.510000000000005</ele>
        <time>2026-07-02T08:54:17Z</time>
      </trkpt>
      <trkpt lat="53.051975034177303" lon="-9.009297005832195">
        <ele>66.950000000000003</ele>
        <time>2026-07-02T08:54:20Z</time>
      </trkpt>
      <trkpt lat="53.052074024453759" lon="-9.009256018325687">
        <ele>67.909999999999997</ele>
        <time>2026-07-02T08:54:21Z</time>
      </trkpt>
      <trkpt lat="53.05293601937592" lon="-9.008595021441579">
        <ele>72.239999999999995</ele>
        <time>2026-07-02T08:54:30Z</time>
      </trkpt>
      <trkpt lat="53.054115017876029" lon="-9.007779965177178">
        <ele>79.450000000000003</ele>
        <time>2026-07-02T08:54:41Z</time>
      </trkpt>
      <trkpt lat="53.055078014731407" lon="-9.006841024383903">
        <ele>83.290000000000006</ele>
        <time>2026-07-02T08:54:50Z</time>
      </trkpt>
      <trkpt lat="53.056255001574755" lon="-9.005790017545223">
        <ele>84.730000000000004</ele>
        <time>2026-07-02T08:55:00Z</time>
      </trkpt>
      <trkpt lat="53.056339994072914" lon="-9.005670994520187">
        <ele>84.730000000000004</ele>
        <time>2026-07-02T08:55:01Z</time>
      </trkpt>
      <trkpt lat="53.056420041248202" lon="-9.005538979545236">
        <ele>84.25</ele>
        <time>2026-07-02T08:55:02Z</time>
      </trkpt>
      <trkpt lat="53.056996967643499" lon="-9.004701040685177">
        <ele>83.769999999999996</ele>
        <time>2026-07-02T08:55:08Z</time>
      </trkpt>
      <trkpt lat="53.057192014530301" lon="-9.004513034597039">
        <ele>83.290000000000006</ele>
        <time>2026-07-02T08:55:10Z</time>
      </trkpt>
      <trkpt lat="53.05729896761477" lon="-9.004424018785358">
        <ele>82.810000000000002</ele>
        <time>2026-07-02T08:55:11Z</time>
      </trkpt>
      <trkpt lat="53.057408016175032" lon="-9.004332991316915">
        <ele>82.810000000000002</ele>
        <time>2026-07-02T08:55:12Z</time>
      </trkpt>
      <trkpt lat="53.058034982532263" lon="-9.003810966387391">
        <ele>82.810000000000002</ele>
        <time>2026-07-02T08:55:18Z</time>
      </trkpt>
      <trkpt lat="53.058131039142609" lon="-9.003731003031135">
        <ele>83.290000000000006</ele>
        <time>2026-07-02T08:55:19Z</time>
      </trkpt>
      <trkpt lat="53.058310998603702" lon="-9.003562023863196">
        <ele>84.730000000000004</ele>
        <time>2026-07-02T08:55:21Z</time>
      </trkpt>
      <trkpt lat="53.058596989139915" lon="-9.003264969214797">
        <ele>86.659999999999997</ele>
        <time>2026-07-02T08:55:24Z</time>
      </trkpt>
      <trkpt lat="53.059507012367249" lon="-9.002388976514339">
        <ele>89.540000000000006</ele>
        <time>2026-07-02T08:55:33Z</time>
      </trkpt>
      <trkpt lat="53.059609020128846" lon="-9.002328962087631">
        <ele>89.540000000000006</ele>
        <time>2026-07-02T08:55:34Z</time>
      </trkpt>
      <trkpt lat="53.059716979041696" lon="-9.002266013994813">
        <ele>89.540000000000006</ele>
        <time>2026-07-02T08:55:35Z</time>
      </trkpt>
      <trkpt lat="53.060853984206915" lon="-9.002050012350082">
        <ele>87.620000000000005</ele>
        <time>2026-07-02T08:55:45Z</time>
      </trkpt>
      <trkpt lat="53.060961021110415" lon="-9.001986980438232">
        <ele>87.620000000000005</ele>
        <time>2026-07-02T08:55:46Z</time>
      </trkpt>
      <trkpt lat="53.061033021658659" lon="-9.001870974898338">
        <ele>87.620000000000005</ele>
        <time>2026-07-02T08:55:47Z</time>
      </trkpt>
      <trkpt lat="53.061110973358154" lon="-9.001742983236909">
        <ele>88.099999999999994</ele>
        <time>2026-07-02T08:55:48Z</time>
      </trkpt>
      <trkpt lat="53.061191020533442" lon="-9.001611974090338">
        <ele>88.099999999999994</ele>
        <time>2026-07-02T08:55:49Z</time>
      </trkpt>
      <trkpt lat="53.061759984120727" lon="-9.000682001933456">
        <ele>89.060000000000002</ele>
        <time>2026-07-02T08:55:56Z</time>
      </trkpt>
      <trkpt lat="53.062346968799829" lon="-9.000146985054016">
        <ele>87.140000000000001</ele>
        <time>2026-07-02T08:56:03Z</time>
      </trkpt>
      <trkpt lat="53.062457023188472" lon="-9.000058975070715">
        <ele>86.180000000000007</ele>
        <time>2026-07-02T08:56:11Z</time>
      </trkpt>
      <trkpt lat="53.062608987092972" lon="-8.99993802420795">
        <ele>87.140000000000001</ele>
        <time>2026-07-02T08:56:57Z</time>
      </trkpt>
      <trkpt lat="53.062856001779437" lon="-8.999740965664387">
        <ele>87.620000000000005</ele>
        <time>2026-07-02T08:57:00Z</time>
      </trkpt>
      <trkpt lat="53.063061023131013" lon="-8.999600987881422">
        <ele>88.579999999999998</ele>
        <time>2026-07-02T08:57:02Z</time>
      </trkpt>
      <trkpt lat="53.063606014475226" lon="-8.999354979023337">
        <ele>90.5</ele>
        <time>2026-07-02T08:57:07Z</time>
      </trkpt>
      <trkpt lat="53.063706010580063" lon="-8.999282978475094">
        <ele>90.980000000000004</ele>
        <time>2026-07-02T08:57:08Z</time>
      </trkpt>
      <trkpt lat="53.063801983371377" lon="-8.999175019562244">
        <ele>90.980000000000004</ele>
        <time>2026-07-02T08:57:09Z</time>
      </trkpt>
      <trkpt lat="53.064841004088521" lon="-8.997971965000033">
        <ele>89.540000000000006</ele>
        <time>2026-07-02T08:57:18Z</time>
      </trkpt>
      <trkpt lat="53.065393958240747" lon="-8.997228993102908">
        <ele>90.980000000000004</ele>
        <time>2026-07-02T08:57:23Z</time>
      </trkpt>
      <trkpt lat="53.06548498570919" lon="-8.997091026976705">
        <ele>90.980000000000004</ele>
        <time>2026-07-02T08:57:24Z</time>
      </trkpt>
      <trkpt lat="53.065739963203669" lon="-8.996639996767044">
        <ele>91.939999999999998</ele>
        <time>2026-07-02T08:57:27Z</time>
      </trkpt>
      <trkpt lat="53.065834008157253" lon="-8.996489960700274">
        <ele>92.420000000000002</ele>
        <time>2026-07-02T08:57:28Z</time>
      </trkpt>
      <trkpt lat="53.065931992605329" lon="-8.996378984302282">
        <ele>92.420000000000002</ele>
        <time>2026-07-02T08:57:29Z</time>
      </trkpt>
      <trkpt lat="53.066184036433697" lon="-8.996120989322662">
        <ele>93.390000000000001</ele>
        <time>2026-07-02T08:57:33Z</time>
      </trkpt>
      <trkpt lat="53.06623600423336" lon="-8.996069021522999">
        <ele>93.870000000000005</ele>
        <time>2026-07-02T08:57:34Z</time>
      </trkpt>
      <trkpt lat="53.066743025556207" lon="-8.995562000200152">
        <ele>94.349999999999994</ele>
        <time>2026-07-02T08:57:41Z</time>
      </trkpt>
      <trkpt lat="53.066845033317804" lon="-8.995482036843896">
        <ele>93.870000000000005</ele>
        <time>2026-07-02T08:57:42Z</time>
      </trkpt>
      <trkpt lat="53.067323975265026" lon="-8.995156986638904">
        <ele>90.980000000000004</ele>
        <time>2026-07-02T08:57:46Z</time>
      </trkpt>
      <trkpt lat="53.067437969148159" lon="-8.995056990534067">
        <ele>90.5</ele>
        <time>2026-07-02T08:57:47Z</time>
      </trkpt>
      <trkpt lat="53.067542994394898" lon="-8.994947019964457">
        <ele>90.019999999999996</ele>
        <time>2026-07-02T08:57:48Z</time>
      </trkpt>
      <trkpt lat="53.068653009831905" lon="-8.993862988427281">
        <ele>87.620000000000005</ele>
        <time>2026-07-02T08:57:59Z</time>
      </trkpt>
      <trkpt lat="53.069048970937729" lon="-8.993541039526463">
        <ele>90.019999999999996</ele>
        <time>2026-07-02T08:58:03Z</time>
      </trkpt>
      <trkpt lat="53.069145027548075" lon="-8.993463004007936">
        <ele>90.980000000000004</ele>
        <time>2026-07-02T08:58:04Z</time>
      </trkpt>
      <trkpt lat="53.070038035511971" lon="-8.992778034880757">
        <ele>98.189999999999998</ele>
        <time>2026-07-02T08:58:13Z</time>
      </trkpt>
      <trkpt lat="53.070484036579728" lon="-8.992502018809319">
        <ele>98.670000000000002</ele>
        <time>2026-07-02T08:58:17Z</time>
      </trkpt>
      <trkpt lat="53.070589983835816" lon="-8.992435969412327">
        <ele>98.189999999999998</ele>
        <time>2026-07-02T08:58:18Z</time>
      </trkpt>
      <trkpt lat="53.0714560020715" lon="-8.991784024983645">
        <ele>97.709999999999994</ele>
        <time>2026-07-02T08:58:26Z</time>
      </trkpt>
      <trkpt lat="53.072536010295153" lon="-8.990977015346289">
        <ele>94.349999999999994</ele>
        <time>2026-07-02T08:58:36Z</time>
      </trkpt>
      <trkpt lat="53.073701011016965" lon="-8.990149972960353">
        <ele>91.939999999999998</ele>
        <time>2026-07-02T08:58:46Z</time>
      </trkpt>
      <trkpt lat="53.074425961822271" lon="-8.989578997716308">
        <ele>94.349999999999994</ele>
        <time>2026-07-02T08:58:53Z</time>
      </trkpt>
      <trkpt lat="53.075634967535734" lon="-8.988885981962085">
        <ele>100.11</ele>
        <time>2026-07-02T08:59:04Z</time>
      </trkpt>
      <trkpt lat="53.076526969671249" lon="-8.987949974834919">
        <ele>100.11</ele>
        <time>2026-07-02T08:59:13Z</time>
      </trkpt>
      <trkpt lat="53.076746994629502" lon="-8.987817959859967">
        <ele>99.629999999999995</ele>
        <time>2026-07-02T08:59:15Z</time>
      </trkpt>
      <trkpt lat="53.076863000169396" lon="-8.987760040909052">
        <ele>99.629999999999995</ele>
        <time>2026-07-02T08:59:16Z</time>
      </trkpt>
      <trkpt lat="53.077919036149979" lon="-8.987139025703073">
        <ele>94.349999999999994</ele>
        <time>2026-07-02T08:59:25Z</time>
      </trkpt>
      <trkpt lat="53.078581960871816" lon="-8.986714985221624">
        <ele>92.900000000000006</ele>
        <time>2026-07-02T08:59:32Z</time>
      </trkpt>
      <trkpt lat="53.0786760058254" lon="-8.986654970794916">
        <ele>92.900000000000006</ele>
        <time>2026-07-02T08:59:33Z</time>
      </trkpt>
      <trkpt lat="53.078771978616714" lon="-8.986593028530479">
        <ele>92.420000000000002</ele>
        <time>2026-07-02T08:59:34Z</time>
      </trkpt>
      <trkpt lat="53.079851986840367" lon="-8.985761040821672">
        <ele>94.349999999999994</ele>
        <time>2026-07-02T08:59:46Z</time>
      </trkpt>
      <trkpt lat="53.080849014222622" lon="-8.984852023422718">
        <ele>92.420000000000002</ele>
        <time>2026-07-02T08:59:56Z</time>
      </trkpt>
      <trkpt lat="53.081917036324739" lon="-8.984110979363322">
        <ele>85.689999999999998</ele>
        <time>2026-07-02T09:00:06Z</time>
      </trkpt>
      <trkpt lat="53.082445012405515" lon="-8.983914004638791">
        <ele>83.290000000000006</ele>
        <time>2026-07-02T09:00:11Z</time>
      </trkpt>
      <trkpt lat="53.082549031823874" lon="-8.983843009918928">
        <ele>82.810000000000002</ele>
        <time>2026-07-02T09:00:12Z</time>
      </trkpt>
      <trkpt lat="53.082659002393484" lon="-8.983767991885543">
        <ele>81.849999999999994</ele>
        <time>2026-07-02T09:00:13Z</time>
      </trkpt>
      <trkpt lat="53.082766961306334" lon="-8.983672019094229">
        <ele>81.370000000000005</ele>
        <time>2026-07-02T09:00:14Z</time>
      </trkpt>
      <trkpt lat="53.082867041230202" lon="-8.983556013554335">
        <ele>80.409999999999997</ele>
        <time>2026-07-02T09:00:15Z</time>
      </trkpt>
      <trkpt lat="53.082963014021516" lon="-8.983444031327963">
        <ele>79.930000000000007</ele>
        <time>2026-07-02T09:00:16Z</time>
      </trkpt>
      <trkpt lat="53.083914024755359" lon="-8.982484973967075">
        <ele>74.159999999999997</ele>
        <time>2026-07-02T09:00:25Z</time>
      </trkpt>
      <trkpt lat="53.085306007415056" lon="-8.981415024027228">
        <ele>70.310000000000002</ele>
        <time>2026-07-02T09:00:37Z</time>
      </trkpt>
      <trkpt lat="53.086224999278784" lon="-8.980828039348126">
        <ele>69.829999999999998</ele>
        <time>2026-07-02T09:00:45Z</time>
      </trkpt>
      <trkpt lat="53.086898988112807" lon="-8.980515981093049">
        <ele>68.870000000000005</ele>
        <time>2026-07-02T09:00:51Z</time>
      </trkpt>
      <trkpt lat="53.086991021409631" lon="-8.980466024950147">
        <ele>68.390000000000001</ele>
        <time>2026-07-02T09:00:52Z</time>
      </trkpt>
      <trkpt lat="53.087088000029325" lon="-8.980464013293386">
        <ele>67.909999999999997</ele>
        <time>2026-07-02T09:00:53Z</time>
      </trkpt>
      <trkpt lat="53.087168969213963" lon="-8.980493014678359">
        <ele>66.950000000000003</ele>
        <time>2026-07-02T09:00:54Z</time>
      </trkpt>
      <trkpt lat="53.087256979197264" lon="-8.980525033548474">
        <ele>65.989999999999995</ele>
        <time>2026-07-02T09:00:55Z</time>
      </trkpt>
      <trkpt lat="53.087347000837326" lon="-8.980524027720094">
        <ele>65.030000000000001</ele>
        <time>2026-07-02T09:00:56Z</time>
      </trkpt>
      <trkpt lat="53.087448002770543" lon="-8.980515981093049">
        <ele>64.069999999999993</ele>
        <time>2026-07-02T09:00:57Z</time>
      </trkpt>
      <trkpt lat="53.087546993046999" lon="-8.980508018285036">
        <ele>63.100000000000001</ele>
        <time>2026-07-02T09:00:58Z</time>
      </trkpt>
      <trkpt lat="53.087636008858681" lon="-8.980425959452987">
        <ele>62.140000000000001</ele>
        <time>2026-07-02T09:00:59Z</time>
      </trkpt>
      <trkpt lat="53.087731981649995" lon="-8.980337027460337">
        <ele>61.18</ele>
        <time>2026-07-02T09:01:00Z</time>
      </trkpt>
      <trkpt lat="53.087832983583212" lon="-8.980242982506752">
        <ele>60.700000000000003</ele>
        <time>2026-07-02T09:01:01Z</time>
      </trkpt>
      <trkpt lat="53.088046973571181" lon="-8.98004500195384">
        <ele>58.780000000000001</ele>
        <time>2026-07-02T09:01:03Z</time>
      </trkpt>
      <trkpt lat="53.088160967454314" lon="-8.979942994192243">
        <ele>58.299999999999997</ele>
        <time>2026-07-02T09:01:04Z</time>
      </trkpt>
      <trkpt lat="53.088288037106395" lon="-8.97987300530076">
        <ele>57.82</ele>
        <time>2026-07-02T09:01:05Z</time>
      </trkpt>
      <trkpt lat="53.089732993394136" lon="-8.979068007320166">
        <ele>52.049999999999997</ele>
        <time>2026-07-02T09:01:16Z</time>
      </trkpt>
      <trkpt lat="53.090941999107599" lon="-8.978484962135553">
        <ele>46.759999999999998</ele>
        <time>2026-07-02T09:01:25Z</time>
      </trkpt>
      <trkpt lat="53.091567037627101" lon="-8.978215986862779">
        <ele>43.399999999999999</ele>
        <time>2026-07-02T09:01:30Z</time>
      </trkpt>
      <trkpt lat="53.091682959347963" lon="-8.978167036548257">
        <ele>43.399999999999999</ele>
        <time>2026-07-02T09:01:31Z</time>
      </trkpt>
      <trkpt lat="53.091801982372999" lon="-8.978114984929562">
        <ele>42.920000000000002</ele>
        <time>2026-07-02T09:01:32Z</time>
      </trkpt>
      <trkpt lat="53.093038983643055" lon="-8.977421969175339">
        <ele>38.109999999999999</ele>
        <time>2026-07-02T09:01:42Z</time>
      </trkpt>
      <trkpt lat="53.094018995761871" lon="-8.976699030026794">
        <ele>34.259999999999998</ele>
        <time>2026-07-02T09:01:51Z</time>
      </trkpt>
      <trkpt lat="53.094734977930784" lon="-8.976167030632496">
        <ele>31.379999999999999</ele>
        <time>2026-07-02T09:01:58Z</time>
      </trkpt>
      <trkpt lat="53.095782967284322" lon="-8.975679036229849">
        <ele>30.899999999999999</ele>
        <time>2026-07-02T09:02:08Z</time>
      </trkpt>
      <trkpt lat="53.0973020195961" lon="-8.975423974916339">
        <ele>29.940000000000001</ele>
        <time>2026-07-02T09:02:21Z</time>
      </trkpt>
      <trkpt lat="53.099216027185321" lon="-8.975137984380126">
        <ele>27.530000000000001</ele>
        <time>2026-07-02T09:02:37Z</time>
      </trkpt>
      <trkpt lat="53.100115992128849" lon="-8.974410016089678">
        <ele>26.09</ele>
        <time>2026-07-02T09:02:45Z</time>
      </trkpt>
      <trkpt lat="53.100449005141854" lon="-8.974083960056305">
        <ele>26.57</ele>
        <time>2026-07-02T09:02:51Z</time>
      </trkpt>
      <trkpt lat="53.100580014288425" lon="-8.973955968394876">
        <ele>26.57</ele>
        <time>2026-07-02T09:02:58Z</time>
      </trkpt>
      <trkpt lat="53.101161969825625" lon="-8.973385998979211">
        <ele>26.09</ele>
        <time>2026-07-02T09:03:05Z</time>
      </trkpt>
      <trkpt lat="53.102488992735744" lon="-8.972085965797305">
        <ele>22.25</ele>
        <time>2026-07-02T09:03:17Z</time>
      </trkpt>
      <trkpt lat="53.102726032957435" lon="-8.971884967759252">
        <ele>20.809999999999999</ele>
        <time>2026-07-02T09:03:19Z</time>
      </trkpt>
      <trkpt lat="53.102852012962103" lon="-8.971840040758252">
        <ele>19.84</ele>
        <time>2026-07-02T09:03:20Z</time>
      </trkpt>
      <trkpt lat="53.103352999314666" lon="-8.971661003306508">
        <ele>18.399999999999999</ele>
        <time>2026-07-02T09:03:25Z</time>
      </trkpt>
      <trkpt lat="53.103594984859228" lon="-8.971548015251756">
        <ele>18.399999999999999</ele>
        <time>2026-07-02T09:03:26Z</time>
      </trkpt>
      <trkpt lat="53.103677965700626" lon="-8.971399990841746">
        <ele>18.399999999999999</ele>
        <time>2026-07-02T09:03:27Z</time>
      </trkpt>
      <trkpt lat="53.103766981512308" lon="-8.971238974481821">
        <ele>18.879999999999999</ele>
        <time>2026-07-02T09:03:28Z</time>
      </trkpt>
      <trkpt lat="53.103862032294273" lon="-8.971069995313883">
        <ele>18.879999999999999</ele>
        <time>2026-07-02T09:03:29Z</time>
      </trkpt>
      <trkpt lat="53.104811031371355" lon="-8.969685975462198">
        <ele>22.73</ele>
        <time>2026-07-02T09:03:38Z</time>
      </trkpt>
      <trkpt lat="53.106119027361274" lon="-8.968824986368418">
        <ele>21.77</ele>
        <time>2026-07-02T09:03:48Z</time>
      </trkpt>
      <trkpt lat="53.108355989679694" lon="-8.967425040900707">
        <ele>18.399999999999999</ele>
        <time>2026-07-02T09:04:04Z</time>
      </trkpt>
      <trkpt lat="53.109044982120395" lon="-8.967013992369175">
        <ele>17.440000000000001</ele>
        <time>2026-07-02T09:04:09Z</time>
      </trkpt>
      <trkpt lat="53.109190994873643" lon="-8.96698197349906">
        <ele>17.440000000000001</ele>
        <time>2026-07-02T09:04:10Z</time>
      </trkpt>
      <trkpt lat="53.109339019283652" lon="-8.966949032619596">
        <ele>16.960000000000001</ele>
        <time>2026-07-02T09:04:11Z</time>
      </trkpt>
      <trkpt lat="53.109487965703011" lon="-8.9669160079211">
        <ele>16.960000000000001</ele>
        <time>2026-07-02T09:04:12Z</time>
      </trkpt>
      <trkpt lat="53.10963599011302" lon="-8.966851970180869">
        <ele>16.48</ele>
        <time>2026-07-02T09:04:13Z</time>
      </trkpt>
      <trkpt lat="53.10978502035141" lon="-8.966772006824613">
        <ele>16.48</ele>
        <time>2026-07-02T09:04:14Z</time>
      </trkpt>
      <trkpt lat="53.111468022689223" lon="-8.965938007459045">
        <ele>16</ele>
        <time>2026-07-02T09:04:25Z</time>
      </trkpt>
      <trkpt lat="53.111995998769999" lon="-8.965489994734526">
        <ele>15.52</ele>
        <time>2026-07-02T09:04:29Z</time>
      </trkpt>
      <trkpt lat="53.11212700791657" lon="-8.965381029993296">
        <ele>15.039999999999999</ele>
        <time>2026-07-02T09:04:30Z</time>
      </trkpt>
      <trkpt lat="53.113271975889802" lon="-8.964748028665781">
        <ele>17.920000000000002</ele>
        <time>2026-07-02T09:04:38Z</time>
      </trkpt>
      <trkpt lat="53.113406002521515" lon="-8.964629005640745">
        <ele>17.920000000000002</ele>
        <time>2026-07-02T09:04:39Z</time>
      </trkpt>
      <trkpt lat="53.114321976900101" lon="-8.963892990723252">
        <ele>17.440000000000001</ele>
        <time>2026-07-02T09:04:46Z</time>
      </trkpt>
      <trkpt lat="53.114450974389911" lon="-8.963815961033106">
        <ele>16.960000000000001</ele>
        <time>2026-07-02T09:04:47Z</time>
      </trkpt>
      <trkpt lat="53.115597032010555" lon="-8.963462999090552">
        <ele>15.039999999999999</ele>
        <time>2026-07-02T09:04:55Z</time>
      </trkpt>
      <trkpt lat="53.11573700979352" lon="-8.963421005755663">
        <ele>15.52</ele>
        <time>2026-07-02T09:04:56Z</time>
      </trkpt>
      <trkpt lat="53.116145962849259" lon="-8.963388986885548">
        <ele>16.960000000000001</ele>
        <time>2026-07-02T09:04:59Z</time>
      </trkpt>
      <trkpt lat="53.117065960541368" lon="-8.963007023558021">
        <ele>20.809999999999999</ele>
        <time>2026-07-02T09:05:06Z</time>
      </trkpt>
      <trkpt lat="53.117175009101629" lon="-8.962911972776055">
        <ele>21.289999999999999</ele>
        <time>2026-07-02T09:05:07Z</time>
      </trkpt>
      <trkpt lat="53.117283973842859" lon="-8.962817005813122">
        <ele>21.77</ele>
        <time>2026-07-02T09:05:08Z</time>
      </trkpt>
      <trkpt lat="53.117394028231502" lon="-8.962721033021808">
        <ele>21.77</ele>
        <time>2026-07-02T09:05:09Z</time>
      </trkpt>
      <trkpt lat="53.117526965215802" lon="-8.962694965302944">
        <ele>21.77</ele>
        <time>2026-07-02T09:05:10Z</time>
      </trkpt>
      <trkpt lat="53.117663003504276" lon="-8.962668981403112">
        <ele>21.77</ele>
        <time>2026-07-02T09:05:11Z</time>
      </trkpt>
      <trkpt lat="53.117805998772383" lon="-8.9626419916749">
        <ele>21.289999999999999</ele>
        <time>2026-07-02T09:05:12Z</time>
      </trkpt>
      <trkpt lat="53.119253972545266" lon="-8.962176041677594">
        <ele>22.73</ele>
        <time>2026-07-02T09:05:22Z</time>
      </trkpt>
      <trkpt lat="53.120607985183597" lon="-8.961261995136738">
        <ele>19.359999999999999</ele>
        <time>2026-07-02T09:05:32Z</time>
      </trkpt>
      <trkpt lat="53.120738994330168" lon="-8.961143977940083">
        <ele>18.879999999999999</ele>
        <time>2026-07-02T09:05:33Z</time>
      </trkpt>
      <trkpt lat="53.12115197069943" lon="-8.96083602681756">
        <ele>17.920000000000002</ele>
        <time>2026-07-02T09:05:36Z</time>
      </trkpt>
      <trkpt lat="53.122461978346109" lon="-8.960005966946483">
        <ele>16.48</ele>
        <time>2026-07-02T09:05:46Z</time>
      </trkpt>
      <trkpt lat="53.124029980972409" lon="-8.959327032789588">
        <ele>20.809999999999999</ele>
        <time>2026-07-02T09:05:57Z</time>
      </trkpt>
      <trkpt lat="53.125093979761004" lon="-8.958700988441706">
        <ele>20.32</ele>
        <time>2026-07-02T09:06:05Z</time>
      </trkpt>
      <trkpt lat="53.125890009105206" lon="-8.957422999665141">
        <ele>18.879999999999999</ele>
        <time>2026-07-02T09:06:14Z</time>
      </trkpt>
      <trkpt lat="53.12598598189652" lon="-8.957286039367318">
        <ele>18.399999999999999</ele>
        <time>2026-07-02T09:06:15Z</time>
      </trkpt>
      <trkpt lat="53.127066995948553" lon="-8.956049038097262">
        <ele>17.920000000000002</ele>
        <time>2026-07-02T09:06:25Z</time>
      </trkpt>
      <trkpt lat="53.12849803827703" lon="-8.95512199960649">
        <ele>17.920000000000002</ele>
        <time>2026-07-02T09:06:37Z</time>
      </trkpt>
      <trkpt lat="53.128613037988544" lon="-8.95507799461484">
        <ele>17.920000000000002</ele>
        <time>2026-07-02T09:06:38Z</time>
      </trkpt>
      <trkpt lat="53.128741029649973" lon="-8.955070031806827">
        <ele>18.399999999999999</ele>
        <time>2026-07-02T09:06:39Z</time>
      </trkpt>
      <trkpt lat="53.130165031179786" lon="-8.955254014581442">
        <ele>11.67</ele>
        <time>2026-07-02T09:06:50Z</time>
      </trkpt>
      <trkpt lat="53.130392013117671" lon="-8.955303970724344">
        <ele>11.19</ele>
        <time>2026-07-02T09:06:52Z</time>
      </trkpt>
      <trkpt lat="53.130503995344043" lon="-8.955344958230853">
        <ele>11.19</ele>
        <time>2026-07-02T09:06:53Z</time>
      </trkpt>
      <trkpt lat="53.131475038826466" lon="-8.955925991758704">
        <ele>14.08</ele>
        <time>2026-07-02T09:07:02Z</time>
      </trkpt>
      <trkpt lat="53.132535014301538" lon="-8.956791004166007">
        <ele>13.6</ele>
        <time>2026-07-02T09:07:12Z</time>
      </trkpt>
      <trkpt lat="53.132757972925901" lon="-8.956891000270844">
        <ele>13.6</ele>
        <time>2026-07-02T09:07:14Z</time>
      </trkpt>
      <trkpt lat="53.132872972637415" lon="-8.956942968070507">
        <ele>13.6</ele>
        <time>2026-07-02T09:07:15Z</time>
      </trkpt>
      <trkpt lat="53.132985960692167" lon="-8.956971969455481">
        <ele>13.6</ele>
        <time>2026-07-02T09:07:16Z</time>
      </trkpt>
      <trkpt lat="53.13357001170516" lon="-8.957004994153976">
        <ele>14.56</ele>
        <time>2026-07-02T09:07:22Z</time>
      </trkpt>
      <trkpt lat="53.133641006425023" lon="-8.957010023295879">
        <ele>14.56</ele>
        <time>2026-07-02T09:07:23Z</time>
      </trkpt>
      <trkpt lat="53.133725998923182" lon="-8.956921007484198">
        <ele>15.039999999999999</ele>
        <time>2026-07-02T09:07:24Z</time>
      </trkpt>
      <trkpt lat="53.133778972551227" lon="-8.956812964752317">
        <ele>14.56</ele>
        <time>2026-07-02T09:07:25Z</time>
      </trkpt>
      <trkpt lat="53.133838986977935" lon="-8.956687990576029">
        <ele>15.039999999999999</ele>
        <time>2026-07-02T09:07:26Z</time>
      </trkpt>
      <trkpt lat="53.134176023304462" lon="-8.955935966223478">
        <ele>16.48</ele>
        <time>2026-07-02T09:07:32Z</time>
      </trkpt>
      <trkpt lat="53.13421399332583" lon="-8.955801017582417">
        <ele>16.48</ele>
        <time>2026-07-02T09:07:33Z</time>
      </trkpt>
      <trkpt lat="53.134222039952874" lon="-8.955650981515646">
        <ele>16.960000000000001</ele>
        <time>2026-07-02T09:07:34Z</time>
      </trkpt>
      <trkpt lat="53.134225979447365" lon="-8.955494994297624">
        <ele>16.960000000000001</ele>
        <time>2026-07-02T09:07:35Z</time>
      </trkpt>
      <trkpt lat="53.134231008589268" lon="-8.955332972109318">
        <ele>17.440000000000001</ele>
        <time>2026-07-02T09:07:36Z</time>
      </trkpt>
      <trkpt lat="53.134266966953874" lon="-8.95484296604991">
        <ele>17.920000000000002</ele>
        <time>2026-07-02T09:07:39Z</time>
      </trkpt>
      <trkpt lat="53.134292028844357" lon="-8.954683039337397">
        <ele>17.920000000000002</ele>
        <time>2026-07-02T09:07:40Z</time>
      </trkpt>
      <trkpt lat="53.134575001895428" lon="-8.9532720297575">
        <ele>17.920000000000002</ele>
        <time>2026-07-02T09:07:49Z</time>
      </trkpt>
      <trkpt lat="53.134638033807278" lon="-8.95314697176218">
        <ele>17.920000000000002</ele>
        <time>2026-07-02T09:07:50Z</time>
      </trkpt>
      <trkpt lat="53.134700981900096" lon="-8.953019985929132">
        <ele>17.440000000000001</ele>
        <time>2026-07-02T09:07:51Z</time>
      </trkpt>
      <trkpt lat="53.134797038510442" lon="-8.952947985380888">
        <ele>17.440000000000001</ele>
        <time>2026-07-02T09:07:52Z</time>
      </trkpt>
      <trkpt lat="53.134898962453008" lon="-8.952885959297419">
        <ele>16.960000000000001</ele>
        <time>2026-07-02T09:07:53Z</time>
      </trkpt>
      <trkpt lat="53.135005999356508" lon="-8.952820999547839">
        <ele>16.960000000000001</ele>
        <time>2026-07-02T09:07:54Z</time>
      </trkpt>
      <trkpt lat="53.136407034471631" lon="-8.952011978253722">
        <ele>15.039999999999999</ele>
        <time>2026-07-02T09:08:07Z</time>
      </trkpt>
      <trkpt lat="53.136656982824206" lon="-8.951781978830695">
        <ele>15.039999999999999</ele>
        <time>2026-07-02T09:08:09Z</time>
      </trkpt>
      <trkpt lat="53.137592989951372" lon="-8.950924007222056">
        <ele>12.630000000000001</ele>
        <time>2026-07-02T09:08:17Z</time>
      </trkpt>
      <trkpt lat="53.13829698599875" lon="-8.950364012271166">
        <ele>15.52</ele>
        <time>2026-07-02T09:08:26Z</time>
      </trkpt>
      <trkpt lat="53.138508964329958" lon="-8.950224034488201">
        <ele>18.399999999999999</ele>
        <time>2026-07-02T09:08:34Z</time>
      </trkpt>
      <trkpt lat="53.138520028442144" lon="-8.950216993689537">
        <ele>18.399999999999999</ele>
        <time>2026-07-02T09:08:42Z</time>
      </trkpt>
      <trkpt lat="53.138590017333627" lon="-8.950132001191378">
        <ele>18.399999999999999</ele>
        <time>2026-07-02T09:08:43Z</time>
      </trkpt>
      <trkpt lat="53.138579959049821" lon="-8.950056983157992">
        <ele>18.879999999999999</ele>
        <time>2026-07-02T09:08:44Z</time>
      </trkpt>
      <trkpt lat="53.138563027605414" lon="-8.94994399510324">
        <ele>19.359999999999999</ele>
        <time>2026-07-02T09:08:45Z</time>
      </trkpt>
      <trkpt lat="53.138542994856834" lon="-8.949804017320275">
        <ele>19.359999999999999</ele>
        <time>2026-07-02T09:08:46Z</time>
      </trkpt>
      <trkpt lat="53.138409974053502" lon="-8.948373980820179">
        <ele>20.809999999999999</ele>
        <time>2026-07-02T09:08:53Z</time>
      </trkpt>
      <trkpt lat="53.138541989028454" lon="-8.946604980155826">
        <ele>17.440000000000001</ele>
        <time>2026-07-02T09:09:01Z</time>
      </trkpt>
      <trkpt lat="53.13885304145515" lon="-8.944006003439426">
        <ele>18.879999999999999</ele>
        <time>2026-07-02T09:09:14Z</time>
      </trkpt>
      <trkpt lat="53.139052027836442" lon="-8.942200960591435">
        <ele>18.399999999999999</ele>
        <time>2026-07-02T09:09:25Z</time>
      </trkpt>
      <trkpt lat="53.139196028932929" lon="-8.940414022654295">
        <ele>12.630000000000001</ele>
        <time>2026-07-02T09:09:37Z</time>
      </trkpt>
      <trkpt lat="53.139196028932929" lon="-8.940252000465989">
        <ele>12.15</ele>
        <time>2026-07-02T09:09:38Z</time>
      </trkpt>
      <trkpt lat="53.139189993962646" lon="-8.94010397605598">
        <ele>12.15</ele>
        <time>2026-07-02T09:09:39Z</time>
      </trkpt>
      <trkpt lat="53.139169961214066" lon="-8.93995301797986">
        <ele>11.67</ele>
        <time>2026-07-02T09:09:40Z</time>
      </trkpt>
      <trkpt lat="53.139150012284517" lon="-8.939804993569851">
        <ele>11.19</ele>
        <time>2026-07-02T09:09:41Z</time>
      </trkpt>
      <trkpt lat="53.139129979535937" lon="-8.939667027443647">
        <ele>10.23</ele>
        <time>2026-07-02T09:09:42Z</time>
      </trkpt>
      <trkpt lat="53.139103995636106" lon="-8.939535012468696">
        <ele>9.75</ele>
        <time>2026-07-02T09:09:43Z</time>
      </trkpt>
      <trkpt lat="53.139079017564654" lon="-8.939409032464027">
        <ele>9.27</ele>
        <time>2026-07-02T09:09:44Z</time>
      </trkpt>
      <trkpt lat="53.139031995087862" lon="-8.939174003899097">
        <ele>8.789999999999999</ele>
        <time>2026-07-02T09:09:46Z</time>
      </trkpt>
      <trkpt lat="53.139009028673172" lon="-8.939061015844345">
        <ele>8.789999999999999</ele>
        <time>2026-07-02T09:09:47Z</time>
      </trkpt>
      <trkpt lat="53.138887993991375" lon="-8.938455004245043">
        <ele>9.75</ele>
        <time>2026-07-02T09:09:54Z</time>
      </trkpt>
      <trkpt lat="53.138881959021091" lon="-8.93842700868845">
        <ele>10.23</ele>
        <time>2026-07-02T09:10:08Z</time>
      </trkpt>
      <trkpt lat="53.138873996213078" lon="-8.938387027010322">
        <ele>10.710000000000001</ele>
        <time>2026-07-02T09:10:09Z</time>
      </trkpt>
      <trkpt lat="53.138865027576685" lon="-8.938306979835033">
        <ele>11.19</ele>
        <time>2026-07-02T09:10:10Z</time>
      </trkpt>
      <trkpt lat="53.13885597512126" lon="-8.938231039792299">
        <ele>11.67</ele>
        <time>2026-07-02T09:10:11Z</time>
      </trkpt>
      <trkpt lat="53.138848012313247" lon="-8.938163984566927">
        <ele>11.67</ele>
        <time>2026-07-02T09:10:12Z</time>
      </trkpt>
      <trkpt lat="53.138795960694551" lon="-8.937996011227369">
        <ele>13.119999999999999</ele>
        <time>2026-07-02T09:10:16Z</time>
      </trkpt>
      <trkpt lat="53.138775005936623" lon="-8.937981007620692">
        <ele>13.119999999999999</ele>
        <time>2026-07-02T09:10:17Z</time>
      </trkpt>
      <trkpt lat="53.138752961531281" lon="-8.937964998185635">
        <ele>13.6</ele>
        <time>2026-07-02T09:10:18Z</time>
      </trkpt>
      <trkpt lat="53.138708034530282" lon="-8.937931973487139">
        <ele>14.08</ele>
        <time>2026-07-02T09:10:30Z</time>
      </trkpt>
      <trkpt lat="53.138708034530282" lon="-8.937931973487139">
        <ele>13.6</ele>
        <time>2026-07-02T09:11:13Z</time>
      </trkpt>
      <trkpt lat="53.138734018430114" lon="-8.937783027067781">
        <ele>16.48</ele>
        <time>2026-07-02T10:18:10Z</time>
      </trkpt>
      <trkpt lat="53.13870401121676" lon="-8.937752014026046">
        <ele>15.52</ele>
        <time>2026-07-02T10:18:51Z</time>
      </trkpt>
      <trkpt lat="53.138753967359662" lon="-8.937776992097497">
        <ele>14.08</ele>
        <time>2026-07-02T10:19:48Z</time>
      </trkpt>
      <trkpt lat="53.138751033693552" lon="-8.937767017632723">
        <ele>14.08</ele>
        <time>2026-07-02T10:20:42Z</time>
      </trkpt>
      <trkpt lat="53.13874801620841" lon="-8.937764000147581">
        <ele>14.56</ele>
        <time>2026-07-02T10:21:35Z</time>
      </trkpt>
      <trkpt lat="53.138746004551649" lon="-8.937760982662439">
        <ele>15.039999999999999</ele>
        <time>2026-07-02T10:22:28Z</time>
      </trkpt>
      <trkpt lat="53.13874701038003" lon="-8.937755031511188">
        <ele>15.039999999999999</ele>
        <time>2026-07-02T10:23:20Z</time>
      </trkpt>
      <trkpt lat="53.13874701038003" lon="-8.937755031511188">
        <ele>15.039999999999999</ele>
        <time>2026-07-02T10:23:28Z</time>
      </trkpt>
      <trkpt lat="53.138830997049809" lon="-8.937723012641072">
        <ele>14.56</ele>
        <time>2026-07-02T10:23:30Z</time>
      </trkpt>
      <trkpt lat="53.138830997049809" lon="-8.937664004042745">
        <ele>14.08</ele>
        <time>2026-07-02T10:23:31Z</time>
      </trkpt>
      <trkpt lat="53.138830997049809" lon="-8.937570964917541">
        <ele>14.08</ele>
        <time>2026-07-02T10:23:32Z</time>
      </trkpt>
      <trkpt lat="53.138830997049809" lon="-8.937456971034408">
        <ele>14.08</ele>
        <time>2026-07-02T10:23:33Z</time>
      </trkpt>
      <trkpt lat="53.138830997049809" lon="-8.937342977151275">
        <ele>13.6</ele>
        <time>2026-07-02T10:23:34Z</time>
      </trkpt>
      <trkpt lat="53.138843988999724" lon="-8.937015999108553">
        <ele>12.15</ele>
        <time>2026-07-02T10:23:37Z</time>
      </trkpt>
      <trkpt lat="53.138896962627769" lon="-8.936473019421101">
        <ele>9.75</ele>
        <time>2026-07-02T10:23:42Z</time>
      </trkpt>
      <trkpt lat="53.138931998983026" lon="-8.936369000002742">
        <ele>9.75</ele>
        <time>2026-07-02T10:23:43Z</time>
      </trkpt>
      <trkpt lat="53.138967035338283" lon="-8.936262968927622">
        <ele>9.27</ele>
        <time>2026-07-02T10:23:44Z</time>
      </trkpt>
      <trkpt lat="53.139008022844791" lon="-8.936145035549998">
        <ele>9.27</ele>
        <time>2026-07-02T10:23:45Z</time>
      </trkpt>
      <trkpt lat="53.139065019786358" lon="-8.936040010303259">
        <ele>9.75</ele>
        <time>2026-07-02T10:23:46Z</time>
      </trkpt>
      <trkpt lat="53.139523006975651" lon="-8.935196036472917">
        <ele>12.630000000000001</ele>
        <time>2026-07-02T10:23:53Z</time>
      </trkpt>
      <trkpt lat="53.139943024143577" lon="-8.933880999684334">
        <ele>16</ele>
        <time>2026-07-02T10:24:01Z</time>
      </trkpt>
      <trkpt lat="53.139975965023041" lon="-8.93372300080955">
        <ele>16</ele>
        <time>2026-07-02T10:24:02Z</time>
      </trkpt>
      <trkpt lat="53.140077972784638" lon="-8.933025961741805">
        <ele>15.52</ele>
        <time>2026-07-02T10:24:06Z</time>
      </trkpt>
      <trkpt lat="53.140108985826373" lon="-8.932848013937473">
        <ele>15.039999999999999</ele>
        <time>2026-07-02T10:24:07Z</time>
      </trkpt>
      <trkpt lat="53.140156008303165" lon="-8.932677023112774">
        <ele>14.08</ele>
        <time>2026-07-02T10:24:08Z</time>
      </trkpt>
      <trkpt lat="53.140202024951577" lon="-8.932507038116455">
        <ele>13.6</ele>
        <time>2026-07-02T10:24:09Z</time>
      </trkpt>
      <trkpt lat="53.140246029943228" lon="-8.932341998443008">
        <ele>13.6</ele>
        <time>2026-07-02T10:24:10Z</time>
      </trkpt>
      <trkpt lat="53.140290034934878" lon="-8.932180982083082">
        <ele>13.119999999999999</ele>
        <time>2026-07-02T10:24:11Z</time>
      </trkpt>
      <trkpt lat="53.140317024663091" lon="-8.932023989036679">
        <ele>13.119999999999999</ele>
        <time>2026-07-02T10:24:12Z</time>
      </trkpt>
      <trkpt lat="53.140330016613007" lon="-8.931849980726838">
        <ele>12.630000000000001</ele>
        <time>2026-07-02T10:24:13Z</time>
      </trkpt>
      <trkpt lat="53.140342002734542" lon="-8.931672032922506">
        <ele>12.630000000000001</ele>
        <time>2026-07-02T10:24:14Z</time>
      </trkpt>
      <trkpt lat="53.140354994684458" lon="-8.931499030441046">
        <ele>12.630000000000001</ele>
        <time>2026-07-02T10:24:15Z</time>
      </trkpt>
      <trkpt lat="53.1403389852494" lon="-8.93131697550416">
        <ele>12.630000000000001</ele>
        <time>2026-07-02T10:24:16Z</time>
      </trkpt>
      <trkpt lat="53.140323981642723" lon="-8.931139027699828">
        <ele>12.630000000000001</ele>
        <time>2026-07-02T10:24:17Z</time>
      </trkpt>
      <trkpt lat="53.140291040763259" lon="-8.929458959028125">
        <ele>11.19</ele>
        <time>2026-07-02T10:24:26Z</time>
      </trkpt>
      <trkpt lat="53.140483992174268" lon="-8.927850974723697">
        <ele>10.710000000000001</ele>
        <time>2026-07-02T10:24:35Z</time>
      </trkpt>
      <trkpt lat="53.140568984672427" lon="-8.927561966702342">
        <ele>10.23</ele>
        <time>2026-07-02T10:24:37Z</time>
      </trkpt>
      <trkpt lat="53.140609972178936" lon="-8.927420983090997">
        <ele>10.23</ele>
        <time>2026-07-02T10:24:38Z</time>
      </trkpt>
      <trkpt lat="53.140652971342206" lon="-8.927275976166129">
        <ele>10.23</ele>
        <time>2026-07-02T10:24:39Z</time>
      </trkpt>
      <trkpt lat="53.140697982162237" lon="-8.927120994776487">
        <ele>10.23</ele>
        <time>2026-07-02T10:24:40Z</time>
      </trkpt>
      <trkpt lat="53.1407689768821" lon="-8.927024016156793">
        <ele>10.23</ele>
        <time>2026-07-02T10:24:41Z</time>
      </trkpt>
      <trkpt lat="53.140836032107472" lon="-8.926930977031589">
        <ele>10.23</ele>
        <time>2026-07-02T10:24:42Z</time>
      </trkpt>
      <trkpt lat="53.140903003513813" lon="-8.926840033382177">
        <ele>10.23</ele>
        <time>2026-07-02T10:24:43Z</time>
      </trkpt>
      <trkpt lat="53.141075000166893" lon="-8.926579020917416">
        <ele>10.710000000000001</ele>
        <time>2026-07-02T10:24:46Z</time>
      </trkpt>
      <trkpt lat="53.141124034300447" lon="-8.926477013155818">
        <ele>10.710000000000001</ele>
        <time>2026-07-02T10:24:47Z</time>
      </trkpt>
      <trkpt lat="53.141174996271729" lon="-8.926370982080698">
        <ele>10.710000000000001</ele>
        <time>2026-07-02T10:24:48Z</time>
      </trkpt>
      <trkpt lat="53.141225036233664" lon="-8.92626604065299">
        <ele>10.710000000000001</ele>
        <time>2026-07-02T10:24:49Z</time>
      </trkpt>
      <trkpt lat="53.141277004033327" lon="-8.926155986264348">
        <ele>10.710000000000001</ele>
        <time>2026-07-02T10:24:50Z</time>
      </trkpt>
      <trkpt lat="53.141355039551854" lon="-8.925984995439649">
        <ele>11.19</ele>
        <time>2026-07-02T10:24:52Z</time>
      </trkpt>
      <trkpt lat="53.141393009573221" lon="-8.925910983234644">
        <ele>11.19</ele>
        <time>2026-07-02T10:24:53Z</time>
      </trkpt>
      <trkpt lat="53.141507003456354" lon="-8.925797995179892">
        <ele>11.67</ele>
        <time>2026-07-02T10:24:56Z</time>
      </trkpt>
      <trkpt lat="53.141541033983231" lon="-8.925762958824635">
        <ele>12.15</ele>
        <time>2026-07-02T10:24:57Z</time>
      </trkpt>
      <trkpt lat="53.141574980691075" lon="-8.92573001794517">
        <ele>12.15</ele>
        <time>2026-07-02T10:24:58Z</time>
      </trkpt>
      <trkpt lat="53.142088036984205" lon="-8.925211010500789">
        <ele>12.15</ele>
        <time>2026-07-02T10:25:07Z</time>
      </trkpt>
      <trkpt lat="53.142822040244937" lon="-8.924246001988649">
        <ele>15.52</ele>
        <time>2026-07-02T10:25:16Z</time>
      </trkpt>
      <trkpt lat="53.142894962802529" lon="-8.92407501116395">
        <ele>16</ele>
        <time>2026-07-02T10:25:17Z</time>
      </trkpt>
      <trkpt lat="53.143176008015871" lon="-8.923413008451462">
        <ele>16.960000000000001</ele>
        <time>2026-07-02T10:25:22Z</time>
      </trkpt>
      <trkpt lat="53.143242979422212" lon="-8.923298008739948">
        <ele>17.440000000000001</ele>
        <time>2026-07-02T10:25:23Z</time>
      </trkpt>
      <trkpt lat="53.143869023770094" lon="-8.922138037160039">
        <ele>17.440000000000001</ele>
        <time>2026-07-02T10:25:33Z</time>
      </trkpt>
      <trkpt lat="53.144538989290595" lon="-8.920619990676642">
        <ele>11.67</ele>
        <time>2026-07-02T10:25:42Z</time>
      </trkpt>
      <trkpt lat="53.14568798057735" lon="-8.919245023280382">
        <ele>14.08</ele>
        <time>2026-07-02T10:25:52Z</time>
      </trkpt>
      <trkpt lat="53.146970998495817" lon="-8.918778989464045">
        <ele>17.440000000000001</ele>
        <time>2026-07-02T10:26:00Z</time>
      </trkpt>
      <trkpt lat="53.148808982223272" lon="-8.918791981413961">
        <ele>19.84</ele>
        <time>2026-07-02T10:26:10Z</time>
      </trkpt>
      <trkpt lat="53.150490978732705" lon="-8.918144982308149">
        <ele>22.73</ele>
        <time>2026-07-02T10:26:19Z</time>
      </trkpt>
      <trkpt lat="53.152828020974994" lon="-8.917797971516848">
        <ele>21.77</ele>
        <time>2026-07-02T10:26:31Z</time>
      </trkpt>
      <trkpt lat="53.154605990275741" lon="-8.917923029512167">
        <ele>21.289999999999999</ele>
        <time>2026-07-02T10:26:40Z</time>
      </trkpt>
      <trkpt lat="53.156595015898347" lon="-8.918624008074403">
        <ele>21.77</ele>
        <time>2026-07-02T10:26:50Z</time>
      </trkpt>
      <trkpt lat="53.158863997086883" lon="-8.919248040765524">
        <ele>26.57</ele>
        <time>2026-07-02T10:27:02Z</time>
      </trkpt>
      <trkpt lat="53.161464985460043" lon="-8.919223984703422">
        <ele>26.09</ele>
        <time>2026-07-02T10:27:15Z</time>
      </trkpt>
      <trkpt lat="53.164564026519656" lon="-8.918870016932488">
        <ele>28.5</ele>
        <time>2026-07-02T10:27:30Z</time>
      </trkpt>
      <trkpt lat="53.167303986847401" lon="-8.918948974460363">
        <ele>27.530000000000001</ele>
        <time>2026-07-02T10:27:43Z</time>
      </trkpt>
      <trkpt lat="53.1700100004673" lon="-8.918966995552182">
        <ele>20.32</ele>
        <time>2026-07-02T10:27:56Z</time>
      </trkpt>
      <trkpt lat="53.171890983358026" lon="-8.919103033840656">
        <ele>23.210000000000001</ele>
        <time>2026-07-02T10:28:05Z</time>
      </trkpt>
      <trkpt lat="53.174789026379585" lon="-8.918631970882416">
        <ele>25.609999999999999</ele>
        <time>2026-07-02T10:28:19Z</time>
      </trkpt>
      <trkpt lat="53.176767993718386" lon="-8.917575012892485">
        <ele>29.460000000000001</ele>
        <time>2026-07-02T10:28:29Z</time>
      </trkpt>
      <trkpt lat="53.178630033507943" lon="-8.915821015834808">
        <ele>27.530000000000001</ele>
        <time>2026-07-02T10:28:39Z</time>
      </trkpt>
      <trkpt lat="53.181333029642701" lon="-8.912971001118422">
        <ele>25.129999999999999</ele>
        <time>2026-07-02T10:28:54Z</time>
      </trkpt>
      <trkpt lat="53.18262099288404" lon="-8.912039017304778">
        <ele>26.57</ele>
        <time>2026-07-02T10:29:01Z</time>
      </trkpt>
      <trkpt lat="53.183230021968484" lon="-8.911624029278755">
        <ele>27.530000000000001</ele>
        <time>2026-07-02T10:29:06Z</time>
      </trkpt>
      <trkpt lat="53.184642037376761" lon="-8.910547038540244">
        <ele>26.57</ele>
        <time>2026-07-02T10:29:20Z</time>
      </trkpt>
      <trkpt lat="53.18577996455133" lon="-8.909557973966003">
        <ele>26.09</ele>
        <time>2026-07-02T10:29:31Z</time>
      </trkpt>
      <trkpt lat="53.18618799559772" lon="-8.909158995375037">
        <ele>26.09</ele>
        <time>2026-07-02T10:29:35Z</time>
      </trkpt>
      <trkpt lat="53.186572976410389" lon="-8.908686004579067">
        <ele>24.170000000000002</ele>
        <time>2026-07-02T10:29:39Z</time>
      </trkpt>
      <trkpt lat="53.186665009707212" lon="-8.908560024574399">
        <ele>23.690000000000001</ele>
        <time>2026-07-02T10:29:40Z</time>
      </trkpt>
      <trkpt lat="53.187616020441055" lon="-8.907081037759781">
        <ele>20.32</ele>
        <time>2026-07-02T10:29:51Z</time>
      </trkpt>
      <trkpt lat="53.188434010371566" lon="-8.905068961903453">
        <ele>19.359999999999999</ele>
        <time>2026-07-02T10:30:00Z</time>
      </trkpt>
      <trkpt lat="53.189355013892055" lon="-8.902643993496895">
        <ele>19.84</ele>
        <time>2026-07-02T10:30:09Z</time>
      </trkpt>
      <trkpt lat="53.190448014065623" lon="-8.899371027946472">
        <ele>20.32</ele>
        <time>2026-07-02T10:30:20Z</time>
      </trkpt>
      <trkpt lat="53.19145099259913" lon="-8.896263018250465">
        <ele>20.32</ele>
        <time>2026-07-02T10:30:30Z</time>
      </trkpt>
      <trkpt lat="53.192364033311605" lon="-8.894315985962749">
        <ele>21.289999999999999</ele>
        <time>2026-07-02T10:30:37Z</time>
      </trkpt>
      <trkpt lat="53.193584019318223" lon="-8.892925009131432">
        <ele>21.289999999999999</ele>
        <time>2026-07-02T10:30:44Z</time>
      </trkpt>
      <trkpt lat="53.195419991388917" lon="-8.891151985153556">
        <ele>21.77</ele>
        <time>2026-07-02T10:30:55Z</time>
      </trkpt>
      <trkpt lat="53.195893988013268" lon="-8.890689974650741">
        <ele>20.809999999999999</ele>
        <time>2026-07-02T10:30:58Z</time>
      </trkpt>
      <trkpt lat="53.196058021858335" lon="-8.890529964119196">
        <ele>19.359999999999999</ele>
        <time>2026-07-02T10:30:59Z</time>
      </trkpt>
      <trkpt lat="53.196219960227609" lon="-8.890371965244412">
        <ele>17.920000000000002</ele>
        <time>2026-07-02T10:31:00Z</time>
      </trkpt>
      <trkpt lat="53.197686038911343" lon="-8.888261988759041">
        <ele>14.08</ele>
        <time>2026-07-02T10:31:10Z</time>
      </trkpt>
      <trkpt lat="53.199140969663858" lon="-8.885571984574199">
        <ele>13.6</ele>
        <time>2026-07-02T10:31:21Z</time>
      </trkpt>
      <trkpt lat="53.200394986197352" lon="-8.882604958489537">
        <ele>15.039999999999999</ele>
        <time>2026-07-02T10:31:32Z</time>
      </trkpt>
      <trkpt lat="53.201456973329186" lon="-8.879426037892699">
        <ele>14.08</ele>
        <time>2026-07-02T10:31:43Z</time>
      </trkpt>
      <trkpt lat="53.202289966866374" lon="-8.877274990081787">
        <ele>13.6</ele>
        <time>2026-07-02T10:31:51Z</time>
      </trkpt>
      <trkpt lat="53.203304009512067" lon="-8.875818969681859">
        <ele>13.119999999999999</ele>
        <time>2026-07-02T10:31:58Z</time>
      </trkpt>
      <trkpt lat="53.204185031354427" lon="-8.874656986445189">
        <ele>12.630000000000001</ele>
        <time>2026-07-02T10:32:04Z</time>
      </trkpt>
      <trkpt lat="53.204296007752419" lon="-8.874432016164064">
        <ele>12.630000000000001</ele>
        <time>2026-07-02T10:32:05Z</time>
      </trkpt>
      <trkpt lat="53.204735973849893" lon="-8.873446974903345">
        <ele>13.119999999999999</ele>
        <time>2026-07-02T10:32:09Z</time>
      </trkpt>
      <trkpt lat="53.204862959682941" lon="-8.873232984915376">
        <ele>13.119999999999999</ele>
        <time>2026-07-02T10:32:10Z</time>
      </trkpt>
      <trkpt lat="53.206406990066171" lon="-8.870935002341867">
        <ele>12.630000000000001</ele>
        <time>2026-07-02T10:32:22Z</time>
      </trkpt>
      <trkpt lat="53.207260016351938" lon="-8.869379991665483">
        <ele>16.960000000000001</ele>
        <time>2026-07-02T10:32:31Z</time>
      </trkpt>
      <trkpt lat="53.207704005762935" lon="-8.86814801953733">
        <ele>17.440000000000001</ele>
        <time>2026-07-02T10:32:39Z</time>
      </trkpt>
      <trkpt lat="53.207823028787971" lon="-8.86787099763751">
        <ele>17.440000000000001</ele>
        <time>2026-07-02T10:32:46Z</time>
      </trkpt>
      <trkpt lat="53.207839038223028" lon="-8.867833027616143">
        <ele>17.440000000000001</ele>
        <time>2026-07-02T10:32:59Z</time>
      </trkpt>
      <trkpt lat="53.207870973274112" lon="-8.867730014026165">
        <ele>16.960000000000001</ele>
        <time>2026-07-02T10:33:08Z</time>
      </trkpt>
      <trkpt lat="53.207970969378948" lon="-8.867593975737691">
        <ele>16.48</ele>
        <time>2026-07-02T10:33:13Z</time>
      </trkpt>
      <trkpt lat="53.207995025441051" lon="-8.867615014314652">
        <ele>16.48</ele>
        <time>2026-07-02T10:33:14Z</time>
      </trkpt>
      <trkpt lat="53.20803701877594" lon="-8.867650972679257">
        <ele>16.48</ele>
        <time>2026-07-02T10:33:15Z</time>
      </trkpt>
      <trkpt lat="53.208098039031029" lon="-8.867703024297953">
        <ele>16.48</ele>
        <time>2026-07-02T10:33:16Z</time>
      </trkpt>
      <trkpt lat="53.20816601626575" lon="-8.86776203289628">
        <ele>16.48</ele>
        <time>2026-07-02T10:33:17Z</time>
      </trkpt>
      <trkpt lat="53.208243967965245" lon="-8.86782799847424">
        <ele>16.960000000000001</ele>
        <time>2026-07-02T10:33:18Z</time>
      </trkpt>
      <trkpt lat="53.208443960174918" lon="-8.867991026490927">
        <ele>17.440000000000001</ele>
        <time>2026-07-02T10:33:21Z</time>
      </trkpt>
      <trkpt lat="53.208484025672078" lon="-8.868023967370391">
        <ele>17.440000000000001</ele>
        <time>2026-07-02T10:33:22Z</time>
      </trkpt>
      <trkpt lat="53.208789965137839" lon="-8.868275005370379">
        <ele>18.399999999999999</ele>
        <time>2026-07-02T10:33:28Z</time>
      </trkpt>
      <trkpt lat="53.209689008072019" lon="-8.869011020287871">
        <ele>17.920000000000002</ele>
        <time>2026-07-02T10:33:39Z</time>
      </trkpt>
      <trkpt lat="53.210931960493326" lon="-8.870007963851094">
        <ele>18.879999999999999</ele>
        <time>2026-07-02T10:33:52Z</time>
      </trkpt>
      <trkpt lat="53.21196997538209" lon="-8.870617998763919">
        <ele>15.039999999999999</ele>
        <time>2026-07-02T10:34:02Z</time>
      </trkpt>
      <trkpt lat="53.213284006342292" lon="-8.871187968179584">
        <ele>11.67</ele>
        <time>2026-07-02T10:34:10Z</time>
      </trkpt>
      <trkpt lat="53.215373028069735" lon="-8.87162902392447">
        <ele>13.119999999999999</ele>
        <time>2026-07-02T10:34:22Z</time>
      </trkpt>
      <trkpt lat="53.217045972123742" lon="-8.872196981683374">
        <ele>13.6</ele>
        <time>2026-07-02T10:34:32Z</time>
      </trkpt>
      <trkpt lat="53.218937013298273" lon="-8.873337004333735">
        <ele>15.52</ele>
        <time>2026-07-02T10:34:43Z</time>
      </trkpt>
      <trkpt lat="53.220676006749272" lon="-8.874495970085263">
        <ele>13.119999999999999</ele>
        <time>2026-07-02T10:34:54Z</time>
      </trkpt>
      <trkpt lat="53.222364038228989" lon="-8.875627024099231">
        <ele>14.56</ele>
        <time>2026-07-02T10:35:06Z</time>
      </trkpt>
      <trkpt lat="53.223918965086341" lon="-8.876636037603021">
        <ele>16.48</ele>
        <time>2026-07-02T10:35:18Z</time>
      </trkpt>
      <trkpt lat="53.224912974983454" lon="-8.877270966768265">
        <ele>16.960000000000001</ele>
        <time>2026-07-02T10:35:26Z</time>
      </trkpt>
      <trkpt lat="53.226124998182058" lon="-8.878057021647692">
        <ele>15.52</ele>
        <time>2026-07-02T10:35:37Z</time>
      </trkpt>
      <trkpt lat="53.226308980956674" lon="-8.878235975280404">
        <ele>15.039999999999999</ele>
        <time>2026-07-02T10:35:40Z</time>
      </trkpt>
      <trkpt lat="53.226340999826789" lon="-8.878266988322139">
        <ele>14.56</ele>
        <time>2026-07-02T10:35:41Z</time>
      </trkpt>
      <trkpt lat="53.226360026746988" lon="-8.878287021070719">
        <ele>14.56</ele>
        <time>2026-07-02T10:35:42Z</time>
      </trkpt>
      <trkpt lat="53.226373018696904" lon="-8.878300013020635">
        <ele>14.56</ele>
        <time>2026-07-02T10:35:43Z</time>
      </trkpt>
      <trkpt lat="53.226385004818439" lon="-8.878310993313789">
        <ele>14.56</ele>
        <time>2026-07-02T10:35:44Z</time>
      </trkpt>
      <trkpt lat="53.226401014253497" lon="-8.878328008577228">
        <ele>14.56</ele>
        <time>2026-07-02T10:35:45Z</time>
      </trkpt>
      <trkpt lat="53.226430015638471" lon="-8.878357009962201">
        <ele>14.08</ele>
        <time>2026-07-02T10:35:46Z</time>
      </trkpt>
      <trkpt lat="53.226842992007732" lon="-8.878836035728455">
        <ele>13.119999999999999</ele>
        <time>2026-07-02T10:35:53Z</time>
      </trkpt>
      <trkpt lat="53.226985987275839" lon="-8.879053965210915">
        <ele>12.630000000000001</ele>
        <time>2026-07-02T10:35:55Z</time>
      </trkpt>
      <trkpt lat="53.227263009175658" lon="-8.879556963220239">
        <ele>11.67</ele>
        <time>2026-07-02T10:35:59Z</time>
      </trkpt>
      <trkpt lat="53.227340960875154" lon="-8.879694007337093">
        <ele>11.67</ele>
        <time>2026-07-02T10:36:00Z</time>
      </trkpt>
      <trkpt lat="53.227774975821376" lon="-8.88033002614975">
        <ele>11.67</ele>
        <time>2026-07-02T10:36:05Z</time>
      </trkpt>
      <trkpt lat="53.227873966097832" lon="-8.88041703030467">
        <ele>11.67</ele>
        <time>2026-07-02T10:36:06Z</time>
      </trkpt>
      <trkpt lat="53.227989971637726" lon="-8.880478972569108">
        <ele>11.67</ele>
        <time>2026-07-02T10:36:07Z</time>
      </trkpt>
      <trkpt lat="53.228102959692478" lon="-8.880538986995816">
        <ele>11.67</ele>
        <time>2026-07-02T10:36:08Z</time>
      </trkpt>
      <trkpt lat="53.228217959403992" lon="-8.880585003644228">
        <ele>11.67</ele>
        <time>2026-07-02T10:36:09Z</time>
      </trkpt>
      <trkpt lat="53.229693006724119" lon="-8.880643006414175">
        <ele>13.119999999999999</ele>
        <time>2026-07-02T10:36:21Z</time>
      </trkpt>
      <trkpt lat="53.231171993538737" lon="-8.880505040287972">
        <ele>10.23</ele>
        <time>2026-07-02T10:36:33Z</time>
      </trkpt>
      <trkpt lat="53.231869032606483" lon="-8.880658010020852">
        <ele>10.710000000000001</ele>
        <time>2026-07-02T10:36:39Z</time>
      </trkpt>
      <trkpt lat="53.233178034424782" lon="-8.881445992738009">
        <ele>16.960000000000001</ele>
        <time>2026-07-02T10:36:50Z</time>
      </trkpt>
      <trkpt lat="53.234059978276491" lon="-8.881828039884567">
        <ele>20.809999999999999</ele>
        <time>2026-07-02T10:36:56Z</time>
      </trkpt>
      <trkpt lat="53.235538965091109" lon="-8.881978997960687">
        <ele>17.440000000000001</ele>
        <time>2026-07-02T10:37:04Z</time>
      </trkpt>
      <trkpt lat="53.236878979951143" lon="-8.882922967895865">
        <ele>16</ele>
        <time>2026-07-02T10:37:11Z</time>
      </trkpt>
      <trkpt lat="53.23824598453939" lon="-8.884950969368219">
        <ele>21.289999999999999</ele>
        <time>2026-07-02T10:37:20Z</time>
      </trkpt>
      <trkpt lat="53.239737963303924" lon="-8.88783099129796">
        <ele>20.809999999999999</ele>
        <time>2026-07-02T10:37:32Z</time>
      </trkpt>
      <trkpt lat="53.241537977010012" lon="-8.891313001513481">
        <ele>19.84</ele>
        <time>2026-07-02T10:37:46Z</time>
      </trkpt>
      <trkpt lat="53.243246963247657" lon="-8.894052961841226">
        <ele>16.960000000000001</ele>
        <time>2026-07-02T10:37:57Z</time>
      </trkpt>
      <trkpt lat="53.245730018243194" lon="-8.897966975346208">
        <ele>18.399999999999999</ele>
        <time>2026-07-02T10:38:13Z</time>
      </trkpt>
      <trkpt lat="53.247513016685843" lon="-8.900187006220222">
        <ele>22.73</ele>
        <time>2026-07-02T10:38:24Z</time>
      </trkpt>
      <trkpt lat="53.249240024015307" lon="-8.901487961411476">
        <ele>21.77</ele>
        <time>2026-07-02T10:38:33Z</time>
      </trkpt>
      <trkpt lat="53.250687997788191" lon="-8.903117990121245">
        <ele>20.809999999999999</ele>
        <time>2026-07-02T10:38:41Z</time>
      </trkpt>
      <trkpt lat="53.252488011494279" lon="-8.905618982389569">
        <ele>23.210000000000001</ele>
        <time>2026-07-02T10:38:52Z</time>
      </trkpt>
      <trkpt lat="53.254103036597371" lon="-8.908694973215461">
        <ele>23.210000000000001</ele>
        <time>2026-07-02T10:39:03Z</time>
      </trkpt>
      <trkpt lat="53.255618987604976" lon="-8.912493987008929">
        <ele>21.77</ele>
        <time>2026-07-02T10:39:15Z</time>
      </trkpt>
      <trkpt lat="53.257210962474346" lon="-8.916343962773681">
        <ele>26.57</ele>
        <time>2026-07-02T10:39:27Z</time>
      </trkpt>
      <trkpt lat="53.25816297903657" lon="-8.918139031156898">
        <ele>24.170000000000002</ele>
        <time>2026-07-02T10:39:34Z</time>
      </trkpt>
      <trkpt lat="53.259104015305638" lon="-8.919545011594892">
        <ele>22.73</ele>
        <time>2026-07-02T10:39:42Z</time>
      </trkpt>
      <trkpt lat="53.260104982182384" lon="-8.920807996764779">
        <ele>19.359999999999999</ele>
        <time>2026-07-02T10:39:51Z</time>
      </trkpt>
      <trkpt lat="53.260660031810403" lon="-8.921405961737037">
        <ele>15.52</ele>
        <time>2026-07-02T10:39:59Z</time>
      </trkpt>
      <trkpt lat="53.260704036802053" lon="-8.921476034447551">
        <ele>15.52</ele>
        <time>2026-07-02T10:40:00Z</time>
      </trkpt>
      <trkpt lat="53.260888019576669" lon="-8.921855986118317">
        <ele>15.039999999999999</ele>
        <time>2026-07-02T10:40:05Z</time>
      </trkpt>
      <trkpt lat="53.260953985154629" lon="-8.921966040506959">
        <ele>15.039999999999999</ele>
        <time>2026-07-02T10:40:06Z</time>
      </trkpt>
      <trkpt lat="53.261033026501536" lon="-8.921981966122985">
        <ele>15.039999999999999</ele>
        <time>2026-07-02T10:40:07Z</time>
      </trkpt>
      <trkpt lat="53.261095974594355" lon="-8.921966040506959">
        <ele>15.039999999999999</ele>
        <time>2026-07-02T10:40:08Z</time>
      </trkpt>
      <trkpt lat="53.261160012334585" lon="-8.921950031071901">
        <ele>15.039999999999999</ele>
        <time>2026-07-02T10:40:09Z</time>
      </trkpt>
      <trkpt lat="53.261237964034081" lon="-8.921979032456875">
        <ele>14.56</ele>
        <time>2026-07-02T10:40:11Z</time>
      </trkpt>
      <trkpt lat="53.2622230052948" lon="-8.922416986897588">
        <ele>10.23</ele>
        <time>2026-07-02T10:40:20Z</time>
      </trkpt>
      <trkpt lat="53.263666033744812" lon="-8.922686967998743">
        <ele>9.27</ele>
        <time>2026-07-02T10:40:31Z</time>
      </trkpt>
      <trkpt lat="53.265070002526045" lon="-8.922384968027473">
        <ele>8.789999999999999</ele>
        <time>2026-07-02T10:40:40Z</time>
      </trkpt>
      <trkpt lat="53.266393002122641" lon="-8.921438986435533">
        <ele>8.310000000000001</ele>
        <time>2026-07-02T10:40:48Z</time>
      </trkpt>
      <trkpt lat="53.268594006076455" lon="-8.919278969988227">
        <ele>7.83</ele>
        <time>2026-07-02T10:41:02Z</time>
      </trkpt>
      <trkpt lat="53.269929997622967" lon="-8.918458968400955">
        <ele>8.789999999999999</ele>
        <time>2026-07-02T10:41:10Z</time>
      </trkpt>
      <trkpt lat="53.270767014473677" lon="-8.918152023106813">
        <ele>10.23</ele>
        <time>2026-07-02T10:41:18Z</time>
      </trkpt>
      <trkpt lat="53.271217038854957" lon="-8.918058983981609">
        <ele>10.23</ele>
        <time>2026-07-02T10:41:23Z</time>
      </trkpt>
      <trkpt lat="53.271260960027575" lon="-8.918079016730189">
        <ele>10.23</ele>
        <time>2026-07-02T10:41:24Z</time>
      </trkpt>
      <trkpt lat="53.271299013867974" lon="-8.918097037822008">
        <ele>10.710000000000001</ele>
        <time>2026-07-02T10:41:25Z</time>
      </trkpt>
      <trkpt lat="53.27141703106463" lon="-8.918152023106813">
        <ele>11.19</ele>
        <time>2026-07-02T10:41:27Z</time>
      </trkpt>
      <trkpt lat="53.271602019667625" lon="-8.918391996994615">
        <ele>11.67</ele>
        <time>2026-07-02T10:41:29Z</time>
      </trkpt>
      <trkpt lat="53.271711990237236" lon="-8.91840398311615">
        <ele>12.15</ele>
        <time>2026-07-02T10:41:30Z</time>
      </trkpt>
      <trkpt lat="53.271837970241904" lon="-8.918352015316486">
        <ele>12.15</ele>
        <time>2026-07-02T10:41:31Z</time>
      </trkpt>
      <trkpt lat="53.271938972175121" lon="-8.918358972296119">
        <ele>12.15</ele>
        <time>2026-07-02T10:41:32Z</time>
      </trkpt>
      <trkpt lat="53.272055983543396" lon="-8.918376993387938">
        <ele>11.67</ele>
        <time>2026-07-02T10:41:33Z</time>
      </trkpt>
      <trkpt lat="53.272176012396812" lon="-8.91842401586473">
        <ele>11.67</ele>
        <time>2026-07-02T10:41:34Z</time>
      </trkpt>
      <trkpt lat="53.272307021543384" lon="-8.918517976999283">
        <ele>11.67</ele>
        <time>2026-07-02T10:41:35Z</time>
      </trkpt>
      <trkpt lat="53.273440003395081" lon="-8.919428000226617">
        <ele>11.19</ele>
        <time>2026-07-02T10:41:42Z</time>
      </trkpt>
      <trkpt lat="53.274784041568637" lon="-8.921057023108006">
        <ele>10.23</ele>
        <time>2026-07-02T10:41:50Z</time>
      </trkpt>
      <trkpt lat="53.275850974023342" lon="-8.923154007643461">
        <ele>12.15</ele>
        <time>2026-07-02T10:41:59Z</time>
      </trkpt>
      <trkpt lat="53.276437958702445" lon="-8.924960978329182">
        <ele>13.6</ele>
        <time>2026-07-02T10:42:07Z</time>
      </trkpt>
      <trkpt lat="53.276676004752517" lon="-8.925809981301427">
        <ele>13.6</ele>
        <time>2026-07-02T10:42:13Z</time>
      </trkpt>
      <trkpt lat="53.27676703222096" lon="-8.926205020397902">
        <ele>13.6</ele>
        <time>2026-07-02T10:42:18Z</time>
      </trkpt>
      <trkpt lat="53.276773989200592" lon="-8.926329994574189">
        <ele>13.6</ele>
        <time>2026-07-02T10:42:19Z</time>
      </trkpt>
      <trkpt lat="53.276781029999256" lon="-8.926457986235619">
        <ele>14.08</ele>
        <time>2026-07-02T10:42:20Z</time>
      </trkpt>
      <trkpt lat="53.276759991422296" lon="-8.926570974290371">
        <ele>14.08</ele>
        <time>2026-07-02T10:42:21Z</time>
      </trkpt>
      <trkpt lat="53.276749011129141" lon="-8.926669964566827">
        <ele>14.08</ele>
        <time>2026-07-02T10:42:22Z</time>
      </trkpt>
      <trkpt lat="53.27672797255218" lon="-8.926850007846952">
        <ele>14.08</ele>
        <time>2026-07-02T10:42:24Z</time>
      </trkpt>
      <trkpt lat="53.276740964502096" lon="-8.926981016993523">
        <ele>14.08</ele>
        <time>2026-07-02T10:42:25Z</time>
      </trkpt>
      <trkpt lat="53.276782035827637" lon="-8.927077995613217">
        <ele>15.039999999999999</ele>
        <time>2026-07-02T10:42:26Z</time>
      </trkpt>
      <trkpt lat="53.276870967820287" lon="-8.927325010299683">
        <ele>15.52</ele>
        <time>2026-07-02T10:42:29Z</time>
      </trkpt>
      <trkpt lat="53.276910027489066" lon="-8.927660034969449">
        <ele>16</ele>
        <time>2026-07-02T10:42:30Z</time>
      </trkpt>
      <trkpt lat="53.276908015832305" lon="-8.927858015522361">
        <ele>16</ele>
        <time>2026-07-02T10:42:31Z</time>
      </trkpt>
      <trkpt lat="53.276892006397247" lon="-8.929738998413086">
        <ele>16</ele>
        <time>2026-07-02T10:42:38Z</time>
      </trkpt>
      <trkpt lat="53.277013041079044" lon="-8.932618014514446">
        <ele>18.879999999999999</ele>
        <time>2026-07-02T10:42:46Z</time>
      </trkpt>
      <trkpt lat="53.27752199023962" lon="-8.936358019709587">
        <ele>26.57</ele>
        <time>2026-07-02T10:42:56Z</time>
      </trkpt>
      <trkpt lat="53.278028005734086" lon="-8.940197015181184">
        <ele>29.460000000000001</ele>
        <time>2026-07-02T10:43:07Z</time>
      </trkpt>
      <trkpt lat="53.278191033750772" lon="-8.944191997870803">
        <ele>24.649999999999999</ele>
        <time>2026-07-02T10:43:19Z</time>
      </trkpt>
      <trkpt lat="53.278246019035578" lon="-8.94553997553885">
        <ele>23.210000000000001</ele>
        <time>2026-07-02T10:43:23Z</time>
      </trkpt>
      <trkpt lat="53.278258005157113" lon="-8.945878017693758">
        <ele>22.73</ele>
        <time>2026-07-02T10:43:24Z</time>
      </trkpt>
      <trkpt lat="53.278471995145082" lon="-8.951918017119169">
        <ele>26.57</ele>
        <time>2026-07-02T10:43:41Z</time>
      </trkpt>
      <trkpt lat="53.278644997626543" lon="-8.956965012475848">
        <ele>31.379999999999999</ele>
        <time>2026-07-02T10:43:54Z</time>
      </trkpt>
      <trkpt lat="53.278841972351074" lon="-8.96236002445221">
        <ele>44.359999999999999</ele>
        <time>2026-07-02T10:44:08Z</time>
      </trkpt>
      <trkpt lat="53.279042970389128" lon="-8.967580022290349">
        <ele>51.57</ele>
        <time>2026-07-02T10:44:22Z</time>
      </trkpt>
      <trkpt lat="53.279129974544048" lon="-8.969846991822124">
        <ele>48.68</ele>
        <time>2026-07-02T10:44:31Z</time>
      </trkpt>
      <trkpt lat="53.279266012832522" lon="-8.971981024369597">
        <ele>44.359999999999999</ele>
        <time>2026-07-02T10:44:42Z</time>
      </trkpt>
      <trkpt lat="53.279296020045877" lon="-8.972148997709155">
        <ele>44.359999999999999</ele>
        <time>2026-07-02T10:44:43Z</time>
      </trkpt>
      <trkpt lat="53.27932502143085" lon="-8.972312025725842">
        <ele>44.359999999999999</ele>
        <time>2026-07-02T10:44:44Z</time>
      </trkpt>
      <trkpt lat="53.279377995058894" lon="-8.972603967413306">
        <ele>43.880000000000003</ele>
        <time>2026-07-02T10:44:46Z</time>
      </trkpt>
      <trkpt lat="53.279379000887275" lon="-8.972612014040351">
        <ele>43.880000000000003</ele>
        <time>2026-07-02T10:44:47Z</time>
      </trkpt>
      <trkpt lat="53.279387969523668" lon="-8.972877971827984">
        <ele>43.399999999999999</ele>
        <time>2026-07-02T10:44:48Z</time>
      </trkpt>
      <trkpt lat="53.279342036694288" lon="-8.972958019003272">
        <ele>43.399999999999999</ele>
        <time>2026-07-02T10:44:49Z</time>
      </trkpt>
      <trkpt lat="53.279285039752722" lon="-8.973054997622967">
        <ele>42.920000000000002</ele>
        <time>2026-07-02T10:44:50Z</time>
      </trkpt>
      <trkpt lat="53.278806013986468" lon="-8.97387801669538">
        <ele>40.030000000000001</ele>
        <time>2026-07-02T10:44:56Z</time>
      </trkpt>
      <trkpt lat="53.27840100042522" lon="-8.974632974714041">
        <ele>36.189999999999998</ele>
        <time>2026-07-02T10:45:04Z</time>
      </trkpt>
      <trkpt lat="53.27835900709033" lon="-8.97471503354609">
        <ele>34.259999999999998</ele>
        <time>2026-07-02T10:45:13Z</time>
      </trkpt>
      <trkpt lat="53.278211988508701" lon="-8.975019967183471">
        <ele>32.340000000000003</ele>
        <time>2026-07-02T10:45:28Z</time>
      </trkpt>
      <trkpt lat="53.277660962194204" lon="-8.976183962076902">
        <ele>28.5</ele>
        <time>2026-07-02T10:45:36Z</time>
      </trkpt>
      <trkpt lat="53.276976998895407" lon="-8.977536968886852">
        <ele>24.649999999999999</ele>
        <time>2026-07-02T10:45:43Z</time>
      </trkpt>
      <trkpt lat="53.276196978986263" lon="-8.979407977312803">
        <ele>18.399999999999999</ele>
        <time>2026-07-02T10:45:52Z</time>
      </trkpt>
      <trkpt lat="53.275764975696802" lon="-8.981000036001205">
        <ele>16.960000000000001</ele>
        <time>2026-07-02T10:45:59Z</time>
      </trkpt>
      <trkpt lat="53.275493988767266" lon="-8.983405977487564">
        <ele>16.48</ele>
        <time>2026-07-02T10:46:09Z</time>
      </trkpt>
      <trkpt lat="53.275227025151253" lon="-8.986034961417317">
        <ele>19.359999999999999</ele>
        <time>2026-07-02T10:46:20Z</time>
      </trkpt>
      <trkpt lat="53.274722015485168" lon="-8.989105001091957">
        <ele>21.289999999999999</ele>
        <time>2026-07-02T10:46:32Z</time>
      </trkpt>
      <trkpt lat="53.274252964183688" lon="-8.99229004047811">
        <ele>20.32</ele>
        <time>2026-07-02T10:46:45Z</time>
      </trkpt>
      <trkpt lat="53.274133019149303" lon="-8.994471011683345">
        <ele>25.129999999999999</ele>
        <time>2026-07-02T10:46:54Z</time>
      </trkpt>
      <trkpt lat="53.274297975003719" lon="-8.996476968750358">
        <ele>28.02</ele>
        <time>2026-07-02T10:47:04Z</time>
      </trkpt>
      <trkpt lat="53.274477012455463" lon="-8.997590001672506">
        <ele>26.57</ele>
        <time>2026-07-02T10:47:12Z</time>
      </trkpt>
      <trkpt lat="53.274501990526915" lon="-8.9977250341326">
        <ele>25.609999999999999</ele>
        <time>2026-07-02T10:47:20Z</time>
      </trkpt>
      <trkpt lat="53.274611039087176" lon="-8.998191989958286">
        <ele>24.649999999999999</ele>
        <time>2026-07-02T10:47:28Z</time>
      </trkpt>
      <trkpt lat="53.27498403377831" lon="-8.999529993161559">
        <ele>24.649999999999999</ele>
        <time>2026-07-02T10:47:35Z</time>
      </trkpt>
      <trkpt lat="53.2757150195539" lon="-9.001837028190494">
        <ele>19.359999999999999</ele>
        <time>2026-07-02T10:47:46Z</time>
      </trkpt>
      <trkpt lat="53.27629404142499" lon="-9.004038032144308">
        <ele>20.32</ele>
        <time>2026-07-02T10:47:56Z</time>
      </trkpt>
      <trkpt lat="53.276894018054008" lon="-9.0069430321455">
        <ele>24.170000000000002</ele>
        <time>2026-07-02T10:48:10Z</time>
      </trkpt>
      <trkpt lat="53.276932993903756" lon="-9.007777031511068">
        <ele>27.530000000000001</ele>
        <time>2026-07-02T10:48:16Z</time>
      </trkpt>
      <trkpt lat="53.276913966983557" lon="-9.007863029837608">
        <ele>29.460000000000001</ele>
        <time>2026-07-02T10:48:24Z</time>
      </trkpt>
      <trkpt lat="53.276894018054008" lon="-9.007948022335768">
        <ele>29.940000000000001</ele>
        <time>2026-07-02T10:48:25Z</time>
      </trkpt>
      <trkpt lat="53.276868034154177" lon="-9.00806000456214">
        <ele>29.940000000000001</ele>
        <time>2026-07-02T10:48:26Z</time>
      </trkpt>
      <trkpt lat="53.276809025555849" lon="-9.008268965408206">
        <ele>29.940000000000001</ele>
        <time>2026-07-02T10:48:28Z</time>
      </trkpt>
      <trkpt lat="53.276821011677384" lon="-9.008450014516711">
        <ele>30.420000000000002</ele>
        <time>2026-07-02T10:48:29Z</time>
      </trkpt>
      <trkpt lat="53.276860993355513" lon="-9.008541963994503">
        <ele>30.899999999999999</ele>
        <time>2026-07-02T10:48:30Z</time>
      </trkpt>
      <trkpt lat="53.276900975033641" lon="-9.008636008948088">
        <ele>31.379999999999999</ele>
        <time>2026-07-02T10:48:32Z</time>
      </trkpt>
      <trkpt lat="53.277000971138477" lon="-9.009019983932376">
        <ele>31.859999999999999</ele>
        <time>2026-07-02T10:48:35Z</time>
      </trkpt>
      <trkpt lat="53.27702603302896" lon="-9.009117968380451">
        <ele>32.340000000000003</ele>
        <time>2026-07-02T10:48:36Z</time>
      </trkpt>
      <trkpt lat="53.27704899944365" lon="-9.009211007505655">
        <ele>32.340000000000003</ele>
        <time>2026-07-02T10:48:37Z</time>
      </trkpt>
      <trkpt lat="53.277067020535469" lon="-9.009305974468589">
        <ele>32.82</ele>
        <time>2026-07-02T10:48:38Z</time>
      </trkpt>
      <trkpt lat="53.277079006657004" lon="-9.009406976401806">
        <ele>32.82</ele>
        <time>2026-07-02T10:48:39Z</time>
      </trkpt>
      <trkpt lat="53.277089986950159" lon="-9.009505966678262">
        <ele>32.82</ele>
        <time>2026-07-02T10:48:40Z</time>
      </trkpt>
      <trkpt lat="53.277122005820274" lon="-9.009830011054874">
        <ele>33.299999999999997</ele>
        <time>2026-07-02T10:48:43Z</time>
      </trkpt>
      <trkpt lat="53.277130974456668" lon="-9.009945010766387">
        <ele>33.299999999999997</ele>
        <time>2026-07-02T10:48:44Z</time>
      </trkpt>
      <trkpt lat="53.277161987498403" lon="-9.010311970487237">
        <ele>33.780000000000001</ele>
        <time>2026-07-02T10:48:47Z</time>
      </trkpt>
      <trkpt lat="53.277171961963177" lon="-9.010427976027131">
        <ele>34.259999999999998</ele>
        <time>2026-07-02T10:48:48Z</time>
      </trkpt>
      <trkpt lat="53.277183026075363" lon="-9.010543981567025">
        <ele>34.740000000000002</ele>
        <time>2026-07-02T10:48:49Z</time>
      </trkpt>
      <trkpt lat="53.277195012196898" lon="-9.010657975450158">
        <ele>34.740000000000002</ele>
        <time>2026-07-02T10:48:50Z</time>
      </trkpt>
      <trkpt lat="53.277205992490053" lon="-9.010770963504911">
        <ele>35.229999999999997</ele>
        <time>2026-07-02T10:48:51Z</time>
      </trkpt>
      <trkpt lat="53.277215966954827" lon="-9.010880012065172">
        <ele>35.229999999999997</ele>
        <time>2026-07-02T10:48:52Z</time>
      </trkpt>
      <trkpt lat="53.277270030230284" lon="-9.011425003409386">
        <ele>34.259999999999998</ele>
        <time>2026-07-02T10:48:58Z</time>
      </trkpt>
      <trkpt lat="53.277335995808244" lon="-9.012092035263777">
        <ele>34.259999999999998</ele>
        <time>2026-07-02T10:49:06Z</time>
      </trkpt>
      <trkpt lat="53.277343958616257" lon="-9.01216403581202">
        <ele>34.259999999999998</ele>
        <time>2026-07-02T10:49:07Z</time>
      </trkpt>
      <trkpt lat="53.277438003569841" lon="-9.012807011604309">
        <ele>35.710000000000001</ele>
        <time>2026-07-02T10:49:20Z</time>
      </trkpt>
      <trkpt lat="53.27747798524797" lon="-9.013082021847367">
        <ele>35.229999999999997</ele>
        <time>2026-07-02T10:49:32Z</time>
      </trkpt>
      <trkpt lat="53.277577981352806" lon="-9.013671018183231">
        <ele>34.740000000000002</ele>
        <time>2026-07-02T10:49:41Z</time>
      </trkpt>
      <trkpt lat="53.277588961645961" lon="-9.013735977932811">
        <ele>34.259999999999998</ele>
        <time>2026-07-02T10:49:42Z</time>
      </trkpt>
      <trkpt lat="53.277742015197873" lon="-9.014626974239945">
        <ele>32.82</ele>
        <time>2026-07-02T10:49:49Z</time>
      </trkpt>
      <trkpt lat="53.277765987440944" lon="-9.014771981164813">
        <ele>32.340000000000003</ele>
        <time>2026-07-02T10:49:50Z</time>
      </trkpt>
      <trkpt lat="53.277790965512395" lon="-9.014916988089681">
        <ele>32.340000000000003</ele>
        <time>2026-07-02T10:49:51Z</time>
      </trkpt>
      <trkpt lat="53.278094977140427" lon="-9.01671901345253">
        <ele>29.460000000000001</ele>
        <time>2026-07-02T10:50:02Z</time>
      </trkpt>
      <trkpt lat="53.27820897102356" lon="-9.017325025051832">
        <ele>28.98</ele>
        <time>2026-07-02T10:50:09Z</time>
      </trkpt>
      <trkpt lat="53.278254987671971" lon="-9.017613027244806">
        <ele>28.5</ele>
        <time>2026-07-02T10:50:19Z</time>
      </trkpt>
      <trkpt lat="53.278468977659941" lon="-9.018757995218039">
        <ele>29.460000000000001</ele>
        <time>2026-07-02T10:50:29Z</time>
      </trkpt>
      <trkpt lat="53.278475012630224" lon="-9.018792025744915">
        <ele>29.940000000000001</ele>
        <time>2026-07-02T10:50:41Z</time>
      </trkpt>
      <trkpt lat="53.27848699875176" lon="-9.018861008808017">
        <ele>29.940000000000001</ele>
        <time>2026-07-02T10:50:51Z</time>
      </trkpt>
      <trkpt lat="53.278567967936397" lon="-9.019322013482451">
        <ele>29.460000000000001</ele>
        <time>2026-07-02T10:50:59Z</time>
      </trkpt>
      <trkpt lat="53.278864016756415" lon="-9.020720031112433">
        <ele>30.420000000000002</ele>
        <time>2026-07-02T10:51:10Z</time>
      </trkpt>
      <trkpt lat="53.279198035597801" lon="-9.022196000441909">
        <ele>30.420000000000002</ele>
        <time>2026-07-02T10:51:22Z</time>
      </trkpt>
      <trkpt lat="53.279507998377085" lon="-9.023509025573731">
        <ele>28.5</ele>
        <time>2026-07-02T10:51:34Z</time>
      </trkpt>
      <trkpt lat="53.279903037473559" lon="-9.025285989046097">
        <ele>23.210000000000001</ele>
        <time>2026-07-02T10:51:46Z</time>
      </trkpt>
      <trkpt lat="53.280129013583064" lon="-9.02627999894321">
        <ele>20.32</ele>
        <time>2026-07-02T10:51:55Z</time>
      </trkpt>
      <trkpt lat="53.280201014131308" lon="-9.026657016947866">
        <ele>19.359999999999999</ele>
        <time>2026-07-02T10:51:59Z</time>
      </trkpt>
      <trkpt lat="53.280221968889236" lon="-9.026761958375573">
        <ele>18.879999999999999</ele>
        <time>2026-07-02T10:52:01Z</time>
      </trkpt>
      <trkpt lat="53.280388014391065" lon="-9.027628982439637">
        <ele>17.920000000000002</ele>
        <time>2026-07-02T10:52:08Z</time>
      </trkpt>
      <trkpt lat="53.28063502907753" lon="-9.029350960627198">
        <ele>17.920000000000002</ele>
        <time>2026-07-02T10:52:19Z</time>
      </trkpt>
      <trkpt lat="53.280897969380021" lon="-9.031280977651477">
        <ele>17.920000000000002</ele>
        <time>2026-07-02T10:52:31Z</time>
      </trkpt>
      <trkpt lat="53.280976004898548" lon="-9.031592030078173">
        <ele>17.440000000000001</ele>
        <time>2026-07-02T10:52:34Z</time>
      </trkpt>
      <trkpt lat="53.281013974919915" lon="-9.03173703700304">
        <ele>16.960000000000001</ele>
        <time>2026-07-02T10:52:35Z</time>
      </trkpt>
      <trkpt lat="53.281841017305851" lon="-9.0332190413028">
        <ele>17.920000000000002</ele>
        <time>2026-07-02T10:52:48Z</time>
      </trkpt>
      <trkpt lat="53.28190203756094" lon="-9.033325994387269">
        <ele>17.920000000000002</ele>
        <time>2026-07-02T10:52:49Z</time>
      </trkpt>
      <trkpt lat="53.281935984268785" lon="-9.033431019634008">
        <ele>18.399999999999999</ele>
        <time>2026-07-02T10:52:50Z</time>
      </trkpt>
      <trkpt lat="53.281944030895829" lon="-9.033560017123818">
        <ele>18.399999999999999</ele>
        <time>2026-07-02T10:52:51Z</time>
      </trkpt>
      <trkpt lat="53.281939001753926" lon="-9.033796973526478">
        <ele>18.879999999999999</ele>
        <time>2026-07-02T10:52:52Z</time>
      </trkpt>
      <trkpt lat="53.281922992318869" lon="-9.033904010429978">
        <ele>18.879999999999999</ele>
        <time>2026-07-02T10:52:53Z</time>
      </trkpt>
      <trkpt lat="53.281908994540572" lon="-9.033981962129474">
        <ele>18.879999999999999</ele>
        <time>2026-07-02T10:52:55Z</time>
      </trkpt>
      <trkpt lat="53.281849985942245" lon="-9.034040970727801">
        <ele>18.399999999999999</ele>
        <time>2026-07-02T10:53:03Z</time>
      </trkpt>
      <trkpt lat="53.281620992347598" lon="-9.034265018999577">
        <ele>18.879999999999999</ele>
        <time>2026-07-02T10:53:12Z</time>
      </trkpt>
      <trkpt lat="53.280951026827097" lon="-9.03487597592175">
        <ele>18.879999999999999</ele>
        <time>2026-07-02T10:53:21Z</time>
      </trkpt>
      <trkpt lat="53.280724966898561" lon="-9.035146040841937">
        <ele>18.399999999999999</ele>
        <time>2026-07-02T10:53:25Z</time>
      </trkpt>
      <trkpt lat="53.280682973563671" lon="-9.035204965621233">
        <ele>18.879999999999999</ele>
        <time>2026-07-02T10:53:26Z</time>
      </trkpt>
      <trkpt lat="53.280230015516281" lon="-9.035962019115686">
        <ele>16.48</ele>
        <time>2026-07-02T10:53:36Z</time>
      </trkpt>
      <trkpt lat="53.279549991711974" lon="-9.037120984867215">
        <ele>18.399999999999999</ele>
        <time>2026-07-02T10:53:45Z</time>
      </trkpt>
      <trkpt lat="53.278547013178468" lon="-9.038646994158626">
        <ele>22.25</ele>
        <time>2026-07-02T10:53:57Z</time>
      </trkpt>
      <trkpt lat="53.277924992144108" lon="-9.039595993235707">
        <ele>23.690000000000001</ele>
        <time>2026-07-02T10:54:05Z</time>
      </trkpt>
      <trkpt lat="53.277193000540137" lon="-9.040570976212621">
        <ele>26.09</ele>
        <time>2026-07-02T10:54:16Z</time>
      </trkpt>
      <trkpt lat="53.276538960635662" lon="-9.041398018598557">
        <ele>26.09</ele>
        <time>2026-07-02T10:54:27Z</time>
      </trkpt>
      <trkpt lat="53.276481963694096" lon="-9.0414700191468">
        <ele>26.09</ele>
        <time>2026-07-02T10:54:28Z</time>
      </trkpt>
      <trkpt lat="53.276132019236684" lon="-9.041961031034589">
        <ele>28.5</ele>
        <time>2026-07-02T10:54:34Z</time>
      </trkpt>
      <trkpt lat="53.276083990931511" lon="-9.042065972462297">
        <ele>29.460000000000001</ele>
        <time>2026-07-02T10:54:35Z</time>
      </trkpt>
      <trkpt lat="53.276035040616989" lon="-9.042174015194178">
        <ele>29.940000000000001</ele>
        <time>2026-07-02T10:54:36Z</time>
      </trkpt>
      <trkpt lat="53.275549979880452" lon="-9.043364999815822">
        <ele>28.98</ele>
        <time>2026-07-02T10:54:47Z</time>
      </trkpt>
      <trkpt lat="53.275517039000988" lon="-9.043488968163729">
        <ele>28.02</ele>
        <time>2026-07-02T10:54:48Z</time>
      </trkpt>
      <trkpt lat="53.275484014302492" lon="-9.043610002845526">
        <ele>27.530000000000001</ele>
        <time>2026-07-02T10:54:49Z</time>
      </trkpt>
      <trkpt lat="53.275451995432377" lon="-9.043730031698942">
        <ele>27.050000000000001</ele>
        <time>2026-07-02T10:54:50Z</time>
      </trkpt>
      <trkpt lat="53.275427017360926" lon="-9.043846037238836">
        <ele>26.09</ele>
        <time>2026-07-02T10:54:51Z</time>
      </trkpt>
      <trkpt lat="53.27541503123939" lon="-9.043976040557027">
        <ele>25.609999999999999</ele>
        <time>2026-07-02T10:54:52Z</time>
      </trkpt>
      <trkpt lat="53.275402039289474" lon="-9.044106965884566">
        <ele>24.649999999999999</ele>
        <time>2026-07-02T10:54:53Z</time>
      </trkpt>
      <trkpt lat="53.275389969348907" lon="-9.044236969202757">
        <ele>23.690000000000001</ele>
        <time>2026-07-02T10:54:54Z</time>
      </trkpt>
      <trkpt lat="53.275377983227372" lon="-9.044364960864186">
        <ele>23.210000000000001</ele>
        <time>2026-07-02T10:54:55Z</time>
      </trkpt>
      <trkpt lat="53.275318974629045" lon="-9.045106004923582">
        <ele>18.879999999999999</ele>
        <time>2026-07-02T10:55:01Z</time>
      </trkpt>
      <trkpt lat="53.275313023477793" lon="-9.045198038220406">
        <ele>18.399999999999999</ele>
        <time>2026-07-02T10:55:02Z</time>
      </trkpt>
      <trkpt lat="53.27530799433589" lon="-9.045278001576662">
        <ele>17.440000000000001</ele>
        <time>2026-07-02T10:55:03Z</time>
      </trkpt>
      <trkpt lat="53.275302965193987" lon="-9.045352013781667">
        <ele>16.960000000000001</ele>
        <time>2026-07-02T10:55:04Z</time>
      </trkpt>
      <trkpt lat="53.275299025699496" lon="-9.045416973531246">
        <ele>16.48</ele>
        <time>2026-07-02T10:55:05Z</time>
      </trkpt>
      <trkpt lat="53.275295002385974" lon="-9.045473970472813">
        <ele>16</ele>
        <time>2026-07-02T10:55:06Z</time>
      </trkpt>
      <trkpt lat="53.275287039577961" lon="-9.045591987669468">
        <ele>13.6</ele>
        <time>2026-07-02T10:55:16Z</time>
      </trkpt>
      <trkpt lat="53.275263989344239" lon="-9.045946961268783">
        <ele>10.710000000000001</ele>
        <time>2026-07-02T10:55:37Z</time>
      </trkpt>
      <trkpt lat="53.275219984352589" lon="-9.046081993728876">
        <ele>10.23</ele>
        <time>2026-07-02T10:55:38Z</time>
      </trkpt>
      <trkpt lat="53.275186959654093" lon="-9.046133039519191">
        <ele>10.23</ele>
        <time>2026-07-02T10:55:39Z</time>
      </trkpt>
      <trkpt lat="53.275152007117867" lon="-9.046190036460757">
        <ele>10.23</ele>
        <time>2026-07-02T10:55:40Z</time>
      </trkpt>
      <trkpt lat="53.275119988247752" lon="-9.046253990381956">
        <ele>10.23</ele>
        <time>2026-07-02T10:55:41Z</time>
      </trkpt>
      <trkpt lat="53.275083024054766" lon="-9.046328002586961">
        <ele>10.23</ele>
        <time>2026-07-02T10:55:42Z</time>
      </trkpt>
      <trkpt lat="53.275048993527889" lon="-9.046394973993301">
        <ele>10.710000000000001</ele>
        <time>2026-07-02T10:55:43Z</time>
      </trkpt>
      <trkpt lat="53.275020997971296" lon="-9.046452976763248">
        <ele>10.710000000000001</ele>
        <time>2026-07-02T10:55:44Z</time>
      </trkpt>
      <trkpt lat="53.274988979101181" lon="-9.046515002846718">
        <ele>10.710000000000001</ele>
        <time>2026-07-02T10:55:45Z</time>
      </trkpt>
      <trkpt lat="53.274890994653106" lon="-9.046650035306811">
        <ele>10.710000000000001</ele>
        <time>2026-07-02T10:55:47Z</time>
      </trkpt>
      <trkpt lat="53.274851012974977" lon="-9.046700997278094">
        <ele>10.710000000000001</ele>
        <time>2026-07-02T10:55:48Z</time>
      </trkpt>
      <trkpt lat="53.274816982448101" lon="-9.046746008098126">
        <ele>10.710000000000001</ele>
        <time>2026-07-02T10:55:49Z</time>
      </trkpt>
      <trkpt lat="53.274782029911876" lon="-9.046791018918157">
        <ele>11.19</ele>
        <time>2026-07-02T10:55:50Z</time>
      </trkpt>
      <trkpt lat="53.274751016870141" lon="-9.046834018081427">
        <ele>11.19</ele>
        <time>2026-07-02T10:55:51Z</time>
      </trkpt>
      <trkpt lat="53.274722015485168" lon="-9.046877017244697">
        <ele>11.67</ele>
        <time>2026-07-02T10:55:52Z</time>
      </trkpt>
      <trkpt lat="53.274508025497198" lon="-9.047213969752193">
        <ele>11.67</ele>
        <time>2026-07-02T10:55:59Z</time>
      </trkpt>
      <trkpt lat="53.274442981928587" lon="-9.047337016090751">
        <ele>11.67</ele>
        <time>2026-07-02T10:56:01Z</time>
      </trkpt>
      <trkpt lat="53.274414986371994" lon="-9.047389989718795">
        <ele>11.67</ele>
        <time>2026-07-02T10:56:02Z</time>
      </trkpt>
      <trkpt lat="53.274185992777348" lon="-9.047820987179875">
        <ele>10.710000000000001</ele>
        <time>2026-07-02T10:56:09Z</time>
      </trkpt>
      <trkpt lat="53.274093959480524" lon="-9.048031959682703">
        <ele>10.23</ele>
        <time>2026-07-02T10:56:12Z</time>
      </trkpt>
      <trkpt lat="53.274060012772679" lon="-9.048103960230947">
        <ele>10.23</ele>
        <time>2026-07-02T10:56:14Z</time>
      </trkpt>
      <trkpt lat="53.273797994479537" lon="-9.048655992373824">
        <ele>8.789999999999999</ele>
        <time>2026-07-02T10:56:21Z</time>
      </trkpt>
      <trkpt lat="53.273764969781041" lon="-9.048726987093687">
        <ele>8.789999999999999</ele>
        <time>2026-07-02T10:56:22Z</time>
      </trkpt>
      <trkpt lat="53.273713001981378" lon="-9.048787001520395">
        <ele>8.310000000000001</ele>
        <time>2026-07-02T10:56:23Z</time>
      </trkpt>
      <trkpt lat="53.273599008098245" lon="-9.048902001231909">
        <ele>5.91</ele>
        <time>2026-07-02T10:56:27Z</time>
      </trkpt>
      <trkpt lat="53.273586016148329" lon="-9.048913987353444">
        <ele>5.42</ele>
        <time>2026-07-02T10:56:28Z</time>
      </trkpt>
      <trkpt lat="53.273586016148329" lon="-9.048913987353444">
        <ele>4.94</ele>
        <time>2026-07-02T10:56:43Z</time>
      </trkpt>
      <trkpt lat="53.273585010319948" lon="-9.048914993181825">
        <ele>3.98</ele>
        <time>2026-07-02T10:56:46Z</time>
      </trkpt>
      <trkpt lat="53.273553997278214" lon="-9.048882974311709">
        <ele>3.98</ele>
        <time>2026-07-02T10:56:48Z</time>
      </trkpt>
      <trkpt lat="53.27324403449893" lon="-9.048489024862647">
        <ele>5.91</ele>
        <time>2026-07-02T10:56:58Z</time>
      </trkpt>
      <trkpt lat="53.273208998143673" lon="-9.048437979072332">
        <ele>5.91</ele>
        <time>2026-07-02T10:56:59Z</time>
      </trkpt>
      <trkpt lat="53.273173039779067" lon="-9.048386011272669">
        <ele>6.39</ele>
        <time>2026-07-02T10:57:00Z</time>
      </trkpt>
      <trkpt lat="53.27313800342381" lon="-9.048333959653974">
        <ele>6.39</ele>
        <time>2026-07-02T10:57:01Z</time>
      </trkpt>
      <trkpt lat="53.273101961240172" lon="-9.048282997682691">
        <ele>6.39</ele>
        <time>2026-07-02T10:57:02Z</time>
      </trkpt>
      <trkpt lat="53.273070026189089" lon="-9.048234969377518">
        <ele>6.87</ele>
        <time>2026-07-02T10:57:03Z</time>
      </trkpt>
      <trkpt lat="53.273039013147354" lon="-9.048189958557487">
        <ele>6.87</ele>
        <time>2026-07-02T10:57:04Z</time>
      </trkpt>
      <trkpt lat="53.27294304035604" lon="-9.048111001029611">
        <ele>6.87</ele>
        <time>2026-07-02T10:57:07Z</time>
      </trkpt>
      <trkpt lat="53.272912027314305" lon="-9.04810999520123">
        <ele>6.87</ele>
        <time>2026-07-02T10:57:08Z</time>
      </trkpt>
      <trkpt lat="53.272832985967398" lon="-9.048206973820925">
        <ele>5.91</ele>
        <time>2026-07-02T10:57:11Z</time>
      </trkpt>
      <trkpt lat="53.272799039259553" lon="-9.048247961327434">
        <ele>5.42</ele>
        <time>2026-07-02T10:57:12Z</time>
      </trkpt>
      <trkpt lat="53.272649003192782" lon="-9.0484310220927">
        <ele>2.54</ele>
        <time>2026-07-02T10:57:15Z</time>
      </trkpt>
      <trkpt lat="53.27253601513803" lon="-9.048568988218904">
        <ele>0.62</ele>
        <time>2026-07-02T10:57:18Z</time>
      </trkpt>
      <trkpt lat="53.272508019581437" lon="-9.04860301874578">
        <ele>-0.34</ele>
        <time>2026-07-02T10:57:19Z</time>
      </trkpt>
      <trkpt lat="53.272489998489618" lon="-9.048624979332089">
        <ele>-0.34</ele>
        <time>2026-07-02T10:57:20Z</time>
      </trkpt>
      <trkpt lat="53.272459991276264" lon="-9.048662027344108">
        <ele>-0.82</ele>
        <time>2026-07-02T10:57:22Z</time>
      </trkpt>
      <trkpt lat="53.272441970184445" lon="-9.048683987930417">
        <ele>-0.82</ele>
        <time>2026-07-02T10:57:23Z</time>
      </trkpt>
      <trkpt lat="53.272412968799472" lon="-9.048720030114055">
        <ele>-0.34</ele>
        <time>2026-07-02T10:57:24Z</time>
      </trkpt>
      <trkpt lat="53.272369969636202" lon="-9.048771997913718">
        <ele>-0.34</ele>
        <time>2026-07-02T10:57:25Z</time>
      </trkpt>
      <trkpt lat="53.272324036806822" lon="-9.048831006512046">
        <ele>-0.34</ele>
        <time>2026-07-02T10:57:26Z</time>
      </trkpt>
      <trkpt lat="53.272176012396812" lon="-9.04903301037848">
        <ele>-0.82</ele>
        <time>2026-07-02T10:57:31Z</time>
      </trkpt>
      <trkpt lat="53.272162014618516" lon="-9.049051031470299">
        <ele>-0.34</ele>
        <time>2026-07-02T10:57:32Z</time>
      </trkpt>
      <trkpt lat="53.272133013233542" lon="-9.049090007320046">
        <ele>-0.34</ele>
        <time>2026-07-02T10:57:33Z</time>
      </trkpt>
      <trkpt lat="53.272096971049905" lon="-9.0491390414536">
        <ele>-0.34</ele>
        <time>2026-07-02T10:57:34Z</time>
      </trkpt>
      <trkpt lat="53.272054977715015" lon="-9.049196038395166">
        <ele>0.14</ele>
        <time>2026-07-02T10:57:35Z</time>
      </trkpt>
      <trkpt lat="53.27201901935041" lon="-9.049245994538069">
        <ele>-0.34</ele>
        <time>2026-07-02T10:57:36Z</time>
      </trkpt>
      <trkpt lat="53.27197602018714" lon="-9.049303997308016">
        <ele>-0.34</ele>
        <time>2026-07-02T10:57:37Z</time>
      </trkpt>
      <trkpt lat="53.271942995488644" lon="-9.049349008128047">
        <ele>-0.34</ele>
        <time>2026-07-02T10:57:38Z</time>
      </trkpt>
      <trkpt lat="53.271908964961767" lon="-9.049395024776459">
        <ele>-0.34</ele>
        <time>2026-07-02T10:57:39Z</time>
      </trkpt>
      <trkpt lat="53.271876024082303" lon="-9.04944003559649">
        <ele>0.14</ele>
        <time>2026-07-02T10:57:40Z</time>
      </trkpt>
      <trkpt lat="53.271855991333723" lon="-9.049468031153083">
        <ele>1.1</ele>
        <time>2026-07-02T10:57:41Z</time>
      </trkpt>
      <trkpt lat="53.271835958585143" lon="-9.049494015052915">
        <ele>1.58</ele>
        <time>2026-07-02T10:57:42Z</time>
      </trkpt>
      <trkpt lat="53.271835958585143" lon="-9.049494015052915">
        <ele>3.5</ele>
        <time>2026-07-02T10:57:54Z</time>
      </trkpt>
      <trkpt lat="53.271818021312356" lon="-9.049517987295985">
        <ele>4.94</ele>
        <time>2026-07-02T10:58:10Z</time>
      </trkpt>
      <trkpt lat="53.27180402353406" lon="-9.049537014216185">
        <ele>5.42</ele>
        <time>2026-07-02T10:58:11Z</time>
      </trkpt>
      <trkpt lat="53.271673014387488" lon="-9.049690989777446">
        <ele>8.310000000000001</ele>
        <time>2026-07-02T10:58:14Z</time>
      </trkpt>
      <trkpt lat="53.271637978032231" lon="-9.049737006425858">
        <ele>8.310000000000001</ele>
        <time>2026-07-02T10:58:15Z</time>
      </trkpt>
      <trkpt lat="53.271199017763138" lon="-9.050309993326664">
        <ele>10.710000000000001</ele>
        <time>2026-07-02T10:58:23Z</time>
      </trkpt>
      <trkpt lat="53.270508013665676" lon="-9.051206018775702">
        <ele>13.6</ele>
        <time>2026-07-02T10:58:32Z</time>
      </trkpt>
      <trkpt lat="53.269908959046006" lon="-9.052004981786013">
        <ele>12.630000000000001</ele>
        <time>2026-07-02T10:58:42Z</time>
      </trkpt>
      <trkpt lat="53.26978700235486" lon="-9.052133979275823">
        <ele>12.630000000000001</ele>
        <time>2026-07-02T10:58:43Z</time>
      </trkpt>
      <trkpt lat="53.269712990149856" lon="-9.052271023392677">
        <ele>12.630000000000001</ele>
        <time>2026-07-02T10:58:45Z</time>
      </trkpt>
      <trkpt lat="53.269635960459709" lon="-9.052481995895505">
        <ele>12.630000000000001</ele>
        <time>2026-07-02T10:58:46Z</time>
      </trkpt>
      <trkpt lat="53.269630009308457" lon="-9.052618034183979">
        <ele>13.119999999999999</ele>
        <time>2026-07-02T10:58:47Z</time>
      </trkpt>
      <trkpt lat="53.269668985158205" lon="-9.05270797200501">
        <ele>13.119999999999999</ele>
        <time>2026-07-02T10:58:48Z</time>
      </trkpt>
      <trkpt lat="53.269712990149856" lon="-9.052809979766607">
        <ele>13.119999999999999</ele>
        <time>2026-07-02T10:58:49Z</time>
      </trkpt>
      <trkpt lat="53.269758000969887" lon="-9.052915005013347">
        <ele>13.119999999999999</ele>
        <time>2026-07-02T10:58:50Z</time>
      </trkpt>
      <trkpt lat="53.269808040931821" lon="-9.053024975582957">
        <ele>13.6</ele>
        <time>2026-07-02T10:58:51Z</time>
      </trkpt>
      <trkpt lat="53.270067041739821" lon="-9.053552029654384">
        <ele>15.039999999999999</ele>
        <time>2026-07-02T10:58:56Z</time>
      </trkpt>
      <trkpt lat="53.27013099566102" lon="-9.053679015487433">
        <ele>16</ele>
        <time>2026-07-02T10:58:57Z</time>
      </trkpt>
      <trkpt lat="53.270184975117445" lon="-9.053750010207295">
        <ele>17.440000000000001</ele>
        <time>2026-07-02T10:58:58Z</time>
      </trkpt>
      <trkpt lat="53.270228980109096" lon="-9.053831985220313">
        <ele>18.879999999999999</ele>
        <time>2026-07-02T10:58:59Z</time>
      </trkpt>
      <trkpt lat="53.270278014242649" lon="-9.053929969668388">
        <ele>19.84</ele>
        <time>2026-07-02T10:59:00Z</time>
      </trkpt>
      <trkpt lat="53.270325036719441" lon="-9.054024014621973">
        <ele>20.32</ele>
        <time>2026-07-02T10:59:01Z</time>
      </trkpt>
      <trkpt lat="53.270367030054331" lon="-9.054108001291752">
        <ele>21.289999999999999</ele>
        <time>2026-07-02T10:59:02Z</time>
      </trkpt>
      <trkpt lat="53.270424026995897" lon="-9.054279997944832">
        <ele>22.25</ele>
        <time>2026-07-02T10:59:04Z</time>
      </trkpt>
      <trkpt lat="53.27043098397553" lon="-9.054306987673044">
        <ele>22.25</ele>
        <time>2026-07-02T10:59:05Z</time>
      </trkpt>
      <trkpt lat="53.270424026995897" lon="-9.054421987384558">
        <ele>22.73</ele>
        <time>2026-07-02T10:59:06Z</time>
      </trkpt>
      <trkpt lat="53.270415980368853" lon="-9.054541010409594">
        <ele>22.73</ele>
        <time>2026-07-02T10:59:07Z</time>
      </trkpt>
      <trkpt lat="53.270410029217601" lon="-9.054644023999572">
        <ele>22.73</ele>
        <time>2026-07-02T10:59:08Z</time>
      </trkpt>
      <trkpt lat="53.270363006740808" lon="-9.054910987615585">
        <ele>21.289999999999999</ele>
        <time>2026-07-02T10:59:15Z</time>
      </trkpt>
      <trkpt lat="53.270329982042313" lon="-9.055044008418918">
        <ele>21.289999999999999</ele>
        <time>2026-07-02T10:59:28Z</time>
      </trkpt>
      <trkpt lat="53.26995899900794" lon="-9.055927963927388">
        <ele>17.440000000000001</ele>
        <time>2026-07-02T10:59:36Z</time>
      </trkpt>
      <trkpt lat="53.269678959622979" lon="-9.056531963869929">
        <ele>16.48</ele>
        <time>2026-07-02T10:59:44Z</time>
      </trkpt>
      <trkpt lat="53.269626991823316" lon="-9.056543027982116">
        <ele>15.52</ele>
        <time>2026-07-02T10:59:47Z</time>
      </trkpt>
      <trkpt lat="53.269602013751864" lon="-9.056518971920013">
        <ele>15.039999999999999</ele>
        <time>2026-07-02T10:59:48Z</time>
      </trkpt>
      <trkpt lat="53.269189959391952" lon="-9.056093003600836">
        <ele>11.19</ele>
        <time>2026-07-02T10:59:55Z</time>
      </trkpt>
      <trkpt lat="53.26888301409781" lon="-9.055797038599849">
        <ele>11.67</ele>
        <time>2026-07-02T10:59:59Z</time>
      </trkpt>
      <trkpt lat="53.268221011385322" lon="-9.055159008130431">
        <ele>11.19</ele>
        <time>2026-07-02T11:00:09Z</time>
      </trkpt>
      <trkpt lat="53.26755004003644" lon="-9.054591972380877">
        <ele>10.23</ele>
        <time>2026-07-02T11:00:21Z</time>
      </trkpt>
      <trkpt lat="53.267389023676515" lon="-9.054500022903085">
        <ele>9.75</ele>
        <time>2026-07-02T11:00:24Z</time>
      </trkpt>
      <trkpt lat="53.267348958179355" lon="-9.054476972669363">
        <ele>9.75</ele>
        <time>2026-07-02T11:00:25Z</time>
      </trkpt>
      <trkpt lat="53.267333032563329" lon="-9.054363984614611">
        <ele>9.75</ele>
        <time>2026-07-02T11:00:26Z</time>
      </trkpt>
      <trkpt lat="53.267326997593045" lon="-9.054290978237987">
        <ele>9.75</ele>
        <time>2026-07-02T11:00:27Z</time>
      </trkpt>
      <trkpt lat="53.267320962622762" lon="-9.054213026538491">
        <ele>9.75</ele>
        <time>2026-07-02T11:00:28Z</time>
      </trkpt>
      <trkpt lat="53.267273018136621" lon="-9.053601985797286">
        <ele>7.35</ele>
        <time>2026-07-02T11:00:39Z</time>
      </trkpt>
      <trkpt lat="53.267273018136621" lon="-9.053601985797286">
        <ele>7.35</ele>
        <time>2026-07-02T11:00:54Z</time>
      </trkpt>
      <trkpt lat="53.267273018136621" lon="-9.053601985797286">
        <ele>7.35</ele>
        <time>2026-07-02T11:01:33Z</time>
      </trkpt>
      <trkpt lat="53.267273018136621" lon="-9.053601985797286">
        <ele>7.35</ele>
        <time>2026-07-02T11:02:22Z</time>
      </trkpt>
      <trkpt lat="53.267273018136621" lon="-9.053601985797286">
        <ele>7.35</ele>
        <time>2026-07-02T11:03:11Z</time>
      </trkpt>
      <trkpt lat="53.267273018136621" lon="-9.053601985797286">
        <ele>7.35</ele>
        <time>2026-07-02T11:03:24Z</time>
      </trkpt>
      <trkpt lat="53.267307970672846" lon="-9.054042035713792">
        <ele>8.310000000000001</ele>
        <time>2026-07-02T11:03:34Z</time>
      </trkpt>
      <trkpt lat="53.267333032563329" lon="-9.054373959079385">
        <ele>7.83</ele>
        <time>2026-07-02T11:03:40Z</time>
      </trkpt>
      <trkpt lat="53.267362033948302" lon="-9.054484013468027">
        <ele>7.83</ele>
        <time>2026-07-02T11:03:41Z</time>
      </trkpt>
      <trkpt lat="53.267411990091205" lon="-9.054513014853001">
        <ele>7.83</ele>
        <time>2026-07-02T11:03:42Z</time>
      </trkpt>
      <trkpt lat="53.267472004517913" lon="-9.054546961560845">
        <ele>7.35</ele>
        <time>2026-07-02T11:03:43Z</time>
      </trkpt>
      <trkpt lat="53.267534030601382" lon="-9.054583003744483">
        <ele>7.35</ele>
        <time>2026-07-02T11:03:44Z</time>
      </trkpt>
      <trkpt lat="53.268159991130233" lon="-9.055098993703723">
        <ele>8.310000000000001</ele>
        <time>2026-07-02T11:03:54Z</time>
      </trkpt>
      <trkpt lat="53.268221011385322" lon="-9.055159008130431">
        <ele>9.27</ele>
        <time>2026-07-02T11:03:55Z</time>
      </trkpt>
      <trkpt lat="53.268330981954932" lon="-9.055265039205551">
        <ele>10.23</ele>
        <time>2026-07-02T11:03:57Z</time>
      </trkpt>
      <trkpt lat="53.268388984724879" lon="-9.055321030318737">
        <ele>10.710000000000001</ele>
        <time>2026-07-02T11:03:58Z</time>
      </trkpt>
      <trkpt lat="53.269187025725842" lon="-9.056089986115694">
        <ele>15.52</ele>
        <time>2026-07-02T11:04:12Z</time>
      </trkpt>
      <trkpt lat="53.26929297298193" lon="-9.056191993877292">
        <ele>16</ele>
        <time>2026-07-02T11:04:14Z</time>
      </trkpt>
      <trkpt lat="53.269509980455041" lon="-9.056427022442222">
        <ele>16.48</ele>
        <time>2026-07-02T11:04:23Z</time>
      </trkpt>
      <trkpt lat="53.269522972404957" lon="-9.056439008563757">
        <ele>16.48</ele>
        <time>2026-07-02T11:04:36Z</time>
      </trkpt>
      <trkpt lat="53.26963403262198" lon="-9.056613016873598">
        <ele>16.48</ele>
        <time>2026-07-02T11:04:53Z</time>
      </trkpt>
      <trkpt lat="53.26961500570178" lon="-9.056640006601811">
        <ele>16.48</ele>
        <time>2026-07-02T11:04:54Z</time>
      </trkpt>
      <trkpt lat="53.269573012366891" lon="-9.056703960523009">
        <ele>16</ele>
        <time>2026-07-02T11:04:55Z</time>
      </trkpt>
      <trkpt lat="53.26954904012382" lon="-9.05674603767693">
        <ele>15.039999999999999</ele>
        <time>2026-07-02T11:04:56Z</time>
      </trkpt>
      <trkpt lat="53.269519032910466" lon="-9.056799011304975">
        <ele>15.039999999999999</ele>
        <time>2026-07-02T11:04:57Z</time>
      </trkpt>
      <trkpt lat="53.269263971596956" lon="-9.057124983519316">
        <ele>13.6</ele>
        <time>2026-07-02T11:05:03Z</time>
      </trkpt>
      <trkpt lat="53.268710011616349" lon="-9.057877007871866">
        <ele>12.630000000000001</ele>
        <time>2026-07-02T11:05:14Z</time>
      </trkpt>
      <trkpt lat="53.268113974481821" lon="-9.058669013902545">
        <ele>10.23</ele>
        <time>2026-07-02T11:05:24Z</time>
      </trkpt>
      <trkpt lat="53.26806703582406" lon="-9.058771021664143">
        <ele>9.75</ele>
        <time>2026-07-02T11:05:25Z</time>
      </trkpt>
      <trkpt lat="53.268024958670139" lon="-9.058886021375656">
        <ele>9.75</ele>
        <time>2026-07-02T11:05:26Z</time>
      </trkpt>
      <trkpt lat="53.267770987004042" lon="-9.059758996590972">
        <ele>9.75</ele>
        <time>2026-07-02T11:05:33Z</time>
      </trkpt>
      <trkpt lat="53.267737040296197" lon="-9.05988103710115">
        <ele>10.23</ele>
        <time>2026-07-02T11:05:34Z</time>
      </trkpt>
      <trkpt lat="53.267333032563329" lon="-9.061287017539144">
        <ele>12.15</ele>
        <time>2026-07-02T11:05:44Z</time>
      </trkpt>
      <trkpt lat="53.267270000651479" lon="-9.061535960063338">
        <ele>12.630000000000001</ele>
        <time>2026-07-02T11:05:46Z</time>
      </trkpt>
      <trkpt lat="53.267245022580028" lon="-9.061638973653317">
        <ele>12.630000000000001</ele>
        <time>2026-07-02T11:05:47Z</time>
      </trkpt>
      <trkpt lat="53.267221972346306" lon="-9.061724971979857">
        <ele>12.630000000000001</ele>
        <time>2026-07-02T11:05:48Z</time>
      </trkpt>
      <trkpt lat="53.267297996208072" lon="-9.061785992234945">
        <ele>12.630000000000001</ele>
        <time>2026-07-02T11:05:49Z</time>
      </trkpt>
      <trkpt lat="53.267348958179355" lon="-9.061869978904724">
        <ele>12.630000000000001</ele>
        <time>2026-07-02T11:05:50Z</time>
      </trkpt>
      <trkpt lat="53.267402015626431" lon="-9.061954971402884">
        <ele>12.630000000000001</ele>
        <time>2026-07-02T11:05:51Z</time>
      </trkpt>
      <trkpt lat="53.267654981464148" lon="-9.062428968027234">
        <ele>11.67</ele>
        <time>2026-07-02T11:05:56Z</time>
      </trkpt>
      <trkpt lat="53.268158985301852" lon="-9.063436975702643">
        <ele>10.710000000000001</ele>
        <time>2026-07-02T11:06:06Z</time>
      </trkpt>
      <trkpt lat="53.268211958929896" lon="-9.063548035919666">
        <ele>10.23</ele>
        <time>2026-07-02T11:06:07Z</time>
      </trkpt>
      <trkpt lat="53.268429972231388" lon="-9.064000993967056">
        <ele>8.789999999999999</ele>
        <time>2026-07-02T11:06:11Z</time>
      </trkpt>
      <trkpt lat="53.268531979992986" lon="-9.064230993390083">
        <ele>8.789999999999999</ele>
        <time>2026-07-02T11:06:13Z</time>
      </trkpt>
      <trkpt lat="53.268606998026371" lon="-9.064493011683226">
        <ele>9.27</ele>
        <time>2026-07-02T11:06:15Z</time>
      </trkpt>
      <trkpt lat="53.268714034929872" lon="-9.064993998035789">
        <ele>9.27</ele>
        <time>2026-07-02T11:06:19Z</time>
      </trkpt>
      <trkpt lat="53.268725015223026" lon="-9.06510598026216">
        <ele>9.27</ele>
        <time>2026-07-02T11:06:20Z</time>
      </trkpt>
      <trkpt lat="53.268735995516181" lon="-9.065208993852139">
        <ele>9.27</ele>
        <time>2026-07-02T11:06:21Z</time>
      </trkpt>
      <trkpt lat="53.268745969980955" lon="-9.065304966643453">
        <ele>9.27</ele>
        <time>2026-07-02T11:06:22Z</time>
      </trkpt>
      <trkpt lat="53.268757034093142" lon="-9.065416026860476">
        <ele>9.27</ele>
        <time>2026-07-02T11:06:23Z</time>
      </trkpt>
      <trkpt lat="53.268762985244393" lon="-9.065487021580339">
        <ele>9.75</ele>
        <time>2026-07-02T11:06:24Z</time>
      </trkpt>
      <trkpt lat="53.268769020214677" lon="-9.065560027956963">
        <ele>9.75</ele>
        <time>2026-07-02T11:06:25Z</time>
      </trkpt>
      <trkpt lat="53.26877798885107" lon="-9.065669998526573">
        <ele>9.75</ele>
        <time>2026-07-02T11:06:33Z</time>
      </trkpt>
      <trkpt lat="53.268787963315845" lon="-9.065800001844764">
        <ele>9.75</ele>
        <time>2026-07-02T11:07:02Z</time>
      </trkpt>
      <trkpt lat="53.268796009942889" lon="-9.065896980464459">
        <ele>10.23</ele>
        <time>2026-07-02T11:07:03Z</time>
      </trkpt>
      <trkpt lat="53.268867004662752" lon="-9.066574992612004">
        <ele>11.67</ele>
        <time>2026-07-02T11:07:08Z</time>
      </trkpt>
      <trkpt lat="53.268875973299146" lon="-9.066703990101814">
        <ele>11.67</ele>
        <time>2026-07-02T11:07:09Z</time>
      </trkpt>
      <trkpt lat="53.26888301409781" lon="-9.066828964278102">
        <ele>11.67</ele>
        <time>2026-07-02T11:07:10Z</time>
      </trkpt>
      <trkpt lat="53.268886031582952" lon="-9.066943963989615">
        <ele>12.15</ele>
        <time>2026-07-02T11:07:11Z</time>
      </trkpt>
      <trkpt lat="53.268886031582952" lon="-9.067063992843032">
        <ele>11.67</ele>
        <time>2026-07-02T11:07:12Z</time>
      </trkpt>
      <trkpt lat="53.268886031582952" lon="-9.06718703918159">
        <ele>11.67</ele>
        <time>2026-07-02T11:07:13Z</time>
      </trkpt>
      <trkpt lat="53.268886031582952" lon="-9.068781025707722">
        <ele>12.15</ele>
        <time>2026-07-02T11:07:23Z</time>
      </trkpt>
      <trkpt lat="53.268861975520849" lon="-9.069492984563112">
        <ele>14.56</ele>
        <time>2026-07-02T11:07:27Z</time>
      </trkpt>
      <trkpt lat="53.268849989399314" lon="-9.069681996479631">
        <ele>15.039999999999999</ele>
        <time>2026-07-02T11:07:28Z</time>
      </trkpt>
      <trkpt lat="53.268821993842721" lon="-9.070234028622508">
        <ele>16.48</ele>
        <time>2026-07-02T11:07:31Z</time>
      </trkpt>
      <trkpt lat="53.268821993842721" lon="-9.070404013618827">
        <ele>17.440000000000001</ele>
        <time>2026-07-02T11:07:32Z</time>
      </trkpt>
      <trkpt lat="53.268821993842721" lon="-9.07058103941381">
        <ele>18.399999999999999</ele>
        <time>2026-07-02T11:07:33Z</time>
      </trkpt>
      <trkpt lat="53.268821993842721" lon="-9.070759993046522">
        <ele>18.879999999999999</ele>
        <time>2026-07-02T11:07:34Z</time>
      </trkpt>
      <trkpt lat="53.268821993842721" lon="-9.070937018841505">
        <ele>19.84</ele>
        <time>2026-07-02T11:07:35Z</time>
      </trkpt>
      <trkpt lat="53.268821993842721" lon="-9.071104992181063">
        <ele>20.32</ele>
        <time>2026-07-02T11:07:36Z</time>
      </trkpt>
      <trkpt lat="53.268821993842721" lon="-9.071254022419453">
        <ele>20.809999999999999</ele>
        <time>2026-07-02T11:07:37Z</time>
      </trkpt>
      <trkpt lat="53.268821993842721" lon="-9.071388971060515">
        <ele>21.289999999999999</ele>
        <time>2026-07-02T11:07:38Z</time>
      </trkpt>
      <trkpt lat="53.268821993842721" lon="-9.071513023227453">
        <ele>21.77</ele>
        <time>2026-07-02T11:07:39Z</time>
      </trkpt>
      <trkpt lat="53.268821993842721" lon="-9.072013003751636">
        <ele>22.25</ele>
        <time>2026-07-02T11:07:43Z</time>
      </trkpt>
      <trkpt lat="53.268821993842721" lon="-9.072766033932567">
        <ele>21.77</ele>
        <time>2026-07-02T11:07:49Z</time>
      </trkpt>
      <trkpt lat="53.268821993842721" lon="-9.073312031105161">
        <ele>22.73</ele>
        <time>2026-07-02T11:07:53Z</time>
      </trkpt>
      <trkpt lat="53.268821993842721" lon="-9.074453981593251">
        <ele>25.129999999999999</ele>
        <time>2026-07-02T11:08:01Z</time>
      </trkpt>
      <trkpt lat="53.268817970529199" lon="-9.074810966849327">
        <ele>26.09</ele>
        <time>2026-07-02T11:08:04Z</time>
      </trkpt>
      <trkpt lat="53.268793998286128" lon="-9.075085977092385">
        <ele>26.57</ele>
        <time>2026-07-02T11:08:06Z</time>
      </trkpt>
      <trkpt lat="53.268744964152575" lon="-9.076009998098016">
        <ele>27.050000000000001</ele>
        <time>2026-07-02T11:08:11Z</time>
      </trkpt>
      <trkpt lat="53.268740018829703" lon="-9.076224993914366">
        <ele>27.530000000000001</ele>
        <time>2026-07-02T11:08:12Z</time>
      </trkpt>
      <trkpt lat="53.268743036314845" lon="-9.076434960588813">
        <ele>27.530000000000001</ele>
        <time>2026-07-02T11:08:13Z</time>
      </trkpt>
      <trkpt lat="53.268770026043057" lon="-9.076634030789137">
        <ele>27.050000000000001</ele>
        <time>2026-07-02T11:08:14Z</time>
      </trkpt>
      <trkpt lat="53.268796009942889" lon="-9.076821031048894">
        <ele>27.050000000000001</ele>
        <time>2026-07-02T11:08:15Z</time>
      </trkpt>
      <trkpt lat="53.268854012712836" lon="-9.07698699273169">
        <ele>27.050000000000001</ele>
        <time>2026-07-02T11:08:16Z</time>
      </trkpt>
      <trkpt lat="53.268919978290796" lon="-9.077149014919996">
        <ele>26.57</ele>
        <time>2026-07-02T11:08:17Z</time>
      </trkpt>
      <trkpt lat="53.268985021859407" lon="-9.077311037108302">
        <ele>26.57</ele>
        <time>2026-07-02T11:08:18Z</time>
      </trkpt>
      <trkpt lat="53.269173027947545" lon="-9.077776987105608">
        <ele>26.57</ele>
        <time>2026-07-02T11:08:21Z</time>
      </trkpt>
      <trkpt lat="53.269348964095116" lon="-9.078226005658507">
        <ele>27.050000000000001</ele>
        <time>2026-07-02T11:08:24Z</time>
      </trkpt>
      <trkpt lat="53.269389029592276" lon="-9.078404037281871">
        <ele>27.050000000000001</ele>
        <time>2026-07-02T11:08:25Z</time>
      </trkpt>
      <trkpt lat="53.269405961036682" lon="-9.078571004793048">
        <ele>27.050000000000001</ele>
        <time>2026-07-02T11:08:26Z</time>
      </trkpt>
      <trkpt lat="53.26942197047174" lon="-9.078735960647464">
        <ele>27.050000000000001</ele>
        <time>2026-07-02T11:08:27Z</time>
      </trkpt>
      <trkpt lat="53.269413001835346" lon="-9.078902006149292">
        <ele>27.530000000000001</ele>
        <time>2026-07-02T11:08:28Z</time>
      </trkpt>
      <trkpt lat="53.269404033198953" lon="-9.079052964225411">
        <ele>27.530000000000001</ele>
        <time>2026-07-02T11:08:29Z</time>
      </trkpt>
      <trkpt lat="53.269401015713811" lon="-9.079197971150279">
        <ele>28.02</ele>
        <time>2026-07-02T11:08:30Z</time>
      </trkpt>
      <trkpt lat="53.269380982965231" lon="-9.079326968640089">
        <ele>28.98</ele>
        <time>2026-07-02T11:08:31Z</time>
      </trkpt>
      <trkpt lat="53.269353993237019" lon="-9.07945403829217">
        <ele>29.460000000000001</ele>
        <time>2026-07-02T11:08:32Z</time>
      </trkpt>
      <trkpt lat="53.269328009337187" lon="-9.079579012468457">
        <ele>29.940000000000001</ele>
        <time>2026-07-02T11:08:33Z</time>
      </trkpt>
      <trkpt lat="53.269300013780594" lon="-9.079707004129887">
        <ele>30.420000000000002</ele>
        <time>2026-07-02T11:08:34Z</time>
      </trkpt>
      <trkpt lat="53.26927000656724" lon="-9.07984203658998">
        <ele>30.899999999999999</ele>
        <time>2026-07-02T11:08:35Z</time>
      </trkpt>
      <trkpt lat="53.269221978262067" lon="-9.079968016594648">
        <ele>31.379999999999999</ele>
        <time>2026-07-02T11:08:36Z</time>
      </trkpt>
      <trkpt lat="53.268694002181292" lon="-9.081205017864704">
        <ele>35.710000000000001</ele>
        <time>2026-07-02T11:08:45Z</time>
      </trkpt>
      <trkpt lat="53.268306003883481" lon="-9.08265701495111">
        <ele>40.030000000000001</ele>
        <time>2026-07-02T11:08:53Z</time>
      </trkpt>
      <trkpt lat="53.268138030543923" lon="-9.08347500488162">
        <ele>40.509999999999998</ele>
        <time>2026-07-02T11:08:58Z</time>
      </trkpt>
      <trkpt lat="53.267927980050445" lon="-9.084433978423476">
        <ele>43.399999999999999</ele>
        <time>2026-07-02T11:09:05Z</time>
      </trkpt>
      <trkpt lat="53.267665039747953" lon="-9.085153983905911">
        <ele>43.880000000000003</ele>
        <time>2026-07-02T11:09:09Z</time>
      </trkpt>
      <trkpt lat="53.267450965940952" lon="-9.0856640227139">
        <ele>43.399999999999999</ele>
        <time>2026-07-02T11:09:12Z</time>
      </trkpt>
      <trkpt lat="53.267406038939953" lon="-9.085843982174993">
        <ele>42.920000000000002</ele>
        <time>2026-07-02T11:09:13Z</time>
      </trkpt>
      <trkpt lat="53.267368990927935" lon="-9.086046991869807">
        <ele>42.439999999999998</ele>
        <time>2026-07-02T11:09:14Z</time>
      </trkpt>
      <trkpt lat="53.267279975116253" lon="-9.086541021242738">
        <ele>42.439999999999998</ele>
        <time>2026-07-02T11:09:17Z</time>
      </trkpt>
      <trkpt lat="53.267257008701563" lon="-9.086667001247406">
        <ele>42.920000000000002</ele>
        <time>2026-07-02T11:09:18Z</time>
      </trkpt>
      <trkpt lat="53.267180984839797" lon="-9.087089030072093">
        <ele>44.359999999999999</ele>
        <time>2026-07-02T11:09:22Z</time>
      </trkpt>
      <trkpt lat="53.26716598123312" lon="-9.08716999925673">
        <ele>44.840000000000003</ele>
        <time>2026-07-02T11:09:23Z</time>
      </trkpt>
      <trkpt lat="53.267152989283204" lon="-9.087245017290115">
        <ele>44.840000000000003</ele>
        <time>2026-07-02T11:09:24Z</time>
      </trkpt>
      <trkpt lat="53.267141003161669" lon="-9.087310982868075">
        <ele>45.32</ele>
        <time>2026-07-02T11:09:25Z</time>
      </trkpt>
      <trkpt lat="53.267127005383372" lon="-9.087386000901461">
        <ele>45.799999999999997</ele>
        <time>2026-07-02T11:09:26Z</time>
      </trkpt>
      <trkpt lat="53.267116025090218" lon="-9.087477028369904">
        <ele>45.799999999999997</ele>
        <time>2026-07-02T11:09:27Z</time>
      </trkpt>
      <trkpt lat="53.267104038968682" lon="-9.087578030303121">
        <ele>46.280000000000001</ele>
        <time>2026-07-02T11:09:28Z</time>
      </trkpt>
      <trkpt lat="53.266913015395403" lon="-9.088859036564827">
        <ele>45.32</ele>
        <time>2026-07-02T11:09:39Z</time>
      </trkpt>
      <trkpt lat="53.266880996525288" lon="-9.089105967432261">
        <ele>44.840000000000003</ele>
        <time>2026-07-02T11:09:42Z</time>
      </trkpt>
      <trkpt lat="53.266874961555004" lon="-9.089180985465646">
        <ele>44.359999999999999</ele>
        <time>2026-07-02T11:09:43Z</time>
      </trkpt>
      <trkpt lat="53.266843026503921" lon="-9.089588010683656">
        <ele>42.439999999999998</ele>
        <time>2026-07-02T11:09:49Z</time>
      </trkpt>
      <trkpt lat="53.266836991533637" lon="-9.089665962383151">
        <ele>42.439999999999998</ele>
        <time>2026-07-02T11:09:50Z</time>
      </trkpt>
      <trkpt lat="53.266830034554005" lon="-9.089751960709691">
        <ele>41.950000000000003</ele>
        <time>2026-07-02T11:09:51Z</time>
      </trkpt>
      <trkpt lat="53.266822993755341" lon="-9.089849023148418">
        <ele>41.950000000000003</ele>
        <time>2026-07-02T11:09:52Z</time>
      </trkpt>
      <trkpt lat="53.266814025118947" lon="-9.089952036738396">
        <ele>41.950000000000003</ele>
        <time>2026-07-02T11:09:53Z</time>
      </trkpt>
      <trkpt lat="53.266765996813774" lon="-9.0911899600178">
        <ele>41.469999999999999</ele>
        <time>2026-07-02T11:10:03Z</time>
      </trkpt>
      <trkpt lat="53.266760967671871" lon="-9.091296996921301">
        <ele>41.950000000000003</ele>
        <time>2026-07-02T11:10:04Z</time>
      </trkpt>
      <trkpt lat="53.266756022349" lon="-9.091409984976053">
        <ele>41.950000000000003</ele>
        <time>2026-07-02T11:10:05Z</time>
      </trkpt>
      <trkpt lat="53.266729032620788" lon="-9.092038040980697">
        <ele>41.950000000000003</ele>
        <time>2026-07-02T11:10:11Z</time>
      </trkpt>
      <trkpt lat="53.266725009307265" lon="-9.092138037085533">
        <ele>42.439999999999998</ele>
        <time>2026-07-02T11:10:12Z</time>
      </trkpt>
      <trkpt lat="53.266597017645836" lon="-9.093462964519858">
        <ele>40.030000000000001</ele>
        <time>2026-07-02T11:10:22Z</time>
      </trkpt>
      <trkpt lat="53.26613400131464" lon="-9.095650976523757">
        <ele>34.259999999999998</ele>
        <time>2026-07-02T11:10:36Z</time>
      </trkpt>
      <trkpt lat="53.265665033832192" lon="-9.097584011033177">
        <ele>30.899999999999999</ele>
        <time>2026-07-02T11:10:47Z</time>
      </trkpt>
      <trkpt lat="53.264877973124385" lon="-9.099819967523217">
        <ele>25.609999999999999</ele>
        <time>2026-07-02T11:11:00Z</time>
      </trkpt>
      <trkpt lat="53.263997035101056" lon="-9.101503975689411">
        <ele>21.77</ele>
        <time>2026-07-02T11:11:11Z</time>
      </trkpt>
      <trkpt lat="53.26357601210475" lon="-9.102264968678355">
        <ele>20.809999999999999</ele>
        <time>2026-07-02T11:11:16Z</time>
      </trkpt>
      <trkpt lat="53.263492025434971" lon="-9.102413998916745">
        <ele>20.32</ele>
        <time>2026-07-02T11:11:17Z</time>
      </trkpt>
      <trkpt lat="53.262402964755893" lon="-9.10433697514236">
        <ele>16.48</ele>
        <time>2026-07-02T11:11:30Z</time>
      </trkpt>
      <trkpt lat="53.261479027569294" lon="-9.106285013258457">
        <ele>13.119999999999999</ele>
        <time>2026-07-02T11:11:42Z</time>
      </trkpt>
      <trkpt lat="53.260944010689855" lon="-9.108391972258687">
        <ele>10.710000000000001</ele>
        <time>2026-07-02T11:11:53Z</time>
      </trkpt>
      <trkpt lat="53.260782994329929" lon="-9.110435983166099">
        <ele>10.710000000000001</ele>
        <time>2026-07-02T11:12:03Z</time>
      </trkpt>
      <trkpt lat="53.260635975748301" lon="-9.113121964037418">
        <ele>11.19</ele>
        <time>2026-07-02T11:12:16Z</time>
      </trkpt>
      <trkpt lat="53.260393990203738" lon="-9.115581968799233">
        <ele>15.039999999999999</ele>
        <time>2026-07-02T11:12:28Z</time>
      </trkpt>
      <trkpt lat="53.260349985212088" lon="-9.115987988188863">
        <ele>14.56</ele>
        <time>2026-07-02T11:12:30Z</time>
      </trkpt>
      <trkpt lat="53.260329030454159" lon="-9.116186974570155">
        <ele>14.56</ele>
        <time>2026-07-02T11:12:31Z</time>
      </trkpt>
      <trkpt lat="53.260239008814096" lon="-9.117021979764104">
        <ele>14.08</ele>
        <time>2026-07-02T11:12:37Z</time>
      </trkpt>
      <trkpt lat="53.260230040177703" lon="-9.117166986688972">
        <ele>14.56</ele>
        <time>2026-07-02T11:12:41Z</time>
      </trkpt>
      <trkpt lat="53.260228028520942" lon="-9.117188025265932">
        <ele>14.56</ele>
        <time>2026-07-02T11:12:42Z</time>
      </trkpt>
      <trkpt lat="53.260227022692561" lon="-9.11720403470099">
        <ele>14.56</ele>
        <time>2026-07-02T11:12:47Z</time>
      </trkpt>
      <trkpt lat="53.260172037407756" lon="-9.117825971916318">
        <ele>14.08</ele>
        <time>2026-07-02T11:12:53Z</time>
      </trkpt>
      <trkpt lat="53.260101964697242" lon="-9.119434962049127">
        <ele>15.039999999999999</ele>
        <time>2026-07-02T11:13:02Z</time>
      </trkpt>
      <trkpt lat="53.260088972747326" lon="-9.119814997538924">
        <ele>15.039999999999999</ele>
        <time>2026-07-02T11:13:04Z</time>
      </trkpt>
      <trkpt lat="53.260089978575706" lon="-9.120009038597345">
        <ele>15.52</ele>
        <time>2026-07-02T11:13:05Z</time>
      </trkpt>
      <trkpt lat="53.260106993839145" lon="-9.122209036722779">
        <ele>14.56</ele>
        <time>2026-07-02T11:13:16Z</time>
      </trkpt>
      <trkpt lat="53.260057037696242" lon="-9.125479990616441">
        <ele>15.52</ele>
        <time>2026-07-02T11:13:32Z</time>
      </trkpt>
      <trkpt lat="53.259690999984741" lon="-9.127283021807671">
        <ele>13.6</ele>
        <time>2026-07-02T11:13:41Z</time>
      </trkpt>
      <trkpt lat="53.259549010545015" lon="-9.127856008708477">
        <ele>13.119999999999999</ele>
        <time>2026-07-02T11:13:44Z</time>
      </trkpt>
      <trkpt lat="53.259501988068223" lon="-9.128046026453376">
        <ele>12.15</ele>
        <time>2026-07-02T11:13:45Z</time>
      </trkpt>
      <trkpt lat="53.259455971419811" lon="-9.128232020884752">
        <ele>11.67</ele>
        <time>2026-07-02T11:13:46Z</time>
      </trkpt>
      <trkpt lat="53.259409032762051" lon="-9.128423966467381">
        <ele>11.19</ele>
        <time>2026-07-02T11:13:47Z</time>
      </trkpt>
      <trkpt lat="53.259362010285258" lon="-9.128613984212279">
        <ele>10.710000000000001</ele>
        <time>2026-07-02T11:13:48Z</time>
      </trkpt>
      <trkpt lat="53.259316999465227" lon="-9.128794027492404">
        <ele>9.75</ele>
        <time>2026-07-02T11:13:49Z</time>
      </trkpt>
      <trkpt lat="53.258820036426187" lon="-9.13063402287662">
        <ele>12.630000000000001</ele>
        <time>2026-07-02T11:13:59Z</time>
      </trkpt>
      <trkpt lat="53.258386021479964" lon="-9.131618980318308">
        <ele>18.399999999999999</ele>
        <time>2026-07-02T11:14:05Z</time>
      </trkpt>
      <trkpt lat="53.257707003504038" lon="-9.132492961362004">
        <ele>24.170000000000002</ele>
        <time>2026-07-02T11:14:12Z</time>
      </trkpt>
      <trkpt lat="53.256735960021615" lon="-9.132984979078174">
        <ele>24.649999999999999</ele>
        <time>2026-07-02T11:14:20Z</time>
      </trkpt>
      <trkpt lat="53.255417989566922" lon="-9.133657040074468">
        <ele>22.73</ele>
        <time>2026-07-02T11:14:31Z</time>
      </trkpt>
      <trkpt lat="53.254414005205035" lon="-9.134965036064386">
        <ele>21.289999999999999</ele>
        <time>2026-07-02T11:14:41Z</time>
      </trkpt>
      <trkpt lat="53.253543963655829" lon="-9.136418960988522">
        <ele>21.77</ele>
        <time>2026-07-02T11:14:51Z</time>
      </trkpt>
      <trkpt lat="53.253008024767041" lon="-9.138276977464557">
        <ele>19.359999999999999</ele>
        <time>2026-07-02T11:15:01Z</time>
      </trkpt>
      <trkpt lat="53.252402013167739" lon="-9.140552999451757">
        <ele>17.440000000000001</ele>
        <time>2026-07-02T11:15:13Z</time>
      </trkpt>
      <trkpt lat="53.251839000731707" lon="-9.142615031450987">
        <ele>15.039999999999999</ele>
        <time>2026-07-02T11:15:24Z</time>
      </trkpt>
      <trkpt lat="53.25178200379014" lon="-9.144026963040233">
        <ele>15.039999999999999</ele>
        <time>2026-07-02T11:15:31Z</time>
      </trkpt>
      <trkpt lat="53.251903038471937" lon="-9.146717973053455">
        <ele>15.039999999999999</ele>
        <time>2026-07-02T11:15:44Z</time>
      </trkpt>
      <trkpt lat="53.251790972426534" lon="-9.147658003494144">
        <ele>14.08</ele>
        <time>2026-07-02T11:15:51Z</time>
      </trkpt>
      <trkpt lat="53.251779992133379" lon="-9.147744001820684">
        <ele>14.08</ele>
        <time>2026-07-02T11:15:53Z</time>
      </trkpt>
      <trkpt lat="53.25154303573072" lon="-9.147695973515511">
        <ele>13.119999999999999</ele>
        <time>2026-07-02T11:15:59Z</time>
      </trkpt>
      <trkpt lat="53.25148000381887" lon="-9.147755987942219">
        <ele>10.710000000000001</ele>
        <time>2026-07-02T11:16:14Z</time>
      </trkpt>
      <trkpt lat="53.25148000381887" lon="-9.147755987942219">
        <ele>10.710000000000001</ele>
        <time>2026-07-02T11:16:21Z</time>
      </trkpt>
      <trkpt lat="53.251443039625883" lon="-9.147961009293795">
        <ele>12.15</ele>
        <time>2026-07-02T11:16:27Z</time>
      </trkpt>
      <trkpt lat="53.251476986333728" lon="-9.147963020950556">
        <ele>14.08</ele>
        <time>2026-07-02T11:16:46Z</time>
      </trkpt>
      <trkpt lat="53.25148100964725" lon="-9.147955980151892">
        <ele>14.08</ele>
        <time>2026-07-02T11:17:28Z</time>
      </trkpt>
      <trkpt lat="53.251486038789153" lon="-9.147946005687118">
        <ele>13.6</ele>
        <time>2026-07-02T11:18:17Z</time>
      </trkpt>
      <trkpt lat="53.251489978283644" lon="-9.147939970716834">
        <ele>14.08</ele>
        <time>2026-07-02T11:19:06Z</time>
      </trkpt>
      <trkpt lat="53.251496013253927" lon="-9.14792999625206">
        <ele>14.08</ele>
        <time>2026-07-02T11:19:28Z</time>
      </trkpt>
      <trkpt lat="53.251691982150078" lon="-9.147724974900484">
        <ele>16</ele>
        <time>2026-07-02T11:19:38Z</time>
      </trkpt>
      <trkpt lat="53.251727018505335" lon="-9.147728998214006">
        <ele>15.039999999999999</ele>
        <time>2026-07-02T11:19:51Z</time>
      </trkpt>
      <trkpt lat="53.251775968819857" lon="-9.147773003205657">
        <ele>14.56</ele>
        <time>2026-07-02T11:19:53Z</time>
      </trkpt>
      <trkpt lat="53.251768006011844" lon="-9.147835029289126">
        <ele>14.08</ele>
        <time>2026-07-02T11:19:54Z</time>
      </trkpt>
      <trkpt lat="53.251755014061928" lon="-9.147937959060073">
        <ele>13.6</ele>
        <time>2026-07-02T11:19:55Z</time>
      </trkpt>
      <trkpt lat="53.25173900462687" lon="-9.148063017055392">
        <ele>13.119999999999999</ele>
        <time>2026-07-02T11:19:56Z</time>
      </trkpt>
      <trkpt lat="53.251721989363432" lon="-9.148196959868074">
        <ele>12.630000000000001</ele>
        <time>2026-07-02T11:19:57Z</time>
      </trkpt>
      <trkpt lat="53.251512022688985" lon="-9.149796981364489">
        <ele>14.08</ele>
        <time>2026-07-02T11:20:07Z</time>
      </trkpt>
      <trkpt lat="53.25132803991437" lon="-9.151225006207824">
        <ele>13.119999999999999</ele>
        <time>2026-07-02T11:20:17Z</time>
      </trkpt>
      <trkpt lat="53.251318987458944" lon="-9.151298012584448">
        <ele>13.119999999999999</ele>
        <time>2026-07-02T11:20:18Z</time>
      </trkpt>
      <trkpt lat="53.251312030479312" lon="-9.151351992040873">
        <ele>12.630000000000001</ele>
        <time>2026-07-02T11:20:19Z</time>
      </trkpt>
      <trkpt lat="53.251305995509028" lon="-9.151398008689284">
        <ele>12.630000000000001</ele>
        <time>2026-07-02T11:20:20Z</time>
      </trkpt>
      <trkpt lat="53.251300966367126" lon="-9.151436984539032">
        <ele>12.15</ele>
        <time>2026-07-02T11:20:21Z</time>
      </trkpt>
      <trkpt lat="53.251297026872635" lon="-9.151472020894289">
        <ele>12.15</ele>
        <time>2026-07-02T11:20:22Z</time>
      </trkpt>
      <trkpt lat="53.251293003559113" lon="-9.151502028107643">
        <ele>11.67</ele>
        <time>2026-07-02T11:20:23Z</time>
      </trkpt>
      <trkpt lat="53.251289986073971" lon="-9.151528012007475">
        <ele>11.67</ele>
        <time>2026-07-02T11:20:24Z</time>
      </trkpt>
      <trkpt lat="53.251289986073971" lon="-9.151528012007475">
        <ele>11.19</ele>
        <time>2026-07-02T11:20:37Z</time>
      </trkpt>
      <trkpt lat="53.251239024102688" lon="-9.151924978941679">
        <ele>10.710000000000001</ele>
        <time>2026-07-02T11:20:45Z</time>
      </trkpt>
      <trkpt lat="53.250968959182501" lon="-9.153426010161638">
        <ele>12.630000000000001</ele>
        <time>2026-07-02T11:20:56Z</time>
      </trkpt>
      <trkpt lat="53.250805009156466" lon="-9.154374003410339">
        <ele>16</ele>
        <time>2026-07-02T11:21:05Z</time>
      </trkpt>
      <trkpt lat="53.250765027478337" lon="-9.154605008661747">
        <ele>18.399999999999999</ele>
        <time>2026-07-02T11:21:13Z</time>
      </trkpt>
      <trkpt lat="53.25068598613143" lon="-9.155216971412301">
        <ele>19.84</ele>
        <time>2026-07-02T11:21:19Z</time>
      </trkpt>
      <trkpt lat="53.250433020293713" lon="-9.15697599761188">
        <ele>20.809999999999999</ele>
        <time>2026-07-02T11:21:30Z</time>
      </trkpt>
      <trkpt lat="53.250378035008907" lon="-9.157483018934727">
        <ele>20.32</ele>
        <time>2026-07-02T11:21:33Z</time>
      </trkpt>
      <trkpt lat="53.250347021967173" lon="-9.157661972567439">
        <ele>19.359999999999999</ele>
        <time>2026-07-02T11:21:34Z</time>
      </trkpt>
      <trkpt lat="53.250183993950486" lon="-9.15891095995903">
        <ele>16.960000000000001</ele>
        <time>2026-07-02T11:21:41Z</time>
      </trkpt>
      <trkpt lat="53.250160021707416" lon="-9.159094020724297">
        <ele>16.960000000000001</ele>
        <time>2026-07-02T11:21:42Z</time>
      </trkpt>
      <trkpt lat="53.249858021736145" lon="-9.161384962499142">
        <ele>16.48</ele>
        <time>2026-07-02T11:21:55Z</time>
      </trkpt>
      <trkpt lat="53.249518973752856" lon="-9.163383040577173">
        <ele>15.52</ele>
        <time>2026-07-02T11:22:06Z</time>
      </trkpt>
      <trkpt lat="53.248808020725846" lon="-9.165023965761066">
        <ele>16.48</ele>
        <time>2026-07-02T11:22:15Z</time>
      </trkpt>
      <trkpt lat="53.248250959441066" lon="-9.166648965328932">
        <ele>16</ele>
        <time>2026-07-02T11:22:23Z</time>
      </trkpt>
      <trkpt lat="53.248018026351929" lon="-9.168993970379233">
        <ele>15.52</ele>
        <time>2026-07-02T11:22:33Z</time>
      </trkpt>
      <trkpt lat="53.247819961979985" lon="-9.172920975834131">
        <ele>18.879999999999999</ele>
        <time>2026-07-02T11:22:49Z</time>
      </trkpt>
      <trkpt lat="53.247723989188671" lon="-9.176938002929092">
        <ele>16</ele>
        <time>2026-07-02T11:23:04Z</time>
      </trkpt>
      <trkpt lat="53.247552998363972" lon="-9.179901005700231">
        <ele>14.56</ele>
        <time>2026-07-02T11:23:15Z</time>
      </trkpt>
      <trkpt lat="53.247257033362985" lon="-9.182128999382258">
        <ele>12.15</ele>
        <time>2026-07-02T11:23:25Z</time>
      </trkpt>
      <trkpt lat="53.247375972568989" lon="-9.183459039777517">
        <ele>11.67</ele>
        <time>2026-07-02T11:23:31Z</time>
      </trkpt>
      <trkpt lat="53.247414026409388" lon="-9.183689039200544">
        <ele>11.67</ele>
        <time>2026-07-02T11:23:32Z</time>
      </trkpt>
      <trkpt lat="53.247472029179335" lon="-9.183915015310049">
        <ele>11.67</ele>
        <time>2026-07-02T11:23:33Z</time>
      </trkpt>
      <trkpt lat="53.247976033017039" lon="-9.185687033459544">
        <ele>14.56</ele>
        <time>2026-07-02T11:23:42Z</time>
      </trkpt>
      <trkpt lat="53.248198991641402" lon="-9.187907986342907">
        <ele>17.920000000000002</ele>
        <time>2026-07-02T11:23:53Z</time>
      </trkpt>
      <trkpt lat="53.248449023813009" lon="-9.190592961385846">
        <ele>17.440000000000001</ele>
        <time>2026-07-02T11:24:03Z</time>
      </trkpt>
      <trkpt lat="53.248591013252735" lon="-9.192231958732009">
        <ele>17.920000000000002</ele>
        <time>2026-07-02T11:24:10Z</time>
      </trkpt>
      <trkpt lat="53.248771978542209" lon="-9.194449977949262">
        <ele>18.879999999999999</ele>
        <time>2026-07-02T11:24:21Z</time>
      </trkpt>
      <trkpt lat="53.248912962153554" lon="-9.195033023133874">
        <ele>18.399999999999999</ele>
        <time>2026-07-02T11:24:24Z</time>
      </trkpt>
      <trkpt lat="53.24931101873517" lon="-9.196732034906745">
        <ele>18.879999999999999</ele>
        <time>2026-07-02T11:24:33Z</time>
      </trkpt>
      <trkpt lat="53.249380001798272" lon="-9.198487959802151">
        <ele>19.84</ele>
        <time>2026-07-02T11:24:40Z</time>
      </trkpt>
      <trkpt lat="53.249402968212962" lon="-9.199916990473867">
        <ele>19.359999999999999</ele>
        <time>2026-07-02T11:24:46Z</time>
      </trkpt>
      <trkpt lat="53.249366004019976" lon="-9.202287979424">
        <ele>17.440000000000001</ele>
        <time>2026-07-02T11:24:58Z</time>
      </trkpt>
      <trkpt lat="53.249097028747201" lon="-9.205577038228512">
        <ele>14.56</ele>
        <time>2026-07-02T11:25:14Z</time>
      </trkpt>
      <trkpt lat="53.249018993228674" lon="-9.20804601162672">
        <ele>14.56</ele>
        <time>2026-07-02T11:25:26Z</time>
      </trkpt>
      <trkpt lat="53.249183027073741" lon="-9.21070802025497">
        <ele>14.56</ele>
        <time>2026-07-02T11:25:39Z</time>
      </trkpt>
      <trkpt lat="53.249359969049692" lon="-9.213602961972356">
        <ele>17.920000000000002</ele>
        <time>2026-07-02T11:25:53Z</time>
      </trkpt>
      <trkpt lat="53.249486032873392" lon="-9.216213002800942">
        <ele>13.6</ele>
        <time>2026-07-02T11:26:05Z</time>
      </trkpt>
      <trkpt lat="53.249558033421636" lon="-9.218908958137035">
        <ele>10.710000000000001</ele>
        <time>2026-07-02T11:26:14Z</time>
      </trkpt>
      <trkpt lat="53.249635985121131" lon="-9.220709977671504">
        <ele>9.75</ele>
        <time>2026-07-02T11:26:22Z</time>
      </trkpt>
      <trkpt lat="53.249861039221287" lon="-9.222229029983282">
        <ele>10.23</ele>
        <time>2026-07-02T11:26:29Z</time>
      </trkpt>
      <trkpt lat="53.250497980043292" lon="-9.224363984540105">
        <ele>11.19</ele>
        <time>2026-07-02T11:26:37Z</time>
      </trkpt>
      <trkpt lat="53.250652961432934" lon="-9.225137969478965">
        <ele>13.119999999999999</ele>
        <time>2026-07-02T11:26:40Z</time>
      </trkpt>
      <trkpt lat="53.250698978081346" lon="-9.225726965814829">
        <ele>14.56</ele>
        <time>2026-07-02T11:26:42Z</time>
      </trkpt>
      <trkpt lat="53.2507099583745" lon="-9.226033994928002">
        <ele>15.039999999999999</ele>
        <time>2026-07-02T11:26:43Z</time>
      </trkpt>
      <trkpt lat="53.250681962817907" lon="-9.226349992677569">
        <ele>15.52</ele>
        <time>2026-07-02T11:26:44Z</time>
      </trkpt>
      <trkpt lat="53.250649021938443" lon="-9.226671019569039">
        <ele>16.48</ele>
        <time>2026-07-02T11:26:46Z</time>
      </trkpt>
      <trkpt lat="53.250397983938456" lon="-9.228921979665756">
        <ele>18.879999999999999</ele>
        <time>2026-07-02T11:26:52Z</time>
      </trkpt>
      <trkpt lat="53.250209977850318" lon="-9.232184970751405">
        <ele>26.57</ele>
        <time>2026-07-02T11:27:03Z</time>
      </trkpt>
      <trkpt lat="53.250168990343809" lon="-9.235821962356567">
        <ele>32.340000000000003</ele>
        <time>2026-07-02T11:27:15Z</time>
      </trkpt>
      <trkpt lat="53.250080980360508" lon="-9.239850975573063">
        <ele>25.609999999999999</ele>
        <time>2026-07-02T11:27:28Z</time>
      </trkpt>
      <trkpt lat="53.249690970405936" lon="-9.24244299530983">
        <ele>19.359999999999999</ele>
        <time>2026-07-02T11:27:37Z</time>
      </trkpt>
      <trkpt lat="53.249338008463383" lon="-9.245360987260938">
        <ele>21.77</ele>
        <time>2026-07-02T11:27:47Z</time>
      </trkpt>
      <trkpt lat="53.249303977936506" lon="-9.245639014989138">
        <ele>22.25</ele>
        <time>2026-07-02T11:27:48Z</time>
      </trkpt>
      <trkpt lat="53.249237006530166" lon="-9.245898015797138">
        <ele>22.73</ele>
        <time>2026-07-02T11:27:49Z</time>
      </trkpt>
      <trkpt lat="53.249159976840019" lon="-9.246156010776758">
        <ele>23.210000000000001</ele>
        <time>2026-07-02T11:27:50Z</time>
      </trkpt>
      <trkpt lat="53.24815196916461" lon="-9.249495025724173">
        <ele>20.809999999999999</ele>
        <time>2026-07-02T11:28:03Z</time>
      </trkpt>
      <trkpt lat="53.247761959210038" lon="-9.252359960228205">
        <ele>22.73</ele>
        <time>2026-07-02T11:28:13Z</time>
      </trkpt>
      <trkpt lat="53.247177992016077" lon="-9.255322040989995">
        <ele>19.359999999999999</ele>
        <time>2026-07-02T11:28:24Z</time>
      </trkpt>
      <trkpt lat="53.246687985956669" lon="-9.257534025236964">
        <ele>17.440000000000001</ele>
        <time>2026-07-02T11:28:33Z</time>
      </trkpt>
      <trkpt lat="53.246324965730309" lon="-9.259909959509969">
        <ele>17.440000000000001</ele>
        <time>2026-07-02T11:28:42Z</time>
      </trkpt>
      <trkpt lat="53.246326977387071" lon="-9.263276970013976">
        <ele>18.879999999999999</ele>
        <time>2026-07-02T11:28:53Z</time>
      </trkpt>
      <trkpt lat="53.246510960161686" lon="-9.266351033002138">
        <ele>19.84</ele>
        <time>2026-07-02T11:29:03Z</time>
      </trkpt>
      <trkpt lat="53.246681028977036" lon="-9.269590973854065">
        <ele>17.920000000000002</ele>
        <time>2026-07-02T11:29:14Z</time>
      </trkpt>
      <trkpt lat="53.246596036478877" lon="-9.271913012489677">
        <ele>18.399999999999999</ele>
        <time>2026-07-02T11:29:22Z</time>
      </trkpt>
      <trkpt lat="53.246674994006753" lon="-9.274207977578044">
        <ele>18.879999999999999</ele>
        <time>2026-07-02T11:29:30Z</time>
      </trkpt>
      <trkpt lat="53.246496962383389" lon="-9.276835033670068">
        <ele>17.920000000000002</ele>
        <time>2026-07-02T11:29:39Z</time>
      </trkpt>
      <trkpt lat="53.246334018185735" lon="-9.279595026746392">
        <ele>16.48</ele>
        <time>2026-07-02T11:29:49Z</time>
      </trkpt>
      <trkpt lat="53.2461510412395" lon="-9.282354013994336">
        <ele>18.399999999999999</ele>
        <time>2026-07-02T11:29:59Z</time>
      </trkpt>
      <trkpt lat="53.245621975511312" lon="-9.286276996135712">
        <ele>15.52</ele>
        <time>2026-07-02T11:30:14Z</time>
      </trkpt>
      <trkpt lat="53.24518796056509" lon="-9.28945298306644">
        <ele>15.52</ele>
        <time>2026-07-02T11:30:26Z</time>
      </trkpt>
      <trkpt lat="53.244609022513032" lon="-9.291261965408921">
        <ele>13.119999999999999</ele>
        <time>2026-07-02T11:30:33Z</time>
      </trkpt>
      <trkpt lat="53.244102001190186" lon="-9.293030966073275">
        <ele>10.710000000000001</ele>
        <time>2026-07-02T11:30:40Z</time>
      </trkpt>
      <trkpt lat="53.244060007855296" lon="-9.293296001851559">
        <ele>10.710000000000001</ele>
        <time>2026-07-02T11:30:41Z</time>
      </trkpt>
      <trkpt lat="53.244054978713393" lon="-9.293522983789444">
        <ele>10.23</ele>
        <time>2026-07-02T11:30:42Z</time>
      </trkpt>
      <trkpt lat="53.244152963161469" lon="-9.295607982203364">
        <ele>9.75</ele>
        <time>2026-07-02T11:30:50Z</time>
      </trkpt>
      <trkpt lat="53.244314985349774" lon="-9.297937983646989">
        <ele>10.23</ele>
        <time>2026-07-02T11:31:00Z</time>
      </trkpt>
      <trkpt lat="53.244160003960133" lon="-9.299726011231542">
        <ele>9.75</ele>
        <time>2026-07-02T11:31:10Z</time>
      </trkpt>
      <trkpt lat="53.24406897649169" lon="-9.300494967028499">
        <ele>7.83</ele>
        <time>2026-07-02T11:31:14Z</time>
      </trkpt>
      <trkpt lat="53.244080040603876" lon="-9.302373016253114">
        <ele>8.310000000000001</ele>
        <time>2026-07-02T11:31:24Z</time>
      </trkpt>
      <trkpt lat="53.244122033938766" lon="-9.303027978166938">
        <ele>10.23</ele>
        <time>2026-07-02T11:31:30Z</time>
      </trkpt>
      <trkpt lat="53.244161009788513" lon="-9.303573975339532">
        <ele>11.19</ele>
        <time>2026-07-02T11:31:42Z</time>
      </trkpt>
      <trkpt lat="53.244184982031584" lon="-9.303913023322821">
        <ele>10.23</ele>
        <time>2026-07-02T11:31:53Z</time>
      </trkpt>
      <trkpt lat="53.244187999516726" lon="-9.304658006876707">
        <ele>8.789999999999999</ele>
        <time>2026-07-02T11:32:02Z</time>
      </trkpt>
      <trkpt lat="53.244187999516726" lon="-9.30474903434515">
        <ele>8.789999999999999</ele>
        <time>2026-07-02T11:32:03Z</time>
      </trkpt>
      <trkpt lat="53.244187999516726" lon="-9.304913990199566">
        <ele>8.789999999999999</ele>
        <time>2026-07-02T11:32:05Z</time>
      </trkpt>
      <trkpt lat="53.244187999516726" lon="-9.304984984919429">
        <ele>8.789999999999999</ele>
        <time>2026-07-02T11:32:06Z</time>
      </trkpt>
      <trkpt lat="53.244187999516726" lon="-9.305411959066987">
        <ele>7.83</ele>
        <time>2026-07-02T11:32:15Z</time>
      </trkpt>
      <trkpt lat="53.244169978424907" lon="-9.305785959586501">
        <ele>8.789999999999999</ele>
        <time>2026-07-02T11:32:22Z</time>
      </trkpt>
      <trkpt lat="53.244131002575159" lon="-9.306547036394477">
        <ele>8.789999999999999</ele>
        <time>2026-07-02T11:32:31Z</time>
      </trkpt>
      <trkpt lat="53.244126979261637" lon="-9.306637980043888">
        <ele>8.310000000000001</ele>
        <time>2026-07-02T11:32:32Z</time>
      </trkpt>
      <trkpt lat="53.244122033938766" lon="-9.306733030825853">
        <ele>8.310000000000001</ele>
        <time>2026-07-02T11:32:33Z</time>
      </trkpt>
      <trkpt lat="53.244117004796863" lon="-9.30683403275907">
        <ele>7.83</ele>
        <time>2026-07-02T11:32:34Z</time>
      </trkpt>
      <trkpt lat="53.244110969826579" lon="-9.306950038298965">
        <ele>7.35</ele>
        <time>2026-07-02T11:32:35Z</time>
      </trkpt>
      <trkpt lat="53.244105018675327" lon="-9.307067971676588">
        <ele>7.35</ele>
        <time>2026-07-02T11:32:36Z</time>
      </trkpt>
      <trkpt lat="53.244060007855296" lon="-9.308448974043131">
        <ele>10.710000000000001</ele>
        <time>2026-07-02T11:32:45Z</time>
      </trkpt>
      <trkpt lat="53.244060007855296" lon="-9.309013998135924">
        <ele>11.67</ele>
        <time>2026-07-02T11:32:48Z</time>
      </trkpt>
      <trkpt lat="53.244060007855296" lon="-9.309206027537584">
        <ele>12.15</ele>
        <time>2026-07-02T11:32:49Z</time>
      </trkpt>
      <trkpt lat="53.244060007855296" lon="-9.309798963367939">
        <ele>13.6</ele>
        <time>2026-07-02T11:32:52Z</time>
      </trkpt>
      <trkpt lat="53.244060007855296" lon="-9.310401035472751">
        <ele>15.52</ele>
        <time>2026-07-02T11:32:55Z</time>
      </trkpt>
      <trkpt lat="53.244060007855296" lon="-9.310612007975578">
        <ele>16.48</ele>
        <time>2026-07-02T11:32:56Z</time>
      </trkpt>
      <trkpt lat="53.244088003411889" lon="-9.312750985845923">
        <ele>21.77</ele>
        <time>2026-07-02T11:33:06Z</time>
      </trkpt>
      <trkpt lat="53.244091020897031" lon="-9.315606029704213">
        <ele>17.440000000000001</ele>
        <time>2026-07-02T11:33:19Z</time>
      </trkpt>
      <trkpt lat="53.244054978713393" lon="-9.319301024079323">
        <ele>17.440000000000001</ele>
        <time>2026-07-02T11:33:32Z</time>
      </trkpt>
      <trkpt lat="53.243994964286685" lon="-9.322963999584317">
        <ele>18.399999999999999</ele>
        <time>2026-07-02T11:33:45Z</time>
      </trkpt>
      <trkpt lat="53.243956994265318" lon="-9.325879979878664">
        <ele>17.920000000000002</ele>
        <time>2026-07-02T11:33:56Z</time>
      </trkpt>
      <trkpt lat="53.243970992043614" lon="-9.329336006194353">
        <ele>15.039999999999999</ele>
        <time>2026-07-02T11:34:09Z</time>
      </trkpt>
      <trkpt lat="53.243993036448956" lon="-9.333179024979472">
        <ele>17.920000000000002</ele>
        <time>2026-07-02T11:34:23Z</time>
      </trkpt>
      <trkpt lat="53.244034023955464" lon="-9.336966974660754">
        <ele>18.879999999999999</ele>
        <time>2026-07-02T11:34:37Z</time>
      </trkpt>
      <trkpt lat="53.244209960103035" lon="-9.340246981009841">
        <ele>19.359999999999999</ele>
        <time>2026-07-02T11:34:49Z</time>
      </trkpt>
      <trkpt lat="53.244444988667965" lon="-9.343673000112176">
        <ele>17.440000000000001</ele>
        <time>2026-07-02T11:35:01Z</time>
      </trkpt>
      <trkpt lat="53.244637018069625" lon="-9.34684001840651">
        <ele>20.32</ele>
        <time>2026-07-02T11:35:12Z</time>
      </trkpt>
      <trkpt lat="53.244847990572453" lon="-9.35075000859797">
        <ele>21.77</ele>
        <time>2026-07-02T11:35:26Z</time>
      </trkpt>
      <trkpt lat="53.24497195892036" lon="-9.35425297357142">
        <ele>20.32</ele>
        <time>2026-07-02T11:35:38Z</time>
      </trkpt>
      <trkpt lat="53.245240012183785" lon="-9.357904968783259">
        <ele>21.77</ele>
        <time>2026-07-02T11:35:51Z</time>
      </trkpt>
      <trkpt lat="53.24563798494637" lon="-9.360793037340045">
        <ele>19.84</ele>
        <time>2026-07-02T11:36:02Z</time>
      </trkpt>
      <trkpt lat="53.24600201100111" lon="-9.363554958254099">
        <ele>18.399999999999999</ele>
        <time>2026-07-02T11:36:13Z</time>
      </trkpt>
      <trkpt lat="53.246238967403769" lon="-9.366387035697699">
        <ele>21.77</ele>
        <time>2026-07-02T11:36:25Z</time>
      </trkpt>
      <trkpt lat="53.246183982118964" lon="-9.368775961920619">
        <ele>23.210000000000001</ele>
        <time>2026-07-02T11:36:35Z</time>
      </trkpt>
      <trkpt lat="53.246140982955694" lon="-9.371195985004306">
        <ele>28.98</ele>
        <time>2026-07-02T11:36:47Z</time>
      </trkpt>
      <trkpt lat="53.246076023206115" lon="-9.373886995017529">
        <ele>35.229999999999997</ele>
        <time>2026-07-02T11:37:00Z</time>
      </trkpt>
      <trkpt lat="53.246034029871225" lon="-9.37453499995172">
        <ele>36.189999999999998</ele>
        <time>2026-07-02T11:37:03Z</time>
      </trkpt>
      <trkpt lat="53.246006034314632" lon="-9.376588985323906">
        <ele>36.670000000000002</ele>
        <time>2026-07-02T11:37:13Z</time>
      </trkpt>
      <trkpt lat="53.24585298076272" lon="-9.379531033337116">
        <ele>37.630000000000003</ele>
        <time>2026-07-02T11:37:27Z</time>
      </trkpt>
      <trkpt lat="53.245773017406464" lon="-9.380725035443902">
        <ele>36.670000000000002</ele>
        <time>2026-07-02T11:37:33Z</time>
      </trkpt>
      <trkpt lat="53.24552801437676" lon="-9.383004996925592">
        <ele>35.710000000000001</ele>
        <time>2026-07-02T11:37:42Z</time>
      </trkpt>
      <trkpt lat="53.245084024965763" lon="-9.386923033744097">
        <ele>30.899999999999999</ele>
        <time>2026-07-02T11:37:57Z</time>
      </trkpt>
      <trkpt lat="53.244703989475965" lon="-9.39038903452456">
        <ele>29.940000000000001</ele>
        <time>2026-07-02T11:38:11Z</time>
      </trkpt>
      <trkpt lat="53.244323031976819" lon="-9.393795020878315">
        <ele>28.98</ele>
        <time>2026-07-02T11:38:25Z</time>
      </trkpt>
      <trkpt lat="53.243949031457305" lon="-9.396991040557623">
        <ele>30.899999999999999</ele>
        <time>2026-07-02T11:38:38Z</time>
      </trkpt>
      <trkpt lat="53.243636973202229" lon="-9.399760002270341">
        <ele>25.609999999999999</ele>
        <time>2026-07-02T11:38:49Z</time>
      </trkpt>
      <trkpt lat="53.243475034832954" lon="-9.402284966781735">
        <ele>23.690000000000001</ele>
        <time>2026-07-02T11:38:58Z</time>
      </trkpt>
      <trkpt lat="53.243286022916436" lon="-9.405740993097425">
        <ele>23.210000000000001</ele>
        <time>2026-07-02T11:39:07Z</time>
      </trkpt>
      <trkpt lat="53.243157025426626" lon="-9.408131008967757">
        <ele>22.73</ele>
        <time>2026-07-02T11:39:14Z</time>
      </trkpt>
      <trkpt lat="53.242614967748523" lon="-9.410988986492157">
        <ele>28.5</ele>
        <time>2026-07-02T11:39:23Z</time>
      </trkpt>
      <trkpt lat="53.241764958947897" lon="-9.413793990388513">
        <ele>24.649999999999999</ele>
        <time>2026-07-02T11:39:33Z</time>
      </trkpt>
      <trkpt lat="53.241463964805007" lon="-9.415771029889584">
        <ele>21.289999999999999</ele>
        <time>2026-07-02T11:39:40Z</time>
      </trkpt>
      <trkpt lat="53.241327004507184" lon="-9.416576027870178">
        <ele>20.32</ele>
        <time>2026-07-02T11:39:43Z</time>
      </trkpt>
      <trkpt lat="53.241183003410697" lon="-9.417076008394361">
        <ele>19.84</ele>
        <time>2026-07-02T11:39:45Z</time>
      </trkpt>
      <trkpt lat="53.240253031253815" lon="-9.4193309918046">
        <ele>23.210000000000001</ele>
        <time>2026-07-02T11:39:55Z</time>
      </trkpt>
      <trkpt lat="53.239355999976397" lon="-9.421560997143388">
        <ele>23.210000000000001</ele>
        <time>2026-07-02T11:40:05Z</time>
      </trkpt>
      <trkpt lat="53.239065986126661" lon="-9.423656975850463">
        <ele>22.25</ele>
        <time>2026-07-02T11:40:13Z</time>
      </trkpt>
      <trkpt lat="53.239288022741675" lon="-9.425802994519472">
        <ele>23.690000000000001</ele>
        <time>2026-07-02T11:40:21Z</time>
      </trkpt>
      <trkpt lat="53.240068964660168" lon="-9.428556030616164">
        <ele>27.050000000000001</ele>
        <time>2026-07-02T11:40:32Z</time>
      </trkpt>
      <trkpt lat="53.240842027589679" lon="-9.431419959291816">
        <ele>32.340000000000003</ele>
        <time>2026-07-02T11:40:44Z</time>
      </trkpt>
      <trkpt lat="53.241092981770635" lon="-9.43327403627336">
        <ele>33.299999999999997</ele>
        <time>2026-07-02T11:40:53Z</time>
      </trkpt>
      <trkpt lat="53.241379978135228" lon="-9.435600014403462">
        <ele>35.710000000000001</ele>
        <time>2026-07-02T11:41:03Z</time>
      </trkpt>
      <trkpt lat="53.24189999140799" lon="-9.43806798197329">
        <ele>34.740000000000002</ele>
        <time>2026-07-02T11:41:12Z</time>
      </trkpt>
      <trkpt lat="53.242107024416327" lon="-9.439100967720151">
        <ele>33.299999999999997</ele>
        <time>2026-07-02T11:41:16Z</time>
      </trkpt>
      <trkpt lat="53.242147006094456" lon="-9.439357034862042">
        <ele>33.299999999999997</ele>
        <time>2026-07-02T11:41:18Z</time>
      </trkpt>
      <trkpt lat="53.242009961977601" lon="-9.441860960796475">
        <ele>32.340000000000003</ele>
        <time>2026-07-02T11:41:26Z</time>
      </trkpt>
      <trkpt lat="53.241633027791977" lon="-9.445659974589944">
        <ele>28.02</ele>
        <time>2026-07-02T11:41:39Z</time>
      </trkpt>
      <trkpt lat="53.241307977586985" lon="-9.449413977563381">
        <ele>28.98</ele>
        <time>2026-07-02T11:41:52Z</time>
      </trkpt>
      <trkpt lat="53.241218961775303" lon="-9.451006958261132">
        <ele>30.899999999999999</ele>
        <time>2026-07-02T11:41:59Z</time>
      </trkpt>
      <trkpt lat="53.240945041179657" lon="-9.453715989366174">
        <ele>30.420000000000002</ele>
        <time>2026-07-02T11:42:10Z</time>
      </trkpt>
      <trkpt lat="53.240820989012718" lon="-9.456402976065874">
        <ele>31.379999999999999</ele>
        <time>2026-07-02T11:42:20Z</time>
      </trkpt>
      <trkpt lat="53.240737002342939" lon="-9.458499038591981">
        <ele>37.149999999999999</ele>
        <time>2026-07-02T11:42:29Z</time>
      </trkpt>
      <trkpt lat="53.240598030388355" lon="-9.461402026936412">
        <ele>38.590000000000003</ele>
        <time>2026-07-02T11:42:41Z</time>
      </trkpt>
      <trkpt lat="53.240469032898545" lon="-9.463818026706576">
        <ele>36.189999999999998</ele>
        <time>2026-07-02T11:42:51Z</time>
      </trkpt>
      <trkpt lat="53.240217994898558" lon="-9.466249030083418">
        <ele>34.259999999999998</ele>
        <time>2026-07-02T11:43:02Z</time>
      </trkpt>
      <trkpt lat="53.239821027964354" lon="-9.468907015398145">
        <ele>34.259999999999998</ele>
        <time>2026-07-02T11:43:13Z</time>
      </trkpt>
      <trkpt lat="53.239218033850193" lon="-9.473068965598941">
        <ele>28.5</ele>
        <time>2026-07-02T11:43:29Z</time>
      </trkpt>
      <trkpt lat="53.238684022799134" lon="-9.476573020219803">
        <ele>27.050000000000001</ele>
        <time>2026-07-02T11:43:42Z</time>
      </trkpt>
      <trkpt lat="53.23818395845592" lon="-9.480300033465028">
        <ele>25.129999999999999</ele>
        <time>2026-07-02T11:43:56Z</time>
      </trkpt>
      <trkpt lat="53.237718008458614" lon="-9.483838034793735">
        <ele>22.73</ele>
        <time>2026-07-02T11:44:08Z</time>
      </trkpt>
      <trkpt lat="53.237205035984516" lon="-9.487642999738455">
        <ele>22.25</ele>
        <time>2026-07-02T11:44:21Z</time>
      </trkpt>
      <trkpt lat="53.236920973286033" lon="-9.489964032545686">
        <ele>24.170000000000002</ele>
        <time>2026-07-02T11:44:30Z</time>
      </trkpt>
      <trkpt lat="53.2369140163064" lon="-9.491831017658114">
        <ele>24.649999999999999</ele>
        <time>2026-07-02T11:44:39Z</time>
      </trkpt>
      <trkpt lat="53.237307965755463" lon="-9.493581997230649">
        <ele>23.210000000000001</ele>
        <time>2026-07-02T11:44:46Z</time>
      </trkpt>
      <trkpt lat="53.238296024501324" lon="-9.495831029489636">
        <ele>21.77</ele>
        <time>2026-07-02T11:44:56Z</time>
      </trkpt>
      <trkpt lat="53.239626986905932" lon="-9.498661011457443">
        <ele>20.32</ele>
        <time>2026-07-02T11:45:10Z</time>
      </trkpt>
      <trkpt lat="53.240685034543276" lon="-9.500934015959501">
        <ele>25.129999999999999</ele>
        <time>2026-07-02T11:45:23Z</time>
      </trkpt>
      <trkpt lat="53.241604026407003" lon="-9.502983978018165">
        <ele>26.57</ele>
        <time>2026-07-02T11:45:36Z</time>
      </trkpt>
      <trkpt lat="53.241950031369925" lon="-9.503708006814122">
        <ele>26.09</ele>
        <time>2026-07-02T11:45:41Z</time>
      </trkpt>
      <trkpt lat="53.242038041353226" lon="-9.503803979605436">
        <ele>26.09</ele>
        <time>2026-07-02T11:45:42Z</time>
      </trkpt>
      <trkpt lat="53.242128985002637" lon="-9.503902969881892">
        <ele>26.09</ele>
        <time>2026-07-02T11:45:43Z</time>
      </trkpt>
      <trkpt lat="53.242231998592615" lon="-9.503925014287233">
        <ele>26.09</ele>
        <time>2026-07-02T11:45:44Z</time>
      </trkpt>
      <trkpt lat="53.242344986647367" lon="-9.503948986530304">
        <ele>26.09</ele>
        <time>2026-07-02T11:45:45Z</time>
      </trkpt>
      <trkpt lat="53.242466021329165" lon="-9.503974970430136">
        <ele>26.09</ele>
        <time>2026-07-02T11:45:46Z</time>
      </trkpt>
      <trkpt lat="53.24415204115212" lon="-9.504230031743646">
        <ele>28.5</ele>
        <time>2026-07-02T11:45:58Z</time>
      </trkpt>
      <trkpt lat="53.245703028514981" lon="-9.504704028367996">
        <ele>26.57</ele>
        <time>2026-07-02T11:46:07Z</time>
      </trkpt>
      <trkpt lat="53.247949965298176" lon="-9.505693009123206">
        <ele>23.690000000000001</ele>
        <time>2026-07-02T11:46:19Z</time>
      </trkpt>
      <trkpt lat="53.25058096088469" lon="-9.506837977096438">
        <ele>31.379999999999999</ele>
        <time>2026-07-02T11:46:34Z</time>
      </trkpt>
      <trkpt lat="53.253125958144665" lon="-9.507962996140122">
        <ele>32.82</ele>
        <time>2026-07-02T11:46:49Z</time>
      </trkpt>
      <trkpt lat="53.255393011495471" lon="-9.509213995188475">
        <ele>28.02</ele>
        <time>2026-07-02T11:47:02Z</time>
      </trkpt>
      <trkpt lat="53.257673978805542" lon="-9.510896997526288">
        <ele>31.859999999999999</ele>
        <time>2026-07-02T11:47:15Z</time>
      </trkpt>
      <trkpt lat="53.259914964437485" lon="-9.512700028717518">
        <ele>33.299999999999997</ele>
        <time>2026-07-02T11:47:27Z</time>
      </trkpt>
      <trkpt lat="53.262311015278101" lon="-9.515371005982161">
        <ele>28.02</ele>
        <time>2026-07-02T11:47:41Z</time>
      </trkpt>
      <trkpt lat="53.264338010922074" lon="-9.517795974388719">
        <ele>24.170000000000002</ele>
        <time>2026-07-02T11:47:53Z</time>
      </trkpt>
      <trkpt lat="53.265652963891625" lon="-9.518777998164296">
        <ele>28.5</ele>
        <time>2026-07-02T11:48:00Z</time>
      </trkpt>
      <trkpt lat="53.268244983628392" lon="-9.520661998540163">
        <ele>32.340000000000003</ele>
        <time>2026-07-02T11:48:14Z</time>
      </trkpt>
      <trkpt lat="53.270096965134144" lon="-9.522319016978145">
        <ele>22.25</ele>
        <time>2026-07-02T11:48:25Z</time>
      </trkpt>
      <trkpt lat="53.271875018253922" lon="-9.524258002638817">
        <ele>12.630000000000001</ele>
        <time>2026-07-02T11:48:36Z</time>
      </trkpt>
      <trkpt lat="53.273184020072222" lon="-9.52536198310554">
        <ele>13.6</ele>
        <time>2026-07-02T11:48:44Z</time>
      </trkpt>
      <trkpt lat="53.274774989113212" lon="-9.526896961033344">
        <ele>14.08</ele>
        <time>2026-07-02T11:48:54Z</time>
      </trkpt>
      <trkpt lat="53.276283983141184" lon="-9.52903401106596">
        <ele>14.08</ele>
        <time>2026-07-02T11:49:05Z</time>
      </trkpt>
      <trkpt lat="53.277629027143121" lon="-9.531315984204412">
        <ele>8.789999999999999</ele>
        <time>2026-07-02T11:49:15Z</time>
      </trkpt>
      <trkpt lat="53.279179008677602" lon="-9.533865004777908">
        <ele>5.42</ele>
        <time>2026-07-02T11:49:26Z</time>
      </trkpt>
      <trkpt lat="53.27930498868227" lon="-9.534128028899431">
        <ele>5.42</ele>
        <time>2026-07-02T11:49:27Z</time>
      </trkpt>
      <trkpt lat="53.279409008100629" lon="-9.534417036920786">
        <ele>5.42</ele>
        <time>2026-07-02T11:49:28Z</time>
      </trkpt>
      <trkpt lat="53.280380973592401" lon="-9.537322958931327">
        <ele>8.310000000000001</ele>
        <time>2026-07-02T11:49:38Z</time>
      </trkpt>
      <trkpt lat="53.281493000686169" lon="-9.539159014821053">
        <ele>12.630000000000001</ele>
        <time>2026-07-02T11:49:46Z</time>
      </trkpt>
      <trkpt lat="53.283297037705779" lon="-9.541229009628296">
        <ele>7.35</ele>
        <time>2026-07-02T11:49:57Z</time>
      </trkpt>
      <trkpt lat="53.285077018663287" lon="-9.543403023853898">
        <ele>6.87</ele>
        <time>2026-07-02T11:50:08Z</time>
      </trkpt>
      <trkpt lat="53.286361964419484" lon="-9.54579396173358">
        <ele>8.789999999999999</ele>
        <time>2026-07-02T11:50:18Z</time>
      </trkpt>
      <trkpt lat="53.287468040362" lon="-9.547850964590907">
        <ele>7.83</ele>
        <time>2026-07-02T11:50:27Z</time>
      </trkpt>
      <trkpt lat="53.287582034245133" lon="-9.548060009256005">
        <ele>7.83</ele>
        <time>2026-07-02T11:50:28Z</time>
      </trkpt>
      <trkpt lat="53.287658980116248" lon="-9.548298977315426">
        <ele>7.83</ele>
        <time>2026-07-02T11:50:29Z</time>
      </trkpt>
      <trkpt lat="53.287733998149633" lon="-9.548531994223595">
        <ele>7.35</ele>
        <time>2026-07-02T11:50:30Z</time>
      </trkpt>
      <trkpt lat="53.287809016183019" lon="-9.548762999475002">
        <ele>7.83</ele>
        <time>2026-07-02T11:50:31Z</time>
      </trkpt>
      <trkpt lat="53.287856038659811" lon="-9.54901403747499">
        <ele>7.83</ele>
        <time>2026-07-02T11:50:32Z</time>
      </trkpt>
      <trkpt lat="53.28789995983243" lon="-9.549259040504694">
        <ele>7.35</ele>
        <time>2026-07-02T11:50:33Z</time>
      </trkpt>
      <trkpt lat="53.287942036986351" lon="-9.54950999468565">
        <ele>6.87</ele>
        <time>2026-07-02T11:50:34Z</time>
      </trkpt>
      <trkpt lat="53.287952011451125" lon="-9.549764972180128">
        <ele>6.39</ele>
        <time>2026-07-02T11:50:35Z</time>
      </trkpt>
      <trkpt lat="53.287961985915899" lon="-9.550015004351735">
        <ele>5.42</ele>
        <time>2026-07-02T11:50:36Z</time>
      </trkpt>
      <trkpt lat="53.28813498839736" lon="-9.552039988338947">
        <ele>3.5</ele>
        <time>2026-07-02T11:50:45Z</time>
      </trkpt>
      <trkpt lat="53.288236996158957" lon="-9.552500993013382">
        <ele>3.5</ele>
        <time>2026-07-02T11:50:47Z</time>
      </trkpt>
      <trkpt lat="53.288892041891813" lon="-9.554517008364201">
        <ele>5.91</ele>
        <time>2026-07-02T11:50:57Z</time>
      </trkpt>
      <trkpt lat="53.289222959429026" lon="-9.555763984099031">
        <ele>8.310000000000001</ele>
        <time>2026-07-02T11:51:05Z</time>
      </trkpt>
      <trkpt lat="53.289268976077437" lon="-9.55593497492373">
        <ele>8.310000000000001</ele>
        <time>2026-07-02T11:51:06Z</time>
      </trkpt>
      <trkpt lat="53.289251960813999" lon="-9.557742029428482">
        <ele>6.39</ele>
        <time>2026-07-02T11:51:14Z</time>
      </trkpt>
      <trkpt lat="53.289153976365924" lon="-9.558593966066837">
        <ele>5.91</ele>
        <time>2026-07-02T11:51:18Z</time>
      </trkpt>
      <trkpt lat="53.28860898502171" lon="-9.560649963095784">
        <ele>6.87</ele>
        <time>2026-07-02T11:51:28Z</time>
      </trkpt>
      <trkpt lat="53.287927033379674" lon="-9.562720963731408">
        <ele>10.710000000000001</ele>
        <time>2026-07-02T11:51:38Z</time>
      </trkpt>
      <trkpt lat="53.287233011797071" lon="-9.564771009609103">
        <ele>15.039999999999999</ele>
        <time>2026-07-02T11:51:48Z</time>
      </trkpt>
      <trkpt lat="53.286934029310942" lon="-9.565220028162003">
        <ele>16.960000000000001</ele>
        <time>2026-07-02T11:51:51Z</time>
      </trkpt>
      <trkpt lat="53.286820035427809" lon="-9.565351959317923">
        <ele>17.920000000000002</ele>
        <time>2026-07-02T11:51:52Z</time>
      </trkpt>
      <trkpt lat="53.286696989089251" lon="-9.565448015928268">
        <ele>18.399999999999999</ele>
        <time>2026-07-02T11:51:53Z</time>
      </trkpt>
      <trkpt lat="53.285410031676292" lon="-9.566619973629713">
        <ele>23.210000000000001</ele>
        <time>2026-07-02T11:52:03Z</time>
      </trkpt>
      <trkpt lat="53.284045038744807" lon="-9.568076999858022">
        <ele>23.210000000000001</ele>
        <time>2026-07-02T11:52:13Z</time>
      </trkpt>
      <trkpt lat="53.282749028876424" lon="-9.569479962810874">
        <ele>18.879999999999999</ele>
        <time>2026-07-02T11:52:23Z</time>
      </trkpt>
      <trkpt lat="53.281568018719554" lon="-9.571493966504931">
        <ele>14.08</ele>
        <time>2026-07-02T11:52:33Z</time>
      </trkpt>
      <trkpt lat="53.280387008562684" lon="-9.573467988520861">
        <ele>12.630000000000001</ele>
        <time>2026-07-02T11:52:43Z</time>
      </trkpt>
      <trkpt lat="53.279115976765752" lon="-9.575671004131436">
        <ele>15.039999999999999</ele>
        <time>2026-07-02T11:52:54Z</time>
      </trkpt>
      <trkpt lat="53.278268985450268" lon="-9.57731201313436">
        <ele>16.48</ele>
        <time>2026-07-02T11:53:02Z</time>
      </trkpt>
      <trkpt lat="53.276924025267363" lon="-9.579376978799701">
        <ele>16.960000000000001</ele>
        <time>2026-07-02T11:53:13Z</time>
      </trkpt>
      <trkpt lat="53.275486025959253" lon="-9.581084959208965">
        <ele>17.920000000000002</ele>
        <time>2026-07-02T11:53:24Z</time>
      </trkpt>
      <trkpt lat="53.274308033287525" lon="-9.582237973809242">
        <ele>16</ele>
        <time>2026-07-02T11:53:32Z</time>
      </trkpt>
      <trkpt lat="53.273019986227155" lon="-9.583230977877975">
        <ele>9.75</ele>
        <time>2026-07-02T11:53:41Z</time>
      </trkpt>
      <trkpt lat="53.272382961586118" lon="-9.583817040547729">
        <ele>5.42</ele>
        <time>2026-07-02T11:53:46Z</time>
      </trkpt>
      <trkpt lat="53.272249018773437" lon="-9.583965986967087">
        <ele>4.94</ele>
        <time>2026-07-02T11:53:47Z</time>
      </trkpt>
      <trkpt lat="53.271400015801191" lon="-9.585680002346635">
        <ele>4.94</ele>
        <time>2026-07-02T11:53:55Z</time>
      </trkpt>
      <trkpt lat="53.271117964759469" lon="-9.586315015330911">
        <ele>6.87</ele>
        <time>2026-07-02T11:53:58Z</time>
      </trkpt>
      <trkpt lat="53.270996008068323" lon="-9.586477959528565">
        <ele>7.35</ele>
        <time>2026-07-02T11:53:59Z</time>
      </trkpt>
      <trkpt lat="53.269588015973568" lon="-9.588432032614946">
        <ele>11.19</ele>
        <time>2026-07-02T11:54:10Z</time>
      </trkpt>
      <trkpt lat="53.269007988274097" lon="-9.589376002550125">
        <ele>13.6</ele>
        <time>2026-07-02T11:54:15Z</time>
      </trkpt>
      <trkpt lat="53.268871027976274" lon="-9.589513968676329">
        <ele>13.119999999999999</ele>
        <time>2026-07-02T11:54:16Z</time>
      </trkpt>
      <trkpt lat="53.268727026879787" lon="-9.589618993923068">
        <ele>13.119999999999999</ele>
        <time>2026-07-02T11:54:17Z</time>
      </trkpt>
      <trkpt lat="53.267607036978006" lon="-9.59037596359849">
        <ele>8.789999999999999</ele>
        <time>2026-07-02T11:54:25Z</time>
      </trkpt>
      <trkpt lat="53.267503017559648" lon="-9.590528011322022">
        <ele>9.27</ele>
        <time>2026-07-02T11:54:26Z</time>
      </trkpt>
      <trkpt lat="53.267405033111572" lon="-9.590671006590128">
        <ele>9.75</ele>
        <time>2026-07-02T11:54:27Z</time>
      </trkpt>
      <trkpt lat="53.267328003421426" lon="-9.590870998799801">
        <ele>10.23</ele>
        <time>2026-07-02T11:54:28Z</time>
      </trkpt>
      <trkpt lat="53.267297996208072" lon="-9.591107033193111">
        <ele>10.710000000000001</ele>
        <time>2026-07-02T11:54:29Z</time>
      </trkpt>
      <trkpt lat="53.267260026186705" lon="-9.591328985989094">
        <ele>11.19</ele>
        <time>2026-07-02T11:54:30Z</time>
      </trkpt>
      <trkpt lat="53.267219038680196" lon="-9.591569965705276">
        <ele>11.67</ele>
        <time>2026-07-02T11:54:31Z</time>
      </trkpt>
      <trkpt lat="53.267176961526275" lon="-9.59181597456336">
        <ele>12.15</ele>
        <time>2026-07-02T11:54:32Z</time>
      </trkpt>
      <trkpt lat="53.267103033140302" lon="-9.59205100312829">
        <ele>12.15</ele>
        <time>2026-07-02T11:54:33Z</time>
      </trkpt>
      <trkpt lat="53.266270039603114" lon="-9.594260975718498">
        <ele>11.67</ele>
        <time>2026-07-02T11:54:43Z</time>
      </trkpt>
      <trkpt lat="53.265477027744055" lon="-9.595726970583201">
        <ele>13.119999999999999</ele>
        <time>2026-07-02T11:54:52Z</time>
      </trkpt>
      <trkpt lat="53.264730032533407" lon="-9.597126999869943">
        <ele>15.039999999999999</ele>
        <time>2026-07-02T11:55:03Z</time>
      </trkpt>
      <trkpt lat="53.263996029272676" lon="-9.598541026934981">
        <ele>14.08</ele>
        <time>2026-07-02T11:55:13Z</time>
      </trkpt>
      <trkpt lat="53.263425976037979" lon="-9.599780039861798">
        <ele>15.52</ele>
        <time>2026-07-02T11:55:23Z</time>
      </trkpt>
      <trkpt lat="53.262927001342177" lon="-9.601256009191275">
        <ele>16.960000000000001</ele>
        <time>2026-07-02T11:55:32Z</time>
      </trkpt>
      <trkpt lat="53.26258996501565" lon="-9.602474989369512">
        <ele>17.440000000000001</ele>
        <time>2026-07-02T11:55:40Z</time>
      </trkpt>
      <trkpt lat="53.262136001139879" lon="-9.604195961728692">
        <ele>18.399999999999999</ele>
        <time>2026-07-02T11:55:49Z</time>
      </trkpt>
      <trkpt lat="53.261788990348577" lon="-9.604934994131327">
        <ele>20.809999999999999</ele>
        <time>2026-07-02T11:55:53Z</time>
      </trkpt>
      <trkpt lat="53.260662965476513" lon="-9.606909016147256">
        <ele>26.09</ele>
        <time>2026-07-02T11:56:05Z</time>
      </trkpt>
      <trkpt lat="53.2597950194031" lon="-9.608573997393251">
        <ele>29.460000000000001</ele>
        <time>2026-07-02T11:56:15Z</time>
      </trkpt>
      <trkpt lat="53.258854988962412" lon="-9.610836021602154">
        <ele>32.340000000000003</ele>
        <time>2026-07-02T11:56:27Z</time>
      </trkpt>
      <trkpt lat="53.258796986192465" lon="-9.610995026305318">
        <ele>32.82</ele>
        <time>2026-07-02T11:56:30Z</time>
      </trkpt>
      <trkpt lat="53.258791035041213" lon="-9.611053029075265">
        <ele>32.82</ele>
        <time>2026-07-02T11:56:31Z</time>
      </trkpt>
      <trkpt lat="53.258817018941045" lon="-9.611079012975097">
        <ele>33.299999999999997</ele>
        <time>2026-07-02T11:56:32Z</time>
      </trkpt>
      <trkpt lat="53.25885197147727" lon="-9.611113965511322">
        <ele>33.299999999999997</ele>
        <time>2026-07-02T11:56:33Z</time>
      </trkpt>
      <trkpt lat="53.258887007832527" lon="-9.611149001866579">
        <ele>33.299999999999997</ele>
        <time>2026-07-02T11:56:34Z</time>
      </trkpt>
      <trkpt lat="53.258909974247217" lon="-9.611227959394455">
        <ele>33.299999999999997</ele>
        <time>2026-07-02T11:56:35Z</time>
      </trkpt>
      <trkpt lat="53.258934030309319" lon="-9.611307000741363">
        <ele>33.299999999999997</ele>
        <time>2026-07-02T11:56:36Z</time>
      </trkpt>
      <trkpt lat="53.258960014209151" lon="-9.611396016553044">
        <ele>33.299999999999997</ele>
        <time>2026-07-02T11:56:37Z</time>
      </trkpt>
      <trkpt lat="53.258989015594125" lon="-9.61149400100112">
        <ele>33.299999999999997</ele>
        <time>2026-07-02T11:56:38Z</time>
      </trkpt>
      <trkpt lat="53.259312976151705" lon="-9.612584989517927">
        <ele>33.299999999999997</ele>
        <time>2026-07-02T11:56:47Z</time>
      </trkpt>
      <trkpt lat="53.259401991963387" lon="-9.612886989489198">
        <ele>33.299999999999997</ele>
        <time>2026-07-02T11:56:50Z</time>
      </trkpt>
      <trkpt lat="53.259455971419811" lon="-9.612936023622751">
        <ele>33.780000000000001</ele>
        <time>2026-07-02T11:56:51Z</time>
      </trkpt>
      <trkpt lat="53.259515985846519" lon="-9.612991008907557">
        <ele>33.780000000000001</ele>
        <time>2026-07-02T11:56:52Z</time>
      </trkpt>
      <trkpt lat="53.259855033829808" lon="-9.613301977515221">
        <ele>35.710000000000001</ele>
        <time>2026-07-02T11:56:57Z</time>
      </trkpt>
      <trkpt lat="53.259923011064529" lon="-9.613356962800026">
        <ele>35.710000000000001</ele>
        <time>2026-07-02T11:56:58Z</time>
      </trkpt>
      <trkpt lat="53.259997023269534" lon="-9.613327039405704">
        <ele>36.189999999999998</ele>
        <time>2026-07-02T11:56:59Z</time>
      </trkpt>
      <trkpt lat="53.260083021596074" lon="-9.613292003050447">
        <ele>36.670000000000002</ele>
        <time>2026-07-02T11:57:00Z</time>
      </trkpt>
      <trkpt lat="53.260177988559008" lon="-9.613254033029079">
        <ele>37.149999999999999</ele>
        <time>2026-07-02T11:57:01Z</time>
      </trkpt>
      <trkpt lat="53.261009976267815" lon="-9.612918002530932">
        <ele>37.630000000000003</ele>
        <time>2026-07-02T11:57:09Z</time>
      </trkpt>
      <trkpt lat="53.26187901198864" lon="-9.612566968426108">
        <ele>36.670000000000002</ele>
        <time>2026-07-02T11:57:19Z</time>
      </trkpt>
      <trkpt lat="53.262112028896809" lon="-9.612474013119936">
        <ele>37.149999999999999</ele>
        <time>2026-07-02T11:57:22Z</time>
      </trkpt>
      <trkpt lat="53.262191992253065" lon="-9.61244098842144">
        <ele>37.630000000000003</ele>
        <time>2026-07-02T11:57:23Z</time>
      </trkpt>
      <trkpt lat="53.262922978028655" lon="-9.612146029248834">
        <ele>37.630000000000003</ele>
        <time>2026-07-02T11:57:32Z</time>
      </trkpt>
      <trkpt lat="53.263710960745811" lon="-9.611865989863873">
        <ele>39.549999999999997</ele>
        <time>2026-07-02T11:57:41Z</time>
      </trkpt>
      <trkpt lat="53.263860996812582" lon="-9.611850986257196">
        <ele>39.549999999999997</ele>
        <time>2026-07-02T11:57:43Z</time>
      </trkpt>
      <trkpt lat="53.263926962390542" lon="-9.611844029277563">
        <ele>39.549999999999997</ele>
        <time>2026-07-02T11:57:44Z</time>
      </trkpt>
      <trkpt lat="53.26398303732276" lon="-9.61183900013566">
        <ele>39.549999999999997</ele>
        <time>2026-07-02T11:57:45Z</time>
      </trkpt>
      <trkpt lat="53.26402603648603" lon="-9.611848974600434">
        <ele>39.549999999999997</ele>
        <time>2026-07-02T11:57:46Z</time>
      </trkpt>
      <trkpt lat="53.264063000679016" lon="-9.611892979592085">
        <ele>39.549999999999997</ele>
        <time>2026-07-02T11:57:47Z</time>
      </trkpt>
      <trkpt lat="53.264098959043622" lon="-9.611935978755355">
        <ele>40.030000000000001</ele>
        <time>2026-07-02T11:57:48Z</time>
      </trkpt>
      <trkpt lat="53.264137012884021" lon="-9.611981995403767">
        <ele>40.030000000000001</ele>
        <time>2026-07-02T11:57:49Z</time>
      </trkpt>
      <trkpt lat="53.264182023704052" lon="-9.612035974860191">
        <ele>40.030000000000001</ele>
        <time>2026-07-02T11:57:50Z</time>
      </trkpt>
      <trkpt lat="53.264229968190193" lon="-9.612092971801758">
        <ele>40.030000000000001</ele>
        <time>2026-07-02T11:57:51Z</time>
      </trkpt>
      <trkpt lat="53.264271039515734" lon="-9.612145023420453">
        <ele>40.030000000000001</ele>
        <time>2026-07-02T11:57:52Z</time>
      </trkpt>
      <trkpt lat="53.264314038679004" lon="-9.612201014533639">
        <ele>39.549999999999997</ele>
        <time>2026-07-02T11:57:53Z</time>
      </trkpt>
      <trkpt lat="53.264357037842274" lon="-9.612257005646825">
        <ele>39.549999999999997</ele>
        <time>2026-07-02T11:57:54Z</time>
      </trkpt>
      <trkpt lat="53.264398025348783" lon="-9.61228801868856">
        <ele>39.07</ele>
        <time>2026-07-02T11:57:55Z</time>
      </trkpt>
      <trkpt lat="53.26445703394711" lon="-9.612295981496573">
        <ele>38.590000000000003</ele>
        <time>2026-07-02T11:57:56Z</time>
      </trkpt>
      <trkpt lat="53.264511013403535" lon="-9.612303022295237">
        <ele>37.630000000000003</ele>
        <time>2026-07-02T11:57:57Z</time>
      </trkpt>
      <trkpt lat="53.26456499285996" lon="-9.612308973446488">
        <ele>37.149999999999999</ele>
        <time>2026-07-02T11:57:58Z</time>
      </trkpt>
      <trkpt lat="53.264717040583491" lon="-9.612328000366688">
        <ele>35.710000000000001</ele>
        <time>2026-07-02T11:58:01Z</time>
      </trkpt>
      <trkpt lat="53.264769008383155" lon="-9.612335041165352">
        <ele>35.229999999999997</ele>
        <time>2026-07-02T11:58:02Z</time>
      </trkpt>
      <trkpt lat="53.264817958697677" lon="-9.612340992316604">
        <ele>34.740000000000002</ele>
        <time>2026-07-02T11:58:03Z</time>
      </trkpt>
      <trkpt lat="53.265444003045559" lon="-9.61254701949656">
        <ele>29.460000000000001</ele>
        <time>2026-07-02T11:58:13Z</time>
      </trkpt>
      <trkpt lat="53.2656180113554" lon="-9.612641986459494">
        <ele>27.530000000000001</ele>
        <time>2026-07-02T11:58:16Z</time>
      </trkpt>
      <trkpt lat="53.265707027167082" lon="-9.61269797757268">
        <ele>26.57</ele>
        <time>2026-07-02T11:58:18Z</time>
      </trkpt>
      <trkpt lat="53.265755977481604" lon="-9.612728990614414">
        <ele>26.09</ele>
        <time>2026-07-02T11:58:19Z</time>
      </trkpt>
      <trkpt lat="53.265807023271918" lon="-9.61276100948453">
        <ele>25.609999999999999</ele>
        <time>2026-07-02T11:58:20Z</time>
      </trkpt>
      <trkpt lat="53.266074992716312" lon="-9.612929988652468">
        <ele>22.73</ele>
        <time>2026-07-02T11:58:25Z</time>
      </trkpt>
      <trkpt lat="53.266140036284924" lon="-9.612948009744287">
        <ele>21.77</ele>
        <time>2026-07-02T11:58:26Z</time>
      </trkpt>
      <trkpt lat="53.266416974365711" lon="-9.613028978928924">
        <ele>19.359999999999999</ele>
        <time>2026-07-02T11:58:31Z</time>
      </trkpt>
      <trkpt lat="53.266469025984406" lon="-9.613043982535601">
        <ele>19.359999999999999</ele>
        <time>2026-07-02T11:58:32Z</time>
      </trkpt>
      <trkpt lat="53.267041007056832" lon="-9.613209022209048">
        <ele>20.809999999999999</ele>
        <time>2026-07-02T11:58:42Z</time>
      </trkpt>
      <trkpt lat="53.267108984291553" lon="-9.613243974745274">
        <ele>20.809999999999999</ele>
        <time>2026-07-02T11:58:43Z</time>
      </trkpt>
      <trkpt lat="53.267162041738629" lon="-9.613270964473486">
        <ele>20.809999999999999</ele>
        <time>2026-07-02T11:58:44Z</time>
      </trkpt>
      <trkpt lat="53.267263965681195" lon="-9.613323016092181">
        <ele>20.809999999999999</ele>
        <time>2026-07-02T11:58:46Z</time>
      </trkpt>
      <trkpt lat="53.267319034785032" lon="-9.613351011648774">
        <ele>21.289999999999999</ele>
        <time>2026-07-02T11:58:47Z</time>
      </trkpt>
      <trkpt lat="53.267377037554979" lon="-9.613381018862128">
        <ele>21.289999999999999</ele>
        <time>2026-07-02T11:58:48Z</time>
      </trkpt>
      <trkpt lat="53.267668979242444" lon="-9.613529965281487">
        <ele>20.809999999999999</ele>
        <time>2026-07-02T11:58:53Z</time>
      </trkpt>
      <trkpt lat="53.26832503080368" lon="-9.613798018544912">
        <ele>15.039999999999999</ele>
        <time>2026-07-02T11:59:03Z</time>
      </trkpt>
      <trkpt lat="53.268649997189641" lon="-9.613910000771284">
        <ele>8.310000000000001</ele>
        <time>2026-07-02T11:59:12Z</time>
      </trkpt>
      <trkpt lat="53.268672041594982" lon="-9.613917041569948">
        <ele>5.91</ele>
        <time>2026-07-02T11:59:20Z</time>
      </trkpt>
      <trkpt lat="53.268672041594982" lon="-9.613917041569948">
        <ele>5.91</ele>
        <time>2026-07-02T11:59:37Z</time>
      </trkpt>
      <trkpt lat="53.268672041594982" lon="-9.613917041569948">
        <ele>5.91</ele>
        <time>2026-07-02T11:59:55Z</time>
      </trkpt>
      <trkpt lat="53.268672041594982" lon="-9.613917041569948">
        <ele>5.91</ele>
        <time>2026-07-02T11:59:56Z</time>
      </trkpt>
      <trkpt lat="53.268672041594982" lon="-9.613917041569948">
        <ele>5.91</ele>
        <time>2026-07-02T12:00:10Z</time>
      </trkpt>
      <trkpt lat="53.268672041594982" lon="-9.613917041569948">
        <ele>5.91</ele>
        <time>2026-07-02T12:01:02Z</time>
      </trkpt>
      <trkpt lat="53.268672041594982" lon="-9.613917041569948">
        <ele>5.91</ele>
        <time>2026-07-02T12:02:04Z</time>
      </trkpt>
      <trkpt lat="53.268672041594982" lon="-9.613917041569948">
        <ele>5.91</ele>
        <time>2026-07-02T12:03:12Z</time>
      </trkpt>
      <trkpt lat="53.268672041594982" lon="-9.613917041569948">
        <ele>5.91</ele>
        <time>2026-07-02T12:04:22Z</time>
      </trkpt>
      <trkpt lat="53.268672041594982" lon="-9.613917041569948">
        <ele>5.91</ele>
        <time>2026-07-02T12:05:31Z</time>
      </trkpt>
      <trkpt lat="53.268672041594982" lon="-9.613917041569948">
        <ele>5.91</ele>
        <time>2026-07-02T12:06:43Z</time>
      </trkpt>
      <trkpt lat="53.268672041594982" lon="-9.613917041569948">
        <ele>5.42</ele>
        <time>2026-07-02T12:07:47Z</time>
      </trkpt>
      <trkpt lat="53.268672041594982" lon="-9.613917041569948">
        <ele>5.91</ele>
        <time>2026-07-02T12:08:51Z</time>
      </trkpt>
      <trkpt lat="53.268672041594982" lon="-9.613917041569948">
        <ele>5.91</ele>
        <time>2026-07-02T12:09:34Z</time>
      </trkpt>
      <trkpt lat="53.268699031323195" lon="-9.613715959712863">
        <ele>5.91</ele>
        <time>2026-07-02T12:09:39Z</time>
      </trkpt>
      <trkpt lat="53.268887037411332" lon="-9.612807026132941">
        <ele>7.83</ele>
        <time>2026-07-02T12:09:49Z</time>
      </trkpt>
      <trkpt lat="53.268924001604319" lon="-9.612735025584698">
        <ele>8.310000000000001</ele>
        <time>2026-07-02T12:09:50Z</time>
      </trkpt>
      <trkpt lat="53.268987033516169" lon="-9.612614996731281">
        <ele>8.310000000000001</ele>
        <time>2026-07-02T12:09:52Z</time>
      </trkpt>
      <trkpt lat="53.269051993265748" lon="-9.612489016726613">
        <ele>8.789999999999999</ele>
        <time>2026-07-02T12:09:54Z</time>
      </trkpt>
      <trkpt lat="53.26907898299396" lon="-9.612435959279537">
        <ele>8.789999999999999</ele>
        <time>2026-07-02T12:09:55Z</time>
      </trkpt>
      <trkpt lat="53.269082000479102" lon="-9.6123549900949">
        <ele>9.27</ele>
        <time>2026-07-02T12:09:56Z</time>
      </trkpt>
      <trkpt lat="53.269085017964244" lon="-9.612259017303586">
        <ele>9.27</ele>
        <time>2026-07-02T12:09:57Z</time>
      </trkpt>
      <trkpt lat="53.269089041277766" lon="-9.612150974571705">
        <ele>9.75</ele>
        <time>2026-07-02T12:09:58Z</time>
      </trkpt>
      <trkpt lat="53.269091974943876" lon="-9.61203396320343">
        <ele>10.23</ele>
        <time>2026-07-02T12:09:59Z</time>
      </trkpt>
      <trkpt lat="53.269095998257399" lon="-9.611926004290581">
        <ele>11.19</ele>
        <time>2026-07-02T12:10:00Z</time>
      </trkpt>
      <trkpt lat="53.269101027399302" lon="-9.611771022900939">
        <ele>12.15</ele>
        <time>2026-07-02T12:10:01Z</time>
      </trkpt>
      <trkpt lat="53.26907797716558" lon="-9.611702039837837">
        <ele>12.630000000000001</ele>
        <time>2026-07-02T12:10:02Z</time>
      </trkpt>
      <trkpt lat="53.268891982734203" lon="-9.611145984381437">
        <ele>18.879999999999999</ele>
        <time>2026-07-02T12:10:08Z</time>
      </trkpt>
      <trkpt lat="53.268864993005991" lon="-9.6110650151968">
        <ele>20.32</ele>
        <time>2026-07-02T12:10:09Z</time>
      </trkpt>
      <trkpt lat="53.268843032419682" lon="-9.610998965799809">
        <ele>20.809999999999999</ele>
        <time>2026-07-02T12:10:10Z</time>
      </trkpt>
      <trkpt lat="53.268847977742553" lon="-9.610903998836875">
        <ele>21.77</ele>
        <time>2026-07-02T12:10:11Z</time>
      </trkpt>
      <trkpt lat="53.268853006884456" lon="-9.610794028267264">
        <ele>22.25</ele>
        <time>2026-07-02T12:10:12Z</time>
      </trkpt>
      <trkpt lat="53.26886298134923" lon="-9.610568974167109">
        <ele>23.690000000000001</ele>
        <time>2026-07-02T12:10:14Z</time>
      </trkpt>
      <trkpt lat="53.268838003277779" lon="-9.610457997769117">
        <ele>23.690000000000001</ele>
        <time>2026-07-02T12:10:15Z</time>
      </trkpt>
      <trkpt lat="53.268813025206327" lon="-9.610393038019538">
        <ele>24.170000000000002</ele>
        <time>2026-07-02T12:10:16Z</time>
      </trkpt>
      <trkpt lat="53.268788969144225" lon="-9.61033402942121">
        <ele>24.649999999999999</ele>
        <time>2026-07-02T12:10:17Z</time>
      </trkpt>
      <trkpt lat="53.268764996901155" lon="-9.610272003337741">
        <ele>25.129999999999999</ele>
        <time>2026-07-02T12:10:18Z</time>
      </trkpt>
      <trkpt lat="53.268740018829703" lon="-9.61020695976913">
        <ele>25.609999999999999</ele>
        <time>2026-07-02T12:10:19Z</time>
      </trkpt>
      <trkpt lat="53.268713029101491" lon="-9.610138982534409">
        <ele>26.09</ele>
        <time>2026-07-02T12:10:20Z</time>
      </trkpt>
      <trkpt lat="53.268682016059756" lon="-9.610061030834913">
        <ele>26.57</ele>
        <time>2026-07-02T12:10:21Z</time>
      </trkpt>
      <trkpt lat="53.268655026331544" lon="-9.609896996989846">
        <ele>26.57</ele>
        <time>2026-07-02T12:10:23Z</time>
      </trkpt>
      <trkpt lat="53.268643040210009" lon="-9.609802030026913">
        <ele>26.57</ele>
        <time>2026-07-02T12:10:24Z</time>
      </trkpt>
      <trkpt lat="53.268629964441061" lon="-9.609703039750457">
        <ele>26.57</ele>
        <time>2026-07-02T12:10:25Z</time>
      </trkpt>
      <trkpt lat="53.268616972491145" lon="-9.609597008675337">
        <ele>26.57</ele>
        <time>2026-07-02T12:10:26Z</time>
      </trkpt>
      <trkpt lat="53.268603980541229" lon="-9.609489971771836">
        <ele>26.57</ele>
        <time>2026-07-02T12:10:27Z</time>
      </trkpt>
      <trkpt lat="53.268589982762933" lon="-9.609382012858987">
        <ele>25.609999999999999</ele>
        <time>2026-07-02T12:10:28Z</time>
      </trkpt>
      <trkpt lat="53.268576990813017" lon="-9.609276987612248">
        <ele>24.649999999999999</ele>
        <time>2026-07-02T12:10:29Z</time>
      </trkpt>
      <trkpt lat="53.26854296028614" lon="-9.60900298319757">
        <ele>24.170000000000002</ele>
        <time>2026-07-02T12:10:32Z</time>
      </trkpt>
      <trkpt lat="53.268485963344574" lon="-9.60891799069941">
        <ele>24.649999999999999</ele>
        <time>2026-07-02T12:10:33Z</time>
      </trkpt>
      <trkpt lat="53.268443970009685" lon="-9.608854036778212">
        <ele>24.649999999999999</ele>
        <time>2026-07-02T12:10:34Z</time>
      </trkpt>
      <trkpt lat="53.268399965018034" lon="-9.608797961845994">
        <ele>25.129999999999999</ele>
        <time>2026-07-02T12:10:35Z</time>
      </trkpt>
      <trkpt lat="53.26834799721837" lon="-9.608753034844995">
        <ele>25.129999999999999</ele>
        <time>2026-07-02T12:10:36Z</time>
      </trkpt>
      <trkpt lat="53.268293011933565" lon="-9.608705006539822">
        <ele>25.609999999999999</ele>
        <time>2026-07-02T12:10:37Z</time>
      </trkpt>
      <trkpt lat="53.26823802664876" lon="-9.608657984063029">
        <ele>25.609999999999999</ele>
        <time>2026-07-02T12:10:38Z</time>
      </trkpt>
      <trkpt lat="53.268151022493839" lon="-9.608581960201263">
        <ele>25.609999999999999</ele>
        <time>2026-07-02T12:10:40Z</time>
      </trkpt>
      <trkpt lat="53.268092013895512" lon="-9.608530998229981">
        <ele>25.129999999999999</ele>
        <time>2026-07-02T12:10:42Z</time>
      </trkpt>
      <trkpt lat="53.268039040267467" lon="-9.608455980196595">
        <ele>25.129999999999999</ele>
        <time>2026-07-02T12:10:43Z</time>
      </trkpt>
      <trkpt lat="53.267993023619056" lon="-9.608392026275396">
        <ele>25.129999999999999</ele>
        <time>2026-07-02T12:10:44Z</time>
      </trkpt>
      <trkpt lat="53.26780904084444" lon="-9.608134031295776">
        <ele>24.649999999999999</ele>
        <time>2026-07-02T12:10:48Z</time>
      </trkpt>
      <trkpt lat="53.267555991187692" lon="-9.607779979705811">
        <ele>28.02</ele>
        <time>2026-07-02T12:10:55Z</time>
      </trkpt>
      <trkpt lat="53.267480973154306" lon="-9.607795989140868">
        <ele>28.5</ele>
        <time>2026-07-02T12:10:56Z</time>
      </trkpt>
      <trkpt lat="53.267434034496546" lon="-9.607805041596293">
        <ele>28.98</ele>
        <time>2026-07-02T12:10:57Z</time>
      </trkpt>
      <trkpt lat="53.267386006191373" lon="-9.607815016061068">
        <ele>28.98</ele>
        <time>2026-07-02T12:10:58Z</time>
      </trkpt>
      <trkpt lat="53.267338983714581" lon="-9.607824990525842">
        <ele>29.460000000000001</ele>
        <time>2026-07-02T12:10:59Z</time>
      </trkpt>
      <trkpt lat="53.267287015914917" lon="-9.607835970818996">
        <ele>29.460000000000001</ele>
        <time>2026-07-02T12:11:00Z</time>
      </trkpt>
      <trkpt lat="53.267233958467841" lon="-9.607847034931183">
        <ele>29.460000000000001</ele>
        <time>2026-07-02T12:11:01Z</time>
      </trkpt>
      <trkpt lat="53.267180984839797" lon="-9.607858015224338">
        <ele>29.460000000000001</ele>
        <time>2026-07-02T12:11:02Z</time>
      </trkpt>
      <trkpt lat="53.267123987898231" lon="-9.607870001345873">
        <ele>29.460000000000001</ele>
        <time>2026-07-02T12:11:03Z</time>
      </trkpt>
      <trkpt lat="53.267064979299903" lon="-9.607881987467408">
        <ele>29.940000000000001</ele>
        <time>2026-07-02T12:11:04Z</time>
      </trkpt>
      <trkpt lat="53.267007982358336" lon="-9.607876958325505">
        <ele>29.940000000000001</ele>
        <time>2026-07-02T12:11:05Z</time>
      </trkpt>
      <trkpt lat="53.26695098541677" lon="-9.607858015224338">
        <ele>30.420000000000002</ele>
        <time>2026-07-02T12:11:06Z</time>
      </trkpt>
      <trkpt lat="53.266897005960345" lon="-9.607839994132519">
        <ele>30.420000000000002</ele>
        <time>2026-07-02T12:11:07Z</time>
      </trkpt>
      <trkpt lat="53.266847971826792" lon="-9.607822978869081">
        <ele>30.420000000000002</ele>
        <time>2026-07-02T12:11:08Z</time>
      </trkpt>
      <trkpt lat="53.266808995977044" lon="-9.607753995805979">
        <ele>30.420000000000002</ele>
        <time>2026-07-02T12:11:09Z</time>
      </trkpt>
      <trkpt lat="53.266773959621787" lon="-9.607690963894129">
        <ele>29.940000000000001</ele>
        <time>2026-07-02T12:11:10Z</time>
      </trkpt>
      <trkpt lat="53.266740012913942" lon="-9.607630027458072">
        <ele>29.940000000000001</ele>
        <time>2026-07-02T12:11:11Z</time>
      </trkpt>
      <trkpt lat="53.266744958236814" lon="-9.607570013031364">
        <ele>29.460000000000001</ele>
        <time>2026-07-02T12:11:12Z</time>
      </trkpt>
      <trkpt lat="53.266749987378716" lon="-9.607488960027695">
        <ele>29.460000000000001</ele>
        <time>2026-07-02T12:11:13Z</time>
      </trkpt>
      <trkpt lat="53.266762979328632" lon="-9.607310006394982">
        <ele>28.98</ele>
        <time>2026-07-02T12:11:15Z</time>
      </trkpt>
      <trkpt lat="53.266769014298916" lon="-9.607220990583301">
        <ele>28.5</ele>
        <time>2026-07-02T12:11:16Z</time>
      </trkpt>
      <trkpt lat="53.266793992370367" lon="-9.606590000912547">
        <ele>26.57</ele>
        <time>2026-07-02T12:11:22Z</time>
      </trkpt>
      <trkpt lat="53.266785023733974" lon="-9.60648899897933">
        <ele>27.050000000000001</ele>
        <time>2026-07-02T12:11:23Z</time>
      </trkpt>
      <trkpt lat="53.266759961843491" lon="-9.606397971510887">
        <ele>27.050000000000001</ele>
        <time>2026-07-02T12:11:24Z</time>
      </trkpt>
      <trkpt lat="53.266730038449168" lon="-9.606299987062812">
        <ele>27.050000000000001</ele>
        <time>2026-07-02T12:11:25Z</time>
      </trkpt>
      <trkpt lat="53.266697013750672" lon="-9.606194039806724">
        <ele>27.050000000000001</ele>
        <time>2026-07-02T12:11:26Z</time>
      </trkpt>
      <trkpt lat="53.266675975173712" lon="-9.606127990409732">
        <ele>27.050000000000001</ele>
        <time>2026-07-02T12:11:27Z</time>
      </trkpt>
      <trkpt lat="53.266609003767371" lon="-9.606027994304895">
        <ele>27.050000000000001</ele>
        <time>2026-07-02T12:11:28Z</time>
      </trkpt>
      <trkpt lat="53.266559969633818" lon="-9.605953982099891">
        <ele>27.050000000000001</ele>
        <time>2026-07-02T12:11:29Z</time>
      </trkpt>
      <trkpt lat="53.266511019319296" lon="-9.605879969894886">
        <ele>26.57</ele>
        <time>2026-07-02T12:11:30Z</time>
      </trkpt>
      <trkpt lat="53.26645502820611" lon="-9.605835964903235">
        <ele>26.57</ele>
        <time>2026-07-02T12:11:31Z</time>
      </trkpt>
      <trkpt lat="53.266394007951021" lon="-9.605794977396727">
        <ele>26.57</ele>
        <time>2026-07-02T12:11:32Z</time>
      </trkpt>
      <trkpt lat="53.266222011297941" lon="-9.605676038190723">
        <ele>26.09</ele>
        <time>2026-07-02T12:11:35Z</time>
      </trkpt>
      <trkpt lat="53.266172977164388" lon="-9.605643013492227">
        <ele>26.57</ele>
        <time>2026-07-02T12:11:36Z</time>
      </trkpt>
      <trkpt lat="53.266137018799782" lon="-9.605569001287222">
        <ele>26.09</ele>
        <time>2026-07-02T12:11:37Z</time>
      </trkpt>
      <trkpt lat="53.26611103489995" lon="-9.605498006567359">
        <ele>26.09</ele>
        <time>2026-07-02T12:11:38Z</time>
      </trkpt>
      <trkpt lat="53.266081027686596" lon="-9.605416031554341">
        <ele>25.609999999999999</ele>
        <time>2026-07-02T12:11:39Z</time>
      </trkpt>
      <trkpt lat="53.266052026301622" lon="-9.605336990207434">
        <ele>25.609999999999999</ele>
        <time>2026-07-02T12:11:40Z</time>
      </trkpt>
      <trkpt lat="53.26602797023952" lon="-9.605272030457854">
        <ele>25.129999999999999</ele>
        <time>2026-07-02T12:11:41Z</time>
      </trkpt>
      <trkpt lat="53.266001986339688" lon="-9.605218973010778">
        <ele>24.649999999999999</ele>
        <time>2026-07-02T12:11:42Z</time>
      </trkpt>
      <trkpt lat="53.265955969691277" lon="-9.605181002989411">
        <ele>24.170000000000002</ele>
        <time>2026-07-02T12:11:43Z</time>
      </trkpt>
      <trkpt lat="53.265905007719994" lon="-9.605138003826141">
        <ele>24.170000000000002</ele>
        <time>2026-07-02T12:11:44Z</time>
      </trkpt>
      <trkpt lat="53.265760000795126" lon="-9.605017974972725">
        <ele>22.73</ele>
        <time>2026-07-02T12:11:47Z</time>
      </trkpt>
      <trkpt lat="53.265737034380436" lon="-9.604949997738004">
        <ele>22.73</ele>
        <time>2026-07-02T12:11:48Z</time>
      </trkpt>
      <trkpt lat="53.265712978318334" lon="-9.604862993583083">
        <ele>22.25</ele>
        <time>2026-07-02T12:11:49Z</time>
      </trkpt>
      <trkpt lat="53.265686994418502" lon="-9.604764003306627">
        <ele>22.25</ele>
        <time>2026-07-02T12:11:50Z</time>
      </trkpt>
      <trkpt lat="53.265657993033528" lon="-9.604655960574746">
        <ele>22.25</ele>
        <time>2026-07-02T12:11:51Z</time>
      </trkpt>
      <trkpt lat="53.265626979991794" lon="-9.604542972519994">
        <ele>22.73</ele>
        <time>2026-07-02T12:11:52Z</time>
      </trkpt>
      <trkpt lat="53.265603007748723" lon="-9.604454040527344">
        <ele>22.73</ele>
        <time>2026-07-02T12:11:53Z</time>
      </trkpt>
      <trkpt lat="53.265559002757072" lon="-9.604321019724011">
        <ele>23.210000000000001</ele>
        <time>2026-07-02T12:11:54Z</time>
      </trkpt>
      <trkpt lat="53.26536001637578" lon="-9.603725988417864">
        <ele>22.73</ele>
        <time>2026-07-02T12:11:59Z</time>
      </trkpt>
      <trkpt lat="53.265335038304329" lon="-9.603592967614532">
        <ele>22.25</ele>
        <time>2026-07-02T12:12:00Z</time>
      </trkpt>
      <trkpt lat="53.265320034697652" lon="-9.603461036458612">
        <ele>21.77</ele>
        <time>2026-07-02T12:12:01Z</time>
      </trkpt>
      <trkpt lat="53.265137979760766" lon="-9.601989006623626">
        <ele>21.289999999999999</ele>
        <time>2026-07-02T12:12:13Z</time>
      </trkpt>
      <trkpt lat="53.26503798365593" lon="-9.601710978895426">
        <ele>21.77</ele>
        <time>2026-07-02T12:12:16Z</time>
      </trkpt>
      <trkpt lat="53.264999007806182" lon="-9.601604025810957">
        <ele>21.77</ele>
        <time>2026-07-02T12:12:17Z</time>
      </trkpt>
      <trkpt lat="53.264959026128054" lon="-9.601491959765554">
        <ele>21.289999999999999</ele>
        <time>2026-07-02T12:12:18Z</time>
      </trkpt>
      <trkpt lat="53.264901023358107" lon="-9.601409984752536">
        <ele>19.84</ele>
        <time>2026-07-02T12:12:19Z</time>
      </trkpt>
      <trkpt lat="53.264845032244921" lon="-9.60133102722466">
        <ele>18.399999999999999</ele>
        <time>2026-07-02T12:12:20Z</time>
      </trkpt>
      <trkpt lat="53.264790968969464" lon="-9.601253997534514">
        <ele>17.440000000000001</ele>
        <time>2026-07-02T12:12:21Z</time>
      </trkpt>
      <trkpt lat="53.264739001169801" lon="-9.601179985329509">
        <ele>16</ele>
        <time>2026-07-02T12:12:22Z</time>
      </trkpt>
      <trkpt lat="53.264702036976814" lon="-9.601047970354557">
        <ele>14.56</ele>
        <time>2026-07-02T12:12:23Z</time>
      </trkpt>
      <trkpt lat="53.264702036976814" lon="-9.600950991734862">
        <ele>13.6</ele>
        <time>2026-07-02T12:12:24Z</time>
      </trkpt>
      <trkpt lat="53.264702958986163" lon="-9.600844960659742">
        <ele>12.630000000000001</ele>
        <time>2026-07-02T12:12:25Z</time>
      </trkpt>
      <trkpt lat="53.264722991734743" lon="-9.600756028667092">
        <ele>11.67</ele>
        <time>2026-07-02T12:12:26Z</time>
      </trkpt>
      <trkpt lat="53.264743024483323" lon="-9.60066600702703">
        <ele>10.710000000000001</ele>
        <time>2026-07-02T12:12:27Z</time>
      </trkpt>
      <trkpt lat="53.264915021136403" lon="-9.600315978750587">
        <ele>8.789999999999999</ele>
        <time>2026-07-02T12:12:34Z</time>
      </trkpt>
      <trkpt lat="53.264963971450925" lon="-9.600342968478799">
        <ele>8.310000000000001</ele>
        <time>2026-07-02T12:12:35Z</time>
      </trkpt>
      <trkpt lat="53.265027003362775" lon="-9.600376999005675">
        <ele>8.310000000000001</ele>
        <time>2026-07-02T12:12:36Z</time>
      </trkpt>
      <trkpt lat="53.26598497107625" lon="-9.600830040872097">
        <ele>11.67</ele>
        <time>2026-07-02T12:12:47Z</time>
      </trkpt>
      <trkpt lat="53.267056010663509" lon="-9.601031038910151">
        <ele>13.119999999999999</ele>
        <time>2026-07-02T12:12:58Z</time>
      </trkpt>
      <trkpt lat="53.268474983051419" lon="-9.601218039169908">
        <ele>11.19</ele>
        <time>2026-07-02T12:13:10Z</time>
      </trkpt>
      <trkpt lat="53.269482990726829" lon="-9.601364973932505">
        <ele>12.15</ele>
        <time>2026-07-02T12:13:18Z</time>
      </trkpt>
      <trkpt lat="53.26963403262198" lon="-9.601449966430664">
        <ele>12.630000000000001</ele>
        <time>2026-07-02T12:13:19Z</time>
      </trkpt>
      <trkpt lat="53.27023702673614" lon="-9.601749032735825">
        <ele>13.119999999999999</ele>
        <time>2026-07-02T12:13:23Z</time>
      </trkpt>
      <trkpt lat="53.270389996469021" lon="-9.601778034120798">
        <ele>12.630000000000001</ele>
        <time>2026-07-02T12:13:24Z</time>
      </trkpt>
      <trkpt lat="53.270546989515424" lon="-9.601808041334152">
        <ele>12.630000000000001</ele>
        <time>2026-07-02T12:13:25Z</time>
      </trkpt>
      <trkpt lat="53.27169799245894" lon="-9.601645013317466">
        <ele>16</ele>
        <time>2026-07-02T12:13:33Z</time>
      </trkpt>
      <trkpt lat="53.27182799577713" lon="-9.601598996669054">
        <ele>16</ele>
        <time>2026-07-02T12:13:34Z</time>
      </trkpt>
      <trkpt lat="53.271947018802166" lon="-9.601493971422315">
        <ele>15.52</ele>
        <time>2026-07-02T12:13:35Z</time>
      </trkpt>
      <trkpt lat="53.273319974541664" lon="-9.600372975692153">
        <ele>15.039999999999999</ele>
        <time>2026-07-02T12:13:47Z</time>
      </trkpt>
      <trkpt lat="53.274702988564968" lon="-9.599492959678173">
        <ele>13.6</ele>
        <time>2026-07-02T12:13:59Z</time>
      </trkpt>
      <trkpt lat="53.275892967358232" lon="-9.598594000563026">
        <ele>16.48</ele>
        <time>2026-07-02T12:14:09Z</time>
      </trkpt>
      <trkpt lat="53.277260977774858" lon="-9.597617005929351">
        <ele>15.52</ele>
        <time>2026-07-02T12:14:19Z</time>
      </trkpt>
      <trkpt lat="53.278926964849234" lon="-9.5964349899441">
        <ele>17.440000000000001</ele>
        <time>2026-07-02T12:14:31Z</time>
      </trkpt>
      <trkpt lat="53.280703006312251" lon="-9.595297984778881">
        <ele>18.879999999999999</ele>
        <time>2026-07-02T12:14:44Z</time>
      </trkpt>
      <trkpt lat="53.281912012025714" lon="-9.594642017036676">
        <ele>19.84</ele>
        <time>2026-07-02T12:14:53Z</time>
      </trkpt>
      <trkpt lat="53.283411031588912" lon="-9.593652030453086">
        <ele>20.32</ele>
        <time>2026-07-02T12:15:04Z</time>
      </trkpt>
      <trkpt lat="53.285204004496336" lon="-9.591882023960352">
        <ele>20.809999999999999</ele>
        <time>2026-07-02T12:15:16Z</time>
      </trkpt>
      <trkpt lat="53.286749040707946" lon="-9.589944966137409">
        <ele>18.399999999999999</ele>
        <time>2026-07-02T12:15:27Z</time>
      </trkpt>
      <trkpt lat="53.288190979510546" lon="-9.58807404153049">
        <ele>16</ele>
        <time>2026-07-02T12:15:39Z</time>
      </trkpt>
      <trkpt lat="53.289579022675753" lon="-9.586089961230755">
        <ele>13.6</ele>
        <time>2026-07-02T12:15:51Z</time>
      </trkpt>
      <trkpt lat="53.290693983435631" lon="-9.584814989939332">
        <ele>16.48</ele>
        <time>2026-07-02T12:16:00Z</time>
      </trkpt>
      <trkpt lat="53.29234697856009" lon="-9.583216980099678">
        <ele>18.879999999999999</ele>
        <time>2026-07-02T12:16:12Z</time>
      </trkpt>
      <trkpt lat="53.293564030900598" lon="-9.582418017089367">
        <ele>21.77</ele>
        <time>2026-07-02T12:16:22Z</time>
      </trkpt>
      <trkpt lat="53.294938998296857" lon="-9.581744028255343">
        <ele>20.809999999999999</ele>
        <time>2026-07-02T12:16:31Z</time>
      </trkpt>
      <trkpt lat="53.296569027006626" lon="-9.580815983936191">
        <ele>18.399999999999999</ele>
        <time>2026-07-02T12:16:41Z</time>
      </trkpt>
      <trkpt lat="53.297767974436283" lon="-9.579977039247751">
        <ele>18.399999999999999</ele>
        <time>2026-07-02T12:16:49Z</time>
      </trkpt>
      <trkpt lat="53.299831012263894" lon="-9.578586984425783">
        <ele>22.73</ele>
        <time>2026-07-02T12:17:03Z</time>
      </trkpt>
      <trkpt lat="53.300586976110935" lon="-9.577963035553694">
        <ele>24.649999999999999</ele>
        <time>2026-07-02T12:17:11Z</time>
      </trkpt>
      <trkpt lat="53.300783028826118" lon="-9.577801013365388">
        <ele>24.649999999999999</ele>
        <time>2026-07-02T12:17:17Z</time>
      </trkpt>
      <trkpt lat="53.300842959433794" lon="-9.577681990340352">
        <ele>24.649999999999999</ele>
        <time>2026-07-02T12:17:21Z</time>
      </trkpt>
      <trkpt lat="53.300828039646149" lon="-9.577620970085263">
        <ele>24.649999999999999</ele>
        <time>2026-07-02T12:17:22Z</time>
      </trkpt>
      <trkpt lat="53.300803983584046" lon="-9.577530026435852">
        <ele>24.649999999999999</ele>
        <time>2026-07-02T12:17:23Z</time>
      </trkpt>
      <trkpt lat="53.300774982199073" lon="-9.5774170383811">
        <ele>24.649999999999999</ele>
        <time>2026-07-02T12:17:24Z</time>
      </trkpt>
      <trkpt lat="53.300742963328958" lon="-9.5772909745574">
        <ele>24.649999999999999</ele>
        <time>2026-07-02T12:17:25Z</time>
      </trkpt>
      <trkpt lat="53.300539031624794" lon="-9.575981972739101">
        <ele>23.210000000000001</ele>
        <time>2026-07-02T12:17:32Z</time>
      </trkpt>
      <trkpt lat="53.300352031365037" lon="-9.574525030329824">
        <ele>23.210000000000001</ele>
        <time>2026-07-02T12:17:40Z</time>
      </trkpt>
      <trkpt lat="53.300322024151683" lon="-9.574392009526491">
        <ele>23.210000000000001</ele>
        <time>2026-07-02T12:17:42Z</time>
      </trkpt>
      <trkpt lat="53.300264021381736" lon="-9.574220012873411">
        <ele>23.210000000000001</ele>
        <time>2026-07-02T12:17:45Z</time>
      </trkpt>
      <trkpt lat="53.300339039415121" lon="-9.574062013998628">
        <ele>23.210000000000001</ele>
        <time>2026-07-02T12:17:47Z</time>
      </trkpt>
      <trkpt lat="53.300371980294585" lon="-9.574060002341867">
        <ele>23.210000000000001</ele>
        <time>2026-07-02T12:17:48Z</time>
      </trkpt>
      <trkpt lat="53.300465019419789" lon="-9.574054973199964">
        <ele>22.73</ele>
        <time>2026-07-02T12:17:49Z</time>
      </trkpt>
      <trkpt lat="53.300513969734311" lon="-9.574052039533854">
        <ele>22.73</ele>
        <time>2026-07-02T12:17:50Z</time>
      </trkpt>
      <trkpt lat="53.301157029345632" lon="-9.574057990685105">
        <ele>23.210000000000001</ele>
        <time>2026-07-02T12:17:58Z</time>
      </trkpt>
      <trkpt lat="53.302136035636067" lon="-9.57436703145504">
        <ele>23.210000000000001</ele>
        <time>2026-07-02T12:18:09Z</time>
      </trkpt>
      <trkpt lat="53.302802983671427" lon="-9.574725022539496">
        <ele>23.690000000000001</ele>
        <time>2026-07-02T12:18:16Z</time>
      </trkpt>
      <trkpt lat="53.303728010505438" lon="-9.574941024184227">
        <ele>25.129999999999999</ele>
        <time>2026-07-02T12:18:24Z</time>
      </trkpt>
      <trkpt lat="53.305057967081666" lon="-9.575213016942143">
        <ele>26.09</ele>
        <time>2026-07-02T12:18:35Z</time>
      </trkpt>
      <trkpt lat="53.305598013103008" lon="-9.575303038582206">
        <ele>24.170000000000002</ele>
        <time>2026-07-02T12:18:40Z</time>
      </trkpt>
      <trkpt lat="53.305689040571451" lon="-9.575276970863342">
        <ele>24.170000000000002</ele>
        <time>2026-07-02T12:18:41Z</time>
      </trkpt>
      <trkpt lat="53.305777972564101" lon="-9.575192984193564">
        <ele>24.170000000000002</ele>
        <time>2026-07-02T12:18:42Z</time>
      </trkpt>
      <trkpt lat="53.305863970890641" lon="-9.57509801723063">
        <ele>24.649999999999999</ele>
        <time>2026-07-02T12:18:43Z</time>
      </trkpt>
      <trkpt lat="53.305957010015845" lon="-9.574993997812271">
        <ele>24.649999999999999</ele>
        <time>2026-07-02T12:18:44Z</time>
      </trkpt>
      <trkpt lat="53.306366968899965" lon="-9.574599964544177">
        <ele>24.649999999999999</ele>
        <time>2026-07-02T12:18:48Z</time>
      </trkpt>
      <trkpt lat="53.306480962783098" lon="-9.574560988694429">
        <ele>24.649999999999999</ele>
        <time>2026-07-02T12:18:49Z</time>
      </trkpt>
      <trkpt lat="53.306601997464895" lon="-9.574520001187921">
        <ele>25.129999999999999</ele>
        <time>2026-07-02T12:18:50Z</time>
      </trkpt>
      <trkpt lat="53.307735985144973" lon="-9.573955982923508">
        <ele>23.210000000000001</ele>
        <time>2026-07-02T12:18:59Z</time>
      </trkpt>
      <trkpt lat="53.308091964572668" lon="-9.573780968785286">
        <ele>21.77</ele>
        <time>2026-07-02T12:19:02Z</time>
      </trkpt>
      <trkpt lat="53.308212999254465" lon="-9.573729000985622">
        <ele>20.809999999999999</ele>
        <time>2026-07-02T12:19:03Z</time>
      </trkpt>
      <trkpt lat="53.308570990338922" lon="-9.573574019595981">
        <ele>18.879999999999999</ele>
        <time>2026-07-02T12:19:06Z</time>
      </trkpt>
      <trkpt lat="53.30976901575923" lon="-9.573089964687824">
        <ele>17.440000000000001</ele>
        <time>2026-07-02T12:19:17Z</time>
      </trkpt>
      <trkpt lat="53.310272013768554" lon="-9.572974964976311">
        <ele>15.52</ele>
        <time>2026-07-02T12:19:26Z</time>
      </trkpt>
      <trkpt lat="53.311047004535794" lon="-9.572797017171979">
        <ele>13.6</ele>
        <time>2026-07-02T12:19:32Z</time>
      </trkpt>
      <trkpt lat="53.312437981367111" lon="-9.572408013045788">
        <ele>11.19</ele>
        <time>2026-07-02T12:19:42Z</time>
      </trkpt>
      <trkpt lat="53.314011013135314" lon="-9.571820022538304">
        <ele>9.27</ele>
        <time>2026-07-02T12:19:54Z</time>
      </trkpt>
      <trkpt lat="53.315041987225413" lon="-9.571517016738653">
        <ele>9.27</ele>
        <time>2026-07-02T12:20:04Z</time>
      </trkpt>
      <trkpt lat="53.315145000815392" lon="-9.571439987048507">
        <ele>8.789999999999999</ele>
        <time>2026-07-02T12:20:05Z</time>
      </trkpt>
      <trkpt lat="53.315251031890512" lon="-9.571361029520631">
        <ele>8.310000000000001</ele>
        <time>2026-07-02T12:20:06Z</time>
      </trkpt>
      <trkpt lat="53.316419972106814" lon="-9.570492999628186">
        <ele>9.75</ele>
        <time>2026-07-02T12:20:16Z</time>
      </trkpt>
      <trkpt lat="53.317638030275702" lon="-9.569653971120715">
        <ele>11.67</ele>
        <time>2026-07-02T12:20:28Z</time>
      </trkpt>
      <trkpt lat="53.317715981975198" lon="-9.569612983614206">
        <ele>11.67</ele>
        <time>2026-07-02T12:20:29Z</time>
      </trkpt>
      <trkpt lat="53.317792005836964" lon="-9.569607032462955">
        <ele>11.67</ele>
        <time>2026-07-02T12:20:30Z</time>
      </trkpt>
      <trkpt lat="53.317855959758162" lon="-9.56966302357614">
        <ele>11.67</ele>
        <time>2026-07-02T12:20:31Z</time>
      </trkpt>
      <trkpt lat="53.317928966134787" lon="-9.569726977497339">
        <ele>11.67</ele>
        <time>2026-07-02T12:20:32Z</time>
      </trkpt>
      <trkpt lat="53.318009013310075" lon="-9.569795960560441">
        <ele>11.67</ele>
        <time>2026-07-02T12:20:33Z</time>
      </trkpt>
      <trkpt lat="53.318950971588492" lon="-9.570610010996461">
        <ele>10.23</ele>
        <time>2026-07-02T12:20:43Z</time>
      </trkpt>
      <trkpt lat="53.31986996345222" lon="-9.570980994030833">
        <ele>7.83</ele>
        <time>2026-07-02T12:20:52Z</time>
      </trkpt>
      <trkpt lat="53.321224981918931" lon="-9.571391036733985">
        <ele>7.83</ele>
        <time>2026-07-02T12:21:04Z</time>
      </trkpt>
      <trkpt lat="53.322751997038722" lon="-9.571741987019777">
        <ele>9.27</ele>
        <time>2026-07-02T12:21:16Z</time>
      </trkpt>
      <trkpt lat="53.322860039770603" lon="-9.571748021990061">
        <ele>9.75</ele>
        <time>2026-07-02T12:21:17Z</time>
      </trkpt>
      <trkpt lat="53.322969004511833" lon="-9.571735030040145">
        <ele>9.75</ele>
        <time>2026-07-02T12:21:18Z</time>
      </trkpt>
      <trkpt lat="53.323066988959908" lon="-9.571680966764689">
        <ele>9.75</ele>
        <time>2026-07-02T12:21:19Z</time>
      </trkpt>
      <trkpt lat="53.324213968589902" lon="-9.571163970977068">
        <ele>10.710000000000001</ele>
        <time>2026-07-02T12:21:29Z</time>
      </trkpt>
      <trkpt lat="53.325594970956445" lon="-9.570818971842527">
        <ele>13.119999999999999</ele>
        <time>2026-07-02T12:21:42Z</time>
      </trkpt>
      <trkpt lat="53.326602978631854" lon="-9.570408007130027">
        <ele>13.119999999999999</ele>
        <time>2026-07-02T12:21:51Z</time>
      </trkpt>
      <trkpt lat="53.327747024595737" lon="-9.569681966677308">
        <ele>6.39</ele>
        <time>2026-07-02T12:22:01Z</time>
      </trkpt>
      <trkpt lat="53.32865403033793" lon="-9.568909993395209">
        <ele>8.310000000000001</ele>
        <time>2026-07-02T12:22:11Z</time>
      </trkpt>
      <trkpt lat="53.328734999522567" lon="-9.568903958424926">
        <ele>8.789999999999999</ele>
        <time>2026-07-02T12:22:12Z</time>
      </trkpt>
      <trkpt lat="53.328816974535584" lon="-9.56891099922359">
        <ele>8.789999999999999</ele>
        <time>2026-07-02T12:22:13Z</time>
      </trkpt>
      <trkpt lat="53.328925017267466" lon="-9.568919967859983">
        <ele>8.310000000000001</ele>
        <time>2026-07-02T12:22:14Z</time>
      </trkpt>
      <trkpt lat="53.329005986452103" lon="-9.568967996165156">
        <ele>8.310000000000001</ele>
        <time>2026-07-02T12:22:15Z</time>
      </trkpt>
      <trkpt lat="53.329646028578281" lon="-9.569199001416564">
        <ele>9.27</ele>
        <time>2026-07-02T12:22:21Z</time>
      </trkpt>
      <trkpt lat="53.330645989626646" lon="-9.568875040858984">
        <ele>9.75</ele>
        <time>2026-07-02T12:22:30Z</time>
      </trkpt>
      <trkpt lat="53.332366961985826" lon="-9.567804001271725">
        <ele>6.87</ele>
        <time>2026-07-02T12:22:44Z</time>
      </trkpt>
      <trkpt lat="53.333708988502622" lon="-9.567109979689121">
        <ele>7.35</ele>
        <time>2026-07-02T12:22:56Z</time>
      </trkpt>
      <trkpt lat="53.335027964785695" lon="-9.56712699495256">
        <ele>8.310000000000001</ele>
        <time>2026-07-02T12:23:08Z</time>
      </trkpt>
      <trkpt lat="53.335216976702213" lon="-9.567152978852391">
        <ele>8.310000000000001</ele>
        <time>2026-07-02T12:23:13Z</time>
      </trkpt>
      <trkpt lat="53.335216976702213" lon="-9.567152978852391">
        <ele>8.310000000000001</ele>
        <time>2026-07-02T12:23:48Z</time>
      </trkpt>
      <trkpt lat="53.335429038852453" lon="-9.567182986065745">
        <ele>8.310000000000001</ele>
        <time>2026-07-02T12:24:06Z</time>
      </trkpt>
      <trkpt lat="53.336252979934216" lon="-9.567295974120498">
        <ele>9.27</ele>
        <time>2026-07-02T12:24:14Z</time>
      </trkpt>
      <trkpt lat="53.336553974077106" lon="-9.567337967455387">
        <ele>10.23</ele>
        <time>2026-07-02T12:24:17Z</time>
      </trkpt>
      <trkpt lat="53.336639972403646" lon="-9.567350037395954">
        <ele>10.710000000000001</ele>
        <time>2026-07-02T12:24:18Z</time>
      </trkpt>
      <trkpt lat="53.336706021800637" lon="-9.567304020747542">
        <ele>10.710000000000001</ele>
        <time>2026-07-02T12:24:19Z</time>
      </trkpt>
      <trkpt lat="53.336758995428681" lon="-9.567229002714157">
        <ele>10.710000000000001</ele>
        <time>2026-07-02T12:24:20Z</time>
      </trkpt>
      <trkpt lat="53.33681900985539" lon="-9.567144010215998">
        <ele>10.710000000000001</ele>
        <time>2026-07-02T12:24:21Z</time>
      </trkpt>
      <trkpt lat="53.336882963776588" lon="-9.567052982747555">
        <ele>10.710000000000001</ele>
        <time>2026-07-02T12:24:22Z</time>
      </trkpt>
      <trkpt lat="53.336951024830341" lon="-9.566957009956241">
        <ele>10.23</ele>
        <time>2026-07-02T12:24:23Z</time>
      </trkpt>
      <trkpt lat="53.337023025378585" lon="-9.566855002194643">
        <ele>10.23</ele>
        <time>2026-07-02T12:24:24Z</time>
      </trkpt>
      <trkpt lat="53.337586037814617" lon="-9.566056039184332">
        <ele>13.119999999999999</ele>
        <time>2026-07-02T12:24:31Z</time>
      </trkpt>
      <trkpt lat="53.337617972865701" lon="-9.56603298895061">
        <ele>14.08</ele>
        <time>2026-07-02T12:24:37Z</time>
      </trkpt>
      <trkpt lat="53.337647980079055" lon="-9.566017985343933">
        <ele>14.08</ele>
        <time>2026-07-02T12:24:45Z</time>
      </trkpt>
      <trkpt lat="53.337663989514112" lon="-9.56601002253592">
        <ele>14.08</ele>
        <time>2026-07-02T12:24:46Z</time>
      </trkpt>
      <trkpt lat="53.337681004777551" lon="-9.566002981737256">
        <ele>14.08</ele>
        <time>2026-07-02T12:24:47Z</time>
      </trkpt>
      <trkpt lat="53.337705982849002" lon="-9.566011028364301">
        <ele>14.56</ele>
        <time>2026-07-02T12:24:48Z</time>
      </trkpt>
      <trkpt lat="53.337744036689401" lon="-9.566026031970978">
        <ele>14.56</ele>
        <time>2026-07-02T12:24:49Z</time>
      </trkpt>
      <trkpt lat="53.337796004489064" lon="-9.566043969243765">
        <ele>14.56</ele>
        <time>2026-07-02T12:24:50Z</time>
      </trkpt>
      <trkpt lat="53.337859036400914" lon="-9.566067019477487">
        <ele>14.56</ele>
        <time>2026-07-02T12:24:51Z</time>
      </trkpt>
      <trkpt lat="53.337932964786887" lon="-9.566101972013712">
        <ele>14.08</ele>
        <time>2026-07-02T12:24:52Z</time>
      </trkpt>
      <trkpt lat="53.33808702416718" lon="-9.566226024180651">
        <ele>13.6</ele>
        <time>2026-07-02T12:24:54Z</time>
      </trkpt>
      <trkpt lat="53.338167993351817" lon="-9.566291989758611">
        <ele>13.6</ele>
        <time>2026-07-02T12:24:55Z</time>
      </trkpt>
      <trkpt lat="53.338354993611574" lon="-9.566443031653762">
        <ele>16</ele>
        <time>2026-07-02T12:24:58Z</time>
      </trkpt>
      <trkpt lat="53.338381983339787" lon="-9.566463986411691">
        <ele>16.48</ele>
        <time>2026-07-02T12:24:59Z</time>
      </trkpt>
      <trkpt lat="53.338381983339787" lon="-9.566463986411691">
        <ele>16.960000000000001</ele>
        <time>2026-07-02T12:25:09Z</time>
      </trkpt>
      <trkpt lat="53.338381983339787" lon="-9.566463986411691">
        <ele>19.359999999999999</ele>
        <time>2026-07-02T12:25:27Z</time>
      </trkpt>
      <trkpt lat="53.338381983339787" lon="-9.566463986411691">
        <ele>19.84</ele>
        <time>2026-07-02T12:25:32Z</time>
      </trkpt>
      <trkpt lat="53.338211998343468" lon="-9.566327026113868">
        <ele>17.440000000000001</ele>
        <time>2026-07-02T12:25:38Z</time>
      </trkpt>
      <trkpt lat="53.337930031120777" lon="-9.566099960356951">
        <ele>15.039999999999999</ele>
        <time>2026-07-02T12:25:42Z</time>
      </trkpt>
      <trkpt lat="53.337882002815604" lon="-9.56607598811388">
        <ele>14.56</ele>
        <time>2026-07-02T12:25:43Z</time>
      </trkpt>
      <trkpt lat="53.337747976183891" lon="-9.566027037799358">
        <ele>13.119999999999999</ele>
        <time>2026-07-02T12:25:46Z</time>
      </trkpt>
      <trkpt lat="53.337684022262692" lon="-9.565931987017393">
        <ele>12.630000000000001</ele>
        <time>2026-07-02T12:25:47Z</time>
      </trkpt>
      <trkpt lat="53.337688967585564" lon="-9.565866021439433">
        <ele>12.15</ele>
        <time>2026-07-02T12:25:48Z</time>
      </trkpt>
      <trkpt lat="53.337695002555847" lon="-9.56577499397099">
        <ele>12.15</ele>
        <time>2026-07-02T12:25:49Z</time>
      </trkpt>
      <trkpt lat="53.33770195953548" lon="-9.565671980381012">
        <ele>11.19</ele>
        <time>2026-07-02T12:25:50Z</time>
      </trkpt>
      <trkpt lat="53.337710006162524" lon="-9.565563015639782">
        <ele>10.710000000000001</ele>
        <time>2026-07-02T12:25:51Z</time>
      </trkpt>
      <trkpt lat="53.337717968970537" lon="-9.56545002758503">
        <ele>10.710000000000001</ele>
        <time>2026-07-02T12:25:52Z</time>
      </trkpt>
      <trkpt lat="53.337713023647666" lon="-9.565335027873516">
        <ele>10.710000000000001</ele>
        <time>2026-07-02T12:25:53Z</time>
      </trkpt>
      <trkpt lat="53.337692990899086" lon="-9.565233020111918">
        <ele>10.23</ele>
        <time>2026-07-02T12:25:54Z</time>
      </trkpt>
      <trkpt lat="53.337655020877719" lon="-9.56515297293663">
        <ele>10.23</ele>
        <time>2026-07-02T12:25:55Z</time>
      </trkpt>
      <trkpt lat="53.337603975087404" lon="-9.565127994865179">
        <ele>9.75</ele>
        <time>2026-07-02T12:25:56Z</time>
      </trkpt>
      <trkpt lat="53.337555024772882" lon="-9.565103016793728">
        <ele>9.27</ele>
        <time>2026-07-02T12:25:57Z</time>
      </trkpt>
      <trkpt lat="53.337501967325807" lon="-9.565077032893896">
        <ele>9.27</ele>
        <time>2026-07-02T12:25:58Z</time>
      </trkpt>
      <trkpt lat="53.33742200396955" lon="-9.565035961568356">
        <ele>9.27</ele>
        <time>2026-07-02T12:25:59Z</time>
      </trkpt>
      <trkpt lat="53.337369030341506" lon="-9.565039984881878">
        <ele>9.27</ele>
        <time>2026-07-02T12:26:00Z</time>
      </trkpt>
      <trkpt lat="53.337298035621643" lon="-9.565045014023781">
        <ele>9.27</ele>
        <time>2026-07-02T12:26:01Z</time>
      </trkpt>
      <trkpt lat="53.337227962911129" lon="-9.565049959346652">
        <ele>9.75</ele>
        <time>2026-07-02T12:26:02Z</time>
      </trkpt>
      <trkpt lat="53.33716400898993" lon="-9.565054988488555">
        <ele>9.75</ele>
        <time>2026-07-02T12:26:03Z</time>
      </trkpt>
      <trkpt lat="53.337101982906461" lon="-9.565037973225117">
        <ele>10.23</ele>
        <time>2026-07-02T12:26:04Z</time>
      </trkpt>
      <trkpt lat="53.337049009278417" lon="-9.564986005425453">
        <ele>10.23</ele>
        <time>2026-07-02T12:26:05Z</time>
      </trkpt>
      <trkpt lat="53.337003998458385" lon="-9.56491501070559">
        <ele>10.23</ele>
        <time>2026-07-02T12:26:06Z</time>
      </trkpt>
      <trkpt lat="53.336976002901793" lon="-9.564819037914276">
        <ele>10.710000000000001</ele>
        <time>2026-07-02T12:26:07Z</time>
      </trkpt>
      <trkpt lat="53.336947001516819" lon="-9.56471904180944">
        <ele>11.19</ele>
        <time>2026-07-02T12:26:08Z</time>
      </trkpt>
      <trkpt lat="53.336882963776588" lon="-9.564501028507948">
        <ele>11.19</ele>
        <time>2026-07-02T12:26:10Z</time>
      </trkpt>
      <trkpt lat="53.336838036775589" lon="-9.564393991604447">
        <ele>10.710000000000001</ele>
        <time>2026-07-02T12:26:11Z</time>
      </trkpt>
      <trkpt lat="53.336123982444406" lon="-9.563235025852919">
        <ele>7.83</ele>
        <time>2026-07-02T12:26:21Z</time>
      </trkpt>
      <trkpt lat="53.33578702993691" lon="-9.562688022851944">
        <ele>7.35</ele>
        <time>2026-07-02T12:26:27Z</time>
      </trkpt>
      <trkpt lat="53.335743024945259" lon="-9.5626160223037">
        <ele>7.35</ele>
        <time>2026-07-02T12:26:28Z</time>
      </trkpt>
      <trkpt lat="53.335727015510201" lon="-9.562519965693355">
        <ele>7.35</ele>
        <time>2026-07-02T12:26:29Z</time>
      </trkpt>
      <trkpt lat="53.335727015510201" lon="-9.562415024265647">
        <ele>7.35</ele>
        <time>2026-07-02T12:26:30Z</time>
      </trkpt>
      <trkpt lat="53.335727015510201" lon="-9.56231402233243">
        <ele>7.35</ele>
        <time>2026-07-02T12:26:31Z</time>
      </trkpt>
      <trkpt lat="53.335727015510201" lon="-9.562225006520748">
        <ele>7.35</ele>
        <time>2026-07-02T12:26:32Z</time>
      </trkpt>
      <trkpt lat="53.33574403077364" lon="-9.562140014022589">
        <ele>7.35</ele>
        <time>2026-07-02T12:26:33Z</time>
      </trkpt>
      <trkpt lat="53.335760962218046" lon="-9.562057033181191">
        <ele>7.35</ele>
        <time>2026-07-02T12:26:34Z</time>
      </trkpt>
      <trkpt lat="53.335778983309865" lon="-9.561964999884367">
        <ele>7.83</ele>
        <time>2026-07-02T12:26:35Z</time>
      </trkpt>
      <trkpt lat="53.335989033803344" lon="-9.560988005250692">
        <ele>8.789999999999999</ele>
        <time>2026-07-02T12:26:44Z</time>
      </trkpt>
      <trkpt lat="53.336038989946246" lon="-9.560836963355541">
        <ele>8.310000000000001</ele>
        <time>2026-07-02T12:26:45Z</time>
      </trkpt>
      <trkpt lat="53.336125994101167" lon="-9.560715006664395">
        <ele>8.310000000000001</ele>
        <time>2026-07-02T12:26:46Z</time>
      </trkpt>
      <trkpt lat="53.336222972720861" lon="-9.560597995296121">
        <ele>7.83</ele>
        <time>2026-07-02T12:26:47Z</time>
      </trkpt>
      <trkpt lat="53.336323974654078" lon="-9.560474026948214">
        <ele>7.83</ele>
        <time>2026-07-02T12:26:48Z</time>
      </trkpt>
      <trkpt lat="53.33684298209846" lon="-9.559843959286809">
        <ele>7.83</ele>
        <time>2026-07-02T12:26:54Z</time>
      </trkpt>
      <trkpt lat="53.336873995140195" lon="-9.559734994545579">
        <ele>7.83</ele>
        <time>2026-07-02T12:26:55Z</time>
      </trkpt>
      <trkpt lat="53.33688598126173" lon="-9.559642961248756">
        <ele>7.83</ele>
        <time>2026-07-02T12:26:56Z</time>
      </trkpt>
      <trkpt lat="53.33688598126173" lon="-9.559516981244087">
        <ele>7.83</ele>
        <time>2026-07-02T12:26:57Z</time>
      </trkpt>
      <trkpt lat="53.33688598126173" lon="-9.559370968490839">
        <ele>8.310000000000001</ele>
        <time>2026-07-02T12:26:58Z</time>
      </trkpt>
      <trkpt lat="53.33688598126173" lon="-9.559223027899861">
        <ele>8.789999999999999</ele>
        <time>2026-07-02T12:26:59Z</time>
      </trkpt>
      <trkpt lat="53.33688598126173" lon="-9.559095036238432">
        <ele>9.75</ele>
        <time>2026-07-02T12:27:00Z</time>
      </trkpt>
      <trkpt lat="53.33688598126173" lon="-9.558986993506551">
        <ele>10.710000000000001</ele>
        <time>2026-07-02T12:27:01Z</time>
      </trkpt>
      <trkpt lat="53.33686301484704" lon="-9.558928990736604">
        <ele>11.67</ele>
        <time>2026-07-02T12:27:02Z</time>
      </trkpt>
      <trkpt lat="53.336800988763571" lon="-9.558893032371998">
        <ele>12.630000000000001</ele>
        <time>2026-07-02T12:27:03Z</time>
      </trkpt>
      <trkpt lat="53.336724964901805" lon="-9.558849027380347">
        <ele>13.6</ele>
        <time>2026-07-02T12:27:04Z</time>
      </trkpt>
      <trkpt lat="53.336646007373929" lon="-9.558803010731936">
        <ele>14.08</ele>
        <time>2026-07-02T12:27:05Z</time>
      </trkpt>
      <trkpt lat="53.336590016260743" lon="-9.55872799269855">
        <ele>14.56</ele>
        <time>2026-07-02T12:27:06Z</time>
      </trkpt>
      <trkpt lat="53.336536958813667" lon="-9.558637971058488">
        <ele>15.039999999999999</ele>
        <time>2026-07-02T12:27:07Z</time>
      </trkpt>
      <trkpt lat="53.336478034034371" lon="-9.558538980782032">
        <ele>16</ele>
        <time>2026-07-02T12:27:08Z</time>
      </trkpt>
      <trkpt lat="53.336417013779283" lon="-9.558434039354324">
        <ele>16.48</ele>
        <time>2026-07-02T12:27:09Z</time>
      </trkpt>
      <trkpt lat="53.33634601905942" lon="-9.55831702798605">
        <ele>16.960000000000001</ele>
        <time>2026-07-02T12:27:10Z</time>
      </trkpt>
      <trkpt lat="53.336257003247738" lon="-9.558228012174368">
        <ele>16.960000000000001</ele>
        <time>2026-07-02T12:27:11Z</time>
      </trkpt>
      <trkpt lat="53.33617502823472" lon="-9.55814603716135">
        <ele>17.440000000000001</ele>
        <time>2026-07-02T12:27:12Z</time>
      </trkpt>
      <trkpt lat="53.33611199632287" lon="-9.558084011077881">
        <ele>18.399999999999999</ele>
        <time>2026-07-02T12:27:13Z</time>
      </trkpt>
      <trkpt lat="53.336057011038065" lon="-9.557966999709606">
        <ele>18.879999999999999</ele>
        <time>2026-07-02T12:27:14Z</time>
      </trkpt>
      <trkpt lat="53.336072014644742" lon="-9.557874966412783">
        <ele>19.359999999999999</ele>
        <time>2026-07-02T12:27:15Z</time>
      </trkpt>
      <trkpt lat="53.336087018251419" lon="-9.557779999449849">
        <ele>20.32</ele>
        <time>2026-07-02T12:27:16Z</time>
      </trkpt>
      <trkpt lat="53.336102021858096" lon="-9.557678997516632">
        <ele>20.809999999999999</ele>
        <time>2026-07-02T12:27:17Z</time>
      </trkpt>
      <trkpt lat="53.336120964959264" lon="-9.557559974491596">
        <ele>21.77</ele>
        <time>2026-07-02T12:27:18Z</time>
      </trkpt>
      <trkpt lat="53.336177039891481" lon="-9.557098969817162">
        <ele>21.77</ele>
        <time>2026-07-02T12:27:21Z</time>
      </trkpt>
      <trkpt lat="53.336177039891481" lon="-9.55692496150732">
        <ele>22.25</ele>
        <time>2026-07-02T12:27:22Z</time>
      </trkpt>
      <trkpt lat="53.336133034899831" lon="-9.556763023138046">
        <ele>22.73</ele>
        <time>2026-07-02T12:27:23Z</time>
      </trkpt>
      <trkpt lat="53.33608902990818" lon="-9.556602006778121">
        <ele>23.210000000000001</ele>
        <time>2026-07-02T12:27:24Z</time>
      </trkpt>
      <trkpt lat="53.336044019088149" lon="-9.556436967104673">
        <ele>23.690000000000001</ele>
        <time>2026-07-02T12:27:25Z</time>
      </trkpt>
      <trkpt lat="53.335999008268118" lon="-9.556271005421877">
        <ele>24.170000000000002</ele>
        <time>2026-07-02T12:27:26Z</time>
      </trkpt>
      <trkpt lat="53.335976963862777" lon="-9.556086016818881">
        <ele>24.649999999999999</ele>
        <time>2026-07-02T12:27:27Z</time>
      </trkpt>
      <trkpt lat="53.335965983569622" lon="-9.555898010730743">
        <ele>25.609999999999999</ele>
        <time>2026-07-02T12:27:28Z</time>
      </trkpt>
      <trkpt lat="53.335953997448087" lon="-9.555707992985845">
        <ele>26.57</ele>
        <time>2026-07-02T12:27:29Z</time>
      </trkpt>
      <trkpt lat="53.335943017154932" lon="-9.555516969412565">
        <ele>27.530000000000001</ele>
        <time>2026-07-02T12:27:30Z</time>
      </trkpt>
      <trkpt lat="53.336064973846078" lon="-9.553697006776929">
        <ele>29.940000000000001</ele>
        <time>2026-07-02T12:27:39Z</time>
      </trkpt>
      <trkpt lat="53.336171004921198" lon="-9.552163034677506">
        <ele>32.340000000000003</ele>
        <time>2026-07-02T12:27:47Z</time>
      </trkpt>
      <trkpt lat="53.336199000477791" lon="-9.552030013874173">
        <ele>32.82</ele>
        <time>2026-07-02T12:27:48Z</time>
      </trkpt>
      <trkpt lat="53.336253985762596" lon="-9.551910990849137">
        <ele>32.82</ele>
        <time>2026-07-02T12:27:49Z</time>
      </trkpt>
      <trkpt lat="53.336546011269093" lon="-9.551283018663526">
        <ele>33.780000000000001</ele>
        <time>2026-07-02T12:27:54Z</time>
      </trkpt>
      <trkpt lat="53.336800988763571" lon="-9.549656007438898">
        <ele>30.420000000000002</ele>
        <time>2026-07-02T12:28:03Z</time>
      </trkpt>
      <trkpt lat="53.336801994591951" lon="-9.549465989693999">
        <ele>29.940000000000001</ele>
        <time>2026-07-02T12:28:04Z</time>
      </trkpt>
      <trkpt lat="53.336814986541867" lon="-9.547874014824629">
        <ele>25.129999999999999</ele>
        <time>2026-07-02T12:28:13Z</time>
      </trkpt>
      <trkpt lat="53.33682001568377" lon="-9.547216035425663">
        <ele>19.359999999999999</ele>
        <time>2026-07-02T12:28:20Z</time>
      </trkpt>
      <trkpt lat="53.33682001568377" lon="-9.547216035425663">
        <ele>18.879999999999999</ele>
        <time>2026-07-02T12:28:21Z</time>
      </trkpt>
      <trkpt lat="53.336893022060394" lon="-9.547113021835685">
        <ele>17.440000000000001</ele>
        <time>2026-07-02T12:28:26Z</time>
      </trkpt>
      <trkpt lat="53.336954964324832" lon="-9.54712500795722">
        <ele>16.960000000000001</ele>
        <time>2026-07-02T12:28:27Z</time>
      </trkpt>
      <trkpt lat="53.337585031986237" lon="-9.547202037647367">
        <ele>15.039999999999999</ele>
        <time>2026-07-02T12:28:33Z</time>
      </trkpt>
      <trkpt lat="53.33909603767097" lon="-9.546691998839378">
        <ele>13.6</ele>
        <time>2026-07-02T12:28:43Z</time>
      </trkpt>
      <trkpt lat="53.340629003942013" lon="-9.545864034444094">
        <ele>10.23</ele>
        <time>2026-07-02T12:28:53Z</time>
      </trkpt>
      <trkpt lat="53.342077983543277" lon="-9.545681979507208">
        <ele>9.27</ele>
        <time>2026-07-02T12:29:02Z</time>
      </trkpt>
      <trkpt lat="53.343584965914488" lon="-9.545158026739955">
        <ele>6.87</ele>
        <time>2026-07-02T12:29:10Z</time>
      </trkpt>
      <trkpt lat="53.345591006800532" lon="-9.544282034039497">
        <ele>5.91</ele>
        <time>2026-07-02T12:29:19Z</time>
      </trkpt>
      <trkpt lat="53.347442988306284" lon="-9.543353989720345">
        <ele>7.83</ele>
        <time>2026-07-02T12:29:28Z</time>
      </trkpt>
      <trkpt lat="53.349482975900173" lon="-9.542230982333422">
        <ele>10.710000000000001</ele>
        <time>2026-07-02T12:29:39Z</time>
      </trkpt>
      <trkpt lat="53.351224986836314" lon="-9.541871985420585">
        <ele>13.6</ele>
        <time>2026-07-02T12:29:48Z</time>
      </trkpt>
      <trkpt lat="53.353242008015513" lon="-9.54192697070539">
        <ele>16.48</ele>
        <time>2026-07-02T12:29:58Z</time>
      </trkpt>
      <trkpt lat="53.356257984414697" lon="-9.542360985651612">
        <ele>23.210000000000001</ele>
        <time>2026-07-02T12:30:13Z</time>
      </trkpt>
      <trkpt lat="53.358304006978869" lon="-9.542641025036573">
        <ele>23.690000000000001</ele>
        <time>2026-07-02T12:30:24Z</time>
      </trkpt>
      <trkpt lat="53.361030975356698" lon="-9.542891979217529">
        <ele>18.879999999999999</ele>
        <time>2026-07-02T12:30:37Z</time>
      </trkpt>
      <trkpt lat="53.363824998959899" lon="-9.543044026941061">
        <ele>16.960000000000001</ele>
        <time>2026-07-02T12:30:51Z</time>
      </trkpt>
      <trkpt lat="53.365921983495355" lon="-9.543092977255583">
        <ele>11.19</ele>
        <time>2026-07-02T12:31:02Z</time>
      </trkpt>
      <trkpt lat="53.36814796552062" lon="-9.543132958933711">
        <ele>8.789999999999999</ele>
        <time>2026-07-02T12:31:13Z</time>
      </trkpt>
      <trkpt lat="53.370326003059745" lon="-9.543437976390123">
        <ele>11.19</ele>
        <time>2026-07-02T12:31:24Z</time>
      </trkpt>
      <trkpt lat="53.371937004849315" lon="-9.543754979968071">
        <ele>10.23</ele>
        <time>2026-07-02T12:31:32Z</time>
      </trkpt>
      <trkpt lat="53.374473033472896" lon="-9.544747984036803">
        <ele>11.67</ele>
        <time>2026-07-02T12:31:45Z</time>
      </trkpt>
      <trkpt lat="53.375306027010083" lon="-9.54514604061842">
        <ele>13.119999999999999</ele>
        <time>2026-07-02T12:31:50Z</time>
      </trkpt>
      <trkpt lat="53.376832958310843" lon="-9.546603988856077">
        <ele>11.67</ele>
        <time>2026-07-02T12:32:00Z</time>
      </trkpt>
      <trkpt lat="53.377623036503792" lon="-9.547394989058375">
        <ele>13.119999999999999</ele>
        <time>2026-07-02T12:32:07Z</time>
      </trkpt>
      <trkpt lat="53.379101017490029" lon="-9.548773979768157">
        <ele>15.039999999999999</ele>
        <time>2026-07-02T12:32:18Z</time>
      </trkpt>
      <trkpt lat="53.38045896962285" lon="-9.549464983865619">
        <ele>14.56</ele>
        <time>2026-07-02T12:32:27Z</time>
      </trkpt>
      <trkpt lat="53.381778029724956" lon="-9.550099996849895">
        <ele>16.48</ele>
        <time>2026-07-02T12:32:36Z</time>
      </trkpt>
      <trkpt lat="53.383112009614706" lon="-9.550561001524329">
        <ele>22.25</ele>
        <time>2026-07-02T12:32:44Z</time>
      </trkpt>
      <trkpt lat="53.383252993226051" lon="-9.550611041486263">
        <ele>23.210000000000001</ele>
        <time>2026-07-02T12:32:45Z</time>
      </trkpt>
      <trkpt lat="53.383405962958932" lon="-9.550702990964055">
        <ele>23.690000000000001</ele>
        <time>2026-07-02T12:32:46Z</time>
      </trkpt>
      <trkpt lat="53.383516017347574" lon="-9.550865013152361">
        <ele>24.170000000000002</ele>
        <time>2026-07-02T12:32:47Z</time>
      </trkpt>
      <trkpt lat="53.383640991523862" lon="-9.551050001755357">
        <ele>24.649999999999999</ele>
        <time>2026-07-02T12:32:48Z</time>
      </trkpt>
      <trkpt lat="53.383768983185291" lon="-9.551237002015114">
        <ele>24.649999999999999</ele>
        <time>2026-07-02T12:32:49Z</time>
      </trkpt>
      <trkpt lat="53.384638018906116" lon="-9.552448019385338">
        <ele>23.690000000000001</ele>
        <time>2026-07-02T12:32:57Z</time>
      </trkpt>
      <trkpt lat="53.385015958920121" lon="-9.552939031273127">
        <ele>24.170000000000002</ele>
        <time>2026-07-02T12:33:03Z</time>
      </trkpt>
      <trkpt lat="53.385031968355179" lon="-9.552960991859436">
        <ele>24.649999999999999</ele>
        <time>2026-07-02T12:33:04Z</time>
      </trkpt>
      <trkpt lat="53.385046971961856" lon="-9.552980018779635">
        <ele>25.129999999999999</ele>
        <time>2026-07-02T12:33:05Z</time>
      </trkpt>
      <trkpt lat="53.385104974731803" lon="-9.55305595882237">
        <ele>26.09</ele>
        <time>2026-07-02T12:33:14Z</time>
      </trkpt>
      <trkpt lat="53.385116038843989" lon="-9.553180010989308">
        <ele>26.09</ele>
        <time>2026-07-02T12:33:15Z</time>
      </trkpt>
      <trkpt lat="53.385085025802255" lon="-9.553266009315848">
        <ele>26.57</ele>
        <time>2026-07-02T12:33:16Z</time>
      </trkpt>
      <trkpt lat="53.385043032467365" lon="-9.55337799154222">
        <ele>26.09</ele>
        <time>2026-07-02T12:33:17Z</time>
      </trkpt>
      <trkpt lat="53.384995004162192" lon="-9.553507994860411">
        <ele>26.09</ele>
        <time>2026-07-02T12:33:18Z</time>
      </trkpt>
      <trkpt lat="53.384481025859714" lon="-9.554909029975534">
        <ele>23.690000000000001</ele>
        <time>2026-07-02T12:33:26Z</time>
      </trkpt>
      <trkpt lat="53.384434003382921" lon="-9.555114973336458">
        <ele>23.210000000000001</ele>
        <time>2026-07-02T12:33:27Z</time>
      </trkpt>
      <trkpt lat="53.384397961199284" lon="-9.555328963324428">
        <ele>22.73</ele>
        <time>2026-07-02T12:33:28Z</time>
      </trkpt>
      <trkpt lat="53.384386980906129" lon="-9.555557034909725">
        <ele>21.77</ele>
        <time>2026-07-02T12:33:29Z</time>
      </trkpt>
      <trkpt lat="53.384360997006297" lon="-9.557667011395097">
        <ele>15.52</ele>
        <time>2026-07-02T12:33:37Z</time>
      </trkpt>
      <trkpt lat="53.384391004219651" lon="-9.557924000546336">
        <ele>14.56</ele>
        <time>2026-07-02T12:33:38Z</time>
      </trkpt>
      <trkpt lat="53.384865000844002" lon="-9.560422981157899">
        <ele>14.08</ele>
        <time>2026-07-02T12:33:48Z</time>
      </trkpt>
      <trkpt lat="53.384889978915453" lon="-9.560663038864732">
        <ele>14.08</ele>
        <time>2026-07-02T12:33:49Z</time>
      </trkpt>
      <trkpt lat="53.384914034977555" lon="-9.560895971953869">
        <ele>14.08</ele>
        <time>2026-07-02T12:33:50Z</time>
      </trkpt>
      <trkpt lat="53.384915962815285" lon="-9.561142986640334">
        <ele>13.6</ele>
        <time>2026-07-02T12:33:51Z</time>
      </trkpt>
      <trkpt lat="53.384881010279059" lon="-9.561390001326799">
        <ele>12.630000000000001</ele>
        <time>2026-07-02T12:33:52Z</time>
      </trkpt>
      <trkpt lat="53.384845973923802" lon="-9.561643972992897">
        <ele>11.67</ele>
        <time>2026-07-02T12:33:53Z</time>
      </trkpt>
      <trkpt lat="53.384407013654709" lon="-9.56381999887526">
        <ele>7.83</ele>
        <time>2026-07-02T12:34:01Z</time>
      </trkpt>
      <trkpt lat="53.38385196402669" lon="-9.566220995038748">
        <ele>5.91</ele>
        <time>2026-07-02T12:34:10Z</time>
      </trkpt>
      <trkpt lat="53.383749034255743" lon="-9.568808991461992">
        <ele>9.75</ele>
        <time>2026-07-02T12:34:18Z</time>
      </trkpt>
      <trkpt lat="53.383960006758571" lon="-9.573212005198002">
        <ele>9.75</ele>
        <time>2026-07-02T12:34:31Z</time>
      </trkpt>
      <trkpt lat="53.384290002286434" lon="-9.57675302401185">
        <ele>9.75</ele>
        <time>2026-07-02T12:34:43Z</time>
      </trkpt>
      <trkpt lat="53.384406007826328" lon="-9.577631028369069">
        <ele>8.789999999999999</ele>
        <time>2026-07-02T12:34:47Z</time>
      </trkpt>
      <trkpt lat="53.384397039189935" lon="-9.577803025022149">
        <ele>8.789999999999999</ele>
        <time>2026-07-02T12:34:48Z</time>
      </trkpt>
      <trkpt lat="53.384350016713142" lon="-9.577950965613127">
        <ele>8.310000000000001</ele>
        <time>2026-07-02T12:34:49Z</time>
      </trkpt>
      <trkpt lat="53.384258989244699" lon="-9.578079041093588">
        <ele>8.310000000000001</ele>
        <time>2026-07-02T12:34:50Z</time>
      </trkpt>
      <trkpt lat="53.384155975654721" lon="-9.578226981684566">
        <ele>8.310000000000001</ele>
        <time>2026-07-02T12:34:51Z</time>
      </trkpt>
      <trkpt lat="53.384040975943208" lon="-9.578390009701252">
        <ele>8.310000000000001</ele>
        <time>2026-07-02T12:34:52Z</time>
      </trkpt>
      <trkpt lat="53.383019976317883" lon="-9.579788027331233">
        <ele>8.310000000000001</ele>
        <time>2026-07-02T12:34:59Z</time>
      </trkpt>
      <trkpt lat="53.381995037198067" lon="-9.581238012760878">
        <ele>8.789999999999999</ele>
        <time>2026-07-02T12:35:07Z</time>
      </trkpt>
      <trkpt lat="53.381800996139646" lon="-9.581577982753515">
        <ele>8.789999999999999</ele>
        <time>2026-07-02T12:35:09Z</time>
      </trkpt>
      <trkpt lat="53.381033968180418" lon="-9.583566002547741">
        <ele>8.789999999999999</ele>
        <time>2026-07-02T12:35:17Z</time>
      </trkpt>
      <trkpt lat="53.380841016769409" lon="-9.584073023870587">
        <ele>7.83</ele>
        <time>2026-07-02T12:35:19Z</time>
      </trkpt>
      <trkpt lat="53.380788965150714" lon="-9.584304029121995">
        <ele>7.83</ele>
        <time>2026-07-02T12:35:20Z</time>
      </trkpt>
      <trkpt lat="53.380747977644205" lon="-9.584608962759376">
        <ele>6.87</ele>
        <time>2026-07-02T12:35:22Z</time>
      </trkpt>
      <trkpt lat="53.380747977644205" lon="-9.584665959700942">
        <ele>6.87</ele>
        <time>2026-07-02T12:35:23Z</time>
      </trkpt>
      <trkpt lat="53.380747977644205" lon="-9.584665959700942">
        <ele>6.39</ele>
        <time>2026-07-02T12:35:24Z</time>
      </trkpt>
      <trkpt lat="53.380747977644205" lon="-9.584665959700942">
        <ele>5.91</ele>
        <time>2026-07-02T12:35:40Z</time>
      </trkpt>
      <trkpt lat="53.380747977644205" lon="-9.584665959700942">
        <ele>6.39</ele>
        <time>2026-07-02T12:36:12Z</time>
      </trkpt>
      <trkpt lat="53.380797011777759" lon="-9.585270965471864">
        <ele>8.310000000000001</ele>
        <time>2026-07-02T12:36:17Z</time>
      </trkpt>
      <trkpt lat="53.380960039794445" lon="-9.586902000010014">
        <ele>9.75</ele>
        <time>2026-07-02T12:36:24Z</time>
      </trkpt>
      <trkpt lat="53.381076967343688" lon="-9.587420001626015">
        <ele>9.75</ele>
        <time>2026-07-02T12:36:26Z</time>
      </trkpt>
      <trkpt lat="53.381146034225821" lon="-9.587633991613984">
        <ele>9.75</ele>
        <time>2026-07-02T12:36:27Z</time>
      </trkpt>
      <trkpt lat="53.381247036159039" lon="-9.587821997702122">
        <ele>9.75</ele>
        <time>2026-07-02T12:36:28Z</time>
      </trkpt>
      <trkpt lat="53.381555993109941" lon="-9.588395990431309">
        <ele>8.789999999999999</ele>
        <time>2026-07-02T12:36:31Z</time>
      </trkpt>
      <trkpt lat="53.381621958687901" lon="-9.588607968762517">
        <ele>9.27</ele>
        <time>2026-07-02T12:36:32Z</time>
      </trkpt>
      <trkpt lat="53.3816790394485" lon="-9.588797986507416">
        <ele>9.27</ele>
        <time>2026-07-02T12:36:33Z</time>
      </trkpt>
      <trkpt lat="53.381689013913274" lon="-9.589013988152146">
        <ele>9.27</ele>
        <time>2026-07-02T12:36:34Z</time>
      </trkpt>
      <trkpt lat="53.381680967286229" lon="-9.589237030595541">
        <ele>8.789999999999999</ele>
        <time>2026-07-02T12:36:35Z</time>
      </trkpt>
      <trkpt lat="53.381648026406765" lon="-9.589471975341439">
        <ele>9.27</ele>
        <time>2026-07-02T12:36:36Z</time>
      </trkpt>
      <trkpt lat="53.381612990051508" lon="-9.589722007513046">
        <ele>9.27</ele>
        <time>2026-07-02T12:36:37Z</time>
      </trkpt>
      <trkpt lat="53.381512993946671" lon="-9.590531028807163">
        <ele>9.27</ele>
        <time>2026-07-02T12:36:40Z</time>
      </trkpt>
      <trkpt lat="53.381502013653517" lon="-9.590814001858234">
        <ele>9.75</ele>
        <time>2026-07-02T12:36:41Z</time>
      </trkpt>
      <trkpt lat="53.381505031138659" lon="-9.591106027364731">
        <ele>9.75</ele>
        <time>2026-07-02T12:36:42Z</time>
      </trkpt>
      <trkpt lat="53.381524980068207" lon="-9.591404004022479">
        <ele>9.75</ele>
        <time>2026-07-02T12:36:43Z</time>
      </trkpt>
      <trkpt lat="53.381546018645167" lon="-9.591712038964033">
        <ele>9.27</ele>
        <time>2026-07-02T12:36:44Z</time>
      </trkpt>
      <trkpt lat="53.38176503777504" lon="-9.593649012967944">
        <ele>7.83</ele>
        <time>2026-07-02T12:36:50Z</time>
      </trkpt>
      <trkpt lat="53.381794961169362" lon="-9.593951012939215">
        <ele>7.83</ele>
        <time>2026-07-02T12:36:51Z</time>
      </trkpt>
      <trkpt lat="53.381778029724956" lon="-9.594248989596963">
        <ele>7.83</ele>
        <time>2026-07-02T12:36:52Z</time>
      </trkpt>
      <trkpt lat="53.381762020289898" lon="-9.594544032588601">
        <ele>7.83</ele>
        <time>2026-07-02T12:36:53Z</time>
      </trkpt>
      <trkpt lat="53.381728995591402" lon="-9.594818959012628">
        <ele>8.310000000000001</ele>
        <time>2026-07-02T12:36:54Z</time>
      </trkpt>
      <trkpt lat="53.381679961457849" lon="-9.595073014497757">
        <ele>7.83</ele>
        <time>2026-07-02T12:36:55Z</time>
      </trkpt>
      <trkpt lat="53.381632016971707" lon="-9.595317011699081">
        <ele>7.83</ele>
        <time>2026-07-02T12:36:56Z</time>
      </trkpt>
      <trkpt lat="53.381547024473548" lon="-9.595535025000572">
        <ele>7.83</ele>
        <time>2026-07-02T12:36:57Z</time>
      </trkpt>
      <trkpt lat="53.381451973691583" lon="-9.595755971968174">
        <ele>7.35</ele>
        <time>2026-07-02T12:36:58Z</time>
      </trkpt>
      <trkpt lat="53.381352983415127" lon="-9.595985971391201">
        <ele>6.87</ele>
        <time>2026-07-02T12:36:59Z</time>
      </trkpt>
      <trkpt lat="53.381247036159039" lon="-9.59621898829937">
        <ele>6.39</ele>
        <time>2026-07-02T12:37:00Z</time>
      </trkpt>
      <trkpt lat="53.380423011258245" lon="-9.598069963976741">
        <ele>3.5</ele>
        <time>2026-07-02T12:37:08Z</time>
      </trkpt>
      <trkpt lat="53.379972986876965" lon="-9.599840976297855">
        <ele>10.23</ele>
        <time>2026-07-02T12:37:16Z</time>
      </trkpt>
      <trkpt lat="53.379972986876965" lon="-9.600084973499179">
        <ele>11.19</ele>
        <time>2026-07-02T12:37:17Z</time>
      </trkpt>
      <trkpt lat="53.379972986876965" lon="-9.600315978750587">
        <ele>12.15</ele>
        <time>2026-07-02T12:37:18Z</time>
      </trkpt>
      <trkpt lat="53.380012968555093" lon="-9.600521000102162">
        <ele>12.630000000000001</ele>
        <time>2026-07-02T12:37:19Z</time>
      </trkpt>
      <trkpt lat="53.38006803765893" lon="-9.600721998140216">
        <ele>13.119999999999999</ele>
        <time>2026-07-02T12:37:20Z</time>
      </trkpt>
      <trkpt lat="53.38015504181385" lon="-9.600902963429689">
        <ele>14.08</ele>
        <time>2026-07-02T12:37:21Z</time>
      </trkpt>
      <trkpt lat="53.380258977413177" lon="-9.601076971739531">
        <ele>14.56</ele>
        <time>2026-07-02T12:37:22Z</time>
      </trkpt>
      <trkpt lat="53.380385041236877" lon="-9.601231031119824">
        <ele>14.56</ele>
        <time>2026-07-02T12:37:23Z</time>
      </trkpt>
      <trkpt lat="53.38052099570632" lon="-9.601395986974239">
        <ele>15.039999999999999</ele>
        <time>2026-07-02T12:37:24Z</time>
      </trkpt>
      <trkpt lat="53.38204599916935" lon="-9.603027021512389">
        <ele>14.08</ele>
        <time>2026-07-02T12:37:35Z</time>
      </trkpt>
      <trkpt lat="53.382642958313227" lon="-9.603505041450262">
        <ele>14.56</ele>
        <time>2026-07-02T12:37:39Z</time>
      </trkpt>
      <trkpt lat="53.382764998823404" lon="-9.603667985647917">
        <ele>15.039999999999999</ele>
        <time>2026-07-02T12:37:40Z</time>
      </trkpt>
      <trkpt lat="53.383943997323513" lon="-9.605399016290903">
        <ele>13.6</ele>
        <time>2026-07-02T12:37:49Z</time>
      </trkpt>
      <trkpt lat="53.385163983330131" lon="-9.607096016407013">
        <ele>14.08</ele>
        <time>2026-07-02T12:37:58Z</time>
      </trkpt>
      <trkpt lat="53.385252999141812" lon="-9.607278993353248">
        <ele>14.08</ele>
        <time>2026-07-02T12:37:59Z</time>
      </trkpt>
      <trkpt lat="53.385313013568521" lon="-9.607486026361585">
        <ele>14.56</ele>
        <time>2026-07-02T12:38:00Z</time>
      </trkpt>
      <trkpt lat="53.385744011029601" lon="-9.608855964615941">
        <ele>16</ele>
        <time>2026-07-02T12:38:08Z</time>
      </trkpt>
      <trkpt lat="53.386588990688324" lon="-9.61085001938045">
        <ele>16</ele>
        <time>2026-07-02T12:38:19Z</time>
      </trkpt>
      <trkpt lat="53.386928038671613" lon="-9.611745039001107">
        <ele>15.039999999999999</ele>
        <time>2026-07-02T12:38:24Z</time>
      </trkpt>
      <trkpt lat="53.387024011462927" lon="-9.611903037875891">
        <ele>14.56</ele>
        <time>2026-07-02T12:38:25Z</time>
      </trkpt>
      <trkpt lat="53.387615019455552" lon="-9.612881038337946">
        <ele>11.19</ele>
        <time>2026-07-02T12:38:31Z</time>
      </trkpt>
      <trkpt lat="53.387667993083596" lon="-9.613096034154296">
        <ele>11.19</ele>
        <time>2026-07-02T12:38:32Z</time>
      </trkpt>
      <trkpt lat="53.387723984196782" lon="-9.61332100443542">
        <ele>11.19</ele>
        <time>2026-07-02T12:38:33Z</time>
      </trkpt>
      <trkpt lat="53.387779975309968" lon="-9.613547986373305">
        <ele>11.19</ele>
        <time>2026-07-02T12:38:34Z</time>
      </trkpt>
      <trkpt lat="53.387836972251534" lon="-9.613782009109855">
        <ele>11.19</ele>
        <time>2026-07-02T12:38:35Z</time>
      </trkpt>
      <trkpt lat="53.38836302049458" lon="-9.615700040012598">
        <ele>13.6</ele>
        <time>2026-07-02T12:38:43Z</time>
      </trkpt>
      <trkpt lat="53.388677006587386" lon="-9.617973966524005">
        <ele>17.440000000000001</ele>
        <time>2026-07-02T12:38:52Z</time>
      </trkpt>
      <trkpt lat="53.388807009905577" lon="-9.619552027434111">
        <ele>17.920000000000002</ele>
        <time>2026-07-02T12:38:58Z</time>
      </trkpt>
      <trkpt lat="53.388803992420435" lon="-9.619821002706885">
        <ele>17.920000000000002</ele>
        <time>2026-07-02T12:38:59Z</time>
      </trkpt>
      <trkpt lat="53.388813966885209" lon="-9.620982985943556">
        <ele>16</ele>
        <time>2026-07-02T12:39:03Z</time>
      </trkpt>
      <trkpt lat="53.388988981023431" lon="-9.622676968574524">
        <ele>16.48</ele>
        <time>2026-07-02T12:39:09Z</time>
      </trkpt>
      <trkpt lat="53.389041032642126" lon="-9.622905040159822">
        <ele>16.960000000000001</ele>
        <time>2026-07-02T12:39:10Z</time>
      </trkpt>
      <trkpt lat="53.389105992391706" lon="-9.623114001005888">
        <ele>17.440000000000001</ele>
        <time>2026-07-02T12:39:11Z</time>
      </trkpt>
      <trkpt lat="53.389196014031768" lon="-9.623313993215561">
        <ele>18.399999999999999</ele>
        <time>2026-07-02T12:39:12Z</time>
      </trkpt>
      <trkpt lat="53.38928796350956" lon="-9.623520020395517">
        <ele>18.879999999999999</ele>
        <time>2026-07-02T12:39:13Z</time>
      </trkpt>
      <trkpt lat="53.390256995335221" lon="-9.625397985801101">
        <ele>24.170000000000002</ele>
        <time>2026-07-02T12:39:22Z</time>
      </trkpt>
      <trkpt lat="53.390309968963265" lon="-9.625604012981057">
        <ele>24.649999999999999</ele>
        <time>2026-07-02T12:39:23Z</time>
      </trkpt>
      <trkpt lat="53.390341987833381" lon="-9.625838035717607">
        <ele>24.649999999999999</ele>
        <time>2026-07-02T12:39:24Z</time>
      </trkpt>
      <trkpt lat="53.390375012531877" lon="-9.626086978241801">
        <ele>25.129999999999999</ele>
        <time>2026-07-02T12:39:25Z</time>
      </trkpt>
      <trkpt lat="53.390402002260089" lon="-9.626341033726931">
        <ele>25.129999999999999</ele>
        <time>2026-07-02T12:39:26Z</time>
      </trkpt>
      <trkpt lat="53.390406025573611" lon="-9.626611014828086">
        <ele>25.129999999999999</ele>
        <time>2026-07-02T12:39:27Z</time>
      </trkpt>
      <trkpt lat="53.390409965068102" lon="-9.626891976222396">
        <ele>24.649999999999999</ele>
        <time>2026-07-02T12:39:28Z</time>
      </trkpt>
      <trkpt lat="53.390394039452076" lon="-9.629466980695725">
        <ele>23.210000000000001</ele>
        <time>2026-07-02T12:39:37Z</time>
      </trkpt>
      <trkpt lat="53.390342993661761" lon="-9.629704020917416">
        <ele>22.73</ele>
        <time>2026-07-02T12:39:38Z</time>
      </trkpt>
      <trkpt lat="53.390293037518859" lon="-9.629937959834933">
        <ele>22.73</ele>
        <time>2026-07-02T12:39:39Z</time>
      </trkpt>
      <trkpt lat="53.390220031142235" lon="-9.630163013935089">
        <ele>22.25</ele>
        <time>2026-07-02T12:39:40Z</time>
      </trkpt>
      <trkpt lat="53.390127997845411" lon="-9.630389995872974">
        <ele>22.25</ele>
        <time>2026-07-02T12:39:41Z</time>
      </trkpt>
      <trkpt lat="53.389504970982671" lon="-9.632022958248854">
        <ele>17.920000000000002</ele>
        <time>2026-07-02T12:39:48Z</time>
      </trkpt>
      <trkpt lat="53.389474963769317" lon="-9.632253963500261">
        <ele>17.440000000000001</ele>
        <time>2026-07-02T12:39:49Z</time>
      </trkpt>
      <trkpt lat="53.389469012618065" lon="-9.632469965144992">
        <ele>16.960000000000001</ele>
        <time>2026-07-02T12:39:50Z</time>
      </trkpt>
      <trkpt lat="53.38950295932591" lon="-9.632684960961342">
        <ele>16</ele>
        <time>2026-07-02T12:39:51Z</time>
      </trkpt>
      <trkpt lat="53.389548975974321" lon="-9.632912026718259">
        <ele>15.52</ele>
        <time>2026-07-02T12:39:52Z</time>
      </trkpt>
      <trkpt lat="53.38960999622941" lon="-9.633156023919582">
        <ele>15.039999999999999</ele>
        <time>2026-07-02T12:39:53Z</time>
      </trkpt>
      <trkpt lat="53.389691971242428" lon="-9.63340999558568">
        <ele>14.56</ele>
        <time>2026-07-02T12:39:54Z</time>
      </trkpt>
      <trkpt lat="53.390718000009656" lon="-9.636335028335452">
        <ele>14.08</ele>
        <time>2026-07-02T12:40:05Z</time>
      </trkpt>
      <trkpt lat="53.390952022746205" lon="-9.637056039646268">
        <ele>14.08</ele>
        <time>2026-07-02T12:40:08Z</time>
      </trkpt>
      <trkpt lat="53.39098596945405" lon="-9.637287966907024">
        <ele>14.56</ele>
        <time>2026-07-02T12:40:09Z</time>
      </trkpt>
      <trkpt lat="53.391001978889108" lon="-9.637514026835561">
        <ele>14.56</ele>
        <time>2026-07-02T12:40:10Z</time>
      </trkpt>
      <trkpt lat="53.391001978889108" lon="-9.63775098323822">
        <ele>14.08</ele>
        <time>2026-07-02T12:40:11Z</time>
      </trkpt>
      <trkpt lat="53.391001978889108" lon="-9.638001015409827">
        <ele>14.08</ele>
        <time>2026-07-02T12:40:12Z</time>
      </trkpt>
      <trkpt lat="53.390980018302798" lon="-9.640594962984324">
        <ele>11.19</ele>
        <time>2026-07-02T12:40:21Z</time>
      </trkpt>
      <trkpt lat="53.390980018302798" lon="-9.641395015642047">
        <ele>12.15</ele>
        <time>2026-07-02T12:40:24Z</time>
      </trkpt>
      <trkpt lat="53.390993010252714" lon="-9.641644963994622">
        <ele>12.630000000000001</ele>
        <time>2026-07-02T12:40:25Z</time>
      </trkpt>
      <trkpt lat="53.391037015244365" lon="-9.641888961195946">
        <ele>13.119999999999999</ele>
        <time>2026-07-02T12:40:26Z</time>
      </trkpt>
      <trkpt lat="53.391088983044028" lon="-9.642118038609624">
        <ele>13.6</ele>
        <time>2026-07-02T12:40:27Z</time>
      </trkpt>
      <trkpt lat="53.391159977763891" lon="-9.642339991405606">
        <ele>14.08</ele>
        <time>2026-07-02T12:40:28Z</time>
      </trkpt>
      <trkpt lat="53.391228960826993" lon="-9.642555993050337">
        <ele>15.039999999999999</ele>
        <time>2026-07-02T12:40:29Z</time>
      </trkpt>
      <trkpt lat="53.391320994123816" lon="-9.642727989703417">
        <ele>16</ele>
        <time>2026-07-02T12:40:30Z</time>
      </trkpt>
      <trkpt lat="53.39141596108675" lon="-9.642895041033626">
        <ele>16.960000000000001</ele>
        <time>2026-07-02T12:40:31Z</time>
      </trkpt>
      <trkpt lat="53.391509000211954" lon="-9.643055973574519">
        <ele>17.440000000000001</ele>
        <time>2026-07-02T12:40:32Z</time>
      </trkpt>
      <trkpt lat="53.391597010195255" lon="-9.643208021298051">
        <ele>18.399999999999999</ele>
        <time>2026-07-02T12:40:33Z</time>
      </trkpt>
      <trkpt lat="53.391680996865034" lon="-9.643355961889029">
        <ele>18.399999999999999</ele>
        <time>2026-07-02T12:40:34Z</time>
      </trkpt>
      <trkpt lat="53.391746962442994" lon="-9.64352703653276">
        <ele>18.879999999999999</ele>
        <time>2026-07-02T12:40:35Z</time>
      </trkpt>
      <trkpt lat="53.391781998798251" lon="-9.643724011257291">
        <ele>19.359999999999999</ele>
        <time>2026-07-02T12:40:36Z</time>
      </trkpt>
      <trkpt lat="53.391818040981889" lon="-9.643930038437247">
        <ele>19.359999999999999</ele>
        <time>2026-07-02T12:40:37Z</time>
      </trkpt>
      <trkpt lat="53.391834972426295" lon="-9.644148973748088">
        <ele>19.84</ele>
        <time>2026-07-02T12:40:38Z</time>
      </trkpt>
      <trkpt lat="53.391881994903088" lon="-9.644773006439209">
        <ele>19.359999999999999</ele>
        <time>2026-07-02T12:40:41Z</time>
      </trkpt>
      <trkpt lat="53.391847964376211" lon="-9.645000994205475">
        <ele>18.879999999999999</ele>
        <time>2026-07-02T12:40:42Z</time>
      </trkpt>
      <trkpt lat="53.391818040981889" lon="-9.64520500972867">
        <ele>18.879999999999999</ele>
        <time>2026-07-02T12:40:43Z</time>
      </trkpt>
      <trkpt lat="53.391769006848335" lon="-9.645401984453201">
        <ele>18.399999999999999</ele>
        <time>2026-07-02T12:40:44Z</time>
      </trkpt>
      <trkpt lat="53.391679991036654" lon="-9.64557096362114">
        <ele>18.879999999999999</ele>
        <time>2026-07-02T12:40:45Z</time>
      </trkpt>
      <trkpt lat="53.391584018245339" lon="-9.645752012729645">
        <ele>18.879999999999999</ele>
        <time>2026-07-02T12:40:46Z</time>
      </trkpt>
      <trkpt lat="53.390806009992957" lon="-9.64696797542274">
        <ele>17.440000000000001</ele>
        <time>2026-07-02T12:40:53Z</time>
      </trkpt>
      <trkpt lat="53.390710959210992" lon="-9.647176014259458">
        <ele>17.440000000000001</ele>
        <time>2026-07-02T12:40:54Z</time>
      </trkpt>
      <trkpt lat="53.390613980591297" lon="-9.647391010075808">
        <ele>17.440000000000001</ele>
        <time>2026-07-02T12:40:55Z</time>
      </trkpt>
      <trkpt lat="53.390547009184957" lon="-9.647652022540569">
        <ele>16.960000000000001</ele>
        <time>2026-07-02T12:40:56Z</time>
      </trkpt>
      <trkpt lat="53.390483977273107" lon="-9.647947987541556">
        <ele>16.960000000000001</ele>
        <time>2026-07-02T12:40:57Z</time>
      </trkpt>
      <trkpt lat="53.390434021130204" lon="-9.648288963362575">
        <ele>16.960000000000001</ele>
        <time>2026-07-02T12:40:58Z</time>
      </trkpt>
      <trkpt lat="53.390205027535558" lon="-9.65018997900188">
        <ele>15.52</ele>
        <time>2026-07-02T12:41:03Z</time>
      </trkpt>
      <trkpt lat="53.390144007280469" lon="-9.650846030563116">
        <ele>16</ele>
        <time>2026-07-02T12:41:05Z</time>
      </trkpt>
      <trkpt lat="53.390155993402004" lon="-9.65117996558547">
        <ele>16</ele>
        <time>2026-07-02T12:41:06Z</time>
      </trkpt>
      <trkpt lat="53.390262024477124" lon="-9.654069961979985">
        <ele>11.19</ele>
        <time>2026-07-02T12:41:14Z</time>
      </trkpt>
      <trkpt lat="53.390087010338902" lon="-9.656373979523778">
        <ele>10.710000000000001</ele>
        <time>2026-07-02T12:41:21Z</time>
      </trkpt>
      <trkpt lat="53.389720972627401" lon="-9.657550966367126">
        <ele>12.15</ele>
        <time>2026-07-02T12:41:25Z</time>
      </trkpt>
      <trkpt lat="53.389592980965972" lon="-9.657806027680636">
        <ele>12.15</ele>
        <time>2026-07-02T12:41:26Z</time>
      </trkpt>
      <trkpt lat="53.388614980503917" lon="-9.659152999520302">
        <ele>14.08</ele>
        <time>2026-07-02T12:41:33Z</time>
      </trkpt>
      <trkpt lat="53.387468000873923" lon="-9.660199983045459">
        <ele>15.52</ele>
        <time>2026-07-02T12:41:42Z</time>
      </trkpt>
      <trkpt lat="53.386759981513023" lon="-9.660601979121566">
        <ele>15.52</ele>
        <time>2026-07-02T12:41:49Z</time>
      </trkpt>
      <trkpt lat="53.386710025370121" lon="-9.660629974678159">
        <ele>16</ele>
        <time>2026-07-02T12:41:50Z</time>
      </trkpt>
      <trkpt lat="53.386727962642908" lon="-9.660719996318221">
        <ele>16</ele>
        <time>2026-07-02T12:41:51Z</time>
      </trkpt>
      <trkpt lat="53.386743972077966" lon="-9.660799037665129">
        <ele>16</ele>
        <time>2026-07-02T12:41:53Z</time>
      </trkpt>
      <trkpt lat="53.387019988149405" lon="-9.66217802837491">
        <ele>18.399999999999999</ele>
        <time>2026-07-02T12:42:02Z</time>
      </trkpt>
      <trkpt lat="53.387294998392463" lon="-9.663555007427931">
        <ele>21.77</ele>
        <time>2026-07-02T12:42:10Z</time>
      </trkpt>
      <trkpt lat="53.387853987514973" lon="-9.66585198417306">
        <ele>24.649999999999999</ele>
        <time>2026-07-02T12:42:22Z</time>
      </trkpt>
      <trkpt lat="53.3879320230335" lon="-9.66617401689291">
        <ele>24.170000000000002</ele>
        <time>2026-07-02T12:42:24Z</time>
      </trkpt>
      <trkpt lat="53.388248020783067" lon="-9.667607992887497">
        <ele>24.649999999999999</ele>
        <time>2026-07-02T12:42:33Z</time>
      </trkpt>
      <trkpt lat="53.38827702216804" lon="-9.667741013690829">
        <ele>24.649999999999999</ele>
        <time>2026-07-02T12:42:34Z</time>
      </trkpt>
      <trkpt lat="53.388338964432478" lon="-9.668078972026706">
        <ele>24.170000000000002</ele>
        <time>2026-07-02T12:42:37Z</time>
      </trkpt>
      <trkpt lat="53.388335024937987" lon="-9.668192965909839">
        <ele>24.170000000000002</ele>
        <time>2026-07-02T12:42:38Z</time>
      </trkpt>
      <trkpt lat="53.388329995796084" lon="-9.668314000591636">
        <ele>24.649999999999999</ele>
        <time>2026-07-02T12:42:39Z</time>
      </trkpt>
      <trkpt lat="53.388325972482562" lon="-9.66843000613153">
        <ele>25.129999999999999</ele>
        <time>2026-07-02T12:42:40Z</time>
      </trkpt>
      <trkpt lat="53.388322032988071" lon="-9.66853997670114">
        <ele>25.609999999999999</ele>
        <time>2026-07-02T12:42:41Z</time>
      </trkpt>
      <trkpt lat="53.388332007452846" lon="-9.66864500194788">
        <ele>26.57</ele>
        <time>2026-07-02T12:42:42Z</time>
      </trkpt>
      <trkpt lat="53.388358997181058" lon="-9.668756984174252">
        <ele>27.050000000000001</ele>
        <time>2026-07-02T12:42:43Z</time>
      </trkpt>
      <trkpt lat="53.388387998566031" lon="-9.66888003051281">
        <ele>27.530000000000001</ele>
        <time>2026-07-02T12:42:44Z</time>
      </trkpt>
      <trkpt lat="53.388410964980721" lon="-9.669010033831">
        <ele>28.02</ele>
        <time>2026-07-02T12:42:45Z</time>
      </trkpt>
      <trkpt lat="53.388426974415779" lon="-9.669149005785584">
        <ele>28.5</ele>
        <time>2026-07-02T12:42:46Z</time>
      </trkpt>
      <trkpt lat="53.388441978022456" lon="-9.669286971911788">
        <ele>28.98</ele>
        <time>2026-07-02T12:42:47Z</time>
      </trkpt>
      <trkpt lat="53.38844801299274" lon="-9.669342041015625">
        <ele>29.460000000000001</ele>
        <time>2026-07-02T12:42:48Z</time>
      </trkpt>
      <trkpt lat="53.388500986620784" lon="-9.669510014355183">
        <ele>29.940000000000001</ele>
        <time>2026-07-02T12:42:49Z</time>
      </trkpt>
      <trkpt lat="53.38853501714766" lon="-9.669615039601922">
        <ele>30.899999999999999</ele>
        <time>2026-07-02T12:42:50Z</time>
      </trkpt>
      <trkpt lat="53.388567036017776" lon="-9.669717969372869">
        <ele>31.859999999999999</ele>
        <time>2026-07-02T12:42:51Z</time>
      </trkpt>
      <trkpt lat="53.388886973261833" lon="-9.670731006190181">
        <ele>37.149999999999999</ele>
        <time>2026-07-02T12:42:59Z</time>
      </trkpt>
      <trkpt lat="53.38911596685648" lon="-9.671182036399841">
        <ele>37.149999999999999</ele>
        <time>2026-07-02T12:43:04Z</time>
      </trkpt>
      <trkpt lat="53.38915703818202" lon="-9.671238027513027">
        <ele>37.149999999999999</ele>
        <time>2026-07-02T12:43:05Z</time>
      </trkpt>
      <trkpt lat="53.389194002375007" lon="-9.67128898948431">
        <ele>37.149999999999999</ele>
        <time>2026-07-02T12:43:06Z</time>
      </trkpt>
      <trkpt lat="53.389268014580011" lon="-9.671388985589147">
        <ele>37.149999999999999</ele>
        <time>2026-07-02T12:43:08Z</time>
      </trkpt>
      <trkpt lat="53.389310007914901" lon="-9.671446988359094">
        <ele>37.630000000000003</ele>
        <time>2026-07-02T12:43:09Z</time>
      </trkpt>
      <trkpt lat="53.38937102816999" lon="-9.671530975028873">
        <ele>37.149999999999999</ele>
        <time>2026-07-02T12:43:10Z</time>
      </trkpt>
      <trkpt lat="53.389515029266477" lon="-9.671859964728355">
        <ele>36.670000000000002</ele>
        <time>2026-07-02T12:43:14Z</time>
      </trkpt>
      <trkpt lat="53.389534978196025" lon="-9.671939006075263">
        <ele>36.189999999999998</ele>
        <time>2026-07-02T12:43:15Z</time>
      </trkpt>
      <trkpt lat="53.389551993459463" lon="-9.6720199752599">
        <ele>36.189999999999998</ele>
        <time>2026-07-02T12:43:16Z</time>
      </trkpt>
      <trkpt lat="53.389570014551282" lon="-9.672103961929679">
        <ele>35.710000000000001</ele>
        <time>2026-07-02T12:43:17Z</time>
      </trkpt>
      <trkpt lat="53.389589041471481" lon="-9.672193983569741">
        <ele>35.229999999999997</ele>
        <time>2026-07-02T12:43:18Z</time>
      </trkpt>
      <trkpt lat="53.38960999622941" lon="-9.672295991331339">
        <ele>34.740000000000002</ele>
        <time>2026-07-02T12:43:19Z</time>
      </trkpt>
      <trkpt lat="53.389658024534583" lon="-9.672525990754366">
        <ele>33.780000000000001</ele>
        <time>2026-07-02T12:43:21Z</time>
      </trkpt>
      <trkpt lat="53.389799008145928" lon="-9.672883981838822">
        <ele>32.340000000000003</ele>
        <time>2026-07-02T12:43:25Z</time>
      </trkpt>
      <trkpt lat="53.389837983995676" lon="-9.672955982387066">
        <ele>31.859999999999999</ele>
        <time>2026-07-02T12:43:26Z</time>
      </trkpt>
      <trkpt lat="53.389874026179314" lon="-9.673022031784058">
        <ele>31.379999999999999</ele>
        <time>2026-07-02T12:43:27Z</time>
      </trkpt>
      <trkpt lat="53.389907972887158" lon="-9.673083974048495">
        <ele>31.379999999999999</ele>
        <time>2026-07-02T12:43:28Z</time>
      </trkpt>
      <trkpt lat="53.389942003414035" lon="-9.673146000131965">
        <ele>30.899999999999999</ele>
        <time>2026-07-02T12:43:29Z</time>
      </trkpt>
      <trkpt lat="53.390078963711858" lon="-9.673397960141301">
        <ele>28.98</ele>
        <time>2026-07-02T12:43:33Z</time>
      </trkpt>
      <trkpt lat="53.390092039480805" lon="-9.673473984003067">
        <ele>28.98</ele>
        <time>2026-07-02T12:43:34Z</time>
      </trkpt>
      <trkpt lat="53.390106037259102" lon="-9.673557970672846">
        <ele>28.5</ele>
        <time>2026-07-02T12:43:35Z</time>
      </trkpt>
      <trkpt lat="53.390120035037398" lon="-9.673641035333276">
        <ele>28.02</ele>
        <time>2026-07-02T12:43:36Z</time>
      </trkpt>
      <trkpt lat="53.390120035037398" lon="-9.673703983426094">
        <ele>28.02</ele>
        <time>2026-07-02T12:43:37Z</time>
      </trkpt>
      <trkpt lat="53.390117017552257" lon="-9.673786964267492">
        <ele>28.02</ele>
        <time>2026-07-02T12:43:38Z</time>
      </trkpt>
      <trkpt lat="53.390112994238734" lon="-9.673878997564316">
        <ele>28.02</ele>
        <time>2026-07-02T12:43:39Z</time>
      </trkpt>
      <trkpt lat="53.390105031430721" lon="-9.674074966460466">
        <ele>28.5</ele>
        <time>2026-07-02T12:43:41Z</time>
      </trkpt>
      <trkpt lat="53.390101008117199" lon="-9.674171023070812">
        <ele>28.5</ele>
        <time>2026-07-02T12:43:42Z</time>
      </trkpt>
      <trkpt lat="53.390096984803677" lon="-9.674268001690507">
        <ele>28.5</ele>
        <time>2026-07-02T12:43:43Z</time>
      </trkpt>
      <trkpt lat="53.390046022832394" lon="-9.675255976617336">
        <ele>30.899999999999999</ele>
        <time>2026-07-02T12:43:54Z</time>
      </trkpt>
      <trkpt lat="53.390028001740575" lon="-9.675335017964244">
        <ele>31.379999999999999</ele>
        <time>2026-07-02T12:43:55Z</time>
      </trkpt>
      <trkpt lat="53.389943009242415" lon="-9.675760986283422">
        <ele>32.82</ele>
        <time>2026-07-02T12:44:00Z</time>
      </trkpt>
      <trkpt lat="53.389925993978977" lon="-9.675923008471727">
        <ele>34.259999999999998</ele>
        <time>2026-07-02T12:44:02Z</time>
      </trkpt>
      <trkpt lat="53.389917025342584" lon="-9.676008000969887">
        <ele>34.740000000000002</ele>
        <time>2026-07-02T12:44:03Z</time>
      </trkpt>
      <trkpt lat="53.389907972887158" lon="-9.676101040095091">
        <ele>35.229999999999997</ele>
        <time>2026-07-02T12:44:04Z</time>
      </trkpt>
      <trkpt lat="53.389911996200681" lon="-9.676193995401263">
        <ele>36.189999999999998</ele>
        <time>2026-07-02T12:44:05Z</time>
      </trkpt>
      <trkpt lat="53.389917025342584" lon="-9.676290974020958">
        <ele>36.670000000000002</ele>
        <time>2026-07-02T12:44:06Z</time>
      </trkpt>
      <trkpt lat="53.389929011464119" lon="-9.67653002589941">
        <ele>36.670000000000002</ele>
        <time>2026-07-02T12:44:09Z</time>
      </trkpt>
      <trkpt lat="53.389961030334234" lon="-9.676605965942144">
        <ele>37.149999999999999</ele>
        <time>2026-07-02T12:44:10Z</time>
      </trkpt>
      <trkpt lat="53.389985002577305" lon="-9.676661035045981">
        <ele>37.149999999999999</ele>
        <time>2026-07-02T12:44:11Z</time>
      </trkpt>
      <trkpt lat="53.390015009790659" lon="-9.676667992025614">
        <ele>37.149999999999999</ele>
        <time>2026-07-02T12:44:12Z</time>
      </trkpt>
      <trkpt lat="53.390055997297168" lon="-9.676643013954163">
        <ele>36.670000000000002</ele>
        <time>2026-07-02T12:44:13Z</time>
      </trkpt>
      <trkpt lat="53.390105031430721" lon="-9.676613006740809">
        <ele>36.670000000000002</ele>
        <time>2026-07-02T12:44:14Z</time>
      </trkpt>
      <trkpt lat="53.390160016715527" lon="-9.676579982042313">
        <ele>36.189999999999998</ele>
        <time>2026-07-02T12:44:15Z</time>
      </trkpt>
      <trkpt lat="53.390216007828712" lon="-9.676547041162849">
        <ele>35.710000000000001</ele>
        <time>2026-07-02T12:44:16Z</time>
      </trkpt>
      <trkpt lat="53.390266969799995" lon="-9.676515022292733">
        <ele>35.229999999999997</ele>
        <time>2026-07-02T12:44:17Z</time>
      </trkpt>
      <trkpt lat="53.390355985611677" lon="-9.676461964845657">
        <ele>33.780000000000001</ele>
        <time>2026-07-02T12:44:19Z</time>
      </trkpt>
      <trkpt lat="53.390405019745231" lon="-9.676432041451335">
        <ele>33.299999999999997</ele>
        <time>2026-07-02T12:44:20Z</time>
      </trkpt>
      <trkpt lat="53.390453970059752" lon="-9.676403040066361">
        <ele>32.340000000000003</ele>
        <time>2026-07-02T12:44:21Z</time>
      </trkpt>
      <trkpt lat="53.390715988352895" lon="-9.676245041191578">
        <ele>27.530000000000001</ele>
        <time>2026-07-02T12:44:26Z</time>
      </trkpt>
      <trkpt lat="53.390822019428015" lon="-9.676181003451347">
        <ele>25.129999999999999</ele>
        <time>2026-07-02T12:44:28Z</time>
      </trkpt>
      <trkpt lat="53.390994016081095" lon="-9.676076984032989">
        <ele>20.32</ele>
        <time>2026-07-02T12:44:32Z</time>
      </trkpt>
      <trkpt lat="53.391242036595941" lon="-9.67593097127974">
        <ele>15.52</ele>
        <time>2026-07-02T12:44:38Z</time>
      </trkpt>
      <trkpt lat="53.391287969425321" lon="-9.675946980714798">
        <ele>14.56</ele>
        <time>2026-07-02T12:44:39Z</time>
      </trkpt>
      <trkpt lat="53.391863973811269" lon="-9.67614303342998">
        <ele>12.15</ele>
        <time>2026-07-02T12:44:49Z</time>
      </trkpt>
      <trkpt lat="53.392050974071026" lon="-9.676206987351179">
        <ele>12.630000000000001</ele>
        <time>2026-07-02T12:44:52Z</time>
      </trkpt>
      <trkpt lat="53.392118029296398" lon="-9.676230037584901">
        <ele>12.630000000000001</ele>
        <time>2026-07-02T12:44:53Z</time>
      </trkpt>
      <trkpt lat="53.392163962125778" lon="-9.676329027861357">
        <ele>13.119999999999999</ele>
        <time>2026-07-02T12:44:54Z</time>
      </trkpt>
      <trkpt lat="53.392206961289048" lon="-9.676421983167529">
        <ele>13.6</ele>
        <time>2026-07-02T12:44:55Z</time>
      </trkpt>
      <trkpt lat="53.392249038442969" lon="-9.676512004807591">
        <ele>14.08</ele>
        <time>2026-07-02T12:44:56Z</time>
      </trkpt>
      <trkpt lat="53.392224982380867" lon="-9.67670202255249">
        <ele>14.56</ele>
        <time>2026-07-02T12:44:57Z</time>
      </trkpt>
      <trkpt lat="53.392224982380867" lon="-9.67678802087903">
        <ele>15.52</ele>
        <time>2026-07-02T12:44:58Z</time>
      </trkpt>
      <trkpt lat="53.392224982380867" lon="-9.676945013925433">
        <ele>16.960000000000001</ele>
        <time>2026-07-02T12:44:59Z</time>
      </trkpt>
      <trkpt lat="53.392122974619269" lon="-9.678414026275277">
        <ele>26.09</ele>
        <time>2026-07-02T12:45:07Z</time>
      </trkpt>
      <trkpt lat="53.392077963799238" lon="-9.678606977686286">
        <ele>27.050000000000001</ele>
        <time>2026-07-02T12:45:08Z</time>
      </trkpt>
      <trkpt lat="53.391689965501428" lon="-9.680244969204068">
        <ele>35.229999999999997</ele>
        <time>2026-07-02T12:45:18Z</time>
      </trkpt>
      <trkpt lat="53.391649983823299" lon="-9.680533977225423">
        <ele>35.710000000000001</ele>
        <time>2026-07-02T12:45:21Z</time>
      </trkpt>
      <trkpt lat="53.39165098965168" lon="-9.680597009137273">
        <ele>35.710000000000001</ele>
        <time>2026-07-02T12:45:22Z</time>
      </trkpt>
      <trkpt lat="53.391658030450344" lon="-9.68063497915864">
        <ele>36.189999999999998</ele>
        <time>2026-07-02T12:45:23Z</time>
      </trkpt>
      <trkpt lat="53.391662975773215" lon="-9.680661968886852">
        <ele>36.670000000000002</ele>
        <time>2026-07-02T12:45:36Z</time>
      </trkpt>
      <trkpt lat="53.391676973551512" lon="-9.680745033547282">
        <ele>36.670000000000002</ele>
        <time>2026-07-02T12:46:25Z</time>
      </trkpt>
      <trkpt lat="53.391708992421627" lon="-9.680922981351614">
        <ele>36.670000000000002</ele>
        <time>2026-07-02T12:46:27Z</time>
      </trkpt>
      <trkpt lat="53.391751991584897" lon="-9.681019959971309">
        <ele>36.670000000000002</ele>
        <time>2026-07-02T12:46:28Z</time>
      </trkpt>
      <trkpt lat="53.391797002404928" lon="-9.681118028238416">
        <ele>36.670000000000002</ele>
        <time>2026-07-02T12:46:29Z</time>
      </trkpt>
      <trkpt lat="53.391858022660017" lon="-9.681221963837743">
        <ele>36.670000000000002</ele>
        <time>2026-07-02T12:46:30Z</time>
      </trkpt>
      <trkpt lat="53.391938991844654" lon="-9.681278960779309">
        <ele>36.670000000000002</ele>
        <time>2026-07-02T12:46:31Z</time>
      </trkpt>
      <trkpt lat="53.392027001827955" lon="-9.681340986862779">
        <ele>37.149999999999999</ele>
        <time>2026-07-02T12:46:32Z</time>
      </trkpt>
      <trkpt lat="53.392118029296398" lon="-9.68140603043139">
        <ele>37.149999999999999</ele>
        <time>2026-07-02T12:46:33Z</time>
      </trkpt>
      <trkpt lat="53.392205033451319" lon="-9.681467972695828">
        <ele>37.630000000000003</ele>
        <time>2026-07-02T12:46:34Z</time>
      </trkpt>
      <trkpt lat="53.392275022342801" lon="-9.681583978235722">
        <ele>38.109999999999999</ele>
        <time>2026-07-02T12:46:35Z</time>
      </trkpt>
      <trkpt lat="53.392338976264" lon="-9.681706018745899">
        <ele>38.590000000000003</ele>
        <time>2026-07-02T12:46:36Z</time>
      </trkpt>
      <trkpt lat="53.392379963770509" lon="-9.681865023449063">
        <ele>39.07</ele>
        <time>2026-07-02T12:46:37Z</time>
      </trkpt>
      <trkpt lat="53.392423968762159" lon="-9.68203199096024">
        <ele>39.549999999999997</ele>
        <time>2026-07-02T12:46:38Z</time>
      </trkpt>
      <trkpt lat="53.3924650400877" lon="-9.682216979563236">
        <ele>40.030000000000001</ele>
        <time>2026-07-02T12:46:39Z</time>
      </trkpt>
      <trkpt lat="53.392484989017248" lon="-9.682416971772909">
        <ele>40.509999999999998</ele>
        <time>2026-07-02T12:46:40Z</time>
      </trkpt>
      <trkpt lat="53.392505021765828" lon="-9.682625010609627">
        <ele>40.509999999999998</ele>
        <time>2026-07-02T12:46:41Z</time>
      </trkpt>
      <trkpt lat="53.392610969021916" lon="-9.683696972206235">
        <ele>41.469999999999999</ele>
        <time>2026-07-02T12:46:46Z</time>
      </trkpt>
      <trkpt lat="53.392651034519076" lon="-9.683876009657979">
        <ele>41.950000000000003</ele>
        <time>2026-07-02T12:46:47Z</time>
      </trkpt>
      <trkpt lat="53.392692022025585" lon="-9.684058986604214">
        <ele>42.920000000000002</ele>
        <time>2026-07-02T12:46:48Z</time>
      </trkpt>
      <trkpt lat="53.392734015360475" lon="-9.684245986863971">
        <ele>43.399999999999999</ele>
        <time>2026-07-02T12:46:49Z</time>
      </trkpt>
      <trkpt lat="53.392778020352125" lon="-9.684439022094011">
        <ele>43.880000000000003</ele>
        <time>2026-07-02T12:46:50Z</time>
      </trkpt>
      <trkpt lat="53.392820013687015" lon="-9.68462803401053">
        <ele>43.880000000000003</ele>
        <time>2026-07-02T12:46:51Z</time>
      </trkpt>
      <trkpt lat="53.392839040607214" lon="-9.684799024835229">
        <ele>43.880000000000003</ele>
        <time>2026-07-02T12:46:52Z</time>
      </trkpt>
      <trkpt lat="53.39281003922224" lon="-9.684963980689645">
        <ele>44.359999999999999</ele>
        <time>2026-07-02T12:46:53Z</time>
      </trkpt>
      <trkpt lat="53.392781959846616" lon="-9.685129020363092">
        <ele>44.359999999999999</ele>
        <time>2026-07-02T12:46:54Z</time>
      </trkpt>
      <trkpt lat="53.392752958461642" lon="-9.68529598787427">
        <ele>44.359999999999999</ele>
        <time>2026-07-02T12:46:55Z</time>
      </trkpt>
      <trkpt lat="53.39272596873343" lon="-9.685455998405814">
        <ele>44.840000000000003</ele>
        <time>2026-07-02T12:46:56Z</time>
      </trkpt>
      <trkpt lat="53.392732003703713" lon="-9.685604022815824">
        <ele>44.840000000000003</ele>
        <time>2026-07-02T12:46:57Z</time>
      </trkpt>
      <trkpt lat="53.392751030623913" lon="-9.685748023912311">
        <ele>44.840000000000003</ele>
        <time>2026-07-02T12:46:58Z</time>
      </trkpt>
      <trkpt lat="53.392767962068319" lon="-9.685881966724992">
        <ele>45.799999999999997</ele>
        <time>2026-07-02T12:46:59Z</time>
      </trkpt>
      <trkpt lat="53.392782965674996" lon="-9.685995960608125">
        <ele>46.280000000000001</ele>
        <time>2026-07-02T12:47:00Z</time>
      </trkpt>
      <trkpt lat="53.392782965674996" lon="-9.685995960608125">
        <ele>47.719999999999999</ele>
        <time>2026-07-02T12:47:05Z</time>
      </trkpt>
      <trkpt lat="53.392782965674996" lon="-9.685995960608125">
        <ele>48.200000000000003</ele>
        <time>2026-07-02T12:47:45Z</time>
      </trkpt>
      <trkpt lat="53.392834011465311" lon="-9.686192013323307">
        <ele>48.200000000000003</ele>
        <time>2026-07-02T12:48:14Z</time>
      </trkpt>
      <trkpt lat="53.393073985353112" lon="-9.687117962166667">
        <ele>51.090000000000003</ele>
        <time>2026-07-02T12:48:20Z</time>
      </trkpt>
      <trkpt lat="53.393097035586834" lon="-9.687310997396708">
        <ele>51.57</ele>
        <time>2026-07-02T12:48:21Z</time>
      </trkpt>
      <trkpt lat="53.393232990056276" lon="-9.688823008909822">
        <ele>55.890000000000001</ele>
        <time>2026-07-02T12:48:28Z</time>
      </trkpt>
      <trkpt lat="53.39326199144125" lon="-9.689028030261397">
        <ele>56.369999999999997</ele>
        <time>2026-07-02T12:48:29Z</time>
      </trkpt>
      <trkpt lat="53.393291998654604" lon="-9.689236991107464">
        <ele>57.340000000000003</ele>
        <time>2026-07-02T12:48:30Z</time>
      </trkpt>
      <trkpt lat="53.39336902834475" lon="-9.689418040215969">
        <ele>57.82</ele>
        <time>2026-07-02T12:48:31Z</time>
      </trkpt>
      <trkpt lat="53.393451003357768" lon="-9.689582996070385">
        <ele>58.780000000000001</ele>
        <time>2026-07-02T12:48:32Z</time>
      </trkpt>
      <trkpt lat="53.393537001684308" lon="-9.689754992723465">
        <ele>59.740000000000002</ele>
        <time>2026-07-02T12:48:33Z</time>
      </trkpt>
      <trkpt lat="53.393628029152751" lon="-9.68993604183197">
        <ele>60.219999999999999</ele>
        <time>2026-07-02T12:48:34Z</time>
      </trkpt>
      <trkpt lat="53.39418601244688" lon="-9.691052008420229">
        <ele>62.140000000000001</ele>
        <time>2026-07-02T12:48:40Z</time>
      </trkpt>
      <trkpt lat="53.39427100494504" lon="-9.691187962889671">
        <ele>62.140000000000001</ele>
        <time>2026-07-02T12:48:41Z</time>
      </trkpt>
      <trkpt lat="53.394375024363399" lon="-9.691271027550101">
        <ele>62.619999999999997</ele>
        <time>2026-07-02T12:48:42Z</time>
      </trkpt>
      <trkpt lat="53.394490024074912" lon="-9.691343028098345">
        <ele>63.100000000000001</ele>
        <time>2026-07-02T12:48:43Z</time>
      </trkpt>
      <trkpt lat="53.3946149982512" lon="-9.691369011998177">
        <ele>63.579999999999998</ele>
        <time>2026-07-02T12:48:44Z</time>
      </trkpt>
      <trkpt lat="53.394750030711293" lon="-9.69139801338315">
        <ele>64.069999999999993</ele>
        <time>2026-07-02T12:48:45Z</time>
      </trkpt>
      <trkpt lat="53.39594503864646" lon="-9.69148401170969">
        <ele>65.030000000000001</ele>
        <time>2026-07-02T12:48:53Z</time>
      </trkpt>
      <trkpt lat="53.396477038040757" lon="-9.691393990069628">
        <ele>64.069999999999993</ele>
        <time>2026-07-02T12:48:57Z</time>
      </trkpt>
      <trkpt lat="53.396573010832071" lon="-9.691386027261615">
        <ele>64.069999999999993</ele>
        <time>2026-07-02T12:48:58Z</time>
      </trkpt>
      <trkpt lat="53.396659009158611" lon="-9.691434977576137">
        <ele>64.069999999999993</ele>
        <time>2026-07-02T12:48:59Z</time>
      </trkpt>
      <trkpt lat="53.396752970293164" lon="-9.691486023366451">
        <ele>64.069999999999993</ele>
        <time>2026-07-02T12:49:00Z</time>
      </trkpt>
      <trkpt lat="53.396821031346917" lon="-9.691594988107681">
        <ele>64.069999999999993</ele>
        <time>2026-07-02T12:49:01Z</time>
      </trkpt>
      <trkpt lat="53.396903006359935" lon="-9.691722979769111">
        <ele>64.069999999999993</ele>
        <time>2026-07-02T12:49:02Z</time>
      </trkpt>
      <trkpt lat="53.396958997473121" lon="-9.691844014450908">
        <ele>64.069999999999993</ele>
        <time>2026-07-02T12:49:03Z</time>
      </trkpt>
      <trkpt lat="53.397026974707842" lon="-9.691989021375775">
        <ele>64.069999999999993</ele>
        <time>2026-07-02T12:49:04Z</time>
      </trkpt>
      <trkpt lat="53.397078020498157" lon="-9.692152971401811">
        <ele>64.549999999999997</ele>
        <time>2026-07-02T12:49:05Z</time>
      </trkpt>
      <trkpt lat="53.397115990519524" lon="-9.692310970276594">
        <ele>65.030000000000001</ele>
        <time>2026-07-02T12:49:06Z</time>
      </trkpt>
      <trkpt lat="53.397141974419355" lon="-9.69245002605021">
        <ele>65.510000000000005</ele>
        <time>2026-07-02T12:49:07Z</time>
      </trkpt>
      <trkpt lat="53.397151026874781" lon="-9.692588998004794">
        <ele>65.989999999999995</ele>
        <time>2026-07-02T12:49:08Z</time>
      </trkpt>
      <trkpt lat="53.397153038531542" lon="-9.692731993272901">
        <ele>66.469999999999999</ele>
        <time>2026-07-02T12:49:09Z</time>
      </trkpt>
      <trkpt lat="53.397110039368272" lon="-9.692860990762711">
        <ele>66.950000000000003</ele>
        <time>2026-07-02T12:49:10Z</time>
      </trkpt>
      <trkpt lat="53.397059999406338" lon="-9.693007003515959">
        <ele>67.430000000000007</ele>
        <time>2026-07-02T12:49:11Z</time>
      </trkpt>
      <trkpt lat="53.397004008293152" lon="-9.693163996562362">
        <ele>67.909999999999997</ele>
        <time>2026-07-02T12:49:12Z</time>
      </trkpt>
      <trkpt lat="53.396448036655784" lon="-9.694721018895507">
        <ele>71.269999999999996</ele>
        <time>2026-07-02T12:49:20Z</time>
      </trkpt>
      <trkpt lat="53.396361032500863" lon="-9.69487901777029">
        <ele>72.239999999999995</ele>
        <time>2026-07-02T12:49:21Z</time>
      </trkpt>
      <trkpt lat="53.396265981718898" lon="-9.69502997584641">
        <ele>72.719999999999999</ele>
        <time>2026-07-02T12:49:22Z</time>
      </trkpt>
      <trkpt lat="53.395426031202078" lon="-9.69636001624167">
        <ele>76.560000000000002</ele>
        <time>2026-07-02T12:49:30Z</time>
      </trkpt>
      <trkpt lat="53.395365010946989" lon="-9.696542993187904">
        <ele>76.560000000000002</ele>
        <time>2026-07-02T12:49:31Z</time>
      </trkpt>
      <trkpt lat="53.395320000126958" lon="-9.696723958477378">
        <ele>77.040000000000006</ele>
        <time>2026-07-02T12:49:32Z</time>
      </trkpt>
      <trkpt lat="53.395293010398746" lon="-9.696908025071025">
        <ele>77.040000000000006</ele>
        <time>2026-07-02T12:49:33Z</time>
      </trkpt>
      <trkpt lat="53.395293010398746" lon="-9.697086978703737">
        <ele>77.519999999999996</ele>
        <time>2026-07-02T12:49:34Z</time>
      </trkpt>
      <trkpt lat="53.395293010398746" lon="-9.69726400449872">
        <ele>78</ele>
        <time>2026-07-02T12:49:35Z</time>
      </trkpt>
      <trkpt lat="53.395293010398746" lon="-9.69743499532342">
        <ele>78.480000000000004</ele>
        <time>2026-07-02T12:49:36Z</time>
      </trkpt>
      <trkpt lat="53.395253028720617" lon="-9.698075037449598">
        <ele>80.409999999999997</ele>
        <time>2026-07-02T12:49:42Z</time>
      </trkpt>
      <trkpt lat="53.395243976265192" lon="-9.698150977492333">
        <ele>81.370000000000005</ele>
        <time>2026-07-02T12:49:50Z</time>
      </trkpt>
      <trkpt lat="53.395243976265192" lon="-9.698150977492333">
        <ele>80.890000000000001</ele>
        <time>2026-07-02T12:50:13Z</time>
      </trkpt>
      <trkpt lat="53.395243976265192" lon="-9.698150977492333">
        <ele>80.409999999999997</ele>
        <time>2026-07-02T12:50:49Z</time>
      </trkpt>
      <trkpt lat="53.395243976265192" lon="-9.698150977492333">
        <ele>80.409999999999997</ele>
        <time>2026-07-02T12:51:09Z</time>
      </trkpt>
      <trkpt lat="53.395255962386727" lon="-9.698045030236244">
        <ele>79.930000000000007</ele>
        <time>2026-07-02T12:51:11Z</time>
      </trkpt>
      <trkpt lat="53.395263003185391" lon="-9.697984009981155">
        <ele>78.969999999999999</ele>
        <time>2026-07-02T12:51:12Z</time>
      </trkpt>
      <trkpt lat="53.395293010398746" lon="-9.697083039209247">
        <ele>77.040000000000006</ele>
        <time>2026-07-02T12:51:18Z</time>
      </trkpt>
      <trkpt lat="53.395293010398746" lon="-9.696837030351162">
        <ele>76.079999999999998</ele>
        <time>2026-07-02T12:51:20Z</time>
      </trkpt>
      <trkpt lat="53.395307008177042" lon="-9.696772992610931">
        <ele>76.079999999999998</ele>
        <time>2026-07-02T12:51:21Z</time>
      </trkpt>
      <trkpt lat="53.395342966541648" lon="-9.696632008999586">
        <ele>75.120000000000005</ele>
        <time>2026-07-02T12:51:29Z</time>
      </trkpt>
      <trkpt lat="53.395369034260511" lon="-9.696527989581227">
        <ele>75.120000000000005</ele>
        <time>2026-07-02T12:51:30Z</time>
      </trkpt>
      <trkpt lat="53.395399041473866" lon="-9.696407038718462">
        <ele>75.120000000000005</ele>
        <time>2026-07-02T12:51:31Z</time>
      </trkpt>
      <trkpt lat="53.395458972081542" lon="-9.696307964622974">
        <ele>75.120000000000005</ele>
        <time>2026-07-02T12:51:32Z</time>
      </trkpt>
      <trkpt lat="53.395529966801405" lon="-9.696195982396603">
        <ele>75.120000000000005</ele>
        <time>2026-07-02T12:51:33Z</time>
      </trkpt>
      <trkpt lat="53.395609008148313" lon="-9.696070002391934">
        <ele>75.120000000000005</ele>
        <time>2026-07-02T12:51:34Z</time>
      </trkpt>
      <trkpt lat="53.395692994818091" lon="-9.695936981588602">
        <ele>75.120000000000005</ele>
        <time>2026-07-02T12:51:35Z</time>
      </trkpt>
      <trkpt lat="53.396382993087173" lon="-9.694844987243414">
        <ele>73.200000000000003</ele>
        <time>2026-07-02T12:51:43Z</time>
      </trkpt>
      <trkpt lat="53.396454993635416" lon="-9.694701991975308">
        <ele>72.239999999999995</ele>
        <time>2026-07-02T12:51:44Z</time>
      </trkpt>
      <trkpt lat="53.396515008062124" lon="-9.694532006978989">
        <ele>71.760000000000005</ele>
        <time>2026-07-02T12:51:45Z</time>
      </trkpt>
      <trkpt lat="53.397100986912847" lon="-9.692887980490923">
        <ele>65.989999999999995</ele>
        <time>2026-07-02T12:51:54Z</time>
      </trkpt>
      <trkpt lat="53.397147003561258" lon="-9.692748002707958">
        <ele>65.510000000000005</ele>
        <time>2026-07-02T12:51:55Z</time>
      </trkpt>
      <trkpt lat="53.397153038531542" lon="-9.69260198995471">
        <ele>65.030000000000001</ele>
        <time>2026-07-02T12:51:56Z</time>
      </trkpt>
      <trkpt lat="53.397141974419355" lon="-9.692453965544701">
        <ele>64.549999999999997</ele>
        <time>2026-07-02T12:51:57Z</time>
      </trkpt>
      <trkpt lat="53.397114984691143" lon="-9.692308036610484">
        <ele>64.069999999999993</ele>
        <time>2026-07-02T12:51:58Z</time>
      </trkpt>
      <trkpt lat="53.397075003013015" lon="-9.692138973623514">
        <ele>63.100000000000001</ele>
        <time>2026-07-02T12:51:59Z</time>
      </trkpt>
      <trkpt lat="53.397015994414687" lon="-9.691965971142054">
        <ele>62.619999999999997</ele>
        <time>2026-07-02T12:52:00Z</time>
      </trkpt>
      <trkpt lat="53.396940976381302" lon="-9.69180503860116">
        <ele>62.140000000000001</ele>
        <time>2026-07-02T12:52:01Z</time>
      </trkpt>
      <trkpt lat="53.396863024681807" lon="-9.691660031676292">
        <ele>61.659999999999997</ele>
        <time>2026-07-02T12:52:02Z</time>
      </trkpt>
      <trkpt lat="53.396782977506518" lon="-9.691534973680973">
        <ele>61.659999999999997</ele>
        <time>2026-07-02T12:52:03Z</time>
      </trkpt>
      <trkpt lat="53.396697985008359" lon="-9.691456016153097">
        <ele>61.18</ele>
        <time>2026-07-02T12:52:04Z</time>
      </trkpt>
      <trkpt lat="53.396605029702187" lon="-9.691404970362783">
        <ele>60.700000000000003</ele>
        <time>2026-07-02T12:52:05Z</time>
      </trkpt>
      <trkpt lat="53.396503021940589" lon="-9.691388960927725">
        <ele>60.700000000000003</ele>
        <time>2026-07-02T12:52:06Z</time>
      </trkpt>
      <trkpt lat="53.396390033885837" lon="-9.691407987847924">
        <ele>60.219999999999999</ele>
        <time>2026-07-02T12:52:07Z</time>
      </trkpt>
      <trkpt lat="53.39626899920404" lon="-9.691429026424885">
        <ele>59.740000000000002</ele>
        <time>2026-07-02T12:52:08Z</time>
      </trkpt>
      <trkpt lat="53.396144025027752" lon="-9.691449981182814">
        <ele>60.219999999999999</ele>
        <time>2026-07-02T12:52:09Z</time>
      </trkpt>
      <trkpt lat="53.396019972860813" lon="-9.691471019759774">
        <ele>60.219999999999999</ele>
        <time>2026-07-02T12:52:10Z</time>
      </trkpt>
      <trkpt lat="53.395893992856145" lon="-9.691492980346084">
        <ele>60.700000000000003</ele>
        <time>2026-07-02T12:52:11Z</time>
      </trkpt>
      <trkpt lat="53.395763989537954" lon="-9.691515024751425">
        <ele>60.700000000000003</ele>
        <time>2026-07-02T12:52:12Z</time>
      </trkpt>
      <trkpt lat="53.395634992048144" lon="-9.691529022529721">
        <ele>60.700000000000003</ele>
        <time>2026-07-02T12:52:13Z</time>
      </trkpt>
      <trkpt lat="53.395501971244812" lon="-9.691529022529721">
        <ele>60.700000000000003</ele>
        <time>2026-07-02T12:52:14Z</time>
      </trkpt>
      <trkpt lat="53.394421963021159" lon="-9.691308997571468">
        <ele>60.219999999999999</ele>
        <time>2026-07-02T12:52:23Z</time>
      </trkpt>
      <trkpt lat="53.394330013543367" lon="-9.691234985366464">
        <ele>59.740000000000002</ele>
        <time>2026-07-02T12:52:24Z</time>
      </trkpt>
      <trkpt lat="53.394238986074924" lon="-9.691158039495349">
        <ele>59.259999999999998</ele>
        <time>2026-07-02T12:52:25Z</time>
      </trkpt>
      <trkpt lat="53.394172014668584" lon="-9.691024012863636">
        <ele>58.780000000000001</ele>
        <time>2026-07-02T12:52:26Z</time>
      </trkpt>
      <trkpt lat="53.39410001412034" lon="-9.69088101759553">
        <ele>58.299999999999997</ele>
        <time>2026-07-02T12:52:27Z</time>
      </trkpt>
      <trkpt lat="53.393386965617537" lon="-9.689455004408956">
        <ele>54.450000000000003</ele>
        <time>2026-07-02T12:52:36Z</time>
      </trkpt>
      <trkpt lat="53.393298033624887" lon="-9.689275966957212">
        <ele>53.969999999999999</ele>
        <time>2026-07-02T12:52:37Z</time>
      </trkpt>
      <trkpt lat="53.393270960077643" lon="-9.689088966697455">
        <ele>53.490000000000002</ele>
        <time>2026-07-02T12:52:38Z</time>
      </trkpt>
      <trkpt lat="53.39324003085494" lon="-9.688874976709485">
        <ele>53.009999999999998</ele>
        <time>2026-07-02T12:52:39Z</time>
      </trkpt>
      <trkpt lat="53.393210023641586" lon="-9.688652018085122">
        <ele>52.530000000000001</ele>
        <time>2026-07-02T12:52:40Z</time>
      </trkpt>
      <trkpt lat="53.393189990893006" lon="-9.688414977863431">
        <ele>52.049999999999997</ele>
        <time>2026-07-02T12:52:41Z</time>
      </trkpt>
      <trkpt lat="53.39308999478817" lon="-9.687232961878181">
        <ele>48.200000000000003</ele>
        <time>2026-07-02T12:52:46Z</time>
      </trkpt>
      <trkpt lat="53.393052024766803" lon="-9.687030036002398">
        <ele>47.719999999999999</ele>
        <time>2026-07-02T12:52:47Z</time>
      </trkpt>
      <trkpt lat="53.392742983996868" lon="-9.685687003657222">
        <ele>43.399999999999999</ele>
        <time>2026-07-02T12:52:54Z</time>
      </trkpt>
      <trkpt lat="53.392718005925417" lon="-9.685500003397465">
        <ele>42.439999999999998</ele>
        <time>2026-07-02T12:52:55Z</time>
      </trkpt>
      <trkpt lat="53.392741978168488" lon="-9.685362037271261">
        <ele>41.950000000000003</ele>
        <time>2026-07-02T12:52:56Z</time>
      </trkpt>
      <trkpt lat="53.3927689678967" lon="-9.685204038396478">
        <ele>40.990000000000002</ele>
        <time>2026-07-02T12:52:57Z</time>
      </trkpt>
      <trkpt lat="53.392795035615563" lon="-9.685055008158088">
        <ele>40.990000000000002</ele>
        <time>2026-07-02T12:52:58Z</time>
      </trkpt>
      <trkpt lat="53.392819007858634" lon="-9.684912012889981">
        <ele>40.509999999999998</ele>
        <time>2026-07-02T12:52:59Z</time>
      </trkpt>
      <trkpt lat="53.392842980101705" lon="-9.684770023450255">
        <ele>40.509999999999998</ele>
        <time>2026-07-02T12:53:00Z</time>
      </trkpt>
      <trkpt lat="53.392819007858634" lon="-9.684623004868627">
        <ele>40.030000000000001</ele>
        <time>2026-07-02T12:53:01Z</time>
      </trkpt>
      <trkpt lat="53.392783971503377" lon="-9.684468023478985">
        <ele>40.509999999999998</ele>
        <time>2026-07-02T12:53:02Z</time>
      </trkpt>
      <trkpt lat="53.39274700731039" lon="-9.684301977977157">
        <ele>40.030000000000001</ele>
        <time>2026-07-02T12:53:03Z</time>
      </trkpt>
      <trkpt lat="53.392708031460643" lon="-9.684127969667316">
        <ele>40.509999999999998</ele>
        <time>2026-07-02T12:53:04Z</time>
      </trkpt>
      <trkpt lat="53.392666960135102" lon="-9.683944992721081">
        <ele>40.990000000000002</ele>
        <time>2026-07-02T12:53:05Z</time>
      </trkpt>
      <trkpt lat="53.392623038962483" lon="-9.683751035481691">
        <ele>40.030000000000001</ele>
        <time>2026-07-02T12:53:06Z</time>
      </trkpt>
      <trkpt lat="53.392594959586859" lon="-9.683537967503071">
        <ele>39.549999999999997</ele>
        <time>2026-07-02T12:53:07Z</time>
      </trkpt>
      <trkpt lat="53.392572999000549" lon="-9.683306962251663">
        <ele>38.590000000000003</ele>
        <time>2026-07-02T12:53:08Z</time>
      </trkpt>
      <trkpt lat="53.392550032585859" lon="-9.683076040819287">
        <ele>38.109999999999999</ele>
        <time>2026-07-02T12:53:09Z</time>
      </trkpt>
      <trkpt lat="53.392464034259319" lon="-9.682200970128179">
        <ele>36.189999999999998</ele>
        <time>2026-07-02T12:53:13Z</time>
      </trkpt>
      <trkpt lat="53.392417011782527" lon="-9.682003995403647">
        <ele>35.710000000000001</ele>
        <time>2026-07-02T12:53:14Z</time>
      </trkpt>
      <trkpt lat="53.392366971820593" lon="-9.681814983487129">
        <ele>35.229999999999997</ele>
        <time>2026-07-02T12:53:15Z</time>
      </trkpt>
      <trkpt lat="53.392310980707407" lon="-9.681646004319191">
        <ele>35.229999999999997</ele>
        <time>2026-07-02T12:53:16Z</time>
      </trkpt>
      <trkpt lat="53.392239985987544" lon="-9.681525975465775">
        <ele>34.740000000000002</ele>
        <time>2026-07-02T12:53:17Z</time>
      </trkpt>
      <trkpt lat="53.392160022631288" lon="-9.681435031816363">
        <ele>34.259999999999998</ele>
        <time>2026-07-02T12:53:18Z</time>
      </trkpt>
      <trkpt lat="53.392070000991225" lon="-9.681371999904513">
        <ele>33.780000000000001</ele>
        <time>2026-07-02T12:53:19Z</time>
      </trkpt>
      <trkpt lat="53.391978973522782" lon="-9.681307040154934">
        <ele>33.780000000000001</ele>
        <time>2026-07-02T12:53:20Z</time>
      </trkpt>
      <trkpt lat="53.391888029873371" lon="-9.681243002414703">
        <ele>33.780000000000001</ele>
        <time>2026-07-02T12:53:21Z</time>
      </trkpt>
      <trkpt lat="53.391811000183225" lon="-9.68114803545177">
        <ele>33.780000000000001</ele>
        <time>2026-07-02T12:53:22Z</time>
      </trkpt>
      <trkpt lat="53.391752997413278" lon="-9.68102197162807">
        <ele>33.299999999999997</ele>
        <time>2026-07-02T12:53:23Z</time>
      </trkpt>
      <trkpt lat="53.391704969108105" lon="-9.680900014936924">
        <ele>33.299999999999997</ele>
        <time>2026-07-02T12:53:24Z</time>
      </trkpt>
      <trkpt lat="53.391678985208273" lon="-9.680755008012056">
        <ele>33.299999999999997</ele>
        <time>2026-07-02T12:53:25Z</time>
      </trkpt>
      <trkpt lat="53.391654007136822" lon="-9.680611006915569">
        <ele>33.780000000000001</ele>
        <time>2026-07-02T12:53:26Z</time>
      </trkpt>
      <trkpt lat="53.391660964116454" lon="-9.680455019697547">
        <ele>33.299999999999997</ele>
        <time>2026-07-02T12:53:27Z</time>
      </trkpt>
      <trkpt lat="53.391679991036654" lon="-9.680316969752312">
        <ele>33.299999999999997</ele>
        <time>2026-07-02T12:53:28Z</time>
      </trkpt>
      <trkpt lat="53.391696000471711" lon="-9.680203981697559">
        <ele>33.299999999999997</ele>
        <time>2026-07-02T12:53:29Z</time>
      </trkpt>
      <trkpt lat="53.391707986593246" lon="-9.680113960057497">
        <ele>33.299999999999997</ele>
        <time>2026-07-02T12:53:30Z</time>
      </trkpt>
      <trkpt lat="53.391731958836317" lon="-9.679942969232798">
        <ele>33.299999999999997</ele>
        <time>2026-07-02T12:53:37Z</time>
      </trkpt>
      <trkpt lat="53.391802031546831" lon="-9.679613979533315">
        <ele>33.299999999999997</ele>
        <time>2026-07-02T12:54:14Z</time>
      </trkpt>
      <trkpt lat="53.392111994326115" lon="-9.678482003509998">
        <ele>32.340000000000003</ele>
        <time>2026-07-02T12:54:21Z</time>
      </trkpt>
      <trkpt lat="53.392134960740805" lon="-9.678290979936719">
        <ele>31.859999999999999</ele>
        <time>2026-07-02T12:54:22Z</time>
      </trkpt>
      <trkpt lat="53.392224982380867" lon="-9.676815010607243">
        <ele>25.129999999999999</ele>
        <time>2026-07-02T12:54:29Z</time>
      </trkpt>
      <trkpt lat="53.392224982380867" lon="-9.67670202255249">
        <ele>23.690000000000001</ele>
        <time>2026-07-02T12:54:30Z</time>
      </trkpt>
      <trkpt lat="53.392247026786208" lon="-9.676507981494069">
        <ele>21.77</ele>
        <time>2026-07-02T12:54:31Z</time>
      </trkpt>
      <trkpt lat="53.392194975167513" lon="-9.676395999267697">
        <ele>20.32</ele>
        <time>2026-07-02T12:54:32Z</time>
      </trkpt>
      <trkpt lat="53.392147030681372" lon="-9.676292985677719">
        <ele>19.359999999999999</ele>
        <time>2026-07-02T12:54:33Z</time>
      </trkpt>
      <trkpt lat="53.392077041789889" lon="-9.676216039806604">
        <ele>18.879999999999999</ele>
        <time>2026-07-02T12:54:34Z</time>
      </trkpt>
      <trkpt lat="53.391985008493066" lon="-9.67618502676487">
        <ele>18.399999999999999</ele>
        <time>2026-07-02T12:54:35Z</time>
      </trkpt>
      <trkpt lat="53.391885012388229" lon="-9.676150996237993">
        <ele>17.920000000000002</ele>
        <time>2026-07-02T12:54:36Z</time>
      </trkpt>
      <trkpt lat="53.391431970521808" lon="-9.675996014848352">
        <ele>16.960000000000001</ele>
        <time>2026-07-02T12:54:40Z</time>
      </trkpt>
      <trkpt lat="53.391269026324153" lon="-9.675940023735166">
        <ele>16.48</ele>
        <time>2026-07-02T12:54:42Z</time>
      </trkpt>
      <trkpt lat="53.391227032989264" lon="-9.675895012915134">
        <ele>16</ele>
        <time>2026-07-02T12:54:43Z</time>
      </trkpt>
      <trkpt lat="53.391214041039348" lon="-9.675854025408626">
        <ele>15.52</ele>
        <time>2026-07-02T12:54:44Z</time>
      </trkpt>
      <trkpt lat="53.391205994412303" lon="-9.675827035680413">
        <ele>15.039999999999999</ele>
        <time>2026-07-02T12:54:45Z</time>
      </trkpt>
      <trkpt lat="53.39119803160429" lon="-9.675802979618311">
        <ele>14.56</ele>
        <time>2026-07-02T12:54:46Z</time>
      </trkpt>
      <trkpt lat="53.391187973320484" lon="-9.675770038738847">
        <ele>13.6</ele>
        <time>2026-07-02T12:54:47Z</time>
      </trkpt>
      <trkpt lat="53.391156960278749" lon="-9.675670964643359">
        <ele>12.15</ele>
        <time>2026-07-02T12:54:49Z</time>
      </trkpt>
      <trkpt lat="53.391130976378918" lon="-9.6755859721452">
        <ele>11.19</ele>
        <time>2026-07-02T12:54:50Z</time>
      </trkpt>
      <trkpt lat="53.391012959182262" lon="-9.674635967239738">
        <ele>5.42</ele>
        <time>2026-07-02T12:54:56Z</time>
      </trkpt>
      <trkpt lat="53.390945987775922" lon="-9.674113020300865">
        <ele>3.98</ele>
        <time>2026-07-02T12:54:59Z</time>
      </trkpt>
      <trkpt lat="53.390925033017993" lon="-9.673947980627418">
        <ele>3.5</ele>
        <time>2026-07-02T12:55:00Z</time>
      </trkpt>
      <trkpt lat="53.390902988612652" lon="-9.673781013116241">
        <ele>3.02</ele>
        <time>2026-07-02T12:55:01Z</time>
      </trkpt>
      <trkpt lat="53.390757981687784" lon="-9.672609977424145">
        <ele>-0.34</ele>
        <time>2026-07-02T12:55:08Z</time>
      </trkpt>
      <trkpt lat="53.390742978081107" lon="-9.672432029619813">
        <ele>-0.82</ele>
        <time>2026-07-02T12:55:09Z</time>
      </trkpt>
      <trkpt lat="53.390628984197974" lon="-9.671236015856266">
        <ele>-1.3</ele>
        <time>2026-07-02T12:55:15Z</time>
      </trkpt>
      <trkpt lat="53.39025397785008" lon="-9.669155962765217">
        <ele>2.06</ele>
        <time>2026-07-02T12:55:25Z</time>
      </trkpt>
      <trkpt lat="53.389940997585654" lon="-9.66692503541708">
        <ele>3.5</ele>
        <time>2026-07-02T12:55:35Z</time>
      </trkpt>
      <trkpt lat="53.389843013137579" lon="-9.665865981951356">
        <ele>4.94</ele>
        <time>2026-07-02T12:55:40Z</time>
      </trkpt>
      <trkpt lat="53.389837983995676" lon="-9.665662972256541">
        <ele>4.46</ele>
        <time>2026-07-02T12:55:41Z</time>
      </trkpt>
      <trkpt lat="53.389828009530902" lon="-9.664923017844558">
        <ele>5.91</ele>
        <time>2026-07-02T12:55:45Z</time>
      </trkpt>
      <trkpt lat="53.390026995912194" lon="-9.663010016083717">
        <ele>7.83</ele>
        <time>2026-07-02T12:55:55Z</time>
      </trkpt>
      <trkpt lat="53.390346011146903" lon="-9.659946011379361">
        <ele>8.789999999999999</ele>
        <time>2026-07-02T12:56:08Z</time>
      </trkpt>
      <trkpt lat="53.390365960076451" lon="-9.657723968848586">
        <ele>7.35</ele>
        <time>2026-07-02T12:56:18Z</time>
      </trkpt>
      <trkpt lat="53.390347016975284" lon="-9.65702299028635">
        <ele>6.39</ele>
        <time>2026-07-02T12:56:22Z</time>
      </trkpt>
      <trkpt lat="53.390343999490142" lon="-9.656900027766824">
        <ele>5.91</ele>
        <time>2026-07-02T12:56:23Z</time>
      </trkpt>
      <trkpt lat="53.390340982005" lon="-9.656800031661987">
        <ele>5.42</ele>
        <time>2026-07-02T12:56:24Z</time>
      </trkpt>
      <trkpt lat="53.390336958691478" lon="-9.656617976725102">
        <ele>4.94</ele>
        <time>2026-07-02T12:56:25Z</time>
      </trkpt>
      <trkpt lat="53.390322038903832" lon="-9.656581012532115">
        <ele>4.46</ele>
        <time>2026-07-02T12:56:26Z</time>
      </trkpt>
      <trkpt lat="53.390291025862098" lon="-9.656501971185207">
        <ele>4.46</ele>
        <time>2026-07-02T12:56:27Z</time>
      </trkpt>
      <trkpt lat="53.390263030305505" lon="-9.656428964808583">
        <ele>4.46</ele>
        <time>2026-07-02T12:56:28Z</time>
      </trkpt>
      <trkpt lat="53.390242997556925" lon="-9.656380014494062">
        <ele>3.98</ele>
        <time>2026-07-02T12:56:29Z</time>
      </trkpt>
      <trkpt lat="53.390233023092151" lon="-9.65635403059423">
        <ele>3.98</ele>
        <time>2026-07-02T12:56:30Z</time>
      </trkpt>
      <trkpt lat="53.39023201726377" lon="-9.656350007280707">
        <ele>3.98</ele>
        <time>2026-07-02T12:56:33Z</time>
      </trkpt>
      <trkpt lat="53.390225982293487" lon="-9.65633399784565">
        <ele>3.98</ele>
        <time>2026-07-02T12:56:37Z</time>
      </trkpt>
      <trkpt lat="53.390079969540238" lon="-9.656403986737132">
        <ele>3.5</ele>
        <time>2026-07-02T12:56:38Z</time>
      </trkpt>
      <trkpt lat="53.390067983418703" lon="-9.656456038355827">
        <ele>3.5</ele>
        <time>2026-07-02T12:56:39Z</time>
      </trkpt>
      <trkpt lat="53.390047028660774" lon="-9.656547987833619">
        <ele>3.5</ele>
        <time>2026-07-02T12:56:40Z</time>
      </trkpt>
      <trkpt lat="53.390019033104181" lon="-9.656670028343797">
        <ele>3.5</ele>
        <time>2026-07-02T12:56:41Z</time>
      </trkpt>
      <trkpt lat="53.389987014234066" lon="-9.656809000298381">
        <ele>3.5</ele>
        <time>2026-07-02T12:56:42Z</time>
      </trkpt>
      <trkpt lat="53.389514023438096" lon="-9.657949022948742">
        <ele>5.42</ele>
        <time>2026-07-02T12:56:48Z</time>
      </trkpt>
      <trkpt lat="53.388450024649501" lon="-9.659338993951678">
        <ele>9.27</ele>
        <time>2026-07-02T12:56:55Z</time>
      </trkpt>
      <trkpt lat="53.387259040027857" lon="-9.660319006070495">
        <ele>12.15</ele>
        <time>2026-07-02T12:57:02Z</time>
      </trkpt>
      <trkpt lat="53.385810982435942" lon="-9.661290971562266">
        <ele>11.67</ele>
        <time>2026-07-02T12:57:11Z</time>
      </trkpt>
      <trkpt lat="53.384268041700125" lon="-9.663012027740479">
        <ele>15.039999999999999</ele>
        <time>2026-07-02T12:57:21Z</time>
      </trkpt>
      <trkpt lat="53.38271101936698" lon="-9.66488303616643">
        <ele>17.440000000000001</ele>
        <time>2026-07-02T12:57:32Z</time>
      </trkpt>
      <trkpt lat="53.381308978423476" lon="-9.666555980220437">
        <ele>17.920000000000002</ele>
        <time>2026-07-02T12:57:41Z</time>
      </trkpt>
      <trkpt lat="53.380252020433545" lon="-9.668118031695485">
        <ele>16.960000000000001</ele>
        <time>2026-07-02T12:57:48Z</time>
      </trkpt>
      <trkpt lat="53.379147034138441" lon="-9.670702004805207">
        <ele>14.08</ele>
        <time>2026-07-02T12:57:57Z</time>
      </trkpt>
      <trkpt lat="53.377720015123487" lon="-9.674419965595007">
        <ele>10.23</ele>
        <time>2026-07-02T12:58:10Z</time>
      </trkpt>
      <trkpt lat="53.377117021009326" lon="-9.676476968452334">
        <ele>9.27</ele>
        <time>2026-07-02T12:58:17Z</time>
      </trkpt>
      <trkpt lat="53.377009984105825" lon="-9.676725994795561">
        <ele>9.27</ele>
        <time>2026-07-02T12:58:18Z</time>
      </trkpt>
      <trkpt lat="53.376857014372945" lon="-9.676923975348473">
        <ele>8.789999999999999</ele>
        <time>2026-07-02T12:58:19Z</time>
      </trkpt>
      <trkpt lat="53.37476396933198" lon="-9.679341986775398">
        <ele>14.08</ele>
        <time>2026-07-02T12:58:32Z</time>
      </trkpt>
      <trkpt lat="53.373156990855932" lon="-9.681646004319191">
        <ele>14.08</ele>
        <time>2026-07-02T12:58:43Z</time>
      </trkpt>
      <trkpt lat="53.371651014313102" lon="-9.683141000568867">
        <ele>12.15</ele>
        <time>2026-07-02T12:58:52Z</time>
      </trkpt>
      <trkpt lat="53.370147971436381" lon="-9.684704979881644">
        <ele>10.710000000000001</ele>
        <time>2026-07-02T12:59:01Z</time>
      </trkpt>
      <trkpt lat="53.368966039270163" lon="-9.686544975265861">
        <ele>7.35</ele>
        <time>2026-07-02T12:59:09Z</time>
      </trkpt>
      <trkpt lat="53.367332993075252" lon="-9.689269009977579">
        <ele>8.789999999999999</ele>
        <time>2026-07-02T12:59:21Z</time>
      </trkpt>
      <trkpt lat="53.366178972646594" lon="-9.690896021202207">
        <ele>15.039999999999999</ele>
        <time>2026-07-02T12:59:30Z</time>
      </trkpt>
      <trkpt lat="53.365240031853318" lon="-9.691987009719014">
        <ele>16.48</ele>
        <time>2026-07-02T12:59:37Z</time>
      </trkpt>
      <trkpt lat="53.365127965807915" lon="-9.692180966958404">
        <ele>16.48</ele>
        <time>2026-07-02T12:59:38Z</time>
      </trkpt>
      <trkpt lat="53.365026041865349" lon="-9.692413983866572">
        <ele>15.52</ele>
        <time>2026-07-02T12:59:39Z</time>
      </trkpt>
      <trkpt lat="53.364153988659382" lon="-9.69427702948451">
        <ele>13.119999999999999</ele>
        <time>2026-07-02T12:59:46Z</time>
      </trkpt>
      <trkpt lat="53.36303198710084" lon="-9.696563025936484">
        <ele>10.710000000000001</ele>
        <time>2026-07-02T12:59:55Z</time>
      </trkpt>
      <trkpt lat="53.362456988543272" lon="-9.698152989149094">
        <ele>13.119999999999999</ele>
        <time>2026-07-02T13:00:01Z</time>
      </trkpt>
      <trkpt lat="53.362312987446785" lon="-9.698609970510006">
        <ele>13.6</ele>
        <time>2026-07-02T13:00:03Z</time>
      </trkpt>
      <trkpt lat="53.362202011048794" lon="-9.698804011568427">
        <ele>13.6</ele>
        <time>2026-07-02T13:00:04Z</time>
      </trkpt>
      <trkpt lat="53.362090028822422" lon="-9.698996962979436">
        <ele>13.6</ele>
        <time>2026-07-02T13:00:05Z</time>
      </trkpt>
      <trkpt lat="53.360643982887268" lon="-9.701057989150286">
        <ele>10.710000000000001</ele>
        <time>2026-07-02T13:00:16Z</time>
      </trkpt>
      <trkpt lat="53.358673984184861" lon="-9.703541966155171">
        <ele>10.710000000000001</ele>
        <time>2026-07-02T13:00:29Z</time>
      </trkpt>
      <trkpt lat="53.357579978182912" lon="-9.704414019361138">
        <ele>9.27</ele>
        <time>2026-07-02T13:00:36Z</time>
      </trkpt>
      <trkpt lat="53.3574010245502" lon="-9.70446003600955">
        <ele>8.789999999999999</ele>
        <time>2026-07-02T13:00:37Z</time>
      </trkpt>
      <trkpt lat="53.357217041775584" lon="-9.704507980495691">
        <ele>8.310000000000001</ele>
        <time>2026-07-02T13:00:38Z</time>
      </trkpt>
      <trkpt lat="53.354704985395074" lon="-9.704704033210874">
        <ele>8.789999999999999</ele>
        <time>2026-07-02T13:00:51Z</time>
      </trkpt>
      <trkpt lat="53.353647021576762" lon="-9.705162020400167">
        <ele>14.56</ele>
        <time>2026-07-02T13:00:57Z</time>
      </trkpt>
      <trkpt lat="53.352136015892029" lon="-9.705796027556062">
        <ele>19.84</ele>
        <time>2026-07-02T13:01:05Z</time>
      </trkpt>
      <trkpt lat="53.350915024057031" lon="-9.706585016101599">
        <ele>23.210000000000001</ele>
        <time>2026-07-02T13:01:12Z</time>
      </trkpt>
      <trkpt lat="53.349498985335231" lon="-9.708231976255775">
        <ele>24.170000000000002</ele>
        <time>2026-07-02T13:01:20Z</time>
      </trkpt>
      <trkpt lat="53.348124017938972" lon="-9.70974599942565">
        <ele>26.57</ele>
        <time>2026-07-02T13:01:28Z</time>
      </trkpt>
      <trkpt lat="53.347771978005767" lon="-9.710064008831978">
        <ele>25.129999999999999</ele>
        <time>2026-07-02T13:01:30Z</time>
      </trkpt>
      <trkpt lat="53.347579026594758" lon="-9.710213961079717">
        <ele>24.170000000000002</ele>
        <time>2026-07-02T13:01:31Z</time>
      </trkpt>
      <trkpt lat="53.346044970676303" lon="-9.711655983701348">
        <ele>17.440000000000001</ele>
        <time>2026-07-02T13:01:39Z</time>
      </trkpt>
      <trkpt lat="53.345186999067664" lon="-9.713093983009458">
        <ele>16</ele>
        <time>2026-07-02T13:01:45Z</time>
      </trkpt>
      <trkpt lat="53.343854025006294" lon="-9.715146040543914">
        <ele>12.630000000000001</ele>
        <time>2026-07-02T13:01:54Z</time>
      </trkpt>
      <trkpt lat="53.341882014647126" lon="-9.717693971469998">
        <ele>11.19</ele>
        <time>2026-07-02T13:02:06Z</time>
      </trkpt>
      <trkpt lat="53.340546023100615" lon="-9.719379991292954">
        <ele>17.920000000000002</ele>
        <time>2026-07-02T13:02:15Z</time>
      </trkpt>
      <trkpt lat="53.338919011875987" lon="-9.721079003065825">
        <ele>20.32</ele>
        <time>2026-07-02T13:02:25Z</time>
      </trkpt>
      <trkpt lat="53.337145987898111" lon="-9.722868958488107">
        <ele>17.440000000000001</ele>
        <time>2026-07-02T13:02:36Z</time>
      </trkpt>
      <trkpt lat="53.335474971681833" lon="-9.72461499273777">
        <ele>14.08</ele>
        <time>2026-07-02T13:02:46Z</time>
      </trkpt>
      <trkpt lat="53.33385500125587" lon="-9.726371001452208">
        <ele>14.08</ele>
        <time>2026-07-02T13:02:56Z</time>
      </trkpt>
      <trkpt lat="53.332912959158421" lon="-9.727931963279843">
        <ele>14.56</ele>
        <time>2026-07-02T13:03:03Z</time>
      </trkpt>
      <trkpt lat="53.332509035244584" lon="-9.728561025112867">
        <ele>14.08</ele>
        <time>2026-07-02T13:03:06Z</time>
      </trkpt>
      <trkpt lat="53.331086039543152" lon="-9.729842031374574">
        <ele>16</ele>
        <time>2026-07-02T13:03:14Z</time>
      </trkpt>
      <trkpt lat="53.33005397580564" lon="-9.730811985209584">
        <ele>22.25</ele>
        <time>2026-07-02T13:03:21Z</time>
      </trkpt>
      <trkpt lat="53.328906996175647" lon="-9.731909008696675">
        <ele>26.09</ele>
        <time>2026-07-02T13:03:31Z</time>
      </trkpt>
      <trkpt lat="53.327841991558671" lon="-9.732983987778425">
        <ele>26.57</ele>
        <time>2026-07-02T13:03:42Z</time>
      </trkpt>
      <trkpt lat="53.326511029154062" lon="-9.734353004023433">
        <ele>29.940000000000001</ele>
        <time>2026-07-02T13:03:55Z</time>
      </trkpt>
      <trkpt lat="53.326331991702318" lon="-9.734578980132937">
        <ele>29.940000000000001</ele>
        <time>2026-07-02T13:03:57Z</time>
      </trkpt>
      <trkpt lat="53.326242975890636" lon="-9.734705965965986">
        <ele>29.940000000000001</ele>
        <time>2026-07-02T13:03:58Z</time>
      </trkpt>
      <trkpt lat="53.325607040897012" lon="-9.735670974478126">
        <ele>31.859999999999999</ele>
        <time>2026-07-02T13:04:05Z</time>
      </trkpt>
      <trkpt lat="53.325496986508369" lon="-9.735789997503161">
        <ele>31.859999999999999</ele>
        <time>2026-07-02T13:04:06Z</time>
      </trkpt>
      <trkpt lat="53.325017038732767" lon="-9.736110018566251">
        <ele>31.859999999999999</ele>
        <time>2026-07-02T13:04:10Z</time>
      </trkpt>
      <trkpt lat="53.324778992682695" lon="-9.736176989972591">
        <ele>31.859999999999999</ele>
        <time>2026-07-02T13:04:12Z</time>
      </trkpt>
      <trkpt lat="53.323620026931167" lon="-9.736530035734177">
        <ele>25.609999999999999</ele>
        <time>2026-07-02T13:04:21Z</time>
      </trkpt>
      <trkpt lat="53.322380008175969" lon="-9.737169994041324">
        <ele>23.690000000000001</ele>
        <time>2026-07-02T13:04:32Z</time>
      </trkpt>
      <trkpt lat="53.322314964607358" lon="-9.737111991271377">
        <ele>23.210000000000001</ele>
        <time>2026-07-02T13:04:33Z</time>
      </trkpt>
      <trkpt lat="53.322242964059114" lon="-9.737047031521797">
        <ele>22.73</ele>
        <time>2026-07-02T13:04:34Z</time>
      </trkpt>
      <trkpt lat="53.321422040462494" lon="-9.736143965274096">
        <ele>22.25</ele>
        <time>2026-07-02T13:04:42Z</time>
      </trkpt>
      <trkpt lat="53.319985968992114" lon="-9.734420981258154">
        <ele>23.690000000000001</ele>
        <time>2026-07-02T13:04:54Z</time>
      </trkpt>
      <trkpt lat="53.319136966019869" lon="-9.733613971620798">
        <ele>22.73</ele>
        <time>2026-07-02T13:05:01Z</time>
      </trkpt>
      <trkpt lat="53.317936006933451" lon="-9.73320996388793">
        <ele>18.399999999999999</ele>
        <time>2026-07-02T13:05:09Z</time>
      </trkpt>
      <trkpt lat="53.316120989620686" lon="-9.732630020007491">
        <ele>14.56</ele>
        <time>2026-07-02T13:05:20Z</time>
      </trkpt>
      <trkpt lat="53.31451996229589" lon="-9.732203967869282">
        <ele>12.630000000000001</ele>
        <time>2026-07-02T13:05:29Z</time>
      </trkpt>
      <trkpt lat="53.314182003960013" lon="-9.732159040868282">
        <ele>11.67</ele>
        <time>2026-07-02T13:05:31Z</time>
      </trkpt>
      <trkpt lat="53.31400497816503" lon="-9.732188964262605">
        <ele>11.19</ele>
        <time>2026-07-02T13:05:32Z</time>
      </trkpt>
      <trkpt lat="53.313834993168712" lon="-9.732279991731048">
        <ele>10.710000000000001</ele>
        <time>2026-07-02T13:05:33Z</time>
      </trkpt>
      <trkpt lat="53.313656961545348" lon="-9.732383005321026">
        <ele>10.23</ele>
        <time>2026-07-02T13:05:34Z</time>
      </trkpt>
      <trkpt lat="53.313473984599113" lon="-9.732488030567765">
        <ele>9.75</ele>
        <time>2026-07-02T13:05:35Z</time>
      </trkpt>
      <trkpt lat="53.311862982809544" lon="-9.7335309907794">
        <ele>8.310000000000001</ele>
        <time>2026-07-02T13:05:44Z</time>
      </trkpt>
      <trkpt lat="53.311740020290017" lon="-9.733700975775719">
        <ele>8.310000000000001</ele>
        <time>2026-07-02T13:05:45Z</time>
      </trkpt>
      <trkpt lat="53.311625020578504" lon="-9.733916977420449">
        <ele>8.789999999999999</ele>
        <time>2026-07-02T13:05:46Z</time>
      </trkpt>
      <trkpt lat="53.31078196875751" lon="-9.73570198751986">
        <ele>10.710000000000001</ele>
        <time>2026-07-02T13:05:53Z</time>
      </trkpt>
      <trkpt lat="53.30994201824069" lon="-9.738182025030255">
        <ele>12.630000000000001</ele>
        <time>2026-07-02T13:06:02Z</time>
      </trkpt>
      <trkpt lat="53.309223018586636" lon="-9.739959994331002">
        <ele>13.119999999999999</ele>
        <time>2026-07-02T13:06:09Z</time>
      </trkpt>
      <trkpt lat="53.309169039130211" lon="-9.740201979875565">
        <ele>13.119999999999999</ele>
        <time>2026-07-02T13:06:10Z</time>
      </trkpt>
      <trkpt lat="53.30912696197629" lon="-9.740431979298592">
        <ele>13.119999999999999</ele>
        <time>2026-07-02T13:06:11Z</time>
      </trkpt>
      <trkpt lat="53.309087986126542" lon="-9.740647980943322">
        <ele>13.119999999999999</ele>
        <time>2026-07-02T13:06:12Z</time>
      </trkpt>
      <trkpt lat="53.309085974469781" lon="-9.740877980366349">
        <ele>12.630000000000001</ele>
        <time>2026-07-02T13:06:13Z</time>
      </trkpt>
      <trkpt lat="53.309100978076458" lon="-9.741119965910912">
        <ele>12.15</ele>
        <time>2026-07-02T13:06:14Z</time>
      </trkpt>
      <trkpt lat="53.309114975854754" lon="-9.74137301556766">
        <ele>12.15</ele>
        <time>2026-07-02T13:06:15Z</time>
      </trkpt>
      <trkpt lat="53.309269035235047" lon="-9.743984984233975">
        <ele>13.6</ele>
        <time>2026-07-02T13:06:24Z</time>
      </trkpt>
      <trkpt lat="53.3093820232898" lon="-9.74648698233068">
        <ele>15.52</ele>
        <time>2026-07-02T13:06:32Z</time>
      </trkpt>
      <trkpt lat="53.309574974700809" lon="-9.75082796998322">
        <ele>20.809999999999999</ele>
        <time>2026-07-02T13:06:46Z</time>
      </trkpt>
      <trkpt lat="53.309699026867747" lon="-9.753104997798801">
        <ele>27.530000000000001</ele>
        <time>2026-07-02T13:06:54Z</time>
      </trkpt>
      <trkpt lat="53.309695003554225" lon="-9.753385959193111">
        <ele>29.460000000000001</ele>
        <time>2026-07-02T13:06:55Z</time>
      </trkpt>
      <trkpt lat="53.309285966679454" lon="-9.756043022498488">
        <ele>34.259999999999998</ele>
        <time>2026-07-02T13:07:04Z</time>
      </trkpt>
      <trkpt lat="53.30861197784543" lon="-9.759294027462602">
        <ele>34.259999999999998</ele>
        <time>2026-07-02T13:07:16Z</time>
      </trkpt>
      <trkpt lat="53.308108979836106" lon="-9.761951006948948">
        <ele>21.289999999999999</ele>
        <time>2026-07-02T13:07:26Z</time>
      </trkpt>
      <trkpt lat="53.307934971526265" lon="-9.764753999188542">
        <ele>14.56</ele>
        <time>2026-07-02T13:07:36Z</time>
      </trkpt>
      <trkpt lat="53.307462986558676" lon="-9.7673050314188">
        <ele>15.039999999999999</ele>
        <time>2026-07-02T13:07:45Z</time>
      </trkpt>
      <trkpt lat="53.306881031021476" lon="-9.769313000142574">
        <ele>16.48</ele>
        <time>2026-07-02T13:07:53Z</time>
      </trkpt>
      <trkpt lat="53.306574001908302" lon="-9.77031103335321">
        <ele>17.920000000000002</ele>
        <time>2026-07-02T13:08:00Z</time>
      </trkpt>
      <trkpt lat="53.306019958108664" lon="-9.771812986582518">
        <ele>17.440000000000001</ele>
        <time>2026-07-02T13:08:11Z</time>
      </trkpt>
      <trkpt lat="53.305947035551071" lon="-9.771951036527753">
        <ele>16.960000000000001</ele>
        <time>2026-07-02T13:08:12Z</time>
      </trkpt>
      <trkpt lat="53.305863970890641" lon="-9.772084979340434">
        <ele>16.48</ele>
        <time>2026-07-02T13:08:13Z</time>
      </trkpt>
      <trkpt lat="53.305405983701348" lon="-9.772768020629883">
        <ele>12.630000000000001</ele>
        <time>2026-07-02T13:08:18Z</time>
      </trkpt>
      <trkpt lat="53.305337000638247" lon="-9.772915961220861">
        <ele>12.630000000000001</ele>
        <time>2026-07-02T13:08:19Z</time>
      </trkpt>
      <trkpt lat="53.305272040888667" lon="-9.773057028651238">
        <ele>12.630000000000001</ele>
        <time>2026-07-02T13:08:20Z</time>
      </trkpt>
      <trkpt lat="53.305233987048268" lon="-9.773220978677273">
        <ele>12.630000000000001</ele>
        <time>2026-07-02T13:08:21Z</time>
      </trkpt>
      <trkpt lat="53.305203979834914" lon="-9.773395992815495">
        <ele>12.630000000000001</ele>
        <time>2026-07-02T13:08:22Z</time>
      </trkpt>
      <trkpt lat="53.305174978449941" lon="-9.773564971983433">
        <ele>12.630000000000001</ele>
        <time>2026-07-02T13:08:23Z</time>
      </trkpt>
      <trkpt lat="53.305150000378489" lon="-9.773711990565062">
        <ele>12.630000000000001</ele>
        <time>2026-07-02T13:08:24Z</time>
      </trkpt>
      <trkpt lat="53.305117981508374" lon="-9.774034023284912">
        <ele>12.630000000000001</ele>
        <time>2026-07-02T13:08:26Z</time>
      </trkpt>
      <trkpt lat="53.305115969851613" lon="-9.774209037423134">
        <ele>12.630000000000001</ele>
        <time>2026-07-02T13:08:27Z</time>
      </trkpt>
      <trkpt lat="53.305142959579825" lon="-9.77439796552062">
        <ele>12.630000000000001</ele>
        <time>2026-07-02T13:08:28Z</time>
      </trkpt>
      <trkpt lat="53.30517103895545" lon="-9.774591000750661">
        <ele>12.630000000000001</ele>
        <time>2026-07-02T13:08:29Z</time>
      </trkpt>
      <trkpt lat="53.305224012583494" lon="-9.77476199157536">
        <ele>12.630000000000001</ele>
        <time>2026-07-02T13:08:30Z</time>
      </trkpt>
      <trkpt lat="53.305281009525061" lon="-9.774948991835117">
        <ele>12.15</ele>
        <time>2026-07-02T13:08:31Z</time>
      </trkpt>
      <trkpt lat="53.305340018123388" lon="-9.775138003751636">
        <ele>12.15</ele>
        <time>2026-07-02T13:08:32Z</time>
      </trkpt>
      <trkpt lat="53.305982993915677" lon="-9.777312017977238">
        <ele>11.67</ele>
        <time>2026-07-02T13:08:43Z</time>
      </trkpt>
      <trkpt lat="53.306244006380439" lon="-9.779920969158411">
        <ele>8.789999999999999</ele>
        <time>2026-07-02T13:08:54Z</time>
      </trkpt>
      <trkpt lat="53.306330004706979" lon="-9.780922019854188">
        <ele>8.310000000000001</ele>
        <time>2026-07-02T13:08:58Z</time>
      </trkpt>
      <trkpt lat="53.306398987770081" lon="-9.781173979863524">
        <ele>9.27</ele>
        <time>2026-07-02T13:08:59Z</time>
      </trkpt>
      <trkpt lat="53.306445004418492" lon="-9.781342959031463">
        <ele>9.75</ele>
        <time>2026-07-02T13:09:00Z</time>
      </trkpt>
      <trkpt lat="53.306508036330342" lon="-9.781418982893229">
        <ele>10.710000000000001</ele>
        <time>2026-07-02T13:09:01Z</time>
      </trkpt>
      <trkpt lat="53.306618006899953" lon="-9.781474974006414">
        <ele>11.19</ele>
        <time>2026-07-02T13:09:02Z</time>
      </trkpt>
      <trkpt lat="53.306740969419479" lon="-9.781537000089884">
        <ele>12.15</ele>
        <time>2026-07-02T13:09:03Z</time>
      </trkpt>
      <trkpt lat="53.307942012324929" lon="-9.78219497948885">
        <ele>13.6</ele>
        <time>2026-07-02T13:09:12Z</time>
      </trkpt>
      <trkpt lat="53.308048965409398" lon="-9.782287012785673">
        <ele>14.08</ele>
        <time>2026-07-02T13:09:13Z</time>
      </trkpt>
      <trkpt lat="53.308148039504886" lon="-9.782394971698523">
        <ele>14.08</ele>
        <time>2026-07-02T13:09:14Z</time>
      </trkpt>
      <trkpt lat="53.308225991204381" lon="-9.782568980008364">
        <ele>14.56</ele>
        <time>2026-07-02T13:09:15Z</time>
      </trkpt>
      <trkpt lat="53.30831098370254" lon="-9.782755980268121">
        <ele>15.039999999999999</ele>
        <time>2026-07-02T13:09:16Z</time>
      </trkpt>
      <trkpt lat="53.308357000350952" lon="-9.78298899717629">
        <ele>15.52</ele>
        <time>2026-07-02T13:09:17Z</time>
      </trkpt>
      <trkpt lat="53.308392958715558" lon="-9.783212961629033">
        <ele>16.48</ele>
        <time>2026-07-02T13:09:18Z</time>
      </trkpt>
      <trkpt lat="53.30839698202908" lon="-9.783455030992627">
        <ele>16.960000000000001</ele>
        <time>2026-07-02T13:09:19Z</time>
      </trkpt>
      <trkpt lat="53.30837300978601" lon="-9.783684024587274">
        <ele>17.440000000000001</ele>
        <time>2026-07-02T13:09:20Z</time>
      </trkpt>
      <trkpt lat="53.308347025886178" lon="-9.783917041495442">
        <ele>17.920000000000002</ele>
        <time>2026-07-02T13:09:21Z</time>
      </trkpt>
      <trkpt lat="53.308162959292531" lon="-9.786291969940066">
        <ele>16.960000000000001</ele>
        <time>2026-07-02T13:09:31Z</time>
      </trkpt>
      <trkpt lat="53.308167988434434" lon="-9.787023961544037">
        <ele>16.960000000000001</ele>
        <time>2026-07-02T13:09:34Z</time>
      </trkpt>
      <trkpt lat="53.30820201896131" lon="-9.787250021472573">
        <ele>16.960000000000001</ele>
        <time>2026-07-02T13:09:35Z</time>
      </trkpt>
      <trkpt lat="53.308249963447452" lon="-9.787469040602446">
        <ele>16.960000000000001</ele>
        <time>2026-07-02T13:09:36Z</time>
      </trkpt>
      <trkpt lat="53.308312995359302" lon="-9.787685964256525">
        <ele>16.48</ele>
        <time>2026-07-02T13:09:37Z</time>
      </trkpt>
      <trkpt lat="53.308381978422403" lon="-9.787900038063526">
        <ele>16.48</ele>
        <time>2026-07-02T13:09:38Z</time>
      </trkpt>
      <trkpt lat="53.308480968698859" lon="-9.78808200918138">
        <ele>16</ele>
        <time>2026-07-02T13:09:39Z</time>
      </trkpt>
      <trkpt lat="53.308579036965966" lon="-9.788263980299234">
        <ele>15.52</ele>
        <time>2026-07-02T13:09:40Z</time>
      </trkpt>
      <trkpt lat="53.308686995878816" lon="-9.78844502940774">
        <ele>15.039999999999999</ele>
        <time>2026-07-02T13:09:41Z</time>
      </trkpt>
      <trkpt lat="53.309757029637694" lon="-9.790119985118508">
        <ele>14.56</ele>
        <time>2026-07-02T13:09:50Z</time>
      </trkpt>
      <trkpt lat="53.309827018529177" lon="-9.790320983156562">
        <ele>15.039999999999999</ele>
        <time>2026-07-02T13:09:51Z</time>
      </trkpt>
      <trkpt lat="53.309875968843699" lon="-9.790587024763227">
        <ele>15.039999999999999</ele>
        <time>2026-07-02T13:09:52Z</time>
      </trkpt>
      <trkpt lat="53.309913016855717" lon="-9.790837978944182">
        <ele>15.039999999999999</ele>
        <time>2026-07-02T13:09:53Z</time>
      </trkpt>
      <trkpt lat="53.309913016855717" lon="-9.791108965873718">
        <ele>15.52</ele>
        <time>2026-07-02T13:09:54Z</time>
      </trkpt>
      <trkpt lat="53.309913016855717" lon="-9.791380958631635">
        <ele>16</ele>
        <time>2026-07-02T13:09:55Z</time>
      </trkpt>
      <trkpt lat="53.309896001592278" lon="-9.791647000238299">
        <ele>16.48</ele>
        <time>2026-07-02T13:09:56Z</time>
      </trkpt>
      <trkpt lat="53.309846967458725" lon="-9.792899005115032">
        <ele>17.920000000000002</ele>
        <time>2026-07-02T13:10:01Z</time>
      </trkpt>
      <trkpt lat="53.309861971065402" lon="-9.793135039508343">
        <ele>17.440000000000001</ele>
        <time>2026-07-02T13:10:02Z</time>
      </trkpt>
      <trkpt lat="53.309893989935517" lon="-9.793364033102989">
        <ele>17.440000000000001</ele>
        <time>2026-07-02T13:10:03Z</time>
      </trkpt>
      <trkpt lat="53.309960039332509" lon="-9.793592020869255">
        <ele>16.960000000000001</ele>
        <time>2026-07-02T13:10:04Z</time>
      </trkpt>
      <trkpt lat="53.310030028223991" lon="-9.793830988928676">
        <ele>16.960000000000001</ele>
        <time>2026-07-02T13:10:05Z</time>
      </trkpt>
      <trkpt lat="53.310117032378912" lon="-9.794065011665225">
        <ele>16.48</ele>
        <time>2026-07-02T13:10:06Z</time>
      </trkpt>
      <trkpt lat="53.310547024011612" lon="-9.794885013252497">
        <ele>17.920000000000002</ele>
        <time>2026-07-02T13:10:10Z</time>
      </trkpt>
      <trkpt lat="53.310682978481054" lon="-9.795053992420435">
        <ele>17.920000000000002</ele>
        <time>2026-07-02T13:10:11Z</time>
      </trkpt>
      <trkpt lat="53.311268035322428" lon="-9.795808028429747">
        <ele>18.399999999999999</ele>
        <time>2026-07-02T13:10:15Z</time>
      </trkpt>
      <trkpt lat="53.312400011345744" lon="-9.798169964924455">
        <ele>19.359999999999999</ele>
        <time>2026-07-02T13:10:25Z</time>
      </trkpt>
      <trkpt lat="53.313650004565716" lon="-9.800671963021159">
        <ele>23.210000000000001</ele>
        <time>2026-07-02T13:10:36Z</time>
      </trkpt>
      <trkpt lat="53.314829003065825" lon="-9.80288403108716">
        <ele>27.050000000000001</ele>
        <time>2026-07-02T13:10:46Z</time>
      </trkpt>
      <trkpt lat="53.31580800935626" lon="-9.80458396486938">
        <ele>25.129999999999999</ele>
        <time>2026-07-02T13:10:55Z</time>
      </trkpt>
      <trkpt lat="53.315910017117858" lon="-9.804685972630978">
        <ele>24.649999999999999</ele>
        <time>2026-07-02T13:10:56Z</time>
      </trkpt>
      <trkpt lat="53.316003978252411" lon="-9.804780017584562">
        <ele>24.170000000000002</ele>
        <time>2026-07-02T13:10:57Z</time>
      </trkpt>
      <trkpt lat="53.316286029294133" lon="-9.804913038387895">
        <ele>22.73</ele>
        <time>2026-07-02T13:11:00Z</time>
      </trkpt>
      <trkpt lat="53.316376972943544" lon="-9.804929969832301">
        <ele>22.25</ele>
        <time>2026-07-02T13:11:01Z</time>
      </trkpt>
      <trkpt lat="53.316477974876761" lon="-9.804915972054005">
        <ele>21.77</ele>
        <time>2026-07-02T13:11:02Z</time>
      </trkpt>
      <trkpt lat="53.31718297675252" lon="-9.804942961782217">
        <ele>17.920000000000002</ele>
        <time>2026-07-02T13:11:08Z</time>
      </trkpt>
      <trkpt lat="53.317306023091078" lon="-9.804999036714435">
        <ele>16.960000000000001</ele>
        <time>2026-07-02T13:11:09Z</time>
      </trkpt>
      <trkpt lat="53.317444995045662" lon="-9.805061984807253">
        <ele>16.48</ele>
        <time>2026-07-02T13:11:10Z</time>
      </trkpt>
      <trkpt lat="53.317530993372202" lon="-9.805198023095727">
        <ele>16</ele>
        <time>2026-07-02T13:11:11Z</time>
      </trkpt>
      <trkpt lat="53.317627971991897" lon="-9.805351998656988">
        <ele>15.52</ele>
        <time>2026-07-02T13:11:12Z</time>
      </trkpt>
      <trkpt lat="53.317727968096733" lon="-9.805509997531772">
        <ele>15.52</ele>
        <time>2026-07-02T13:11:13Z</time>
      </trkpt>
      <trkpt lat="53.318534977734089" lon="-9.806787986308336">
        <ele>13.6</ele>
        <time>2026-07-02T13:11:22Z</time>
      </trkpt>
      <trkpt lat="53.319461010396481" lon="-9.808500995859504">
        <ele>10.710000000000001</ele>
        <time>2026-07-02T13:11:32Z</time>
      </trkpt>
      <trkpt lat="53.320152014493942" lon="-9.809828018769622">
        <ele>8.310000000000001</ele>
        <time>2026-07-02T13:11:39Z</time>
      </trkpt>
      <trkpt lat="53.320826003327966" lon="-9.811141965910792">
        <ele>6.87</ele>
        <time>2026-07-02T13:11:47Z</time>
      </trkpt>
      <trkpt lat="53.321348028257489" lon="-9.812153996899724">
        <ele>5.91</ele>
        <time>2026-07-02T13:11:54Z</time>
      </trkpt>
      <trkpt lat="53.321926966309547" lon="-9.813240962103009">
        <ele>6.39</ele>
        <time>2026-07-02T13:12:05Z</time>
      </trkpt>
      <trkpt lat="53.322057975456119" lon="-9.813486970961094">
        <ele>7.35</ele>
        <time>2026-07-02T13:12:14Z</time>
      </trkpt>
      <trkpt lat="53.322193007916212" lon="-9.813739014789462">
        <ele>6.87</ele>
        <time>2026-07-02T13:12:32Z</time>
      </trkpt>
      <trkpt lat="53.32236198708415" lon="-9.81405702419579">
        <ele>5.91</ele>
        <time>2026-07-02T13:12:36Z</time>
      </trkpt>
      <trkpt lat="53.322965987026691" lon="-9.815201992169023">
        <ele>5.91</ele>
        <time>2026-07-02T13:12:47Z</time>
      </trkpt>
      <trkpt lat="53.323577027767897" lon="-9.816409992054105">
        <ele>6.87</ele>
        <time>2026-07-02T13:12:56Z</time>
      </trkpt>
      <trkpt lat="53.323640981689095" lon="-9.816537983715534">
        <ele>7.35</ele>
        <time>2026-07-02T13:12:57Z</time>
      </trkpt>
      <trkpt lat="53.324454026296735" lon="-9.818136999383569">
        <ele>9.75</ele>
        <time>2026-07-02T13:13:09Z</time>
      </trkpt>
      <trkpt lat="53.324687965214252" lon="-9.818926993757486">
        <ele>7.83</ele>
        <time>2026-07-02T13:13:14Z</time>
      </trkpt>
      <trkpt lat="53.324738005176187" lon="-9.819317003712058">
        <ele>7.35</ele>
        <time>2026-07-02T13:13:16Z</time>
      </trkpt>
      <trkpt lat="53.324757032096386" lon="-9.819523030892015">
        <ele>7.35</ele>
        <time>2026-07-02T13:13:17Z</time>
      </trkpt>
      <trkpt lat="53.324707997962832" lon="-9.819701984524727">
        <ele>7.35</ele>
        <time>2026-07-02T13:13:18Z</time>
      </trkpt>
      <trkpt lat="53.32465804181993" lon="-9.819884039461613">
        <ele>7.83</ele>
        <time>2026-07-02T13:13:19Z</time>
      </trkpt>
      <trkpt lat="53.324611019343138" lon="-9.820055030286312">
        <ele>8.789999999999999</ele>
        <time>2026-07-02T13:13:20Z</time>
      </trkpt>
      <trkpt lat="53.324433993548155" lon="-9.820735976099968">
        <ele>12.15</ele>
        <time>2026-07-02T13:13:25Z</time>
      </trkpt>
      <trkpt lat="53.324417984113097" lon="-9.82086799107492">
        <ele>12.630000000000001</ele>
        <time>2026-07-02T13:13:26Z</time>
      </trkpt>
      <trkpt lat="53.324381019920111" lon="-9.821173008531332">
        <ele>12.630000000000001</ele>
        <time>2026-07-02T13:13:28Z</time>
      </trkpt>
      <trkpt lat="53.324397029355168" lon="-9.821333019062877">
        <ele>12.630000000000001</ele>
        <time>2026-07-02T13:13:29Z</time>
      </trkpt>
      <trkpt lat="53.324427958577871" lon="-9.821503004059196">
        <ele>12.630000000000001</ele>
        <time>2026-07-02T13:13:30Z</time>
      </trkpt>
      <trkpt lat="53.324460983276367" lon="-9.821679024025798">
        <ele>12.630000000000001</ele>
        <time>2026-07-02T13:13:31Z</time>
      </trkpt>
      <trkpt lat="53.324499959126115" lon="-9.821854960173369">
        <ele>12.630000000000001</ele>
        <time>2026-07-02T13:13:32Z</time>
      </trkpt>
      <trkpt lat="53.324869014322758" lon="-9.823083998635411">
        <ele>9.75</ele>
        <time>2026-07-02T13:13:40Z</time>
      </trkpt>
      <trkpt lat="53.324923999607563" lon="-9.823151975870132">
        <ele>9.75</ele>
        <time>2026-07-02T13:13:41Z</time>
      </trkpt>
      <trkpt lat="53.324976973235607" lon="-9.823215007781982">
        <ele>9.75</ele>
        <time>2026-07-02T13:13:42Z</time>
      </trkpt>
      <trkpt lat="53.325044028460979" lon="-9.823186006397009">
        <ele>9.27</ele>
        <time>2026-07-02T13:13:43Z</time>
      </trkpt>
      <trkpt lat="53.325138995423913" lon="-9.8231450188905">
        <ele>9.27</ele>
        <time>2026-07-02T13:13:44Z</time>
      </trkpt>
      <trkpt lat="53.325250977650285" lon="-9.823097996413708">
        <ele>8.789999999999999</ele>
        <time>2026-07-02T13:13:45Z</time>
      </trkpt>
      <trkpt lat="53.325372012332082" lon="-9.823046028614044">
        <ele>8.789999999999999</ele>
        <time>2026-07-02T13:13:46Z</time>
      </trkpt>
      <trkpt lat="53.326451014727354" lon="-9.822292998433113">
        <ele>10.23</ele>
        <time>2026-07-02T13:13:54Z</time>
      </trkpt>
      <trkpt lat="53.327878033742309" lon="-9.821261018514633">
        <ele>9.27</ele>
        <time>2026-07-02T13:14:04Z</time>
      </trkpt>
      <trkpt lat="53.328873971477151" lon="-9.820909984409809">
        <ele>8.789999999999999</ele>
        <time>2026-07-02T13:14:11Z</time>
      </trkpt>
      <trkpt lat="53.329018978402019" lon="-9.820862961933017">
        <ele>8.789999999999999</ele>
        <time>2026-07-02T13:14:12Z</time>
      </trkpt>
      <trkpt lat="53.330555967986584" lon="-9.820747040212154">
        <ele>9.27</ele>
        <time>2026-07-02T13:14:21Z</time>
      </trkpt>
      <trkpt lat="53.332255985587835" lon="-9.82028997503221">
        <ele>7.83</ele>
        <time>2026-07-02T13:14:29Z</time>
      </trkpt>
      <trkpt lat="53.334770975634456" lon="-9.8193200211972">
        <ele>6.87</ele>
        <time>2026-07-02T13:14:42Z</time>
      </trkpt>
      <trkpt lat="53.33690601401031" lon="-9.818580988794565">
        <ele>9.27</ele>
        <time>2026-07-02T13:14:54Z</time>
      </trkpt>
      <trkpt lat="53.337067030370235" lon="-9.818474035710096">
        <ele>9.27</ele>
        <time>2026-07-02T13:14:55Z</time>
      </trkpt>
      <trkpt lat="53.337382022291422" lon="-9.818271026015282">
        <ele>10.23</ele>
        <time>2026-07-02T13:14:57Z</time>
      </trkpt>
      <trkpt lat="53.337540021166205" lon="-9.818210005760193">
        <ele>10.710000000000001</ele>
        <time>2026-07-02T13:14:58Z</time>
      </trkpt>
      <trkpt lat="53.33770296536386" lon="-9.818183016031981">
        <ele>11.19</ele>
        <time>2026-07-02T13:14:59Z</time>
      </trkpt>
      <trkpt lat="53.337869010865688" lon="-9.818207994103432">
        <ele>12.15</ele>
        <time>2026-07-02T13:15:00Z</time>
      </trkpt>
      <trkpt lat="53.338033966720104" lon="-9.818273037672043">
        <ele>12.15</ele>
        <time>2026-07-02T13:15:01Z</time>
      </trkpt>
      <trkpt lat="53.338200012221932" lon="-9.818353001028299">
        <ele>13.119999999999999</ele>
        <time>2026-07-02T13:15:02Z</time>
      </trkpt>
      <trkpt lat="53.338368991389871" lon="-9.818435981869698">
        <ele>13.6</ele>
        <time>2026-07-02T13:15:03Z</time>
      </trkpt>
      <trkpt lat="53.33965502679348" lon="-9.818817023187876">
        <ele>17.440000000000001</ele>
        <time>2026-07-02T13:15:10Z</time>
      </trkpt>
      <trkpt lat="53.34154799580574" lon="-9.819194963201881">
        <ele>15.52</ele>
        <time>2026-07-02T13:15:20Z</time>
      </trkpt>
      <trkpt lat="53.343793004751205" lon="-9.819597965106368">
        <ele>13.119999999999999</ele>
        <time>2026-07-02T13:15:32Z</time>
      </trkpt>
      <trkpt lat="53.345527974888682" lon="-9.819843973964453">
        <ele>15.039999999999999</ele>
        <time>2026-07-02T13:15:42Z</time>
      </trkpt>
      <trkpt lat="53.34717602469027" lon="-9.820607984438539">
        <ele>16</ele>
        <time>2026-07-02T13:15:52Z</time>
      </trkpt>
      <trkpt lat="53.348677977919579" lon="-9.82185797765851">
        <ele>17.440000000000001</ele>
        <time>2026-07-02T13:16:01Z</time>
      </trkpt>
      <trkpt lat="53.350046994164586" lon="-9.823287008330226">
        <ele>22.25</ele>
        <time>2026-07-02T13:16:09Z</time>
      </trkpt>
      <trkpt lat="53.351870980113745" lon="-9.824812011793256">
        <ele>26.09</ele>
        <time>2026-07-02T13:16:19Z</time>
      </trkpt>
      <trkpt lat="53.353654984384775" lon="-9.825369995087385">
        <ele>29.940000000000001</ele>
        <time>2026-07-02T13:16:28Z</time>
      </trkpt>
      <trkpt lat="53.35504001006484" lon="-9.825938958674669">
        <ele>30.899999999999999</ele>
        <time>2026-07-02T13:16:35Z</time>
      </trkpt>
      <trkpt lat="53.35615798830986" lon="-9.826278006657958">
        <ele>30.420000000000002</ele>
        <time>2026-07-02T13:16:41Z</time>
      </trkpt>
      <trkpt lat="53.356348006054759" lon="-9.826254034414887">
        <ele>30.420000000000002</ele>
        <time>2026-07-02T13:16:42Z</time>
      </trkpt>
      <trkpt lat="53.357754992321134" lon="-9.825778026133776">
        <ele>29.460000000000001</ele>
        <time>2026-07-02T13:16:49Z</time>
      </trkpt>
      <trkpt lat="53.359442017972469" lon="-9.825065983459353">
        <ele>25.609999999999999</ele>
        <time>2026-07-02T13:16:58Z</time>
      </trkpt>
      <trkpt lat="53.359607979655266" lon="-9.824983002617955">
        <ele>25.609999999999999</ele>
        <time>2026-07-02T13:16:59Z</time>
      </trkpt>
      <trkpt lat="53.359759021550417" lon="-9.824856016784906">
        <ele>25.129999999999999</ele>
        <time>2026-07-02T13:17:00Z</time>
      </trkpt>
      <trkpt lat="53.361088978126645" lon="-9.823938030749559">
        <ele>21.289999999999999</ele>
        <time>2026-07-02T13:17:08Z</time>
      </trkpt>
      <trkpt lat="53.362556984648108" lon="-9.822817035019398">
        <ele>18.879999999999999</ele>
        <time>2026-07-02T13:17:17Z</time>
      </trkpt>
      <trkpt lat="53.362886980175972" lon="-9.822623999789357">
        <ele>17.440000000000001</ele>
        <time>2026-07-02T13:17:19Z</time>
      </trkpt>
      <trkpt lat="53.363058976829052" lon="-9.822548981755972">
        <ele>16.960000000000001</ele>
        <time>2026-07-02T13:17:20Z</time>
      </trkpt>
      <trkpt lat="53.363241031765938" lon="-9.82254202477634">
        <ele>16.48</ele>
        <time>2026-07-02T13:17:21Z</time>
      </trkpt>
      <trkpt lat="53.363426020368934" lon="-9.822535989806056">
        <ele>16</ele>
        <time>2026-07-02T13:17:22Z</time>
      </trkpt>
      <trkpt lat="53.363621989265084" lon="-9.822528026998043">
        <ele>15.52</ele>
        <time>2026-07-02T13:17:23Z</time>
      </trkpt>
      <trkpt lat="53.363795997574925" lon="-9.822578988969326">
        <ele>15.52</ele>
        <time>2026-07-02T13:17:24Z</time>
      </trkpt>
      <trkpt lat="53.366290032863617" lon="-9.823303017765284">
        <ele>15.52</ele>
        <time>2026-07-02T13:17:38Z</time>
      </trkpt>
      <trkpt lat="53.367894999682903" lon="-9.823364960029721">
        <ele>12.15</ele>
        <time>2026-07-02T13:17:47Z</time>
      </trkpt>
      <trkpt lat="53.369215987622738" lon="-9.822989031672478">
        <ele>11.67</ele>
        <time>2026-07-02T13:17:55Z</time>
      </trkpt>
      <trkpt lat="53.369529973715544" lon="-9.822804965078831">
        <ele>13.119999999999999</ele>
        <time>2026-07-02T13:17:57Z</time>
      </trkpt>
      <trkpt lat="53.369676992297173" lon="-9.822663981467485">
        <ele>13.119999999999999</ele>
        <time>2026-07-02T13:17:58Z</time>
      </trkpt>
      <trkpt lat="53.36982199922204" lon="-9.822524003684521">
        <ele>13.119999999999999</ele>
        <time>2026-07-02T13:17:59Z</time>
      </trkpt>
      <trkpt lat="53.369973041117191" lon="-9.822377990931273">
        <ele>13.119999999999999</ele>
        <time>2026-07-02T13:18:00Z</time>
      </trkpt>
      <trkpt lat="53.370077982544899" lon="-9.822194008156657">
        <ele>13.119999999999999</ele>
        <time>2026-07-02T13:18:01Z</time>
      </trkpt>
      <trkpt lat="53.370906030759215" lon="-9.820929011330009">
        <ele>9.75</ele>
        <time>2026-07-02T13:18:08Z</time>
      </trkpt>
      <trkpt lat="53.372251996770501" lon="-9.820055030286312">
        <ele>2.54</ele>
        <time>2026-07-02T13:18:16Z</time>
      </trkpt>
      <trkpt lat="53.373798038810492" lon="-9.81957801617682">
        <ele>1.1</ele>
        <time>2026-07-02T13:18:25Z</time>
      </trkpt>
      <trkpt lat="53.37519396096468" lon="-9.819710031151772">
        <ele>2.54</ele>
        <time>2026-07-02T13:18:33Z</time>
      </trkpt>
      <trkpt lat="53.375361012294888" lon="-9.819694021716714">
        <ele>3.02</ele>
        <time>2026-07-02T13:18:34Z</time>
      </trkpt>
      <trkpt lat="53.37553896009922" lon="-9.81964498758316">
        <ele>3.5</ele>
        <time>2026-07-02T13:18:35Z</time>
      </trkpt>
      <trkpt lat="53.375869039446115" lon="-9.819480031728745">
        <ele>3.5</ele>
        <time>2026-07-02T13:18:37Z</time>
      </trkpt>
      <trkpt lat="53.376001976430416" lon="-9.81936302036047">
        <ele>3.5</ele>
        <time>2026-07-02T13:18:38Z</time>
      </trkpt>
      <trkpt lat="53.376139020547271" lon="-9.819227987900376">
        <ele>3.5</ele>
        <time>2026-07-02T13:18:39Z</time>
      </trkpt>
      <trkpt lat="53.376964973285794" lon="-9.818127024918795">
        <ele>3.5</ele>
        <time>2026-07-02T13:18:45Z</time>
      </trkpt>
      <trkpt lat="53.377065975219011" lon="-9.81792401522398">
        <ele>3.98</ele>
        <time>2026-07-02T13:18:46Z</time>
      </trkpt>
      <trkpt lat="53.377256998792291" lon="-9.817433003336191">
        <ele>3.98</ele>
        <time>2026-07-02T13:18:48Z</time>
      </trkpt>
      <trkpt lat="53.377355989068747" lon="-9.817177020013332">
        <ele>3.98</ele>
        <time>2026-07-02T13:18:49Z</time>
      </trkpt>
      <trkpt lat="53.377478029578924" lon="-9.8169369623065">
        <ele>3.98</ele>
        <time>2026-07-02T13:18:50Z</time>
      </trkpt>
      <trkpt lat="53.377629993483424" lon="-9.816737975925207">
        <ele>3.98</ele>
        <time>2026-07-02T13:18:51Z</time>
      </trkpt>
      <trkpt lat="53.377784974873066" lon="-9.816534966230393">
        <ele>3.98</ele>
        <time>2026-07-02T13:18:52Z</time>
      </trkpt>
      <trkpt lat="53.378040958195925" lon="-9.816198013722897">
        <ele>4.46</ele>
        <time>2026-07-02T13:18:54Z</time>
      </trkpt>
      <trkpt lat="53.378217983990908" lon="-9.816086031496525">
        <ele>5.42</ele>
        <time>2026-07-02T13:18:55Z</time>
      </trkpt>
      <trkpt lat="53.378374977037311" lon="-9.815986035391688">
        <ele>5.91</ele>
        <time>2026-07-02T13:18:56Z</time>
      </trkpt>
      <trkpt lat="53.378538005053997" lon="-9.815894002094865">
        <ele>5.91</ele>
        <time>2026-07-02T13:18:57Z</time>
      </trkpt>
      <trkpt lat="53.378718970343471" lon="-9.81586198322475">
        <ele>6.39</ele>
        <time>2026-07-02T13:18:58Z</time>
      </trkpt>
      <trkpt lat="53.378904964774847" lon="-9.815828958526254">
        <ele>5.91</ele>
        <time>2026-07-02T13:18:59Z</time>
      </trkpt>
      <trkpt lat="53.379458002746105" lon="-9.815661991015077">
        <ele>6.87</ele>
        <time>2026-07-02T13:19:02Z</time>
      </trkpt>
      <trkpt lat="53.379628993570805" lon="-9.815576998516917">
        <ele>6.87</ele>
        <time>2026-07-02T13:19:03Z</time>
      </trkpt>
      <trkpt lat="53.379783974960446" lon="-9.81545303016901">
        <ele>6.39</ele>
        <time>2026-07-02T13:19:04Z</time>
      </trkpt>
      <trkpt lat="53.379927976056933" lon="-9.815287990495563">
        <ele>6.39</ele>
        <time>2026-07-02T13:19:05Z</time>
      </trkpt>
      <trkpt lat="53.380076000466943" lon="-9.815115993842483">
        <ele>5.91</ele>
        <time>2026-07-02T13:19:06Z</time>
      </trkpt>
      <trkpt lat="53.380226958543062" lon="-9.814940979704261">
        <ele>5.42</ele>
        <time>2026-07-02T13:19:07Z</time>
      </trkpt>
      <trkpt lat="53.380381017923355" lon="-9.81476403772831">
        <ele>5.91</ele>
        <time>2026-07-02T13:19:08Z</time>
      </trkpt>
      <trkpt lat="53.380543040111661" lon="-9.814597992226481">
        <ele>5.91</ele>
        <time>2026-07-02T13:19:09Z</time>
      </trkpt>
      <trkpt lat="53.382199974730611" lon="-9.812874002382159">
        <ele>6.39</ele>
        <time>2026-07-02T13:19:19Z</time>
      </trkpt>
      <trkpt lat="53.382963985204697" lon="-9.811240034177899">
        <ele>7.35</ele>
        <time>2026-07-02T13:19:26Z</time>
      </trkpt>
      <trkpt lat="53.383394982665777" lon="-9.809834975749254">
        <ele>10.710000000000001</ele>
        <time>2026-07-02T13:19:32Z</time>
      </trkpt>
      <trkpt lat="53.383438987657428" lon="-9.809618974104524">
        <ele>11.19</ele>
        <time>2026-07-02T13:19:33Z</time>
      </trkpt>
      <trkpt lat="53.383472012355924" lon="-9.809387968853116">
        <ele>11.19</ele>
        <time>2026-07-02T13:19:34Z</time>
      </trkpt>
      <trkpt lat="53.383477041497827" lon="-9.809139026328921">
        <ele>11.19</ele>
        <time>2026-07-02T13:19:35Z</time>
      </trkpt>
      <trkpt lat="53.383482992649078" lon="-9.808870973065496">
        <ele>11.19</ele>
        <time>2026-07-02T13:19:36Z</time>
      </trkpt>
      <trkpt lat="53.383493972942233" lon="-9.80649696663022">
        <ele>10.710000000000001</ele>
        <time>2026-07-02T13:19:43Z</time>
      </trkpt>
      <trkpt lat="53.383548958227038" lon="-9.804505007341504">
        <ele>10.710000000000001</ele>
        <time>2026-07-02T13:19:49Z</time>
      </trkpt>
      <trkpt lat="53.383578965440392" lon="-9.804211976006627">
        <ele>10.710000000000001</ele>
        <time>2026-07-02T13:19:50Z</time>
      </trkpt>
      <trkpt lat="53.38363797403872" lon="-9.803645024076104">
        <ele>10.710000000000001</ele>
        <time>2026-07-02T13:19:52Z</time>
      </trkpt>
      <trkpt lat="53.383641997352242" lon="-9.803369008004665">
        <ele>10.710000000000001</ele>
        <time>2026-07-02T13:19:53Z</time>
      </trkpt>
      <trkpt lat="53.383641997352242" lon="-9.803087040781975">
        <ele>10.710000000000001</ele>
        <time>2026-07-02T13:19:54Z</time>
      </trkpt>
      <trkpt lat="53.38365700095892" lon="-9.801973002031446">
        <ele>11.67</ele>
        <time>2026-07-02T13:19:58Z</time>
      </trkpt>
      <trkpt lat="53.383689019829035" lon="-9.801687011495233">
        <ele>11.67</ele>
        <time>2026-07-02T13:19:59Z</time>
      </trkpt>
      <trkpt lat="53.38432302698493" lon="-9.799278974533081">
        <ele>8.310000000000001</ele>
        <time>2026-07-02T13:20:08Z</time>
      </trkpt>
      <trkpt lat="53.385489033535123" lon="-9.795709038153291">
        <ele>5.42</ele>
        <time>2026-07-02T13:20:21Z</time>
      </trkpt>
      <trkpt lat="53.385572014376521" lon="-9.79545196518302">
        <ele>5.42</ele>
        <time>2026-07-02T13:20:22Z</time>
      </trkpt>
      <trkpt lat="53.385689025744796" lon="-9.795250967144966">
        <ele>4.94</ele>
        <time>2026-07-02T13:20:23Z</time>
      </trkpt>
      <trkpt lat="53.385813999921083" lon="-9.795049969106913">
        <ele>4.94</ele>
        <time>2026-07-02T13:20:24Z</time>
      </trkpt>
      <trkpt lat="53.386836005374789" lon="-9.793734010308981">
        <ele>4.94</ele>
        <time>2026-07-02T13:20:31Z</time>
      </trkpt>
      <trkpt lat="53.386948993429542" lon="-9.793520020321012">
        <ele>4.94</ele>
        <time>2026-07-02T13:20:32Z</time>
      </trkpt>
      <trkpt lat="53.387040020897985" lon="-9.793262025341392">
        <ele>4.46</ele>
        <time>2026-07-02T13:20:33Z</time>
      </trkpt>
      <trkpt lat="53.387135993689299" lon="-9.792994977906346">
        <ele>4.46</ele>
        <time>2026-07-02T13:20:34Z</time>
      </trkpt>
      <trkpt lat="53.387234983965755" lon="-9.792717033997178">
        <ele>4.46</ele>
        <time>2026-07-02T13:20:35Z</time>
      </trkpt>
      <trkpt lat="53.387694982811809" lon="-9.791371989995241">
        <ele>4.94</ele>
        <time>2026-07-02T13:20:40Z</time>
      </trkpt>
      <trkpt lat="53.387736976146698" lon="-9.791131010279059">
        <ele>4.94</ele>
        <time>2026-07-02T13:20:41Z</time>
      </trkpt>
      <trkpt lat="53.387771006673574" lon="-9.790876032784581">
        <ele>5.42</ele>
        <time>2026-07-02T13:20:42Z</time>
      </trkpt>
      <trkpt lat="53.38791199028492" lon="-9.789449013769627">
        <ele>6.87</ele>
        <time>2026-07-02T13:20:47Z</time>
      </trkpt>
      <trkpt lat="53.387979967519641" lon="-9.789206022396684">
        <ele>7.35</ele>
        <time>2026-07-02T13:20:48Z</time>
      </trkpt>
      <trkpt lat="53.388044005259871" lon="-9.788977028802037">
        <ele>7.35</ele>
        <time>2026-07-02T13:20:49Z</time>
      </trkpt>
      <trkpt lat="53.38810502551496" lon="-9.788759015500546">
        <ele>7.83</ele>
        <time>2026-07-02T13:20:50Z</time>
      </trkpt>
      <trkpt lat="53.388166967779398" lon="-9.788537984713912">
        <ele>7.35</ele>
        <time>2026-07-02T13:20:51Z</time>
      </trkpt>
      <trkpt lat="53.388209966942668" lon="-9.78829599916935">
        <ele>6.87</ele>
        <time>2026-07-02T13:20:52Z</time>
      </trkpt>
      <trkpt lat="53.388240979984403" lon="-9.788036998361349">
        <ele>6.39</ele>
        <time>2026-07-02T13:20:53Z</time>
      </trkpt>
      <trkpt lat="53.388271993026137" lon="-9.787782020866871">
        <ele>5.42</ele>
        <time>2026-07-02T13:20:54Z</time>
      </trkpt>
      <trkpt lat="53.388607017695904" lon="-9.785246998071671">
        <ele>3.5</ele>
        <time>2026-07-02T13:21:05Z</time>
      </trkpt>
      <trkpt lat="53.389140022918582" lon="-9.782740976661444">
        <ele>5.91</ele>
        <time>2026-07-02T13:21:16Z</time>
      </trkpt>
      <trkpt lat="53.38954696431756" lon="-9.781359974294901">
        <ele>3.02</ele>
        <time>2026-07-02T13:21:22Z</time>
      </trkpt>
      <trkpt lat="53.389644026756287" lon="-9.781199963763356">
        <ele>2.06</ele>
        <time>2026-07-02T13:21:23Z</time>
      </trkpt>
      <trkpt lat="53.389746034517884" lon="-9.78103400208056">
        <ele>1.1</ele>
        <time>2026-07-02T13:21:24Z</time>
      </trkpt>
      <trkpt lat="53.389849970117211" lon="-9.780864017084241">
        <ele>0.62</ele>
        <time>2026-07-02T13:21:25Z</time>
      </trkpt>
      <trkpt lat="53.389957007020712" lon="-9.780689002946019">
        <ele>0.14</ele>
        <time>2026-07-02T13:21:26Z</time>
      </trkpt>
      <trkpt lat="53.390037976205349" lon="-9.780467972159386">
        <ele>0.14</ele>
        <time>2026-07-02T13:21:27Z</time>
      </trkpt>
      <trkpt lat="53.390110982581973" lon="-9.780226992443204">
        <ele>0.62</ele>
        <time>2026-07-02T13:21:28Z</time>
      </trkpt>
      <trkpt lat="53.390164040029049" lon="-9.779950976371765">
        <ele>1.1</ele>
        <time>2026-07-02T13:21:29Z</time>
      </trkpt>
      <trkpt lat="53.390293037518859" lon="-9.77935996837914">
        <ele>2.54</ele>
        <time>2026-07-02T13:21:31Z</time>
      </trkpt>
      <trkpt lat="53.390822019428015" lon="-9.777557021006942">
        <ele>7.35</ele>
        <time>2026-07-02T13:21:37Z</time>
      </trkpt>
      <trkpt lat="53.390902988612652" lon="-9.777314029633999">
        <ele>8.310000000000001</ele>
        <time>2026-07-02T13:21:38Z</time>
      </trkpt>
      <trkpt lat="53.391011031344533" lon="-9.777169022709131">
        <ele>8.789999999999999</ele>
        <time>2026-07-02T13:21:39Z</time>
      </trkpt>
      <trkpt lat="53.391119996085763" lon="-9.777052011340857">
        <ele>9.27</ele>
        <time>2026-07-02T13:21:40Z</time>
      </trkpt>
      <trkpt lat="53.391248993575573" lon="-9.776954026892781">
        <ele>9.75</ele>
        <time>2026-07-02T13:21:41Z</time>
      </trkpt>
      <trkpt lat="53.392800986766815" lon="-9.775806041434407">
        <ele>11.67</ele>
        <time>2026-07-02T13:21:51Z</time>
      </trkpt>
      <trkpt lat="53.392974995076656" lon="-9.775719037279487">
        <ele>11.19</ele>
        <time>2026-07-02T13:21:52Z</time>
      </trkpt>
      <trkpt lat="53.393155038356781" lon="-9.77566103450954">
        <ele>10.710000000000001</ele>
        <time>2026-07-02T13:21:53Z</time>
      </trkpt>
      <trkpt lat="53.393340026959777" lon="-9.775619963183999">
        <ele>10.23</ele>
        <time>2026-07-02T13:21:54Z</time>
      </trkpt>
      <trkpt lat="53.393517974764109" lon="-9.77561803534627">
        <ele>9.75</ele>
        <time>2026-07-02T13:21:55Z</time>
      </trkpt>
      <trkpt lat="53.393686031922698" lon="-9.775648964568973">
        <ele>9.27</ele>
        <time>2026-07-02T13:21:56Z</time>
      </trkpt>
      <trkpt lat="53.39384201914072" lon="-9.775722976773977">
        <ele>9.27</ele>
        <time>2026-07-02T13:21:57Z</time>
      </trkpt>
      <trkpt lat="53.393989959731698" lon="-9.775840993970633">
        <ele>9.27</ele>
        <time>2026-07-02T13:21:58Z</time>
      </trkpt>
      <trkpt lat="53.39414200745523" lon="-9.775987006723881">
        <ele>9.27</ele>
        <time>2026-07-02T13:21:59Z</time>
      </trkpt>
      <trkpt lat="53.394281985238194" lon="-9.776167972013354">
        <ele>8.789999999999999</ele>
        <time>2026-07-02T13:22:00Z</time>
      </trkpt>
      <trkpt lat="53.395272977650166" lon="-9.777504969388247">
        <ele>8.310000000000001</ele>
        <time>2026-07-02T13:22:07Z</time>
      </trkpt>
      <trkpt lat="53.395384037867188" lon="-9.77770496159792">
        <ele>8.310000000000001</ele>
        <time>2026-07-02T13:22:08Z</time>
      </trkpt>
      <trkpt lat="53.395441034808755" lon="-9.777964968234301">
        <ele>8.310000000000001</ele>
        <time>2026-07-02T13:22:09Z</time>
      </trkpt>
      <trkpt lat="53.395501971244812" lon="-9.778245007619262">
        <ele>8.310000000000001</ele>
        <time>2026-07-02T13:22:10Z</time>
      </trkpt>
      <trkpt lat="53.395545976236463" lon="-9.778543990105391">
        <ele>8.789999999999999</ele>
        <time>2026-07-02T13:22:11Z</time>
      </trkpt>
      <trkpt lat="53.395572965964675" lon="-9.778836015611887">
        <ele>9.27</ele>
        <time>2026-07-02T13:22:12Z</time>
      </trkpt>
      <trkpt lat="53.395598027855158" lon="-9.779107002541423">
        <ele>9.75</ele>
        <time>2026-07-02T13:22:13Z</time>
      </trkpt>
      <trkpt lat="53.395634992048144" lon="-9.779348988085985">
        <ele>9.75</ele>
        <time>2026-07-02T13:22:14Z</time>
      </trkpt>
      <trkpt lat="53.395712021738291" lon="-9.779576975852251">
        <ele>9.27</ele>
        <time>2026-07-02T13:22:15Z</time>
      </trkpt>
      <trkpt lat="53.395793996751308" lon="-9.779818961396813">
        <ele>9.27</ele>
        <time>2026-07-02T13:22:16Z</time>
      </trkpt>
      <trkpt lat="53.395878989249468" lon="-9.78006798774004">
        <ele>9.27</ele>
        <time>2026-07-02T13:22:17Z</time>
      </trkpt>
      <trkpt lat="53.396251983940601" lon="-9.781660968437791">
        <ele>13.119999999999999</ele>
        <time>2026-07-02T13:22:23Z</time>
      </trkpt>
      <trkpt lat="53.396318033337593" lon="-9.781876970082521">
        <ele>13.6</ele>
        <time>2026-07-02T13:22:24Z</time>
      </trkpt>
      <trkpt lat="53.396411994472146" lon="-9.78206598199904">
        <ele>14.08</ele>
        <time>2026-07-02T13:22:25Z</time>
      </trkpt>
      <trkpt lat="53.396503021940589" lon="-9.782246025279164">
        <ele>14.56</ele>
        <time>2026-07-02T13:22:26Z</time>
      </trkpt>
      <trkpt lat="53.396607963368297" lon="-9.782362030819058">
        <ele>15.039999999999999</ele>
        <time>2026-07-02T13:22:27Z</time>
      </trkpt>
      <trkpt lat="53.396730003878474" lon="-9.782439982518554">
        <ele>15.52</ele>
        <time>2026-07-02T13:22:28Z</time>
      </trkpt>
      <trkpt lat="53.396854978054762" lon="-9.782519023865461">
        <ele>16.48</ele>
        <time>2026-07-02T13:22:29Z</time>
      </trkpt>
      <trkpt lat="53.396982969716191" lon="-9.78260200470686">
        <ele>16.960000000000001</ele>
        <time>2026-07-02T13:22:30Z</time>
      </trkpt>
      <trkpt lat="53.397111967206001" lon="-9.782705018296838">
        <ele>16.960000000000001</ele>
        <time>2026-07-02T13:22:31Z</time>
      </trkpt>
      <trkpt lat="53.397229984402657" lon="-9.782850025221705">
        <ele>17.440000000000001</ele>
        <time>2026-07-02T13:22:32Z</time>
      </trkpt>
      <trkpt lat="53.397321011871099" lon="-9.783042976632714">
        <ele>17.440000000000001</ele>
        <time>2026-07-02T13:22:33Z</time>
      </trkpt>
      <trkpt lat="53.397402986884117" lon="-9.783265013247728">
        <ele>17.920000000000002</ele>
        <time>2026-07-02T13:22:34Z</time>
      </trkpt>
      <trkpt lat="53.397486973553896" lon="-9.783495012670755">
        <ele>17.920000000000002</ele>
        <time>2026-07-02T13:22:35Z</time>
      </trkpt>
      <trkpt lat="53.397558974102139" lon="-9.783754013478756">
        <ele>18.399999999999999</ele>
        <time>2026-07-02T13:22:36Z</time>
      </trkpt>
      <trkpt lat="53.397846976295114" lon="-9.784869980067015">
        <ele>16</ele>
        <time>2026-07-02T13:22:41Z</time>
      </trkpt>
      <trkpt lat="53.397953007370234" lon="-9.784966036677361">
        <ele>15.52</ele>
        <time>2026-07-02T13:22:42Z</time>
      </trkpt>
      <trkpt lat="53.398045962676406" lon="-9.785049017518759">
        <ele>15.039999999999999</ele>
        <time>2026-07-02T13:22:43Z</time>
      </trkpt>
      <trkpt lat="53.3981619682163" lon="-9.785048011690378">
        <ele>14.56</ele>
        <time>2026-07-02T13:22:44Z</time>
      </trkpt>
      <trkpt lat="53.398301023989916" lon="-9.785025967285037">
        <ele>14.08</ele>
        <time>2026-07-02T13:22:45Z</time>
      </trkpt>
      <trkpt lat="53.398452987894416" lon="-9.785003000870347">
        <ele>13.6</ele>
        <time>2026-07-02T13:22:46Z</time>
      </trkpt>
      <trkpt lat="53.399841031059623" lon="-9.784961007535458">
        <ele>16.48</ele>
        <time>2026-07-02T13:22:54Z</time>
      </trkpt>
      <trkpt lat="53.401056993752718" lon="-9.784691026434302">
        <ele>19.84</ele>
        <time>2026-07-02T13:23:01Z</time>
      </trkpt>
      <trkpt lat="53.402076987549663" lon="-9.784377040341497">
        <ele>22.73</ele>
        <time>2026-07-02T13:23:07Z</time>
      </trkpt>
      <trkpt lat="53.402243033051491" lon="-9.784377040341497">
        <ele>23.210000000000001</ele>
        <time>2026-07-02T13:23:08Z</time>
      </trkpt>
      <trkpt lat="53.402406983077526" lon="-9.784420961514115">
        <ele>23.690000000000001</ele>
        <time>2026-07-02T13:23:09Z</time>
      </trkpt>
      <trkpt lat="53.402573028579354" lon="-9.784473013132811">
        <ele>23.690000000000001</ele>
        <time>2026-07-02T13:23:10Z</time>
      </trkpt>
      <trkpt lat="53.402738990262151" lon="-9.784544007852674">
        <ele>23.690000000000001</ele>
        <time>2026-07-02T13:23:11Z</time>
      </trkpt>
      <trkpt lat="53.402903024107218" lon="-9.784645009785891">
        <ele>23.690000000000001</ele>
        <time>2026-07-02T13:23:12Z</time>
      </trkpt>
      <trkpt lat="53.403068985790014" lon="-9.784749029204249">
        <ele>23.690000000000001</ele>
        <time>2026-07-02T13:23:13Z</time>
      </trkpt>
      <trkpt lat="53.403224973008037" lon="-9.784899987280369">
        <ele>23.210000000000001</ele>
        <time>2026-07-02T13:23:14Z</time>
      </trkpt>
      <trkpt lat="53.403380960226059" lon="-9.785052035003901">
        <ele>22.73</ele>
        <time>2026-07-02T13:23:15Z</time>
      </trkpt>
      <trkpt lat="53.403878007084131" lon="-9.785457970574498">
        <ele>18.399999999999999</ele>
        <time>2026-07-02T13:23:19Z</time>
      </trkpt>
      <trkpt lat="53.403962999582291" lon="-9.785467023029923">
        <ele>17.440000000000001</ele>
        <time>2026-07-02T13:23:20Z</time>
      </trkpt>
      <trkpt lat="53.404042040929198" lon="-9.785423018038273">
        <ele>16.960000000000001</ele>
        <time>2026-07-02T13:23:21Z</time>
      </trkpt>
      <trkpt lat="53.404120998457074" lon="-9.785315981134772">
        <ele>16</ele>
        <time>2026-07-02T13:23:22Z</time>
      </trkpt>
      <trkpt lat="53.404173972085118" lon="-9.785143984481692">
        <ele>15.52</ele>
        <time>2026-07-02T13:23:23Z</time>
      </trkpt>
      <trkpt lat="53.404227029532194" lon="-9.784940974786878">
        <ele>15.039999999999999</ele>
        <time>2026-07-02T13:23:24Z</time>
      </trkpt>
      <trkpt lat="53.404276985675097" lon="-9.784718016162515">
        <ele>14.56</ele>
        <time>2026-07-02T13:23:25Z</time>
      </trkpt>
      <trkpt lat="53.404315039515495" lon="-9.78447200730443">
        <ele>13.6</ele>
        <time>2026-07-02T13:23:26Z</time>
      </trkpt>
      <trkpt lat="53.404426015913486" lon="-9.783769017085433">
        <ele>12.15</ele>
        <time>2026-07-02T13:23:29Z</time>
      </trkpt>
      <trkpt lat="53.404456023126841" lon="-9.783583022654057">
        <ele>11.19</ele>
        <time>2026-07-02T13:23:30Z</time>
      </trkpt>
      <trkpt lat="53.404561970382929" lon="-9.783456036821008">
        <ele>10.710000000000001</ele>
        <time>2026-07-02T13:23:31Z</time>
      </trkpt>
      <trkpt lat="53.404661966487765" lon="-9.783337013795972">
        <ele>10.23</ele>
        <time>2026-07-02T13:23:32Z</time>
      </trkpt>
      <trkpt lat="53.404770009219646" lon="-9.783207010477781">
        <ele>9.75</ele>
        <time>2026-07-02T13:23:33Z</time>
      </trkpt>
      <trkpt lat="53.405374009162188" lon="-9.782557999715209">
        <ele>5.91</ele>
        <time>2026-07-02T13:23:38Z</time>
      </trkpt>
      <trkpt lat="53.405490014702082" lon="-9.782519023865461">
        <ele>5.91</ele>
        <time>2026-07-02T13:23:39Z</time>
      </trkpt>
      <trkpt lat="53.405596967786551" lon="-9.782540984451771">
        <ele>5.42</ele>
        <time>2026-07-02T13:23:40Z</time>
      </trkpt>
      <trkpt lat="53.405696963891387" lon="-9.782606028020382">
        <ele>5.42</ele>
        <time>2026-07-02T13:23:41Z</time>
      </trkpt>
      <trkpt lat="53.405782040208578" lon="-9.782718010246754">
        <ele>4.94</ele>
        <time>2026-07-02T13:23:42Z</time>
      </trkpt>
      <trkpt lat="53.405816992744803" lon="-9.782893024384975">
        <ele>4.94</ele>
        <time>2026-07-02T13:23:43Z</time>
      </trkpt>
      <trkpt lat="53.40585202910006" lon="-9.783082036301494">
        <ele>5.42</ele>
        <time>2026-07-02T13:23:44Z</time>
      </trkpt>
      <trkpt lat="53.405888993293047" lon="-9.783282028511167">
        <ele>5.91</ele>
        <time>2026-07-02T13:23:45Z</time>
      </trkpt>
      <trkpt lat="53.405961999669671" lon="-9.783673966303468">
        <ele>6.87</ele>
        <time>2026-07-02T13:23:47Z</time>
      </trkpt>
      <trkpt lat="53.405994018539786" lon="-9.78384898044169">
        <ele>7.35</ele>
        <time>2026-07-02T13:23:48Z</time>
      </trkpt>
      <trkpt lat="53.406072976067662" lon="-9.78395501151681">
        <ele>7.35</ele>
        <time>2026-07-02T13:23:49Z</time>
      </trkpt>
      <trkpt lat="53.406176995486021" lon="-9.784060036763549">
        <ele>7.35</ele>
        <time>2026-07-02T13:23:50Z</time>
      </trkpt>
      <trkpt lat="53.406288977712393" lon="-9.784145029261708">
        <ele>7.35</ele>
        <time>2026-07-02T13:23:51Z</time>
      </trkpt>
      <trkpt lat="53.406420992687345" lon="-9.784163972362876">
        <ele>7.35</ele>
        <time>2026-07-02T13:23:52Z</time>
      </trkpt>
      <trkpt lat="53.406547978520393" lon="-9.784181993454695">
        <ele>7.35</ele>
        <time>2026-07-02T13:23:53Z</time>
      </trkpt>
      <trkpt lat="53.406651997938752" lon="-9.784098006784916">
        <ele>7.35</ele>
        <time>2026-07-02T13:23:54Z</time>
      </trkpt>
      <trkpt lat="53.406762974336743" lon="-9.783997004851699">
        <ele>7.83</ele>
        <time>2026-07-02T13:23:55Z</time>
      </trkpt>
      <trkpt lat="53.406867999583483" lon="-9.783862978219986">
        <ele>8.310000000000001</ele>
        <time>2026-07-02T13:23:56Z</time>
      </trkpt>
      <trkpt lat="53.406971013173461" lon="-9.783696010708809">
        <ele>8.789999999999999</ele>
        <time>2026-07-02T13:23:57Z</time>
      </trkpt>
      <trkpt lat="53.407998969778419" lon="-9.782077968120575">
        <ele>13.119999999999999</ele>
        <time>2026-07-02T13:24:07Z</time>
      </trkpt>
      <trkpt lat="53.408112963661551" lon="-9.781963974237442">
        <ele>14.08</ele>
        <time>2026-07-02T13:24:08Z</time>
      </trkpt>
      <trkpt lat="53.408224023878574" lon="-9.781884010881186">
        <ele>14.56</ele>
        <time>2026-07-02T13:24:09Z</time>
      </trkpt>
      <trkpt lat="53.408335000276566" lon="-9.781832965090871">
        <ele>15.039999999999999</ele>
        <time>2026-07-02T13:24:10Z</time>
      </trkpt>
      <trkpt lat="53.408445976674557" lon="-9.781793989241123">
        <ele>15.52</ele>
        <time>2026-07-02T13:24:11Z</time>
      </trkpt>
      <trkpt lat="53.408941011875868" lon="-9.78167898952961">
        <ele>15.039999999999999</ele>
        <time>2026-07-02T13:24:15Z</time>
      </trkpt>
      <trkpt lat="53.409061040729284" lon="-9.781591985374689">
        <ele>14.56</ele>
        <time>2026-07-02T13:24:16Z</time>
      </trkpt>
      <trkpt lat="53.409176040440798" lon="-9.781496012583375">
        <ele>14.56</ele>
        <time>2026-07-02T13:24:17Z</time>
      </trkpt>
      <trkpt lat="53.409281987696886" lon="-9.781361985951662">
        <ele>15.039999999999999</ele>
        <time>2026-07-02T13:24:18Z</time>
      </trkpt>
      <trkpt lat="53.409389024600387" lon="-9.781225025653839">
        <ele>15.52</ele>
        <time>2026-07-02T13:24:19Z</time>
      </trkpt>
      <trkpt lat="53.409495977684855" lon="-9.781088987365365">
        <ele>15.52</ele>
        <time>2026-07-02T13:24:20Z</time>
      </trkpt>
      <trkpt lat="53.410628959536552" lon="-9.779712008312345">
        <ele>16</ele>
        <time>2026-07-02T13:24:29Z</time>
      </trkpt>
      <trkpt lat="53.411924969404936" lon="-9.778541978448629">
        <ele>18.399999999999999</ele>
        <time>2026-07-02T13:24:37Z</time>
      </trkpt>
      <trkpt lat="53.41206100769341" lon="-9.778419015929103">
        <ele>19.359999999999999</ele>
        <time>2026-07-02T13:24:38Z</time>
      </trkpt>
      <trkpt lat="53.4121910110116" lon="-9.778269985690713">
        <ele>19.84</ele>
        <time>2026-07-02T13:24:39Z</time>
      </trkpt>
      <trkpt lat="53.413032973185182" lon="-9.777258960530162">
        <ele>21.289999999999999</ele>
        <time>2026-07-02T13:24:45Z</time>
      </trkpt>
      <trkpt lat="53.413188038393855" lon="-9.77716600522399">
        <ele>21.289999999999999</ele>
        <time>2026-07-02T13:24:46Z</time>
      </trkpt>
      <trkpt lat="53.413337990641594" lon="-9.777112025767565">
        <ele>21.289999999999999</ele>
        <time>2026-07-02T13:24:47Z</time>
      </trkpt>
      <trkpt lat="53.413489032536745" lon="-9.777086041867733">
        <ele>21.77</ele>
        <time>2026-07-02T13:24:48Z</time>
      </trkpt>
      <trkpt lat="53.413638984784484" lon="-9.777098027989268">
        <ele>22.25</ele>
        <time>2026-07-02T13:24:49Z</time>
      </trkpt>
      <trkpt lat="53.413793966174126" lon="-9.777148989960551">
        <ele>23.210000000000001</ele>
        <time>2026-07-02T13:24:50Z</time>
      </trkpt>
      <trkpt lat="53.413949031382799" lon="-9.777228031307459">
        <ele>23.690000000000001</ele>
        <time>2026-07-02T13:24:51Z</time>
      </trkpt>
      <trkpt lat="53.414108958095312" lon="-9.777310006320477">
        <ele>23.690000000000001</ele>
        <time>2026-07-02T13:24:52Z</time>
      </trkpt>
      <trkpt lat="53.414441971108317" lon="-9.777480997145176">
        <ele>23.690000000000001</ele>
        <time>2026-07-02T13:24:54Z</time>
      </trkpt>
      <trkpt lat="53.414610028266907" lon="-9.777530031278729">
        <ele>23.210000000000001</ele>
        <time>2026-07-02T13:24:55Z</time>
      </trkpt>
      <trkpt lat="53.414785964414477" lon="-9.777527013793588">
        <ele>23.210000000000001</ele>
        <time>2026-07-02T13:24:56Z</time>
      </trkpt>
      <trkpt lat="53.416132014244795" lon="-9.777569007128477">
        <ele>24.170000000000002</ele>
        <time>2026-07-02T13:25:04Z</time>
      </trkpt>
      <trkpt lat="53.416270986199379" lon="-9.777635978534818">
        <ele>23.690000000000001</ele>
        <time>2026-07-02T13:25:05Z</time>
      </trkpt>
      <trkpt lat="53.416392020881176" lon="-9.777709990739822">
        <ele>23.690000000000001</ele>
        <time>2026-07-02T13:25:06Z</time>
      </trkpt>
      <trkpt lat="53.416492016986012" lon="-9.777788026258349">
        <ele>23.690000000000001</ele>
        <time>2026-07-02T13:25:07Z</time>
      </trkpt>
      <trkpt lat="53.41657399199903" lon="-9.777868995442987">
        <ele>23.690000000000001</ele>
        <time>2026-07-02T13:25:08Z</time>
      </trkpt>
      <trkpt lat="53.416646998375654" lon="-9.777943007647991">
        <ele>23.210000000000001</ele>
        <time>2026-07-02T13:25:09Z</time>
      </trkpt>
      <trkpt lat="53.416711036115885" lon="-9.778006039559841">
        <ele>22.73</ele>
        <time>2026-07-02T13:25:10Z</time>
      </trkpt>
      <trkpt lat="53.416764009743929" lon="-9.778059013187885">
        <ele>22.25</ele>
        <time>2026-07-02T13:25:11Z</time>
      </trkpt>
      <trkpt lat="53.416801979765296" lon="-9.778230004012585">
        <ele>22.25</ele>
        <time>2026-07-02T13:25:12Z</time>
      </trkpt>
      <trkpt lat="53.416772978380322" lon="-9.778311979025602">
        <ele>21.77</ele>
        <time>2026-07-02T13:25:13Z</time>
      </trkpt>
      <trkpt lat="53.416730985045433" lon="-9.778428990393877">
        <ele>21.289999999999999</ele>
        <time>2026-07-02T13:25:14Z</time>
      </trkpt>
      <trkpt lat="53.416678011417389" lon="-9.778575003147125">
        <ele>21.289999999999999</ele>
        <time>2026-07-02T13:25:15Z</time>
      </trkpt>
      <trkpt lat="53.416235027834773" lon="-9.780105035752058">
        <ele>19.359999999999999</ele>
        <time>2026-07-02T13:25:22Z</time>
      </trkpt>
      <trkpt lat="53.41567000374198" lon="-9.782361024990678">
        <ele>18.879999999999999</ele>
        <time>2026-07-02T13:25:31Z</time>
      </trkpt>
      <trkpt lat="53.41554100625217" lon="-9.782768972218037">
        <ele>18.879999999999999</ele>
        <time>2026-07-02T13:25:33Z</time>
      </trkpt>
      <trkpt lat="53.415508987382054" lon="-9.782984973862767">
        <ele>18.879999999999999</ele>
        <time>2026-07-02T13:25:34Z</time>
      </trkpt>
      <trkpt lat="53.415487026795745" lon="-9.783191001042724">
        <ele>18.879999999999999</ele>
        <time>2026-07-02T13:25:35Z</time>
      </trkpt>
      <trkpt lat="53.415465988218784" lon="-9.783385964110494">
        <ele>18.879999999999999</ele>
        <time>2026-07-02T13:25:36Z</time>
      </trkpt>
      <trkpt lat="53.415516028180718" lon="-9.783594002947211">
        <ele>19.359999999999999</ele>
        <time>2026-07-02T13:25:37Z</time>
      </trkpt>
      <trkpt lat="53.415574030950665" lon="-9.783793995156884">
        <ele>19.359999999999999</ele>
        <time>2026-07-02T13:25:38Z</time>
      </trkpt>
      <trkpt lat="53.415634967386723" lon="-9.784005973488092">
        <ele>19.359999999999999</ele>
        <time>2026-07-02T13:25:39Z</time>
      </trkpt>
      <trkpt lat="53.415952976793051" lon="-9.785291003063321">
        <ele>19.84</ele>
        <time>2026-07-02T13:25:44Z</time>
      </trkpt>
      <trkpt lat="53.415999999269843" lon="-9.785556960850954">
        <ele>19.84</ele>
        <time>2026-07-02T13:25:45Z</time>
      </trkpt>
      <trkpt lat="53.415990024805069" lon="-9.785780003294349">
        <ele>19.84</ele>
        <time>2026-07-02T13:25:46Z</time>
      </trkpt>
      <trkpt lat="53.415978960692883" lon="-9.786029029637575">
        <ele>19.84</ele>
        <time>2026-07-02T13:25:47Z</time>
      </trkpt>
      <trkpt lat="53.415922969579697" lon="-9.78625601157546">
        <ele>19.84</ele>
        <time>2026-07-02T13:25:48Z</time>
      </trkpt>
      <trkpt lat="53.41569003649056" lon="-9.787256978452206">
        <ele>19.359999999999999</ele>
        <time>2026-07-02T13:25:52Z</time>
      </trkpt>
      <trkpt lat="53.4156499709934" lon="-9.787492007017136">
        <ele>19.359999999999999</ele>
        <time>2026-07-02T13:25:53Z</time>
      </trkpt>
      <trkpt lat="53.415642008185387" lon="-9.787723012268543">
        <ele>19.359999999999999</ele>
        <time>2026-07-02T13:25:54Z</time>
      </trkpt>
      <trkpt lat="53.415652988478541" lon="-9.787958962842822">
        <ele>18.879999999999999</ele>
        <time>2026-07-02T13:25:55Z</time>
      </trkpt>
      <trkpt lat="53.415691964328289" lon="-9.788196003064513">
        <ele>18.399999999999999</ele>
        <time>2026-07-02T13:25:56Z</time>
      </trkpt>
      <trkpt lat="53.415747033432126" lon="-9.788427008315921">
        <ele>18.399999999999999</ele>
        <time>2026-07-02T13:25:57Z</time>
      </trkpt>
      <trkpt lat="53.415802018716931" lon="-9.788658013567329">
        <ele>18.399999999999999</ele>
        <time>2026-07-02T13:25:58Z</time>
      </trkpt>
      <trkpt lat="53.415859015658498" lon="-9.788894969969988">
        <ele>18.399999999999999</ele>
        <time>2026-07-02T13:25:59Z</time>
      </trkpt>
      <trkpt lat="53.415916012600064" lon="-9.789136033505201">
        <ele>17.920000000000002</ele>
        <time>2026-07-02T13:26:00Z</time>
      </trkpt>
      <trkpt lat="53.415973009541631" lon="-9.789376007393003">
        <ele>17.920000000000002</ele>
        <time>2026-07-02T13:26:01Z</time>
      </trkpt>
      <trkpt lat="53.416006034240127" lon="-9.789617992937565">
        <ele>17.440000000000001</ele>
        <time>2026-07-02T13:26:02Z</time>
      </trkpt>
      <trkpt lat="53.4160350356251" lon="-9.789852015674114">
        <ele>17.920000000000002</ele>
        <time>2026-07-02T13:26:03Z</time>
      </trkpt>
      <trkpt lat="53.416064037010074" lon="-9.790078997612">
        <ele>17.440000000000001</ele>
        <time>2026-07-02T13:26:04Z</time>
      </trkpt>
      <trkpt lat="53.416053978726268" lon="-9.790302962064743">
        <ele>16.48</ele>
        <time>2026-07-02T13:26:05Z</time>
      </trkpt>
      <trkpt lat="53.416042998433113" lon="-9.790514018386602">
        <ele>15.52</ele>
        <time>2026-07-02T13:26:06Z</time>
      </trkpt>
      <trkpt lat="53.415979966521263" lon="-9.790760027244687">
        <ele>15.039999999999999</ele>
        <time>2026-07-02T13:26:07Z</time>
      </trkpt>
      <trkpt lat="53.415921963751316" lon="-9.790987009182572">
        <ele>15.039999999999999</ele>
        <time>2026-07-02T13:26:08Z</time>
      </trkpt>
      <trkpt lat="53.41586303897202" lon="-9.791220026090741">
        <ele>14.56</ele>
        <time>2026-07-02T13:26:09Z</time>
      </trkpt>
      <trkpt lat="53.415398010984063" lon="-9.793011993169785">
        <ele>13.6</ele>
        <time>2026-07-02T13:26:17Z</time>
      </trkpt>
      <trkpt lat="53.415364986285567" lon="-9.793221037834883">
        <ele>14.08</ele>
        <time>2026-07-02T13:26:18Z</time>
      </trkpt>
      <trkpt lat="53.415343025699258" lon="-9.793443996459246">
        <ele>14.08</ele>
        <time>2026-07-02T13:26:19Z</time>
      </trkpt>
      <trkpt lat="53.415280999615788" lon="-9.795648017898202">
        <ele>11.67</ele>
        <time>2026-07-02T13:26:29Z</time>
      </trkpt>
      <trkpt lat="53.415313018485904" lon="-9.796070968732238">
        <ele>10.710000000000001</ele>
        <time>2026-07-02T13:26:31Z</time>
      </trkpt>
      <trkpt lat="53.415385019034147" lon="-9.796276995912194">
        <ele>10.23</ele>
        <time>2026-07-02T13:26:32Z</time>
      </trkpt>
      <trkpt lat="53.415445033460855" lon="-9.796449998393655">
        <ele>9.75</ele>
        <time>2026-07-02T13:26:33Z</time>
      </trkpt>
      <trkpt lat="53.415506975725293" lon="-9.796629035845399">
        <ele>8.789999999999999</ele>
        <time>2026-07-02T13:26:34Z</time>
      </trkpt>
      <trkpt lat="53.41558400541544" lon="-9.796677986159921">
        <ele>7.83</ele>
        <time>2026-07-02T13:26:35Z</time>
      </trkpt>
      <trkpt lat="53.415680984035134" lon="-9.796736994758248">
        <ele>6.87</ele>
        <time>2026-07-02T13:26:36Z</time>
      </trkpt>
      <trkpt lat="53.415788020938635" lon="-9.796750992536545">
        <ele>6.39</ele>
        <time>2026-07-02T13:26:37Z</time>
      </trkpt>
      <trkpt lat="53.415904026478529" lon="-9.796765996143222">
        <ele>5.91</ele>
        <time>2026-07-02T13:26:38Z</time>
      </trkpt>
      <trkpt lat="53.416246008127928" lon="-9.796849982813001">
        <ele>4.46</ele>
        <time>2026-07-02T13:26:41Z</time>
      </trkpt>
      <trkpt lat="53.416327983140945" lon="-9.796935981139541">
        <ele>3.98</ele>
        <time>2026-07-02T13:26:42Z</time>
      </trkpt>
      <trkpt lat="53.416396966204047" lon="-9.797059027478099">
        <ele>3.5</ele>
        <time>2026-07-02T13:26:43Z</time>
      </trkpt>
      <trkpt lat="53.416467038914561" lon="-9.797184001654387">
        <ele>3.5</ele>
        <time>2026-07-02T13:26:44Z</time>
      </trkpt>
      <trkpt lat="53.416538033634424" lon="-9.797310987487435">
        <ele>3.02</ele>
        <time>2026-07-02T13:26:45Z</time>
      </trkpt>
      <trkpt lat="53.416609028354287" lon="-9.797432022169232">
        <ele>3.02</ele>
        <time>2026-07-02T13:26:46Z</time>
      </trkpt>
      <trkpt lat="53.416698966175318" lon="-9.797526989132166">
        <ele>2.54</ele>
        <time>2026-07-02T13:26:47Z</time>
      </trkpt>
      <trkpt lat="53.416793011128902" lon="-9.797625979408622">
        <ele>2.06</ele>
        <time>2026-07-02T13:26:48Z</time>
      </trkpt>
      <trkpt lat="53.416893007233739" lon="-9.797732010483742">
        <ele>1.58</ele>
        <time>2026-07-02T13:26:49Z</time>
      </trkpt>
      <trkpt lat="53.416990991681814" lon="-9.797863019630313">
        <ele>1.58</ele>
        <time>2026-07-02T13:26:50Z</time>
      </trkpt>
      <trkpt lat="53.417075984179974" lon="-9.798041973263025">
        <ele>1.58</ele>
        <time>2026-07-02T13:26:51Z</time>
      </trkpt>
      <trkpt lat="53.417485021054745" lon="-9.799021985381842">
        <ele>2.54</ele>
        <time>2026-07-02T13:26:56Z</time>
      </trkpt>
      <trkpt lat="53.417536988854408" lon="-9.799203034490347">
        <ele>3.02</ele>
        <time>2026-07-02T13:26:57Z</time>
      </trkpt>
      <trkpt lat="53.417588034644723" lon="-9.799379976466298">
        <ele>3.02</ele>
        <time>2026-07-02T13:26:58Z</time>
      </trkpt>
      <trkpt lat="53.417640002444386" lon="-9.799561025574803">
        <ele>3.98</ele>
        <time>2026-07-02T13:26:59Z</time>
      </trkpt>
      <trkpt lat="53.417703034356236" lon="-9.79972799308598">
        <ele>3.98</ele>
        <time>2026-07-02T13:27:00Z</time>
      </trkpt>
      <trkpt lat="53.417788026854396" lon="-9.799878029152751">
        <ele>4.46</ele>
        <time>2026-07-02T13:27:01Z</time>
      </trkpt>
      <trkpt lat="53.418292030692101" lon="-9.800878996029496">
        <ele>6.87</ele>
        <time>2026-07-02T13:27:07Z</time>
      </trkpt>
      <trkpt lat="53.418557988479733" lon="-9.801887003704906">
        <ele>6.39</ele>
        <time>2026-07-02T13:27:12Z</time>
      </trkpt>
      <trkpt lat="53.418595958501101" lon="-9.802143992856145">
        <ele>6.39</ele>
        <time>2026-07-02T13:27:13Z</time>
      </trkpt>
      <trkpt lat="53.418608028441668" lon="-9.802363011986017">
        <ele>5.91</ele>
        <time>2026-07-02T13:27:14Z</time>
      </trkpt>
      <trkpt lat="53.41867902316153" lon="-9.803875023499131">
        <ele>4.94</ele>
        <time>2026-07-02T13:27:20Z</time>
      </trkpt>
      <trkpt lat="53.418666031211615" lon="-9.804098987951875">
        <ele>4.94</ele>
        <time>2026-07-02T13:27:21Z</time>
      </trkpt>
      <trkpt lat="53.418653961271048" lon="-9.804317001253367">
        <ele>4.94</ele>
        <time>2026-07-02T13:27:22Z</time>
      </trkpt>
      <trkpt lat="53.418641975149512" lon="-9.804529985412955">
        <ele>4.46</ele>
        <time>2026-07-02T13:27:23Z</time>
      </trkpt>
      <trkpt lat="53.418628983199596" lon="-9.80475302785635">
        <ele>4.46</ele>
        <time>2026-07-02T13:27:24Z</time>
      </trkpt>
      <trkpt lat="53.418621020391583" lon="-9.804987972602248">
        <ele>3.98</ele>
        <time>2026-07-02T13:27:25Z</time>
      </trkpt>
      <trkpt lat="53.418767033144832" lon="-9.806466037407517">
        <ele>5.42</ele>
        <time>2026-07-02T13:27:32Z</time>
      </trkpt>
      <trkpt lat="53.418787987902761" lon="-9.806670974940062">
        <ele>5.91</ele>
        <time>2026-07-02T13:27:33Z</time>
      </trkpt>
      <trkpt lat="53.418810032308102" lon="-9.806893011555076">
        <ele>6.39</ele>
        <time>2026-07-02T13:27:34Z</time>
      </trkpt>
      <trkpt lat="53.418796034529805" lon="-9.807126028463244">
        <ele>7.35</ele>
        <time>2026-07-02T13:27:35Z</time>
      </trkpt>
      <trkpt lat="53.418780025094748" lon="-9.807369019836187">
        <ele>7.83</ele>
        <time>2026-07-02T13:27:36Z</time>
      </trkpt>
      <trkpt lat="53.418769966810942" lon="-9.808086007833481">
        <ele>8.310000000000001</ele>
        <time>2026-07-02T13:27:39Z</time>
      </trkpt>
      <trkpt lat="53.418789999559522" lon="-9.808259010314941">
        <ele>8.310000000000001</ele>
        <time>2026-07-02T13:27:40Z</time>
      </trkpt>
      <trkpt lat="53.418857976794243" lon="-9.808504013344646">
        <ele>7.83</ele>
        <time>2026-07-02T13:27:41Z</time>
      </trkpt>
      <trkpt lat="53.419175986200571" lon="-9.80958997271955">
        <ele>5.91</ele>
        <time>2026-07-02T13:27:46Z</time>
      </trkpt>
      <trkpt lat="53.419203981757164" lon="-9.80980102904141">
        <ele>5.91</ele>
        <time>2026-07-02T13:27:47Z</time>
      </trkpt>
      <trkpt lat="53.419203981757164" lon="-9.810020970180631">
        <ele>5.42</ele>
        <time>2026-07-02T13:27:48Z</time>
      </trkpt>
      <trkpt lat="53.419176992028952" lon="-9.810224985703826">
        <ele>5.42</ele>
        <time>2026-07-02T13:27:49Z</time>
      </trkpt>
      <trkpt lat="53.419122006744146" lon="-9.810407962650061">
        <ele>5.42</ele>
        <time>2026-07-02T13:27:50Z</time>
      </trkpt>
      <trkpt lat="53.419051012024283" lon="-9.810563027858734">
        <ele>4.94</ele>
        <time>2026-07-02T13:27:51Z</time>
      </trkpt>
      <trkpt lat="53.418949004262686" lon="-9.810699988156557">
        <ele>4.94</ele>
        <time>2026-07-02T13:27:52Z</time>
      </trkpt>
      <trkpt lat="53.418841967359185" lon="-9.810842983424664">
        <ele>4.94</ele>
        <time>2026-07-02T13:27:53Z</time>
      </trkpt>
      <trkpt lat="53.418739037588239" lon="-9.810980027541518">
        <ele>4.94</ele>
        <time>2026-07-02T13:27:54Z</time>
      </trkpt>
      <trkpt lat="53.418500991538167" lon="-9.811432985588908">
        <ele>4.94</ele>
        <time>2026-07-02T13:27:57Z</time>
      </trkpt>
      <trkpt lat="53.418438965454698" lon="-9.811589978635311">
        <ele>4.94</ele>
        <time>2026-07-02T13:27:58Z</time>
      </trkpt>
      <trkpt lat="53.418412981554866" lon="-9.811773961409926">
        <ele>4.46</ele>
        <time>2026-07-02T13:27:59Z</time>
      </trkpt>
      <trkpt lat="53.41839998960495" lon="-9.811979988589883">
        <ele>3.5</ele>
        <time>2026-07-02T13:28:00Z</time>
      </trkpt>
      <trkpt lat="53.418394038453698" lon="-9.81220998801291">
        <ele>3.02</ele>
        <time>2026-07-02T13:28:01Z</time>
      </trkpt>
      <trkpt lat="53.418388003483415" lon="-9.812462031841278">
        <ele>2.54</ele>
        <time>2026-07-02T13:28:02Z</time>
      </trkpt>
      <trkpt lat="53.418378029018641" lon="-9.812723966315389">
        <ele>2.54</ele>
        <time>2026-07-02T13:28:03Z</time>
      </trkpt>
      <trkpt lat="53.418328994885087" lon="-9.812987996265292">
        <ele>3.02</ele>
        <time>2026-07-02T13:28:04Z</time>
      </trkpt>
      <trkpt lat="53.417985001578927" lon="-9.81497903354466">
        <ele>5.42</ele>
        <time>2026-07-02T13:28:12Z</time>
      </trkpt>
      <trkpt lat="53.417975027114153" lon="-9.815159998834133">
        <ele>5.42</ele>
        <time>2026-07-02T13:28:13Z</time>
      </trkpt>
      <trkpt lat="53.418011991307139" lon="-9.815327972173691">
        <ele>5.42</ele>
        <time>2026-07-02T13:28:14Z</time>
      </trkpt>
      <trkpt lat="53.418060019612312" lon="-9.815532993525267">
        <ele>5.91</ele>
        <time>2026-07-02T13:28:15Z</time>
      </trkpt>
      <trkpt lat="53.41811902821064" lon="-9.815687974914908">
        <ele>5.91</ele>
        <time>2026-07-02T13:28:16Z</time>
      </trkpt>
      <trkpt lat="53.418192034587264" lon="-9.815876986831427">
        <ele>5.42</ele>
        <time>2026-07-02T13:28:17Z</time>
      </trkpt>
      <trkpt lat="53.418271997943521" lon="-9.816084019839764">
        <ele>4.94</ele>
        <time>2026-07-02T13:28:18Z</time>
      </trkpt>
      <trkpt lat="53.418417004868388" lon="-9.816522980108857">
        <ele>3.98</ele>
        <time>2026-07-02T13:28:20Z</time>
      </trkpt>
      <trkpt lat="53.418469978496432" lon="-9.816750967875123">
        <ele>3.5</ele>
        <time>2026-07-02T13:28:21Z</time>
      </trkpt>
      <trkpt lat="53.418677011504769" lon="-9.817612040787935">
        <ele>3.5</ele>
        <time>2026-07-02T13:28:25Z</time>
      </trkpt>
      <trkpt lat="53.418753035366535" lon="-9.817794011905789">
        <ele>3.5</ele>
        <time>2026-07-02T13:28:26Z</time>
      </trkpt>
      <trkpt lat="53.41882998123765" lon="-9.817980006337166">
        <ele>3.5</ele>
        <time>2026-07-02T13:28:27Z</time>
      </trkpt>
      <trkpt lat="53.418903993442655" lon="-9.818159965798259">
        <ele>3.5</ele>
        <time>2026-07-02T13:28:28Z</time>
      </trkpt>
      <trkpt lat="53.418954033404589" lon="-9.818348977714777">
        <ele>3.5</ele>
        <time>2026-07-02T13:28:29Z</time>
      </trkpt>
      <trkpt lat="53.41898001730442" lon="-9.818535977974534">
        <ele>3.5</ele>
        <time>2026-07-02T13:28:30Z</time>
      </trkpt>
      <trkpt lat="53.418971970677376" lon="-9.818729013204575">
        <ele>3.5</ele>
        <time>2026-07-02T13:28:31Z</time>
      </trkpt>
      <trkpt lat="53.418960990384221" lon="-9.818988014012575">
        <ele>3.98</ele>
        <time>2026-07-02T13:28:32Z</time>
      </trkpt>
      <trkpt lat="53.418923020362854" lon="-9.819122040644288">
        <ele>3.98</ele>
        <time>2026-07-02T13:28:33Z</time>
      </trkpt>
      <trkpt lat="53.418869962915778" lon="-9.819310968741775">
        <ele>4.46</ele>
        <time>2026-07-02T13:28:34Z</time>
      </trkpt>
      <trkpt lat="53.418815983459353" lon="-9.819504003971815">
        <ele>4.46</ele>
        <time>2026-07-02T13:28:35Z</time>
      </trkpt>
      <trkpt lat="53.418719004839659" lon="-9.819868030026555">
        <ele>4.94</ele>
        <time>2026-07-02T13:28:37Z</time>
      </trkpt>
      <trkpt lat="53.418692015111446" lon="-9.820055030286312">
        <ele>4.94</ele>
        <time>2026-07-02T13:28:38Z</time>
      </trkpt>
      <trkpt lat="53.418690003454685" lon="-9.820244964212179">
        <ele>5.42</ele>
        <time>2026-07-02T13:28:39Z</time>
      </trkpt>
      <trkpt lat="53.418704001232982" lon="-9.820459960028529">
        <ele>5.91</ele>
        <time>2026-07-02T13:28:40Z</time>
      </trkpt>
      <trkpt lat="53.418717999011278" lon="-9.820689037442207">
        <ele>5.91</ele>
        <time>2026-07-02T13:28:41Z</time>
      </trkpt>
      <trkpt lat="53.418734008446336" lon="-9.82093496248126">
        <ele>6.39</ele>
        <time>2026-07-02T13:28:42Z</time>
      </trkpt>
      <trkpt lat="53.418751023709774" lon="-9.821192035451531">
        <ele>6.87</ele>
        <time>2026-07-02T13:28:43Z</time>
      </trkpt>
      <trkpt lat="53.418782958760858" lon="-9.821694027632475">
        <ele>7.83</ele>
        <time>2026-07-02T13:28:45Z</time>
      </trkpt>
      <trkpt lat="53.41882998123765" lon="-9.82189703732729">
        <ele>8.310000000000001</ele>
        <time>2026-07-02T13:28:46Z</time>
      </trkpt>
      <trkpt lat="53.418897958472371" lon="-9.822061993181706">
        <ele>8.789999999999999</ele>
        <time>2026-07-02T13:28:47Z</time>
      </trkpt>
      <trkpt lat="53.418969959020615" lon="-9.822190990671516">
        <ele>8.789999999999999</ele>
        <time>2026-07-02T13:28:48Z</time>
      </trkpt>
      <trkpt lat="53.419079007580876" lon="-9.822288975119591">
        <ele>9.27</ele>
        <time>2026-07-02T13:28:49Z</time>
      </trkpt>
      <trkpt lat="53.420215006917715" lon="-9.823140995576978">
        <ele>8.310000000000001</ele>
        <time>2026-07-02T13:28:57Z</time>
      </trkpt>
      <trkpt lat="53.42108303681016" lon="-9.824112961068749">
        <ele>7.35</ele>
        <time>2026-07-02T13:29:04Z</time>
      </trkpt>
      <trkpt lat="53.422022983431816" lon="-9.82591800391674">
        <ele>8.310000000000001</ele>
        <time>2026-07-02T13:29:14Z</time>
      </trkpt>
      <trkpt lat="53.4224399831146" lon="-9.826790979132056">
        <ele>8.310000000000001</ele>
        <time>2026-07-02T13:29:19Z</time>
      </trkpt>
      <trkpt lat="53.42252497561276" lon="-9.82692701742053">
        <ele>8.310000000000001</ele>
        <time>2026-07-02T13:29:20Z</time>
      </trkpt>
      <trkpt lat="53.422623965889215" lon="-9.827015027403832">
        <ele>7.83</ele>
        <time>2026-07-02T13:29:21Z</time>
      </trkpt>
      <trkpt lat="53.422728991135955" lon="-9.827057020738721">
        <ele>7.35</ele>
        <time>2026-07-02T13:29:22Z</time>
      </trkpt>
      <trkpt lat="53.422834016382694" lon="-9.827058026567102">
        <ele>6.87</ele>
        <time>2026-07-02T13:29:23Z</time>
      </trkpt>
      <trkpt lat="53.422944992780685" lon="-9.827016033232212">
        <ele>6.39</ele>
        <time>2026-07-02T13:29:24Z</time>
      </trkpt>
      <trkpt lat="53.42306200414896" lon="-9.826972028240562">
        <ele>5.91</ele>
        <time>2026-07-02T13:29:25Z</time>
      </trkpt>
      <trkpt lat="53.423423012718558" lon="-9.826747979968786">
        <ele>4.46</ele>
        <time>2026-07-02T13:29:28Z</time>
      </trkpt>
      <trkpt lat="53.424449041485786" lon="-9.826058987528086">
        <ele>3.02</ele>
        <time>2026-07-02T13:29:36Z</time>
      </trkpt>
      <trkpt lat="53.4245640411973" lon="-9.82598296366632">
        <ele>3.02</ele>
        <time>2026-07-02T13:29:37Z</time>
      </trkpt>
      <trkpt lat="53.42469597235322" lon="-9.82598296366632">
        <ele>3.02</ele>
        <time>2026-07-02T13:29:38Z</time>
      </trkpt>
      <trkpt lat="53.424832010641694" lon="-9.825990004464984">
        <ele>3.5</ele>
        <time>2026-07-02T13:29:39Z</time>
      </trkpt>
      <trkpt lat="53.424965031445026" lon="-9.826065022498369">
        <ele>3.5</ele>
        <time>2026-07-02T13:29:40Z</time>
      </trkpt>
      <trkpt lat="53.425101991742849" lon="-9.826141968369484">
        <ele>3.5</ele>
        <time>2026-07-02T13:29:41Z</time>
      </trkpt>
      <trkpt lat="53.425236018374562" lon="-9.826244981959462">
        <ele>3.5</ele>
        <time>2026-07-02T13:29:42Z</time>
      </trkpt>
      <trkpt lat="53.425368033349514" lon="-9.826369034126401">
        <ele>3.5</ele>
        <time>2026-07-02T13:29:43Z</time>
      </trkpt>
      <trkpt lat="53.425500970333815" lon="-9.826495014131069">
        <ele>3.5</ele>
        <time>2026-07-02T13:29:44Z</time>
      </trkpt>
      <trkpt lat="53.425609013065696" lon="-9.826667010784149">
        <ele>3.5</ele>
        <time>2026-07-02T13:29:45Z</time>
      </trkpt>
      <trkpt lat="53.425706997513771" lon="-9.826843030750752">
        <ele>3.98</ele>
        <time>2026-07-02T13:29:46Z</time>
      </trkpt>
      <trkpt lat="53.425801964476705" lon="-9.827015027403832">
        <ele>3.98</ele>
        <time>2026-07-02T13:29:47Z</time>
      </trkpt>
      <trkpt lat="53.425879999995232" lon="-9.82722700573504">
        <ele>3.98</ele>
        <time>2026-07-02T13:29:48Z</time>
      </trkpt>
      <trkpt lat="53.425935991108418" lon="-9.827455999329686">
        <ele>3.98</ele>
        <time>2026-07-02T13:29:49Z</time>
      </trkpt>
      <trkpt lat="53.426072029396892" lon="-9.828201988711953">
        <ele>3.5</ele>
        <time>2026-07-02T13:29:52Z</time>
      </trkpt>
      <trkpt lat="53.426106981933117" lon="-9.828470963984728">
        <ele>3.5</ele>
        <time>2026-07-02T13:29:53Z</time>
      </trkpt>
      <trkpt lat="53.426402024924755" lon="-9.831400020048022">
        <ele>3.98</ele>
        <time>2026-07-02T13:30:03Z</time>
      </trkpt>
      <trkpt lat="53.426717016845942" lon="-9.83416898176074">
        <ele>5.91</ele>
        <time>2026-07-02T13:30:13Z</time>
      </trkpt>
      <trkpt lat="53.426759010180831" lon="-9.834420019760728">
        <ele>5.91</ele>
        <time>2026-07-02T13:30:14Z</time>
      </trkpt>
      <trkpt lat="53.426831010729074" lon="-9.834636021405459">
        <ele>5.42</ele>
        <time>2026-07-02T13:30:15Z</time>
      </trkpt>
      <trkpt lat="53.426914997398853" lon="-9.834842970594764">
        <ele>5.42</ele>
        <time>2026-07-02T13:30:16Z</time>
      </trkpt>
      <trkpt lat="53.427022034302354" lon="-9.835031982511282">
        <ele>5.42</ele>
        <time>2026-07-02T13:30:17Z</time>
      </trkpt>
      <trkpt lat="53.427146002650261" lon="-9.835208002477884">
        <ele>5.42</ele>
        <time>2026-07-02T13:30:18Z</time>
      </trkpt>
      <trkpt lat="53.427280029281974" lon="-9.835386034101248">
        <ele>5.42</ele>
        <time>2026-07-02T13:30:19Z</time>
      </trkpt>
      <trkpt lat="53.427758971229196" lon="-9.836024986580014">
        <ele>3.5</ele>
        <time>2026-07-02T13:30:23Z</time>
      </trkpt>
      <trkpt lat="53.427897021174431" lon="-9.836109979078174">
        <ele>3.5</ele>
        <time>2026-07-02T13:30:24Z</time>
      </trkpt>
      <trkpt lat="53.428015960380435" lon="-9.836182985454798">
        <ele>3.5</ele>
        <time>2026-07-02T13:30:25Z</time>
      </trkpt>
      <trkpt lat="53.428136995062232" lon="-9.836256997659802">
        <ele>3.02</ele>
        <time>2026-07-02T13:30:26Z</time>
      </trkpt>
      <trkpt lat="53.428265992552042" lon="-9.83633503317833">
        <ele>2.54</ele>
        <time>2026-07-02T13:30:27Z</time>
      </trkpt>
      <trkpt lat="53.428393984213471" lon="-9.836413990706205">
        <ele>2.54</ele>
        <time>2026-07-02T13:30:28Z</time>
      </trkpt>
      <trkpt lat="53.430071035400033" lon="-9.837446976453066">
        <ele>0.14</ele>
        <time>2026-07-02T13:30:41Z</time>
      </trkpt>
      <trkpt lat="53.430183017626405" lon="-9.837554013356566">
        <ele>-0.34</ele>
        <time>2026-07-02T13:30:42Z</time>
      </trkpt>
      <trkpt lat="53.430290976539254" lon="-9.83766901306808">
        <ele>-0.82</ele>
        <time>2026-07-02T13:30:43Z</time>
      </trkpt>
      <trkpt lat="53.430391978472471" lon="-9.837776971980929">
        <ele>-0.82</ele>
        <time>2026-07-02T13:30:44Z</time>
      </trkpt>
      <trkpt lat="53.430468002334237" lon="-9.837928013876081">
        <ele>-1.3</ele>
        <time>2026-07-02T13:30:45Z</time>
      </trkpt>
      <trkpt lat="53.430524999275804" lon="-9.838113002479076">
        <ele>-0.82</ele>
        <time>2026-07-02T13:30:46Z</time>
      </trkpt>
      <trkpt lat="53.430569004267454" lon="-9.838322969153523">
        <ele>-0.82</ele>
        <time>2026-07-02T13:30:47Z</time>
      </trkpt>
      <trkpt lat="53.430580990388989" lon="-9.838552968576551">
        <ele>-0.82</ele>
        <time>2026-07-02T13:30:48Z</time>
      </trkpt>
      <trkpt lat="53.430560035631061" lon="-9.838791014626622">
        <ele>-0.82</ele>
        <time>2026-07-02T13:30:49Z</time>
      </trkpt>
      <trkpt lat="53.4305389970541" lon="-9.839040962979198">
        <ele>-0.34</ele>
        <time>2026-07-02T13:30:50Z</time>
      </trkpt>
      <trkpt lat="53.430517036467791" lon="-9.83930398710072">
        <ele>-0.82</ele>
        <time>2026-07-02T13:30:51Z</time>
      </trkpt>
      <trkpt lat="53.430197015404701" lon="-9.840834019705653">
        <ele>1.1</ele>
        <time>2026-07-02T13:30:57Z</time>
      </trkpt>
      <trkpt lat="53.430115040391684" lon="-9.841032000258565">
        <ele>2.06</ele>
        <time>2026-07-02T13:30:58Z</time>
      </trkpt>
      <trkpt lat="53.42978797852993" lon="-9.841835992410779">
        <ele>3.02</ele>
        <time>2026-07-02T13:31:02Z</time>
      </trkpt>
      <trkpt lat="53.429738022387028" lon="-9.842054005712271">
        <ele>2.54</ele>
        <time>2026-07-02T13:31:03Z</time>
      </trkpt>
      <trkpt lat="53.429728969931602" lon="-9.842294985428453">
        <ele>2.54</ele>
        <time>2026-07-02T13:31:04Z</time>
      </trkpt>
      <trkpt lat="53.429723018780351" lon="-9.842540994286537">
        <ele>2.06</ele>
        <time>2026-07-02T13:31:05Z</time>
      </trkpt>
      <trkpt lat="53.429717989638448" lon="-9.842793038114905">
        <ele>1.58</ele>
        <time>2026-07-02T13:31:06Z</time>
      </trkpt>
      <trkpt lat="53.429861990734935" lon="-9.844649964943528">
        <ele>3.02</ele>
        <time>2026-07-02T13:31:14Z</time>
      </trkpt>
      <trkpt lat="53.430105987936258" lon="-9.845592007040978">
        <ele>3.5</ele>
        <time>2026-07-02T13:31:20Z</time>
      </trkpt>
      <trkpt lat="53.430394995957613" lon="-9.846385018900037">
        <ele>3.02</ele>
        <time>2026-07-02T13:31:25Z</time>
      </trkpt>
      <trkpt lat="53.430435983464122" lon="-9.846529019996524">
        <ele>2.54</ele>
        <time>2026-07-02T13:31:26Z</time>
      </trkpt>
      <trkpt lat="53.430468002334237" lon="-9.846676038578153">
        <ele>2.54</ele>
        <time>2026-07-02T13:31:27Z</time>
      </trkpt>
      <trkpt lat="53.430621977895498" lon="-9.8473159968853">
        <ele>1.58</ele>
        <time>2026-07-02T13:31:32Z</time>
      </trkpt>
      <trkpt lat="53.430679980665445" lon="-9.847441976889968">
        <ele>1.58</ele>
        <time>2026-07-02T13:31:33Z</time>
      </trkpt>
      <trkpt lat="53.430896988138556" lon="-9.847916979342699">
        <ele>0.62</ele>
        <time>2026-07-02T13:31:37Z</time>
      </trkpt>
      <trkpt lat="53.430938981473446" lon="-9.848032984882593">
        <ele>1.1</ele>
        <time>2026-07-02T13:31:38Z</time>
      </trkpt>
      <trkpt lat="53.430958008393645" lon="-9.848173968493938">
        <ele>1.1</ele>
        <time>2026-07-02T13:31:39Z</time>
      </trkpt>
      <trkpt lat="53.430977035313845" lon="-9.848318975418806">
        <ele>1.58</ele>
        <time>2026-07-02T13:31:40Z</time>
      </trkpt>
      <trkpt lat="53.430994972586632" lon="-9.848459959030151">
        <ele>1.58</ele>
        <time>2026-07-02T13:31:41Z</time>
      </trkpt>
      <trkpt lat="53.43101198785007" lon="-9.848588034510613">
        <ele>2.06</ele>
        <time>2026-07-02T13:31:42Z</time>
      </trkpt>
      <trkpt lat="53.431029003113508" lon="-9.8487130086869">
        <ele>2.06</ele>
        <time>2026-07-02T13:31:43Z</time>
      </trkpt>
      <trkpt lat="53.43105498701334" lon="-9.848843012005091">
        <ele>2.06</ele>
        <time>2026-07-02T13:31:44Z</time>
      </trkpt>
      <trkpt lat="53.431104021146894" lon="-9.848951976746321">
        <ele>2.06</ele>
        <time>2026-07-02T13:31:45Z</time>
      </trkpt>
      <trkpt lat="53.431153977289796" lon="-9.849062031134963">
        <ele>1.58</ele>
        <time>2026-07-02T13:31:46Z</time>
      </trkpt>
      <trkpt lat="53.43120401725173" lon="-9.849173007532954">
        <ele>1.58</ele>
        <time>2026-07-02T13:31:47Z</time>
      </trkpt>
      <trkpt lat="53.431300995871425" lon="-9.849388003349304">
        <ele>1.58</ele>
        <time>2026-07-02T13:31:49Z</time>
      </trkpt>
      <trkpt lat="53.431347012519836" lon="-9.849509038031101">
        <ele>1.58</ele>
        <time>2026-07-02T13:31:50Z</time>
      </trkpt>
      <trkpt lat="53.431369978934526" lon="-9.849639963358641">
        <ele>1.58</ele>
        <time>2026-07-02T13:31:51Z</time>
      </trkpt>
      <trkpt lat="53.431393029168248" lon="-9.849770972505212">
        <ele>1.58</ele>
        <time>2026-07-02T13:31:52Z</time>
      </trkpt>
      <trkpt lat="53.431417001411319" lon="-9.849903993308544">
        <ele>1.58</ele>
        <time>2026-07-02T13:31:53Z</time>
      </trkpt>
      <trkpt lat="53.431440973654389" lon="-9.85004598274827">
        <ele>1.58</ele>
        <time>2026-07-02T13:31:54Z</time>
      </trkpt>
      <trkpt lat="53.431566031649709" lon="-9.850594997406006">
        <ele>2.06</ele>
        <time>2026-07-02T13:31:58Z</time>
      </trkpt>
      <trkpt lat="53.431609030812979" lon="-9.850674960762262">
        <ele>2.06</ele>
        <time>2026-07-02T13:31:59Z</time>
      </trkpt>
      <trkpt lat="53.431666027754545" lon="-9.850744027644396">
        <ele>2.54</ele>
        <time>2026-07-02T13:32:00Z</time>
      </trkpt>
      <trkpt lat="53.431731993332505" lon="-9.850821979343891">
        <ele>2.54</ele>
        <time>2026-07-02T13:32:01Z</time>
      </trkpt>
      <trkpt lat="53.431809023022652" lon="-9.850899009034038">
        <ele>2.54</ele>
        <time>2026-07-02T13:32:02Z</time>
      </trkpt>
      <trkpt lat="53.431903989985585" lon="-9.850918035954237">
        <ele>3.02</ele>
        <time>2026-07-02T13:32:03Z</time>
      </trkpt>
      <trkpt lat="53.43199803493917" lon="-9.850935973227024">
        <ele>3.02</ele>
        <time>2026-07-02T13:32:04Z</time>
      </trkpt>
      <trkpt lat="53.432080009952188" lon="-9.850952988490462">
        <ele>3.5</ele>
        <time>2026-07-02T13:32:05Z</time>
      </trkpt>
      <trkpt lat="53.43221596442163" lon="-9.850979978218675">
        <ele>4.46</ele>
        <time>2026-07-02T13:32:07Z</time>
      </trkpt>
      <trkpt lat="53.432264998555183" lon="-9.850944019854069">
        <ele>4.94</ele>
        <time>2026-07-02T13:32:08Z</time>
      </trkpt>
      <trkpt lat="53.432329958304763" lon="-9.850886017084122">
        <ele>5.42</ele>
        <time>2026-07-02T13:32:09Z</time>
      </trkpt>
      <trkpt lat="53.432395001873374" lon="-9.850828014314175">
        <ele>5.91</ele>
        <time>2026-07-02T13:32:10Z</time>
      </trkpt>
      <trkpt lat="53.432459961622953" lon="-9.850770011544228">
        <ele>5.91</ele>
        <time>2026-07-02T13:32:11Z</time>
      </trkpt>
      <trkpt lat="53.432522993534803" lon="-9.850714020431042">
        <ele>6.39</ele>
        <time>2026-07-02T13:32:12Z</time>
      </trkpt>
      <trkpt lat="53.43258099630475" lon="-9.850662974640727">
        <ele>6.39</ele>
        <time>2026-07-02T13:32:13Z</time>
      </trkpt>
      <trkpt lat="53.432633969932795" lon="-9.850634979084134">
        <ele>6.87</ele>
        <time>2026-07-02T13:32:14Z</time>
      </trkpt>
      <trkpt lat="53.432690966874361" lon="-9.850626010447741">
        <ele>6.87</ele>
        <time>2026-07-02T13:32:15Z</time>
      </trkpt>
      <trkpt lat="53.432755004614592" lon="-9.850617041811347">
        <ele>6.87</ele>
        <time>2026-07-02T13:32:16Z</time>
      </trkpt>
      <trkpt lat="53.432800015434623" lon="-9.850669009611011">
        <ele>7.35</ele>
        <time>2026-07-02T13:32:17Z</time>
      </trkpt>
      <trkpt lat="53.43285902403295" lon="-9.850742015987635">
        <ele>7.35</ele>
        <time>2026-07-02T13:32:18Z</time>
      </trkpt>
      <trkpt lat="53.432922977954149" lon="-9.850820973515511">
        <ele>7.35</ele>
        <time>2026-07-02T13:32:19Z</time>
      </trkpt>
      <trkpt lat="53.432994978502393" lon="-9.850909989327192">
        <ele>7.35</ele>
        <time>2026-07-02T13:32:20Z</time>
      </trkpt>
      <trkpt lat="53.433068990707397" lon="-9.851002022624016">
        <ele>7.83</ele>
        <time>2026-07-02T13:32:21Z</time>
      </trkpt>
      <trkpt lat="53.433136967942119" lon="-9.851087015122175">
        <ele>7.83</ele>
        <time>2026-07-02T13:32:22Z</time>
      </trkpt>
      <trkpt lat="53.433261020109057" lon="-9.851239984855056">
        <ele>7.83</ele>
        <time>2026-07-02T13:32:24Z</time>
      </trkpt>
      <trkpt lat="53.433474004268646" lon="-9.851459003984928">
        <ele>7.35</ele>
        <time>2026-07-02T13:32:27Z</time>
      </trkpt>
      <trkpt lat="53.4339530300349" lon="-9.851818000897765">
        <ele>5.42</ele>
        <time>2026-07-02T13:32:33Z</time>
      </trkpt>
      <trkpt lat="53.434016983956099" lon="-9.851896036416292">
        <ele>4.94</ele>
        <time>2026-07-02T13:32:34Z</time>
      </trkpt>
      <trkpt lat="53.434070963412523" lon="-9.851983040571213">
        <ele>4.46</ele>
        <time>2026-07-02T13:32:35Z</time>
      </trkpt>
      <trkpt lat="53.434109017252922" lon="-9.852090999484062">
        <ele>3.5</ele>
        <time>2026-07-02T13:32:36Z</time>
      </trkpt>
      <trkpt lat="53.434137012809515" lon="-9.852204993367195">
        <ele>3.02</ele>
        <time>2026-07-02T13:32:37Z</time>
      </trkpt>
      <trkpt lat="53.434153022244573" lon="-9.852331979200244">
        <ele>2.54</ele>
        <time>2026-07-02T13:32:38Z</time>
      </trkpt>
      <trkpt lat="53.434153022244573" lon="-9.85247497446835">
        <ele>2.06</ele>
        <time>2026-07-02T13:32:39Z</time>
      </trkpt>
      <trkpt lat="53.434153022244573" lon="-9.852627022191882">
        <ele>2.06</ele>
        <time>2026-07-02T13:32:40Z</time>
      </trkpt>
      <trkpt lat="53.434153022244573" lon="-9.852786026895046">
        <ele>1.58</ele>
        <time>2026-07-02T13:32:41Z</time>
      </trkpt>
      <trkpt lat="53.434023018926382" lon="-9.854077007621527">
        <ele>0.62</ele>
        <time>2026-07-02T13:32:49Z</time>
      </trkpt>
      <trkpt lat="53.434002986177802" lon="-9.854264007881284">
        <ele>0.62</ele>
        <time>2026-07-02T13:32:50Z</time>
      </trkpt>
      <trkpt lat="53.434001980349422" lon="-9.854391999542713">
        <ele>1.1</ele>
        <time>2026-07-02T13:32:51Z</time>
      </trkpt>
      <trkpt lat="53.433995023369789" lon="-9.854931961745024">
        <ele>2.06</ele>
        <time>2026-07-02T13:32:54Z</time>
      </trkpt>
      <trkpt lat="53.43406199477613" lon="-9.857077980414033">
        <ele>2.54</ele>
        <time>2026-07-02T13:33:03Z</time>
      </trkpt>
      <trkpt lat="53.43414899893105" lon="-9.858113983646035">
        <ele>3.5</ele>
        <time>2026-07-02T13:33:07Z</time>
      </trkpt>
      <trkpt lat="53.434140030294657" lon="-9.858376001939178">
        <ele>3.98</ele>
        <time>2026-07-02T13:33:08Z</time>
      </trkpt>
      <trkpt lat="53.43412502668798" lon="-9.858613964170218">
        <ele>3.98</ele>
        <time>2026-07-02T13:33:09Z</time>
      </trkpt>
      <trkpt lat="53.434111028909683" lon="-9.858849998563528">
        <ele>3.98</ele>
        <time>2026-07-02T13:33:10Z</time>
      </trkpt>
      <trkpt lat="53.43406199477613" lon="-9.859074968844652">
        <ele>3.5</ele>
        <time>2026-07-02T13:33:11Z</time>
      </trkpt>
      <trkpt lat="53.434012038633227" lon="-9.859272027388215">
        <ele>3.5</ele>
        <time>2026-07-02T13:33:12Z</time>
      </trkpt>
      <trkpt lat="53.433939032256603" lon="-9.859457015991211">
        <ele>3.02</ele>
        <time>2026-07-02T13:33:13Z</time>
      </trkpt>
      <trkpt lat="53.433844987303019" lon="-9.859572015702725">
        <ele>2.54</ele>
        <time>2026-07-02T13:33:14Z</time>
      </trkpt>
      <trkpt lat="53.433737028390169" lon="-9.859704030677676">
        <ele>2.54</ele>
        <time>2026-07-02T13:33:15Z</time>
      </trkpt>
      <trkpt lat="53.43363200314343" lon="-9.859831016510725">
        <ele>2.54</ele>
        <time>2026-07-02T13:33:16Z</time>
      </trkpt>
      <trkpt lat="53.433542987331748" lon="-9.859966970980167">
        <ele>3.02</ele>
        <time>2026-07-02T13:33:17Z</time>
      </trkpt>
      <trkpt lat="53.433496970683336" lon="-9.860151037573814">
        <ele>3.5</ele>
        <time>2026-07-02T13:33:18Z</time>
      </trkpt>
      <trkpt lat="53.433470986783504" lon="-9.860361004248262">
        <ele>3.98</ele>
        <time>2026-07-02T13:33:19Z</time>
      </trkpt>
      <trkpt lat="53.433448020368814" lon="-9.860588992014527">
        <ele>3.98</ele>
        <time>2026-07-02T13:33:20Z</time>
      </trkpt>
      <trkpt lat="53.433424970135093" lon="-9.860819997265935">
        <ele>3.98</ele>
        <time>2026-07-02T13:33:21Z</time>
      </trkpt>
      <trkpt lat="53.433467969298363" lon="-9.861056031659246">
        <ele>3.5</ele>
        <time>2026-07-02T13:33:22Z</time>
      </trkpt>
      <trkpt lat="53.433514991775155" lon="-9.86130103468895">
        <ele>3.5</ele>
        <time>2026-07-02T13:33:23Z</time>
      </trkpt>
      <trkpt lat="53.433565031737089" lon="-9.861552994698286">
        <ele>3.02</ele>
        <time>2026-07-02T13:33:24Z</time>
      </trkpt>
      <trkpt lat="53.43363200314343" lon="-9.861795986071229">
        <ele>3.02</ele>
        <time>2026-07-02T13:33:25Z</time>
      </trkpt>
      <trkpt lat="53.433726970106363" lon="-9.862020034343004">
        <ele>3.02</ele>
        <time>2026-07-02T13:33:26Z</time>
      </trkpt>
      <trkpt lat="53.433823026716709" lon="-9.862243998795748">
        <ele>3.02</ele>
        <time>2026-07-02T13:33:27Z</time>
      </trkpt>
      <trkpt lat="53.433994017541409" lon="-9.862648006528616">
        <ele>3.02</ele>
        <time>2026-07-02T13:33:29Z</time>
      </trkpt>
      <trkpt lat="53.434059983119369" lon="-9.862845987081528">
        <ele>3.02</ele>
        <time>2026-07-02T13:33:30Z</time>
      </trkpt>
      <trkpt lat="53.434559041634202" lon="-9.864792013540864">
        <ele>0.62</ele>
        <time>2026-07-02T13:33:38Z</time>
      </trkpt>
      <trkpt lat="53.434746963903308" lon="-9.865821981802583">
        <ele>0.62</ele>
        <time>2026-07-02T13:33:42Z</time>
      </trkpt>
      <trkpt lat="53.434803038835526" lon="-9.866049969568849">
        <ele>1.1</ele>
        <time>2026-07-02T13:33:43Z</time>
      </trkpt>
      <trkpt lat="53.43487897887826" lon="-9.866239987313747">
        <ele>0.62</ele>
        <time>2026-07-02T13:33:44Z</time>
      </trkpt>
      <trkpt lat="53.43494301661849" lon="-9.866399997845292">
        <ele>0.62</ele>
        <time>2026-07-02T13:33:45Z</time>
      </trkpt>
      <trkpt lat="53.435023985803127" lon="-9.866455988958478">
        <ele>0.62</ele>
        <time>2026-07-02T13:33:46Z</time>
      </trkpt>
      <trkpt lat="53.435162035748363" lon="-9.866537963971496">
        <ele>0.14</ele>
        <time>2026-07-02T13:33:47Z</time>
      </trkpt>
      <trkpt lat="53.435236969962716" lon="-9.866519020870328">
        <ele>0.14</ele>
        <time>2026-07-02T13:33:48Z</time>
      </trkpt>
      <trkpt lat="53.435366973280907" lon="-9.866487002000213">
        <ele>0.14</ele>
        <time>2026-07-02T13:33:49Z</time>
      </trkpt>
      <trkpt lat="53.435507034882903" lon="-9.866451965644956">
        <ele>0.14</ele>
        <time>2026-07-02T13:33:50Z</time>
      </trkpt>
      <trkpt lat="53.435646006837487" lon="-9.86643897369504">
        <ele>0.14</ele>
        <time>2026-07-02T13:33:51Z</time>
      </trkpt>
      <trkpt lat="53.435781039297581" lon="-9.86648297868669">
        <ele>-0.34</ele>
        <time>2026-07-02T13:33:52Z</time>
      </trkpt>
      <trkpt lat="53.43590903095901" lon="-9.866582974791527">
        <ele>-0.34</ele>
        <time>2026-07-02T13:33:53Z</time>
      </trkpt>
      <trkpt lat="53.436028975993395" lon="-9.866730999201536">
        <ele>-0.82</ele>
        <time>2026-07-02T13:33:54Z</time>
      </trkpt>
      <trkpt lat="53.436147999018431" lon="-9.866892015561461">
        <ele>-0.82</ele>
        <time>2026-07-02T13:33:55Z</time>
      </trkpt>
      <trkpt lat="53.436334999278188" lon="-9.867256041616201">
        <ele>-1.3</ele>
        <time>2026-07-02T13:33:57Z</time>
      </trkpt>
      <trkpt lat="53.436428038403392" lon="-9.867482017725706">
        <ele>-1.3</ele>
        <time>2026-07-02T13:33:58Z</time>
      </trkpt>
      <trkpt lat="53.436471037566662" lon="-9.867692990228534">
        <ele>-1.3</ele>
        <time>2026-07-02T13:33:59Z</time>
      </trkpt>
      <trkpt lat="53.436899017542601" lon="-9.869483029469848">
        <ele>-1.3</ele>
        <time>2026-07-02T13:34:07Z</time>
      </trkpt>
      <trkpt lat="53.437028015032411" lon="-9.869933975860477">
        <ele>-0.82</ele>
        <time>2026-07-02T13:34:13Z</time>
      </trkpt>
      <trkpt lat="53.436985015869141" lon="-9.870157018303871">
        <ele>0.62</ele>
        <time>2026-07-02T13:34:22Z</time>
      </trkpt>
      <trkpt lat="53.436923995614052" lon="-9.870213009417057">
        <ele>0.14</ele>
        <time>2026-07-02T13:34:23Z</time>
      </trkpt>
      <trkpt lat="53.436848977580667" lon="-9.870280986651778">
        <ele>0.14</ele>
        <time>2026-07-02T13:34:24Z</time>
      </trkpt>
      <trkpt lat="53.436054037883878" lon="-9.870996968820691">
        <ele>1.58</ele>
        <time>2026-07-02T13:34:31Z</time>
      </trkpt>
      <trkpt lat="53.435828983783722" lon="-9.871212970465422">
        <ele>2.06</ele>
        <time>2026-07-02T13:34:33Z</time>
      </trkpt>
      <trkpt lat="53.435783972963691" lon="-9.871351020410657">
        <ele>2.06</ele>
        <time>2026-07-02T13:34:34Z</time>
      </trkpt>
      <trkpt lat="53.435753965750337" lon="-9.871512036770582">
        <ele>2.06</ele>
        <time>2026-07-02T13:34:35Z</time>
      </trkpt>
      <trkpt lat="53.435748014599085" lon="-9.871695013716817">
        <ele>2.06</ele>
        <time>2026-07-02T13:34:36Z</time>
      </trkpt>
      <trkpt lat="53.435762012377381" lon="-9.871906992048025">
        <ele>2.06</ele>
        <time>2026-07-02T13:34:37Z</time>
      </trkpt>
      <trkpt lat="53.435964016243815" lon="-9.874019986018539">
        <ele>4.94</ele>
        <time>2026-07-02T13:34:45Z</time>
      </trkpt>
      <trkpt lat="53.436129977926612" lon="-9.875658983364701">
        <ele>7.83</ele>
        <time>2026-07-02T13:34:51Z</time>
      </trkpt>
      <trkpt lat="53.436136012896895" lon="-9.875917984172702">
        <ele>8.310000000000001</ele>
        <time>2026-07-02T13:34:52Z</time>
      </trkpt>
      <trkpt lat="53.436063006520271" lon="-9.87902901135385">
        <ele>10.710000000000001</ele>
        <time>2026-07-02T13:35:03Z</time>
      </trkpt>
      <trkpt lat="53.435971979051828" lon="-9.880843022838235">
        <ele>11.19</ele>
        <time>2026-07-02T13:35:10Z</time>
      </trkpt>
      <trkpt lat="53.435857985168695" lon="-9.881577026098967">
        <ele>11.19</ele>
        <time>2026-07-02T13:35:13Z</time>
      </trkpt>
      <trkpt lat="53.435828983783722" lon="-9.881830997765064">
        <ele>11.67</ele>
        <time>2026-07-02T13:35:14Z</time>
      </trkpt>
      <trkpt lat="53.435839964076877" lon="-9.882103996351361">
        <ele>11.67</ele>
        <time>2026-07-02T13:35:15Z</time>
      </trkpt>
      <trkpt lat="53.435851028189063" lon="-9.882389986887574">
        <ele>12.15</ele>
        <time>2026-07-02T13:35:16Z</time>
      </trkpt>
      <trkpt lat="53.435862008482218" lon="-9.882682012394071">
        <ele>12.630000000000001</ele>
        <time>2026-07-02T13:35:17Z</time>
      </trkpt>
      <trkpt lat="53.435891009867191" lon="-9.883792027831078">
        <ele>14.56</ele>
        <time>2026-07-02T13:35:21Z</time>
      </trkpt>
      <trkpt lat="53.435891009867191" lon="-9.884063014760613">
        <ele>15.039999999999999</ele>
        <time>2026-07-02T13:35:22Z</time>
      </trkpt>
      <trkpt lat="53.43554500490427" lon="-9.88650499843061">
        <ele>16.960000000000001</ele>
        <time>2026-07-02T13:35:31Z</time>
      </trkpt>
      <trkpt lat="53.435475016012788" lon="-9.886770034208894">
        <ele>17.440000000000001</ele>
        <time>2026-07-02T13:35:32Z</time>
      </trkpt>
      <trkpt lat="53.434677980840206" lon="-9.888829970732331">
        <ele>20.32</ele>
        <time>2026-07-02T13:35:40Z</time>
      </trkpt>
      <trkpt lat="53.434606986120343" lon="-9.889077991247177">
        <ele>21.289999999999999</ele>
        <time>2026-07-02T13:35:41Z</time>
      </trkpt>
      <trkpt lat="53.434538003057241" lon="-9.889321988448501">
        <ele>21.77</ele>
        <time>2026-07-02T13:35:42Z</time>
      </trkpt>
      <trkpt lat="53.434472037479281" lon="-9.889567997306585">
        <ele>22.25</ele>
        <time>2026-07-02T13:35:43Z</time>
      </trkpt>
      <trkpt lat="53.434441024437547" lon="-9.889818029478192">
        <ele>22.73</ele>
        <time>2026-07-02T13:35:44Z</time>
      </trkpt>
      <trkpt lat="53.434410011395812" lon="-9.89007200114429">
        <ele>23.210000000000001</ele>
        <time>2026-07-02T13:35:45Z</time>
      </trkpt>
      <trkpt lat="53.43423399142921" lon="-9.892188012599945">
        <ele>23.210000000000001</ele>
        <time>2026-07-02T13:35:54Z</time>
      </trkpt>
      <trkpt lat="53.434200966730714" lon="-9.893479999154806">
        <ele>23.690000000000001</ele>
        <time>2026-07-02T13:36:02Z</time>
      </trkpt>
      <trkpt lat="53.434138018637896" lon="-9.894030019640923">
        <ele>23.210000000000001</ele>
        <time>2026-07-02T13:36:11Z</time>
      </trkpt>
      <trkpt lat="53.434150004759431" lon="-9.89413202740252">
        <ele>23.210000000000001</ele>
        <time>2026-07-02T13:36:12Z</time>
      </trkpt>
      <trkpt lat="53.434198033064604" lon="-9.894510973244906">
        <ele>23.210000000000001</ele>
        <time>2026-07-02T13:36:15Z</time>
      </trkpt>
      <trkpt lat="53.43431998975575" lon="-9.895977973937988">
        <ele>22.25</ele>
        <time>2026-07-02T13:36:22Z</time>
      </trkpt>
      <trkpt lat="53.43444898724556" lon="-9.898683987557888">
        <ele>23.210000000000001</ele>
        <time>2026-07-02T13:36:33Z</time>
      </trkpt>
      <trkpt lat="53.43457899056375" lon="-9.901429982855916">
        <ele>21.77</ele>
        <time>2026-07-02T13:36:44Z</time>
      </trkpt>
      <trkpt lat="53.43468401581049" lon="-9.903626041486859">
        <ele>20.32</ele>
        <time>2026-07-02T13:36:54Z</time>
      </trkpt>
      <trkpt lat="53.434787029400468" lon="-9.905021963641048">
        <ele>21.289999999999999</ele>
        <time>2026-07-02T13:37:01Z</time>
      </trkpt>
      <trkpt lat="53.435030020773411" lon="-9.906455017626286">
        <ele>21.289999999999999</ele>
        <time>2026-07-02T13:37:07Z</time>
      </trkpt>
      <trkpt lat="53.435678025707603" lon="-9.908999009057879">
        <ele>21.289999999999999</ele>
        <time>2026-07-02T13:37:17Z</time>
      </trkpt>
      <trkpt lat="53.436706988140941" lon="-9.912053039297462">
        <ele>24.649999999999999</ele>
        <time>2026-07-02T13:37:30Z</time>
      </trkpt>
      <trkpt lat="53.437449960038066" lon="-9.914856031537056">
        <ele>21.77</ele>
        <time>2026-07-02T13:37:41Z</time>
      </trkpt>
      <trkpt lat="53.438418991863728" lon="-9.917501024901867">
        <ele>21.289999999999999</ele>
        <time>2026-07-02T13:37:52Z</time>
      </trkpt>
      <trkpt lat="53.439469998702407" lon="-9.920285996049643">
        <ele>21.289999999999999</ele>
        <time>2026-07-02T13:38:05Z</time>
      </trkpt>
      <trkpt lat="53.43949900008738" lon="-9.920355984941125">
        <ele>21.289999999999999</ele>
        <time>2026-07-02T13:38:10Z</time>
      </trkpt>
      <trkpt lat="53.43949900008738" lon="-9.920355984941125">
        <ele>21.289999999999999</ele>
        <time>2026-07-02T13:38:32Z</time>
      </trkpt>
      <trkpt lat="53.439546022564173" lon="-9.920470984652638">
        <ele>21.289999999999999</ele>
        <time>2026-07-02T13:39:15Z</time>
      </trkpt>
      <trkpt lat="53.439979031682014" lon="-9.921145979315043">
        <ele>19.359999999999999</ele>
        <time>2026-07-02T13:39:21Z</time>
      </trkpt>
      <trkpt lat="53.440091013908386" lon="-9.921305989846587">
        <ele>19.84</ele>
        <time>2026-07-02T13:39:22Z</time>
      </trkpt>
      <trkpt lat="53.440196961164474" lon="-9.921485027298331">
        <ele>20.809999999999999</ele>
        <time>2026-07-02T13:39:23Z</time>
      </trkpt>
      <trkpt lat="53.440286982804537" lon="-9.921690970659256">
        <ele>21.77</ele>
        <time>2026-07-02T13:39:24Z</time>
      </trkpt>
      <trkpt lat="53.44123899936676" lon="-9.923376990482211">
        <ele>26.57</ele>
        <time>2026-07-02T13:39:32Z</time>
      </trkpt>
      <trkpt lat="53.442534003406763" lon="-9.925422007218003">
        <ele>26.57</ele>
        <time>2026-07-02T13:39:42Z</time>
      </trkpt>
      <trkpt lat="53.442928958684206" lon="-9.92614796385169">
        <ele>26.09</ele>
        <time>2026-07-02T13:39:46Z</time>
      </trkpt>
      <trkpt lat="53.443023003637791" lon="-9.926407970488071">
        <ele>25.609999999999999</ele>
        <time>2026-07-02T13:39:47Z</time>
      </trkpt>
      <trkpt lat="53.444150034338236" lon="-9.929536012932658">
        <ele>20.809999999999999</ele>
        <time>2026-07-02T13:39:58Z</time>
      </trkpt>
      <trkpt lat="53.444559993222356" lon="-9.930748958140612">
        <ele>22.25</ele>
        <time>2026-07-02T13:40:03Z</time>
      </trkpt>
      <trkpt lat="53.444640040397644" lon="-9.930929001420736">
        <ele>22.73</ele>
        <time>2026-07-02T13:40:04Z</time>
      </trkpt>
      <trkpt lat="53.444726960733533" lon="-9.931093035265803">
        <ele>23.210000000000001</ele>
        <time>2026-07-02T13:40:05Z</time>
      </trkpt>
      <trkpt lat="53.445028960704803" lon="-9.931515986099839">
        <ele>23.210000000000001</ele>
        <time>2026-07-02T13:40:08Z</time>
      </trkpt>
      <trkpt lat="53.445121999830008" lon="-9.931663004681468">
        <ele>23.210000000000001</ele>
        <time>2026-07-02T13:40:09Z</time>
      </trkpt>
      <trkpt lat="53.445151001214981" lon="-9.931841036304832">
        <ele>23.690000000000001</ele>
        <time>2026-07-02T13:40:10Z</time>
      </trkpt>
      <trkpt lat="53.445177990943193" lon="-9.932002974674106">
        <ele>23.690000000000001</ele>
        <time>2026-07-02T13:40:11Z</time>
      </trkpt>
      <trkpt lat="53.445201963186264" lon="-9.932143958285451">
        <ele>23.690000000000001</ele>
        <time>2026-07-02T13:40:12Z</time>
      </trkpt>
      <trkpt lat="53.44525502063334" lon="-9.93237404152751">
        <ele>24.170000000000002</ele>
        <time>2026-07-02T13:40:14Z</time>
      </trkpt>
      <trkpt lat="53.445281004533172" lon="-9.932482000440359">
        <ele>24.649999999999999</ele>
        <time>2026-07-02T13:40:15Z</time>
      </trkpt>
      <trkpt lat="53.445330038666725" lon="-9.932690961286426">
        <ele>24.649999999999999</ele>
        <time>2026-07-02T13:40:17Z</time>
      </trkpt>
      <trkpt lat="53.445530030876398" lon="-9.933543987572193">
        <ele>25.129999999999999</ele>
        <time>2026-07-02T13:40:27Z</time>
      </trkpt>
      <trkpt lat="53.445530030876398" lon="-9.933543987572193">
        <ele>25.609999999999999</ele>
        <time>2026-07-02T13:40:38Z</time>
      </trkpt>
      <trkpt lat="53.445530030876398" lon="-9.933543987572193">
        <ele>26.09</ele>
        <time>2026-07-02T13:41:21Z</time>
      </trkpt>
      <trkpt lat="53.445530030876398" lon="-9.933543987572193">
        <ele>26.09</ele>
        <time>2026-07-02T13:42:08Z</time>
      </trkpt>
      <trkpt lat="53.445530030876398" lon="-9.933543987572193">
        <ele>26.09</ele>
        <time>2026-07-02T13:43:00Z</time>
      </trkpt>
      <trkpt lat="53.445530030876398" lon="-9.933543987572193">
        <ele>25.609999999999999</ele>
        <time>2026-07-02T13:43:46Z</time>
      </trkpt>
      <trkpt lat="53.445502035319805" lon="-9.93349595926702">
        <ele>26.57</ele>
        <time>2026-07-02T13:45:31Z</time>
      </trkpt>
      <trkpt lat="53.445531958714128" lon="-9.933543987572193">
        <ele>24.649999999999999</ele>
        <time>2026-07-02T13:46:05Z</time>
      </trkpt>
      <trkpt lat="53.445538999512792" lon="-9.933522026985884">
        <ele>25.609999999999999</ele>
        <time>2026-07-02T13:47:02Z</time>
      </trkpt>
      <trkpt lat="53.445529025048018" lon="-9.933540970087051">
        <ele>25.129999999999999</ele>
        <time>2026-07-02T13:47:53Z</time>
      </trkpt>
      <trkpt lat="53.445532964542508" lon="-9.933541975915432">
        <ele>25.609999999999999</ele>
        <time>2026-07-02T13:48:28Z</time>
      </trkpt>
      <trkpt lat="53.445549979805946" lon="-9.933820003643632">
        <ele>25.129999999999999</ele>
        <time>2026-07-02T13:49:05Z</time>
      </trkpt>
      <trkpt lat="53.445551991462708" lon="-9.933941960334778">
        <ele>25.129999999999999</ele>
        <time>2026-07-02T13:49:06Z</time>
      </trkpt>
      <trkpt lat="53.445566995069385" lon="-9.93493496440351">
        <ele>26.09</ele>
        <time>2026-07-02T13:49:13Z</time>
      </trkpt>
      <trkpt lat="53.445586021989584" lon="-9.935086006298661">
        <ele>26.57</ele>
        <time>2026-07-02T13:49:14Z</time>
      </trkpt>
      <trkpt lat="53.445630026981235" lon="-9.935229001566768">
        <ele>26.57</ele>
        <time>2026-07-02T13:49:15Z</time>
      </trkpt>
      <trkpt lat="53.445691969245672" lon="-9.935354981571436">
        <ele>26.57</ele>
        <time>2026-07-02T13:49:16Z</time>
      </trkpt>
      <trkpt lat="53.445776039734483" lon="-9.935457995161414">
        <ele>27.050000000000001</ele>
        <time>2026-07-02T13:49:17Z</time>
      </trkpt>
      <trkpt lat="53.445870000869036" lon="-9.935571989044547">
        <ele>26.57</ele>
        <time>2026-07-02T13:49:18Z</time>
      </trkpt>
      <trkpt lat="53.445969996973872" lon="-9.935694029554725">
        <ele>27.050000000000001</ele>
        <time>2026-07-02T13:49:19Z</time>
      </trkpt>
      <trkpt lat="53.44723398797214" lon="-9.937028009444475">
        <ele>24.170000000000002</ele>
        <time>2026-07-02T13:49:31Z</time>
      </trkpt>
      <trkpt lat="53.448293963447213" lon="-9.938228968530893">
        <ele>23.690000000000001</ele>
        <time>2026-07-02T13:49:42Z</time>
      </trkpt>
      <trkpt lat="53.449276993051171" lon="-9.939696975052357">
        <ele>24.649999999999999</ele>
        <time>2026-07-02T13:49:51Z</time>
      </trkpt>
      <trkpt lat="53.449529036879539" lon="-9.940333999693394">
        <ele>24.649999999999999</ele>
        <time>2026-07-02T13:49:54Z</time>
      </trkpt>
      <trkpt lat="53.449634984135628" lon="-9.940486969426274">
        <ele>25.129999999999999</ele>
        <time>2026-07-02T13:49:55Z</time>
      </trkpt>
      <trkpt lat="53.449731040745974" lon="-9.94062602519989">
        <ele>25.129999999999999</ele>
        <time>2026-07-02T13:49:56Z</time>
      </trkpt>
      <trkpt lat="53.44989700242877" lon="-9.940916961058974">
        <ele>25.129999999999999</ele>
        <time>2026-07-02T13:49:58Z</time>
      </trkpt>
      <trkpt lat="53.449970008805394" lon="-9.941087029874325">
        <ele>25.129999999999999</ele>
        <time>2026-07-02T13:49:59Z</time>
      </trkpt>
      <trkpt lat="53.450036980211735" lon="-9.941258020699024">
        <ele>25.609999999999999</ele>
        <time>2026-07-02T13:50:00Z</time>
      </trkpt>
      <trkpt lat="53.450076961889863" lon="-9.941461030393839">
        <ele>25.609999999999999</ele>
        <time>2026-07-02T13:50:01Z</time>
      </trkpt>
      <trkpt lat="53.450119039043784" lon="-9.941678959876299">
        <ele>25.609999999999999</ele>
        <time>2026-07-02T13:50:02Z</time>
      </trkpt>
      <trkpt lat="53.450368987396359" lon="-9.943141015246511">
        <ele>27.530000000000001</ele>
        <time>2026-07-02T13:50:10Z</time>
      </trkpt>
      <trkpt lat="53.45039295963943" lon="-9.943293984979391">
        <ele>27.530000000000001</ele>
        <time>2026-07-02T13:50:11Z</time>
      </trkpt>
      <trkpt lat="53.450418021529913" lon="-9.943456007167697">
        <ele>28.02</ele>
        <time>2026-07-02T13:50:12Z</time>
      </trkpt>
      <trkpt lat="53.450858993455768" lon="-9.944800967350602">
        <ele>30.899999999999999</ele>
        <time>2026-07-02T13:50:21Z</time>
      </trkpt>
      <trkpt lat="53.450883971527219" lon="-9.944951003417373">
        <ele>31.379999999999999</ele>
        <time>2026-07-02T13:50:22Z</time>
      </trkpt>
      <trkpt lat="53.450910039246082" lon="-9.945104978978634">
        <ele>31.379999999999999</ele>
        <time>2026-07-02T13:50:23Z</time>
      </trkpt>
      <trkpt lat="53.450936023145914" lon="-9.945263983681798">
        <ele>30.899999999999999</ele>
        <time>2026-07-02T13:50:24Z</time>
      </trkpt>
      <trkpt lat="53.450963012874126" lon="-9.945426005870104">
        <ele>30.899999999999999</ele>
        <time>2026-07-02T13:50:25Z</time>
      </trkpt>
      <trkpt lat="53.450988996773958" lon="-9.945582998916507">
        <ele>30.899999999999999</ele>
        <time>2026-07-02T13:50:26Z</time>
      </trkpt>
      <trkpt lat="53.451028978452086" lon="-9.945713002234697">
        <ele>30.420000000000002</ele>
        <time>2026-07-02T13:50:27Z</time>
      </trkpt>
      <trkpt lat="53.451079018414021" lon="-9.94584602303803">
        <ele>30.420000000000002</ele>
        <time>2026-07-02T13:50:28Z</time>
      </trkpt>
      <trkpt lat="53.451132997870445" lon="-9.945988012477756">
        <ele>30.420000000000002</ele>
        <time>2026-07-02T13:50:29Z</time>
      </trkpt>
      <trkpt lat="53.451869012787938" lon="-9.947619969025254">
        <ele>28.98</ele>
        <time>2026-07-02T13:50:39Z</time>
      </trkpt>
      <trkpt lat="53.452885989099741" lon="-9.949321998283267">
        <ele>30.420000000000002</ele>
        <time>2026-07-02T13:50:50Z</time>
      </trkpt>
      <trkpt lat="53.452981961891055" lon="-9.949376983568072">
        <ele>30.420000000000002</ele>
        <time>2026-07-02T13:50:51Z</time>
      </trkpt>
      <trkpt lat="53.45307701267302" lon="-9.949399027973414">
        <ele>29.940000000000001</ele>
        <time>2026-07-02T13:50:52Z</time>
      </trkpt>
      <trkpt lat="53.453179020434618" lon="-9.949375977739692">
        <ele>29.940000000000001</ele>
        <time>2026-07-02T13:50:53Z</time>
      </trkpt>
      <trkpt lat="53.453289996832609" lon="-9.949350999668241">
        <ele>29.460000000000001</ele>
        <time>2026-07-02T13:50:54Z</time>
      </trkpt>
      <trkpt lat="53.453412959352136" lon="-9.949324009940028">
        <ele>29.460000000000001</ele>
        <time>2026-07-02T13:50:55Z</time>
      </trkpt>
      <trkpt lat="53.453672965988517" lon="-9.949266007170081">
        <ele>28.98</ele>
        <time>2026-07-02T13:50:57Z</time>
      </trkpt>
      <trkpt lat="53.45380699262023" lon="-9.949235999956727">
        <ele>28.5</ele>
        <time>2026-07-02T13:50:58Z</time>
      </trkpt>
      <trkpt lat="53.453934984281659" lon="-9.949260978028178">
        <ele>28.02</ele>
        <time>2026-07-02T13:50:59Z</time>
      </trkpt>
      <trkpt lat="53.454053001478314" lon="-9.949300037696958">
        <ele>27.530000000000001</ele>
        <time>2026-07-02T13:51:00Z</time>
      </trkpt>
      <trkpt lat="53.454164983704686" lon="-9.949377989396453">
        <ele>27.530000000000001</ele>
        <time>2026-07-02T13:51:01Z</time>
      </trkpt>
      <trkpt lat="53.454275038093328" lon="-9.949455019086599">
        <ele>27.050000000000001</ele>
        <time>2026-07-02T13:51:02Z</time>
      </trkpt>
      <trkpt lat="53.454595981165767" lon="-9.949679989367724">
        <ele>25.129999999999999</ele>
        <time>2026-07-02T13:51:05Z</time>
      </trkpt>
      <trkpt lat="53.454698994755745" lon="-9.949789037927985">
        <ele>24.170000000000002</ele>
        <time>2026-07-02T13:51:06Z</time>
      </trkpt>
      <trkpt lat="53.454778958112001" lon="-9.949937984347343">
        <ele>23.690000000000001</ele>
        <time>2026-07-02T13:51:07Z</time>
      </trkpt>
      <trkpt lat="53.454846013337374" lon="-9.950100006535649">
        <ele>23.210000000000001</ele>
        <time>2026-07-02T13:51:08Z</time>
      </trkpt>
      <trkpt lat="53.45490200445056" lon="-9.950281977653503">
        <ele>22.25</ele>
        <time>2026-07-02T13:51:09Z</time>
      </trkpt>
      <trkpt lat="53.454941986128688" lon="-9.950482975691557">
        <ele>21.289999999999999</ele>
        <time>2026-07-02T13:51:10Z</time>
      </trkpt>
      <trkpt lat="53.454969981685281" lon="-9.950701994821429">
        <ele>20.809999999999999</ele>
        <time>2026-07-02T13:51:11Z</time>
      </trkpt>
      <trkpt lat="53.455000994727015" lon="-9.950934005901218">
        <ele>20.32</ele>
        <time>2026-07-02T13:51:12Z</time>
      </trkpt>
      <trkpt lat="53.455199981108308" lon="-9.953960962593556">
        <ele>21.289999999999999</ele>
        <time>2026-07-02T13:51:24Z</time>
      </trkpt>
      <trkpt lat="53.455370971933007" lon="-9.955368032678962">
        <ele>21.77</ele>
        <time>2026-07-02T13:51:31Z</time>
      </trkpt>
      <trkpt lat="53.455771040171385" lon="-9.957409026101232">
        <ele>18.399999999999999</ele>
        <time>2026-07-02T13:51:43Z</time>
      </trkpt>
      <trkpt lat="53.456269009038806" lon="-9.959950000047684">
        <ele>18.879999999999999</ele>
        <time>2026-07-02T13:51:54Z</time>
      </trkpt>
      <trkpt lat="53.456504959613085" lon="-9.961311975494027">
        <ele>20.32</ele>
        <time>2026-07-02T13:52:00Z</time>
      </trkpt>
      <trkpt lat="53.456515017896891" lon="-9.961557984352112">
        <ele>20.32</ele>
        <time>2026-07-02T13:52:01Z</time>
      </trkpt>
      <trkpt lat="53.456489033997059" lon="-9.963089022785425">
        <ele>20.32</ele>
        <time>2026-07-02T13:52:07Z</time>
      </trkpt>
      <trkpt lat="53.456232966855168" lon="-9.964751992374659">
        <ele>17.920000000000002</ele>
        <time>2026-07-02T13:52:14Z</time>
      </trkpt>
      <trkpt lat="53.456232966855168" lon="-9.964973023161292">
        <ele>16.960000000000001</ele>
        <time>2026-07-02T13:52:15Z</time>
      </trkpt>
      <trkpt lat="53.456245036795735" lon="-9.965208973735571">
        <ele>16.48</ele>
        <time>2026-07-02T13:52:16Z</time>
      </trkpt>
      <trkpt lat="53.456358024850488" lon="-9.96681603603065">
        <ele>16</ele>
        <time>2026-07-02T13:52:23Z</time>
      </trkpt>
      <trkpt lat="53.45634201541543" lon="-9.9687509983778">
        <ele>15.039999999999999</ele>
        <time>2026-07-02T13:52:30Z</time>
      </trkpt>
      <trkpt lat="53.456332962960005" lon="-9.969030031934381">
        <ele>15.039999999999999</ele>
        <time>2026-07-02T13:52:31Z</time>
      </trkpt>
      <trkpt lat="53.456273032352328" lon="-9.969289032742381">
        <ele>15.52</ele>
        <time>2026-07-02T13:52:32Z</time>
      </trkpt>
      <trkpt lat="53.455555038526654" lon="-9.972365023568273">
        <ele>16.48</ele>
        <time>2026-07-02T13:52:43Z</time>
      </trkpt>
      <trkpt lat="53.455150024965405" lon="-9.97410099953413">
        <ele>17.920000000000002</ele>
        <time>2026-07-02T13:52:50Z</time>
      </trkpt>
      <trkpt lat="53.455138960853219" lon="-9.974329993128777">
        <ele>17.440000000000001</ele>
        <time>2026-07-02T13:52:51Z</time>
      </trkpt>
      <trkpt lat="53.455138960853219" lon="-9.974579019472003">
        <ele>16.960000000000001</ele>
        <time>2026-07-02T13:52:52Z</time>
      </trkpt>
      <trkpt lat="53.455149019137025" lon="-9.974842965602875">
        <ele>16.960000000000001</ele>
        <time>2026-07-02T13:52:53Z</time>
      </trkpt>
      <trkpt lat="53.455172991380095" lon="-9.975113030523062">
        <ele>16.960000000000001</ele>
        <time>2026-07-02T13:52:54Z</time>
      </trkpt>
      <trkpt lat="53.455506004393101" lon="-9.977514026686549">
        <ele>18.399999999999999</ele>
        <time>2026-07-02T13:53:03Z</time>
      </trkpt>
      <trkpt lat="53.45597698353231" lon="-9.97942803427577">
        <ele>17.440000000000001</ele>
        <time>2026-07-02T13:53:11Z</time>
      </trkpt>
      <trkpt lat="53.456597998738289" lon="-9.981181025505066">
        <ele>16</ele>
        <time>2026-07-02T13:53:20Z</time>
      </trkpt>
      <trkpt lat="53.456903016194701" lon="-9.982780963182449">
        <ele>16</ele>
        <time>2026-07-02T13:53:27Z</time>
      </trkpt>
      <trkpt lat="53.457151036709547" lon="-9.984504031017423">
        <ele>15.52</ele>
        <time>2026-07-02T13:53:34Z</time>
      </trkpt>
      <trkpt lat="53.457243992015719" lon="-9.984702011570334">
        <ele>15.039999999999999</ele>
        <time>2026-07-02T13:53:35Z</time>
      </trkpt>
      <trkpt lat="53.457341976463795" lon="-9.984910972416401">
        <ele>14.56</ele>
        <time>2026-07-02T13:53:36Z</time>
      </trkpt>
      <trkpt lat="53.457444990053773" lon="-9.985128985717893">
        <ele>14.56</ele>
        <time>2026-07-02T13:53:37Z</time>
      </trkpt>
      <trkpt lat="53.457563007250428" lon="-9.985327972099185">
        <ele>14.56</ele>
        <time>2026-07-02T13:53:38Z</time>
      </trkpt>
      <trkpt lat="53.457692004740238" lon="-9.985521007329226">
        <ele>15.039999999999999</ele>
        <time>2026-07-02T13:53:39Z</time>
      </trkpt>
      <trkpt lat="53.457837011665106" lon="-9.985665008425713">
        <ele>15.039999999999999</ele>
        <time>2026-07-02T13:53:40Z</time>
      </trkpt>
      <trkpt lat="53.457986041903496" lon="-9.9858090095222">
        <ele>15.039999999999999</ele>
        <time>2026-07-02T13:53:41Z</time>
      </trkpt>
      <trkpt lat="53.45814798027277" lon="-9.985904982313514">
        <ele>15.52</ele>
        <time>2026-07-02T13:53:42Z</time>
      </trkpt>
      <trkpt lat="53.459336031228304" lon="-9.986446034163237">
        <ele>16.960000000000001</ele>
        <time>2026-07-02T13:53:50Z</time>
      </trkpt>
      <trkpt lat="53.460036003962159" lon="-9.986693970859051">
        <ele>15.039999999999999</ele>
        <time>2026-07-02T13:53:55Z</time>
      </trkpt>
      <trkpt lat="53.460155026987195" lon="-9.986781980842352">
        <ele>14.56</ele>
        <time>2026-07-02T13:53:56Z</time>
      </trkpt>
      <trkpt lat="53.460266003385186" lon="-9.986893041059375">
        <ele>14.56</ele>
        <time>2026-07-02T13:53:57Z</time>
      </trkpt>
      <trkpt lat="53.460369016975164" lon="-9.987026983872056">
        <ele>14.56</ele>
        <time>2026-07-02T13:53:58Z</time>
      </trkpt>
      <trkpt lat="53.460458032786846" lon="-9.987194035202265">
        <ele>14.56</ele>
        <time>2026-07-02T13:53:59Z</time>
      </trkpt>
      <trkpt lat="53.460540007799864" lon="-9.987381035462022">
        <ele>14.56</ele>
        <time>2026-07-02T13:54:00Z</time>
      </trkpt>
      <trkpt lat="53.460621982812881" lon="-9.987583039328456">
        <ele>14.56</ele>
        <time>2026-07-02T13:54:01Z</time>
      </trkpt>
      <trkpt lat="53.460980979725718" lon="-9.988896986469626">
        <ele>15.039999999999999</ele>
        <time>2026-07-02T13:54:07Z</time>
      </trkpt>
      <trkpt lat="53.46100696362555" lon="-9.98911801725626">
        <ele>15.52</ele>
        <time>2026-07-02T13:54:08Z</time>
      </trkpt>
      <trkpt lat="53.461015010252595" lon="-9.989332007244229">
        <ele>15.52</ele>
        <time>2026-07-02T13:54:09Z</time>
      </trkpt>
      <trkpt lat="53.461008975282311" lon="-9.989539040252566">
        <ele>15.52</ele>
        <time>2026-07-02T13:54:10Z</time>
      </trkpt>
      <trkpt lat="53.46100302413106" lon="-9.989726962521672">
        <ele>15.52</ele>
        <time>2026-07-02T13:54:11Z</time>
      </trkpt>
      <trkpt lat="53.460997994989157" lon="-9.9898930080235">
        <ele>15.52</ele>
        <time>2026-07-02T13:54:12Z</time>
      </trkpt>
      <trkpt lat="53.461020039394498" lon="-9.990033991634846">
        <ele>15.039999999999999</ele>
        <time>2026-07-02T13:54:13Z</time>
      </trkpt>
      <trkpt lat="53.461050968617201" lon="-9.990156032145023">
        <ele>14.56</ele>
        <time>2026-07-02T13:54:14Z</time>
      </trkpt>
      <trkpt lat="53.461081981658936" lon="-9.990282012149692">
        <ele>14.08</ele>
        <time>2026-07-02T13:54:15Z</time>
      </trkpt>
      <trkpt lat="53.461119029670954" lon="-9.990412015467882">
        <ele>13.6</ele>
        <time>2026-07-02T13:54:16Z</time>
      </trkpt>
      <trkpt lat="53.461167979985476" lon="-9.990545958280563">
        <ele>13.6</ele>
        <time>2026-07-02T13:54:17Z</time>
      </trkpt>
      <trkpt lat="53.461340982466936" lon="-9.991021966561675">
        <ele>13.6</ele>
        <time>2026-07-02T13:54:20Z</time>
      </trkpt>
      <trkpt lat="53.461403008550406" lon="-9.991216007620096">
        <ele>14.08</ele>
        <time>2026-07-02T13:54:21Z</time>
      </trkpt>
      <trkpt lat="53.461667960509658" lon="-9.992099963128567">
        <ele>14.08</ele>
        <time>2026-07-02T13:54:25Z</time>
      </trkpt>
      <trkpt lat="53.461693022400141" lon="-9.992329040542245">
        <ele>14.56</ele>
        <time>2026-07-02T13:54:26Z</time>
      </trkpt>
      <trkpt lat="53.461706014350057" lon="-9.992569014430046">
        <ele>14.56</ele>
        <time>2026-07-02T13:54:27Z</time>
      </trkpt>
      <trkpt lat="53.461718000471592" lon="-9.992806976661086">
        <ele>14.56</ele>
        <time>2026-07-02T13:54:28Z</time>
      </trkpt>
      <trkpt lat="53.461730992421508" lon="-9.993048962205648">
        <ele>14.56</ele>
        <time>2026-07-02T13:54:29Z</time>
      </trkpt>
      <trkpt lat="53.461894020438194" lon="-9.995069000869989">
        <ele>15.039999999999999</ele>
        <time>2026-07-02T13:54:37Z</time>
      </trkpt>
      <trkpt lat="53.462155032902956" lon="-9.997816001996398">
        <ele>14.08</ele>
        <time>2026-07-02T13:54:48Z</time>
      </trkpt>
      <trkpt lat="53.462135000154376" lon="-10.000382959842682">
        <ele>13.119999999999999</ele>
        <time>2026-07-02T13:54:59Z</time>
      </trkpt>
      <trkpt lat="53.462133994325995" lon="-10.002562003210187">
        <ele>14.56</ele>
        <time>2026-07-02T13:55:08Z</time>
      </trkpt>
      <trkpt lat="53.462166013196111" lon="-10.00273902900517">
        <ele>14.56</ele>
        <time>2026-07-02T13:55:09Z</time>
      </trkpt>
      <trkpt lat="53.462204989045858" lon="-10.002908008173108">
        <ele>14.56</ele>
        <time>2026-07-02T13:55:10Z</time>
      </trkpt>
      <trkpt lat="53.46229299902916" lon="-10.003290977329016">
        <ele>13.6</ele>
        <time>2026-07-02T13:55:12Z</time>
      </trkpt>
      <trkpt lat="53.462391989305615" lon="-10.003717029467225">
        <ele>12.15</ele>
        <time>2026-07-02T13:55:14Z</time>
      </trkpt>
      <trkpt lat="53.462462984025478" lon="-10.003907969221473">
        <ele>11.67</ele>
        <time>2026-07-02T13:55:15Z</time>
      </trkpt>
      <trkpt lat="53.462532972916961" lon="-10.004098992794752">
        <ele>10.710000000000001</ele>
        <time>2026-07-02T13:55:16Z</time>
      </trkpt>
      <trkpt lat="53.462603967636824" lon="-10.00428800471127">
        <ele>10.710000000000001</ele>
        <time>2026-07-02T13:55:17Z</time>
      </trkpt>
      <trkpt lat="53.462674040347338" lon="-10.004477016627789">
        <ele>10.710000000000001</ele>
        <time>2026-07-02T13:55:18Z</time>
      </trkpt>
      <trkpt lat="53.463280973955989" lon="-10.006108973175287">
        <ele>11.19</ele>
        <time>2026-07-02T13:55:26Z</time>
      </trkpt>
      <trkpt lat="53.463305030018091" lon="-10.006318017840385">
        <ele>11.19</ele>
        <time>2026-07-02T13:55:27Z</time>
      </trkpt>
      <trkpt lat="53.463320033624768" lon="-10.006519015878439">
        <ele>10.710000000000001</ele>
        <time>2026-07-02T13:55:28Z</time>
      </trkpt>
      <trkpt lat="53.463335959240794" lon="-10.006742980331182">
        <ele>10.710000000000001</ele>
        <time>2026-07-02T13:55:29Z</time>
      </trkpt>
      <trkpt lat="53.463292038068175" lon="-10.006923023611307">
        <ele>10.23</ele>
        <time>2026-07-02T13:55:30Z</time>
      </trkpt>
      <trkpt lat="53.46323998644948" lon="-10.007140031084418">
        <ele>10.23</ele>
        <time>2026-07-02T13:55:31Z</time>
      </trkpt>
      <trkpt lat="53.463189024478197" lon="-10.007365001365542">
        <ele>9.75</ele>
        <time>2026-07-02T13:55:32Z</time>
      </trkpt>
      <trkpt lat="53.463143007829785" lon="-10.007582008838654">
        <ele>9.75</ele>
        <time>2026-07-02T13:55:33Z</time>
      </trkpt>
      <trkpt lat="53.463097997009754" lon="-10.00779096968472">
        <ele>10.23</ele>
        <time>2026-07-02T13:55:34Z</time>
      </trkpt>
      <trkpt lat="53.463057009503245" lon="-10.007987022399902">
        <ele>10.23</ele>
        <time>2026-07-02T13:55:35Z</time>
      </trkpt>
      <trkpt lat="53.463048040866852" lon="-10.008220039308071">
        <ele>10.710000000000001</ele>
        <time>2026-07-02T13:55:36Z</time>
      </trkpt>
      <trkpt lat="53.463039994239807" lon="-10.008451966568828">
        <ele>11.19</ele>
        <time>2026-07-02T13:55:37Z</time>
      </trkpt>
      <trkpt lat="53.463032031431794" lon="-10.008682971820235">
        <ele>11.19</ele>
        <time>2026-07-02T13:55:38Z</time>
      </trkpt>
      <trkpt lat="53.463059021160007" lon="-10.011037029325962">
        <ele>10.710000000000001</ele>
        <time>2026-07-02T13:55:47Z</time>
      </trkpt>
      <trkpt lat="53.463252978399396" lon="-10.013363007456064">
        <ele>9.75</ele>
        <time>2026-07-02T13:55:56Z</time>
      </trkpt>
      <trkpt lat="53.463350962847471" lon="-10.014732023701072">
        <ele>13.119999999999999</ele>
        <time>2026-07-02T13:56:02Z</time>
      </trkpt>
      <trkpt lat="53.463364960625768" lon="-10.014935033395886">
        <ele>13.6</ele>
        <time>2026-07-02T13:56:03Z</time>
      </trkpt>
      <trkpt lat="53.463377030566335" lon="-10.015123039484024">
        <ele>13.6</ele>
        <time>2026-07-02T13:56:04Z</time>
      </trkpt>
      <trkpt lat="53.463402008637786" lon="-10.015496034175158">
        <ele>14.08</ele>
        <time>2026-07-02T13:56:06Z</time>
      </trkpt>
      <trkpt lat="53.463413994759321" lon="-10.015664007514715">
        <ele>14.56</ele>
        <time>2026-07-02T13:56:07Z</time>
      </trkpt>
      <trkpt lat="53.463479960337281" lon="-10.016264989972115">
        <ele>14.56</ele>
        <time>2026-07-02T13:56:11Z</time>
      </trkpt>
      <trkpt lat="53.463517008349299" lon="-10.016431035473943">
        <ele>14.08</ele>
        <time>2026-07-02T13:56:12Z</time>
      </trkpt>
      <trkpt lat="53.463592026382685" lon="-10.016744015738368">
        <ele>13.119999999999999</ele>
        <time>2026-07-02T13:56:14Z</time>
      </trkpt>
      <trkpt lat="53.463640976697206" lon="-10.016904026269913">
        <ele>12.630000000000001</ele>
        <time>2026-07-02T13:56:15Z</time>
      </trkpt>
      <trkpt lat="53.463701996952295" lon="-10.01702799461782">
        <ele>12.15</ele>
        <time>2026-07-02T13:56:16Z</time>
      </trkpt>
      <trkpt lat="53.463775003328919" lon="-10.017146011814475">
        <ele>12.15</ele>
        <time>2026-07-02T13:56:17Z</time>
      </trkpt>
      <trkpt lat="53.463840968906879" lon="-10.017253970727324">
        <ele>11.67</ele>
        <time>2026-07-02T13:56:18Z</time>
      </trkpt>
      <trkpt lat="53.463901989161968" lon="-10.01735296100378">
        <ele>11.67</ele>
        <time>2026-07-02T13:56:19Z</time>
      </trkpt>
      <trkpt lat="53.463954040780663" lon="-10.017437031492591">
        <ele>11.19</ele>
        <time>2026-07-02T13:56:20Z</time>
      </trkpt>
      <trkpt lat="53.463993016630411" lon="-10.017498973757029">
        <ele>10.710000000000001</ele>
        <time>2026-07-02T13:56:21Z</time>
      </trkpt>
      <trkpt lat="53.464017994701862" lon="-10.017540967091918">
        <ele>10.23</ele>
        <time>2026-07-02T13:56:22Z</time>
      </trkpt>
      <trkpt lat="53.464032998308539" lon="-10.01756401732564">
        <ele>10.23</ele>
        <time>2026-07-02T13:56:23Z</time>
      </trkpt>
      <trkpt lat="53.464042972773314" lon="-10.017581032589078">
        <ele>9.75</ele>
        <time>2026-07-02T13:56:24Z</time>
      </trkpt>
      <trkpt lat="53.464108016341925" lon="-10.017685974016786">
        <ele>8.789999999999999</ele>
        <time>2026-07-02T13:56:37Z</time>
      </trkpt>
      <trkpt lat="53.46414003521204" lon="-10.017683040350676">
        <ele>8.310000000000001</ele>
        <time>2026-07-02T13:56:38Z</time>
      </trkpt>
      <trkpt lat="53.464690977707505" lon="-10.017836010083556">
        <ele>7.35</ele>
        <time>2026-07-02T13:56:44Z</time>
      </trkpt>
      <trkpt lat="53.464797008782625" lon="-10.017883032560349">
        <ele>7.83</ele>
        <time>2026-07-02T13:56:45Z</time>
      </trkpt>
      <trkpt lat="53.464904967695475" lon="-10.017870962619781">
        <ele>8.310000000000001</ele>
        <time>2026-07-02T13:56:46Z</time>
      </trkpt>
      <trkpt lat="53.465028014034033" lon="-10.017815977334976">
        <ele>8.310000000000001</ele>
        <time>2026-07-02T13:56:47Z</time>
      </trkpt>
      <trkpt lat="53.465162040665746" lon="-10.017755962908268">
        <ele>8.789999999999999</ele>
        <time>2026-07-02T13:56:48Z</time>
      </trkpt>
      <trkpt lat="53.465287014842033" lon="-10.01767298206687">
        <ele>8.310000000000001</ele>
        <time>2026-07-02T13:56:49Z</time>
      </trkpt>
      <trkpt lat="53.46540997736156" lon="-10.017562005668879">
        <ele>8.310000000000001</ele>
        <time>2026-07-02T13:56:50Z</time>
      </trkpt>
      <trkpt lat="53.46596603281796" lon="-10.017145005986094">
        <ele>6.39</ele>
        <time>2026-07-02T13:56:55Z</time>
      </trkpt>
      <trkpt lat="53.466068962588906" lon="-10.017130002379417">
        <ele>5.91</ele>
        <time>2026-07-02T13:56:56Z</time>
      </trkpt>
      <trkpt lat="53.466156972572207" lon="-10.0171999912709">
        <ele>5.91</ele>
        <time>2026-07-02T13:56:57Z</time>
      </trkpt>
      <trkpt lat="53.466250011697412" lon="-10.017288001254201">
        <ele>5.91</ele>
        <time>2026-07-02T13:56:58Z</time>
      </trkpt>
      <trkpt lat="53.466347996145487" lon="-10.017381962388754">
        <ele>5.91</ele>
        <time>2026-07-02T13:56:59Z</time>
      </trkpt>
      <trkpt lat="53.466451009735465" lon="-10.017481036484241">
        <ele>5.91</ele>
        <time>2026-07-02T13:57:00Z</time>
      </trkpt>
      <trkpt lat="53.466561986133456" lon="-10.01758698374033">
        <ele>5.91</ele>
        <time>2026-07-02T13:57:01Z</time>
      </trkpt>
      <trkpt lat="53.467361032962799" lon="-10.018183020874858">
        <ele>5.42</ele>
        <time>2026-07-02T13:57:07Z</time>
      </trkpt>
      <trkpt lat="53.467482989653945" lon="-10.018215961754322">
        <ele>5.42</ele>
        <time>2026-07-02T13:57:08Z</time>
      </trkpt>
      <trkpt lat="53.467583991587162" lon="-10.018244041129947">
        <ele>5.42</ele>
        <time>2026-07-02T13:57:09Z</time>
      </trkpt>
      <trkpt lat="53.467702008783817" lon="-10.01816600561142">
        <ele>5.42</ele>
        <time>2026-07-02T13:57:10Z</time>
      </trkpt>
      <trkpt lat="53.467790018767118" lon="-10.018086964264512">
        <ele>4.94</ele>
        <time>2026-07-02T13:57:11Z</time>
      </trkpt>
      <trkpt lat="53.467855984345078" lon="-10.017943968996406">
        <ele>4.94</ele>
        <time>2026-07-02T13:57:12Z</time>
      </trkpt>
      <trkpt lat="53.467906024307013" lon="-10.017836010083556">
        <ele>4.94</ele>
        <time>2026-07-02T13:57:13Z</time>
      </trkpt>
      <trkpt lat="53.468015994876623" lon="-10.017711035907269">
        <ele>4.46</ele>
        <time>2026-07-02T13:57:14Z</time>
      </trkpt>
      <trkpt lat="53.468098975718021" lon="-10.017665019258857">
        <ele>4.46</ele>
        <time>2026-07-02T13:57:15Z</time>
      </trkpt>
      <trkpt lat="53.468207018449903" lon="-10.017665019258857">
        <ele>3.98</ele>
        <time>2026-07-02T13:57:16Z</time>
      </trkpt>
      <trkpt lat="53.468306008726358" lon="-10.017720004543662">
        <ele>3.98</ele>
        <time>2026-07-02T13:57:17Z</time>
      </trkpt>
      <trkpt lat="53.468424025923014" lon="-10.017788987606764">
        <ele>4.46</ele>
        <time>2026-07-02T13:57:18Z</time>
      </trkpt>
      <trkpt lat="53.468786040320992" lon="-10.018008006736636">
        <ele>4.94</ele>
        <time>2026-07-02T13:57:21Z</time>
      </trkpt>
      <trkpt lat="53.468892993405461" lon="-10.018051005899906">
        <ele>5.42</ele>
        <time>2026-07-02T13:57:22Z</time>
      </trkpt>
      <trkpt lat="53.469004975631833" lon="-10.018012030050159">
        <ele>5.42</ele>
        <time>2026-07-02T13:57:23Z</time>
      </trkpt>
      <trkpt lat="53.469123998656869" lon="-10.017970036715269">
        <ele>5.91</ele>
        <time>2026-07-02T13:57:24Z</time>
      </trkpt>
      <trkpt lat="53.469249978661537" lon="-10.017926031723619">
        <ele>6.39</ele>
        <time>2026-07-02T13:57:25Z</time>
      </trkpt>
      <trkpt lat="53.469505039975047" lon="-10.017928965389729">
        <ele>6.39</ele>
        <time>2026-07-02T13:57:27Z</time>
      </trkpt>
      <trkpt lat="53.469611993059516" lon="-10.017956960946321">
        <ele>6.39</ele>
        <time>2026-07-02T13:57:28Z</time>
      </trkpt>
      <trkpt lat="53.469690028578043" lon="-10.01805704087019">
        <ele>6.87</ele>
        <time>2026-07-02T13:57:29Z</time>
      </trkpt>
      <trkpt lat="53.469761023297906" lon="-10.018159970641136">
        <ele>6.39</ele>
        <time>2026-07-02T13:57:30Z</time>
      </trkpt>
      <trkpt lat="53.469823971390724" lon="-10.018306989222765">
        <ele>6.39</ele>
        <time>2026-07-02T13:57:31Z</time>
      </trkpt>
      <trkpt lat="53.469892032444477" lon="-10.018470017239451">
        <ele>6.39</ele>
        <time>2026-07-02T13:57:32Z</time>
      </trkpt>
      <trkpt lat="53.469954980537295" lon="-10.01861896365881">
        <ele>5.91</ele>
        <time>2026-07-02T13:57:33Z</time>
      </trkpt>
      <trkpt lat="53.470024969428778" lon="-10.018714014440775">
        <ele>5.91</ele>
        <time>2026-07-02T13:57:34Z</time>
      </trkpt>
      <trkpt lat="53.470109961926937" lon="-10.018760031089187">
        <ele>5.42</ele>
        <time>2026-07-02T13:57:35Z</time>
      </trkpt>
      <trkpt lat="53.470834996551275" lon="-10.019102012738585">
        <ele>5.42</ele>
        <time>2026-07-02T13:57:41Z</time>
      </trkpt>
      <trkpt lat="53.47093197517097" lon="-10.019145011901855">
        <ele>5.91</ele>
        <time>2026-07-02T13:57:42Z</time>
      </trkpt>
      <trkpt lat="53.471035994589329" lon="-10.019087009131908">
        <ele>6.39</ele>
        <time>2026-07-02T13:57:43Z</time>
      </trkpt>
      <trkpt lat="53.471135990694165" lon="-10.019031018018723">
        <ele>5.91</ele>
        <time>2026-07-02T13:57:44Z</time>
      </trkpt>
      <trkpt lat="53.471996979787946" lon="-10.018392987549305">
        <ele>3.98</ele>
        <time>2026-07-02T13:57:51Z</time>
      </trkpt>
      <trkpt lat="53.472116002812982" lon="-10.018373038619757">
        <ele>3.5</ele>
        <time>2026-07-02T13:57:52Z</time>
      </trkpt>
      <trkpt lat="53.472239971160889" lon="-10.018373038619757">
        <ele>3.02</ele>
        <time>2026-07-02T13:57:53Z</time>
      </trkpt>
      <trkpt lat="53.472353965044022" lon="-10.018428023904562">
        <ele>2.54</ele>
        <time>2026-07-02T13:57:54Z</time>
      </trkpt>
      <trkpt lat="53.472465025261045" lon="-10.018515028059483">
        <ele>2.06</ele>
        <time>2026-07-02T13:57:55Z</time>
      </trkpt>
      <trkpt lat="53.472572984173894" lon="-10.018599014729261">
        <ele>2.06</ele>
        <time>2026-07-02T13:57:56Z</time>
      </trkpt>
      <trkpt lat="53.472679015249014" lon="-10.01868199557066">
        <ele>2.06</ele>
        <time>2026-07-02T13:57:57Z</time>
      </trkpt>
      <trkpt lat="53.472890993580222" lon="-10.018807975575328">
        <ele>1.58</ele>
        <time>2026-07-02T13:57:59Z</time>
      </trkpt>
      <trkpt lat="53.472995012998581" lon="-10.018851980566978">
        <ele>1.58</ele>
        <time>2026-07-02T13:58:00Z</time>
      </trkpt>
      <trkpt lat="53.473300030454993" lon="-10.018955999985337">
        <ele>1.58</ele>
        <time>2026-07-02T13:58:03Z</time>
      </trkpt>
      <trkpt lat="53.473394997417927" lon="-10.018987013027072">
        <ele>1.58</ele>
        <time>2026-07-02T13:58:04Z</time>
      </trkpt>
      <trkpt lat="53.473483007401228" lon="-10.019067982211709">
        <ele>1.58</ele>
        <time>2026-07-02T13:58:05Z</time>
      </trkpt>
      <trkpt lat="53.473878968507051" lon="-10.019533010199666">
        <ele>1.58</ele>
        <time>2026-07-02T13:58:10Z</time>
      </trkpt>
      <trkpt lat="53.473943006247282" lon="-10.019587995484471">
        <ele>1.58</ele>
        <time>2026-07-02T13:58:11Z</time>
      </trkpt>
      <trkpt lat="53.474000003188848" lon="-10.01958598382771">
        <ele>1.1</ele>
        <time>2026-07-02T13:58:12Z</time>
      </trkpt>
      <trkpt lat="53.474065968766809" lon="-10.019569974392653">
        <ele>1.1</ele>
        <time>2026-07-02T13:58:13Z</time>
      </trkpt>
      <trkpt lat="53.474146015942097" lon="-10.019552037119865">
        <ele>1.1</ele>
        <time>2026-07-02T13:58:14Z</time>
      </trkpt>
      <trkpt lat="53.474235031753778" lon="-10.019530998542905">
        <ele>0.62</ele>
        <time>2026-07-02T13:58:15Z</time>
      </trkpt>
      <trkpt lat="53.474322035908699" lon="-10.019509959965944">
        <ele>0.62</ele>
        <time>2026-07-02T13:58:16Z</time>
      </trkpt>
      <trkpt lat="53.47443301230669" lon="-10.019535021856427">
        <ele>0.62</ele>
        <time>2026-07-02T13:58:17Z</time>
      </trkpt>
      <trkpt lat="53.474552035331726" lon="-10.01956301741302">
        <ele>0.14</ele>
        <time>2026-07-02T13:58:18Z</time>
      </trkpt>
      <trkpt lat="53.474676003679633" lon="-10.019620014354587">
        <ele>0.14</ele>
        <time>2026-07-02T13:58:19Z</time>
      </trkpt>
      <trkpt lat="53.474794020876288" lon="-10.019693020731211">
        <ele>-0.34</ele>
        <time>2026-07-02T13:58:20Z</time>
      </trkpt>
      <trkpt lat="53.474910026416183" lon="-10.019765021279454">
        <ele>-0.82</ele>
        <time>2026-07-02T13:58:21Z</time>
      </trkpt>
      <trkpt lat="53.475018991157413" lon="-10.019835010170937">
        <ele>-0.82</ele>
        <time>2026-07-02T13:58:22Z</time>
      </trkpt>
      <trkpt lat="53.475238010287285" lon="-10.019975993782282">
        <ele>-0.34</ele>
        <time>2026-07-02T13:58:24Z</time>
      </trkpt>
      <trkpt lat="53.475574962794781" lon="-10.020131981000304">
        <ele>0.14</ele>
        <time>2026-07-02T13:58:27Z</time>
      </trkpt>
      <trkpt lat="53.475694991648197" lon="-10.020131981000304">
        <ele>0.14</ele>
        <time>2026-07-02T13:58:28Z</time>
      </trkpt>
      <trkpt lat="53.475804040208459" lon="-10.020088981837034">
        <ele>0.14</ele>
        <time>2026-07-02T13:58:29Z</time>
      </trkpt>
      <trkpt lat="53.476332016289234" lon="-10.019878009334207">
        <ele>0.14</ele>
        <time>2026-07-02T13:58:33Z</time>
      </trkpt>
      <trkpt lat="53.476825039833784" lon="-10.019680028781295">
        <ele>1.1</ele>
        <time>2026-07-02T13:58:37Z</time>
      </trkpt>
      <trkpt lat="53.476923024281859" lon="-10.019696960225701">
        <ele>1.1</ele>
        <time>2026-07-02T13:58:38Z</time>
      </trkpt>
      <trkpt lat="53.47701002843678" lon="-10.019765021279454">
        <ele>1.1</ele>
        <time>2026-07-02T13:58:39Z</time>
      </trkpt>
      <trkpt lat="53.477831035852432" lon="-10.020312024280429">
        <ele>1.1</ele>
        <time>2026-07-02T13:58:46Z</time>
      </trkpt>
      <trkpt lat="53.478140998631716" lon="-10.020540012046695">
        <ele>1.58</ele>
        <time>2026-07-02T13:58:49Z</time>
      </trkpt>
      <trkpt lat="53.478290028870106" lon="-10.02055199816823">
        <ele>2.06</ele>
        <time>2026-07-02T13:58:50Z</time>
      </trkpt>
      <trkpt lat="53.478403016924858" lon="-10.020558033138514">
        <ele>2.06</ele>
        <time>2026-07-02T13:58:51Z</time>
      </trkpt>
      <trkpt lat="53.478507958352566" lon="-10.020470023155212">
        <ele>2.54</ele>
        <time>2026-07-02T13:58:52Z</time>
      </trkpt>
      <trkpt lat="53.478616001084447" lon="-10.020378995686769">
        <ele>3.02</ele>
        <time>2026-07-02T13:58:53Z</time>
      </trkpt>
      <trkpt lat="53.478726977482438" lon="-10.020285034552217">
        <ele>3.98</ele>
        <time>2026-07-02T13:58:54Z</time>
      </trkpt>
      <trkpt lat="53.478841977193952" lon="-10.020201969891787">
        <ele>4.94</ele>
        <time>2026-07-02T13:58:55Z</time>
      </trkpt>
      <trkpt lat="53.478961000218987" lon="-10.020145978778601">
        <ele>5.91</ele>
        <time>2026-07-02T13:58:56Z</time>
      </trkpt>
      <trkpt lat="53.479075999930501" lon="-10.020091999322176">
        <ele>6.39</ele>
        <time>2026-07-02T13:58:57Z</time>
      </trkpt>
      <trkpt lat="53.479184964671731" lon="-10.020068027079105">
        <ele>7.35</ele>
        <time>2026-07-02T13:58:58Z</time>
      </trkpt>
      <trkpt lat="53.479287978261709" lon="-10.020068027079105">
        <ele>7.83</ele>
        <time>2026-07-02T13:58:59Z</time>
      </trkpt>
      <trkpt lat="53.479376994073391" lon="-10.020111026242375">
        <ele>8.310000000000001</ele>
        <time>2026-07-02T13:59:00Z</time>
      </trkpt>
      <trkpt lat="53.47946198657155" lon="-10.020176991820335">
        <ele>8.789999999999999</ele>
        <time>2026-07-02T13:59:01Z</time>
      </trkpt>
      <trkpt lat="53.479552008211613" lon="-10.020246980711818">
        <ele>9.75</ele>
        <time>2026-07-02T13:59:02Z</time>
      </trkpt>
      <trkpt lat="53.48006296902895" lon="-10.020732963457704">
        <ele>10.710000000000001</ele>
        <time>2026-07-02T13:59:07Z</time>
      </trkpt>
      <trkpt lat="53.480176040902734" lon="-10.020848968997598">
        <ele>10.710000000000001</ele>
        <time>2026-07-02T13:59:08Z</time>
      </trkpt>
      <trkpt lat="53.480290034785867" lon="-10.020965980365872">
        <ele>10.710000000000001</ele>
        <time>2026-07-02T13:59:09Z</time>
      </trkpt>
      <trkpt lat="53.481364008039236" lon="-10.021853959187865">
        <ele>11.19</ele>
        <time>2026-07-02T13:59:19Z</time>
      </trkpt>
      <trkpt lat="53.482557004317641" lon="-10.022913012653589">
        <ele>20.32</ele>
        <time>2026-07-02T13:59:29Z</time>
      </trkpt>
      <trkpt lat="53.483284972608089" lon="-10.023709964007139">
        <ele>22.25</ele>
        <time>2026-07-02T13:59:35Z</time>
      </trkpt>
      <trkpt lat="53.483420005068183" lon="-10.023767966777086">
        <ele>21.77</ele>
        <time>2026-07-02T13:59:36Z</time>
      </trkpt>
      <trkpt lat="53.483563000336289" lon="-10.023824963718653">
        <ele>20.809999999999999</ele>
        <time>2026-07-02T13:59:37Z</time>
      </trkpt>
      <trkpt lat="53.484698999673128" lon="-10.024026967585087">
        <ele>15.52</ele>
        <time>2026-07-02T13:59:45Z</time>
      </trkpt>
      <trkpt lat="53.484822968021035" lon="-10.024105003103614">
        <ele>15.039999999999999</ele>
        <time>2026-07-02T13:59:46Z</time>
      </trkpt>
      <trkpt lat="53.484949031844735" lon="-10.024195024743676">
        <ele>15.039999999999999</ele>
        <time>2026-07-02T13:59:47Z</time>
      </trkpt>
      <trkpt lat="53.485315991565585" lon="-10.024456037208438">
        <ele>14.56</ele>
        <time>2026-07-02T13:59:50Z</time>
      </trkpt>
      <trkpt lat="53.485436020419002" lon="-10.024467017501593">
        <ele>14.56</ele>
        <time>2026-07-02T13:59:51Z</time>
      </trkpt>
      <trkpt lat="53.485543979331851" lon="-10.024467017501593">
        <ele>14.08</ele>
        <time>2026-07-02T13:59:52Z</time>
      </trkpt>
      <trkpt lat="53.48564799875021" lon="-10.024467017501593">
        <ele>14.08</ele>
        <time>2026-07-02T13:59:53Z</time>
      </trkpt>
      <trkpt lat="53.485737014561892" lon="-10.024344976991415">
        <ele>13.6</ele>
        <time>2026-07-02T13:59:54Z</time>
      </trkpt>
      <trkpt lat="53.485809015110135" lon="-10.02422503195703">
        <ele>13.119999999999999</ele>
        <time>2026-07-02T13:59:55Z</time>
      </trkpt>
      <trkpt lat="53.485855031758547" lon="-10.024060998111963">
        <ele>12.630000000000001</ele>
        <time>2026-07-02T13:59:56Z</time>
      </trkpt>
      <trkpt lat="53.485902976244688" lon="-10.023886989802122">
        <ele>12.15</ele>
        <time>2026-07-02T13:59:57Z</time>
      </trkpt>
      <trkpt lat="53.486069021746516" lon="-10.023386003449559">
        <ele>11.67</ele>
        <time>2026-07-02T14:00:00Z</time>
      </trkpt>
      <trkpt lat="53.486149990931153" lon="-10.023242002353072">
        <ele>11.67</ele>
        <time>2026-07-02T14:00:01Z</time>
      </trkpt>
      <trkpt lat="53.486234983429313" lon="-10.023107975721359">
        <ele>11.67</ele>
        <time>2026-07-02T14:00:02Z</time>
      </trkpt>
      <trkpt lat="53.486331962049007" lon="-10.02300001680851">
        <ele>11.67</ele>
        <time>2026-07-02T14:00:03Z</time>
      </trkpt>
      <trkpt lat="53.486427012830973" lon="-10.022892979905009">
        <ele>11.67</ele>
        <time>2026-07-02T14:00:04Z</time>
      </trkpt>
      <trkpt lat="53.486600015312433" lon="-10.022682007402182">
        <ele>11.67</ele>
        <time>2026-07-02T14:00:06Z</time>
      </trkpt>
      <trkpt lat="53.486671010032296" lon="-10.02254999242723">
        <ele>11.67</ele>
        <time>2026-07-02T14:00:07Z</time>
      </trkpt>
      <trkpt lat="53.486736975610256" lon="-10.022408002987504">
        <ele>11.67</ele>
        <time>2026-07-02T14:00:08Z</time>
      </trkpt>
      <trkpt lat="53.486785003915429" lon="-10.022247992455959">
        <ele>12.15</ele>
        <time>2026-07-02T14:00:09Z</time>
      </trkpt>
      <trkpt lat="53.486779974773526" lon="-10.022040037438273">
        <ele>12.15</ele>
        <time>2026-07-02T14:00:10Z</time>
      </trkpt>
      <trkpt lat="53.486772011965513" lon="-10.021835016086698">
        <ele>12.15</ele>
        <time>2026-07-02T14:00:11Z</time>
      </trkpt>
      <trkpt lat="53.486730018630624" lon="-10.021639969199896">
        <ele>12.15</ele>
        <time>2026-07-02T14:00:12Z</time>
      </trkpt>
      <trkpt lat="53.486661035567522" lon="-10.021451041102409">
        <ele>11.67</ele>
        <time>2026-07-02T14:00:13Z</time>
      </trkpt>
      <trkpt lat="53.486588029190898" lon="-10.021252976730466">
        <ele>11.19</ele>
        <time>2026-07-02T14:00:14Z</time>
      </trkpt>
      <trkpt lat="53.486455008387566" lon="-10.020880987867713">
        <ele>10.710000000000001</ele>
        <time>2026-07-02T14:00:16Z</time>
      </trkpt>
      <trkpt lat="53.486380996182561" lon="-10.020533977076411">
        <ele>9.75</ele>
        <time>2026-07-02T14:00:18Z</time>
      </trkpt>
      <trkpt lat="53.486380996182561" lon="-10.020395005121827">
        <ele>9.27</ele>
        <time>2026-07-02T14:00:19Z</time>
      </trkpt>
      <trkpt lat="53.486398011445999" lon="-10.020306995138526">
        <ele>8.789999999999999</ele>
        <time>2026-07-02T14:00:20Z</time>
      </trkpt>
      <trkpt lat="53.486435981467366" lon="-10.020214961841702">
        <ele>8.789999999999999</ele>
        <time>2026-07-02T14:00:21Z</time>
      </trkpt>
      <trkpt lat="53.486474035307765" lon="-10.02012200653553">
        <ele>8.310000000000001</ele>
        <time>2026-07-02T14:00:22Z</time>
      </trkpt>
      <trkpt lat="53.486531032249331" lon="-10.019982028752565">
        <ele>7.83</ele>
        <time>2026-07-02T14:00:23Z</time>
      </trkpt>
      <trkpt lat="53.48655198700726" lon="-10.019899969920516">
        <ele>7.83</ele>
        <time>2026-07-02T14:00:24Z</time>
      </trkpt>
      <trkpt lat="53.486578976735473" lon="-10.019789999350905">
        <ele>7.83</ele>
        <time>2026-07-02T14:00:25Z</time>
      </trkpt>
      <trkpt lat="53.486736975610256" lon="-10.019107963889837">
        <ele>9.75</ele>
        <time>2026-07-02T14:00:32Z</time>
      </trkpt>
      <trkpt lat="53.486789027228951" lon="-10.019016014412045">
        <ele>10.23</ele>
        <time>2026-07-02T14:00:33Z</time>
      </trkpt>
      <trkpt lat="53.486834038048983" lon="-10.018973015248775">
        <ele>10.23</ele>
        <time>2026-07-02T14:00:34Z</time>
      </trkpt>
      <trkpt lat="53.486903021112084" lon="-10.018968991935253">
        <ele>10.710000000000001</ele>
        <time>2026-07-02T14:00:35Z</time>
      </trkpt>
      <trkpt lat="53.486976027488708" lon="-10.018964968621731">
        <ele>11.19</ele>
        <time>2026-07-02T14:00:36Z</time>
      </trkpt>
      <trkpt lat="53.487050961703062" lon="-10.01896102912724">
        <ele>11.67</ele>
        <time>2026-07-02T14:00:37Z</time>
      </trkpt>
      <trkpt lat="53.487407024949789" lon="-10.018998999148607">
        <ele>16.48</ele>
        <time>2026-07-02T14:00:43Z</time>
      </trkpt>
      <trkpt lat="53.487510038539767" lon="-10.019021965563297">
        <ele>20.32</ele>
        <time>2026-07-02T14:00:50Z</time>
      </trkpt>
      <trkpt lat="53.487539039924741" lon="-10.019028000533581">
        <ele>21.289999999999999</ele>
        <time>2026-07-02T14:00:51Z</time>
      </trkpt>
      <trkpt lat="53.487596958875656" lon="-10.018981983885169">
        <ele>21.77</ele>
        <time>2026-07-02T14:00:52Z</time>
      </trkpt>
      <trkpt lat="53.487617997452617" lon="-10.018902020528913">
        <ele>22.25</ele>
        <time>2026-07-02T14:00:53Z</time>
      </trkpt>
      <trkpt lat="53.487642975524068" lon="-10.018805963918567">
        <ele>22.73</ele>
        <time>2026-07-02T14:00:54Z</time>
      </trkpt>
      <trkpt lat="53.4876689594239" lon="-10.01870596781373">
        <ele>23.210000000000001</ele>
        <time>2026-07-02T14:00:55Z</time>
      </trkpt>
      <trkpt lat="53.487695027142763" lon="-10.018607983365655">
        <ele>23.690000000000001</ele>
        <time>2026-07-02T14:00:56Z</time>
      </trkpt>
      <trkpt lat="53.487748000770807" lon="-10.018463982269168">
        <ele>23.690000000000001</ele>
        <time>2026-07-02T14:00:58Z</time>
      </trkpt>
      <trkpt lat="53.487780019640923" lon="-10.018393993377686">
        <ele>24.170000000000002</ele>
        <time>2026-07-02T14:00:59Z</time>
      </trkpt>
      <trkpt lat="53.487811032682657" lon="-10.018325010314584">
        <ele>23.690000000000001</ele>
        <time>2026-07-02T14:01:00Z</time>
      </trkpt>
      <trkpt lat="53.487869035452604" lon="-10.018197018653154">
        <ele>23.690000000000001</ele>
        <time>2026-07-02T14:01:02Z</time>
      </trkpt>
      <trkpt lat="53.487926032394171" lon="-10.018071960657835">
        <ele>23.210000000000001</ele>
        <time>2026-07-02T14:01:04Z</time>
      </trkpt>
      <trkpt lat="53.487952016294003" lon="-10.017948998138309">
        <ele>22.73</ele>
        <time>2026-07-02T14:01:05Z</time>
      </trkpt>
      <trkpt lat="53.487973976880312" lon="-10.017843972891569">
        <ele>22.25</ele>
        <time>2026-07-02T14:01:06Z</time>
      </trkpt>
      <trkpt lat="53.487997027114034" lon="-10.017734002321959">
        <ele>21.77</ele>
        <time>2026-07-02T14:01:07Z</time>
      </trkpt>
      <trkpt lat="53.488022005185485" lon="-10.017617996782064">
        <ele>21.77</ele>
        <time>2026-07-02T14:01:08Z</time>
      </trkpt>
      <trkpt lat="53.488046983256936" lon="-10.017499979585409">
        <ele>21.77</ele>
        <time>2026-07-02T14:01:09Z</time>
      </trkpt>
      <trkpt lat="53.488071039319038" lon="-10.017385985702276">
        <ele>21.77</ele>
        <time>2026-07-02T14:01:10Z</time>
      </trkpt>
      <trkpt lat="53.488046983256936" lon="-10.016740998253226">
        <ele>21.77</ele>
        <time>2026-07-02T14:01:17Z</time>
      </trkpt>
      <trkpt lat="53.488040026277304" lon="-10.01664100214839">
        <ele>21.77</ele>
        <time>2026-07-02T14:01:18Z</time>
      </trkpt>
      <trkpt lat="53.48803298547864" lon="-10.016548968851566">
        <ele>21.77</ele>
        <time>2026-07-02T14:01:19Z</time>
      </trkpt>
      <trkpt lat="53.488005995750427" lon="-10.016420977190137">
        <ele>21.77</ele>
        <time>2026-07-02T14:01:20Z</time>
      </trkpt>
      <trkpt lat="53.487980011850595" lon="-10.016301032155752">
        <ele>21.77</ele>
        <time>2026-07-02T14:01:21Z</time>
      </trkpt>
      <trkpt lat="53.487929971888661" lon="-10.016068015247583">
        <ele>20.809999999999999</ele>
        <time>2026-07-02T14:01:23Z</time>
      </trkpt>
      <trkpt lat="53.487654961645603" lon="-10.014718025922775">
        <ele>19.84</ele>
        <time>2026-07-02T14:01:34Z</time>
      </trkpt>
      <trkpt lat="53.487608022987843" lon="-10.014146966859698">
        <ele>19.84</ele>
        <time>2026-07-02T14:01:38Z</time>
      </trkpt>
      <trkpt lat="53.48762302659452" lon="-10.014049988240004">
        <ele>19.84</ele>
        <time>2026-07-02T14:01:39Z</time>
      </trkpt>
      <trkpt lat="53.487672982737422" lon="-10.013970024883747">
        <ele>19.84</ele>
        <time>2026-07-02T14:01:40Z</time>
      </trkpt>
      <trkpt lat="53.487718999385834" lon="-10.013895006850362">
        <ele>19.84</ele>
        <time>2026-07-02T14:01:41Z</time>
      </trkpt>
      <trkpt lat="53.4877759963274" lon="-10.013801967725158">
        <ele>19.359999999999999</ele>
        <time>2026-07-02T14:01:42Z</time>
      </trkpt>
      <trkpt lat="53.487829975783825" lon="-10.013792999088764">
        <ele>19.359999999999999</ele>
        <time>2026-07-02T14:01:43Z</time>
      </trkpt>
      <trkpt lat="53.487897031009197" lon="-10.013781012967229">
        <ele>19.359999999999999</ele>
        <time>2026-07-02T14:01:44Z</time>
      </trkpt>
      <trkpt lat="53.487962996587157" lon="-10.013769026845694">
        <ele>19.359999999999999</ele>
        <time>2026-07-02T14:01:45Z</time>
      </trkpt>
      <trkpt lat="53.488028962165117" lon="-10.013757040724158">
        <ele>19.359999999999999</ele>
        <time>2026-07-02T14:01:46Z</time>
      </trkpt>
      <trkpt lat="53.488083025440574" lon="-10.013747988268733">
        <ele>18.879999999999999</ele>
        <time>2026-07-02T14:01:47Z</time>
      </trkpt>
      <trkpt lat="53.488123007118702" lon="-10.013741031289101">
        <ele>18.879999999999999</ele>
        <time>2026-07-02T14:01:48Z</time>
      </trkpt>
      <trkpt lat="53.488152008503675" lon="-10.013734996318817">
        <ele>18.879999999999999</ele>
        <time>2026-07-02T14:01:56Z</time>
      </trkpt>
      <trkpt lat="53.488152008503675" lon="-10.013734996318817">
        <ele>18.879999999999999</ele>
        <time>2026-07-02T14:02:34Z</time>
      </trkpt>
      <trkpt lat="53.48833498544991" lon="-10.013702977448702">
        <ele>17.440000000000001</ele>
        <time>2026-07-02T14:02:53Z</time>
      </trkpt>
      <trkpt lat="53.488665986806154" lon="-10.013643968850374">
        <ele>16.960000000000001</ele>
        <time>2026-07-02T14:03:02Z</time>
      </trkpt>
      <trkpt lat="53.488679984584451" lon="-10.013642041012645">
        <ele>16.960000000000001</ele>
        <time>2026-07-02T14:03:06Z</time>
      </trkpt>
      <trkpt lat="53.488746033981442" lon="-10.01369995996356">
        <ele>16.960000000000001</ele>
        <time>2026-07-02T14:03:07Z</time>
      </trkpt>
      <trkpt lat="53.488749973475933" lon="-10.013767015188932">
        <ele>16.960000000000001</ele>
        <time>2026-07-02T14:03:08Z</time>
      </trkpt>
      <trkpt lat="53.488755002617836" lon="-10.013851001858711">
        <ele>16.960000000000001</ele>
        <time>2026-07-02T14:03:09Z</time>
      </trkpt>
      <trkpt lat="53.48876103758812" lon="-10.013937000185251">
        <ele>16.960000000000001</ele>
        <time>2026-07-02T14:03:10Z</time>
      </trkpt>
      <trkpt lat="53.488765982910991" lon="-10.014029033482075">
        <ele>16.48</ele>
        <time>2026-07-02T14:03:11Z</time>
      </trkpt>
      <trkpt lat="53.488787021487951" lon="-10.014350982382894">
        <ele>16</ele>
        <time>2026-07-02T14:03:14Z</time>
      </trkpt>
      <trkpt lat="53.488793978467584" lon="-10.01447101123631">
        <ele>16</ele>
        <time>2026-07-02T14:03:15Z</time>
      </trkpt>
      <trkpt lat="53.488891962915659" lon="-10.016072038561106">
        <ele>16</ele>
        <time>2026-07-02T14:03:27Z</time>
      </trkpt>
      <trkpt lat="53.488971004262567" lon="-10.017514983192086">
        <ele>16.48</ele>
        <time>2026-07-02T14:03:38Z</time>
      </trkpt>
      <trkpt lat="53.489051973447204" lon="-10.01913595944643">
        <ele>17.920000000000002</ele>
        <time>2026-07-02T14:03:49Z</time>
      </trkpt>
      <trkpt lat="53.489083992317319" lon="-10.020176991820335">
        <ele>21.289999999999999</ele>
        <time>2026-07-02T14:03:59Z</time>
      </trkpt>
      <trkpt lat="53.4890849981457" lon="-10.020238012075424">
        <ele>21.289999999999999</ele>
        <time>2026-07-02T14:04:00Z</time>
      </trkpt>
      <trkpt lat="53.489148030057549" lon="-10.020228959619999">
        <ele>21.77</ele>
        <time>2026-07-02T14:04:01Z</time>
      </trkpt>
      <trkpt lat="53.489204021170735" lon="-10.020240023732185">
        <ele>21.77</ele>
        <time>2026-07-02T14:04:02Z</time>
      </trkpt>
      <trkpt lat="53.489268980920315" lon="-10.020252009853721">
        <ele>22.25</ele>
        <time>2026-07-02T14:04:03Z</time>
      </trkpt>
      <trkpt lat="53.489345004782081" lon="-10.020276987925172">
        <ele>22.25</ele>
        <time>2026-07-02T14:04:04Z</time>
      </trkpt>
      <trkpt lat="53.489418011158705" lon="-10.020324010401964">
        <ele>22.25</ele>
        <time>2026-07-02T14:04:05Z</time>
      </trkpt>
      <trkpt lat="53.489496968686581" lon="-10.020375978201628">
        <ele>22.73</ele>
        <time>2026-07-02T14:04:06Z</time>
      </trkpt>
      <trkpt lat="53.489586990326643" lon="-10.020433980971575">
        <ele>23.210000000000001</ele>
        <time>2026-07-02T14:04:07Z</time>
      </trkpt>
      <trkpt lat="53.489950010553002" lon="-10.020660040900111">
        <ele>24.649999999999999</ele>
        <time>2026-07-02T14:04:12Z</time>
      </trkpt>
      <trkpt lat="53.490006001666188" lon="-10.020660040900111">
        <ele>24.649999999999999</ele>
        <time>2026-07-02T14:04:13Z</time>
      </trkpt>
      <trkpt lat="53.490064004436135" lon="-10.020648976787925">
        <ele>24.649999999999999</ele>
        <time>2026-07-02T14:04:14Z</time>
      </trkpt>
      <trkpt lat="53.490179004147649" lon="-10.020626010373235">
        <ele>25.129999999999999</ele>
        <time>2026-07-02T14:04:16Z</time>
      </trkpt>
      <trkpt lat="53.490213034674525" lon="-10.02057203091681">
        <ele>25.609999999999999</ele>
        <time>2026-07-02T14:04:17Z</time>
      </trkpt>
      <trkpt lat="53.490252010524273" lon="-10.020511010661721">
        <ele>25.609999999999999</ele>
        <time>2026-07-02T14:04:18Z</time>
      </trkpt>
      <trkpt lat="53.490329040214419" lon="-10.020389975979924">
        <ele>26.09</ele>
        <time>2026-07-02T14:04:19Z</time>
      </trkpt>
      <trkpt lat="53.490338008850813" lon="-10.020371032878757">
        <ele>26.09</ele>
        <time>2026-07-02T14:04:20Z</time>
      </trkpt>
      <trkpt lat="53.490382013842463" lon="-10.02027397044003">
        <ele>26.57</ele>
        <time>2026-07-02T14:04:21Z</time>
      </trkpt>
      <trkpt lat="53.490431969985366" lon="-10.02016399987042">
        <ele>27.050000000000001</ele>
        <time>2026-07-02T14:04:22Z</time>
      </trkpt>
      <trkpt lat="53.490535989403725" lon="-10.019935006275773">
        <ele>27.530000000000001</ele>
        <time>2026-07-02T14:04:24Z</time>
      </trkpt>
      <trkpt lat="53.490587035194039" lon="-10.019823024049401">
        <ele>27.530000000000001</ele>
        <time>2026-07-02T14:04:25Z</time>
      </trkpt>
      <trkpt lat="53.490650989115238" lon="-10.019682040438056">
        <ele>28.02</ele>
        <time>2026-07-02T14:04:26Z</time>
      </trkpt>
      <trkpt lat="53.490706980228424" lon="-10.019618002697825">
        <ele>28.02</ele>
        <time>2026-07-02T14:04:27Z</time>
      </trkpt>
      <trkpt lat="53.490770012140274" lon="-10.019546002149582">
        <ele>28.02</ele>
        <time>2026-07-02T14:04:28Z</time>
      </trkpt>
      <trkpt lat="53.490855004638433" lon="-10.019497973844409">
        <ele>28.02</ele>
        <time>2026-07-02T14:04:29Z</time>
      </trkpt>
      <trkpt lat="53.490927005186677" lon="-10.019481964409351">
        <ele>28.02</ele>
        <time>2026-07-02T14:04:30Z</time>
      </trkpt>
      <trkpt lat="53.49101803265512" lon="-10.019480958580971">
        <ele>28.02</ele>
        <time>2026-07-02T14:04:31Z</time>
      </trkpt>
      <trkpt lat="53.491100007668138" lon="-10.019529992714524">
        <ele>28.5</ele>
        <time>2026-07-02T14:04:32Z</time>
      </trkpt>
      <trkpt lat="53.491187011823058" lon="-10.019581960514188">
        <ele>29.460000000000001</ele>
        <time>2026-07-02T14:04:33Z</time>
      </trkpt>
      <trkpt lat="53.491267981007695" lon="-10.019700983539224">
        <ele>29.940000000000001</ele>
        <time>2026-07-02T14:04:34Z</time>
      </trkpt>
      <trkpt lat="53.491335036233068" lon="-10.019822018221021">
        <ele>30.420000000000002</ele>
        <time>2026-07-02T14:04:35Z</time>
      </trkpt>
      <trkpt lat="53.491401001811028" lon="-10.019941041246057">
        <ele>30.899999999999999</ele>
        <time>2026-07-02T14:04:36Z</time>
      </trkpt>
      <trkpt lat="53.491457998752594" lon="-10.020094010978937">
        <ele>31.379999999999999</ele>
        <time>2026-07-02T14:04:37Z</time>
      </trkpt>
      <trkpt lat="53.491507032886147" lon="-10.02025100402534">
        <ele>31.859999999999999</ele>
        <time>2026-07-02T14:04:38Z</time>
      </trkpt>
      <trkpt lat="53.491555983200669" lon="-10.020410008728504">
        <ele>32.340000000000003</ele>
        <time>2026-07-02T14:04:39Z</time>
      </trkpt>
      <trkpt lat="53.492122013121843" lon="-10.02222603186965">
        <ele>35.710000000000001</ele>
        <time>2026-07-02T14:04:49Z</time>
      </trkpt>
      <trkpt lat="53.49258997477591" lon="-10.023987991735339">
        <ele>42.439999999999998</ele>
        <time>2026-07-02T14:04:58Z</time>
      </trkpt>
      <trkpt lat="53.492788961157203" lon="-10.025553982704878">
        <ele>47.240000000000002</ele>
        <time>2026-07-02T14:05:05Z</time>
      </trkpt>
      <trkpt lat="53.492835983633995" lon="-10.025777025148273">
        <ele>47.719999999999999</ele>
        <time>2026-07-02T14:05:06Z</time>
      </trkpt>
      <trkpt lat="53.492914019152522" lon="-10.025961007922888">
        <ele>48.200000000000003</ele>
        <time>2026-07-02T14:05:07Z</time>
      </trkpt>
      <trkpt lat="53.49299599416554" lon="-10.026142979040742">
        <ele>48.68</ele>
        <time>2026-07-02T14:05:08Z</time>
      </trkpt>
      <trkpt lat="53.493101019412279" lon="-10.026294020935893">
        <ele>49.159999999999997</ele>
        <time>2026-07-02T14:05:09Z</time>
      </trkpt>
      <trkpt lat="53.493230016902089" lon="-10.026387982070446">
        <ele>50.130000000000003</ele>
        <time>2026-07-02T14:05:10Z</time>
      </trkpt>
      <trkpt lat="53.493365971371531" lon="-10.026482027024031">
        <ele>50.130000000000003</ele>
        <time>2026-07-02T14:05:11Z</time>
      </trkpt>
      <trkpt lat="53.493504021316767" lon="-10.026577999815345">
        <ele>51.090000000000003</ele>
        <time>2026-07-02T14:05:12Z</time>
      </trkpt>
      <trkpt lat="53.493642993271351" lon="-10.026672966778278">
        <ele>51.57</ele>
        <time>2026-07-02T14:05:13Z</time>
      </trkpt>
      <trkpt lat="53.493793029338121" lon="-10.026754019781947">
        <ele>52.530000000000001</ele>
        <time>2026-07-02T14:05:14Z</time>
      </trkpt>
      <trkpt lat="53.49480195902288" lon="-10.026915958151221">
        <ele>57.340000000000003</ele>
        <time>2026-07-02T14:05:21Z</time>
      </trkpt>
      <trkpt lat="53.494955012574792" lon="-10.026887962594628">
        <ele>57.82</ele>
        <time>2026-07-02T14:05:22Z</time>
      </trkpt>
      <trkpt lat="53.495113011449575" lon="-10.026859967038035">
        <ele>57.82</ele>
        <time>2026-07-02T14:05:23Z</time>
      </trkpt>
      <trkpt lat="53.495277967303991" lon="-10.026778997853398">
        <ele>58.299999999999997</ele>
        <time>2026-07-02T14:05:24Z</time>
      </trkpt>
      <trkpt lat="53.495434038341045" lon="-10.026670033112168">
        <ele>59.259999999999998</ele>
        <time>2026-07-02T14:05:25Z</time>
      </trkpt>
      <trkpt lat="53.495583990588784" lon="-10.026565007865429">
        <ele>59.740000000000002</ele>
        <time>2026-07-02T14:05:26Z</time>
      </trkpt>
      <trkpt lat="53.495708964765072" lon="-10.026404997333884">
        <ele>60.700000000000003</ele>
        <time>2026-07-02T14:05:27Z</time>
      </trkpt>
      <trkpt lat="53.495824970304966" lon="-10.026240041479468">
        <ele>61.18</ele>
        <time>2026-07-02T14:05:28Z</time>
      </trkpt>
      <trkpt lat="53.495937036350369" lon="-10.026081036776304">
        <ele>62.140000000000001</ele>
        <time>2026-07-02T14:05:29Z</time>
      </trkpt>
      <trkpt lat="53.496044995263219" lon="-10.025929994881153">
        <ele>62.619999999999997</ele>
        <time>2026-07-02T14:05:30Z</time>
      </trkpt>
      <trkpt lat="53.496123030781746" lon="-10.025818012654781">
        <ele>63.100000000000001</ele>
        <time>2026-07-02T14:05:31Z</time>
      </trkpt>
      <trkpt lat="53.496264014393091" lon="-10.025748023763299">
        <ele>63.100000000000001</ele>
        <time>2026-07-02T14:05:32Z</time>
      </trkpt>
      <trkpt lat="53.496388988569379" lon="-10.02568599767983">
        <ele>63.100000000000001</ele>
        <time>2026-07-02T14:05:33Z</time>
      </trkpt>
      <trkpt lat="53.496515974402428" lon="-10.025664959102869">
        <ele>63.579999999999998</ele>
        <time>2026-07-02T14:05:34Z</time>
      </trkpt>
      <trkpt lat="53.496655030176044" lon="-10.025659007951617">
        <ele>64.069999999999993</ele>
        <time>2026-07-02T14:05:35Z</time>
      </trkpt>
      <trkpt lat="53.496799031272531" lon="-10.025652972981334">
        <ele>64.069999999999993</ele>
        <time>2026-07-02T14:05:36Z</time>
      </trkpt>
      <trkpt lat="53.498195959255099" lon="-10.026001995429397">
        <ele>63.579999999999998</ele>
        <time>2026-07-02T14:05:45Z</time>
      </trkpt>
      <trkpt lat="53.49867096170783" lon="-10.026098974049091">
        <ele>62.619999999999997</ele>
        <time>2026-07-02T14:05:48Z</time>
      </trkpt>
      <trkpt lat="53.498804988339543" lon="-10.026076007634401">
        <ele>62.140000000000001</ele>
        <time>2026-07-02T14:05:49Z</time>
      </trkpt>
      <trkpt lat="53.498959969729185" lon="-10.02596503123641">
        <ele>61.18</ele>
        <time>2026-07-02T14:05:50Z</time>
      </trkpt>
      <trkpt lat="53.499093996360898" lon="-10.025869980454445">
        <ele>60.700000000000003</ele>
        <time>2026-07-02T14:05:51Z</time>
      </trkpt>
      <trkpt lat="53.499208996072412" lon="-10.025722039863467">
        <ele>60.700000000000003</ele>
        <time>2026-07-02T14:05:52Z</time>
      </trkpt>
      <trkpt lat="53.499321984127164" lon="-10.025569992139935">
        <ele>60.219999999999999</ele>
        <time>2026-07-02T14:05:53Z</time>
      </trkpt>
      <trkpt lat="53.499431032687426" lon="-10.025422973558307">
        <ele>60.219999999999999</ele>
        <time>2026-07-02T14:05:54Z</time>
      </trkpt>
      <trkpt lat="53.499531028792262" lon="-10.025287019088864">
        <ele>60.219999999999999</ele>
        <time>2026-07-02T14:05:55Z</time>
      </trkpt>
      <trkpt lat="53.499639993533492" lon="-10.025188028812408">
        <ele>60.219999999999999</ele>
        <time>2026-07-02T14:05:56Z</time>
      </trkpt>
      <trkpt lat="53.49976303987205" lon="-10.025164978578687">
        <ele>60.219999999999999</ele>
        <time>2026-07-02T14:05:57Z</time>
      </trkpt>
      <trkpt lat="53.49989396519959" lon="-10.025140000507236">
        <ele>60.219999999999999</ele>
        <time>2026-07-02T14:05:58Z</time>
      </trkpt>
      <trkpt lat="53.500028997659683" lon="-10.025114016607404">
        <ele>59.740000000000002</ele>
        <time>2026-07-02T14:05:59Z</time>
      </trkpt>
      <trkpt lat="53.50017199292779" lon="-10.025089038535953">
        <ele>59.259999999999998</ele>
        <time>2026-07-02T14:06:00Z</time>
      </trkpt>
      <trkpt lat="53.501150999218225" lon="-10.025189034640789">
        <ele>56.369999999999997</ele>
        <time>2026-07-02T14:06:07Z</time>
      </trkpt>
      <trkpt lat="53.501265998929739" lon="-10.025246031582355">
        <ele>55.890000000000001</ele>
        <time>2026-07-02T14:06:08Z</time>
      </trkpt>
      <trkpt lat="53.501362977549434" lon="-10.025379974395037">
        <ele>55.409999999999997</ele>
        <time>2026-07-02T14:06:09Z</time>
      </trkpt>
      <trkpt lat="53.501465991139412" lon="-10.025561023503542">
        <ele>54.93</ele>
        <time>2026-07-02T14:06:10Z</time>
      </trkpt>
      <trkpt lat="53.501515025272965" lon="-10.025742994621396">
        <ele>54.93</ele>
        <time>2026-07-02T14:06:11Z</time>
      </trkpt>
      <trkpt lat="53.501574033871293" lon="-10.025962013751268">
        <ele>54.450000000000003</ele>
        <time>2026-07-02T14:06:12Z</time>
      </trkpt>
      <trkpt lat="53.502210974693298" lon="-10.02815798856318">
        <ele>50.609999999999999</ele>
        <time>2026-07-02T14:06:21Z</time>
      </trkpt>
      <trkpt lat="53.50315704010427" lon="-10.030874982476234">
        <ele>45.32</ele>
        <time>2026-07-02T14:06:32Z</time>
      </trkpt>
      <trkpt lat="53.503215964883566" lon="-10.031144041568041">
        <ele>45.32</ele>
        <time>2026-07-02T14:06:33Z</time>
      </trkpt>
      <trkpt lat="53.503796998411417" lon="-10.033795991912484">
        <ele>42.920000000000002</ele>
        <time>2026-07-02T14:06:43Z</time>
      </trkpt>
      <trkpt lat="53.504507029429078" lon="-10.036778021603823">
        <ele>36.189999999999998</ele>
        <time>2026-07-02T14:06:54Z</time>
      </trkpt>
      <trkpt lat="53.504611970856786" lon="-10.036950018256903">
        <ele>35.710000000000001</ele>
        <time>2026-07-02T14:06:55Z</time>
      </trkpt>
      <trkpt lat="53.50472797639668" lon="-10.037032999098301">
        <ele>34.740000000000002</ele>
        <time>2026-07-02T14:06:56Z</time>
      </trkpt>
      <trkpt lat="53.50485697388649" lon="-10.037085972726345">
        <ele>34.259999999999998</ele>
        <time>2026-07-02T14:06:57Z</time>
      </trkpt>
      <trkpt lat="53.504998963326216" lon="-10.037143975496292">
        <ele>34.259999999999998</ele>
        <time>2026-07-02T14:06:58Z</time>
      </trkpt>
      <trkpt lat="53.505154028534889" lon="-10.03720298409462">
        <ele>33.780000000000001</ele>
        <time>2026-07-02T14:06:59Z</time>
      </trkpt>
      <trkpt lat="53.506455989554524" lon="-10.037441030144691">
        <ele>28.02</ele>
        <time>2026-07-02T14:07:06Z</time>
      </trkpt>
      <trkpt lat="53.506625974550843" lon="-10.037400964647532">
        <ele>27.530000000000001</ele>
        <time>2026-07-02T14:07:07Z</time>
      </trkpt>
      <trkpt lat="53.506798977032304" lon="-10.037360982969403">
        <ele>27.050000000000001</ele>
        <time>2026-07-02T14:07:08Z</time>
      </trkpt>
      <trkpt lat="53.50750096142292" lon="-10.037265010178089">
        <ele>24.170000000000002</ele>
        <time>2026-07-02T14:07:12Z</time>
      </trkpt>
      <trkpt lat="53.507668012753129" lon="-10.037298034876585">
        <ele>23.690000000000001</ele>
        <time>2026-07-02T14:07:13Z</time>
      </trkpt>
      <trkpt lat="53.507829029113054" lon="-10.037344973534346">
        <ele>23.210000000000001</ele>
        <time>2026-07-02T14:07:14Z</time>
      </trkpt>
      <trkpt lat="53.507986022159457" lon="-10.037416974082589">
        <ele>22.25</ele>
        <time>2026-07-02T14:07:15Z</time>
      </trkpt>
      <trkpt lat="53.50814200937748" lon="-10.037486962974072">
        <ele>21.77</ele>
        <time>2026-07-02T14:07:16Z</time>
      </trkpt>
      <trkpt lat="53.508544005453587" lon="-10.037695001810789">
        <ele>20.809999999999999</ele>
        <time>2026-07-02T14:07:19Z</time>
      </trkpt>
      <trkpt lat="53.508632015436888" lon="-10.037845959886909">
        <ele>20.32</ele>
        <time>2026-07-02T14:07:20Z</time>
      </trkpt>
      <trkpt lat="53.508705021813512" lon="-10.038023991510272">
        <ele>20.32</ele>
        <time>2026-07-02T14:07:21Z</time>
      </trkpt>
      <trkpt lat="53.508762018755078" lon="-10.038222977891564">
        <ele>20.32</ele>
        <time>2026-07-02T14:07:22Z</time>
      </trkpt>
      <trkpt lat="53.508820021525025" lon="-10.038424981757998">
        <ele>19.84</ele>
        <time>2026-07-02T14:07:23Z</time>
      </trkpt>
      <trkpt lat="53.508870983496308" lon="-10.038637965917587">
        <ele>19.84</ele>
        <time>2026-07-02T14:07:24Z</time>
      </trkpt>
      <trkpt lat="53.509198967367411" lon="-10.039984015747905">
        <ele>18.399999999999999</ele>
        <time>2026-07-02T14:07:30Z</time>
      </trkpt>
      <trkpt lat="53.509271973744035" lon="-10.040161963552237">
        <ele>17.920000000000002</ele>
        <time>2026-07-02T14:07:31Z</time>
      </trkpt>
      <trkpt lat="53.509373981505632" lon="-10.040263971313834">
        <ele>17.920000000000002</ele>
        <time>2026-07-02T14:07:32Z</time>
      </trkpt>
      <trkpt lat="53.509484035894275" lon="-10.040365979075432">
        <ele>17.440000000000001</ele>
        <time>2026-07-02T14:07:33Z</time>
      </trkpt>
      <trkpt lat="53.509603980928659" lon="-10.040460024029016">
        <ele>16.960000000000001</ele>
        <time>2026-07-02T14:07:34Z</time>
      </trkpt>
      <trkpt lat="53.509748987853527" lon="-10.040502017363906">
        <ele>16.48</ele>
        <time>2026-07-02T14:07:35Z</time>
      </trkpt>
      <trkpt lat="53.509903969243169" lon="-10.040546022355556">
        <ele>15.52</ele>
        <time>2026-07-02T14:07:36Z</time>
      </trkpt>
      <trkpt lat="53.510061968117952" lon="-10.040591033175588">
        <ele>15.52</ele>
        <time>2026-07-02T14:07:37Z</time>
      </trkpt>
      <trkpt lat="53.510231031104922" lon="-10.040623974055052">
        <ele>15.039999999999999</ele>
        <time>2026-07-02T14:07:38Z</time>
      </trkpt>
      <trkpt lat="53.511046003550291" lon="-10.040600001811981">
        <ele>13.6</ele>
        <time>2026-07-02T14:07:43Z</time>
      </trkpt>
      <trkpt lat="53.511165026575327" lon="-10.040560020133853">
        <ele>13.6</ele>
        <time>2026-07-02T14:07:44Z</time>
      </trkpt>
      <trkpt lat="53.511298969388008" lon="-10.04042599350214">
        <ele>13.6</ele>
        <time>2026-07-02T14:07:45Z</time>
      </trkpt>
      <trkpt lat="53.511428972706199" lon="-10.040295990183949">
        <ele>13.6</ele>
        <time>2026-07-02T14:07:46Z</time>
      </trkpt>
      <trkpt lat="53.511558976024389" lon="-10.040149977430701">
        <ele>13.6</ele>
        <time>2026-07-02T14:07:47Z</time>
      </trkpt>
      <trkpt lat="53.511639023199677" lon="-10.039915032684803">
        <ele>13.6</ele>
        <time>2026-07-02T14:07:48Z</time>
      </trkpt>
      <trkpt lat="53.511722004041076" lon="-10.039669023826718">
        <ele>13.6</ele>
        <time>2026-07-02T14:07:49Z</time>
      </trkpt>
      <trkpt lat="53.511809008195996" lon="-10.039411028847098">
        <ele>14.08</ele>
        <time>2026-07-02T14:07:50Z</time>
      </trkpt>
      <trkpt lat="53.512606965377927" lon="-10.037012966349721">
        <ele>18.399999999999999</ele>
        <time>2026-07-02T14:07:59Z</time>
      </trkpt>
      <trkpt lat="53.51272196508944" lon="-10.036847004666924">
        <ele>19.84</ele>
        <time>2026-07-02T14:08:00Z</time>
      </trkpt>
      <trkpt lat="53.513212976977229" lon="-10.036312993615866">
        <ele>24.649999999999999</ele>
        <time>2026-07-02T14:08:04Z</time>
      </trkpt>
      <trkpt lat="53.513345997780561" lon="-10.036263959482312">
        <ele>25.609999999999999</ele>
        <time>2026-07-02T14:08:05Z</time>
      </trkpt>
      <trkpt lat="53.513484969735146" lon="-10.036212997511029">
        <ele>26.57</ele>
        <time>2026-07-02T14:08:06Z</time>
      </trkpt>
      <trkpt lat="53.513630982488394" lon="-10.036158012226224">
        <ele>27.530000000000001</ele>
        <time>2026-07-02T14:08:07Z</time>
      </trkpt>
      <trkpt lat="53.513783030211926" lon="-10.036122975870967">
        <ele>28.02</ele>
        <time>2026-07-02T14:08:08Z</time>
      </trkpt>
      <trkpt lat="53.513929964974523" lon="-10.036140996962786">
        <ele>28.98</ele>
        <time>2026-07-02T14:08:09Z</time>
      </trkpt>
      <trkpt lat="53.514075977727771" lon="-10.036158012226224">
        <ele>29.940000000000001</ele>
        <time>2026-07-02T14:08:10Z</time>
      </trkpt>
      <trkpt lat="53.51420296356082" lon="-10.036260019987822">
        <ele>30.420000000000002</ele>
        <time>2026-07-02T14:08:11Z</time>
      </trkpt>
      <trkpt lat="53.514323998242617" lon="-10.036379965022206">
        <ele>31.379999999999999</ele>
        <time>2026-07-02T14:08:12Z</time>
      </trkpt>
      <trkpt lat="53.514444027096033" lon="-10.036518014967442">
        <ele>31.859999999999999</ele>
        <time>2026-07-02T14:08:13Z</time>
      </trkpt>
      <trkpt lat="53.514532959088683" lon="-10.036695962771773">
        <ele>32.82</ele>
        <time>2026-07-02T14:08:14Z</time>
      </trkpt>
      <trkpt lat="53.514617029577494" lon="-10.036865025758743">
        <ele>33.780000000000001</ele>
        <time>2026-07-02T14:08:15Z</time>
      </trkpt>
      <trkpt lat="53.514694981276989" lon="-10.037020007148385">
        <ele>34.740000000000002</ele>
        <time>2026-07-02T14:08:16Z</time>
      </trkpt>
      <trkpt lat="53.515081973746419" lon="-10.037993984296918">
        <ele>39.549999999999997</ele>
        <time>2026-07-02T14:08:21Z</time>
      </trkpt>
      <trkpt lat="53.515165960416198" lon="-10.038206968456507">
        <ele>40.030000000000001</ele>
        <time>2026-07-02T14:08:22Z</time>
      </trkpt>
      <trkpt lat="53.515631994232535" lon="-10.039388984441757">
        <ele>43.880000000000003</ele>
        <time>2026-07-02T14:08:29Z</time>
      </trkpt>
      <trkpt lat="53.516089981421828" lon="-10.040453989058733">
        <ele>46.759999999999998</ele>
        <time>2026-07-02T14:08:36Z</time>
      </trkpt>
      <trkpt lat="53.516160976141691" lon="-10.040584998205304">
        <ele>47.240000000000002</ele>
        <time>2026-07-02T14:08:37Z</time>
      </trkpt>
      <trkpt lat="53.516231970861554" lon="-10.040712989866734">
        <ele>47.240000000000002</ele>
        <time>2026-07-02T14:08:38Z</time>
      </trkpt>
      <trkpt lat="53.51633096113801" lon="-10.040792031213641">
        <ele>47.240000000000002</ele>
        <time>2026-07-02T14:08:39Z</time>
      </trkpt>
      <trkpt lat="53.516434980556369" lon="-10.040875012055039">
        <ele>47.719999999999999</ele>
        <time>2026-07-02T14:08:40Z</time>
      </trkpt>
      <trkpt lat="53.516533970832825" lon="-10.040953969582915">
        <ele>48.200000000000003</ele>
        <time>2026-07-02T14:08:41Z</time>
      </trkpt>
      <trkpt lat="53.516633966937661" lon="-10.04100501537323">
        <ele>48.68</ele>
        <time>2026-07-02T14:08:42Z</time>
      </trkpt>
      <trkpt lat="53.516730023548007" lon="-10.041049020364881">
        <ele>49.159999999999997</ele>
        <time>2026-07-02T14:08:43Z</time>
      </trkpt>
      <trkpt lat="53.516825996339321" lon="-10.04107098095119">
        <ele>50.130000000000003</ele>
        <time>2026-07-02T14:08:44Z</time>
      </trkpt>
      <trkpt lat="53.516919035464525" lon="-10.041062012314796">
        <ele>50.609999999999999</ele>
        <time>2026-07-02T14:08:45Z</time>
      </trkpt>
      <trkpt lat="53.517014002427459" lon="-10.041052959859371">
        <ele>51.57</ele>
        <time>2026-07-02T14:08:46Z</time>
      </trkpt>
      <trkpt lat="53.517110981047153" lon="-10.041043991222978">
        <ele>52.530000000000001</ele>
        <time>2026-07-02T14:08:47Z</time>
      </trkpt>
      <trkpt lat="53.517236961051822" lon="-10.041032005101442">
        <ele>53.490000000000002</ele>
        <time>2026-07-02T14:08:48Z</time>
      </trkpt>
      <trkpt lat="53.517383979633451" lon="-10.040979031473398">
        <ele>53.969999999999999</ele>
        <time>2026-07-02T14:08:49Z</time>
      </trkpt>
      <trkpt lat="53.51834898814559" lon="-10.040631014853716">
        <ele>54.93</ele>
        <time>2026-07-02T14:08:55Z</time>
      </trkpt>
      <trkpt lat="53.518656017258763" lon="-10.040560020133853">
        <ele>55.409999999999997</ele>
        <time>2026-07-02T14:08:58Z</time>
      </trkpt>
      <trkpt lat="53.518755007535219" lon="-10.040560020133853">
        <ele>55.409999999999997</ele>
        <time>2026-07-02T14:08:59Z</time>
      </trkpt>
      <trkpt lat="53.518856009468436" lon="-10.040606036782265">
        <ele>55.890000000000001</ele>
        <time>2026-07-02T14:09:00Z</time>
      </trkpt>
      <trkpt lat="53.518949970602989" lon="-10.040691029280424">
        <ele>55.890000000000001</ele>
        <time>2026-07-02T14:09:01Z</time>
      </trkpt>
      <trkpt lat="53.519048038870096" lon="-10.040778033435345">
        <ele>56.369999999999997</ele>
        <time>2026-07-02T14:09:02Z</time>
      </trkpt>
      <trkpt lat="53.519147029146552" lon="-10.040866965427995">
        <ele>56.369999999999997</ele>
        <time>2026-07-02T14:09:03Z</time>
      </trkpt>
      <trkpt lat="53.519243001937866" lon="-10.040966961532831">
        <ele>56.859999999999999</ele>
        <time>2026-07-02T14:09:04Z</time>
      </trkpt>
      <trkpt lat="53.520072977989912" lon="-10.042331032454967">
        <ele>63.579999999999998</ele>
        <time>2026-07-02T14:09:14Z</time>
      </trkpt>
      <trkpt lat="53.52077404037118" lon="-10.043703988194466">
        <ele>69.349999999999994</ele>
        <time>2026-07-02T14:09:21Z</time>
      </trkpt>
      <trkpt lat="53.522056974470615" lon="-10.046216966584325">
        <ele>78.969999999999999</ele>
        <time>2026-07-02T14:09:30Z</time>
      </trkpt>
      <trkpt lat="53.523204037919641" lon="-10.048266006633639">
        <ele>86.659999999999997</ele>
        <time>2026-07-02T14:09:39Z</time>
      </trkpt>
      <trkpt lat="53.5232890304178" lon="-10.048391986638308">
        <ele>87.140000000000001</ele>
        <time>2026-07-02T14:09:40Z</time>
      </trkpt>
      <trkpt lat="53.523390032351017" lon="-10.048413025215268">
        <ele>87.140000000000001</ele>
        <time>2026-07-02T14:09:41Z</time>
      </trkpt>
      <trkpt lat="53.52348399348557" lon="-10.048343036323786">
        <ele>87.140000000000001</ele>
        <time>2026-07-02T14:09:42Z</time>
      </trkpt>
      <trkpt lat="53.523599999025464" lon="-10.048257037997246">
        <ele>87.140000000000001</ele>
        <time>2026-07-02T14:09:43Z</time>
      </trkpt>
      <trkpt lat="53.523731008172035" lon="-10.048159975558519">
        <ele>87.140000000000001</ele>
        <time>2026-07-02T14:09:44Z</time>
      </trkpt>
      <trkpt lat="53.524038959294558" lon="-10.047930981963873">
        <ele>87.140000000000001</ele>
        <time>2026-07-02T14:09:46Z</time>
      </trkpt>
      <trkpt lat="53.524220008403063" lon="-10.047869039699435">
        <ele>87.620000000000005</ele>
        <time>2026-07-02T14:09:47Z</time>
      </trkpt>
      <trkpt lat="53.524413965642452" lon="-10.047826040536165">
        <ele>87.620000000000005</ele>
        <time>2026-07-02T14:09:48Z</time>
      </trkpt>
      <trkpt lat="53.525934023782611" lon="-10.047787986695766">
        <ele>85.689999999999998</ele>
        <time>2026-07-02T14:09:56Z</time>
      </trkpt>
      <trkpt lat="53.527470007538795" lon="-10.048036007210612">
        <ele>90.019999999999996</ele>
        <time>2026-07-02T14:10:05Z</time>
      </trkpt>
      <trkpt lat="53.527601016685367" lon="-10.047967024147511">
        <ele>90.5</ele>
        <time>2026-07-02T14:10:06Z</time>
      </trkpt>
      <trkpt lat="53.527722973376513" lon="-10.047882031649351">
        <ele>90.5</ele>
        <time>2026-07-02T14:10:07Z</time>
      </trkpt>
      <trkpt lat="53.527816012501717" lon="-10.047695031389594">
        <ele>90.5</ele>
        <time>2026-07-02T14:10:08Z</time>
      </trkpt>
      <trkpt lat="53.527905028313398" lon="-10.047503001987934">
        <ele>90.5</ele>
        <time>2026-07-02T14:10:09Z</time>
      </trkpt>
      <trkpt lat="53.527999995276332" lon="-10.0473009981215">
        <ele>90.019999999999996</ele>
        <time>2026-07-02T14:10:10Z</time>
      </trkpt>
      <trkpt lat="53.528095968067646" lon="-10.047077033668756">
        <ele>90.019999999999996</ele>
        <time>2026-07-02T14:10:11Z</time>
      </trkpt>
      <trkpt lat="53.529043039306998" lon="-10.044634966179729">
        <ele>86.180000000000007</ele>
        <time>2026-07-02T14:10:20Z</time>
      </trkpt>
      <trkpt lat="53.530377019196749" lon="-10.041196038946509">
        <ele>88.099999999999994</ele>
        <time>2026-07-02T14:10:33Z</time>
      </trkpt>
      <trkpt lat="53.53139198385179" lon="-10.039237020537257">
        <ele>84.730000000000004</ele>
        <time>2026-07-02T14:10:41Z</time>
      </trkpt>
      <trkpt lat="53.531915014609694" lon="-10.038817003369331">
        <ele>82.810000000000002</ele>
        <time>2026-07-02T14:10:44Z</time>
      </trkpt>
      <trkpt lat="53.532097991555929" lon="-10.038720024749637">
        <ele>82.810000000000002</ele>
        <time>2026-07-02T14:10:45Z</time>
      </trkpt>
      <trkpt lat="53.53394796140492" lon="-10.038072019815445">
        <ele>84.730000000000004</ele>
        <time>2026-07-02T14:10:55Z</time>
      </trkpt>
      <trkpt lat="53.535988032817841" lon="-10.037314966320992">
        <ele>90.019999999999996</ele>
        <time>2026-07-02T14:11:07Z</time>
      </trkpt>
      <trkpt lat="53.536113006994128" lon="-10.037230979651213">
        <ele>90.5</ele>
        <time>2026-07-02T14:11:08Z</time>
      </trkpt>
      <trkpt lat="53.536203028634191" lon="-10.037088990211487">
        <ele>90.980000000000004</ele>
        <time>2026-07-02T14:11:09Z</time>
      </trkpt>
      <trkpt lat="53.536291960626841" lon="-10.036911964416504">
        <ele>91.459999999999994</ele>
        <time>2026-07-02T14:11:10Z</time>
      </trkpt>
      <trkpt lat="53.536387011408806" lon="-10.036722030490637">
        <ele>92.420000000000002</ele>
        <time>2026-07-02T14:11:11Z</time>
      </trkpt>
      <trkpt lat="53.536452976986766" lon="-10.036481972783804">
        <ele>93.390000000000001</ele>
        <time>2026-07-02T14:11:12Z</time>
      </trkpt>
      <trkpt lat="53.5365030169487" lon="-10.036219032481313">
        <ele>93.390000000000001</ele>
        <time>2026-07-02T14:11:13Z</time>
      </trkpt>
      <trkpt lat="53.536953963339329" lon="-10.033658025786281">
        <ele>90.980000000000004</ele>
        <time>2026-07-02T14:11:22Z</time>
      </trkpt>
      <trkpt lat="53.53725696913898" lon="-10.031826999038458">
        <ele>90.019999999999996</ele>
        <time>2026-07-02T14:11:29Z</time>
      </trkpt>
      <trkpt lat="53.537347996607423" lon="-10.031619966030121">
        <ele>90.019999999999996</ele>
        <time>2026-07-02T14:11:30Z</time>
      </trkpt>
      <trkpt lat="53.537432989105582" lon="-10.031427014619112">
        <ele>90.019999999999996</ele>
        <time>2026-07-02T14:11:31Z</time>
      </trkpt>
      <trkpt lat="53.537533991038799" lon="-10.031253006309271">
        <ele>90.5</ele>
        <time>2026-07-02T14:11:32Z</time>
      </trkpt>
      <trkpt lat="53.537670029327273" lon="-10.031129037961364">
        <ele>90.5</ele>
        <time>2026-07-02T14:11:33Z</time>
      </trkpt>
      <trkpt lat="53.537818975746632" lon="-10.031008003279567">
        <ele>90.019999999999996</ele>
        <time>2026-07-02T14:11:34Z</time>
      </trkpt>
      <trkpt lat="53.537980997934937" lon="-10.030898032709956">
        <ele>90.019999999999996</ele>
        <time>2026-07-02T14:11:35Z</time>
      </trkpt>
      <trkpt lat="53.539508013054729" lon="-10.029927995055914">
        <ele>90.5</ele>
        <time>2026-07-02T14:11:44Z</time>
      </trkpt>
      <trkpt lat="53.540683994069695" lon="-10.029694978147745">
        <ele>85.689999999999998</ele>
        <time>2026-07-02T14:11:51Z</time>
      </trkpt>
      <trkpt lat="53.540977025404572" lon="-10.029539996758103">
        <ele>83.290000000000006</ele>
        <time>2026-07-02T14:11:53Z</time>
      </trkpt>
      <trkpt lat="53.541113985702395" lon="-10.029422985389829">
        <ele>82.329999999999998</ele>
        <time>2026-07-02T14:11:54Z</time>
      </trkpt>
      <trkpt lat="53.541236026212573" lon="-10.029274960979819">
        <ele>80.890000000000001</ele>
        <time>2026-07-02T14:11:55Z</time>
      </trkpt>
      <trkpt lat="53.541342979297042" lon="-10.029099024832249">
        <ele>79.450000000000003</ele>
        <time>2026-07-02T14:11:56Z</time>
      </trkpt>
      <trkpt lat="53.541427971795201" lon="-10.028913030400872">
        <ele>78</ele>
        <time>2026-07-02T14:11:57Z</time>
      </trkpt>
      <trkpt lat="53.541498966515064" lon="-10.028756959363818">
        <ele>76.560000000000002</ele>
        <time>2026-07-02T14:11:58Z</time>
      </trkpt>
      <trkpt lat="53.541540037840605" lon="-10.028610024601221">
        <ele>75.120000000000005</ele>
        <time>2026-07-02T14:11:59Z</time>
      </trkpt>
      <trkpt lat="53.541560992598534" lon="-10.028477003797889">
        <ele>74.159999999999997</ele>
        <time>2026-07-02T14:12:00Z</time>
      </trkpt>
      <trkpt lat="53.541621007025242" lon="-10.028093028813601">
        <ele>69.349999999999994</ele>
        <time>2026-07-02T14:12:07Z</time>
      </trkpt>
      <trkpt lat="53.541621007025242" lon="-10.028093028813601">
        <ele>68.390000000000001</ele>
        <time>2026-07-02T14:12:23Z</time>
      </trkpt>
      <trkpt lat="53.541656965389848" lon="-10.027863029390574">
        <ele>66.469999999999999</ele>
        <time>2026-07-02T14:13:03Z</time>
      </trkpt>
      <trkpt lat="53.541729971766472" lon="-10.027393978089094">
        <ele>65.510000000000005</ele>
        <time>2026-07-02T14:13:06Z</time>
      </trkpt>
      <trkpt lat="53.541778000071645" lon="-10.027218963950872">
        <ele>65.030000000000001</ele>
        <time>2026-07-02T14:13:07Z</time>
      </trkpt>
      <trkpt lat="53.541844971477985" lon="-10.027031963691115">
        <ele>64.549999999999997</ele>
        <time>2026-07-02T14:13:08Z</time>
      </trkpt>
      <trkpt lat="53.542050998657942" lon="-10.026454031467438">
        <ele>62.619999999999997</ele>
        <time>2026-07-02T14:13:11Z</time>
      </trkpt>
      <trkpt lat="53.542101960629225" lon="-10.026254039257765">
        <ele>62.140000000000001</ele>
        <time>2026-07-02T14:13:12Z</time>
      </trkpt>
      <trkpt lat="53.542118975892663" lon="-10.026039965450764">
        <ele>61.18</ele>
        <time>2026-07-02T14:13:13Z</time>
      </trkpt>
      <trkpt lat="53.542099026963115" lon="-10.025833016261458">
        <ele>60.700000000000003</ele>
        <time>2026-07-02T14:13:14Z</time>
      </trkpt>
      <trkpt lat="53.542064996436238" lon="-10.025617014616728">
        <ele>59.740000000000002</ele>
        <time>2026-07-02T14:13:15Z</time>
      </trkpt>
      <trkpt lat="53.54200498200953" lon="-10.025394978001714">
        <ele>58.299999999999997</ele>
        <time>2026-07-02T14:13:16Z</time>
      </trkpt>
      <trkpt lat="53.54193901643157" lon="-10.025153998285532">
        <ele>57.340000000000003</ele>
        <time>2026-07-02T14:13:17Z</time>
      </trkpt>
      <trkpt lat="53.541881013661623" lon="-10.024901032447815">
        <ele>55.890000000000001</ele>
        <time>2026-07-02T14:13:18Z</time>
      </trkpt>
      <trkpt lat="53.541843965649605" lon="-10.024643037468195">
        <ele>55.409999999999997</ele>
        <time>2026-07-02T14:13:19Z</time>
      </trkpt>
      <trkpt lat="53.541828040033579" lon="-10.024380013346672">
        <ele>54.450000000000003</ele>
        <time>2026-07-02T14:13:20Z</time>
      </trkpt>
      <trkpt lat="53.541828040033579" lon="-10.02409896813333">
        <ele>53.490000000000002</ele>
        <time>2026-07-02T14:13:21Z</time>
      </trkpt>
      <trkpt lat="53.541837008669972" lon="-10.023808032274246">
        <ele>52.530000000000001</ele>
        <time>2026-07-02T14:13:22Z</time>
      </trkpt>
      <trkpt lat="53.541863998398185" lon="-10.023507960140705">
        <ele>51.57</ele>
        <time>2026-07-02T14:13:23Z</time>
      </trkpt>
      <trkpt lat="53.54202501475811" lon="-10.020573036745191">
        <ele>46.280000000000001</ele>
        <time>2026-07-02T14:13:32Z</time>
      </trkpt>
      <trkpt lat="53.542104978114367" lon="-10.01756502315402">
        <ele>39.549999999999997</ele>
        <time>2026-07-02T14:13:41Z</time>
      </trkpt>
      <trkpt lat="53.542077988386154" lon="-10.014378977939487">
        <ele>33.780000000000001</ele>
        <time>2026-07-02T14:13:51Z</time>
      </trkpt>
      <trkpt lat="53.541908003389835" lon="-10.013283966109157">
        <ele>31.859999999999999</ele>
        <time>2026-07-02T14:13:55Z</time>
      </trkpt>
      <trkpt lat="53.541842037811875" lon="-10.013049021363258">
        <ele>31.379999999999999</ele>
        <time>2026-07-02T14:13:56Z</time>
      </trkpt>
      <trkpt lat="53.541107028722763" lon="-10.011211037635803">
        <ele>27.050000000000001</ele>
        <time>2026-07-02T14:14:04Z</time>
      </trkpt>
      <trkpt lat="53.541033016517758" lon="-10.010986989364028">
        <ele>26.57</ele>
        <time>2026-07-02T14:14:05Z</time>
      </trkpt>
      <trkpt lat="53.540988005697727" lon="-10.010736035183072">
        <ele>26.09</ele>
        <time>2026-07-02T14:14:06Z</time>
      </trkpt>
      <trkpt lat="53.540788013488054" lon="-10.009389985352755">
        <ele>25.609999999999999</ele>
        <time>2026-07-02T14:14:11Z</time>
      </trkpt>
      <trkpt lat="53.540763035416603" lon="-10.00914498232305">
        <ele>25.129999999999999</ele>
        <time>2026-07-02T14:14:12Z</time>
      </trkpt>
      <trkpt lat="53.5407770331949" lon="-10.008920012041926">
        <ele>24.649999999999999</ele>
        <time>2026-07-02T14:14:13Z</time>
      </trkpt>
      <trkpt lat="53.540811985731125" lon="-10.008703004568815">
        <ele>24.170000000000002</ele>
        <time>2026-07-02T14:14:14Z</time>
      </trkpt>
      <trkpt lat="53.540840987116098" lon="-10.008523967117071">
        <ele>23.210000000000001</ele>
        <time>2026-07-02T14:14:15Z</time>
      </trkpt>
      <trkpt lat="53.540937965735793" lon="-10.008329004049301">
        <ele>22.73</ele>
        <time>2026-07-02T14:14:16Z</time>
      </trkpt>
      <trkpt lat="53.541019018739462" lon="-10.008166981860995">
        <ele>22.25</ele>
        <time>2026-07-02T14:14:17Z</time>
      </trkpt>
      <trkpt lat="53.541092025116086" lon="-10.008021974936128">
        <ele>21.77</ele>
        <time>2026-07-02T14:14:18Z</time>
      </trkpt>
      <trkpt lat="53.541184980422258" lon="-10.007957015186548">
        <ele>21.289999999999999</ele>
        <time>2026-07-02T14:14:19Z</time>
      </trkpt>
      <trkpt lat="53.541287994012237" lon="-10.007894989103079">
        <ele>20.809999999999999</ele>
        <time>2026-07-02T14:14:20Z</time>
      </trkpt>
      <trkpt lat="53.54140299372375" lon="-10.007826006039977">
        <ele>20.32</ele>
        <time>2026-07-02T14:14:21Z</time>
      </trkpt>
      <trkpt lat="53.541529979556799" lon="-10.007749982178211">
        <ele>20.32</ele>
        <time>2026-07-02T14:14:22Z</time>
      </trkpt>
      <trkpt lat="53.541654031723738" lon="-10.007674964144826">
        <ele>20.32</ele>
        <time>2026-07-02T14:14:23Z</time>
      </trkpt>
      <trkpt lat="53.541742041707039" lon="-10.007621990516782">
        <ele>20.32</ele>
        <time>2026-07-02T14:14:24Z</time>
      </trkpt>
      <trkpt lat="53.541883025318384" lon="-10.007443958893418">
        <ele>20.32</ele>
        <time>2026-07-02T14:14:25Z</time>
      </trkpt>
      <trkpt lat="53.543102005496621" lon="-10.00609003007412">
        <ele>16</ele>
        <time>2026-07-02T14:14:34Z</time>
      </trkpt>
      <trkpt lat="53.543223040178418" lon="-10.005944017320871">
        <ele>15.52</ele>
        <time>2026-07-02T14:14:35Z</time>
      </trkpt>
      <trkpt lat="53.543308032676578" lon="-10.005761040374637">
        <ele>15.039999999999999</ele>
        <time>2026-07-02T14:14:36Z</time>
      </trkpt>
      <trkpt lat="53.543383972719312" lon="-10.00559801235795">
        <ele>14.56</ele>
        <time>2026-07-02T14:14:37Z</time>
      </trkpt>
      <trkpt lat="53.543450022116303" lon="-10.005455017089844">
        <ele>14.56</ele>
        <time>2026-07-02T14:14:38Z</time>
      </trkpt>
      <trkpt lat="53.543499978259206" lon="-10.005310010164976">
        <ele>14.08</ele>
        <time>2026-07-02T14:14:39Z</time>
      </trkpt>
      <trkpt lat="53.54352998547256" lon="-10.00519098713994">
        <ele>14.08</ele>
        <time>2026-07-02T14:14:40Z</time>
      </trkpt>
      <trkpt lat="53.543554041534662" lon="-10.005095014348626">
        <ele>13.6</ele>
        <time>2026-07-02T14:14:41Z</time>
      </trkpt>
      <trkpt lat="53.543574996292591" lon="-10.005010021850467">
        <ele>12.630000000000001</ele>
        <time>2026-07-02T14:14:42Z</time>
      </trkpt>
      <trkpt lat="53.54359402321279" lon="-10.004937015473843">
        <ele>12.15</ele>
        <time>2026-07-02T14:14:43Z</time>
      </trkpt>
      <trkpt lat="53.543616989627481" lon="-10.004855040460825">
        <ele>11.67</ele>
        <time>2026-07-02T14:14:44Z</time>
      </trkpt>
      <trkpt lat="53.543641967698932" lon="-10.004765018820763">
        <ele>11.67</ele>
        <time>2026-07-02T14:14:45Z</time>
      </trkpt>
      <trkpt lat="53.543669963255525" lon="-10.004664016887546">
        <ele>11.19</ele>
        <time>2026-07-02T14:14:46Z</time>
      </trkpt>
      <trkpt lat="53.543699970468879" lon="-10.004556979984045">
        <ele>10.710000000000001</ele>
        <time>2026-07-02T14:14:47Z</time>
      </trkpt>
      <trkpt lat="53.543731989338994" lon="-10.004441980272532">
        <ele>10.710000000000001</ele>
        <time>2026-07-02T14:14:48Z</time>
      </trkpt>
      <trkpt lat="53.54376601986587" lon="-10.004318011924624">
        <ele>10.23</ele>
        <time>2026-07-02T14:14:49Z</time>
      </trkpt>
      <trkpt lat="53.543798960745335" lon="-10.004198988899589">
        <ele>9.27</ele>
        <time>2026-07-02T14:14:50Z</time>
      </trkpt>
      <trkpt lat="53.543816981837153" lon="-10.004068985581398">
        <ele>8.310000000000001</ele>
        <time>2026-07-02T14:14:51Z</time>
      </trkpt>
      <trkpt lat="53.543842965736985" lon="-10.003835968673229">
        <ele>6.39</ele>
        <time>2026-07-02T14:14:53Z</time>
      </trkpt>
      <trkpt lat="53.543818993493915" lon="-10.003725998103619">
        <ele>5.91</ele>
        <time>2026-07-02T14:14:54Z</time>
      </trkpt>
      <trkpt lat="53.543758979067206" lon="-10.003446964547038">
        <ele>4.46</ele>
        <time>2026-07-02T14:14:56Z</time>
      </trkpt>
      <trkpt lat="53.5437230207026" lon="-10.003276979550719">
        <ele>3.98</ele>
        <time>2026-07-02T14:14:57Z</time>
      </trkpt>
      <trkpt lat="53.543715979903936" lon="-10.003096014261246">
        <ele>3.5</ele>
        <time>2026-07-02T14:14:58Z</time>
      </trkpt>
      <trkpt lat="53.543715979903936" lon="-10.002903984859586">
        <ele>3.5</ele>
        <time>2026-07-02T14:14:59Z</time>
      </trkpt>
      <trkpt lat="53.5437230207026" lon="-10.002713967114687">
        <ele>3.5</ele>
        <time>2026-07-02T14:15:00Z</time>
      </trkpt>
      <trkpt lat="53.54374598711729" lon="-10.002522021532059">
        <ele>3.5</ele>
        <time>2026-07-02T14:15:01Z</time>
      </trkpt>
      <trkpt lat="53.54391798377037" lon="-10.000880006700754">
        <ele>1.58</ele>
        <time>2026-07-02T14:15:09Z</time>
      </trkpt>
      <trkpt lat="53.543943967670202" lon="-9.999002041295171">
        <ele>-2.27</ele>
        <time>2026-07-02T14:15:18Z</time>
      </trkpt>
      <trkpt lat="53.543934999033809" lon="-9.997608968988061">
        <ele>-1.3</ele>
        <time>2026-07-02T14:15:26Z</time>
      </trkpt>
      <trkpt lat="53.543922007083893" lon="-9.997332030907273">
        <ele>-1.3</ele>
        <time>2026-07-02T14:15:28Z</time>
      </trkpt>
      <trkpt lat="53.543905997648835" lon="-9.997027013450861">
        <ele>-1.79</ele>
        <time>2026-07-02T14:15:30Z</time>
      </trkpt>
      <trkpt lat="53.543890994042158" lon="-9.996718978509307">
        <ele>-1.79</ele>
        <time>2026-07-02T14:15:32Z</time>
      </trkpt>
      <trkpt lat="53.543905997648835" lon="-9.996592998504639">
        <ele>-1.79</ele>
        <time>2026-07-02T14:15:33Z</time>
      </trkpt>
      <trkpt lat="53.543941034004092" lon="-9.99646701849997">
        <ele>-1.3</ele>
        <time>2026-07-02T14:15:34Z</time>
      </trkpt>
      <trkpt lat="53.54408897459507" lon="-9.995944993570447">
        <ele>-0.82</ele>
        <time>2026-07-02T14:15:38Z</time>
      </trkpt>
      <trkpt lat="53.544223001226783" lon="-9.994888035580516">
        <ele>-1.79</ele>
        <time>2026-07-02T14:15:44Z</time>
      </trkpt>
      <trkpt lat="53.544214032590389" lon="-9.994699023663998">
        <ele>-1.79</ele>
        <time>2026-07-02T14:15:45Z</time>
      </trkpt>
      <trkpt lat="53.544186037033796" lon="-9.994515040889382">
        <ele>-1.79</ele>
        <time>2026-07-02T14:15:46Z</time>
      </trkpt>
      <trkpt lat="53.543812958523631" lon="-9.992805970832706">
        <ele>-1.79</ele>
        <time>2026-07-02T14:15:53Z</time>
      </trkpt>
      <trkpt lat="53.543454967439175" lon="-9.990749973803759">
        <ele>2.06</ele>
        <time>2026-07-02T14:16:01Z</time>
      </trkpt>
      <trkpt lat="53.543510036543012" lon="-9.987543979659677">
        <ele>8.789999999999999</ele>
        <time>2026-07-02T14:16:12Z</time>
      </trkpt>
      <trkpt lat="53.543580025434494" lon="-9.984265984967351">
        <ele>11.67</ele>
        <time>2026-07-02T14:16:23Z</time>
      </trkpt>
      <trkpt lat="53.543542977422476" lon="-9.984030034393072">
        <ele>11.67</ele>
        <time>2026-07-02T14:16:24Z</time>
      </trkpt>
      <trkpt lat="53.543406017124653" lon="-9.983029989525676">
        <ele>10.23</ele>
        <time>2026-07-02T14:16:28Z</time>
      </trkpt>
      <trkpt lat="53.543401993811131" lon="-9.98275900259614">
        <ele>9.75</ele>
        <time>2026-07-02T14:16:29Z</time>
      </trkpt>
      <trkpt lat="53.543631993234158" lon="-9.979971013963223">
        <ele>7.35</ele>
        <time>2026-07-02T14:16:38Z</time>
      </trkpt>
      <trkpt lat="53.543671974912286" lon="-9.979689968749881">
        <ele>7.35</ele>
        <time>2026-07-02T14:16:39Z</time>
      </trkpt>
      <trkpt lat="53.543726038187742" lon="-9.9794299621135">
        <ele>6.87</ele>
        <time>2026-07-02T14:16:40Z</time>
      </trkpt>
      <trkpt lat="53.543942039832473" lon="-9.978710962459445">
        <ele>7.35</ele>
        <time>2026-07-02T14:16:43Z</time>
      </trkpt>
      <trkpt lat="53.544006999582052" lon="-9.978493032976985">
        <ele>7.83</ele>
        <time>2026-07-02T14:16:44Z</time>
      </trkpt>
      <trkpt lat="53.544081011787057" lon="-9.9782470241189">
        <ele>8.310000000000001</ele>
        <time>2026-07-02T14:16:45Z</time>
      </trkpt>
      <trkpt lat="53.544167010113597" lon="-9.978128001093864">
        <ele>8.789999999999999</ele>
        <time>2026-07-02T14:16:46Z</time>
      </trkpt>
      <trkpt lat="53.544275974854827" lon="-9.977978970855475">
        <ele>9.27</ele>
        <time>2026-07-02T14:16:47Z</time>
      </trkpt>
      <trkpt lat="53.544386029243469" lon="-9.977827006950975">
        <ele>10.23</ele>
        <time>2026-07-02T14:16:48Z</time>
      </trkpt>
      <trkpt lat="53.5444759670645" lon="-9.977677976712585">
        <ele>10.710000000000001</ele>
        <time>2026-07-02T14:16:49Z</time>
      </trkpt>
      <trkpt lat="53.544555008411407" lon="-9.977530958130956">
        <ele>11.67</ele>
        <time>2026-07-02T14:16:50Z</time>
      </trkpt>
      <trkpt lat="53.544597001746297" lon="-9.977373965084553">
        <ele>12.630000000000001</ele>
        <time>2026-07-02T14:16:51Z</time>
      </trkpt>
      <trkpt lat="53.544632960110903" lon="-9.977185036987066">
        <ele>13.119999999999999</ele>
        <time>2026-07-02T14:16:52Z</time>
      </trkpt>
      <trkpt lat="53.544644024223089" lon="-9.976982027292252">
        <ele>14.56</ele>
        <time>2026-07-02T14:16:53Z</time>
      </trkpt>
      <trkpt lat="53.544650981202722" lon="-9.976752027869225">
        <ele>15.52</ele>
        <time>2026-07-02T14:16:54Z</time>
      </trkpt>
      <trkpt lat="53.544658022001386" lon="-9.976511970162392">
        <ele>16.48</ele>
        <time>2026-07-02T14:16:55Z</time>
      </trkpt>
      <trkpt lat="53.544594990089536" lon="-9.975231969729066">
        <ele>20.32</ele>
        <time>2026-07-02T14:17:00Z</time>
      </trkpt>
      <trkpt lat="53.54458199813962" lon="-9.974988978356123">
        <ele>21.289999999999999</ele>
        <time>2026-07-02T14:17:01Z</time>
      </trkpt>
      <trkpt lat="53.544558025896549" lon="-9.974537026137114">
        <ele>21.77</ele>
        <time>2026-07-02T14:17:03Z</time>
      </trkpt>
      <trkpt lat="53.544587027281523" lon="-9.974344996735454">
        <ele>21.77</ele>
        <time>2026-07-02T14:17:04Z</time>
      </trkpt>
      <trkpt lat="53.544638995081186" lon="-9.974190015345812">
        <ele>21.77</ele>
        <time>2026-07-02T14:17:05Z</time>
      </trkpt>
      <trkpt lat="53.544685011729598" lon="-9.974061017856002">
        <ele>21.77</ele>
        <time>2026-07-02T14:17:06Z</time>
      </trkpt>
      <trkpt lat="53.544771010056138" lon="-9.974024975672364">
        <ele>21.289999999999999</ele>
        <time>2026-07-02T14:17:07Z</time>
      </trkpt>
      <trkpt lat="53.54486396536231" lon="-9.973987005650997">
        <ele>21.77</ele>
        <time>2026-07-02T14:17:08Z</time>
      </trkpt>
      <trkpt lat="53.544962033629417" lon="-9.973960015922785">
        <ele>21.77</ele>
        <time>2026-07-02T14:17:09Z</time>
      </trkpt>
      <trkpt lat="53.545064963400364" lon="-9.973981976509094">
        <ele>21.77</ele>
        <time>2026-07-02T14:17:10Z</time>
      </trkpt>
      <trkpt lat="53.545180968940258" lon="-9.974007038399577">
        <ele>22.25</ele>
        <time>2026-07-02T14:17:11Z</time>
      </trkpt>
      <trkpt lat="53.546104989945889" lon="-9.973977031186223">
        <ele>22.25</ele>
        <time>2026-07-02T14:17:17Z</time>
      </trkpt>
      <trkpt lat="53.546376982703805" lon="-9.973889021202922">
        <ele>22.73</ele>
        <time>2026-07-02T14:17:19Z</time>
      </trkpt>
      <trkpt lat="53.546483013778925" lon="-9.973815008997917">
        <ele>22.73</ele>
        <time>2026-07-02T14:17:20Z</time>
      </trkpt>
      <trkpt lat="53.546565994620323" lon="-9.973705038428307">
        <ele>22.73</ele>
        <time>2026-07-02T14:17:21Z</time>
      </trkpt>
      <trkpt lat="53.546635983511806" lon="-9.973565982654691">
        <ele>22.73</ele>
        <time>2026-07-02T14:17:22Z</time>
      </trkpt>
      <trkpt lat="53.546705972403288" lon="-9.973408989608288">
        <ele>22.25</ele>
        <time>2026-07-02T14:17:23Z</time>
      </trkpt>
      <trkpt lat="53.546750983223319" lon="-9.973202040418983">
        <ele>21.77</ele>
        <time>2026-07-02T14:17:24Z</time>
      </trkpt>
      <trkpt lat="53.546801023185253" lon="-9.972975980490446">
        <ele>21.289999999999999</ele>
        <time>2026-07-02T14:17:25Z</time>
      </trkpt>
      <trkpt lat="53.546855002641678" lon="-9.972731983289123">
        <ele>20.809999999999999</ele>
        <time>2026-07-02T14:17:26Z</time>
      </trkpt>
      <trkpt lat="53.546911999583244" lon="-9.972477005794644">
        <ele>20.809999999999999</ele>
        <time>2026-07-02T14:17:27Z</time>
      </trkpt>
      <trkpt lat="53.547143004834652" lon="-9.971429016441107">
        <ele>19.359999999999999</ele>
        <time>2026-07-02T14:17:31Z</time>
      </trkpt>
      <trkpt lat="53.547145016491413" lon="-9.971161969006062">
        <ele>18.879999999999999</ele>
        <time>2026-07-02T14:17:32Z</time>
      </trkpt>
      <trkpt lat="53.547140993177891" lon="-9.970916965976358">
        <ele>18.879999999999999</ele>
        <time>2026-07-02T14:17:33Z</time>
      </trkpt>
      <trkpt lat="53.547136969864368" lon="-9.97068403288722">
        <ele>18.399999999999999</ele>
        <time>2026-07-02T14:17:34Z</time>
      </trkpt>
      <trkpt lat="53.547134036198258" lon="-9.970469959080219">
        <ele>17.920000000000002</ele>
        <time>2026-07-02T14:17:35Z</time>
      </trkpt>
      <trkpt lat="53.547128001227975" lon="-9.970136024057865">
        <ele>16.48</ele>
        <time>2026-07-02T14:17:37Z</time>
      </trkpt>
      <trkpt lat="53.547180974856019" lon="-9.970021024346352">
        <ele>15.52</ele>
        <time>2026-07-02T14:17:38Z</time>
      </trkpt>
      <trkpt lat="53.547256998717785" lon="-9.969856990501285">
        <ele>14.56</ele>
        <time>2026-07-02T14:17:39Z</time>
      </trkpt>
      <trkpt lat="53.547307960689068" lon="-9.969822959974408">
        <ele>14.08</ele>
        <time>2026-07-02T14:17:40Z</time>
      </trkpt>
      <trkpt lat="53.54741801507771" lon="-9.969749031588435">
        <ele>13.6</ele>
        <time>2026-07-02T14:17:41Z</time>
      </trkpt>
      <trkpt lat="53.547541983425617" lon="-9.969667978584766">
        <ele>12.630000000000001</ele>
        <time>2026-07-02T14:17:42Z</time>
      </trkpt>
      <trkpt lat="53.548586033284664" lon="-9.969019973650575">
        <ele>10.23</ele>
        <time>2026-07-02T14:17:50Z</time>
      </trkpt>
      <trkpt lat="53.548717964440584" lon="-9.968987032771111">
        <ele>9.75</ele>
        <time>2026-07-02T14:17:51Z</time>
      </trkpt>
      <trkpt lat="53.548848973587155" lon="-9.968982003629208">
        <ele>8.789999999999999</ele>
        <time>2026-07-02T14:17:52Z</time>
      </trkpt>
      <trkpt lat="53.548977971076965" lon="-9.96898896060884">
        <ele>8.310000000000001</ele>
        <time>2026-07-02T14:17:53Z</time>
      </trkpt>
      <trkpt lat="53.549106968566775" lon="-9.968996001407504">
        <ele>7.83</ele>
        <time>2026-07-02T14:17:54Z</time>
      </trkpt>
      <trkpt lat="53.549677021801472" lon="-9.968955013900995">
        <ele>6.87</ele>
        <time>2026-07-02T14:17:59Z</time>
      </trkpt>
      <trkpt lat="53.549766959622502" lon="-9.968887958675623">
        <ele>6.87</ele>
        <time>2026-07-02T14:18:00Z</time>
      </trkpt>
      <trkpt lat="53.549847006797791" lon="-9.968801038339734">
        <ele>6.39</ele>
        <time>2026-07-02T14:18:01Z</time>
      </trkpt>
      <trkpt lat="53.549933005124331" lon="-9.96870799921453">
        <ele>6.39</ele>
        <time>2026-07-02T14:18:02Z</time>
      </trkpt>
      <trkpt lat="53.550002994015813" lon="-9.968574978411198">
        <ele>5.91</ele>
        <time>2026-07-02T14:18:03Z</time>
      </trkpt>
      <trkpt lat="53.550044987350702" lon="-9.968415973708034">
        <ele>5.42</ele>
        <time>2026-07-02T14:18:04Z</time>
      </trkpt>
      <trkpt lat="53.550086980685592" lon="-9.968260992318392">
        <ele>5.42</ele>
        <time>2026-07-02T14:18:05Z</time>
      </trkpt>
      <trkpt lat="53.550127968192101" lon="-9.968107016757131">
        <ele>4.94</ele>
        <time>2026-07-02T14:18:06Z</time>
      </trkpt>
      <trkpt lat="53.5504250228405" lon="-9.966763984411955">
        <ele>3.5</ele>
        <time>2026-07-02T14:18:13Z</time>
      </trkpt>
      <trkpt lat="53.550422005355358" lon="-9.966564998030663">
        <ele>3.5</ele>
        <time>2026-07-02T14:18:14Z</time>
      </trkpt>
      <trkpt lat="53.550399960950017" lon="-9.96636500582099">
        <ele>3.5</ele>
        <time>2026-07-02T14:18:15Z</time>
      </trkpt>
      <trkpt lat="53.550265012308955" lon="-9.965072013437748">
        <ele>3.5</ele>
        <time>2026-07-02T14:18:21Z</time>
      </trkpt>
      <trkpt lat="53.550286972895265" lon="-9.964859029278159">
        <ele>3.5</ele>
        <time>2026-07-02T14:18:22Z</time>
      </trkpt>
      <trkpt lat="53.550308011472225" lon="-9.96464503929019">
        <ele>3.02</ele>
        <time>2026-07-02T14:18:23Z</time>
      </trkpt>
      <trkpt lat="53.550330977886915" lon="-9.964425014331937">
        <ele>3.5</ele>
        <time>2026-07-02T14:18:24Z</time>
      </trkpt>
      <trkpt lat="53.550352016463876" lon="-9.964212030172348">
        <ele>3.5</ele>
        <time>2026-07-02T14:18:25Z</time>
      </trkpt>
      <trkpt lat="53.550372971221805" lon="-9.964008014649153">
        <ele>3.98</ele>
        <time>2026-07-02T14:18:26Z</time>
      </trkpt>
      <trkpt lat="53.550444971770048" lon="-9.962588958442211">
        <ele>3.5</ele>
        <time>2026-07-02T14:18:33Z</time>
      </trkpt>
      <trkpt lat="53.550451006740332" lon="-9.962399024516344">
        <ele>3.02</ele>
        <time>2026-07-02T14:18:34Z</time>
      </trkpt>
      <trkpt lat="53.550574975088239" lon="-9.961437033489347">
        <ele>1.58</ele>
        <time>2026-07-02T14:18:39Z</time>
      </trkpt>
      <trkpt lat="53.550603976473212" lon="-9.961237963289022">
        <ele>1.1</ele>
        <time>2026-07-02T14:18:40Z</time>
      </trkpt>
      <trkpt lat="53.550671031698585" lon="-9.960728008300066">
        <ele>0.62</ele>
        <time>2026-07-02T14:18:44Z</time>
      </trkpt>
      <trkpt lat="53.550673965364695" lon="-9.960621977224946">
        <ele>0.62</ele>
        <time>2026-07-02T14:18:45Z</time>
      </trkpt>
      <trkpt lat="53.550676982849836" lon="-9.960514018312097">
        <ele>0.62</ele>
        <time>2026-07-02T14:18:46Z</time>
      </trkpt>
      <trkpt lat="53.550681006163359" lon="-9.960409998893738">
        <ele>0.62</ele>
        <time>2026-07-02T14:18:47Z</time>
      </trkpt>
      <trkpt lat="53.5506840236485" lon="-9.960305979475379">
        <ele>0.62</ele>
        <time>2026-07-02T14:18:48Z</time>
      </trkpt>
      <trkpt lat="53.550687041133642" lon="-9.960202965885401">
        <ele>0.62</ele>
        <time>2026-07-02T14:18:49Z</time>
      </trkpt>
      <trkpt lat="53.550689974799752" lon="-9.960114033892751">
        <ele>0.62</ele>
        <time>2026-07-02T14:18:50Z</time>
      </trkpt>
      <trkpt lat="53.550717970356345" lon="-9.960011020302773">
        <ele>0.62</ele>
        <time>2026-07-02T14:18:51Z</time>
      </trkpt>
      <trkpt lat="53.550754012539983" lon="-9.959879005327821">
        <ele>0.62</ele>
        <time>2026-07-02T14:18:52Z</time>
      </trkpt>
      <trkpt lat="53.550948975607753" lon="-9.959551021456718">
        <ele>0.62</ele>
        <time>2026-07-02T14:18:55Z</time>
      </trkpt>
      <trkpt lat="53.550998009741306" lon="-9.95940500870347">
        <ele>0.14</ele>
        <time>2026-07-02T14:18:56Z</time>
      </trkpt>
      <trkpt lat="53.551046960055828" lon="-9.959256984293461">
        <ele>0.14</ele>
        <time>2026-07-02T14:18:57Z</time>
      </trkpt>
      <trkpt lat="53.551074033603072" lon="-9.959086999297142">
        <ele>-0.34</ele>
        <time>2026-07-02T14:18:58Z</time>
      </trkpt>
      <trkpt lat="53.551099011674523" lon="-9.958904022350907">
        <ele>-0.34</ele>
        <time>2026-07-02T14:18:59Z</time>
      </trkpt>
      <trkpt lat="53.551123989745975" lon="-9.958715010434389">
        <ele>-0.34</ele>
        <time>2026-07-02T14:19:00Z</time>
      </trkpt>
      <trkpt lat="53.55117998085916" lon="-9.95811402797699">
        <ele>1.1</ele>
        <time>2026-07-02T14:19:03Z</time>
      </trkpt>
      <trkpt lat="53.55117604136467" lon="-9.95792199857533">
        <ele>1.1</ele>
        <time>2026-07-02T14:19:04Z</time>
      </trkpt>
      <trkpt lat="53.551169000566006" lon="-9.957552021369338">
        <ele>2.06</ele>
        <time>2026-07-02T14:19:06Z</time>
      </trkpt>
      <trkpt lat="53.551164977252483" lon="-9.957362003624439">
        <ele>2.54</ele>
        <time>2026-07-02T14:19:07Z</time>
      </trkpt>
      <trkpt lat="53.551166988909245" lon="-9.957161005586386">
        <ele>3.02</ele>
        <time>2026-07-02T14:19:08Z</time>
      </trkpt>
      <trkpt lat="53.551193978637457" lon="-9.956966964527965">
        <ele>3.98</ele>
        <time>2026-07-02T14:19:09Z</time>
      </trkpt>
      <trkpt lat="53.551220968365669" lon="-9.956769989803433">
        <ele>4.94</ele>
        <time>2026-07-02T14:19:10Z</time>
      </trkpt>
      <trkpt lat="53.551320964470506" lon="-9.955630972981453">
        <ele>8.789999999999999</ele>
        <time>2026-07-02T14:19:16Z</time>
      </trkpt>
      <trkpt lat="53.551338985562325" lon="-9.955417988821864">
        <ele>9.27</ele>
        <time>2026-07-02T14:19:17Z</time>
      </trkpt>
      <trkpt lat="53.551398999989033" lon="-9.955225959420204">
        <ele>9.27</ele>
        <time>2026-07-02T14:19:18Z</time>
      </trkpt>
      <trkpt lat="53.551771994680166" lon="-9.953606994822621">
        <ele>12.630000000000001</ele>
        <time>2026-07-02T14:19:25Z</time>
      </trkpt>
      <trkpt lat="53.552026972174644" lon="-9.95162702165544">
        <ele>16.48</ele>
        <time>2026-07-02T14:19:35Z</time>
      </trkpt>
      <trkpt lat="53.552095033228397" lon="-9.951294008642435">
        <ele>16.48</ele>
        <time>2026-07-02T14:19:37Z</time>
      </trkpt>
      <trkpt lat="53.552124034613371" lon="-9.95115403085947">
        <ele>16.960000000000001</ele>
        <time>2026-07-02T14:19:38Z</time>
      </trkpt>
      <trkpt lat="53.552149012684822" lon="-9.951030984520912">
        <ele>16.960000000000001</ele>
        <time>2026-07-02T14:19:39Z</time>
      </trkpt>
      <trkpt lat="53.552171979099512" lon="-9.950920008122921">
        <ele>16.960000000000001</ele>
        <time>2026-07-02T14:19:40Z</time>
      </trkpt>
      <trkpt lat="53.552194023504853" lon="-9.950813977047801">
        <ele>17.440000000000001</ele>
        <time>2026-07-02T14:19:41Z</time>
      </trkpt>
      <trkpt lat="53.552270969375968" lon="-9.950479036197066">
        <ele>18.399999999999999</ele>
        <time>2026-07-02T14:19:44Z</time>
      </trkpt>
      <trkpt lat="53.552321009337902" lon="-9.950265968218446">
        <ele>17.920000000000002</ele>
        <time>2026-07-02T14:19:46Z</time>
      </trkpt>
      <trkpt lat="53.552358979359269" lon="-9.950155997648835">
        <ele>17.920000000000002</ele>
        <time>2026-07-02T14:19:47Z</time>
      </trkpt>
      <trkpt lat="53.552389992401004" lon="-9.950065976008773">
        <ele>18.399999999999999</ele>
        <time>2026-07-02T14:19:48Z</time>
      </trkpt>
      <trkpt lat="53.552462998777628" lon="-9.949858020991087">
        <ele>18.399999999999999</ele>
        <time>2026-07-02T14:19:50Z</time>
      </trkpt>
      <trkpt lat="53.55250901542604" lon="-9.949750984087586">
        <ele>18.879999999999999</ele>
        <time>2026-07-02T14:19:51Z</time>
      </trkpt>
      <trkpt lat="53.552776984870434" lon="-9.949401961639524">
        <ele>21.77</ele>
        <time>2026-07-02T14:19:56Z</time>
      </trkpt>
      <trkpt lat="53.55281101539731" lon="-9.949356028810144">
        <ele>22.25</ele>
        <time>2026-07-02T14:19:57Z</time>
      </trkpt>
      <trkpt lat="53.55291998013854" lon="-9.949214961379767">
        <ele>23.210000000000001</ele>
        <time>2026-07-02T14:20:00Z</time>
      </trkpt>
      <trkpt lat="53.552974965423346" lon="-9.949143966659904">
        <ele>22.73</ele>
        <time>2026-07-02T14:20:01Z</time>
      </trkpt>
      <trkpt lat="53.553036991506815" lon="-9.949061991646886">
        <ele>22.73</ele>
        <time>2026-07-02T14:20:02Z</time>
      </trkpt>
      <trkpt lat="53.553101029247046" lon="-9.948978004977107">
        <ele>23.690000000000001</ele>
        <time>2026-07-02T14:20:03Z</time>
      </trkpt>
      <trkpt lat="53.553158026188612" lon="-9.948902986943722">
        <ele>24.170000000000002</ele>
        <time>2026-07-02T14:20:04Z</time>
      </trkpt>
      <trkpt lat="53.553214017301798" lon="-9.948829980567098">
        <ele>25.129999999999999</ele>
        <time>2026-07-02T14:20:05Z</time>
      </trkpt>
      <trkpt lat="53.553419038653374" lon="-9.948561005294323">
        <ele>25.609999999999999</ele>
        <time>2026-07-02T14:20:09Z</time>
      </trkpt>
      <trkpt lat="53.553462037816644" lon="-9.948505014181137">
        <ele>25.609999999999999</ele>
        <time>2026-07-02T14:20:10Z</time>
      </trkpt>
      <trkpt lat="53.553501013666391" lon="-9.948453968390822">
        <ele>26.09</ele>
        <time>2026-07-02T14:20:11Z</time>
      </trkpt>
      <trkpt lat="53.553532026708126" lon="-9.948412980884314">
        <ele>26.09</ele>
        <time>2026-07-02T14:20:12Z</time>
      </trkpt>
      <trkpt lat="53.553657000884414" lon="-9.948431001976132">
        <ele>26.09</ele>
        <time>2026-07-02T14:20:13Z</time>
      </trkpt>
      <trkpt lat="53.553692037239671" lon="-9.948515994474292">
        <ele>26.09</ele>
        <time>2026-07-02T14:20:14Z</time>
      </trkpt>
      <trkpt lat="53.55373696424067" lon="-9.948624959215522">
        <ele>26.57</ele>
        <time>2026-07-02T14:20:15Z</time>
      </trkpt>
      <trkpt lat="53.553785998374224" lon="-9.948742976412177">
        <ele>26.57</ele>
        <time>2026-07-02T14:20:16Z</time>
      </trkpt>
      <trkpt lat="53.554307017475367" lon="-9.950092965736985">
        <ele>26.57</ele>
        <time>2026-07-02T14:20:25Z</time>
      </trkpt>
      <trkpt lat="53.554524024948478" lon="-9.950503008440137">
        <ele>26.09</ele>
        <time>2026-07-02T14:20:28Z</time>
      </trkpt>
      <trkpt lat="53.554598037153482" lon="-9.950642986223102">
        <ele>26.09</ele>
        <time>2026-07-02T14:20:29Z</time>
      </trkpt>
      <trkpt lat="53.554670037701726" lon="-9.950767960399389">
        <ele>26.09</ele>
        <time>2026-07-02T14:20:30Z</time>
      </trkpt>
      <trkpt lat="53.554769027978182" lon="-9.950850019231439">
        <ele>25.609999999999999</ele>
        <time>2026-07-02T14:20:31Z</time>
      </trkpt>
      <trkpt lat="53.554869024083018" lon="-9.950931994244456">
        <ele>25.129999999999999</ele>
        <time>2026-07-02T14:20:32Z</time>
      </trkpt>
      <trkpt lat="53.555137999355793" lon="-9.951167022809386">
        <ele>23.210000000000001</ele>
        <time>2026-07-02T14:20:35Z</time>
      </trkpt>
      <trkpt lat="53.555227015167475" lon="-9.951250003650785">
        <ele>22.73</ele>
        <time>2026-07-02T14:20:36Z</time>
      </trkpt>
      <trkpt lat="53.555319970473647" lon="-9.951333990320563">
        <ele>22.25</ele>
        <time>2026-07-02T14:20:37Z</time>
      </trkpt>
      <trkpt lat="53.555418038740754" lon="-9.951424011960626">
        <ele>21.77</ele>
        <time>2026-07-02T14:20:38Z</time>
      </trkpt>
      <trkpt lat="53.555518034845591" lon="-9.951515961438417">
        <ele>21.77</ele>
        <time>2026-07-02T14:20:39Z</time>
      </trkpt>
      <trkpt lat="53.55560302734375" lon="-9.951625009998679">
        <ele>21.77</ele>
        <time>2026-07-02T14:20:40Z</time>
      </trkpt>
      <trkpt lat="53.555658012628555" lon="-9.951758030802012">
        <ele>22.25</ele>
        <time>2026-07-02T14:20:41Z</time>
      </trkpt>
      <trkpt lat="53.55573202483356" lon="-9.951940001919866">
        <ele>22.25</ele>
        <time>2026-07-02T14:20:42Z</time>
      </trkpt>
      <trkpt lat="53.55573202483356" lon="-9.952021976932883">
        <ele>22.25</ele>
        <time>2026-07-02T14:20:43Z</time>
      </trkpt>
      <trkpt lat="53.555734036490321" lon="-9.952172012999654">
        <ele>22.25</ele>
        <time>2026-07-02T14:20:44Z</time>
      </trkpt>
      <trkpt lat="53.555752979591489" lon="-9.952742988243699">
        <ele>22.25</ele>
        <time>2026-07-02T14:20:47Z</time>
      </trkpt>
      <trkpt lat="53.555773012340069" lon="-9.953321004286408">
        <ele>23.210000000000001</ele>
        <time>2026-07-02T14:20:50Z</time>
      </trkpt>
      <trkpt lat="53.555795978754759" lon="-9.95347497984767">
        <ele>23.690000000000001</ele>
        <time>2026-07-02T14:20:51Z</time>
      </trkpt>
      <trkpt lat="53.555831015110016" lon="-9.953637002035976">
        <ele>24.170000000000002</ele>
        <time>2026-07-02T14:20:52Z</time>
      </trkpt>
      <trkpt lat="53.555880971252918" lon="-9.953767005354166">
        <ele>25.129999999999999</ele>
        <time>2026-07-02T14:20:53Z</time>
      </trkpt>
      <trkpt lat="53.555948026478291" lon="-9.953913018107414">
        <ele>26.09</ele>
        <time>2026-07-02T14:20:54Z</time>
      </trkpt>
      <trkpt lat="53.556023966521025" lon="-9.954049978405237">
        <ele>27.050000000000001</ele>
        <time>2026-07-02T14:20:55Z</time>
      </trkpt>
      <trkpt lat="53.557006996124983" lon="-9.955686964094639">
        <ele>31.859999999999999</ele>
        <time>2026-07-02T14:21:05Z</time>
      </trkpt>
      <trkpt lat="53.558007040992379" lon="-9.957354040816426">
        <ele>29.460000000000001</ele>
        <time>2026-07-02T14:21:15Z</time>
      </trkpt>
      <trkpt lat="53.558693015947938" lon="-9.958355007693172">
        <ele>24.170000000000002</ele>
        <time>2026-07-02T14:21:22Z</time>
      </trkpt>
      <trkpt lat="53.55880499817431" lon="-9.958431031554937">
        <ele>23.690000000000001</ele>
        <time>2026-07-02T14:21:23Z</time>
      </trkpt>
      <trkpt lat="53.558931984007359" lon="-9.958461038768292">
        <ele>23.210000000000001</ele>
        <time>2026-07-02T14:21:24Z</time>
      </trkpt>
      <trkpt lat="53.559459960088134" lon="-9.958562040701509">
        <ele>23.690000000000001</ele>
        <time>2026-07-02T14:21:28Z</time>
      </trkpt>
      <trkpt lat="53.559593986719847" lon="-9.958579977974296">
        <ele>23.690000000000001</ele>
        <time>2026-07-02T14:21:29Z</time>
      </trkpt>
      <trkpt lat="53.56056796386838" lon="-9.95873898267746">
        <ele>24.649999999999999</ele>
        <time>2026-07-02T14:21:36Z</time>
      </trkpt>
      <trkpt lat="53.560676006600261" lon="-9.958808971568942">
        <ele>24.649999999999999</ele>
        <time>2026-07-02T14:21:37Z</time>
      </trkpt>
      <trkpt lat="53.560731997713447" lon="-9.958849037066102">
        <ele>24.649999999999999</ele>
        <time>2026-07-02T14:21:38Z</time>
      </trkpt>
      <trkpt lat="53.560837022960186" lon="-9.959035031497479">
        <ele>23.690000000000001</ele>
        <time>2026-07-02T14:21:39Z</time>
      </trkpt>
      <trkpt lat="53.560918997973204" lon="-9.959180038422346">
        <ele>23.210000000000001</ele>
        <time>2026-07-02T14:21:40Z</time>
      </trkpt>
      <trkpt lat="53.561011031270027" lon="-9.959342982620001">
        <ele>22.25</ele>
        <time>2026-07-02T14:21:41Z</time>
      </trkpt>
      <trkpt lat="53.561066016554832" lon="-9.959529982879758">
        <ele>21.289999999999999</ele>
        <time>2026-07-02T14:21:42Z</time>
      </trkpt>
      <trkpt lat="53.561127036809921" lon="-9.959741039201617">
        <ele>20.809999999999999</ele>
        <time>2026-07-02T14:21:43Z</time>
      </trkpt>
      <trkpt lat="53.561429036781192" lon="-9.960776958614588">
        <ele>16.48</ele>
        <time>2026-07-02T14:21:48Z</time>
      </trkpt>
      <trkpt lat="53.561520986258984" lon="-9.960926994681358">
        <ele>15.52</ele>
        <time>2026-07-02T14:21:49Z</time>
      </trkpt>
      <trkpt lat="53.561628023162484" lon="-9.960997989401221">
        <ele>15.039999999999999</ele>
        <time>2026-07-02T14:21:50Z</time>
      </trkpt>
      <trkpt lat="53.561745034530759" lon="-9.96105900965631">
        <ele>15.039999999999999</ele>
        <time>2026-07-02T14:21:51Z</time>
      </trkpt>
      <trkpt lat="53.561876965686679" lon="-9.961056997999549">
        <ele>15.039999999999999</ele>
        <time>2026-07-02T14:21:52Z</time>
      </trkpt>
      <trkpt lat="53.562018033117056" lon="-9.961054986342788">
        <ele>15.52</ele>
        <time>2026-07-02T14:21:53Z</time>
      </trkpt>
      <trkpt lat="53.562163962051272" lon="-9.961052974686027">
        <ele>16.960000000000001</ele>
        <time>2026-07-02T14:21:54Z</time>
      </trkpt>
      <trkpt lat="53.563580000773072" lon="-9.961052974686027">
        <ele>14.56</ele>
        <time>2026-07-02T14:22:04Z</time>
      </trkpt>
      <trkpt lat="53.564161034300923" lon="-9.961126986891031">
        <ele>10.710000000000001</ele>
        <time>2026-07-02T14:22:08Z</time>
      </trkpt>
      <trkpt lat="53.564301012083888" lon="-9.961093962192535">
        <ele>9.75</ele>
        <time>2026-07-02T14:22:09Z</time>
      </trkpt>
      <trkpt lat="53.565821992233396" lon="-9.961008969694376">
        <ele>3.98</ele>
        <time>2026-07-02T14:22:19Z</time>
      </trkpt>
      <trkpt lat="53.567351019009948" lon="-9.96097200550139">
        <ele>3.98</ele>
        <time>2026-07-02T14:22:29Z</time>
      </trkpt>
      <trkpt lat="53.56830102391541" lon="-9.960336992517114">
        <ele>7.35</ele>
        <time>2026-07-02T14:22:36Z</time>
      </trkpt>
      <trkpt lat="53.569259997457266" lon="-9.959698962047696">
        <ele>8.789999999999999</ele>
        <time>2026-07-02T14:22:43Z</time>
      </trkpt>
      <trkpt lat="53.569384971633554" lon="-9.959649005904794">
        <ele>8.789999999999999</ele>
        <time>2026-07-02T14:22:44Z</time>
      </trkpt>
      <trkpt lat="53.569523021578789" lon="-9.959669960662723">
        <ele>8.789999999999999</ele>
        <time>2026-07-02T14:22:45Z</time>
      </trkpt>
      <trkpt lat="53.56965696439147" lon="-9.95972502976656">
        <ele>8.789999999999999</ele>
        <time>2026-07-02T14:22:46Z</time>
      </trkpt>
      <trkpt lat="53.569793002679944" lon="-9.959810022264719">
        <ele>8.789999999999999</ele>
        <time>2026-07-02T14:22:47Z</time>
      </trkpt>
      <trkpt lat="53.569930968806148" lon="-9.95989702641964">
        <ele>8.789999999999999</ele>
        <time>2026-07-02T14:22:48Z</time>
      </trkpt>
      <trkpt lat="53.570074969902635" lon="-9.95998595841229">
        <ele>8.789999999999999</ele>
        <time>2026-07-02T14:22:49Z</time>
      </trkpt>
      <trkpt lat="53.571390006691217" lon="-9.96049901470542">
        <ele>5.42</ele>
        <time>2026-07-02T14:22:58Z</time>
      </trkpt>
      <trkpt lat="53.571519004181027" lon="-9.960469007492065">
        <ele>5.42</ele>
        <time>2026-07-02T14:22:59Z</time>
      </trkpt>
      <trkpt lat="53.571635009720922" lon="-9.960437994450331">
        <ele>5.42</ele>
        <time>2026-07-02T14:23:00Z</time>
      </trkpt>
      <trkpt lat="53.57184799388051" lon="-9.960404969751835">
        <ele>5.42</ele>
        <time>2026-07-02T14:23:02Z</time>
      </trkpt>
      <trkpt lat="53.571939021348953" lon="-9.960397006943822">
        <ele>5.91</ele>
        <time>2026-07-02T14:23:03Z</time>
      </trkpt>
      <trkpt lat="53.572017978876829" lon="-9.96043598279357">
        <ele>5.91</ele>
        <time>2026-07-02T14:23:04Z</time>
      </trkpt>
      <trkpt lat="53.572094002738595" lon="-9.960512006655335">
        <ele>6.39</ele>
        <time>2026-07-02T14:23:05Z</time>
      </trkpt>
      <trkpt lat="53.572173966094851" lon="-9.960592975839973">
        <ele>6.87</ele>
        <time>2026-07-02T14:23:06Z</time>
      </trkpt>
      <trkpt lat="53.572373036295176" lon="-9.960733959451318">
        <ele>7.35</ele>
        <time>2026-07-02T14:23:08Z</time>
      </trkpt>
      <trkpt lat="53.572482001036406" lon="-9.960808977484703">
        <ele>7.35</ele>
        <time>2026-07-02T14:23:09Z</time>
      </trkpt>
      <trkpt lat="53.572602029889822" lon="-9.960860023275018">
        <ele>7.35</ele>
        <time>2026-07-02T14:23:10Z</time>
      </trkpt>
      <trkpt lat="53.572736978530884" lon="-9.960891036316752">
        <ele>7.35</ele>
        <time>2026-07-02T14:23:11Z</time>
      </trkpt>
      <trkpt lat="53.5728760343045" lon="-9.960922971367836">
        <ele>6.87</ele>
        <time>2026-07-02T14:23:12Z</time>
      </trkpt>
      <trkpt lat="53.574122004210949" lon="-9.96095197275281">
        <ele>11.19</ele>
        <time>2026-07-02T14:23:21Z</time>
      </trkpt>
      <trkpt lat="53.575119031593204" lon="-9.961276017129421">
        <ele>11.67</ele>
        <time>2026-07-02T14:23:28Z</time>
      </trkpt>
      <trkpt lat="53.576800022274256" lon="-9.961933996528387">
        <ele>18.399999999999999</ele>
        <time>2026-07-02T14:23:40Z</time>
      </trkpt>
      <trkpt lat="53.578328965231776" lon="-9.962401958182454">
        <ele>24.170000000000002</ele>
        <time>2026-07-02T14:23:52Z</time>
      </trkpt>
      <trkpt lat="53.579917000606656" lon="-9.962868997827172">
        <ele>22.73</ele>
        <time>2026-07-02T14:24:02Z</time>
      </trkpt>
      <trkpt lat="53.581333039328456" lon="-9.962804038077593">
        <ele>24.649999999999999</ele>
        <time>2026-07-02T14:24:10Z</time>
      </trkpt>
      <trkpt lat="53.582828035578132" lon="-9.962715022265911">
        <ele>26.57</ele>
        <time>2026-07-02T14:24:19Z</time>
      </trkpt>
      <trkpt lat="53.584012985229492" lon="-9.962732959538698">
        <ele>33.299999999999997</ele>
        <time>2026-07-02T14:24:28Z</time>
      </trkpt>
      <trkpt lat="53.585559027269483" lon="-9.962780987843871">
        <ele>44.359999999999999</ele>
        <time>2026-07-02T14:24:41Z</time>
      </trkpt>
      <trkpt lat="53.586063031107187" lon="-9.962789034470916">
        <ele>48.200000000000003</ele>
        <time>2026-07-02T14:24:45Z</time>
      </trkpt>
      <trkpt lat="53.586202003061771" lon="-9.962775958701968">
        <ele>48.68</ele>
        <time>2026-07-02T14:24:46Z</time>
      </trkpt>
      <trkpt lat="53.587440010160208" lon="-9.962960025295615">
        <ele>53.009999999999998</ele>
        <time>2026-07-02T14:24:56Z</time>
      </trkpt>
      <trkpt lat="53.588362019509077" lon="-9.963304018601775">
        <ele>54.450000000000003</ele>
        <time>2026-07-02T14:25:05Z</time>
      </trkpt>
      <trkpt lat="53.588538039475679" lon="-9.963425975292921">
        <ele>53.490000000000002</ele>
        <time>2026-07-02T14:25:10Z</time>
      </trkpt>
      <trkpt lat="53.588768960908055" lon="-9.963828977197409">
        <ele>50.609999999999999</ele>
        <time>2026-07-02T14:25:18Z</time>
      </trkpt>
      <trkpt lat="53.588768960908055" lon="-9.963828977197409">
        <ele>50.609999999999999</ele>
        <time>2026-07-02T14:25:19Z</time>
      </trkpt>
      <trkpt lat="53.588768960908055" lon="-9.963828977197409">
        <ele>49.649999999999999</ele>
        <time>2026-07-02T14:25:29Z</time>
      </trkpt>
      <trkpt lat="53.588760998100042" lon="-9.963815985247493">
        <ele>50.130000000000003</ele>
        <time>2026-07-02T14:25:34Z</time>
      </trkpt>
      <trkpt lat="53.588739037513733" lon="-9.963777009397745">
        <ele>50.130000000000003</ele>
        <time>2026-07-02T14:25:35Z</time>
      </trkpt>
      <trkpt lat="53.588709030300379" lon="-9.96372302994132">
        <ele>50.609999999999999</ele>
        <time>2026-07-02T14:25:36Z</time>
      </trkpt>
      <trkpt lat="53.588378028944135" lon="-9.963018028065562">
        <ele>49.649999999999999</ele>
        <time>2026-07-02T14:25:44Z</time>
      </trkpt>
      <trkpt lat="53.588342992588878" lon="-9.962945021688938">
        <ele>49.649999999999999</ele>
        <time>2026-07-02T14:25:45Z</time>
      </trkpt>
      <trkpt lat="53.58830401673913" lon="-9.962773025035858">
        <ele>49.649999999999999</ele>
        <time>2026-07-02T14:25:46Z</time>
      </trkpt>
      <trkpt lat="53.588337963446975" lon="-9.962695995345712">
        <ele>49.649999999999999</ele>
        <time>2026-07-02T14:25:47Z</time>
      </trkpt>
      <trkpt lat="53.588380962610245" lon="-9.962600022554398">
        <ele>49.649999999999999</ele>
        <time>2026-07-02T14:25:48Z</time>
      </trkpt>
      <trkpt lat="53.588431002572179" lon="-9.962488040328026">
        <ele>49.649999999999999</ele>
        <time>2026-07-02T14:25:49Z</time>
      </trkpt>
      <trkpt lat="53.588483976200223" lon="-9.962350996211171">
        <ele>49.159999999999997</ele>
        <time>2026-07-02T14:25:50Z</time>
      </trkpt>
      <trkpt lat="53.589031985029578" lon="-9.960733959451318">
        <ele>45.799999999999997</ele>
        <time>2026-07-02T14:25:59Z</time>
      </trkpt>
      <trkpt lat="53.589669009670615" lon="-9.958893964067102">
        <ele>47.719999999999999</ele>
        <time>2026-07-02T14:26:09Z</time>
      </trkpt>
      <trkpt lat="53.589747967198491" lon="-9.958751974627376">
        <ele>47.240000000000002</ele>
        <time>2026-07-02T14:26:10Z</time>
      </trkpt>
      <trkpt lat="53.589845029637218" lon="-9.958643009886146">
        <ele>47.240000000000002</ele>
        <time>2026-07-02T14:26:11Z</time>
      </trkpt>
      <trkpt lat="53.589955000206828" lon="-9.958549970760942">
        <ele>46.759999999999998</ele>
        <time>2026-07-02T14:26:12Z</time>
      </trkpt>
      <trkpt lat="53.590065976604819" lon="-9.958465984091163">
        <ele>46.280000000000001</ele>
        <time>2026-07-02T14:26:13Z</time>
      </trkpt>
      <trkpt lat="53.59073200263083" lon="-9.957961980253458">
        <ele>41.469999999999999</ele>
        <time>2026-07-02T14:26:19Z</time>
      </trkpt>
      <trkpt lat="53.590856976807117" lon="-9.957895008847117">
        <ele>41.469999999999999</ele>
        <time>2026-07-02T14:26:20Z</time>
      </trkpt>
      <trkpt lat="53.590994020923972" lon="-9.957867013290525">
        <ele>40.990000000000002</ele>
        <time>2026-07-02T14:26:21Z</time>
      </trkpt>
      <trkpt lat="53.591130981221795" lon="-9.957876987755299">
        <ele>40.509999999999998</ele>
        <time>2026-07-02T14:26:22Z</time>
      </trkpt>
      <trkpt lat="53.591267019510269" lon="-9.957886962220073">
        <ele>40.509999999999998</ele>
        <time>2026-07-02T14:26:23Z</time>
      </trkpt>
      <trkpt lat="53.591502970084548" lon="-9.957903977483511">
        <ele>40.030000000000001</ele>
        <time>2026-07-02T14:26:25Z</time>
      </trkpt>
      <trkpt lat="53.591587040573359" lon="-9.957838011905551">
        <ele>40.509999999999998</ele>
        <time>2026-07-02T14:26:26Z</time>
      </trkpt>
      <trkpt lat="53.591642025858164" lon="-9.957721000537276">
        <ele>40.990000000000002</ele>
        <time>2026-07-02T14:26:27Z</time>
      </trkpt>
      <trkpt lat="53.591672033071518" lon="-9.957583034411073">
        <ele>41.950000000000003</ele>
        <time>2026-07-02T14:26:28Z</time>
      </trkpt>
      <trkpt lat="53.591665998101234" lon="-9.957422018051148">
        <ele>42.920000000000002</ele>
        <time>2026-07-02T14:26:29Z</time>
      </trkpt>
      <trkpt lat="53.591659041121602" lon="-9.957242980599403">
        <ele>43.880000000000003</ele>
        <time>2026-07-02T14:26:30Z</time>
      </trkpt>
      <trkpt lat="53.591659963130951" lon="-9.957027984783053">
        <ele>45.32</ele>
        <time>2026-07-02T14:26:31Z</time>
      </trkpt>
      <trkpt lat="53.591701034456491" lon="-9.956820029765368">
        <ele>45.799999999999997</ele>
        <time>2026-07-02T14:26:32Z</time>
      </trkpt>
      <trkpt lat="53.591745039448142" lon="-9.956591036170721">
        <ele>46.759999999999998</ele>
        <time>2026-07-02T14:26:33Z</time>
      </trkpt>
      <trkpt lat="53.592124991118908" lon="-9.954411992803216">
        <ele>51.090000000000003</ele>
        <time>2026-07-02T14:26:42Z</time>
      </trkpt>
      <trkpt lat="53.592179976403713" lon="-9.95420697145164">
        <ele>51.57</ele>
        <time>2026-07-02T14:26:43Z</time>
      </trkpt>
      <trkpt lat="53.592262035235763" lon="-9.954032963141799">
        <ele>52.049999999999997</ele>
        <time>2026-07-02T14:26:44Z</time>
      </trkpt>
      <trkpt lat="53.592341998592019" lon="-9.9538619723171">
        <ele>52.530000000000001</ele>
        <time>2026-07-02T14:26:45Z</time>
      </trkpt>
      <trkpt lat="53.592420034110546" lon="-9.953695004805923">
        <ele>53.009999999999998</ele>
        <time>2026-07-02T14:26:46Z</time>
      </trkpt>
      <trkpt lat="53.592637041583657" lon="-9.953236011788249">
        <ele>53.490000000000002</ele>
        <time>2026-07-02T14:26:49Z</time>
      </trkpt>
      <trkpt lat="53.59268699772656" lon="-9.953048005700111">
        <ele>53.009999999999998</ele>
        <time>2026-07-02T14:26:50Z</time>
      </trkpt>
      <trkpt lat="53.592723961919546" lon="-9.9528500251472">
        <ele>53.009999999999998</ele>
        <time>2026-07-02T14:26:51Z</time>
      </trkpt>
      <trkpt lat="53.592738965526223" lon="-9.95263502933085">
        <ele>52.530000000000001</ele>
        <time>2026-07-02T14:26:52Z</time>
      </trkpt>
      <trkpt lat="53.5927539691329" lon="-9.9524200335145">
        <ele>52.530000000000001</ele>
        <time>2026-07-02T14:26:53Z</time>
      </trkpt>
      <trkpt lat="53.592871986329556" lon="-9.951320998370647">
        <ele>52.530000000000001</ele>
        <time>2026-07-02T14:26:58Z</time>
      </trkpt>
      <trkpt lat="53.592919008806348" lon="-9.951142966747284">
        <ele>52.530000000000001</ele>
        <time>2026-07-02T14:26:59Z</time>
      </trkpt>
      <trkpt lat="53.593002995476127" lon="-9.950825963169336">
        <ele>52.530000000000001</ele>
        <time>2026-07-02T14:27:01Z</time>
      </trkpt>
      <trkpt lat="53.593025961890817" lon="-9.950655978173018">
        <ele>52.530000000000001</ele>
        <time>2026-07-02T14:27:02Z</time>
      </trkpt>
      <trkpt lat="53.593025961890817" lon="-9.950476018711925">
        <ele>52.049999999999997</ele>
        <time>2026-07-02T14:27:03Z</time>
      </trkpt>
      <trkpt lat="53.592994026839733" lon="-9.950274014845491">
        <ele>51.57</ele>
        <time>2026-07-02T14:27:04Z</time>
      </trkpt>
      <trkpt lat="53.592949016019702" lon="-9.950079973787069">
        <ele>51.090000000000003</ele>
        <time>2026-07-02T14:27:05Z</time>
      </trkpt>
      <trkpt lat="53.59292303211987" lon="-9.949866989627481">
        <ele>50.609999999999999</ele>
        <time>2026-07-02T14:27:06Z</time>
      </trkpt>
      <trkpt lat="53.592936024069786" lon="-9.949665991589427">
        <ele>49.649999999999999</ele>
        <time>2026-07-02T14:27:07Z</time>
      </trkpt>
      <trkpt lat="53.592962007969618" lon="-9.949481002986431">
        <ele>49.649999999999999</ele>
        <time>2026-07-02T14:27:08Z</time>
      </trkpt>
      <trkpt lat="53.593004001304507" lon="-9.949257038533688">
        <ele>49.159999999999997</ele>
        <time>2026-07-02T14:27:09Z</time>
      </trkpt>
      <trkpt lat="53.59305496327579" lon="-9.949130974709988">
        <ele>48.68</ele>
        <time>2026-07-02T14:27:10Z</time>
      </trkpt>
      <trkpt lat="53.593125035986304" lon="-9.948955960571766">
        <ele>47.719999999999999</ele>
        <time>2026-07-02T14:27:11Z</time>
      </trkpt>
      <trkpt lat="53.593232994899154" lon="-9.94881397113204">
        <ele>46.759999999999998</ele>
        <time>2026-07-02T14:27:12Z</time>
      </trkpt>
      <trkpt lat="53.593338020145893" lon="-9.948686985298991">
        <ele>46.280000000000001</ele>
        <time>2026-07-02T14:27:13Z</time>
      </trkpt>
      <trkpt lat="53.593454025685787" lon="-9.948558993637562">
        <ele>45.32</ele>
        <time>2026-07-02T14:27:14Z</time>
      </trkpt>
      <trkpt lat="53.593580005690455" lon="-9.948484981432557">
        <ele>43.880000000000003</ele>
        <time>2026-07-02T14:27:15Z</time>
      </trkpt>
      <trkpt lat="53.593701962381601" lon="-9.948412980884314">
        <ele>42.439999999999998</ele>
        <time>2026-07-02T14:27:16Z</time>
      </trkpt>
      <trkpt lat="53.593829032033682" lon="-9.948351960629225">
        <ele>41.469999999999999</ele>
        <time>2026-07-02T14:27:17Z</time>
      </trkpt>
      <trkpt lat="53.594978023320436" lon="-9.948269985616207">
        <ele>29.940000000000001</ele>
        <time>2026-07-02T14:27:24Z</time>
      </trkpt>
      <trkpt lat="53.595268959179521" lon="-9.948269985616207">
        <ele>28.02</ele>
        <time>2026-07-02T14:27:26Z</time>
      </trkpt>
      <trkpt lat="53.595384964719415" lon="-9.94821097701788">
        <ele>27.050000000000001</ele>
        <time>2026-07-02T14:27:27Z</time>
      </trkpt>
      <trkpt lat="53.595497030764818" lon="-9.948118021711707">
        <ele>26.09</ele>
        <time>2026-07-02T14:27:28Z</time>
      </trkpt>
      <trkpt lat="53.59558898024261" lon="-9.94795398786664">
        <ele>25.129999999999999</ele>
        <time>2026-07-02T14:27:29Z</time>
      </trkpt>
      <trkpt lat="53.595688976347446" lon="-9.947775034233928">
        <ele>24.170000000000002</ele>
        <time>2026-07-02T14:27:30Z</time>
      </trkpt>
      <trkpt lat="53.596197003498673" lon="-9.946810025721788">
        <ele>23.210000000000001</ele>
        <time>2026-07-02T14:27:35Z</time>
      </trkpt>
      <trkpt lat="53.596243020147085" lon="-9.946569968014956">
        <ele>23.690000000000001</ele>
        <time>2026-07-02T14:27:36Z</time>
      </trkpt>
      <trkpt lat="53.59655600041151" lon="-9.944697031751275">
        <ele>23.210000000000001</ele>
        <time>2026-07-02T14:27:44Z</time>
      </trkpt>
      <trkpt lat="53.596583995968103" lon="-9.944280032068491">
        <ele>23.690000000000001</ele>
        <time>2026-07-02T14:27:46Z</time>
      </trkpt>
      <trkpt lat="53.59657502733171" lon="-9.944074004888535">
        <ele>24.170000000000002</ele>
        <time>2026-07-02T14:27:47Z</time>
      </trkpt>
      <trkpt lat="53.596595982089639" lon="-9.94213099591434">
        <ele>28.02</ele>
        <time>2026-07-02T14:27:56Z</time>
      </trkpt>
      <trkpt lat="53.596623977646232" lon="-9.941758001223207">
        <ele>27.530000000000001</ele>
        <time>2026-07-02T14:27:58Z</time>
      </trkpt>
      <trkpt lat="53.596658008173108" lon="-9.941587010398507">
        <ele>27.530000000000001</ele>
        <time>2026-07-02T14:27:59Z</time>
      </trkpt>
      <trkpt lat="53.596716010943055" lon="-9.941425994038582">
        <ele>27.050000000000001</ele>
        <time>2026-07-02T14:28:00Z</time>
      </trkpt>
      <trkpt lat="53.596785999834538" lon="-9.941287022083998">
        <ele>27.050000000000001</ele>
        <time>2026-07-02T14:28:01Z</time>
      </trkpt>
      <trkpt lat="53.5968569945544" lon="-9.941146038472652">
        <ele>27.530000000000001</ele>
        <time>2026-07-02T14:28:02Z</time>
      </trkpt>
      <trkpt lat="53.596905022859573" lon="-9.940979992970824">
        <ele>27.530000000000001</ele>
        <time>2026-07-02T14:28:03Z</time>
      </trkpt>
      <trkpt lat="53.596951961517334" lon="-9.940806990489364">
        <ele>27.530000000000001</ele>
        <time>2026-07-02T14:28:04Z</time>
      </trkpt>
      <trkpt lat="53.59698599204421" lon="-9.940612027421594">
        <ele>27.530000000000001</ele>
        <time>2026-07-02T14:28:05Z</time>
      </trkpt>
      <trkpt lat="53.597022034227848" lon="-9.940404994413257">
        <ele>27.530000000000001</ele>
        <time>2026-07-02T14:28:06Z</time>
      </trkpt>
      <trkpt lat="53.597382036969066" lon="-9.938718974590302">
        <ele>32.340000000000003</ele>
        <time>2026-07-02T14:28:14Z</time>
      </trkpt>
      <trkpt lat="53.597382036969066" lon="-9.938533985987306">
        <ele>33.299999999999997</ele>
        <time>2026-07-02T14:28:15Z</time>
      </trkpt>
      <trkpt lat="53.597382036969066" lon="-9.938365006819367">
        <ele>33.780000000000001</ele>
        <time>2026-07-02T14:28:16Z</time>
      </trkpt>
      <trkpt lat="53.597377007827163" lon="-9.938212037086487">
        <ele>34.740000000000002</ele>
        <time>2026-07-02T14:28:17Z</time>
      </trkpt>
      <trkpt lat="53.597367033362389" lon="-9.93806803599">
        <ele>35.229999999999997</ele>
        <time>2026-07-02T14:28:18Z</time>
      </trkpt>
      <trkpt lat="53.59717802144587" lon="-9.936439013108611">
        <ele>42.920000000000002</ele>
        <time>2026-07-02T14:28:27Z</time>
      </trkpt>
      <trkpt lat="53.596992027014494" lon="-9.934982992708683">
        <ele>46.280000000000001</ele>
        <time>2026-07-02T14:28:35Z</time>
      </trkpt>
      <trkpt lat="53.596974005922675" lon="-9.934794986620545">
        <ele>47.240000000000002</ele>
        <time>2026-07-02T14:28:36Z</time>
      </trkpt>
      <trkpt lat="53.59692002646625" lon="-9.93458803743124">
        <ele>47.719999999999999</ele>
        <time>2026-07-02T14:28:37Z</time>
      </trkpt>
      <trkpt lat="53.596868980675936" lon="-9.934393996372819">
        <ele>48.200000000000003</ele>
        <time>2026-07-02T14:28:38Z</time>
      </trkpt>
      <trkpt lat="53.59676999039948" lon="-9.934016978368163">
        <ele>49.159999999999997</ele>
        <time>2026-07-02T14:28:40Z</time>
      </trkpt>
      <trkpt lat="53.596734032034874" lon="-9.933838024735451">
        <ele>49.649999999999999</ele>
        <time>2026-07-02T14:28:41Z</time>
      </trkpt>
      <trkpt lat="53.596722967922688" lon="-9.933658987283707">
        <ele>49.649999999999999</ele>
        <time>2026-07-02T14:28:42Z</time>
      </trkpt>
      <trkpt lat="53.596711987629533" lon="-9.933476010337472">
        <ele>49.649999999999999</ele>
        <time>2026-07-02T14:28:43Z</time>
      </trkpt>
      <trkpt lat="53.596700001507998" lon="-9.933286998420954">
        <ele>49.649999999999999</ele>
        <time>2026-07-02T14:28:44Z</time>
      </trkpt>
      <trkpt lat="53.596620038151741" lon="-9.932363983243704">
        <ele>48.200000000000003</ele>
        <time>2026-07-02T14:28:49Z</time>
      </trkpt>
      <trkpt lat="53.59659899957478" lon="-9.932252001017332">
        <ele>47.719999999999999</ele>
        <time>2026-07-02T14:28:50Z</time>
      </trkpt>
      <trkpt lat="53.596528004854918" lon="-9.931938014924526">
        <ele>46.759999999999998</ele>
        <time>2026-07-02T14:28:57Z</time>
      </trkpt>
      <trkpt lat="53.596528004854918" lon="-9.931938014924526">
        <ele>46.759999999999998</ele>
        <time>2026-07-02T14:29:23Z</time>
      </trkpt>
      <trkpt lat="53.596528004854918" lon="-9.931938014924526">
        <ele>46.280000000000001</ele>
        <time>2026-07-02T14:30:22Z</time>
      </trkpt>
      <trkpt lat="53.596528004854918" lon="-9.931938014924526">
        <ele>46.280000000000001</ele>
        <time>2026-07-02T14:31:19Z</time>
      </trkpt>
      <trkpt lat="53.59653303399682" lon="-9.931931979954243">
        <ele>40.990000000000002</ele>
        <time>2026-07-02T14:33:29Z</time>
      </trkpt>
      <trkpt lat="53.596528004854918" lon="-9.931909013539553">
        <ele>46.759999999999998</ele>
        <time>2026-07-02T14:34:07Z</time>
      </trkpt>
      <trkpt lat="53.596400013193488" lon="-9.931498970836401">
        <ele>46.280000000000001</ele>
        <time>2026-07-02T14:34:17Z</time>
      </trkpt>
      <trkpt lat="53.596136989071965" lon="-9.929988970980048">
        <ele>43.880000000000003</ele>
        <time>2026-07-02T14:34:27Z</time>
      </trkpt>
      <trkpt lat="53.595858039334416" lon="-9.928421974182129">
        <ele>41.469999999999999</ele>
        <time>2026-07-02T14:34:37Z</time>
      </trkpt>
      <trkpt lat="53.595859967172146" lon="-9.928321978077292">
        <ele>41.469999999999999</ele>
        <time>2026-07-02T14:34:38Z</time>
      </trkpt>
      <trkpt lat="53.595862984657288" lon="-9.928175965324044">
        <ele>41.469999999999999</ele>
        <time>2026-07-02T14:34:39Z</time>
      </trkpt>
      <trkpt lat="53.595870025455952" lon="-9.927253033965826">
        <ele>41.950000000000003</ele>
        <time>2026-07-02T14:34:45Z</time>
      </trkpt>
      <trkpt lat="53.595850998535752" lon="-9.927101992070675">
        <ele>42.439999999999998</ele>
        <time>2026-07-02T14:34:46Z</time>
      </trkpt>
      <trkpt lat="53.595831971615553" lon="-9.926949022337794">
        <ele>42.439999999999998</ele>
        <time>2026-07-02T14:34:47Z</time>
      </trkpt>
      <trkpt lat="53.595794001594186" lon="-9.926644004881382">
        <ele>42.439999999999998</ele>
        <time>2026-07-02T14:34:49Z</time>
      </trkpt>
      <trkpt lat="53.595775980502367" lon="-9.926495980471373">
        <ele>42.439999999999998</ele>
        <time>2026-07-02T14:34:50Z</time>
      </trkpt>
      <trkpt lat="53.595792995765805" lon="-9.926345022395253">
        <ele>41.950000000000003</ele>
        <time>2026-07-02T14:34:51Z</time>
      </trkpt>
      <trkpt lat="53.595815040171146" lon="-9.926212001591921">
        <ele>41.950000000000003</ele>
        <time>2026-07-02T14:34:52Z</time>
      </trkpt>
      <trkpt lat="53.595858961343765" lon="-9.92608099244535">
        <ele>41.469999999999999</ele>
        <time>2026-07-02T14:34:53Z</time>
      </trkpt>
      <trkpt lat="53.595904977992177" lon="-9.925948977470398">
        <ele>40.990000000000002</ele>
        <time>2026-07-02T14:34:54Z</time>
      </trkpt>
      <trkpt lat="53.595972033217549" lon="-9.925849987193942">
        <ele>40.990000000000002</ele>
        <time>2026-07-02T14:34:55Z</time>
      </trkpt>
      <trkpt lat="53.596037998795509" lon="-9.925752002745867">
        <ele>40.509999999999998</ele>
        <time>2026-07-02T14:34:56Z</time>
      </trkpt>
      <trkpt lat="53.596106981858611" lon="-9.92565100081265">
        <ele>40.030000000000001</ele>
        <time>2026-07-02T14:34:57Z</time>
      </trkpt>
      <trkpt lat="53.596351984888315" lon="-9.925288986414671">
        <ele>38.109999999999999</ele>
        <time>2026-07-02T14:35:00Z</time>
      </trkpt>
      <trkpt lat="53.596411999315023" lon="-9.925153031945229">
        <ele>38.109999999999999</ele>
        <time>2026-07-02T14:35:01Z</time>
      </trkpt>
      <trkpt lat="53.596978029236197" lon="-9.923858027905226">
        <ele>37.630000000000003</ele>
        <time>2026-07-02T14:35:08Z</time>
      </trkpt>
      <trkpt lat="53.597033014521003" lon="-9.923619981855154">
        <ele>37.630000000000003</ele>
        <time>2026-07-02T14:35:09Z</time>
      </trkpt>
      <trkpt lat="53.597402991726995" lon="-9.921845030039549">
        <ele>41.469999999999999</ele>
        <time>2026-07-02T14:35:16Z</time>
      </trkpt>
      <trkpt lat="53.597553027793765" lon="-9.919568002223969">
        <ele>42.920000000000002</ele>
        <time>2026-07-02T14:35:25Z</time>
      </trkpt>
      <trkpt lat="53.597408020868897" lon="-9.917057035490871">
        <ele>40.509999999999998</ele>
        <time>2026-07-02T14:35:36Z</time>
      </trkpt>
      <trkpt lat="53.597314981743693" lon="-9.915395993739367">
        <ele>36.670000000000002</ele>
        <time>2026-07-02T14:35:44Z</time>
      </trkpt>
      <trkpt lat="53.597268965095282" lon="-9.915269007906318">
        <ele>36.189999999999998</ele>
        <time>2026-07-02T14:35:45Z</time>
      </trkpt>
      <trkpt lat="53.597210962325335" lon="-9.915169011801481">
        <ele>36.189999999999998</ele>
        <time>2026-07-02T14:35:46Z</time>
      </trkpt>
      <trkpt lat="53.597101997584105" lon="-9.914964996278286">
        <ele>35.229999999999997</ele>
        <time>2026-07-02T14:35:48Z</time>
      </trkpt>
      <trkpt lat="53.597080959007144" lon="-9.914855025708675">
        <ele>34.740000000000002</ele>
        <time>2026-07-02T14:35:49Z</time>
      </trkpt>
      <trkpt lat="53.597080959007144" lon="-9.91473600268364">
        <ele>34.740000000000002</ele>
        <time>2026-07-02T14:35:50Z</time>
      </trkpt>
      <trkpt lat="53.597105015069246" lon="-9.914641035720706">
        <ele>34.259999999999998</ele>
        <time>2026-07-02T14:35:51Z</time>
      </trkpt>
      <trkpt lat="53.597154971212149" lon="-9.914538022130728">
        <ele>33.780000000000001</ele>
        <time>2026-07-02T14:35:52Z</time>
      </trkpt>
      <trkpt lat="53.597212973982096" lon="-9.914420004934073">
        <ele>33.299999999999997</ele>
        <time>2026-07-02T14:35:53Z</time>
      </trkpt>
      <trkpt lat="53.59799399971962" lon="-9.91316800005734">
        <ele>31.859999999999999</ele>
        <time>2026-07-02T14:36:03Z</time>
      </trkpt>
      <trkpt lat="53.598314020782709" lon="-9.912735996767879">
        <ele>31.859999999999999</ele>
        <time>2026-07-02T14:36:07Z</time>
      </trkpt>
      <trkpt lat="53.598517030477524" lon="-9.91246098652482">
        <ele>31.859999999999999</ele>
        <time>2026-07-02T14:36:10Z</time>
      </trkpt>
      <trkpt lat="53.598547959700227" lon="-9.912332994863391">
        <ele>32.340000000000003</ele>
        <time>2026-07-02T14:36:11Z</time>
      </trkpt>
      <trkpt lat="53.5985769610852" lon="-9.912210032343864">
        <ele>32.82</ele>
        <time>2026-07-02T14:36:12Z</time>
      </trkpt>
      <trkpt lat="53.598605040460825" lon="-9.91209302097559">
        <ele>33.780000000000001</ele>
        <time>2026-07-02T14:36:13Z</time>
      </trkpt>
      <trkpt lat="53.598588025197387" lon="-9.911958994343877">
        <ele>33.780000000000001</ele>
        <time>2026-07-02T14:36:14Z</time>
      </trkpt>
      <trkpt lat="53.598570004105568" lon="-9.911810969933868">
        <ele>34.259999999999998</ele>
        <time>2026-07-02T14:36:15Z</time>
      </trkpt>
      <trkpt lat="53.598549971356988" lon="-9.911652971059084">
        <ele>34.259999999999998</ele>
        <time>2026-07-02T14:36:16Z</time>
      </trkpt>
      <trkpt lat="53.598480988293886" lon="-9.911161037161946">
        <ele>33.780000000000001</ele>
        <time>2026-07-02T14:36:19Z</time>
      </trkpt>
      <trkpt lat="53.598482999950647" lon="-9.911007983610034">
        <ele>33.299999999999997</ele>
        <time>2026-07-02T14:36:20Z</time>
      </trkpt>
      <trkpt lat="53.598492974415421" lon="-9.910863982513547">
        <ele>33.299999999999997</ele>
        <time>2026-07-02T14:36:21Z</time>
      </trkpt>
      <trkpt lat="53.598524993285537" lon="-9.910728028044105">
        <ele>33.299999999999997</ele>
        <time>2026-07-02T14:36:22Z</time>
      </trkpt>
      <trkpt lat="53.598582996055484" lon="-9.910613028332591">
        <ele>33.299999999999997</ele>
        <time>2026-07-02T14:36:23Z</time>
      </trkpt>
      <trkpt lat="53.598646027967334" lon="-9.910485958680511">
        <ele>33.780000000000001</ele>
        <time>2026-07-02T14:36:24Z</time>
      </trkpt>
      <trkpt lat="53.598763961344957" lon="-9.910223018378019">
        <ele>33.780000000000001</ele>
        <time>2026-07-02T14:36:26Z</time>
      </trkpt>
      <trkpt lat="53.598795980215073" lon="-9.910062002018094">
        <ele>33.780000000000001</ele>
        <time>2026-07-02T14:36:27Z</time>
      </trkpt>
      <trkpt lat="53.598829004913568" lon="-9.909896962344647">
        <ele>33.780000000000001</ele>
        <time>2026-07-02T14:36:28Z</time>
      </trkpt>
      <trkpt lat="53.598861023783684" lon="-9.909737035632134">
        <ele>33.780000000000001</ele>
        <time>2026-07-02T14:36:29Z</time>
      </trkpt>
      <trkpt lat="53.598892036825418" lon="-9.909580964595079">
        <ele>33.299999999999997</ele>
        <time>2026-07-02T14:36:30Z</time>
      </trkpt>
      <trkpt lat="53.598864041268826" lon="-9.908543033525348">
        <ele>31.859999999999999</ele>
        <time>2026-07-02T14:36:36Z</time>
      </trkpt>
      <trkpt lat="53.59889798797667" lon="-9.908380005508661">
        <ele>31.859999999999999</ele>
        <time>2026-07-02T14:36:37Z</time>
      </trkpt>
      <trkpt lat="53.598941992968321" lon="-9.908242039382458">
        <ele>31.379999999999999</ele>
        <time>2026-07-02T14:36:38Z</time>
      </trkpt>
      <trkpt lat="53.59900301322341" lon="-9.90811999887228">
        <ele>31.379999999999999</ele>
        <time>2026-07-02T14:36:39Z</time>
      </trkpt>
      <trkpt lat="53.599094962701201" lon="-9.908022014424205">
        <ele>30.899999999999999</ele>
        <time>2026-07-02T14:36:40Z</time>
      </trkpt>
      <trkpt lat="53.599193030968308" lon="-9.907960994169116">
        <ele>30.899999999999999</ele>
        <time>2026-07-02T14:36:41Z</time>
      </trkpt>
      <trkpt lat="53.599293027073145" lon="-9.907898968085647">
        <ele>29.940000000000001</ele>
        <time>2026-07-02T14:36:42Z</time>
      </trkpt>
      <trkpt lat="53.599395034834743" lon="-9.907837025821209">
        <ele>29.460000000000001</ele>
        <time>2026-07-02T14:36:43Z</time>
      </trkpt>
      <trkpt lat="53.59949897043407" lon="-9.907772988080978">
        <ele>28.98</ele>
        <time>2026-07-02T14:36:44Z</time>
      </trkpt>
      <trkpt lat="53.599592009559274" lon="-9.907714985311031">
        <ele>28.02</ele>
        <time>2026-07-02T14:36:45Z</time>
      </trkpt>
      <trkpt lat="53.599693011492491" lon="-9.907592022791505">
        <ele>27.530000000000001</ele>
        <time>2026-07-02T14:36:46Z</time>
      </trkpt>
      <trkpt lat="53.599785966798663" lon="-9.907476017251611">
        <ele>26.57</ele>
        <time>2026-07-02T14:36:47Z</time>
      </trkpt>
      <trkpt lat="53.600402036681771" lon="-9.905784968286753">
        <ele>22.25</ele>
        <time>2026-07-02T14:36:57Z</time>
      </trkpt>
      <trkpt lat="53.600676041096449" lon="-9.9047049600631">
        <ele>18.399999999999999</ele>
        <time>2026-07-02T14:37:03Z</time>
      </trkpt>
      <trkpt lat="53.600731026381254" lon="-9.904604963958263">
        <ele>17.920000000000002</ele>
        <time>2026-07-02T14:37:04Z</time>
      </trkpt>
      <trkpt lat="53.600805038586259" lon="-9.904538998380303">
        <ele>17.440000000000001</ele>
        <time>2026-07-02T14:37:05Z</time>
      </trkpt>
      <trkpt lat="53.601214997470379" lon="-9.904258036985993">
        <ele>14.08</ele>
        <time>2026-07-02T14:37:09Z</time>
      </trkpt>
      <trkpt lat="53.601320022717118" lon="-9.904134990647435">
        <ele>13.6</ele>
        <time>2026-07-02T14:37:10Z</time>
      </trkpt>
      <trkpt lat="53.602410005405545" lon="-9.902437990531325">
        <ele>14.08</ele>
        <time>2026-07-02T14:37:21Z</time>
      </trkpt>
      <trkpt lat="53.602730026468635" lon="-9.901785962283611">
        <ele>13.6</ele>
        <time>2026-07-02T14:37:25Z</time>
      </trkpt>
      <trkpt lat="53.602808983996511" lon="-9.901625029742718">
        <ele>13.119999999999999</ele>
        <time>2026-07-02T14:37:26Z</time>
      </trkpt>
      <trkpt lat="53.60291501507163" lon="-9.901513969525695">
        <ele>12.630000000000001</ele>
        <time>2026-07-02T14:37:27Z</time>
      </trkpt>
      <trkpt lat="53.603028003126383" lon="-9.901425959542394">
        <ele>13.119999999999999</ele>
        <time>2026-07-02T14:37:28Z</time>
      </trkpt>
      <trkpt lat="53.603135040029883" lon="-9.901342978700995">
        <ele>13.119999999999999</ele>
        <time>2026-07-02T14:37:29Z</time>
      </trkpt>
      <trkpt lat="53.603218020871282" lon="-9.901278018951416">
        <ele>13.6</ele>
        <time>2026-07-02T14:37:30Z</time>
      </trkpt>
      <trkpt lat="53.603297984227538" lon="-9.901133012026548">
        <ele>14.08</ele>
        <time>2026-07-02T14:37:31Z</time>
      </trkpt>
      <trkpt lat="53.603368978947401" lon="-9.901000997051597">
        <ele>14.08</ele>
        <time>2026-07-02T14:37:32Z</time>
      </trkpt>
      <trkpt lat="53.603446008637547" lon="-9.900860013440251">
        <ele>14.08</ele>
        <time>2026-07-02T14:37:33Z</time>
      </trkpt>
      <trkpt lat="53.603540975600481" lon="-9.9007279984653">
        <ele>13.6</ele>
        <time>2026-07-02T14:37:34Z</time>
      </trkpt>
      <trkpt lat="53.60364499501884" lon="-9.900606041774154">
        <ele>13.6</ele>
        <time>2026-07-02T14:37:35Z</time>
      </trkpt>
      <trkpt lat="53.604880990460515" lon="-9.899319000542164">
        <ele>9.75</ele>
        <time>2026-07-02T14:37:46Z</time>
      </trkpt>
      <trkpt lat="53.60519103705883" lon="-9.89896603859961">
        <ele>10.23</ele>
        <time>2026-07-02T14:37:49Z</time>
      </trkpt>
      <trkpt lat="53.605348030105233" lon="-9.898632019758225">
        <ele>10.710000000000001</ele>
        <time>2026-07-02T14:37:51Z</time>
      </trkpt>
      <trkpt lat="53.605409972369671" lon="-9.89842901006341">
        <ele>10.710000000000001</ele>
        <time>2026-07-02T14:37:52Z</time>
      </trkpt>
      <trkpt lat="53.605473004281521" lon="-9.898218037560582">
        <ele>11.67</ele>
        <time>2026-07-02T14:37:53Z</time>
      </trkpt>
      <trkpt lat="53.605648018419743" lon="-9.896771991625428">
        <ele>13.6</ele>
        <time>2026-07-02T14:37:59Z</time>
      </trkpt>
      <trkpt lat="53.605652041733265" lon="-9.896535035222769">
        <ele>12.630000000000001</ele>
        <time>2026-07-02T14:38:00Z</time>
      </trkpt>
      <trkpt lat="53.605656987056136" lon="-9.896297995001078">
        <ele>12.15</ele>
        <time>2026-07-02T14:38:01Z</time>
      </trkpt>
      <trkpt lat="53.605742985382676" lon="-9.893719973042607">
        <ele>6.87</ele>
        <time>2026-07-02T14:38:12Z</time>
      </trkpt>
      <trkpt lat="53.605871982872486" lon="-9.891506982967258">
        <ele>1.58</ele>
        <time>2026-07-02T14:38:21Z</time>
      </trkpt>
      <trkpt lat="53.606203990057111" lon="-9.888968020677567">
        <ele>1.1</ele>
        <time>2026-07-02T14:38:31Z</time>
      </trkpt>
      <trkpt lat="53.606745963916183" lon="-9.886810015887022">
        <ele>5.91</ele>
        <time>2026-07-02T14:38:40Z</time>
      </trkpt>
      <trkpt lat="53.6072320304811" lon="-9.885355001315475">
        <ele>15.52</ele>
        <time>2026-07-02T14:38:47Z</time>
      </trkpt>
      <trkpt lat="53.60731802880764" lon="-9.885228015482426">
        <ele>17.440000000000001</ele>
        <time>2026-07-02T14:38:48Z</time>
      </trkpt>
      <trkpt lat="53.608183041214943" lon="-9.883942985907197">
        <ele>23.210000000000001</ele>
        <time>2026-07-02T14:38:56Z</time>
      </trkpt>
      <trkpt lat="53.608879996463656" lon="-9.882814027369022">
        <ele>20.809999999999999</ele>
        <time>2026-07-02T14:39:03Z</time>
      </trkpt>
      <trkpt lat="53.608939005061984" lon="-9.882645970210433">
        <ele>19.84</ele>
        <time>2026-07-02T14:39:04Z</time>
      </trkpt>
      <trkpt lat="53.60897202976048" lon="-9.882463999092579">
        <ele>19.359999999999999</ele>
        <time>2026-07-02T14:39:05Z</time>
      </trkpt>
      <trkpt lat="53.609012011438608" lon="-9.882244979962707">
        <ele>18.879999999999999</ele>
        <time>2026-07-02T14:39:06Z</time>
      </trkpt>
      <trkpt lat="53.609001031145453" lon="-9.882049011066556">
        <ele>18.879999999999999</ele>
        <time>2026-07-02T14:39:07Z</time>
      </trkpt>
      <trkpt lat="53.608989967033267" lon="-9.881858993321657">
        <ele>18.879999999999999</ele>
        <time>2026-07-02T14:39:08Z</time>
      </trkpt>
      <trkpt lat="53.608711017295718" lon="-9.879380967468023">
        <ele>23.690000000000001</ele>
        <time>2026-07-02T14:39:19Z</time>
      </trkpt>
      <trkpt lat="53.608344979584217" lon="-9.87642802298069">
        <ele>28.5</ele>
        <time>2026-07-02T14:39:31Z</time>
      </trkpt>
      <trkpt lat="53.607955975458026" lon="-9.873797027394176">
        <ele>34.740000000000002</ele>
        <time>2026-07-02T14:39:43Z</time>
      </trkpt>
      <trkpt lat="53.607918005436659" lon="-9.873623019084334">
        <ele>35.229999999999997</ele>
        <time>2026-07-02T14:39:44Z</time>
      </trkpt>
      <trkpt lat="53.607498994097114" lon="-9.872129028663039">
        <ele>33.780000000000001</ele>
        <time>2026-07-02T14:39:53Z</time>
      </trkpt>
      <trkpt lat="53.606848977506161" lon="-9.870057022199035">
        <ele>30.899999999999999</ele>
        <time>2026-07-02T14:40:03Z</time>
      </trkpt>
      <trkpt lat="53.60594498924911" lon="-9.867399036884308">
        <ele>36.670000000000002</ele>
        <time>2026-07-02T14:40:15Z</time>
      </trkpt>
      <trkpt lat="53.605340989306569" lon="-9.866126999258995">
        <ele>39.549999999999997</ele>
        <time>2026-07-02T14:40:21Z</time>
      </trkpt>
      <trkpt lat="53.605275023728609" lon="-9.865927007049322">
        <ele>39.549999999999997</ele>
        <time>2026-07-02T14:40:22Z</time>
      </trkpt>
      <trkpt lat="53.605210985988379" lon="-9.865736989304423">
        <ele>39.549999999999997</ele>
        <time>2026-07-02T14:40:23Z</time>
      </trkpt>
      <trkpt lat="53.605178967118263" lon="-9.86551696434617">
        <ele>40.030000000000001</ele>
        <time>2026-07-02T14:40:24Z</time>
      </trkpt>
      <trkpt lat="53.605161029845476" lon="-9.865289982408285">
        <ele>40.509999999999998</ele>
        <time>2026-07-02T14:40:25Z</time>
      </trkpt>
      <trkpt lat="53.605148959904909" lon="-9.865055959671736">
        <ele>40.990000000000002</ele>
        <time>2026-07-02T14:40:26Z</time>
      </trkpt>
      <trkpt lat="53.605148959904909" lon="-9.864810034632683">
        <ele>40.990000000000002</ele>
        <time>2026-07-02T14:40:27Z</time>
      </trkpt>
      <trkpt lat="53.604949973523617" lon="-9.862600984051824">
        <ele>40.990000000000002</ele>
        <time>2026-07-02T14:40:35Z</time>
      </trkpt>
      <trkpt lat="53.604705976322293" lon="-9.860588992014527">
        <ele>44.840000000000003</ele>
        <time>2026-07-02T14:40:42Z</time>
      </trkpt>
      <trkpt lat="53.604641016572714" lon="-9.860376007854939">
        <ele>45.32</ele>
        <time>2026-07-02T14:40:43Z</time>
      </trkpt>
      <trkpt lat="53.604571027681231" lon="-9.860188001766801">
        <ele>45.32</ele>
        <time>2026-07-02T14:40:44Z</time>
      </trkpt>
      <trkpt lat="53.604507995769382" lon="-9.860021034255624">
        <ele>45.32</ele>
        <time>2026-07-02T14:40:45Z</time>
      </trkpt>
      <trkpt lat="53.604437001049519" lon="-9.859838979318738">
        <ele>45.32</ele>
        <time>2026-07-02T14:40:46Z</time>
      </trkpt>
      <trkpt lat="53.604328036308289" lon="-9.859716016799212">
        <ele>45.32</ele>
        <time>2026-07-02T14:40:47Z</time>
      </trkpt>
      <trkpt lat="53.603261020034552" lon="-9.858513968065381">
        <ele>43.880000000000003</ele>
        <time>2026-07-02T14:40:55Z</time>
      </trkpt>
      <trkpt lat="53.602002980187535" lon="-9.857131959870458">
        <ele>42.439999999999998</ele>
        <time>2026-07-02T14:41:05Z</time>
      </trkpt>
      <trkpt lat="53.601908013224602" lon="-9.857065994292498">
        <ele>42.439999999999998</ele>
        <time>2026-07-02T14:41:06Z</time>
      </trkpt>
      <trkpt lat="53.601738028228283" lon="-9.856946971267462">
        <ele>42.439999999999998</ele>
        <time>2026-07-02T14:41:08Z</time>
      </trkpt>
      <trkpt lat="53.601685976609588" lon="-9.856830965727568">
        <ele>42.439999999999998</ele>
        <time>2026-07-02T14:41:09Z</time>
      </trkpt>
      <trkpt lat="53.601637026295066" lon="-9.856711020693183">
        <ele>42.920000000000002</ele>
        <time>2026-07-02T14:41:10Z</time>
      </trkpt>
      <trkpt lat="53.601584974676371" lon="-9.856559978798032">
        <ele>42.439999999999998</ele>
        <time>2026-07-02T14:41:11Z</time>
      </trkpt>
      <trkpt lat="53.601524038240314" lon="-9.85638496465981">
        <ele>42.439999999999998</ele>
        <time>2026-07-02T14:41:12Z</time>
      </trkpt>
      <trkpt lat="53.600909980013967" lon="-9.855161961168051">
        <ele>43.399999999999999</ele>
        <time>2026-07-02T14:41:18Z</time>
      </trkpt>
      <trkpt lat="53.600444030016661" lon="-9.854209022596479">
        <ele>43.399999999999999</ele>
        <time>2026-07-02T14:41:22Z</time>
      </trkpt>
      <trkpt lat="53.600303968414664" lon="-9.854037025943399">
        <ele>43.399999999999999</ele>
        <time>2026-07-02T14:41:23Z</time>
      </trkpt>
      <trkpt lat="53.599656969308853" lon="-9.853170001879334">
        <ele>44.840000000000003</ele>
        <time>2026-07-02T14:41:28Z</time>
      </trkpt>
      <trkpt lat="53.599568959325552" lon="-9.852961041033268">
        <ele>44.840000000000003</ele>
        <time>2026-07-02T14:41:29Z</time>
      </trkpt>
      <trkpt lat="53.599407020956278" lon="-9.852577988058329">
        <ele>45.799999999999997</ele>
        <time>2026-07-02T14:41:31Z</time>
      </trkpt>
      <trkpt lat="53.599312976002693" lon="-9.852355029433966">
        <ele>45.799999999999997</ele>
        <time>2026-07-02T14:41:32Z</time>
      </trkpt>
      <trkpt lat="53.599100997671485" lon="-9.852142967283726">
        <ele>45.799999999999997</ele>
        <time>2026-07-02T14:41:34Z</time>
      </trkpt>
      <trkpt lat="53.598992032930255" lon="-9.852034002542496">
        <ele>45.799999999999997</ele>
        <time>2026-07-02T14:41:35Z</time>
      </trkpt>
      <trkpt lat="53.598915003240108" lon="-9.851854965090752">
        <ele>45.32</ele>
        <time>2026-07-02T14:41:36Z</time>
      </trkpt>
      <trkpt lat="53.598849959671497" lon="-9.851669976487756">
        <ele>44.840000000000003</ele>
        <time>2026-07-02T14:41:37Z</time>
      </trkpt>
      <trkpt lat="53.598807966336608" lon="-9.851477025076747">
        <ele>44.840000000000003</ele>
        <time>2026-07-02T14:41:38Z</time>
      </trkpt>
      <trkpt lat="53.598787011578679" lon="-9.851292036473751">
        <ele>44.840000000000003</ele>
        <time>2026-07-02T14:41:39Z</time>
      </trkpt>
      <trkpt lat="53.598765973001719" lon="-9.85109799541533">
        <ele>44.359999999999999</ele>
        <time>2026-07-02T14:41:40Z</time>
      </trkpt>
      <trkpt lat="53.598743006587029" lon="-9.850894985720515">
        <ele>43.399999999999999</ele>
        <time>2026-07-02T14:41:41Z</time>
      </trkpt>
      <trkpt lat="53.598719034343958" lon="-9.850676972419024">
        <ele>42.439999999999998</ele>
        <time>2026-07-02T14:41:42Z</time>
      </trkpt>
      <trkpt lat="53.59865901991725" lon="-9.850462982431054">
        <ele>41.950000000000003</ele>
        <time>2026-07-02T14:41:43Z</time>
      </trkpt>
      <trkpt lat="53.598587019369006" lon="-9.850252009928227">
        <ele>41.950000000000003</ele>
        <time>2026-07-02T14:41:44Z</time>
      </trkpt>
      <trkpt lat="53.59851099550724" lon="-9.850030979141593">
        <ele>41.469999999999999</ele>
        <time>2026-07-02T14:41:45Z</time>
      </trkpt>
      <trkpt lat="53.598437989130616" lon="-9.849797040224075">
        <ele>41.469999999999999</ele>
        <time>2026-07-02T14:41:46Z</time>
      </trkpt>
      <trkpt lat="53.598377974703908" lon="-9.849540973082185">
        <ele>40.990000000000002</ele>
        <time>2026-07-02T14:41:47Z</time>
      </trkpt>
      <trkpt lat="53.598075974732637" lon="-9.848534977063537">
        <ele>40.509999999999998</ele>
        <time>2026-07-02T14:41:51Z</time>
      </trkpt>
      <trkpt lat="53.597960975021124" lon="-9.848331967368722">
        <ele>40.030000000000001</ele>
        <time>2026-07-02T14:41:52Z</time>
      </trkpt>
      <trkpt lat="53.597841029986739" lon="-9.848128035664558">
        <ele>40.030000000000001</ele>
        <time>2026-07-02T14:41:53Z</time>
      </trkpt>
      <trkpt lat="53.597004013136029" lon="-9.846705961972475">
        <ele>39.549999999999997</ele>
        <time>2026-07-02T14:42:01Z</time>
      </trkpt>
      <trkpt lat="53.596907034516335" lon="-9.846573024988174">
        <ele>39.549999999999997</ele>
        <time>2026-07-02T14:42:02Z</time>
      </trkpt>
      <trkpt lat="53.59679396264255" lon="-9.846528014168143">
        <ele>39.549999999999997</ele>
        <time>2026-07-02T14:42:03Z</time>
      </trkpt>
      <trkpt lat="53.596675023436546" lon="-9.84647998586297">
        <ele>39.549999999999997</ele>
        <time>2026-07-02T14:42:04Z</time>
      </trkpt>
      <trkpt lat="53.596548959612846" lon="-9.846430029720068">
        <ele>40.030000000000001</ele>
        <time>2026-07-02T14:42:05Z</time>
      </trkpt>
      <trkpt lat="53.596272021532059" lon="-9.846314024180174">
        <ele>39.549999999999997</ele>
        <time>2026-07-02T14:42:07Z</time>
      </trkpt>
      <trkpt lat="53.59517902135849" lon="-9.845364019274712">
        <ele>37.149999999999999</ele>
        <time>2026-07-02T14:42:15Z</time>
      </trkpt>
      <trkpt lat="53.594849025830626" lon="-9.844835959374905">
        <ele>38.109999999999999</ele>
        <time>2026-07-02T14:42:18Z</time>
      </trkpt>
      <trkpt lat="53.594756992533803" lon="-9.844631021842361">
        <ele>38.590000000000003</ele>
        <time>2026-07-02T14:42:19Z</time>
      </trkpt>
      <trkpt lat="53.594676023349166" lon="-9.844424994662404">
        <ele>39.549999999999997</ele>
        <time>2026-07-02T14:42:20Z</time>
      </trkpt>
      <trkpt lat="53.594438983127475" lon="-9.843546990305185">
        <ele>41.469999999999999</ele>
        <time>2026-07-02T14:42:24Z</time>
      </trkpt>
      <trkpt lat="53.594420962035656" lon="-9.843340963125229">
        <ele>41.469999999999999</ele>
        <time>2026-07-02T14:42:25Z</time>
      </trkpt>
      <trkpt lat="53.594420962035656" lon="-9.843149017542601">
        <ele>40.990000000000002</ele>
        <time>2026-07-02T14:42:26Z</time>
      </trkpt>
      <trkpt lat="53.594433031976223" lon="-9.842956988140941">
        <ele>40.509999999999998</ele>
        <time>2026-07-02T14:42:27Z</time>
      </trkpt>
      <trkpt lat="53.594457004219294" lon="-9.842793960124254">
        <ele>39.549999999999997</ele>
        <time>2026-07-02T14:42:28Z</time>
      </trkpt>
      <trkpt lat="53.594522969797254" lon="-9.842649959027767">
        <ele>39.07</ele>
        <time>2026-07-02T14:42:29Z</time>
      </trkpt>
      <trkpt lat="53.594593964517117" lon="-9.842492965981364">
        <ele>38.590000000000003</ele>
        <time>2026-07-02T14:42:30Z</time>
      </trkpt>
      <trkpt lat="53.594870986416936" lon="-9.841732978820801">
        <ele>38.109999999999999</ele>
        <time>2026-07-02T14:42:34Z</time>
      </trkpt>
      <trkpt lat="53.594895964488387" lon="-9.841483030468226">
        <ele>38.590000000000003</ele>
        <time>2026-07-02T14:42:35Z</time>
      </trkpt>
      <trkpt lat="53.594919014722109" lon="-9.841249007731676">
        <ele>38.590000000000003</ele>
        <time>2026-07-02T14:42:36Z</time>
      </trkpt>
      <trkpt lat="53.594999983906746" lon="-9.840266983956099">
        <ele>38.109999999999999</ele>
        <time>2026-07-02T14:42:40Z</time>
      </trkpt>
      <trkpt lat="53.594884984195232" lon="-9.838794032111764">
        <ele>38.590000000000003</ele>
        <time>2026-07-02T14:42:46Z</time>
      </trkpt>
      <trkpt lat="53.594833016395569" lon="-9.838567972183228">
        <ele>38.590000000000003</ele>
        <time>2026-07-02T14:42:47Z</time>
      </trkpt>
      <trkpt lat="53.594756992533803" lon="-9.838374014943838">
        <ele>38.590000000000003</ele>
        <time>2026-07-02T14:42:48Z</time>
      </trkpt>
      <trkpt lat="53.594512995332479" lon="-9.837751993909478">
        <ele>39.07</ele>
        <time>2026-07-02T14:42:51Z</time>
      </trkpt>
      <trkpt lat="53.593916958197951" lon="-9.836202012374997">
        <ele>40.990000000000002</ele>
        <time>2026-07-02T14:42:58Z</time>
      </trkpt>
      <trkpt lat="53.593879994004965" lon="-9.835988022387028">
        <ele>40.990000000000002</ele>
        <time>2026-07-02T14:42:59Z</time>
      </trkpt>
      <trkpt lat="53.59361101873219" lon="-9.834095975384116">
        <ele>42.920000000000002</ele>
        <time>2026-07-02T14:43:08Z</time>
      </trkpt>
      <trkpt lat="53.593570031225681" lon="-9.833387034013867">
        <ele>44.840000000000003</ele>
        <time>2026-07-02T14:43:12Z</time>
      </trkpt>
      <trkpt lat="53.593552010133862" lon="-9.833216965198517">
        <ele>45.32</ele>
        <time>2026-07-02T14:43:13Z</time>
      </trkpt>
      <trkpt lat="53.593473974615335" lon="-9.8330710362643">
        <ele>45.32</ele>
        <time>2026-07-02T14:43:14Z</time>
      </trkpt>
      <trkpt lat="53.593387976288795" lon="-9.832909014075995">
        <ele>45.32</ele>
        <time>2026-07-02T14:43:15Z</time>
      </trkpt>
      <trkpt lat="53.593296026811004" lon="-9.832738023251295">
        <ele>45.32</ele>
        <time>2026-07-02T14:43:16Z</time>
      </trkpt>
      <trkpt lat="53.592303022742271" lon="-9.83088000677526">
        <ele>43.880000000000003</ele>
        <time>2026-07-02T14:43:25Z</time>
      </trkpt>
      <trkpt lat="53.590921014547348" lon="-9.828315982595086">
        <ele>47.719999999999999</ele>
        <time>2026-07-02T14:43:37Z</time>
      </trkpt>
      <trkpt lat="53.589568007737398" lon="-9.825965026393533">
        <ele>46.759999999999998</ele>
        <time>2026-07-02T14:43:48Z</time>
      </trkpt>
      <trkpt lat="53.588985968381166" lon="-9.824546976014972">
        <ele>46.759999999999998</ele>
        <time>2026-07-02T14:43:54Z</time>
      </trkpt>
      <trkpt lat="53.588295970112085" lon="-9.822602961212397">
        <ele>47.719999999999999</ele>
        <time>2026-07-02T14:44:02Z</time>
      </trkpt>
      <trkpt lat="53.587752990424633" lon="-9.820539001375437">
        <ele>47.719999999999999</ele>
        <time>2026-07-02T14:44:10Z</time>
      </trkpt>
      <trkpt lat="53.587098028510809" lon="-9.818705962970853">
        <ele>49.159999999999997</ele>
        <time>2026-07-02T14:44:18Z</time>
      </trkpt>
      <trkpt lat="53.586942041292787" lon="-9.818305978551507">
        <ele>49.159999999999997</ele>
        <time>2026-07-02T14:44:20Z</time>
      </trkpt>
      <trkpt lat="53.586897030472755" lon="-9.818072961643338">
        <ele>49.159999999999997</ele>
        <time>2026-07-02T14:44:21Z</time>
      </trkpt>
      <trkpt lat="53.586855959147215" lon="-9.817831981927156">
        <ele>49.159999999999997</ele>
        <time>2026-07-02T14:44:22Z</time>
      </trkpt>
      <trkpt lat="53.586440971121192" lon="-9.815897019580007">
        <ele>49.159999999999997</ele>
        <time>2026-07-02T14:44:29Z</time>
      </trkpt>
      <trkpt lat="53.585711997002363" lon="-9.812606032937765">
        <ele>49.649999999999999</ele>
        <time>2026-07-02T14:44:40Z</time>
      </trkpt>
      <trkpt lat="53.58505804091692" lon="-9.809654010459781">
        <ele>48.68</ele>
        <time>2026-07-02T14:44:51Z</time>
      </trkpt>
      <trkpt lat="53.584885960444808" lon="-9.807406989857554">
        <ele>48.68</ele>
        <time>2026-07-02T14:44:59Z</time>
      </trkpt>
      <trkpt lat="53.584635006263852" lon="-9.804221028462052">
        <ele>50.130000000000003</ele>
        <time>2026-07-02T14:45:10Z</time>
      </trkpt>
      <trkpt lat="53.583945007994771" lon="-9.80120999738574">
        <ele>50.130000000000003</ele>
        <time>2026-07-02T14:45:21Z</time>
      </trkpt>
      <trkpt lat="53.583781979978085" lon="-9.798700036481023">
        <ele>56.859999999999999</ele>
        <time>2026-07-02T14:45:30Z</time>
      </trkpt>
      <trkpt lat="53.583796983584762" lon="-9.798440029844642">
        <ele>58.299999999999997</ele>
        <time>2026-07-02T14:45:31Z</time>
      </trkpt>
      <trkpt lat="53.583889016881585" lon="-9.797660009935498">
        <ele>61.18</ele>
        <time>2026-07-02T14:45:34Z</time>
      </trkpt>
      <trkpt lat="53.58389999717474" lon="-9.797386005520821">
        <ele>62.140000000000001</ele>
        <time>2026-07-02T14:45:35Z</time>
      </trkpt>
      <trkpt lat="53.583885999396443" lon="-9.797113006934524">
        <ele>62.619999999999997</ele>
        <time>2026-07-02T14:45:36Z</time>
      </trkpt>
      <trkpt lat="53.583872001618147" lon="-9.796830033883452">
        <ele>63.100000000000001</ele>
        <time>2026-07-02T14:45:37Z</time>
      </trkpt>
      <trkpt lat="53.583847023546696" lon="-9.79654697701335">
        <ele>64.069999999999993</ele>
        <time>2026-07-02T14:45:38Z</time>
      </trkpt>
      <trkpt lat="53.583808969706297" lon="-9.796261992305517">
        <ele>65.030000000000001</ele>
        <time>2026-07-02T14:45:39Z</time>
      </trkpt>
      <trkpt lat="53.5833840072155" lon="-9.793089022859931">
        <ele>71.760000000000005</ele>
        <time>2026-07-02T14:45:50Z</time>
      </trkpt>
      <trkpt lat="53.58295502141118" lon="-9.789888979867101">
        <ele>77.519999999999996</ele>
        <time>2026-07-02T14:46:02Z</time>
      </trkpt>
      <trkpt lat="53.582492005079985" lon="-9.787603989243507">
        <ele>75.120000000000005</ele>
        <time>2026-07-02T14:46:10Z</time>
      </trkpt>
      <trkpt lat="53.581893034279346" lon="-9.785258984193206">
        <ele>74.159999999999997</ele>
        <time>2026-07-02T14:46:19Z</time>
      </trkpt>
      <trkpt lat="53.581565972417593" lon="-9.784050984308124">
        <ele>72.239999999999995</ele>
        <time>2026-07-02T14:46:26Z</time>
      </trkpt>
      <trkpt lat="53.581543006002903" lon="-9.783966997638345">
        <ele>71.760000000000005</ele>
        <time>2026-07-02T14:46:27Z</time>
      </trkpt>
      <trkpt lat="53.581520961597562" lon="-9.783887034282088">
        <ele>71.760000000000005</ele>
        <time>2026-07-02T14:46:28Z</time>
      </trkpt>
      <trkpt lat="53.581564966589212" lon="-9.783731969073415">
        <ele>71.760000000000005</ele>
        <time>2026-07-02T14:46:29Z</time>
      </trkpt>
      <trkpt lat="53.581629004329443" lon="-9.783641025424004">
        <ele>71.760000000000005</ele>
        <time>2026-07-02T14:46:30Z</time>
      </trkpt>
      <trkpt lat="53.58170997351408" lon="-9.7835289593786">
        <ele>71.269999999999996</ele>
        <time>2026-07-02T14:46:31Z</time>
      </trkpt>
      <trkpt lat="53.582468032836914" lon="-9.782464038580656">
        <ele>69.829999999999998</ele>
        <time>2026-07-02T14:46:38Z</time>
      </trkpt>
      <trkpt lat="53.583453996106982" lon="-9.780484987422824">
        <ele>69.829999999999998</ele>
        <time>2026-07-02T14:46:47Z</time>
      </trkpt>
      <trkpt lat="53.583778040483594" lon="-9.779589967802167">
        <ele>72.719999999999999</ele>
        <time>2026-07-02T14:46:51Z</time>
      </trkpt>
      <trkpt lat="53.583829002454877" lon="-9.779385030269623">
        <ele>73.200000000000003</ele>
        <time>2026-07-02T14:46:52Z</time>
      </trkpt>
      <trkpt lat="53.583841994404793" lon="-9.779167016968131">
        <ele>73.680000000000007</ele>
        <time>2026-07-02T14:46:53Z</time>
      </trkpt>
      <trkpt lat="53.583841994404793" lon="-9.778941040858626">
        <ele>73.680000000000007</ele>
        <time>2026-07-02T14:46:54Z</time>
      </trkpt>
      <trkpt lat="53.583841994404793" lon="-9.778712969273329">
        <ele>73.200000000000003</ele>
        <time>2026-07-02T14:46:55Z</time>
      </trkpt>
      <trkpt lat="53.583841994404793" lon="-9.77847701869905">
        <ele>73.200000000000003</ele>
        <time>2026-07-02T14:46:56Z</time>
      </trkpt>
      <trkpt lat="53.583841994404793" lon="-9.778237966820598">
        <ele>72.719999999999999</ele>
        <time>2026-07-02T14:46:57Z</time>
      </trkpt>
      <trkpt lat="53.583852974697948" lon="-9.778010984882712">
        <ele>71.760000000000005</ele>
        <time>2026-07-02T14:46:58Z</time>
      </trkpt>
      <trkpt lat="53.583895973861217" lon="-9.777776962146163">
        <ele>71.269999999999996</ele>
        <time>2026-07-02T14:46:59Z</time>
      </trkpt>
      <trkpt lat="53.583983983844519" lon="-9.777589039877057">
        <ele>69.829999999999998</ele>
        <time>2026-07-02T14:47:00Z</time>
      </trkpt>
      <trkpt lat="53.584091020748019" lon="-9.77740396745503">
        <ele>68.870000000000005</ele>
        <time>2026-07-02T14:47:01Z</time>
      </trkpt>
      <trkpt lat="53.584198979660869" lon="-9.777215039357543">
        <ele>68.390000000000001</ele>
        <time>2026-07-02T14:47:02Z</time>
      </trkpt>
      <trkpt lat="53.584310039877892" lon="-9.777020998299122">
        <ele>67.909999999999997</ele>
        <time>2026-07-02T14:47:03Z</time>
      </trkpt>
      <trkpt lat="53.584663001820445" lon="-9.776473995298147">
        <ele>69.829999999999998</ele>
        <time>2026-07-02T14:47:06Z</time>
      </trkpt>
      <trkpt lat="53.584797028452158" lon="-9.776339968666434">
        <ele>71.760000000000005</ele>
        <time>2026-07-02T14:47:07Z</time>
      </trkpt>
      <trkpt lat="53.584925020113587" lon="-9.776211977005005">
        <ele>73.680000000000007</ele>
        <time>2026-07-02T14:47:08Z</time>
      </trkpt>
      <trkpt lat="53.585043959319592" lon="-9.77609395980835">
        <ele>75.120000000000005</ele>
        <time>2026-07-02T14:47:09Z</time>
      </trkpt>
      <trkpt lat="53.585150996223092" lon="-9.775987006723881">
        <ele>76.560000000000002</ele>
        <time>2026-07-02T14:47:10Z</time>
      </trkpt>
      <trkpt lat="53.585241017863154" lon="-9.775859015062451">
        <ele>77.519999999999996</ele>
        <time>2026-07-02T14:47:11Z</time>
      </trkpt>
      <trkpt lat="53.585329027846456" lon="-9.775700010359287">
        <ele>78</ele>
        <time>2026-07-02T14:47:12Z</time>
      </trkpt>
      <trkpt lat="53.585423994809389" lon="-9.775529019534588">
        <ele>78</ele>
        <time>2026-07-02T14:47:13Z</time>
      </trkpt>
      <trkpt lat="53.586152968928218" lon="-9.774421015754342">
        <ele>74.640000000000001</ele>
        <time>2026-07-02T14:47:19Z</time>
      </trkpt>
      <trkpt lat="53.586296970024705" lon="-9.774284977465868">
        <ele>74.159999999999997</ele>
        <time>2026-07-02T14:47:20Z</time>
      </trkpt>
      <trkpt lat="53.586559994146228" lon="-9.774037962779403">
        <ele>73.200000000000003</ele>
        <time>2026-07-02T14:47:22Z</time>
      </trkpt>
      <trkpt lat="53.586659990251064" lon="-9.773875018581748">
        <ele>72.719999999999999</ele>
        <time>2026-07-02T14:47:23Z</time>
      </trkpt>
      <trkpt lat="53.586748000234365" lon="-9.773668991401792">
        <ele>72.719999999999999</ele>
        <time>2026-07-02T14:47:24Z</time>
      </trkpt>
      <trkpt lat="53.58684103935957" lon="-9.77345198392868">
        <ele>72.239999999999995</ele>
        <time>2026-07-02T14:47:25Z</time>
      </trkpt>
      <trkpt lat="53.586937012150884" lon="-9.773229025304318">
        <ele>71.269999999999996</ele>
        <time>2026-07-02T14:47:26Z</time>
      </trkpt>
      <trkpt lat="53.587133986875415" lon="-9.772769026458263">
        <ele>69.829999999999998</ele>
        <time>2026-07-02T14:47:28Z</time>
      </trkpt>
      <trkpt lat="53.587228031829" lon="-9.772550007328391">
        <ele>69.349999999999994</ele>
        <time>2026-07-02T14:47:29Z</time>
      </trkpt>
      <trkpt lat="53.58735803514719" lon="-9.772380022332072">
        <ele>68.390000000000001</ele>
        <time>2026-07-02T14:47:30Z</time>
      </trkpt>
      <trkpt lat="53.587492983788252" lon="-9.772237027063966">
        <ele>67.909999999999997</ele>
        <time>2026-07-02T14:47:31Z</time>
      </trkpt>
      <trkpt lat="53.587626004591584" lon="-9.772096965461969">
        <ele>67.430000000000007</ele>
        <time>2026-07-02T14:47:32Z</time>
      </trkpt>
      <trkpt lat="53.587763970717788" lon="-9.771982971578836">
        <ele>66.950000000000003</ele>
        <time>2026-07-02T14:47:33Z</time>
      </trkpt>
      <trkpt lat="53.587901014834642" lon="-9.771880963817239">
        <ele>66.469999999999999</ele>
        <time>2026-07-02T14:47:34Z</time>
      </trkpt>
      <trkpt lat="53.588051972910762" lon="-9.771857997402549">
        <ele>65.510000000000005</ele>
        <time>2026-07-02T14:47:35Z</time>
      </trkpt>
      <trkpt lat="53.588219024240971" lon="-9.771845005452633">
        <ele>65.030000000000001</ele>
        <time>2026-07-02T14:47:36Z</time>
      </trkpt>
      <trkpt lat="53.588374005630612" lon="-9.771894039586186">
        <ele>64.549999999999997</ele>
        <time>2026-07-02T14:47:37Z</time>
      </trkpt>
      <trkpt lat="53.588534016162157" lon="-9.771943995729089">
        <ele>63.579999999999998</ele>
        <time>2026-07-02T14:47:38Z</time>
      </trkpt>
      <trkpt lat="53.58907800167799" lon="-9.772070981562138">
        <ele>62.140000000000001</ele>
        <time>2026-07-02T14:47:42Z</time>
      </trkpt>
      <trkpt lat="53.589185038581491" lon="-9.772060001268983">
        <ele>61.659999999999997</ele>
        <time>2026-07-02T14:47:43Z</time>
      </trkpt>
      <trkpt lat="53.589320993050933" lon="-9.771964028477669">
        <ele>61.18</ele>
        <time>2026-07-02T14:47:44Z</time>
      </trkpt>
      <trkpt lat="53.589453008025885" lon="-9.771870989352465">
        <ele>60.700000000000003</ele>
        <time>2026-07-02T14:47:45Z</time>
      </trkpt>
      <trkpt lat="53.589592985808849" lon="-9.771771999076009">
        <ele>60.219999999999999</ele>
        <time>2026-07-02T14:47:46Z</time>
      </trkpt>
      <trkpt lat="53.590311985462904" lon="-9.771287022158504">
        <ele>59.740000000000002</ele>
        <time>2026-07-02T14:47:51Z</time>
      </trkpt>
      <trkpt lat="53.590455986559391" lon="-9.771284004673362">
        <ele>59.740000000000002</ele>
        <time>2026-07-02T14:47:52Z</time>
      </trkpt>
      <trkpt lat="53.590606022626162" lon="-9.771279981359839">
        <ele>60.219999999999999</ele>
        <time>2026-07-02T14:47:53Z</time>
      </trkpt>
      <trkpt lat="53.591083036735654" lon="-9.771269001066685">
        <ele>60.219999999999999</ele>
        <time>2026-07-02T14:47:56Z</time>
      </trkpt>
      <trkpt lat="53.591251010075212" lon="-9.771239999681711">
        <ele>60.219999999999999</ele>
        <time>2026-07-02T14:47:57Z</time>
      </trkpt>
      <trkpt lat="53.591413032263517" lon="-9.771154001355171">
        <ele>60.219999999999999</ele>
        <time>2026-07-02T14:47:58Z</time>
      </trkpt>
      <trkpt lat="53.592321965843439" lon="-9.77061303332448">
        <ele>59.259999999999998</ele>
        <time>2026-07-02T14:48:04Z</time>
      </trkpt>
      <trkpt lat="53.59244903549552" lon="-9.770490992814302">
        <ele>58.780000000000001</ele>
        <time>2026-07-02T14:48:05Z</time>
      </trkpt>
      <trkpt lat="53.592577027156949" lon="-9.770364006981254">
        <ele>58.780000000000001</ele>
        <time>2026-07-02T14:48:06Z</time>
      </trkpt>
      <trkpt lat="53.594220969825983" lon="-9.768453016877174">
        <ele>47.240000000000002</ele>
        <time>2026-07-02T14:48:18Z</time>
      </trkpt>
      <trkpt lat="53.594611985608935" lon="-9.767927974462509">
        <ele>44.840000000000003</ele>
        <time>2026-07-02T14:48:21Z</time>
      </trkpt>
      <trkpt lat="53.594711981713772" lon="-9.767703004181385">
        <ele>43.880000000000003</ele>
        <time>2026-07-02T14:48:22Z</time>
      </trkpt>
      <trkpt lat="53.594812983646989" lon="-9.767475016415119">
        <ele>42.920000000000002</ele>
        <time>2026-07-02T14:48:23Z</time>
      </trkpt>
      <trkpt lat="53.595422012731433" lon="-9.765292033553124">
        <ele>35.229999999999997</ele>
        <time>2026-07-02T14:48:31Z</time>
      </trkpt>
      <trkpt lat="53.596345027908683" lon="-9.762340011075139">
        <ele>24.649999999999999</ele>
        <time>2026-07-02T14:48:42Z</time>
      </trkpt>
      <trkpt lat="53.597305007278919" lon="-9.758879961445928">
        <ele>14.56</ele>
        <time>2026-07-02T14:48:54Z</time>
      </trkpt>
      <trkpt lat="53.597718989476562" lon="-9.756941981613636">
        <ele>9.75</ele>
        <time>2026-07-02T14:49:00Z</time>
      </trkpt>
      <trkpt lat="53.597738016396761" lon="-9.756638975813985">
        <ele>8.789999999999999</ele>
        <time>2026-07-02T14:49:01Z</time>
      </trkpt>
      <trkpt lat="53.597798030823469" lon="-9.755674973130226">
        <ele>7.35</ele>
        <time>2026-07-02T14:49:04Z</time>
      </trkpt>
      <trkpt lat="53.597840024158359" lon="-9.755356963723898">
        <ele>6.87</ele>
        <time>2026-07-02T14:49:05Z</time>
      </trkpt>
      <trkpt lat="53.597919987514615" lon="-9.75503996014595">
        <ele>6.39</ele>
        <time>2026-07-02T14:49:06Z</time>
      </trkpt>
      <trkpt lat="53.598567992448807" lon="-9.752054996788502">
        <ele>3.02</ele>
        <time>2026-07-02T14:49:15Z</time>
      </trkpt>
      <trkpt lat="53.598809977993369" lon="-9.749568002298474">
        <ele>3.5</ele>
        <time>2026-07-02T14:49:24Z</time>
      </trkpt>
      <trkpt lat="53.598878039047122" lon="-9.7490019723773">
        <ele>3.98</ele>
        <time>2026-07-02T14:49:26Z</time>
      </trkpt>
      <trkpt lat="53.598895976319909" lon="-9.748707013204694">
        <ele>4.46</ele>
        <time>2026-07-02T14:49:27Z</time>
      </trkpt>
      <trkpt lat="53.598988009616733" lon="-9.746793005615473">
        <ele>5.42</ele>
        <time>2026-07-02T14:49:33Z</time>
      </trkpt>
      <trkpt lat="53.599022962152958" lon="-9.746460998430848">
        <ele>5.42</ele>
        <time>2026-07-02T14:49:34Z</time>
      </trkpt>
      <trkpt lat="53.599221026524901" lon="-9.743832014501095">
        <ele>5.91</ele>
        <time>2026-07-02T14:49:42Z</time>
      </trkpt>
      <trkpt lat="53.599277017638087" lon="-9.741645008325577">
        <ele>6.39</ele>
        <time>2026-07-02T14:49:49Z</time>
      </trkpt>
      <trkpt lat="53.599267965182662" lon="-9.741367986425757">
        <ele>6.39</ele>
        <time>2026-07-02T14:49:50Z</time>
      </trkpt>
      <trkpt lat="53.599257990717888" lon="-9.741090964525938">
        <ele>6.39</ele>
        <time>2026-07-02T14:49:51Z</time>
      </trkpt>
      <trkpt lat="53.599249022081494" lon="-9.740796005353332">
        <ele>6.87</ele>
        <time>2026-07-02T14:49:52Z</time>
      </trkpt>
      <trkpt lat="53.599281962960958" lon="-9.740520995110273">
        <ele>6.87</ele>
        <time>2026-07-02T14:49:53Z</time>
      </trkpt>
      <trkpt lat="53.59939000569284" lon="-9.739633016288281">
        <ele>7.35</ele>
        <time>2026-07-02T14:49:56Z</time>
      </trkpt>
      <trkpt lat="53.599654035642743" lon="-9.737653965130448">
        <ele>8.310000000000001</ele>
        <time>2026-07-02T14:50:03Z</time>
      </trkpt>
      <trkpt lat="53.599720001220703" lon="-9.73681703209877">
        <ele>8.310000000000001</ele>
        <time>2026-07-02T14:50:06Z</time>
      </trkpt>
      <trkpt lat="53.599999034777284" lon="-9.734060978516936">
        <ele>7.83</ele>
        <time>2026-07-02T14:50:15Z</time>
      </trkpt>
      <trkpt lat="53.599992999807" lon="-9.732348974794149">
        <ele>7.83</ele>
        <time>2026-07-02T14:50:22Z</time>
      </trkpt>
      <trkpt lat="53.599925022572279" lon="-9.730838974937797">
        <ele>7.83</ele>
        <time>2026-07-02T14:50:30Z</time>
      </trkpt>
      <trkpt lat="53.599893003702164" lon="-9.730634037405253">
        <ele>7.83</ele>
        <time>2026-07-02T14:50:31Z</time>
      </trkpt>
      <trkpt lat="53.599846987053752" lon="-9.730427004396915">
        <ele>7.35</ele>
        <time>2026-07-02T14:50:32Z</time>
      </trkpt>
      <trkpt lat="53.599780015647411" lon="-9.730236986652017">
        <ele>7.35</ele>
        <time>2026-07-02T14:50:33Z</time>
      </trkpt>
      <trkpt lat="53.59971203841269" lon="-9.730040011927486">
        <ele>7.35</ele>
        <time>2026-07-02T14:50:34Z</time>
      </trkpt>
      <trkpt lat="53.599639032036066" lon="-9.729829961434007">
        <ele>7.35</ele>
        <time>2026-07-02T14:50:35Z</time>
      </trkpt>
      <trkpt lat="53.599506011232734" lon="-9.729381026700139">
        <ele>7.35</ele>
        <time>2026-07-02T14:50:37Z</time>
      </trkpt>
      <trkpt lat="53.599468041211367" lon="-9.729152033105493">
        <ele>7.35</ele>
        <time>2026-07-02T14:50:38Z</time>
      </trkpt>
      <trkpt lat="53.599429987370968" lon="-9.728923039510846">
        <ele>7.35</ele>
        <time>2026-07-02T14:50:39Z</time>
      </trkpt>
      <trkpt lat="53.599399980157614" lon="-9.728701002895832">
        <ele>7.35</ele>
        <time>2026-07-02T14:50:40Z</time>
      </trkpt>
      <trkpt lat="53.599408026784658" lon="-9.728475026786327">
        <ele>7.35</ele>
        <time>2026-07-02T14:50:41Z</time>
      </trkpt>
      <trkpt lat="53.599415989592671" lon="-9.728239998221397">
        <ele>6.87</ele>
        <time>2026-07-02T14:50:42Z</time>
      </trkpt>
      <trkpt lat="53.599423030391335" lon="-9.727082038298249">
        <ele>6.39</ele>
        <time>2026-07-02T14:50:47Z</time>
      </trkpt>
      <trkpt lat="53.599383970722556" lon="-9.726865030825138">
        <ele>6.39</ele>
        <time>2026-07-02T14:50:48Z</time>
      </trkpt>
      <trkpt lat="53.599334014579654" lon="-9.726651040837169">
        <ele>6.39</ele>
        <time>2026-07-02T14:50:49Z</time>
      </trkpt>
      <trkpt lat="53.5992849804461" lon="-9.726438978686929">
        <ele>6.39</ele>
        <time>2026-07-02T14:50:50Z</time>
      </trkpt>
      <trkpt lat="53.599225971847773" lon="-9.726245021447539">
        <ele>6.39</ele>
        <time>2026-07-02T14:50:51Z</time>
      </trkpt>
      <trkpt lat="53.599166041240096" lon="-9.726064978167415">
        <ele>6.39</ele>
        <time>2026-07-02T14:50:52Z</time>
      </trkpt>
      <trkpt lat="53.598753986880183" lon="-9.724448025226593">
        <ele>6.87</ele>
        <time>2026-07-02T14:50:59Z</time>
      </trkpt>
      <trkpt lat="53.598695984110236" lon="-9.724180977791548">
        <ele>6.87</ele>
        <time>2026-07-02T14:51:00Z</time>
      </trkpt>
      <trkpt lat="53.598285019397736" lon="-9.722361015155911">
        <ele>6.87</ele>
        <time>2026-07-02T14:51:06Z</time>
      </trkpt>
      <trkpt lat="53.598131965845823" lon="-9.721063999459148">
        <ele>8.310000000000001</ele>
        <time>2026-07-02T14:51:11Z</time>
      </trkpt>
      <trkpt lat="53.598130038008094" lon="-9.720826037228108">
        <ele>8.310000000000001</ele>
        <time>2026-07-02T14:51:12Z</time>
      </trkpt>
      <trkpt lat="53.598091984167695" lon="-9.717942997813225">
        <ele>9.75</ele>
        <time>2026-07-02T14:51:24Z</time>
      </trkpt>
      <trkpt lat="53.597910013049841" lon="-9.715919019654393">
        <ele>8.789999999999999</ele>
        <time>2026-07-02T14:51:33Z</time>
      </trkpt>
      <trkpt lat="53.59782200306654" lon="-9.715533033013344">
        <ele>8.310000000000001</ele>
        <time>2026-07-02T14:51:35Z</time>
      </trkpt>
      <trkpt lat="53.597489995881915" lon="-9.714530976489186">
        <ele>8.789999999999999</ele>
        <time>2026-07-02T14:51:40Z</time>
      </trkpt>
      <trkpt lat="53.596967970952392" lon="-9.712308011949062">
        <ele>11.67</ele>
        <time>2026-07-02T14:51:48Z</time>
      </trkpt>
      <trkpt lat="53.596525993198156" lon="-9.710299037396908">
        <ele>12.15</ele>
        <time>2026-07-02T14:51:56Z</time>
      </trkpt>
      <trkpt lat="53.596480982378125" lon="-9.710069037973881">
        <ele>12.630000000000001</ele>
        <time>2026-07-02T14:51:57Z</time>
      </trkpt>
      <trkpt lat="53.596488023176789" lon="-9.709872985258699">
        <ele>12.630000000000001</ele>
        <time>2026-07-02T14:51:58Z</time>
      </trkpt>
      <trkpt lat="53.59649003483355" lon="-9.708647970110178">
        <ele>12.630000000000001</ele>
        <time>2026-07-02T14:52:04Z</time>
      </trkpt>
      <trkpt lat="53.596471007913351" lon="-9.708463987335563">
        <ele>12.630000000000001</ele>
        <time>2026-07-02T14:52:05Z</time>
      </trkpt>
      <trkpt lat="53.596435971558094" lon="-9.708282016217709">
        <ele>12.15</ele>
        <time>2026-07-02T14:52:06Z</time>
      </trkpt>
      <trkpt lat="53.596378974616528" lon="-9.708111025393009">
        <ele>12.15</ele>
        <time>2026-07-02T14:52:07Z</time>
      </trkpt>
      <trkpt lat="53.596312003210187" lon="-9.707938022911549">
        <ele>11.67</ele>
        <time>2026-07-02T14:52:08Z</time>
      </trkpt>
      <trkpt lat="53.596218964084983" lon="-9.707793015986681">
        <ele>11.67</ele>
        <time>2026-07-02T14:52:09Z</time>
      </trkpt>
      <trkpt lat="53.596122991293669" lon="-9.707644991576672">
        <ele>11.19</ele>
        <time>2026-07-02T14:52:10Z</time>
      </trkpt>
      <trkpt lat="53.596028024330735" lon="-9.707497972995043">
        <ele>11.19</ele>
        <time>2026-07-02T14:52:11Z</time>
      </trkpt>
      <trkpt lat="53.59593297354877" lon="-9.707350032404065">
        <ele>10.710000000000001</ele>
        <time>2026-07-02T14:52:12Z</time>
      </trkpt>
      <trkpt lat="53.59586700797081" lon="-9.707165965810418">
        <ele>10.23</ele>
        <time>2026-07-02T14:52:13Z</time>
      </trkpt>
      <trkpt lat="53.595815962180495" lon="-9.706966979429126">
        <ele>9.75</ele>
        <time>2026-07-02T14:52:14Z</time>
      </trkpt>
      <trkpt lat="53.595766006037593" lon="-9.706775033846498">
        <ele>9.27</ele>
        <time>2026-07-02T14:52:15Z</time>
      </trkpt>
      <trkpt lat="53.595661986619234" lon="-9.706428023055196">
        <ele>8.310000000000001</ele>
        <time>2026-07-02T14:52:17Z</time>
      </trkpt>
      <trkpt lat="53.595575988292694" lon="-9.706305982545018">
        <ele>7.83</ele>
        <time>2026-07-02T14:52:18Z</time>
      </trkpt>
      <trkpt lat="53.595485966652632" lon="-9.706174973398447">
        <ele>7.35</ele>
        <time>2026-07-02T14:52:19Z</time>
      </trkpt>
      <trkpt lat="53.595054969191551" lon="-9.705567033961415">
        <ele>4.94</ele>
        <time>2026-07-02T14:52:24Z</time>
      </trkpt>
      <trkpt lat="53.59498699195683" lon="-9.705438958480954">
        <ele>4.46</ele>
        <time>2026-07-02T14:52:25Z</time>
      </trkpt>
      <trkpt lat="53.59492396004498" lon="-9.705292023718357">
        <ele>4.46</ele>
        <time>2026-07-02T14:52:26Z</time>
      </trkpt>
      <trkpt lat="53.594861011952162" lon="-9.705145005136728">
        <ele>3.98</ele>
        <time>2026-07-02T14:52:27Z</time>
      </trkpt>
      <trkpt lat="53.594796974211931" lon="-9.704996980726719">
        <ele>3.98</ele>
        <time>2026-07-02T14:52:28Z</time>
      </trkpt>
      <trkpt lat="53.594681974500418" lon="-9.704476967453957">
        <ele>4.94</ele>
        <time>2026-07-02T14:52:31Z</time>
      </trkpt>
      <trkpt lat="53.594648027792573" lon="-9.704292984679341">
        <ele>5.42</ele>
        <time>2026-07-02T14:52:32Z</time>
      </trkpt>
      <trkpt lat="53.594334963709116" lon="-9.702487019822002">
        <ele>6.39</ele>
        <time>2026-07-02T14:52:41Z</time>
      </trkpt>
      <trkpt lat="53.594334963709116" lon="-9.702278980985284">
        <ele>6.39</ele>
        <time>2026-07-02T14:52:42Z</time>
      </trkpt>
      <trkpt lat="53.594340998679399" lon="-9.702072031795979">
        <ele>6.39</ele>
        <time>2026-07-02T14:52:43Z</time>
      </trkpt>
      <trkpt lat="53.594377962872386" lon="-9.701870027929544">
        <ele>6.39</ele>
        <time>2026-07-02T14:52:44Z</time>
      </trkpt>
      <trkpt lat="53.594415010884404" lon="-9.701664000749588">
        <ele>6.39</ele>
        <time>2026-07-02T14:52:45Z</time>
      </trkpt>
      <trkpt lat="53.594452980905771" lon="-9.701458979398012">
        <ele>5.91</ele>
        <time>2026-07-02T14:52:46Z</time>
      </trkpt>
      <trkpt lat="53.59453403390944" lon="-9.701276002451778">
        <ele>5.42</ele>
        <time>2026-07-02T14:52:47Z</time>
      </trkpt>
      <trkpt lat="53.59462296590209" lon="-9.701118003576994">
        <ele>5.42</ele>
        <time>2026-07-02T14:52:48Z</time>
      </trkpt>
      <trkpt lat="53.595646983012557" lon="-9.699209025129676">
        <ele>4.94</ele>
        <time>2026-07-02T14:53:00Z</time>
      </trkpt>
      <trkpt lat="53.59593003988266" lon="-9.698525983840227">
        <ele>4.94</ele>
        <time>2026-07-02T14:53:04Z</time>
      </trkpt>
      <trkpt lat="53.595997011289001" lon="-9.698347030207515">
        <ele>4.94</ele>
        <time>2026-07-02T14:53:05Z</time>
      </trkpt>
      <trkpt lat="53.596050990745425" lon="-9.698173021897674">
        <ele>4.94</ele>
        <time>2026-07-02T14:53:06Z</time>
      </trkpt>
      <trkpt lat="53.596050990745425" lon="-9.697964983060956">
        <ele>4.94</ele>
        <time>2026-07-02T14:53:07Z</time>
      </trkpt>
      <trkpt lat="53.596050990745425" lon="-9.697753004729748">
        <ele>4.46</ele>
        <time>2026-07-02T14:53:08Z</time>
      </trkpt>
      <trkpt lat="53.596050990745425" lon="-9.69754102639854">
        <ele>4.46</ele>
        <time>2026-07-02T14:53:09Z</time>
      </trkpt>
      <trkpt lat="53.596013020724058" lon="-9.697333993390203">
        <ele>3.98</ele>
        <time>2026-07-02T14:53:10Z</time>
      </trkpt>
      <trkpt lat="53.595959041267633" lon="-9.697136012837291">
        <ele>3.5</ele>
        <time>2026-07-02T14:53:11Z</time>
      </trkpt>
      <trkpt lat="53.595906989648938" lon="-9.69694197177887">
        <ele>3.5</ele>
        <time>2026-07-02T14:53:12Z</time>
      </trkpt>
      <trkpt lat="53.595700962468982" lon="-9.695859029889107">
        <ele>1.58</ele>
        <time>2026-07-02T14:53:18Z</time>
      </trkpt>
      <trkpt lat="53.595726024359465" lon="-9.694768041372299">
        <ele>1.58</ele>
        <time>2026-07-02T14:53:25Z</time>
      </trkpt>
      <trkpt lat="53.595786038786173" lon="-9.694496970623732">
        <ele>2.54</ele>
        <time>2026-07-02T14:53:27Z</time>
      </trkpt>
      <trkpt lat="53.595827026292682" lon="-9.69436302781105">
        <ele>3.5</ele>
        <time>2026-07-02T14:53:28Z</time>
      </trkpt>
      <trkpt lat="53.595879999920726" lon="-9.69419002532959">
        <ele>4.46</ele>
        <time>2026-07-02T14:53:29Z</time>
      </trkpt>
      <trkpt lat="53.595944959670305" lon="-9.69414702616632">
        <ele>5.42</ele>
        <time>2026-07-02T14:53:30Z</time>
      </trkpt>
      <trkpt lat="53.596036992967129" lon="-9.694085000082851">
        <ele>5.91</ele>
        <time>2026-07-02T14:53:31Z</time>
      </trkpt>
      <trkpt lat="53.596141012385488" lon="-9.694049041718245">
        <ele>5.91</ele>
        <time>2026-07-02T14:53:32Z</time>
      </trkpt>
      <trkpt lat="53.596251988783479" lon="-9.694030014798045">
        <ele>6.39</ele>
        <time>2026-07-02T14:53:33Z</time>
      </trkpt>
      <trkpt lat="53.596830004826188" lon="-9.693937981501222">
        <ele>5.91</ele>
        <time>2026-07-02T14:53:38Z</time>
      </trkpt>
      <trkpt lat="53.596936035901308" lon="-9.693927001208067">
        <ele>5.91</ele>
        <time>2026-07-02T14:53:39Z</time>
      </trkpt>
      <trkpt lat="53.597037959843874" lon="-9.693916020914912">
        <ele>6.39</ele>
        <time>2026-07-02T14:53:40Z</time>
      </trkpt>
      <trkpt lat="53.59805703163147" lon="-9.693652996793389">
        <ele>13.119999999999999</ele>
        <time>2026-07-02T14:53:49Z</time>
      </trkpt>
      <trkpt lat="53.598308991640806" lon="-9.693497009575367">
        <ele>13.119999999999999</ele>
        <time>2026-07-02T14:53:51Z</time>
      </trkpt>
      <trkpt lat="53.598430026322603" lon="-9.693397013470531">
        <ele>12.630000000000001</ele>
        <time>2026-07-02T14:53:52Z</time>
      </trkpt>
      <trkpt lat="53.599564014002681" lon="-9.692266965284944">
        <ele>11.19</ele>
        <time>2026-07-02T14:54:02Z</time>
      </trkpt>
      <trkpt lat="53.599687982350588" lon="-9.692197982221842">
        <ele>11.19</ele>
        <time>2026-07-02T14:54:03Z</time>
      </trkpt>
      <trkpt lat="53.599817985668778" lon="-9.692144002765417">
        <ele>11.19</ele>
        <time>2026-07-02T14:54:04Z</time>
      </trkpt>
      <trkpt lat="53.599945977330208" lon="-9.692092034965754">
        <ele>11.67</ele>
        <time>2026-07-02T14:54:05Z</time>
      </trkpt>
      <trkpt lat="53.600073968991637" lon="-9.692038977518678">
        <ele>11.19</ele>
        <time>2026-07-02T14:54:06Z</time>
      </trkpt>
      <trkpt lat="53.600201960653067" lon="-9.691987009719014">
        <ele>11.67</ele>
        <time>2026-07-02T14:54:07Z</time>
      </trkpt>
      <trkpt lat="53.600330958142877" lon="-9.691932024434209">
        <ele>11.67</ele>
        <time>2026-07-02T14:54:08Z</time>
      </trkpt>
      <trkpt lat="53.600456016138196" lon="-9.691860023885965">
        <ele>11.67</ele>
        <time>2026-07-02T14:54:09Z</time>
      </trkpt>
      <trkpt lat="53.601830983534455" lon="-9.691371023654938">
        <ele>16.960000000000001</ele>
        <time>2026-07-02T14:54:20Z</time>
      </trkpt>
      <trkpt lat="53.60220598988235" lon="-9.69124898314476">
        <ele>18.399999999999999</ele>
        <time>2026-07-02T14:54:23Z</time>
      </trkpt>
      <trkpt lat="53.603550028055906" lon="-9.690533000975847">
        <ele>20.809999999999999</ele>
        <time>2026-07-02T14:54:33Z</time>
      </trkpt>
      <trkpt lat="53.604457033798099" lon="-9.689622977748513">
        <ele>22.73</ele>
        <time>2026-07-02T14:54:40Z</time>
      </trkpt>
      <trkpt lat="53.605568977072835" lon="-9.687804020941258">
        <ele>28.02</ele>
        <time>2026-07-02T14:54:49Z</time>
      </trkpt>
      <trkpt lat="53.606500960886478" lon="-9.686096962541342">
        <ele>28.02</ele>
        <time>2026-07-02T14:54:56Z</time>
      </trkpt>
      <trkpt lat="53.606594000011683" lon="-9.685818012803793">
        <ele>27.530000000000001</ele>
        <time>2026-07-02T14:54:57Z</time>
      </trkpt>
      <trkpt lat="53.606671029701829" lon="-9.685516012832522">
        <ele>27.050000000000001</ele>
        <time>2026-07-02T14:54:58Z</time>
      </trkpt>
      <trkpt lat="53.606749987229705" lon="-9.685206972062588">
        <ele>26.57</ele>
        <time>2026-07-02T14:54:59Z</time>
      </trkpt>
      <trkpt lat="53.606829028576612" lon="-9.684898015111685">
        <ele>26.09</ele>
        <time>2026-07-02T14:55:00Z</time>
      </trkpt>
      <trkpt lat="53.607070008292794" lon="-9.683993021026254">
        <ele>25.129999999999999</ele>
        <time>2026-07-02T14:55:03Z</time>
      </trkpt>
      <trkpt lat="53.60716799274087" lon="-9.683723039925098">
        <ele>24.649999999999999</ele>
        <time>2026-07-02T14:55:04Z</time>
      </trkpt>
      <trkpt lat="53.607765035703778" lon="-9.682153025642037">
        <ele>26.57</ele>
        <time>2026-07-02T14:55:10Z</time>
      </trkpt>
      <trkpt lat="53.608700037002563" lon="-9.680175986140966">
        <ele>23.210000000000001</ele>
        <time>2026-07-02T14:55:18Z</time>
      </trkpt>
      <trkpt lat="53.608788968995214" lon="-9.679931988939643">
        <ele>23.210000000000001</ele>
        <time>2026-07-02T14:55:19Z</time>
      </trkpt>
      <trkpt lat="53.609045958146453" lon="-9.679030012339354">
        <ele>24.170000000000002</ele>
        <time>2026-07-02T14:55:23Z</time>
      </trkpt>
      <trkpt lat="53.609074037522078" lon="-9.678836977109313">
        <ele>24.170000000000002</ele>
        <time>2026-07-02T14:55:24Z</time>
      </trkpt>
      <trkpt lat="53.609066996723413" lon="-9.678642014041543">
        <ele>24.649999999999999</ele>
        <time>2026-07-02T14:55:25Z</time>
      </trkpt>
      <trkpt lat="53.609060039743781" lon="-9.678443027660251">
        <ele>25.129999999999999</ele>
        <time>2026-07-02T14:55:26Z</time>
      </trkpt>
      <trkpt lat="53.609035983681679" lon="-9.678233982995153">
        <ele>25.129999999999999</ele>
        <time>2026-07-02T14:55:27Z</time>
      </trkpt>
      <trkpt lat="53.608985021710396" lon="-9.678020998835564">
        <ele>24.649999999999999</ele>
        <time>2026-07-02T14:55:28Z</time>
      </trkpt>
      <trkpt lat="53.608930958434939" lon="-9.67779602855444">
        <ele>24.170000000000002</ele>
        <time>2026-07-02T14:55:29Z</time>
      </trkpt>
      <trkpt lat="53.608846971765161" lon="-9.677594024688005">
        <ele>23.690000000000001</ele>
        <time>2026-07-02T14:55:30Z</time>
      </trkpt>
      <trkpt lat="53.608762985095382" lon="-9.677399983629584">
        <ele>23.210000000000001</ele>
        <time>2026-07-02T14:55:31Z</time>
      </trkpt>
      <trkpt lat="53.608674975112081" lon="-9.677222035825253">
        <ele>23.210000000000001</ele>
        <time>2026-07-02T14:55:32Z</time>
      </trkpt>
      <trkpt lat="53.608572967350483" lon="-9.677053978666663">
        <ele>22.73</ele>
        <time>2026-07-02T14:55:33Z</time>
      </trkpt>
      <trkpt lat="53.607513997703791" lon="-9.675312973558903">
        <ele>15.52</ele>
        <time>2026-07-02T14:55:42Z</time>
      </trkpt>
      <trkpt lat="53.60684503801167" lon="-9.674213016405702">
        <ele>10.23</ele>
        <time>2026-07-02T14:55:48Z</time>
      </trkpt>
      <trkpt lat="53.606787035241723" lon="-9.674014030024409">
        <ele>9.75</ele>
        <time>2026-07-02T14:55:49Z</time>
      </trkpt>
      <trkpt lat="53.606729032471776" lon="-9.673816971480846">
        <ele>9.27</ele>
        <time>2026-07-02T14:55:50Z</time>
      </trkpt>
      <trkpt lat="53.6066759750247" lon="-9.673632988706231">
        <ele>9.27</ele>
        <time>2026-07-02T14:55:51Z</time>
      </trkpt>
      <trkpt lat="53.606650996953249" lon="-9.673444982618094">
        <ele>9.27</ele>
        <time>2026-07-02T14:55:52Z</time>
      </trkpt>
      <trkpt lat="53.606650996953249" lon="-9.673252031207085">
        <ele>9.27</ele>
        <time>2026-07-02T14:55:53Z</time>
      </trkpt>
      <trkpt lat="53.606658959761262" lon="-9.673048015683889">
        <ele>8.789999999999999</ele>
        <time>2026-07-02T14:55:54Z</time>
      </trkpt>
      <trkpt lat="53.606689972802997" lon="-9.672836037352681">
        <ele>7.83</ele>
        <time>2026-07-02T14:55:55Z</time>
      </trkpt>
      <trkpt lat="53.606722997501493" lon="-9.672610983252525">
        <ele>7.35</ele>
        <time>2026-07-02T14:55:56Z</time>
      </trkpt>
      <trkpt lat="53.606865992769599" lon="-9.671961972489953">
        <ele>6.39</ele>
        <time>2026-07-02T14:55:59Z</time>
      </trkpt>
      <trkpt lat="53.606947967782617" lon="-9.671826018020511">
        <ele>6.39</ele>
        <time>2026-07-02T14:56:00Z</time>
      </trkpt>
      <trkpt lat="53.607032038271427" lon="-9.671688973903656">
        <ele>6.39</ele>
        <time>2026-07-02T14:56:01Z</time>
      </trkpt>
      <trkpt lat="53.607239993289113" lon="-9.671449000015855">
        <ele>6.39</ele>
        <time>2026-07-02T14:56:03Z</time>
      </trkpt>
      <trkpt lat="53.60736396163702" lon="-9.671350009739399">
        <ele>6.39</ele>
        <time>2026-07-02T14:56:04Z</time>
      </trkpt>
      <trkpt lat="53.607505029067397" lon="-9.671298963949084">
        <ele>5.91</ele>
        <time>2026-07-02T14:56:05Z</time>
      </trkpt>
      <trkpt lat="53.607649030163884" lon="-9.67124599032104">
        <ele>5.91</ele>
        <time>2026-07-02T14:56:06Z</time>
      </trkpt>
      <trkpt lat="53.60779101960361" lon="-9.671194022521377">
        <ele>5.91</ele>
        <time>2026-07-02T14:56:07Z</time>
      </trkpt>
      <trkpt lat="53.607934014871716" lon="-9.671142976731062">
        <ele>5.91</ele>
        <time>2026-07-02T14:56:08Z</time>
      </trkpt>
      <trkpt lat="53.608072986826301" lon="-9.671083968132734">
        <ele>5.91</ele>
        <time>2026-07-02T14:56:09Z</time>
      </trkpt>
      <trkpt lat="53.608208019286394" lon="-9.670992018654943">
        <ele>5.91</ele>
        <time>2026-07-02T14:56:10Z</time>
      </trkpt>
      <trkpt lat="53.608474982902408" lon="-9.670809963718057">
        <ele>5.42</ele>
        <time>2026-07-02T14:56:12Z</time>
      </trkpt>
      <trkpt lat="53.608613032847643" lon="-9.670759001746774">
        <ele>5.42</ele>
        <time>2026-07-02T14:56:13Z</time>
      </trkpt>
      <trkpt lat="53.608758039772511" lon="-9.670726982876658">
        <ele>5.42</ele>
        <time>2026-07-02T14:56:14Z</time>
      </trkpt>
      <trkpt lat="53.610503990203142" lon="-9.670764030888677">
        <ele>6.39</ele>
        <time>2026-07-02T14:56:25Z</time>
      </trkpt>
      <trkpt lat="53.611759012565017" lon="-9.67070896178484">
        <ele>7.83</ele>
        <time>2026-07-02T14:56:33Z</time>
      </trkpt>
      <trkpt lat="53.611902007833123" lon="-9.670657999813557">
        <ele>7.35</ele>
        <time>2026-07-02T14:56:34Z</time>
      </trkpt>
      <trkpt lat="53.612017007544637" lon="-9.670541994273663">
        <ele>7.35</ele>
        <time>2026-07-02T14:56:35Z</time>
      </trkpt>
      <trkpt lat="53.612102000042796" lon="-9.67040603980422">
        <ele>6.87</ele>
        <time>2026-07-02T14:56:36Z</time>
      </trkpt>
      <trkpt lat="53.612177018076181" lon="-9.670242005959153">
        <ele>6.87</ele>
        <time>2026-07-02T14:56:37Z</time>
      </trkpt>
      <trkpt lat="53.612254969775677" lon="-9.670070009306073">
        <ele>6.39</ele>
        <time>2026-07-02T14:56:38Z</time>
      </trkpt>
      <trkpt lat="53.612497039139271" lon="-9.669529041275382">
        <ele>4.46</ele>
        <time>2026-07-02T14:56:41Z</time>
      </trkpt>
      <trkpt lat="53.612598041072488" lon="-9.669393002986908">
        <ele>3.98</ele>
        <time>2026-07-02T14:56:42Z</time>
      </trkpt>
      <trkpt lat="53.612693008035421" lon="-9.669264005497098">
        <ele>3.98</ele>
        <time>2026-07-02T14:56:43Z</time>
      </trkpt>
      <trkpt lat="53.612781018018723" lon="-9.669145988300443">
        <ele>3.5</ele>
        <time>2026-07-02T14:56:44Z</time>
      </trkpt>
      <trkpt lat="53.612869028002024" lon="-9.669071976095438">
        <ele>3.98</ele>
        <time>2026-07-02T14:56:45Z</time>
      </trkpt>
      <trkpt lat="53.612959971651435" lon="-9.669017996639013">
        <ele>3.98</ele>
        <time>2026-07-02T14:56:46Z</time>
      </trkpt>
      <trkpt lat="53.613198017701507" lon="-9.668877013027668">
        <ele>5.91</ele>
        <time>2026-07-02T14:56:49Z</time>
      </trkpt>
      <trkpt lat="53.613264989107847" lon="-9.66883703134954">
        <ele>6.39</ele>
        <time>2026-07-02T14:56:50Z</time>
      </trkpt>
      <trkpt lat="53.613323997706175" lon="-9.66877399943769">
        <ele>7.35</ele>
        <time>2026-07-02T14:56:51Z</time>
      </trkpt>
      <trkpt lat="53.613373031839728" lon="-9.66871096752584">
        <ele>7.83</ele>
        <time>2026-07-02T14:56:52Z</time>
      </trkpt>
      <trkpt lat="53.613417036831379" lon="-9.668655982241035">
        <ele>8.310000000000001</ele>
        <time>2026-07-02T14:56:53Z</time>
      </trkpt>
      <trkpt lat="53.613460035994649" lon="-9.668599991127849">
        <ele>9.27</ele>
        <time>2026-07-02T14:56:54Z</time>
      </trkpt>
      <trkpt lat="53.613499011844397" lon="-9.668551040813327">
        <ele>9.75</ele>
        <time>2026-07-02T14:56:55Z</time>
      </trkpt>
      <trkpt lat="53.613573024049401" lon="-9.668578030541539">
        <ele>10.23</ele>
        <time>2026-07-02T14:56:56Z</time>
      </trkpt>
      <trkpt lat="53.613618034869432" lon="-9.668620023876429">
        <ele>10.710000000000001</ele>
        <time>2026-07-02T14:56:57Z</time>
      </trkpt>
      <trkpt lat="53.61367603763938" lon="-9.668675009161234">
        <ele>11.19</ele>
        <time>2026-07-02T14:56:58Z</time>
      </trkpt>
      <trkpt lat="53.613839987665415" lon="-9.668826973065734">
        <ele>11.19</ele>
        <time>2026-07-02T14:57:00Z</time>
      </trkpt>
      <trkpt lat="53.614300992339849" lon="-9.66913903132081">
        <ele>10.23</ele>
        <time>2026-07-02T14:57:05Z</time>
      </trkpt>
      <trkpt lat="53.614367041736841" lon="-9.669233998283744">
        <ele>10.23</ele>
        <time>2026-07-02T14:57:06Z</time>
      </trkpt>
      <trkpt lat="53.614419009536505" lon="-9.669368024915457">
        <ele>10.23</ele>
        <time>2026-07-02T14:57:07Z</time>
      </trkpt>
      <trkpt lat="53.614533003419638" lon="-9.669825006276369">
        <ele>10.23</ele>
        <time>2026-07-02T14:57:10Z</time>
      </trkpt>
      <trkpt lat="53.614588994532824" lon="-9.669923996552825">
        <ele>10.23</ele>
        <time>2026-07-02T14:57:11Z</time>
      </trkpt>
      <trkpt lat="53.614660995081067" lon="-9.669997002929449">
        <ele>9.75</ele>
        <time>2026-07-02T14:57:12Z</time>
      </trkpt>
      <trkpt lat="53.614852018654346" lon="-9.67010797932744">
        <ele>9.27</ele>
        <time>2026-07-02T14:57:14Z</time>
      </trkpt>
      <trkpt lat="53.614964000880718" lon="-9.670144021511078">
        <ele>8.789999999999999</ele>
        <time>2026-07-02T14:57:15Z</time>
      </trkpt>
      <trkpt lat="53.61595599912107" lon="-9.670396987348795">
        <ele>6.39</ele>
        <time>2026-07-02T14:57:22Z</time>
      </trkpt>
      <trkpt lat="53.616218017414212" lon="-9.670484997332096">
        <ele>6.39</ele>
        <time>2026-07-02T14:57:24Z</time>
      </trkpt>
      <trkpt lat="53.616329999640584" lon="-9.670552974566817">
        <ele>6.87</ele>
        <time>2026-07-02T14:57:25Z</time>
      </trkpt>
      <trkpt lat="53.616548012942076" lon="-9.670683983713388">
        <ele>8.310000000000001</ele>
        <time>2026-07-02T14:57:27Z</time>
      </trkpt>
      <trkpt lat="53.61666401848197" lon="-9.670712985098362">
        <ele>9.27</ele>
        <time>2026-07-02T14:57:28Z</time>
      </trkpt>
      <trkpt lat="53.616932993754745" lon="-9.670764030888677">
        <ele>11.19</ele>
        <time>2026-07-02T14:57:30Z</time>
      </trkpt>
      <trkpt lat="53.617335995659232" lon="-9.670839970931411">
        <ele>10.710000000000001</ele>
        <time>2026-07-02T14:57:33Z</time>
      </trkpt>
      <trkpt lat="53.617454012855887" lon="-9.670813987031579">
        <ele>10.23</ele>
        <time>2026-07-02T14:57:34Z</time>
      </trkpt>
      <trkpt lat="53.617559038102627" lon="-9.670781968161464">
        <ele>9.75</ele>
        <time>2026-07-02T14:57:35Z</time>
      </trkpt>
      <trkpt lat="53.617648975923657" lon="-9.67075296677649">
        <ele>9.27</ele>
        <time>2026-07-02T14:57:36Z</time>
      </trkpt>
      <trkpt lat="53.617727011442184" lon="-9.670754978433251">
        <ele>8.789999999999999</ele>
        <time>2026-07-02T14:57:37Z</time>
      </trkpt>
      <trkpt lat="53.617790965363383" lon="-9.670799989253283">
        <ele>8.789999999999999</ele>
        <time>2026-07-02T14:57:38Z</time>
      </trkpt>
      <trkpt lat="53.617853997275233" lon="-9.670848017558456">
        <ele>8.310000000000001</ele>
        <time>2026-07-02T14:57:39Z</time>
      </trkpt>
      <trkpt lat="53.617896996438503" lon="-9.67096502892673">
        <ele>7.83</ele>
        <time>2026-07-02T14:57:40Z</time>
      </trkpt>
      <trkpt lat="53.617941001430154" lon="-9.67109696008265">
        <ele>7.83</ele>
        <time>2026-07-02T14:57:41Z</time>
      </trkpt>
      <trkpt lat="53.617986012250185" lon="-9.671242972835898">
        <ele>7.83</ele>
        <time>2026-07-02T14:57:42Z</time>
      </trkpt>
      <trkpt lat="53.618105035275221" lon="-9.671633988618851">
        <ele>7.83</ele>
        <time>2026-07-02T14:57:47Z</time>
      </trkpt>
      <trkpt lat="53.618122972548008" lon="-9.671691991388798">
        <ele>7.83</ele>
        <time>2026-07-02T14:57:49Z</time>
      </trkpt>
      <trkpt lat="53.618129007518291" lon="-9.671713029965758">
        <ele>7.83</ele>
        <time>2026-07-02T14:57:50Z</time>
      </trkpt>
      <trkpt lat="53.618134036660194" lon="-9.671729961410165">
        <ele>7.83</ele>
        <time>2026-07-02T14:57:51Z</time>
      </trkpt>
      <trkpt lat="53.618138981983066" lon="-9.671745970845223">
        <ele>7.83</ele>
        <time>2026-07-02T14:57:52Z</time>
      </trkpt>
      <trkpt lat="53.61814996227622" lon="-9.671783018857241">
        <ele>7.83</ele>
        <time>2026-07-02T14:57:55Z</time>
      </trkpt>
      <trkpt lat="53.61814996227622" lon="-9.671783018857241">
        <ele>7.83</ele>
        <time>2026-07-02T14:57:58Z</time>
      </trkpt>
      <trkpt lat="53.61816898919642" lon="-9.67184403911233">
        <ele>8.310000000000001</ele>
        <time>2026-07-02T14:58:09Z</time>
      </trkpt>
      <trkpt lat="53.618217017501593" lon="-9.672004971653223">
        <ele>9.75</ele>
        <time>2026-07-02T14:58:17Z</time>
      </trkpt>
      <trkpt lat="53.618217017501593" lon="-9.672004971653223">
        <ele>9.75</ele>
        <time>2026-07-02T14:58:50Z</time>
      </trkpt>
      <trkpt lat="53.618217017501593" lon="-9.672004971653223">
        <ele>11.19</ele>
        <time>2026-07-02T14:59:43Z</time>
      </trkpt>
      <trkpt lat="53.618217017501593" lon="-9.672004971653223">
        <ele>11.67</ele>
        <time>2026-07-02T15:00:40Z</time>
      </trkpt>
      <trkpt lat="53.618217017501593" lon="-9.672004971653223">
        <ele>11.67</ele>
        <time>2026-07-02T15:01:31Z</time>
      </trkpt>
      <trkpt lat="53.618217017501593" lon="-9.672004971653223">
        <ele>11.67</ele>
        <time>2026-07-02T15:02:20Z</time>
      </trkpt>
      <trkpt lat="53.618217017501593" lon="-9.672004971653223">
        <ele>12.15</ele>
        <time>2026-07-02T15:03:02Z</time>
      </trkpt>
      <trkpt lat="53.618187010288239" lon="-9.672322981059551">
        <ele>14.08</ele>
        <time>2026-07-02T15:03:12Z</time>
      </trkpt>
      <trkpt lat="53.618151973932981" lon="-9.672417026013136">
        <ele>14.56</ele>
        <time>2026-07-02T15:03:13Z</time>
      </trkpt>
      <trkpt lat="53.618117021396756" lon="-9.672497995197773">
        <ele>15.039999999999999</ele>
        <time>2026-07-02T15:03:14Z</time>
      </trkpt>
      <trkpt lat="53.618033034726977" lon="-9.672630010172725">
        <ele>16</ele>
        <time>2026-07-02T15:03:16Z</time>
      </trkpt>
      <trkpt lat="53.61750204116106" lon="-9.673235015943646">
        <ele>18.879999999999999</ele>
        <time>2026-07-02T15:03:23Z</time>
      </trkpt>
      <trkpt lat="53.616302004083991" lon="-9.674044959247112">
        <ele>18.879999999999999</ele>
        <time>2026-07-02T15:03:34Z</time>
      </trkpt>
      <trkpt lat="53.61518201418221" lon="-9.675367958843708">
        <ele>16.48</ele>
        <time>2026-07-02T15:03:44Z</time>
      </trkpt>
      <trkpt lat="53.614455973729491" lon="-9.676940990611911">
        <ele>12.630000000000001</ele>
        <time>2026-07-02T15:03:52Z</time>
      </trkpt>
      <trkpt lat="53.613796988502145" lon="-9.678741004317999">
        <ele>7.35</ele>
        <time>2026-07-02T15:04:01Z</time>
      </trkpt>
      <trkpt lat="53.61370000988245" lon="-9.678792972117662">
        <ele>6.87</ele>
        <time>2026-07-02T15:04:02Z</time>
      </trkpt>
      <trkpt lat="53.613594984635711" lon="-9.678849969059229">
        <ele>6.39</ele>
        <time>2026-07-02T15:04:03Z</time>
      </trkpt>
      <trkpt lat="53.612440964207053" lon="-9.679462015628815">
        <ele>7.83</ele>
        <time>2026-07-02T15:04:12Z</time>
      </trkpt>
      <trkpt lat="53.611801005899906" lon="-9.679706012830138">
        <ele>8.789999999999999</ele>
        <time>2026-07-02T15:04:17Z</time>
      </trkpt>
      <trkpt lat="53.611692041158676" lon="-9.679814977571368">
        <ele>8.789999999999999</ele>
        <time>2026-07-02T15:04:18Z</time>
      </trkpt>
      <trkpt lat="53.611583998426795" lon="-9.679923020303249">
        <ele>8.789999999999999</ele>
        <time>2026-07-02T15:04:19Z</time>
      </trkpt>
      <trkpt lat="53.611376965418458" lon="-9.680186966434121">
        <ele>9.75</ele>
        <time>2026-07-02T15:04:21Z</time>
      </trkpt>
      <trkpt lat="53.611285015940666" lon="-9.680343037471175">
        <ele>10.23</ele>
        <time>2026-07-02T15:04:22Z</time>
      </trkpt>
      <trkpt lat="53.611203040927649" lon="-9.680516961961985">
        <ele>10.23</ele>
        <time>2026-07-02T15:04:23Z</time>
      </trkpt>
      <trkpt lat="53.61041497439146" lon="-9.682416971772909">
        <ele>9.27</ele>
        <time>2026-07-02T15:04:32Z</time>
      </trkpt>
      <trkpt lat="53.608895000070333" lon="-9.685714999213815">
        <ele>8.789999999999999</ele>
        <time>2026-07-02T15:04:48Z</time>
      </trkpt>
      <trkpt lat="53.608594005927444" lon="-9.686526032164693">
        <ele>8.789999999999999</ele>
        <time>2026-07-02T15:04:52Z</time>
      </trkpt>
      <trkpt lat="53.608094025403261" lon="-9.68836703337729">
        <ele>11.19</ele>
        <time>2026-07-02T15:05:00Z</time>
      </trkpt>
      <trkpt lat="53.607325991615653" lon="-9.690729975700378">
        <ele>11.67</ele>
        <time>2026-07-02T15:05:11Z</time>
      </trkpt>
      <trkpt lat="53.607280980795622" lon="-9.69094698317349">
        <ele>11.19</ele>
        <time>2026-07-02T15:05:12Z</time>
      </trkpt>
      <trkpt lat="53.607236975803971" lon="-9.691157033666968">
        <ele>10.710000000000001</ele>
        <time>2026-07-02T15:05:13Z</time>
      </trkpt>
      <trkpt lat="53.607152989134192" lon="-9.691564980894327">
        <ele>9.27</ele>
        <time>2026-07-02T15:05:15Z</time>
      </trkpt>
      <trkpt lat="53.607110995799303" lon="-9.691766984760761">
        <ele>9.27</ele>
        <time>2026-07-02T15:05:16Z</time>
      </trkpt>
      <trkpt lat="53.607026003301144" lon="-9.691943004727364">
        <ele>8.789999999999999</ele>
        <time>2026-07-02T15:05:17Z</time>
      </trkpt>
      <trkpt lat="53.606927013024688" lon="-9.692118018865585">
        <ele>8.789999999999999</ele>
        <time>2026-07-02T15:05:18Z</time>
      </trkpt>
      <trkpt lat="53.60682500526309" lon="-9.692298984155059">
        <ele>7.83</ele>
        <time>2026-07-02T15:05:19Z</time>
      </trkpt>
      <trkpt lat="53.606716962531209" lon="-9.692490007728338">
        <ele>7.35</ele>
        <time>2026-07-02T15:05:20Z</time>
      </trkpt>
      <trkpt lat="53.606604980304837" lon="-9.69268798828125">
        <ele>6.39</ele>
        <time>2026-07-02T15:05:21Z</time>
      </trkpt>
      <trkpt lat="53.605886986479163" lon="-9.694071002304554">
        <ele>4.94</ele>
        <time>2026-07-02T15:05:29Z</time>
      </trkpt>
      <trkpt lat="53.605243004858494" lon="-9.695942010730505">
        <ele>4.94</ele>
        <time>2026-07-02T15:05:38Z</time>
      </trkpt>
      <trkpt lat="53.60506203956902" lon="-9.696534024551511">
        <ele>6.39</ele>
        <time>2026-07-02T15:05:41Z</time>
      </trkpt>
      <trkpt lat="53.604680998250842" lon="-9.698739973828197">
        <ele>11.67</ele>
        <time>2026-07-02T15:05:51Z</time>
      </trkpt>
      <trkpt lat="53.604544037953019" lon="-9.701349008828402">
        <ele>10.23</ele>
        <time>2026-07-02T15:06:02Z</time>
      </trkpt>
      <trkpt lat="53.604563986882567" lon="-9.701598035171628">
        <ele>9.75</ele>
        <time>2026-07-02T15:06:03Z</time>
      </trkpt>
      <trkpt lat="53.604600029066205" lon="-9.701844966039062">
        <ele>9.75</ele>
        <time>2026-07-02T15:06:04Z</time>
      </trkpt>
      <trkpt lat="53.605108978226781" lon="-9.704271024093032">
        <ele>10.710000000000001</ele>
        <time>2026-07-02T15:06:14Z</time>
      </trkpt>
      <trkpt lat="53.605253985151649" lon="-9.704943001270294">
        <ele>11.67</ele>
        <time>2026-07-02T15:06:17Z</time>
      </trkpt>
      <trkpt lat="53.60527602955699" lon="-9.705159002915025">
        <ele>12.15</ele>
        <time>2026-07-02T15:06:18Z</time>
      </trkpt>
      <trkpt lat="53.605272006243467" lon="-9.705393025651574">
        <ele>12.15</ele>
        <time>2026-07-02T15:06:19Z</time>
      </trkpt>
      <trkpt lat="53.605264965444803" lon="-9.705628976225853">
        <ele>12.15</ele>
        <time>2026-07-02T15:06:20Z</time>
      </trkpt>
      <trkpt lat="53.605258008465171" lon="-9.705871967598796">
        <ele>12.630000000000001</ele>
        <time>2026-07-02T15:06:21Z</time>
      </trkpt>
      <trkpt lat="53.605163963511586" lon="-9.706604965031147">
        <ele>12.15</ele>
        <time>2026-07-02T15:06:24Z</time>
      </trkpt>
      <trkpt lat="53.605103027075529" lon="-9.707049038261175">
        <ele>12.15</ele>
        <time>2026-07-02T15:06:26Z</time>
      </trkpt>
      <trkpt lat="53.605074025690556" lon="-9.707257999107242">
        <ele>11.67</ele>
        <time>2026-07-02T15:06:27Z</time>
      </trkpt>
      <trkpt lat="53.60504200682044" lon="-9.707494033500552">
        <ele>10.710000000000001</ele>
        <time>2026-07-02T15:06:28Z</time>
      </trkpt>
      <trkpt lat="53.605095986276865" lon="-9.70981003716588">
        <ele>10.23</ele>
        <time>2026-07-02T15:06:38Z</time>
      </trkpt>
      <trkpt lat="53.605103027075529" lon="-9.710031989961863">
        <ele>10.23</ele>
        <time>2026-07-02T15:06:39Z</time>
      </trkpt>
      <trkpt lat="53.605086011812091" lon="-9.710243968293071">
        <ele>10.23</ele>
        <time>2026-07-02T15:06:40Z</time>
      </trkpt>
      <trkpt lat="53.605068996548653" lon="-9.710448989644647">
        <ele>10.23</ele>
        <time>2026-07-02T15:06:41Z</time>
      </trkpt>
      <trkpt lat="53.605053992941976" lon="-9.710643030703068">
        <ele>10.710000000000001</ele>
        <time>2026-07-02T15:06:42Z</time>
      </trkpt>
      <trkpt lat="53.605038989335299" lon="-9.710828019306064">
        <ele>10.710000000000001</ele>
        <time>2026-07-02T15:06:43Z</time>
      </trkpt>
      <trkpt lat="53.605024991557002" lon="-9.711006972938776">
        <ele>11.19</ele>
        <time>2026-07-02T15:06:44Z</time>
      </trkpt>
      <trkpt lat="53.605039995163679" lon="-9.711195984855294">
        <ele>11.19</ele>
        <time>2026-07-02T15:06:45Z</time>
      </trkpt>
      <trkpt lat="53.605067990720272" lon="-9.711391031742096">
        <ele>11.67</ele>
        <time>2026-07-02T15:06:46Z</time>
      </trkpt>
      <trkpt lat="53.605095986276865" lon="-9.711594041436911">
        <ele>11.67</ele>
        <time>2026-07-02T15:06:47Z</time>
      </trkpt>
      <trkpt lat="53.605124987661839" lon="-9.711805013939738">
        <ele>12.15</ele>
        <time>2026-07-02T15:06:48Z</time>
      </trkpt>
      <trkpt lat="53.605154994875193" lon="-9.712013974785805">
        <ele>13.119999999999999</ele>
        <time>2026-07-02T15:06:49Z</time>
      </trkpt>
      <trkpt lat="53.605165975168347" lon="-9.712227964773774">
        <ele>13.119999999999999</ele>
        <time>2026-07-02T15:06:50Z</time>
      </trkpt>
      <trkpt lat="53.605156000703573" lon="-9.712451007217169">
        <ele>13.6</ele>
        <time>2026-07-02T15:06:51Z</time>
      </trkpt>
      <trkpt lat="53.605145020410419" lon="-9.712683018296957">
        <ele>13.6</ele>
        <time>2026-07-02T15:06:52Z</time>
      </trkpt>
      <trkpt lat="53.605066984891891" lon="-9.715316025540233">
        <ele>15.039999999999999</ele>
        <time>2026-07-02T15:07:03Z</time>
      </trkpt>
      <trkpt lat="53.60506396740675" lon="-9.71552699804306">
        <ele>15.52</ele>
        <time>2026-07-02T15:07:04Z</time>
      </trkpt>
      <trkpt lat="53.605031026527286" lon="-9.715731013566256">
        <ele>15.52</ele>
        <time>2026-07-02T15:07:05Z</time>
      </trkpt>
      <trkpt lat="53.604988027364016" lon="-9.715954978018999">
        <ele>15.039999999999999</ele>
        <time>2026-07-02T15:07:06Z</time>
      </trkpt>
      <trkpt lat="53.604650991037488" lon="-9.718195963650942">
        <ele>13.119999999999999</ele>
        <time>2026-07-02T15:07:15Z</time>
      </trkpt>
      <trkpt lat="53.604501038789749" lon="-9.720185995101929">
        <ele>11.67</ele>
        <time>2026-07-02T15:07:23Z</time>
      </trkpt>
      <trkpt lat="53.604360977187753" lon="-9.721625000238419">
        <ele>13.6</ele>
        <time>2026-07-02T15:07:29Z</time>
      </trkpt>
      <trkpt lat="53.604367012158036" lon="-9.722840040922165">
        <ele>16</ele>
        <time>2026-07-02T15:07:34Z</time>
      </trkpt>
      <trkpt lat="53.604328036308289" lon="-9.723062999546528">
        <ele>16.960000000000001</ele>
        <time>2026-07-02T15:07:35Z</time>
      </trkpt>
      <trkpt lat="53.60428998246789" lon="-9.723276989534497">
        <ele>17.920000000000002</ele>
        <time>2026-07-02T15:07:36Z</time>
      </trkpt>
      <trkpt lat="53.604194009676576" lon="-9.723822986707091">
        <ele>20.32</ele>
        <time>2026-07-02T15:07:39Z</time>
      </trkpt>
      <trkpt lat="53.604167019948363" lon="-9.723974028602243">
        <ele>21.289999999999999</ele>
        <time>2026-07-02T15:07:40Z</time>
      </trkpt>
      <trkpt lat="53.604141036048532" lon="-9.724132027477026">
        <ele>22.25</ele>
        <time>2026-07-02T15:07:41Z</time>
      </trkpt>
      <trkpt lat="53.604184035211802" lon="-9.726028013974428">
        <ele>24.649999999999999</ele>
        <time>2026-07-02T15:07:50Z</time>
      </trkpt>
      <trkpt lat="53.604233991354704" lon="-9.72863101400435">
        <ele>24.170000000000002</ele>
        <time>2026-07-02T15:08:01Z</time>
      </trkpt>
      <trkpt lat="53.60409501940012" lon="-9.731138963252306">
        <ele>26.57</ele>
        <time>2026-07-02T15:08:12Z</time>
      </trkpt>
      <trkpt lat="53.603750020265579" lon="-9.733688989654183">
        <ele>25.609999999999999</ele>
        <time>2026-07-02T15:08:22Z</time>
      </trkpt>
      <trkpt lat="53.603637032210827" lon="-9.735140986740589">
        <ele>28.02</ele>
        <time>2026-07-02T15:08:28Z</time>
      </trkpt>
      <trkpt lat="53.603640971705317" lon="-9.735351037234068">
        <ele>28.5</ele>
        <time>2026-07-02T15:08:29Z</time>
      </trkpt>
      <trkpt lat="53.603681037202477" lon="-9.735539965331554">
        <ele>28.5</ele>
        <time>2026-07-02T15:08:30Z</time>
      </trkpt>
      <trkpt lat="53.603723030537367" lon="-9.735740963369608">
        <ele>28.5</ele>
        <time>2026-07-02T15:08:31Z</time>
      </trkpt>
      <trkpt lat="53.603767035529017" lon="-9.735951013863087">
        <ele>28.5</ele>
        <time>2026-07-02T15:08:32Z</time>
      </trkpt>
      <trkpt lat="53.603986976668239" lon="-9.736987017095089">
        <ele>28.02</ele>
        <time>2026-07-02T15:08:39Z</time>
      </trkpt>
      <trkpt lat="53.604004997760057" lon="-9.737071003764868">
        <ele>28.02</ele>
        <time>2026-07-02T15:08:40Z</time>
      </trkpt>
      <trkpt lat="53.604200966656208" lon="-9.738098038360477">
        <ele>27.050000000000001</ele>
        <time>2026-07-02T15:08:51Z</time>
      </trkpt>
      <trkpt lat="53.604445969685912" lon="-9.73948298022151">
        <ele>26.09</ele>
        <time>2026-07-02T15:08:59Z</time>
      </trkpt>
      <trkpt lat="53.604711005464196" lon="-9.741014018654823">
        <ele>27.050000000000001</ele>
        <time>2026-07-02T15:09:07Z</time>
      </trkpt>
      <trkpt lat="53.604846959933639" lon="-9.741798983886838">
        <ele>28.5</ele>
        <time>2026-07-02T15:09:11Z</time>
      </trkpt>
      <trkpt lat="53.604876967146993" lon="-9.741942984983325">
        <ele>28.98</ele>
        <time>2026-07-02T15:09:12Z</time>
      </trkpt>
      <trkpt lat="53.6049560084939" lon="-9.74206100217998">
        <ele>29.460000000000001</ele>
        <time>2026-07-02T15:09:13Z</time>
      </trkpt>
      <trkpt lat="53.60504200682044" lon="-9.74218999966979">
        <ele>29.940000000000001</ele>
        <time>2026-07-02T15:09:14Z</time>
      </trkpt>
      <trkpt lat="53.605130016803741" lon="-9.742323020473123">
        <ele>29.940000000000001</ele>
        <time>2026-07-02T15:09:15Z</time>
      </trkpt>
      <trkpt lat="53.605232024565339" lon="-9.742431985214353">
        <ele>29.460000000000001</ele>
        <time>2026-07-02T15:09:16Z</time>
      </trkpt>
      <trkpt lat="53.605347024276853" lon="-9.742519995197654">
        <ele>29.460000000000001</ele>
        <time>2026-07-02T15:09:17Z</time>
      </trkpt>
      <trkpt lat="53.605466969311237" lon="-9.742613034322858">
        <ele>28.98</ele>
        <time>2026-07-02T15:09:18Z</time>
      </trkpt>
      <trkpt lat="53.605592027306557" lon="-9.742710012942553">
        <ele>28.02</ele>
        <time>2026-07-02T15:09:19Z</time>
      </trkpt>
      <trkpt lat="53.60594398342073" lon="-9.743060963228345">
        <ele>25.129999999999999</ele>
        <time>2026-07-02T15:09:22Z</time>
      </trkpt>
      <trkpt lat="53.606040962040424" lon="-9.743205970153213">
        <ele>24.649999999999999</ele>
        <time>2026-07-02T15:09:23Z</time>
      </trkpt>
      <trkpt lat="53.606218993663788" lon="-9.743473017588258">
        <ele>23.210000000000001</ele>
        <time>2026-07-02T15:09:25Z</time>
      </trkpt>
      <trkpt lat="53.60630800947547" lon="-9.743606960400939">
        <ele>23.210000000000001</ele>
        <time>2026-07-02T15:09:26Z</time>
      </trkpt>
      <trkpt lat="53.606342962011695" lon="-9.74378096871078">
        <ele>23.210000000000001</ele>
        <time>2026-07-02T15:09:27Z</time>
      </trkpt>
      <trkpt lat="53.60637397505343" lon="-9.743991019204259">
        <ele>23.690000000000001</ele>
        <time>2026-07-02T15:09:28Z</time>
      </trkpt>
      <trkpt lat="53.606377998366952" lon="-9.744223030284047">
        <ele>24.170000000000002</ele>
        <time>2026-07-02T15:09:29Z</time>
      </trkpt>
      <trkpt lat="53.606382021680474" lon="-9.74446501582861">
        <ele>24.170000000000002</ele>
        <time>2026-07-02T15:09:30Z</time>
      </trkpt>
      <trkpt lat="53.606590982526541" lon="-9.746209038421512">
        <ele>24.170000000000002</ele>
        <time>2026-07-02T15:09:38Z</time>
      </trkpt>
      <trkpt lat="53.606945034116507" lon="-9.748107036575675">
        <ele>17.920000000000002</ele>
        <time>2026-07-02T15:09:48Z</time>
      </trkpt>
      <trkpt lat="53.607366979122162" lon="-9.750367971137166">
        <ele>8.789999999999999</ele>
        <time>2026-07-02T15:09:59Z</time>
      </trkpt>
      <trkpt lat="53.607665039598942" lon="-9.751416966319084">
        <ele>6.39</ele>
        <time>2026-07-02T15:10:05Z</time>
      </trkpt>
      <trkpt lat="53.607729999348521" lon="-9.751553004607558">
        <ele>6.39</ele>
        <time>2026-07-02T15:10:06Z</time>
      </trkpt>
      <trkpt lat="53.607788002118468" lon="-9.751674039289355">
        <ele>5.91</ele>
        <time>2026-07-02T15:10:07Z</time>
      </trkpt>
      <trkpt lat="53.607861008495092" lon="-9.751695999875665">
        <ele>5.42</ele>
        <time>2026-07-02T15:10:08Z</time>
      </trkpt>
      <trkpt lat="53.607940971851349" lon="-9.751717038452625">
        <ele>5.42</ele>
        <time>2026-07-02T15:10:09Z</time>
      </trkpt>
      <trkpt lat="53.608035016804934" lon="-9.751660041511059">
        <ele>5.91</ele>
        <time>2026-07-02T15:10:10Z</time>
      </trkpt>
      <trkpt lat="53.608139958232641" lon="-9.751596003770828">
        <ele>5.91</ele>
        <time>2026-07-02T15:10:11Z</time>
      </trkpt>
      <trkpt lat="53.608480012044311" lon="-9.751389976590872">
        <ele>6.39</ele>
        <time>2026-07-02T15:10:14Z</time>
      </trkpt>
      <trkpt lat="53.608600962907076" lon="-9.751370027661324">
        <ele>5.91</ele>
        <time>2026-07-02T15:10:15Z</time>
      </trkpt>
      <trkpt lat="53.608725015074015" lon="-9.751401962712407">
        <ele>5.91</ele>
        <time>2026-07-02T15:10:16Z</time>
      </trkpt>
      <trkpt lat="53.608858035877347" lon="-9.751438004896045">
        <ele>5.42</ele>
        <time>2026-07-02T15:10:17Z</time>
      </trkpt>
      <trkpt lat="53.608996002003551" lon="-9.751473963260651">
        <ele>5.91</ele>
        <time>2026-07-02T15:10:18Z</time>
      </trkpt>
      <trkpt lat="53.610015995800495" lon="-9.751740004867315">
        <ele>6.87</ele>
        <time>2026-07-02T15:10:25Z</time>
      </trkpt>
      <trkpt lat="53.610150022432208" lon="-9.751740004867315">
        <ele>7.35</ele>
        <time>2026-07-02T15:10:26Z</time>
      </trkpt>
      <trkpt lat="53.610276002436876" lon="-9.751688959077001">
        <ele>7.83</ele>
        <time>2026-07-02T15:10:27Z</time>
      </trkpt>
      <trkpt lat="53.610401982441545" lon="-9.751615030691028">
        <ele>8.310000000000001</ele>
        <time>2026-07-02T15:10:28Z</time>
      </trkpt>
      <trkpt lat="53.610530979931355" lon="-9.751539006829262">
        <ele>9.27</ele>
        <time>2026-07-02T15:10:29Z</time>
      </trkpt>
      <trkpt lat="53.610786963254213" lon="-9.75138695910573">
        <ele>11.19</ele>
        <time>2026-07-02T15:10:31Z</time>
      </trkpt>
      <trkpt lat="53.610915038734674" lon="-9.751338008791208">
        <ele>11.67</ele>
        <time>2026-07-02T15:10:32Z</time>
      </trkpt>
      <trkpt lat="53.611040012910962" lon="-9.751358041539788">
        <ele>12.15</ele>
        <time>2026-07-02T15:10:33Z</time>
      </trkpt>
      <trkpt lat="53.611163981258869" lon="-9.751377990469337">
        <ele>12.630000000000001</ele>
        <time>2026-07-02T15:10:34Z</time>
      </trkpt>
      <trkpt lat="53.611291972920299" lon="-9.751398023217917">
        <ele>12.630000000000001</ele>
        <time>2026-07-02T15:10:35Z</time>
      </trkpt>
      <trkpt lat="53.611424993723631" lon="-9.751419983804226">
        <ele>12.630000000000001</ele>
        <time>2026-07-02T15:10:36Z</time>
      </trkpt>
      <trkpt lat="53.612281959503889" lon="-9.751546969637275">
        <ele>15.039999999999999</ele>
        <time>2026-07-02T15:10:42Z</time>
      </trkpt>
      <trkpt lat="53.613720964640379" lon="-9.751313030719757">
        <ele>16.960000000000001</ele>
        <time>2026-07-02T15:10:53Z</time>
      </trkpt>
      <trkpt lat="53.615026026964188" lon="-9.751644032076001">
        <ele>20.32</ele>
        <time>2026-07-02T15:11:02Z</time>
      </trkpt>
      <trkpt lat="53.617228958755732" lon="-9.752338975667954">
        <ele>25.129999999999999</ele>
        <time>2026-07-02T15:11:16Z</time>
      </trkpt>
      <trkpt lat="53.617683006450534" lon="-9.752575010061264">
        <ele>25.609999999999999</ele>
        <time>2026-07-02T15:11:19Z</time>
      </trkpt>
      <trkpt lat="53.617832958698273" lon="-9.752622032538056">
        <ele>25.609999999999999</ele>
        <time>2026-07-02T15:11:20Z</time>
      </trkpt>
      <trkpt lat="53.617988023906946" lon="-9.752636030316353">
        <ele>25.609999999999999</ele>
        <time>2026-07-02T15:11:21Z</time>
      </trkpt>
      <trkpt lat="53.618144011124969" lon="-9.752628989517689">
        <ele>25.609999999999999</ele>
        <time>2026-07-02T15:11:22Z</time>
      </trkpt>
      <trkpt lat="53.618305027484894" lon="-9.752621026709676">
        <ele>25.609999999999999</ele>
        <time>2026-07-02T15:11:23Z</time>
      </trkpt>
      <trkpt lat="53.619974032044411" lon="-9.752263035625219">
        <ele>29.460000000000001</ele>
        <time>2026-07-02T15:11:33Z</time>
      </trkpt>
      <trkpt lat="53.620103029534221" lon="-9.752291031181812">
        <ele>29.940000000000001</ele>
        <time>2026-07-02T15:11:34Z</time>
      </trkpt>
      <trkpt lat="53.620225992053747" lon="-9.752317015081644">
        <ele>30.420000000000002</ele>
        <time>2026-07-02T15:11:35Z</time>
      </trkpt>
      <trkpt lat="53.620335040614009" lon="-9.752420028671622">
        <ele>30.420000000000002</ele>
        <time>2026-07-02T15:11:36Z</time>
      </trkpt>
      <trkpt lat="53.620450962334871" lon="-9.752536034211516">
        <ele>30.420000000000002</ele>
        <time>2026-07-02T15:11:37Z</time>
      </trkpt>
      <trkpt lat="53.620569985359907" lon="-9.75265396758914">
        <ele>29.940000000000001</ele>
        <time>2026-07-02T15:11:38Z</time>
      </trkpt>
      <trkpt lat="53.621758036315441" lon="-9.753814022988081">
        <ele>29.460000000000001</ele>
        <time>2026-07-02T15:11:48Z</time>
      </trkpt>
      <trkpt lat="53.62186498939991" lon="-9.753885017707944">
        <ele>29.460000000000001</ele>
        <time>2026-07-02T15:11:49Z</time>
      </trkpt>
      <trkpt lat="53.621994992718101" lon="-9.753873031586409">
        <ele>29.460000000000001</ele>
        <time>2026-07-02T15:11:50Z</time>
      </trkpt>
      <trkpt lat="53.622126001864672" lon="-9.753860961645842">
        <ele>29.460000000000001</ele>
        <time>2026-07-02T15:11:51Z</time>
      </trkpt>
      <trkpt lat="53.622261034324765" lon="-9.753847969695926">
        <ele>28.98</ele>
        <time>2026-07-02T15:11:52Z</time>
      </trkpt>
      <trkpt lat="53.622397994622588" lon="-9.75383598357439">
        <ele>28.98</ele>
        <time>2026-07-02T15:11:53Z</time>
      </trkpt>
      <trkpt lat="53.623099979013205" lon="-9.753593998029828">
        <ele>28.5</ele>
        <time>2026-07-02T15:11:58Z</time>
      </trkpt>
      <trkpt lat="53.623222019523382" lon="-9.753515040501952">
        <ele>28.5</ele>
        <time>2026-07-02T15:11:59Z</time>
      </trkpt>
      <trkpt lat="53.623331990092993" lon="-9.75340599194169">
        <ele>28.5</ele>
        <time>2026-07-02T15:12:00Z</time>
      </trkpt>
      <trkpt lat="53.623430980369449" lon="-9.753305995836854">
        <ele>28.5</ele>
        <time>2026-07-02T15:12:01Z</time>
      </trkpt>
      <trkpt lat="53.623501975089312" lon="-9.753137016668916">
        <ele>28.5</ele>
        <time>2026-07-02T15:12:02Z</time>
      </trkpt>
      <trkpt lat="53.62353902310133" lon="-9.753049006685615">
        <ele>28.5</ele>
        <time>2026-07-02T15:12:03Z</time>
      </trkpt>
      <trkpt lat="53.62353902310133" lon="-9.752856977283955">
        <ele>28.02</ele>
        <time>2026-07-02T15:12:04Z</time>
      </trkpt>
      <trkpt lat="53.62353902310133" lon="-9.752710964530706">
        <ele>28.02</ele>
        <time>2026-07-02T15:12:05Z</time>
      </trkpt>
      <trkpt lat="53.62353902310133" lon="-9.752566041424871">
        <ele>28.02</ele>
        <time>2026-07-02T15:12:06Z</time>
      </trkpt>
      <trkpt lat="53.623550003394485" lon="-9.752408964559436">
        <ele>27.530000000000001</ele>
        <time>2026-07-02T15:12:07Z</time>
      </trkpt>
      <trkpt lat="53.623575987294316" lon="-9.752264963462949">
        <ele>27.050000000000001</ele>
        <time>2026-07-02T15:12:08Z</time>
      </trkpt>
      <trkpt lat="53.623637007549405" lon="-9.752154992893338">
        <ele>27.050000000000001</ele>
        <time>2026-07-02T15:12:09Z</time>
      </trkpt>
      <trkpt lat="53.6237149592489" lon="-9.752047033980489">
        <ele>27.050000000000001</ele>
        <time>2026-07-02T15:12:10Z</time>
      </trkpt>
      <trkpt lat="53.623799029737711" lon="-9.751929016783834">
        <ele>27.050000000000001</ele>
        <time>2026-07-02T15:12:11Z</time>
      </trkpt>
      <trkpt lat="53.623887039721012" lon="-9.751805970445275">
        <ele>27.050000000000001</ele>
        <time>2026-07-02T15:12:12Z</time>
      </trkpt>
      <trkpt lat="53.623981000855565" lon="-9.751674039289355">
        <ele>27.530000000000001</ele>
        <time>2026-07-02T15:12:13Z</time>
      </trkpt>
      <trkpt lat="53.624093988910317" lon="-9.751570019870997">
        <ele>27.530000000000001</ele>
        <time>2026-07-02T15:12:14Z</time>
      </trkpt>
      <trkpt lat="53.624214017763734" lon="-9.751479998230934">
        <ele>28.02</ele>
        <time>2026-07-02T15:12:15Z</time>
      </trkpt>
      <trkpt lat="53.624334968626499" lon="-9.751388970762491">
        <ele>28.5</ele>
        <time>2026-07-02T15:12:16Z</time>
      </trkpt>
      <trkpt lat="53.624598998576403" lon="-9.751271959394217">
        <ele>28.98</ele>
        <time>2026-07-02T15:12:18Z</time>
      </trkpt>
      <trkpt lat="53.625652017071843" lon="-9.750797962769866">
        <ele>27.050000000000001</ele>
        <time>2026-07-02T15:12:26Z</time>
      </trkpt>
      <trkpt lat="53.625781014561653" lon="-9.750692015513778">
        <ele>27.050000000000001</ele>
        <time>2026-07-02T15:12:27Z</time>
      </trkpt>
      <trkpt lat="53.627112982794642" lon="-9.749649977311492">
        <ele>24.649999999999999</ele>
        <time>2026-07-02T15:12:37Z</time>
      </trkpt>
      <trkpt lat="53.628508988767862" lon="-9.748869035393">
        <ele>23.210000000000001</ele>
        <time>2026-07-02T15:12:47Z</time>
      </trkpt>
      <trkpt lat="53.629783960059285" lon="-9.748459998518229">
        <ele>16.960000000000001</ele>
        <time>2026-07-02T15:12:56Z</time>
      </trkpt>
      <trkpt lat="53.629932990297675" lon="-9.748411970213056">
        <ele>16.960000000000001</ele>
        <time>2026-07-02T15:12:57Z</time>
      </trkpt>
      <trkpt lat="53.630061987787485" lon="-9.748370982706547">
        <ele>16.960000000000001</ele>
        <time>2026-07-02T15:12:58Z</time>
      </trkpt>
      <trkpt lat="53.630185034126043" lon="-9.748256988823414">
        <ele>17.440000000000001</ele>
        <time>2026-07-02T15:12:59Z</time>
      </trkpt>
      <trkpt lat="53.630341021344066" lon="-9.748112987726927">
        <ele>17.920000000000002</ele>
        <time>2026-07-02T15:13:00Z</time>
      </trkpt>
      <trkpt lat="53.630426013842225" lon="-9.74801198579371">
        <ele>17.920000000000002</ele>
        <time>2026-07-02T15:13:01Z</time>
      </trkpt>
      <trkpt lat="53.63067202270031" lon="-9.747719960287213">
        <ele>18.879999999999999</ele>
        <time>2026-07-02T15:13:03Z</time>
      </trkpt>
      <trkpt lat="53.631051974371076" lon="-9.74726096726954">
        <ele>20.809999999999999</ele>
        <time>2026-07-02T15:13:06Z</time>
      </trkpt>
      <trkpt lat="53.631460005417466" lon="-9.74668001756072">
        <ele>23.210000000000001</ele>
        <time>2026-07-02T15:13:10Z</time>
      </trkpt>
      <trkpt lat="53.631566036492586" lon="-9.746594019234181">
        <ele>24.170000000000002</ele>
        <time>2026-07-02T15:13:11Z</time>
      </trkpt>
      <trkpt lat="53.6316810362041" lon="-9.746510032564402">
        <ele>24.649999999999999</ele>
        <time>2026-07-02T15:13:12Z</time>
      </trkpt>
      <trkpt lat="53.631803998723626" lon="-9.746448006480932">
        <ele>25.609999999999999</ele>
        <time>2026-07-02T15:13:13Z</time>
      </trkpt>
      <trkpt lat="53.631928972899914" lon="-9.746385980397463">
        <ele>26.57</ele>
        <time>2026-07-02T15:13:14Z</time>
      </trkpt>
      <trkpt lat="53.632066017016768" lon="-9.746366031467915">
        <ele>27.050000000000001</ele>
        <time>2026-07-02T15:13:15Z</time>
      </trkpt>
      <trkpt lat="53.63232996314764" lon="-9.746343987062573">
        <ele>28.5</ele>
        <time>2026-07-02T15:13:17Z</time>
      </trkpt>
      <trkpt lat="53.632608996704221" lon="-9.746390003710985">
        <ele>30.899999999999999</ele>
        <time>2026-07-02T15:13:19Z</time>
      </trkpt>
      <trkpt lat="53.632742017507553" lon="-9.746442977339029">
        <ele>32.340000000000003</ele>
        <time>2026-07-02T15:13:20Z</time>
      </trkpt>
      <trkpt lat="53.633108977228403" lon="-9.746589995920658">
        <ele>35.710000000000001</ele>
        <time>2026-07-02T15:13:23Z</time>
      </trkpt>
      <trkpt lat="53.633249960839748" lon="-9.746589995920658">
        <ele>36.670000000000002</ele>
        <time>2026-07-02T15:13:24Z</time>
      </trkpt>
      <trkpt lat="53.633376024663448" lon="-9.746581027284265">
        <ele>37.630000000000003</ele>
        <time>2026-07-02T15:13:25Z</time>
      </trkpt>
      <trkpt lat="53.633511979132891" lon="-9.746542973443866">
        <ele>39.07</ele>
        <time>2026-07-02T15:13:26Z</time>
      </trkpt>
      <trkpt lat="53.633657991886139" lon="-9.746502991765738">
        <ele>40.030000000000001</ele>
        <time>2026-07-02T15:13:27Z</time>
      </trkpt>
      <trkpt lat="53.633821019902825" lon="-9.746457980945706">
        <ele>40.990000000000002</ele>
        <time>2026-07-02T15:13:28Z</time>
      </trkpt>
      <trkpt lat="53.634808994829655" lon="-9.746182970702648">
        <ele>43.399999999999999</ele>
        <time>2026-07-02T15:13:34Z</time>
      </trkpt>
      <trkpt lat="53.636205000802875" lon="-9.745677961036563">
        <ele>45.799999999999997</ele>
        <time>2026-07-02T15:13:44Z</time>
      </trkpt>
      <trkpt lat="53.63688301295042" lon="-9.745711991563439">
        <ele>44.840000000000003</ele>
        <time>2026-07-02T15:13:49Z</time>
      </trkpt>
      <trkpt lat="53.637032965198159" lon="-9.745683996006846">
        <ele>44.359999999999999</ele>
        <time>2026-07-02T15:13:50Z</time>
      </trkpt>
      <trkpt lat="53.637185012921691" lon="-9.745645020157099">
        <ele>43.880000000000003</ele>
        <time>2026-07-02T15:13:51Z</time>
      </trkpt>
      <trkpt lat="53.637338988482952" lon="-9.745590034872294">
        <ele>43.399999999999999</ele>
        <time>2026-07-02T15:13:52Z</time>
      </trkpt>
      <trkpt lat="53.637497993186116" lon="-9.745513005182147">
        <ele>43.399999999999999</ele>
        <time>2026-07-02T15:13:53Z</time>
      </trkpt>
      <trkpt lat="53.638270972296596" lon="-9.745035991072655">
        <ele>41.469999999999999</ele>
        <time>2026-07-02T15:13:58Z</time>
      </trkpt>
      <trkpt lat="53.63842997699976" lon="-9.744938006624579">
        <ele>41.469999999999999</ele>
        <time>2026-07-02T15:13:59Z</time>
      </trkpt>
      <trkpt lat="53.63853701390326" lon="-9.744953010231257">
        <ele>41.469999999999999</ele>
        <time>2026-07-02T15:14:00Z</time>
      </trkpt>
      <trkpt lat="53.638670034706593" lon="-9.745032973587513">
        <ele>40.990000000000002</ele>
        <time>2026-07-02T15:14:01Z</time>
      </trkpt>
      <trkpt lat="53.638800038024783" lon="-9.745140010491014">
        <ele>40.509999999999998</ele>
        <time>2026-07-02T15:14:02Z</time>
      </trkpt>
      <trkpt lat="53.638933980837464" lon="-9.745249981060624">
        <ele>40.030000000000001</ele>
        <time>2026-07-02T15:14:03Z</time>
      </trkpt>
      <trkpt lat="53.639090973883867" lon="-9.745295997709036">
        <ele>39.549999999999997</ele>
        <time>2026-07-02T15:14:04Z</time>
      </trkpt>
      <trkpt lat="53.639258025214076" lon="-9.745336985215545">
        <ele>38.590000000000003</ele>
        <time>2026-07-02T15:14:05Z</time>
      </trkpt>
      <trkpt lat="53.639953974634409" lon="-9.745510993525386">
        <ele>37.630000000000003</ele>
        <time>2026-07-02T15:14:09Z</time>
      </trkpt>
      <trkpt lat="53.640114990994334" lon="-9.74562699906528">
        <ele>37.630000000000003</ele>
        <time>2026-07-02T15:14:10Z</time>
      </trkpt>
      <trkpt lat="53.64027701318264" lon="-9.74575599655509">
        <ele>37.630000000000003</ele>
        <time>2026-07-02T15:14:11Z</time>
      </trkpt>
      <trkpt lat="53.640844970941544" lon="-9.746180037036538">
        <ele>37.630000000000003</ele>
        <time>2026-07-02T15:14:15Z</time>
      </trkpt>
      <trkpt lat="53.640971034765244" lon="-9.746226975694299">
        <ele>37.630000000000003</ele>
        <time>2026-07-02T15:14:16Z</time>
      </trkpt>
      <trkpt lat="53.642010977491736" lon="-9.746588990092278">
        <ele>36.189999999999998</ele>
        <time>2026-07-02T15:14:24Z</time>
      </trkpt>
      <trkpt lat="53.642135029658675" lon="-9.74665897898376">
        <ele>36.189999999999998</ele>
        <time>2026-07-02T15:14:25Z</time>
      </trkpt>
      <trkpt lat="53.642356982454658" lon="-9.746783031150699">
        <ele>35.710000000000001</ele>
        <time>2026-07-02T15:14:27Z</time>
      </trkpt>
      <trkpt lat="53.642468964681029" lon="-9.746802980080247">
        <ele>35.710000000000001</ele>
        <time>2026-07-02T15:14:28Z</time>
      </trkpt>
      <trkpt lat="53.64255404099822" lon="-9.746817983686924">
        <ele>35.710000000000001</ele>
        <time>2026-07-02T15:14:29Z</time>
      </trkpt>
      <trkpt lat="53.642616989091039" lon="-9.746828963980079">
        <ele>35.710000000000001</ele>
        <time>2026-07-02T15:14:30Z</time>
      </trkpt>
      <trkpt lat="53.642670968547463" lon="-9.746838016435504">
        <ele>35.710000000000001</ele>
        <time>2026-07-02T15:14:31Z</time>
      </trkpt>
      <trkpt lat="53.642742969095707" lon="-9.746740031987429">
        <ele>36.189999999999998</ele>
        <time>2026-07-02T15:14:32Z</time>
      </trkpt>
      <trkpt lat="53.642775993794203" lon="-9.746682029217482">
        <ele>36.189999999999998</ele>
        <time>2026-07-02T15:14:33Z</time>
      </trkpt>
      <trkpt lat="53.642819998785853" lon="-9.746602987870574">
        <ele>36.189999999999998</ele>
        <time>2026-07-02T15:14:34Z</time>
      </trkpt>
      <trkpt lat="53.642864003777504" lon="-9.746524030342698">
        <ele>36.189999999999998</ele>
        <time>2026-07-02T15:14:35Z</time>
      </trkpt>
      <trkpt lat="53.643336994573474" lon="-9.74569003097713">
        <ele>36.670000000000002</ele>
        <time>2026-07-02T15:14:43Z</time>
      </trkpt>
      <trkpt lat="53.643928002566099" lon="-9.74466098472476">
        <ele>38.109999999999999</ele>
        <time>2026-07-02T15:14:51Z</time>
      </trkpt>
      <trkpt lat="53.643991034477949" lon="-9.744507009163499">
        <ele>37.630000000000003</ele>
        <time>2026-07-02T15:14:52Z</time>
      </trkpt>
      <trkpt lat="53.644055994227529" lon="-9.744344986975193">
        <ele>37.630000000000003</ele>
        <time>2026-07-02T15:14:53Z</time>
      </trkpt>
      <trkpt lat="53.644104022532701" lon="-9.7441650275141">
        <ele>37.630000000000003</ele>
        <time>2026-07-02T15:14:54Z</time>
      </trkpt>
      <trkpt lat="53.64414400421083" lon="-9.743978027254343">
        <ele>37.630000000000003</ele>
        <time>2026-07-02T15:14:55Z</time>
      </trkpt>
      <trkpt lat="53.644162025302649" lon="-9.743787003681064">
        <ele>37.630000000000003</ele>
        <time>2026-07-02T15:14:56Z</time>
      </trkpt>
      <trkpt lat="53.644179962575436" lon="-9.743577959015966">
        <ele>37.630000000000003</ele>
        <time>2026-07-02T15:14:57Z</time>
      </trkpt>
      <trkpt lat="53.644149033352733" lon="-9.743395987898111">
        <ele>38.109999999999999</ele>
        <time>2026-07-02T15:14:58Z</time>
      </trkpt>
      <trkpt lat="53.644119026139379" lon="-9.743214016780257">
        <ele>38.109999999999999</ele>
        <time>2026-07-02T15:14:59Z</time>
      </trkpt>
      <trkpt lat="53.644079966470599" lon="-9.743035985156894">
        <ele>38.109999999999999</ele>
        <time>2026-07-02T15:15:00Z</time>
      </trkpt>
      <trkpt lat="53.644036967307329" lon="-9.742850996553898">
        <ele>38.109999999999999</ele>
        <time>2026-07-02T15:15:01Z</time>
      </trkpt>
      <trkpt lat="53.643891960382462" lon="-9.74208103492856">
        <ele>38.109999999999999</ele>
        <time>2026-07-02T15:15:05Z</time>
      </trkpt>
      <trkpt lat="53.643880980089307" lon="-9.741891017183662">
        <ele>38.590000000000003</ele>
        <time>2026-07-02T15:15:06Z</time>
      </trkpt>
      <trkpt lat="53.643895983695984" lon="-9.741677027195692">
        <ele>39.549999999999997</ele>
        <time>2026-07-02T15:15:07Z</time>
      </trkpt>
      <trkpt lat="53.644163031131029" lon="-9.739576019346714">
        <ele>48.200000000000003</ele>
        <time>2026-07-02T15:15:17Z</time>
      </trkpt>
      <trkpt lat="53.64440300501883" lon="-9.738547978922725">
        <ele>49.649999999999999</ele>
        <time>2026-07-02T15:15:22Z</time>
      </trkpt>
      <trkpt lat="53.645088979974389" lon="-9.736273968592286">
        <ele>50.609999999999999</ele>
        <time>2026-07-02T15:15:33Z</time>
      </trkpt>
      <trkpt lat="53.645410006865859" lon="-9.734862959012389">
        <ele>48.68</ele>
        <time>2026-07-02T15:15:40Z</time>
      </trkpt>
      <trkpt lat="53.645754000172019" lon="-9.733137963339686">
        <ele>49.649999999999999</ele>
        <time>2026-07-02T15:15:48Z</time>
      </trkpt>
      <trkpt lat="53.645762968808413" lon="-9.732950963079929">
        <ele>49.649999999999999</ele>
        <time>2026-07-02T15:15:49Z</time>
      </trkpt>
      <trkpt lat="53.645761962980032" lon="-9.732740996405482">
        <ele>49.649999999999999</ele>
        <time>2026-07-02T15:15:50Z</time>
      </trkpt>
      <trkpt lat="53.645685017108917" lon="-9.730978030711412">
        <ele>53.490000000000002</ele>
        <time>2026-07-02T15:15:57Z</time>
      </trkpt>
      <trkpt lat="53.645722987130284" lon="-9.730384005233645">
        <ele>54.450000000000003</ele>
        <time>2026-07-02T15:16:01Z</time>
      </trkpt>
      <trkpt lat="53.645729022100568" lon="-9.730281997472048">
        <ele>53.009999999999998</ele>
        <time>2026-07-02T15:16:10Z</time>
      </trkpt>
      <trkpt lat="53.645761040970683" lon="-9.729781011119485">
        <ele>52.530000000000001</ele>
        <time>2026-07-02T15:16:18Z</time>
      </trkpt>
      <trkpt lat="53.645836981013417" lon="-9.728582985699177">
        <ele>51.57</ele>
        <time>2026-07-02T15:16:25Z</time>
      </trkpt>
      <trkpt lat="53.645847039297223" lon="-9.728420041501522">
        <ele>51.090000000000003</ele>
        <time>2026-07-02T15:16:26Z</time>
      </trkpt>
      <trkpt lat="53.645972013473511" lon="-9.726878022775054">
        <ele>49.649999999999999</ele>
        <time>2026-07-02T15:16:33Z</time>
      </trkpt>
      <trkpt lat="53.645980982109904" lon="-9.724943982437253">
        <ele>52.530000000000001</ele>
        <time>2026-07-02T15:16:40Z</time>
      </trkpt>
      <trkpt lat="53.64594703540206" lon="-9.722739960998297">
        <ele>54.93</ele>
        <time>2026-07-02T15:16:49Z</time>
      </trkpt>
      <trkpt lat="53.645839998498559" lon="-9.720475003123283">
        <ele>57.82</ele>
        <time>2026-07-02T15:16:59Z</time>
      </trkpt>
      <trkpt lat="53.645393997430801" lon="-9.717936962842941">
        <ele>59.259999999999998</ele>
        <time>2026-07-02T15:17:10Z</time>
      </trkpt>
      <trkpt lat="53.645050004124641" lon="-9.715473018586636">
        <ele>58.299999999999997</ele>
        <time>2026-07-02T15:17:20Z</time>
      </trkpt>
      <trkpt lat="53.644826039671898" lon="-9.712705984711647">
        <ele>60.700000000000003</ele>
        <time>2026-07-02T15:17:32Z</time>
      </trkpt>
      <trkpt lat="53.644722020253539" lon="-9.711565040051937">
        <ele>65.989999999999995</ele>
        <time>2026-07-02T15:17:37Z</time>
      </trkpt>
      <trkpt lat="53.644601991400123" lon="-9.710035007447004">
        <ele>68.390000000000001</ele>
        <time>2026-07-02T15:17:45Z</time>
      </trkpt>
      <trkpt lat="53.64466099999845" lon="-9.707966018468142">
        <ele>70.310000000000002</ele>
        <time>2026-07-02T15:17:56Z</time>
      </trkpt>
      <trkpt lat="53.644737023860216" lon="-9.707541977986693">
        <ele>70.790000000000006</ele>
        <time>2026-07-02T15:17:58Z</time>
      </trkpt>
      <trkpt lat="53.645231975242496" lon="-9.705616990104318">
        <ele>73.200000000000003</ele>
        <time>2026-07-02T15:18:08Z</time>
      </trkpt>
      <trkpt lat="53.645231975242496" lon="-9.705420015379787">
        <ele>73.200000000000003</ele>
        <time>2026-07-02T15:18:09Z</time>
      </trkpt>
      <trkpt lat="53.645231975242496" lon="-9.705217005684972">
        <ele>73.200000000000003</ele>
        <time>2026-07-02T15:18:10Z</time>
      </trkpt>
      <trkpt lat="53.644992001354694" lon="-9.703299980610609">
        <ele>73.200000000000003</ele>
        <time>2026-07-02T15:18:19Z</time>
      </trkpt>
      <trkpt lat="53.644734006375074" lon="-9.702453995123506">
        <ele>72.239999999999995</ele>
        <time>2026-07-02T15:18:23Z</time>
      </trkpt>
      <trkpt lat="53.643670007586479" lon="-9.699528962373734">
        <ele>73.200000000000003</ele>
        <time>2026-07-02T15:18:37Z</time>
      </trkpt>
      <trkpt lat="53.643455011770129" lon="-9.698677025735378">
        <ele>74.159999999999997</ele>
        <time>2026-07-02T15:18:41Z</time>
      </trkpt>
      <trkpt lat="53.643402038142085" lon="-9.698465969413519">
        <ele>74.640000000000001</ele>
        <time>2026-07-02T15:18:42Z</time>
      </trkpt>
      <trkpt lat="53.643151000142097" lon="-9.697472965344787">
        <ele>76.560000000000002</ele>
        <time>2026-07-02T15:18:47Z</time>
      </trkpt>
      <trkpt lat="53.642890993505716" lon="-9.695012960582972">
        <ele>78.969999999999999</ele>
        <time>2026-07-02T15:18:58Z</time>
      </trkpt>
      <trkpt lat="53.642830979079008" lon="-9.692104021087289">
        <ele>81.370000000000005</ele>
        <time>2026-07-02T15:19:10Z</time>
      </trkpt>
      <trkpt lat="53.642950002104044" lon="-9.689146969467402">
        <ele>85.689999999999998</ele>
        <time>2026-07-02T15:19:22Z</time>
      </trkpt>
      <trkpt lat="53.64324102178216" lon="-9.68705702573061">
        <ele>88.579999999999998</ele>
        <time>2026-07-02T15:19:31Z</time>
      </trkpt>
      <trkpt lat="53.643463980406523" lon="-9.686020016670227">
        <ele>88.579999999999998</ele>
        <time>2026-07-02T15:19:36Z</time>
      </trkpt>
      <trkpt lat="53.64347998984158" lon="-9.685809966176748">
        <ele>89.060000000000002</ele>
        <time>2026-07-02T15:19:37Z</time>
      </trkpt>
      <trkpt lat="53.643490970134735" lon="-9.685593964532018">
        <ele>89.060000000000002</ele>
        <time>2026-07-02T15:19:38Z</time>
      </trkpt>
      <trkpt lat="53.643471021205187" lon="-9.68538198620081">
        <ele>89.060000000000002</ele>
        <time>2026-07-02T15:19:39Z</time>
      </trkpt>
      <trkpt lat="53.643450988456607" lon="-9.685162967070937">
        <ele>89.540000000000006</ele>
        <time>2026-07-02T15:19:40Z</time>
      </trkpt>
      <trkpt lat="53.643430033698678" lon="-9.684945037588477">
        <ele>90.019999999999996</ele>
        <time>2026-07-02T15:19:41Z</time>
      </trkpt>
      <trkpt lat="53.643410000950098" lon="-9.684730041772127">
        <ele>90.019999999999996</ele>
        <time>2026-07-02T15:19:42Z</time>
      </trkpt>
      <trkpt lat="53.643191987648606" lon="-9.682400962337852">
        <ele>92.420000000000002</ele>
        <time>2026-07-02T15:19:52Z</time>
      </trkpt>
      <trkpt lat="53.643183019012213" lon="-9.682010030373931">
        <ele>92.900000000000006</ele>
        <time>2026-07-02T15:19:54Z</time>
      </trkpt>
      <trkpt lat="53.643192993476987" lon="-9.681821018457413">
        <ele>93.390000000000001</ele>
        <time>2026-07-02T15:19:55Z</time>
      </trkpt>
      <trkpt lat="53.643238004297018" lon="-9.681653967127204">
        <ele>92.900000000000006</ele>
        <time>2026-07-02T15:19:56Z</time>
      </trkpt>
      <trkpt lat="53.643291983753443" lon="-9.681466966867447">
        <ele>92.900000000000006</ele>
        <time>2026-07-02T15:19:57Z</time>
      </trkpt>
      <trkpt lat="53.643353004008532" lon="-9.68127803876996">
        <ele>92.900000000000006</ele>
        <time>2026-07-02T15:19:58Z</time>
      </trkpt>
      <trkpt lat="53.643427016213536" lon="-9.681083997711539">
        <ele>92.900000000000006</ele>
        <time>2026-07-02T15:19:59Z</time>
      </trkpt>
      <trkpt lat="53.644206030294299" lon="-9.678796995431185">
        <ele>90.5</ele>
        <time>2026-07-02T15:20:10Z</time>
      </trkpt>
      <trkpt lat="53.64425104111433" lon="-9.678595997393131">
        <ele>90.5</ele>
        <time>2026-07-02T15:20:11Z</time>
      </trkpt>
      <trkpt lat="53.644260009750724" lon="-9.67837798409164">
        <ele>90.019999999999996</ele>
        <time>2026-07-02T15:20:12Z</time>
      </trkpt>
      <trkpt lat="53.64425104111433" lon="-9.678173968568444">
        <ele>90.019999999999996</ele>
        <time>2026-07-02T15:20:13Z</time>
      </trkpt>
      <trkpt lat="53.644240982830524" lon="-9.677961990237236">
        <ele>90.019999999999996</ele>
        <time>2026-07-02T15:20:14Z</time>
      </trkpt>
      <trkpt lat="53.644355982542038" lon="-9.675525035709143">
        <ele>89.060000000000002</ele>
        <time>2026-07-02T15:20:25Z</time>
      </trkpt>
      <trkpt lat="53.644478023052216" lon="-9.674614006653428">
        <ele>87.620000000000005</ele>
        <time>2026-07-02T15:20:29Z</time>
      </trkpt>
      <trkpt lat="53.644475005567074" lon="-9.674379983916879">
        <ele>87.620000000000005</ele>
        <time>2026-07-02T15:20:30Z</time>
      </trkpt>
      <trkpt lat="53.644535019993782" lon="-9.672391964122653">
        <ele>86.180000000000007</ele>
        <time>2026-07-02T15:20:39Z</time>
      </trkpt>
      <trkpt lat="53.644806006923318" lon="-9.670607037842274">
        <ele>82.329999999999998</ele>
        <time>2026-07-02T15:20:47Z</time>
      </trkpt>
      <trkpt lat="53.645074982196093" lon="-9.668749021366239">
        <ele>79.930000000000007</ele>
        <time>2026-07-02T15:20:55Z</time>
      </trkpt>
      <trkpt lat="53.645127033814788" lon="-9.668552968651056">
        <ele>79.450000000000003</ele>
        <time>2026-07-02T15:20:56Z</time>
      </trkpt>
      <trkpt lat="53.645978970453143" lon="-9.666542988270521">
        <ele>75.599999999999994</ele>
        <time>2026-07-02T15:21:07Z</time>
      </trkpt>
      <trkpt lat="53.647121004760265" lon="-9.664275012910366">
        <ele>71.760000000000005</ele>
        <time>2026-07-02T15:21:20Z</time>
      </trkpt>
      <trkpt lat="53.647164003923535" lon="-9.664095975458622">
        <ele>71.760000000000005</ele>
        <time>2026-07-02T15:21:21Z</time>
      </trkpt>
      <trkpt lat="53.647207003086805" lon="-9.663921967148781">
        <ele>71.760000000000005</ele>
        <time>2026-07-02T15:21:22Z</time>
      </trkpt>
      <trkpt lat="53.647420993074775" lon="-9.662755038589239">
        <ele>72.239999999999995</ele>
        <time>2026-07-02T15:21:31Z</time>
      </trkpt>
      <trkpt lat="53.647523000836372" lon="-9.661481995135546">
        <ele>74.159999999999997</ele>
        <time>2026-07-02T15:21:42Z</time>
      </trkpt>
      <trkpt lat="53.647592989727855" lon="-9.659615010023117">
        <ele>76.560000000000002</ele>
        <time>2026-07-02T15:21:51Z</time>
      </trkpt>
      <trkpt lat="53.647659039124846" lon="-9.657394979149103">
        <ele>78</ele>
        <time>2026-07-02T15:22:02Z</time>
      </trkpt>
      <trkpt lat="53.647766998037696" lon="-9.655157011002302">
        <ele>82.810000000000002</ele>
        <time>2026-07-02T15:22:13Z</time>
      </trkpt>
      <trkpt lat="53.647805973887444" lon="-9.654956012964249">
        <ele>83.290000000000006</ele>
        <time>2026-07-02T15:22:14Z</time>
      </trkpt>
      <trkpt lat="53.647849978879094" lon="-9.654729031026363">
        <ele>83.769999999999996</ele>
        <time>2026-07-02T15:22:15Z</time>
      </trkpt>
      <trkpt lat="53.647898007184267" lon="-9.654544964432716">
        <ele>84.25</ele>
        <time>2026-07-02T15:22:16Z</time>
      </trkpt>
      <trkpt lat="53.647947963327169" lon="-9.654347989708185">
        <ele>84.730000000000004</ele>
        <time>2026-07-02T15:22:17Z</time>
      </trkpt>
      <trkpt lat="53.647996997460723" lon="-9.654158977791667">
        <ele>86.180000000000007</ele>
        <time>2026-07-02T15:22:18Z</time>
      </trkpt>
      <trkpt lat="53.648452972993255" lon="-9.65193098410964">
        <ele>94.829999999999998</ele>
        <time>2026-07-02T15:22:29Z</time>
      </trkpt>
      <trkpt lat="53.648875001817942" lon="-9.650324005633593">
        <ele>100.59999999999999</ele>
        <time>2026-07-02T15:22:39Z</time>
      </trkpt>
      <trkpt lat="53.649567011743784" lon="-9.648442016914487">
        <ele>110.20999999999999</ele>
        <time>2026-07-02T15:22:52Z</time>
      </trkpt>
      <trkpt lat="53.649605987593532" lon="-9.648236995562911">
        <ele>111.17</ele>
        <time>2026-07-02T15:22:53Z</time>
      </trkpt>
      <trkpt lat="53.649921985343099" lon="-9.646572014316917">
        <ele>119.34</ele>
        <time>2026-07-02T15:23:03Z</time>
      </trkpt>
      <trkpt lat="53.650218034163117" lon="-9.644687008112669">
        <ele>131.36000000000001</ele>
        <time>2026-07-02T15:23:13Z</time>
      </trkpt>
      <trkpt lat="53.650617012754083" lon="-9.64258398860693">
        <ele>146.25999999999999</ele>
        <time>2026-07-02T15:23:25Z</time>
      </trkpt>
      <trkpt lat="53.651163009926677" lon="-9.641508003696799">
        <ele>156.34999999999999</ele>
        <time>2026-07-02T15:23:34Z</time>
      </trkpt>
      <trkpt lat="53.651672964915633" lon="-9.640754973515868">
        <ele>164.52000000000001</ele>
        <time>2026-07-02T15:23:42Z</time>
      </trkpt>
      <trkpt lat="53.652659012004733" lon="-9.639411019161344">
        <ele>168.84999999999999</ele>
        <time>2026-07-02T15:23:52Z</time>
      </trkpt>
      <trkpt lat="53.6532979644835" lon="-9.638720015063882">
        <ele>173.16999999999999</ele>
        <time>2026-07-02T15:23:58Z</time>
      </trkpt>
      <trkpt lat="53.65338396281004" lon="-9.63858800008893">
        <ele>174.13999999999999</ele>
        <time>2026-07-02T15:23:59Z</time>
      </trkpt>
      <trkpt lat="53.653466021642089" lon="-9.638454979285598">
        <ele>175.58000000000001</ele>
        <time>2026-07-02T15:24:00Z</time>
      </trkpt>
      <trkpt lat="53.654204970225692" lon="-9.637012034654617">
        <ele>182.31</ele>
        <time>2026-07-02T15:24:09Z</time>
      </trkpt>
      <trkpt lat="53.654876025393605" lon="-9.635456018149853">
        <ele>188.08000000000001</ele>
        <time>2026-07-02T15:24:18Z</time>
      </trkpt>
      <trkpt lat="53.655688986182213" lon="-9.633417958393693">
        <ele>195.77000000000001</ele>
        <time>2026-07-02T15:24:29Z</time>
      </trkpt>
      <trkpt lat="53.656086958944798" lon="-9.632716979831457">
        <ele>198.16999999999999</ele>
        <time>2026-07-02T15:24:34Z</time>
      </trkpt>
      <trkpt lat="53.656171029433608" lon="-9.632623018696904">
        <ele>199.13</ele>
        <time>2026-07-02T15:24:35Z</time>
      </trkpt>
      <trkpt lat="53.656319975852966" lon="-9.632500978186727">
        <ele>200.09</ele>
        <time>2026-07-02T15:24:37Z</time>
      </trkpt>
      <trkpt lat="53.656393988057971" lon="-9.632477005943656">
        <ele>200.56999999999999</ele>
        <time>2026-07-02T15:24:38Z</time>
      </trkpt>
      <trkpt lat="53.656897991895676" lon="-9.632495027035475">
        <ele>199.13</ele>
        <time>2026-07-02T15:24:48Z</time>
      </trkpt>
      <trkpt lat="53.656897991895676" lon="-9.632495027035475">
        <ele>199.13</ele>
        <time>2026-07-02T15:24:59Z</time>
      </trkpt>
      <trkpt lat="53.656897991895676" lon="-9.632495027035475">
        <ele>198.65000000000001</ele>
        <time>2026-07-02T15:25:59Z</time>
      </trkpt>
      <trkpt lat="53.6569519713521" lon="-9.632558980956674">
        <ele>196.72999999999999</ele>
        <time>2026-07-02T15:26:05Z</time>
      </trkpt>
      <trkpt lat="53.65699103102088" lon="-9.632641039788723">
        <ele>196.72999999999999</ele>
        <time>2026-07-02T15:26:06Z</time>
      </trkpt>
      <trkpt lat="53.65699103102088" lon="-9.632756961509585">
        <ele>195.77000000000001</ele>
        <time>2026-07-02T15:26:07Z</time>
      </trkpt>
      <trkpt lat="53.65699103102088" lon="-9.632891993969679">
        <ele>195.28</ele>
        <time>2026-07-02T15:26:08Z</time>
      </trkpt>
      <trkpt lat="53.65699103102088" lon="-9.633042030036449">
        <ele>194.31999999999999</ele>
        <time>2026-07-02T15:26:09Z</time>
      </trkpt>
      <trkpt lat="53.65699103102088" lon="-9.633200028911233">
        <ele>193.36000000000001</ele>
        <time>2026-07-02T15:26:10Z</time>
      </trkpt>
      <trkpt lat="53.657007040455937" lon="-9.633352998644114">
        <ele>192.40000000000001</ele>
        <time>2026-07-02T15:26:11Z</time>
      </trkpt>
      <trkpt lat="53.657049033790827" lon="-9.633510997518897">
        <ele>190.96000000000001</ele>
        <time>2026-07-02T15:26:12Z</time>
      </trkpt>
      <trkpt lat="53.657341981306672" lon="-9.634612966328859">
        <ele>179.90000000000001</ele>
        <time>2026-07-02T15:26:20Z</time>
      </trkpt>
      <trkpt lat="53.657435020431876" lon="-9.6348060015589">
        <ele>172.69</ele>
        <time>2026-07-02T15:26:28Z</time>
      </trkpt>
      <trkpt lat="53.657558988779783" lon="-9.63502200320363">
        <ele>170.28999999999999</ele>
        <time>2026-07-02T15:26:37Z</time>
      </trkpt>
      <trkpt lat="53.657605005428195" lon="-9.635101966559887">
        <ele>170.28999999999999</ele>
        <time>2026-07-02T15:26:38Z</time>
      </trkpt>
      <trkpt lat="53.657633000984788" lon="-9.635211015120149">
        <ele>170.28999999999999</ele>
        <time>2026-07-02T15:26:39Z</time>
      </trkpt>
      <trkpt lat="53.657654039561749" lon="-9.635308999568224">
        <ele>170.28999999999999</ele>
        <time>2026-07-02T15:26:40Z</time>
      </trkpt>
      <trkpt lat="53.657676000148058" lon="-9.635415030643344">
        <ele>169.81</ele>
        <time>2026-07-02T15:26:41Z</time>
      </trkpt>
      <trkpt lat="53.657699972391129" lon="-9.635528018698096">
        <ele>169.81</ele>
        <time>2026-07-02T15:26:42Z</time>
      </trkpt>
      <trkpt lat="53.657746994867921" lon="-9.63575198315084">
        <ele>169.81</ele>
        <time>2026-07-02T15:26:44Z</time>
      </trkpt>
      <trkpt lat="53.657769039273262" lon="-9.63585801422596">
        <ele>169.33000000000001</ele>
        <time>2026-07-02T15:26:45Z</time>
      </trkpt>
      <trkpt lat="53.657801980152726" lon="-9.635947030037642">
        <ele>169.33000000000001</ele>
        <time>2026-07-02T15:26:46Z</time>
      </trkpt>
      <trkpt lat="53.657857971265912" lon="-9.635993968695402">
        <ele>168.84999999999999</ele>
        <time>2026-07-02T15:26:47Z</time>
      </trkpt>
      <trkpt lat="53.65791798569262" lon="-9.636044008657336">
        <ele>168.84999999999999</ele>
        <time>2026-07-02T15:26:48Z</time>
      </trkpt>
      <trkpt lat="53.657985040917993" lon="-9.636101005598903">
        <ele>168.84999999999999</ele>
        <time>2026-07-02T15:26:49Z</time>
      </trkpt>
      <trkpt lat="53.658055029809475" lon="-9.63616001419723">
        <ele>168.37</ele>
        <time>2026-07-02T15:26:50Z</time>
      </trkpt>
      <trkpt lat="53.658183021470904" lon="-9.63626797311008">
        <ele>167.88999999999999</ele>
        <time>2026-07-02T15:26:52Z</time>
      </trkpt>
      <trkpt lat="53.658229960128665" lon="-9.636360006406903">
        <ele>167.41</ele>
        <time>2026-07-02T15:26:53Z</time>
      </trkpt>
      <trkpt lat="53.658268013969064" lon="-9.636446004733443">
        <ele>166.93000000000001</ele>
        <time>2026-07-02T15:26:54Z</time>
      </trkpt>
      <trkpt lat="53.658273965120316" lon="-9.636565027758479">
        <ele>166.93000000000001</ele>
        <time>2026-07-02T15:26:55Z</time>
      </trkpt>
      <trkpt lat="53.658268013969064" lon="-9.636685978621244">
        <ele>166.44999999999999</ele>
        <time>2026-07-02T15:26:56Z</time>
      </trkpt>
      <trkpt lat="53.65826197899878" lon="-9.636814976111054">
        <ele>165.96000000000001</ele>
        <time>2026-07-02T15:26:57Z</time>
      </trkpt>
      <trkpt lat="53.658257033675909" lon="-9.636920001357794">
        <ele>165.96000000000001</ele>
        <time>2026-07-02T15:26:58Z</time>
      </trkpt>
      <trkpt lat="53.658274970948696" lon="-9.637070037424564">
        <ele>165.47999999999999</ele>
        <time>2026-07-02T15:26:59Z</time>
      </trkpt>
      <trkpt lat="53.658290980383754" lon="-9.637206997722387">
        <ele>165.47999999999999</ele>
        <time>2026-07-02T15:27:00Z</time>
      </trkpt>
      <trkpt lat="53.658317970111966" lon="-9.637334989383817">
        <ele>164.52000000000001</ele>
        <time>2026-07-02T15:27:01Z</time>
      </trkpt>
      <trkpt lat="53.658363986760378" lon="-9.637465998530388">
        <ele>164.03999999999999</ele>
        <time>2026-07-02T15:27:02Z</time>
      </trkpt>
      <trkpt lat="53.658412015065551" lon="-9.637602958828211">
        <ele>163.56</ele>
        <time>2026-07-02T15:27:03Z</time>
      </trkpt>
      <trkpt lat="53.658549981191754" lon="-9.637991962954402">
        <ele>161.16</ele>
        <time>2026-07-02T15:27:06Z</time>
      </trkpt>
      <trkpt lat="53.658600021153688" lon="-9.638077039271593">
        <ele>160.19999999999999</ele>
        <time>2026-07-02T15:27:07Z</time>
      </trkpt>
      <trkpt lat="53.658650983124971" lon="-9.638153985142708">
        <ele>159.24000000000001</ele>
        <time>2026-07-02T15:27:08Z</time>
      </trkpt>
      <trkpt lat="53.658704040572047" lon="-9.638234032317996">
        <ele>158.75</ele>
        <time>2026-07-02T15:27:09Z</time>
      </trkpt>
      <trkpt lat="53.658757014200091" lon="-9.638312989845872">
        <ele>157.78999999999999</ele>
        <time>2026-07-02T15:27:10Z</time>
      </trkpt>
      <trkpt lat="53.658809987828135" lon="-9.63839203119278">
        <ele>156.83000000000001</ele>
        <time>2026-07-02T15:27:11Z</time>
      </trkpt>
      <trkpt lat="53.65886103361845" lon="-9.638473000377417">
        <ele>156.34999999999999</ele>
        <time>2026-07-02T15:27:12Z</time>
      </trkpt>
      <trkpt lat="53.658900009468198" lon="-9.63856696151197">
        <ele>155.87</ele>
        <time>2026-07-02T15:27:13Z</time>
      </trkpt>
      <trkpt lat="53.659384986385703" lon="-9.639601958915591">
        <ele>150.09999999999999</ele>
        <time>2026-07-02T15:27:23Z</time>
      </trkpt>
      <trkpt lat="53.659440977498889" lon="-9.639702960848808">
        <ele>149.62</ele>
        <time>2026-07-02T15:27:24Z</time>
      </trkpt>
      <trkpt lat="53.659499986097217" lon="-9.63979197666049">
        <ele>149.62</ele>
        <time>2026-07-02T15:27:25Z</time>
      </trkpt>
      <trkpt lat="53.659572992473841" lon="-9.639858026057482">
        <ele>149.62</ele>
        <time>2026-07-02T15:27:26Z</time>
      </trkpt>
      <trkpt lat="53.659645998850465" lon="-9.639924997463822">
        <ele>149.62</ele>
        <time>2026-07-02T15:27:27Z</time>
      </trkpt>
      <trkpt lat="53.659715987741947" lon="-9.639988029375672">
        <ele>149.62</ele>
        <time>2026-07-02T15:27:28Z</time>
      </trkpt>
      <trkpt lat="53.659788994118571" lon="-9.640028011053801">
        <ele>149.13999999999999</ele>
        <time>2026-07-02T15:27:29Z</time>
      </trkpt>
      <trkpt lat="53.660588040947914" lon="-9.640626981854439">
        <ele>143.37</ele>
        <time>2026-07-02T15:27:39Z</time>
      </trkpt>
      <trkpt lat="53.660660041496158" lon="-9.640695964917541">
        <ele>142.88999999999999</ele>
        <time>2026-07-02T15:27:40Z</time>
      </trkpt>
      <trkpt lat="53.660705974325538" lon="-9.64082102291286">
        <ele>142.41</ele>
        <time>2026-07-02T15:27:41Z</time>
      </trkpt>
      <trkpt lat="53.660755008459091" lon="-9.640954965725541">
        <ele>141.44999999999999</ele>
        <time>2026-07-02T15:27:42Z</time>
      </trkpt>
      <trkpt lat="53.660802030935884" lon="-9.641086980700493">
        <ele>140.97</ele>
        <time>2026-07-02T15:27:43Z</time>
      </trkpt>
      <trkpt lat="53.660865984857082" lon="-9.641213966533542">
        <ele>140.00999999999999</ele>
        <time>2026-07-02T15:27:44Z</time>
      </trkpt>
      <trkpt lat="53.660994982346892" lon="-9.641389986500144">
        <ele>139.05000000000001</ele>
        <time>2026-07-02T15:27:46Z</time>
      </trkpt>
      <trkpt lat="53.661059020087123" lon="-9.641477996483445">
        <ele>138.09</ele>
        <time>2026-07-02T15:27:47Z</time>
      </trkpt>
      <trkpt lat="53.66159001365304" lon="-9.642022987827659">
        <ele>135.19999999999999</ele>
        <time>2026-07-02T15:27:54Z</time>
      </trkpt>
      <trkpt lat="53.661670982837677" lon="-9.642058024182916">
        <ele>134.72</ele>
        <time>2026-07-02T15:27:55Z</time>
      </trkpt>
      <trkpt lat="53.662562984973192" lon="-9.642259022220969">
        <ele>128.94999999999999</ele>
        <time>2026-07-02T15:28:05Z</time>
      </trkpt>
      <trkpt lat="53.662785021588206" lon="-9.64219800196588">
        <ele>126.55</ele>
        <time>2026-07-02T15:28:08Z</time>
      </trkpt>
      <trkpt lat="53.662868002429605" lon="-9.642077973112464">
        <ele>125.59</ele>
        <time>2026-07-02T15:28:09Z</time>
      </trkpt>
      <trkpt lat="53.662928016856313" lon="-9.641990968957543">
        <ele>124.63</ele>
        <time>2026-07-02T15:28:10Z</time>
      </trkpt>
      <trkpt lat="53.66298601962626" lon="-9.641894996166229">
        <ele>124.15000000000001</ele>
        <time>2026-07-02T15:28:11Z</time>
      </trkpt>
      <trkpt lat="53.663032036274672" lon="-9.641752000898123">
        <ele>123.67</ele>
        <time>2026-07-02T15:28:12Z</time>
      </trkpt>
      <trkpt lat="53.663135971873999" lon="-9.641426028683782">
        <ele>120.78</ele>
        <time>2026-07-02T15:28:14Z</time>
      </trkpt>
      <trkpt lat="53.663178971037269" lon="-9.641239028424025">
        <ele>119.81999999999999</ele>
        <time>2026-07-02T15:28:15Z</time>
      </trkpt>
      <trkpt lat="53.663199003785849" lon="-9.641041969880462">
        <ele>118.86</ele>
        <time>2026-07-02T15:28:16Z</time>
      </trkpt>
      <trkpt lat="53.663219036534429" lon="-9.640834014862776">
        <ele>117.90000000000001</ele>
        <time>2026-07-02T15:28:17Z</time>
      </trkpt>
      <trkpt lat="53.663239991292357" lon="-9.640622958540916">
        <ele>116.94</ele>
        <time>2026-07-02T15:28:18Z</time>
      </trkpt>
      <trkpt lat="53.663605023175478" lon="-9.638389013707638">
        <ele>109.73</ele>
        <time>2026-07-02T15:28:29Z</time>
      </trkpt>
      <trkpt lat="53.663699990138412" lon="-9.638063041493297">
        <ele>109.25</ele>
        <time>2026-07-02T15:28:31Z</time>
      </trkpt>
      <trkpt lat="53.663758998736739" lon="-9.637933960184455">
        <ele>108.77</ele>
        <time>2026-07-02T15:28:32Z</time>
      </trkpt>
      <trkpt lat="53.663841979578137" lon="-9.637876963242889">
        <ele>108.29000000000001</ele>
        <time>2026-07-02T15:28:33Z</time>
      </trkpt>
      <trkpt lat="53.663920015096664" lon="-9.637844022363424">
        <ele>107.81</ele>
        <time>2026-07-02T15:28:34Z</time>
      </trkpt>
      <trkpt lat="53.66399603895843" lon="-9.637812003493309">
        <ele>108.29000000000001</ele>
        <time>2026-07-02T15:28:35Z</time>
      </trkpt>
      <trkpt lat="53.664072984829545" lon="-9.637779984623194">
        <ele>108.29000000000001</ele>
        <time>2026-07-02T15:28:36Z</time>
      </trkpt>
      <trkpt lat="53.664162000641227" lon="-9.637743020430207">
        <ele>108.29000000000001</ele>
        <time>2026-07-02T15:28:37Z</time>
      </trkpt>
      <trkpt lat="53.664252022281289" lon="-9.637626009061933">
        <ele>107.81</ele>
        <time>2026-07-02T15:28:38Z</time>
      </trkpt>
      <trkpt lat="53.664351012557745" lon="-9.637477984651923">
        <ele>107.31999999999999</ele>
        <time>2026-07-02T15:28:39Z</time>
      </trkpt>
      <trkpt lat="53.664410021156073" lon="-9.637356027960777">
        <ele>107.31999999999999</ele>
        <time>2026-07-02T15:28:40Z</time>
      </trkpt>
      <trkpt lat="53.664479004219174" lon="-9.637213032692671">
        <ele>106.84</ele>
        <time>2026-07-02T15:28:41Z</time>
      </trkpt>
      <trkpt lat="53.664672961458564" lon="-9.636811958625913">
        <ele>106.36</ele>
        <time>2026-07-02T15:28:44Z</time>
      </trkpt>
      <trkpt lat="53.664729036390781" lon="-9.636668963357806">
        <ele>105.88</ele>
        <time>2026-07-02T15:28:45Z</time>
      </trkpt>
      <trkpt lat="53.664786033332348" lon="-9.636524962261319">
        <ele>105.40000000000001</ele>
        <time>2026-07-02T15:28:46Z</time>
      </trkpt>
      <trkpt lat="53.66500798612833" lon="-9.635959016159177">
        <ele>103</ele>
        <time>2026-07-02T15:28:50Z</time>
      </trkpt>
      <trkpt lat="53.665062971413136" lon="-9.635818032547832">
        <ele>102.52</ele>
        <time>2026-07-02T15:28:51Z</time>
      </trkpt>
      <trkpt lat="53.665127009153366" lon="-9.635679982602596">
        <ele>101.56</ele>
        <time>2026-07-02T15:28:52Z</time>
      </trkpt>
      <trkpt lat="53.665525987744331" lon="-9.635143959894776">
        <ele>101.08</ele>
        <time>2026-07-02T15:28:57Z</time>
      </trkpt>
      <trkpt lat="53.66560997441411" lon="-9.635059973224998">
        <ele>101.08</ele>
        <time>2026-07-02T15:28:58Z</time>
      </trkpt>
      <trkpt lat="53.665707036852837" lon="-9.635008005425334">
        <ele>101.56</ele>
        <time>2026-07-02T15:28:59Z</time>
      </trkpt>
      <trkpt lat="53.66580200381577" lon="-9.634959977120161">
        <ele>102.04000000000001</ele>
        <time>2026-07-02T15:29:00Z</time>
      </trkpt>
      <trkpt lat="53.665894959121943" lon="-9.634913960471749">
        <ele>102.52</ele>
        <time>2026-07-02T15:29:01Z</time>
      </trkpt>
      <trkpt lat="53.666087994351983" lon="-9.634817987680435">
        <ele>103</ele>
        <time>2026-07-02T15:29:03Z</time>
      </trkpt>
      <trkpt lat="53.666174998506904" lon="-9.634773982688785">
        <ele>103.48</ele>
        <time>2026-07-02T15:29:04Z</time>
      </trkpt>
      <trkpt lat="53.666256973519921" lon="-9.634646996855736">
        <ele>103.95999999999999</ele>
        <time>2026-07-02T15:29:05Z</time>
      </trkpt>
      <trkpt lat="53.666334003210068" lon="-9.6345279738307">
        <ele>104.44</ele>
        <time>2026-07-02T15:29:06Z</time>
      </trkpt>
      <trkpt lat="53.666416984051466" lon="-9.634400987997651">
        <ele>104.92</ele>
        <time>2026-07-02T15:29:07Z</time>
      </trkpt>
      <trkpt lat="53.666507005691528" lon="-9.634261010214686">
        <ele>105.40000000000001</ele>
        <time>2026-07-02T15:29:08Z</time>
      </trkpt>
      <trkpt lat="53.667470002546906" lon="-9.632727038115263">
        <ele>105.88</ele>
        <time>2026-07-02T15:29:17Z</time>
      </trkpt>
      <trkpt lat="53.668391006067395" lon="-9.630919983610511">
        <ele>107.31999999999999</ele>
        <time>2026-07-02T15:29:27Z</time>
      </trkpt>
      <trkpt lat="53.669141018763185" lon="-9.629212003201246">
        <ele>103</ele>
        <time>2026-07-02T15:29:38Z</time>
      </trkpt>
      <trkpt lat="53.66921897046268" lon="-9.629029026255012">
        <ele>103</ele>
        <time>2026-07-02T15:29:40Z</time>
      </trkpt>
      <trkpt lat="53.669254006817937" lon="-9.628949984908104">
        <ele>102.52</ele>
        <time>2026-07-02T15:29:41Z</time>
      </trkpt>
      <trkpt lat="53.669288037344813" lon="-9.628868009895086">
        <ele>102.04000000000001</ele>
        <time>2026-07-02T15:29:42Z</time>
      </trkpt>
      <trkpt lat="53.669330030679703" lon="-9.628772037103772">
        <ele>101.56</ele>
        <time>2026-07-02T15:29:43Z</time>
      </trkpt>
      <trkpt lat="53.669380992650986" lon="-9.628653014078736">
        <ele>101.08</ele>
        <time>2026-07-02T15:29:44Z</time>
      </trkpt>
      <trkpt lat="53.669437989592552" lon="-9.628518987447023">
        <ele>100.59999999999999</ele>
        <time>2026-07-02T15:29:45Z</time>
      </trkpt>
      <trkpt lat="53.670047018676996" lon="-9.627099009230733">
        <ele>98.189999999999998</ele>
        <time>2026-07-02T15:29:53Z</time>
      </trkpt>
      <trkpt lat="53.670869031921029" lon="-9.62535398080945">
        <ele>96.269999999999996</ele>
        <time>2026-07-02T15:30:02Z</time>
      </trkpt>
      <trkpt lat="53.671342022716999" lon="-9.624362988397479">
        <ele>94.829999999999998</ele>
        <time>2026-07-02T15:30:08Z</time>
      </trkpt>
      <trkpt lat="53.671421986073256" lon="-9.624222004786134">
        <ele>94.829999999999998</ele>
        <time>2026-07-02T15:30:09Z</time>
      </trkpt>
      <trkpt lat="53.671521982178092" lon="-9.624110022559762">
        <ele>94.829999999999998</ele>
        <time>2026-07-02T15:30:10Z</time>
      </trkpt>
      <trkpt lat="53.672625962644815" lon="-9.623028002679348">
        <ele>93.870000000000005</ele>
        <time>2026-07-02T15:30:20Z</time>
      </trkpt>
      <trkpt lat="53.673054026439786" lon="-9.622654002159834">
        <ele>94.829999999999998</ele>
        <time>2026-07-02T15:30:24Z</time>
      </trkpt>
      <trkpt lat="53.673147987574339" lon="-9.622544031590223">
        <ele>95.310000000000002</ele>
        <time>2026-07-02T15:30:25Z</time>
      </trkpt>
      <trkpt lat="53.674137974157929" lon="-9.621413983404636">
        <ele>89.060000000000002</ele>
        <time>2026-07-02T15:30:34Z</time>
      </trkpt>
      <trkpt lat="53.675022013485432" lon="-9.620487028732896">
        <ele>86.659999999999997</ele>
        <time>2026-07-02T15:30:42Z</time>
      </trkpt>
      <trkpt lat="53.676221966743469" lon="-9.619239969179034">
        <ele>90.5</ele>
        <time>2026-07-02T15:30:54Z</time>
      </trkpt>
      <trkpt lat="53.677110029384494" lon="-9.618317959830165">
        <ele>89.060000000000002</ele>
        <time>2026-07-02T15:31:03Z</time>
      </trkpt>
      <trkpt lat="53.677912009879947" lon="-9.617411959916353">
        <ele>90.5</ele>
        <time>2026-07-02T15:31:12Z</time>
      </trkpt>
      <trkpt lat="53.679091008380055" lon="-9.615948982536793">
        <ele>89.540000000000006</ele>
        <time>2026-07-02T15:31:25Z</time>
      </trkpt>
      <trkpt lat="53.680249974131584" lon="-9.615102997049689">
        <ele>89.540000000000006</ele>
        <time>2026-07-02T15:31:36Z</time>
      </trkpt>
      <trkpt lat="53.680716007947922" lon="-9.614978022873402">
        <ele>89.540000000000006</ele>
        <time>2026-07-02T15:31:41Z</time>
      </trkpt>
      <trkpt lat="53.68079898878932" lon="-9.614905016496778">
        <ele>89.060000000000002</ele>
        <time>2026-07-02T15:31:42Z</time>
      </trkpt>
      <trkpt lat="53.68088498711586" lon="-9.614826980978251">
        <ele>88.579999999999998</ele>
        <time>2026-07-02T15:31:43Z</time>
      </trkpt>
      <trkpt lat="53.680967967957258" lon="-9.614730002358556">
        <ele>88.099999999999994</ele>
        <time>2026-07-02T15:31:44Z</time>
      </trkpt>
      <trkpt lat="53.681052960455418" lon="-9.6146310120821">
        <ele>87.140000000000001</ele>
        <time>2026-07-02T15:31:45Z</time>
      </trkpt>
      <trkpt lat="53.681138958781958" lon="-9.61452498100698">
        <ele>86.659999999999997</ele>
        <time>2026-07-02T15:31:46Z</time>
      </trkpt>
      <trkpt lat="53.68120601400733" lon="-9.614399001002312">
        <ele>86.180000000000007</ele>
        <time>2026-07-02T15:31:47Z</time>
      </trkpt>
      <trkpt lat="53.681384967640042" lon="-9.614067999646068">
        <ele>84.25</ele>
        <time>2026-07-02T15:31:50Z</time>
      </trkpt>
      <trkpt lat="53.681436013430357" lon="-9.613979989662767">
        <ele>84.25</ele>
        <time>2026-07-02T15:31:51Z</time>
      </trkpt>
      <trkpt lat="53.681485969573259" lon="-9.613960962742567">
        <ele>84.25</ele>
        <time>2026-07-02T15:31:52Z</time>
      </trkpt>
      <trkpt lat="53.681623013690114" lon="-9.613912012428045">
        <ele>83.290000000000006</ele>
        <time>2026-07-02T15:31:55Z</time>
      </trkpt>
      <trkpt lat="53.681790987029672" lon="-9.613849986344576">
        <ele>82.329999999999998</ele>
        <time>2026-07-02T15:32:03Z</time>
      </trkpt>
      <trkpt lat="53.681790987029672" lon="-9.613849986344576">
        <ele>82.329999999999998</ele>
        <time>2026-07-02T15:32:30Z</time>
      </trkpt>
      <trkpt lat="53.681790987029672" lon="-9.613849986344576">
        <ele>82.329999999999998</ele>
        <time>2026-07-02T15:33:23Z</time>
      </trkpt>
      <trkpt lat="53.681790987029672" lon="-9.613849986344576">
        <ele>81.849999999999994</ele>
        <time>2026-07-02T15:34:22Z</time>
      </trkpt>
      <trkpt lat="53.681790987029672" lon="-9.613849986344576">
        <ele>82.329999999999998</ele>
        <time>2026-07-02T15:35:11Z</time>
      </trkpt>
      <trkpt lat="53.681790987029672" lon="-9.613849986344576">
        <ele>82.810000000000002</ele>
        <time>2026-07-02T15:36:21Z</time>
      </trkpt>
      <trkpt lat="53.681790987029672" lon="-9.613849986344576">
        <ele>82.810000000000002</ele>
        <time>2026-07-02T15:37:31Z</time>
      </trkpt>
      <trkpt lat="53.681811019778252" lon="-9.613842023536563">
        <ele>83.290000000000006</ele>
        <time>2026-07-02T15:38:24Z</time>
      </trkpt>
      <trkpt lat="53.681890983134508" lon="-9.613813022151589">
        <ele>83.290000000000006</ele>
        <time>2026-07-02T15:38:26Z</time>
      </trkpt>
      <trkpt lat="53.682372020557523" lon="-9.613638008013368">
        <ele>82.810000000000002</ele>
        <time>2026-07-02T15:38:32Z</time>
      </trkpt>
      <trkpt lat="53.683190010488033" lon="-9.613338019698858">
        <ele>78.480000000000004</ele>
        <time>2026-07-02T15:38:42Z</time>
      </trkpt>
      <trkpt lat="53.683516988530755" lon="-9.613244980573654">
        <ele>76.560000000000002</ele>
        <time>2026-07-02T15:38:46Z</time>
      </trkpt>
      <trkpt lat="53.684847028926015" lon="-9.613054962828755">
        <ele>69.829999999999998</ele>
        <time>2026-07-02T15:38:59Z</time>
      </trkpt>
      <trkpt lat="53.685701983049512" lon="-9.612936023622751">
        <ele>69.349999999999994</ele>
        <time>2026-07-02T15:39:07Z</time>
      </trkpt>
      <trkpt lat="53.686176985502243" lon="-9.612747011706233">
        <ele>70.790000000000006</ele>
        <time>2026-07-02T15:39:14Z</time>
      </trkpt>
      <trkpt lat="53.686227025464177" lon="-9.612711975350976">
        <ele>71.269999999999996</ele>
        <time>2026-07-02T15:39:15Z</time>
      </trkpt>
      <trkpt lat="53.686292991042137" lon="-9.612665036693215">
        <ele>71.760000000000005</ele>
        <time>2026-07-02T15:39:16Z</time>
      </trkpt>
      <trkpt lat="53.687025988474488" lon="-9.612141000106931">
        <ele>70.310000000000002</ele>
        <time>2026-07-02T15:39:24Z</time>
      </trkpt>
      <trkpt lat="53.688075989484787" lon="-9.610980022698641">
        <ele>70.310000000000002</ele>
        <time>2026-07-02T15:39:35Z</time>
      </trkpt>
      <trkpt lat="53.688284028321505" lon="-9.610869968309999">
        <ele>69.829999999999998</ele>
        <time>2026-07-02T15:39:37Z</time>
      </trkpt>
      <trkpt lat="53.688389975577593" lon="-9.610869968309999">
        <ele>69.829999999999998</ele>
        <time>2026-07-02T15:39:38Z</time>
      </trkpt>
      <trkpt lat="53.688503969460726" lon="-9.610869968309999">
        <ele>69.829999999999998</ele>
        <time>2026-07-02T15:39:39Z</time>
      </trkpt>
      <trkpt lat="53.68969302624464" lon="-9.610934006050229">
        <ele>74.159999999999997</ele>
        <time>2026-07-02T15:39:48Z</time>
      </trkpt>
      <trkpt lat="53.690967997536063" lon="-9.611111031845212">
        <ele>72.239999999999995</ele>
        <time>2026-07-02T15:39:58Z</time>
      </trkpt>
      <trkpt lat="53.691796967759728" lon="-9.611446978524327">
        <ele>67.430000000000007</ele>
        <time>2026-07-02T15:40:05Z</time>
      </trkpt>
      <trkpt lat="53.691909033805132" lon="-9.611432980746031">
        <ele>66.950000000000003</ele>
        <time>2026-07-02T15:40:06Z</time>
      </trkpt>
      <trkpt lat="53.692022021859884" lon="-9.611418982967734">
        <ele>66.469999999999999</ele>
        <time>2026-07-02T15:40:07Z</time>
      </trkpt>
      <trkpt lat="53.692137021571398" lon="-9.611403979361057">
        <ele>66.469999999999999</ele>
        <time>2026-07-02T15:40:08Z</time>
      </trkpt>
      <trkpt lat="53.692256966605783" lon="-9.61138897575438">
        <ele>65.510000000000005</ele>
        <time>2026-07-02T15:40:09Z</time>
      </trkpt>
      <trkpt lat="53.692613029852509" lon="-9.611338013783097">
        <ele>65.510000000000005</ele>
        <time>2026-07-02T15:40:12Z</time>
      </trkpt>
      <trkpt lat="53.692717971280217" lon="-9.611320998519659">
        <ele>65.030000000000001</ele>
        <time>2026-07-02T15:40:13Z</time>
      </trkpt>
      <trkpt lat="53.692816961556673" lon="-9.611227037385106">
        <ele>65.030000000000001</ele>
        <time>2026-07-02T15:40:14Z</time>
      </trkpt>
      <trkpt lat="53.692911006510258" lon="-9.611138021573424">
        <ele>64.549999999999997</ele>
        <time>2026-07-02T15:40:15Z</time>
      </trkpt>
      <trkpt lat="53.693009996786714" lon="-9.61104498244822">
        <ele>64.069999999999993</ele>
        <time>2026-07-02T15:40:16Z</time>
      </trkpt>
      <trkpt lat="53.693107981234789" lon="-9.610952027142048">
        <ele>64.069999999999993</ele>
        <time>2026-07-02T15:40:17Z</time>
      </trkpt>
      <trkpt lat="53.694196036085486" lon="-9.609922980889678">
        <ele>63.579999999999998</ele>
        <time>2026-07-02T15:40:28Z</time>
      </trkpt>
      <trkpt lat="53.695123996585608" lon="-9.609031984582543">
        <ele>64.549999999999997</ele>
        <time>2026-07-02T15:40:39Z</time>
      </trkpt>
      <trkpt lat="53.695306973531842" lon="-9.60887398570776">
        <ele>65.030000000000001</ele>
        <time>2026-07-02T15:40:41Z</time>
      </trkpt>
      <trkpt lat="53.695399006828666" lon="-9.608794022351503">
        <ele>65.510000000000005</ele>
        <time>2026-07-02T15:40:42Z</time>
      </trkpt>
      <trkpt lat="53.695486010983586" lon="-9.608719004318118">
        <ele>65.989999999999995</ele>
        <time>2026-07-02T15:40:43Z</time>
      </trkpt>
      <trkpt lat="53.695572009310126" lon="-9.608645997941494">
        <ele>65.989999999999995</ele>
        <time>2026-07-02T15:40:44Z</time>
      </trkpt>
      <trkpt lat="53.695678962394595" lon="-9.60855295881629">
        <ele>65.989999999999995</ele>
        <time>2026-07-02T15:40:45Z</time>
      </trkpt>
      <trkpt lat="53.69577300734818" lon="-9.60855295881629">
        <ele>65.989999999999995</ele>
        <time>2026-07-02T15:40:46Z</time>
      </trkpt>
      <trkpt lat="53.6958790384233" lon="-9.60855295881629">
        <ele>65.510000000000005</ele>
        <time>2026-07-02T15:40:47Z</time>
      </trkpt>
      <trkpt lat="53.695984985679388" lon="-9.60855295881629">
        <ele>65.030000000000001</ele>
        <time>2026-07-02T15:40:48Z</time>
      </trkpt>
      <trkpt lat="53.696596026420593" lon="-9.608446005731821">
        <ele>64.549999999999997</ele>
        <time>2026-07-02T15:40:54Z</time>
      </trkpt>
      <trkpt lat="53.69669996201992" lon="-9.608411975204945">
        <ele>64.069999999999993</ele>
        <time>2026-07-02T15:40:55Z</time>
      </trkpt>
      <trkpt lat="53.696799036115408" lon="-9.608332011848688">
        <ele>63.579999999999998</ele>
        <time>2026-07-02T15:40:56Z</time>
      </trkpt>
      <trkpt lat="53.697340004146099" lon="-9.607772016897798">
        <ele>61.18</ele>
        <time>2026-07-02T15:41:01Z</time>
      </trkpt>
      <trkpt lat="53.697462966665626" lon="-9.607707979157567">
        <ele>61.18</ele>
        <time>2026-07-02T15:41:02Z</time>
      </trkpt>
      <trkpt lat="53.697595987468958" lon="-9.607646958902478">
        <ele>61.18</ele>
        <time>2026-07-02T15:41:03Z</time>
      </trkpt>
      <trkpt lat="53.697745017707348" lon="-9.607642013579607">
        <ele>61.659999999999997</ele>
        <time>2026-07-02T15:41:04Z</time>
      </trkpt>
      <trkpt lat="53.697897987440228" lon="-9.607659028843045">
        <ele>61.659999999999997</ele>
        <time>2026-07-02T15:41:05Z</time>
      </trkpt>
      <trkpt lat="53.699505971744657" lon="-9.607675960287452">
        <ele>67.909999999999997</ele>
        <time>2026-07-02T15:41:15Z</time>
      </trkpt>
      <trkpt lat="53.699804032221437" lon="-9.607630027458072">
        <ele>67.909999999999997</ele>
        <time>2026-07-02T15:41:17Z</time>
      </trkpt>
      <trkpt lat="53.69994199834764" lon="-9.60756397806108">
        <ele>67.909999999999997</ele>
        <time>2026-07-02T15:41:18Z</time>
      </trkpt>
      <trkpt lat="53.700073007494211" lon="-9.607502035796642">
        <ele>68.390000000000001</ele>
        <time>2026-07-02T15:41:19Z</time>
      </trkpt>
      <trkpt lat="53.70019999332726" lon="-9.607421988621354">
        <ele>68.870000000000005</ele>
        <time>2026-07-02T15:41:20Z</time>
      </trkpt>
      <trkpt lat="53.70030602440238" lon="-9.607316041365266">
        <ele>68.870000000000005</ele>
        <time>2026-07-02T15:41:21Z</time>
      </trkpt>
      <trkpt lat="53.700394034385681" lon="-9.607185032218695">
        <ele>69.349999999999994</ele>
        <time>2026-07-02T15:41:22Z</time>
      </trkpt>
      <trkpt lat="53.700463017448783" lon="-9.607030972838402">
        <ele>70.310000000000002</ele>
        <time>2026-07-02T15:41:23Z</time>
      </trkpt>
      <trkpt lat="53.700537029653788" lon="-9.606869034469128">
        <ele>70.310000000000002</ele>
        <time>2026-07-02T15:41:24Z</time>
      </trkpt>
      <trkpt lat="53.700604001060128" lon="-9.606683040037751">
        <ele>70.790000000000006</ele>
        <time>2026-07-02T15:41:25Z</time>
      </trkpt>
      <trkpt lat="53.701303973793983" lon="-9.604698959738016">
        <ele>75.120000000000005</ele>
        <time>2026-07-02T15:41:35Z</time>
      </trkpt>
      <trkpt lat="53.702314998954535" lon="-9.602756034582853">
        <ele>76.560000000000002</ele>
        <time>2026-07-02T15:41:46Z</time>
      </trkpt>
      <trkpt lat="53.702395968139172" lon="-9.602609016001225">
        <ele>76.560000000000002</ele>
        <time>2026-07-02T15:41:47Z</time>
      </trkpt>
      <trkpt lat="53.702522031962872" lon="-9.602532992139459">
        <ele>76.560000000000002</ele>
        <time>2026-07-02T15:41:48Z</time>
      </trkpt>
      <trkpt lat="53.702638959512115" lon="-9.602463003247976">
        <ele>76.560000000000002</ele>
        <time>2026-07-02T15:41:49Z</time>
      </trkpt>
      <trkpt lat="53.70275697670877" lon="-9.602392008528113">
        <ele>77.040000000000006</ele>
        <time>2026-07-02T15:41:50Z</time>
      </trkpt>
      <trkpt lat="53.702880023047328" lon="-9.602317996323109">
        <ele>77.040000000000006</ele>
        <time>2026-07-02T15:41:51Z</time>
      </trkpt>
      <trkpt lat="53.703933963552117" lon="-9.601756995543838">
        <ele>75.120000000000005</ele>
        <time>2026-07-02T15:41:59Z</time>
      </trkpt>
      <trkpt lat="53.704048041254282" lon="-9.601643001660705">
        <ele>75.120000000000005</ele>
        <time>2026-07-02T15:42:00Z</time>
      </trkpt>
      <trkpt lat="53.70430301874876" lon="-9.601238993927836">
        <ele>76.079999999999998</ele>
        <time>2026-07-02T15:42:03Z</time>
      </trkpt>
      <trkpt lat="53.704403014853597" lon="-9.601210998371244">
        <ele>76.560000000000002</ele>
        <time>2026-07-02T15:42:04Z</time>
      </trkpt>
      <trkpt lat="53.704479960724711" lon="-9.601193983107805">
        <ele>77.040000000000006</ele>
        <time>2026-07-02T15:42:05Z</time>
      </trkpt>
      <trkpt lat="53.704552967101336" lon="-9.601230025291443">
        <ele>77.519999999999996</ele>
        <time>2026-07-02T15:42:06Z</time>
      </trkpt>
      <trkpt lat="53.704634020105004" lon="-9.601271012797952">
        <ele>77.519999999999996</ele>
        <time>2026-07-02T15:42:07Z</time>
      </trkpt>
      <trkpt lat="53.704720018431544" lon="-9.601296996697784">
        <ele>77.519999999999996</ele>
        <time>2026-07-02T15:42:08Z</time>
      </trkpt>
      <trkpt lat="53.704814985394478" lon="-9.601286016404629">
        <ele>78</ele>
        <time>2026-07-02T15:42:09Z</time>
      </trkpt>
      <trkpt lat="53.704913975670934" lon="-9.601261960342526">
        <ele>78</ele>
        <time>2026-07-02T15:42:10Z</time>
      </trkpt>
      <trkpt lat="53.705874038860202" lon="-9.60073197260499">
        <ele>81.849999999999994</ele>
        <time>2026-07-02T15:42:18Z</time>
      </trkpt>
      <trkpt lat="53.707026969641447" lon="-9.600188992917538">
        <ele>82.329999999999998</ele>
        <time>2026-07-02T15:42:28Z</time>
      </trkpt>
      <trkpt lat="53.708166992291808" lon="-9.5992929674685">
        <ele>87.140000000000001</ele>
        <time>2026-07-02T15:42:38Z</time>
      </trkpt>
      <trkpt lat="53.708894038572907" lon="-9.598371963948011">
        <ele>90.980000000000004</ele>
        <time>2026-07-02T15:42:46Z</time>
      </trkpt>
      <trkpt lat="53.710113018751144" lon="-9.596597012132406">
        <ele>102.52</ele>
        <time>2026-07-02T15:42:58Z</time>
      </trkpt>
      <trkpt lat="53.711138041689992" lon="-9.595192959532142">
        <ele>110.20999999999999</ele>
        <time>2026-07-02T15:43:08Z</time>
      </trkpt>
      <trkpt lat="53.711417997255921" lon="-9.594881990924478">
        <ele>109.73</ele>
        <time>2026-07-02T15:43:13Z</time>
      </trkpt>
      <trkpt lat="53.711485974490643" lon="-9.594808984547854">
        <ele>109.25</ele>
        <time>2026-07-02T15:43:21Z</time>
      </trkpt>
      <trkpt lat="53.711487986147404" lon="-9.594686022028327">
        <ele>109.25</ele>
        <time>2026-07-02T15:43:22Z</time>
      </trkpt>
      <trkpt lat="53.711452027782798" lon="-9.594633970409632">
        <ele>109.25</ele>
        <time>2026-07-02T15:43:23Z</time>
      </trkpt>
      <trkpt lat="53.711400981992483" lon="-9.594560964033008">
        <ele>109.25</ele>
        <time>2026-07-02T15:43:24Z</time>
      </trkpt>
      <trkpt lat="53.711341973394156" lon="-9.594475971534848">
        <ele>109.25</ele>
        <time>2026-07-02T15:43:25Z</time>
      </trkpt>
      <trkpt lat="53.711279025301337" lon="-9.594386033713818">
        <ele>109.25</ele>
        <time>2026-07-02T15:43:26Z</time>
      </trkpt>
      <trkpt lat="53.71061802841723" lon="-9.593439968302846">
        <ele>104.44</ele>
        <time>2026-07-02T15:43:36Z</time>
      </trkpt>
      <trkpt lat="53.710500011220574" lon="-9.593223966658115">
        <ele>102.04000000000001</ele>
        <time>2026-07-02T15:43:38Z</time>
      </trkpt>
      <trkpt lat="53.70993297547102" lon="-9.592000041157007">
        <ele>94.349999999999994</ele>
        <time>2026-07-02T15:43:46Z</time>
      </trkpt>
      <trkpt lat="53.709626030176878" lon="-9.591215997934341">
        <ele>91.939999999999998</ele>
        <time>2026-07-02T15:43:51Z</time>
      </trkpt>
      <trkpt lat="53.709091013297439" lon="-9.589458983391523">
        <ele>94.829999999999998</ele>
        <time>2026-07-02T15:44:00Z</time>
      </trkpt>
      <trkpt lat="53.708295989781618" lon="-9.588064989075065">
        <ele>104.44</ele>
        <time>2026-07-02T15:44:09Z</time>
      </trkpt>
      <trkpt lat="53.707339027896523" lon="-9.586683986708522">
        <ele>109.25</ele>
        <time>2026-07-02T15:44:19Z</time>
      </trkpt>
      <trkpt lat="53.706772997975349" lon="-9.585482021793723">
        <ele>104.44</ele>
        <time>2026-07-02T15:44:27Z</time>
      </trkpt>
      <trkpt lat="53.706378964707255" lon="-9.58453101105988">
        <ele>100.11</ele>
        <time>2026-07-02T15:44:33Z</time>
      </trkpt>
      <trkpt lat="53.706332026049495" lon="-9.58446403965354">
        <ele>100.59999999999999</ele>
        <time>2026-07-02T15:44:34Z</time>
      </trkpt>
      <trkpt lat="53.706278968602419" lon="-9.584391033276916">
        <ele>100.11</ele>
        <time>2026-07-02T15:44:40Z</time>
      </trkpt>
      <trkpt lat="53.706238986924291" lon="-9.584368988871574">
        <ele>100.11</ele>
        <time>2026-07-02T15:45:23Z</time>
      </trkpt>
      <trkpt lat="53.706192970275879" lon="-9.584343004971743">
        <ele>100.11</ele>
        <time>2026-07-02T15:45:24Z</time>
      </trkpt>
      <trkpt lat="53.705983003601432" lon="-9.584225993603468">
        <ele>100.11</ele>
        <time>2026-07-02T15:45:27Z</time>
      </trkpt>
      <trkpt lat="53.705900022760034" lon="-9.584180982783437">
        <ele>100.11</ele>
        <time>2026-07-02T15:45:28Z</time>
      </trkpt>
      <trkpt lat="53.705831961706281" lon="-9.584088027477264">
        <ele>100.11</ele>
        <time>2026-07-02T15:45:29Z</time>
      </trkpt>
      <trkpt lat="53.705756021663547" lon="-9.583977973088622">
        <ele>100.59999999999999</ele>
        <time>2026-07-02T15:45:30Z</time>
      </trkpt>
      <trkpt lat="53.705674968659878" lon="-9.583859033882618">
        <ele>100.59999999999999</ele>
        <time>2026-07-02T15:45:31Z</time>
      </trkpt>
      <trkpt lat="53.70490500703454" lon="-9.582709958776832">
        <ele>101.56</ele>
        <time>2026-07-02T15:45:40Z</time>
      </trkpt>
      <trkpt lat="53.704637037590146" lon="-9.582138983532786">
        <ele>99.629999999999995</ele>
        <time>2026-07-02T15:45:45Z</time>
      </trkpt>
      <trkpt lat="53.70460300706327" lon="-9.582021972164512">
        <ele>99.150000000000006</ele>
        <time>2026-07-02T15:45:46Z</time>
      </trkpt>
      <trkpt lat="53.704404020681977" lon="-9.581224014982581">
        <ele>95.790000000000006</ele>
        <time>2026-07-02T15:45:52Z</time>
      </trkpt>
      <trkpt lat="53.704372001811862" lon="-9.581094011664391">
        <ele>94.829999999999998</ele>
        <time>2026-07-02T15:45:53Z</time>
      </trkpt>
      <trkpt lat="53.704334031790495" lon="-9.580987980589271">
        <ele>93.870000000000005</ele>
        <time>2026-07-02T15:45:54Z</time>
      </trkpt>
      <trkpt lat="53.704292960464954" lon="-9.580871975049377">
        <ele>92.900000000000006</ele>
        <time>2026-07-02T15:45:55Z</time>
      </trkpt>
      <trkpt lat="53.704250967130065" lon="-9.580753035843372">
        <ele>92.420000000000002</ele>
        <time>2026-07-02T15:45:56Z</time>
      </trkpt>
      <trkpt lat="53.704076036810875" lon="-9.580265963450074">
        <ele>90.019999999999996</ele>
        <time>2026-07-02T15:46:00Z</time>
      </trkpt>
      <trkpt lat="53.70404401794076" lon="-9.580131014809012">
        <ele>89.540000000000006</ele>
        <time>2026-07-02T15:46:01Z</time>
      </trkpt>
      <trkpt lat="53.704035971313715" lon="-9.580001011490822">
        <ele>89.060000000000002</ele>
        <time>2026-07-02T15:46:02Z</time>
      </trkpt>
      <trkpt lat="53.70406799018383" lon="-9.579163994640112">
        <ele>85.209999999999994</ele>
        <time>2026-07-02T15:46:08Z</time>
      </trkpt>
      <trkpt lat="53.704083999618888" lon="-9.578908011317253">
        <ele>83.769999999999996</ele>
        <time>2026-07-02T15:46:10Z</time>
      </trkpt>
      <trkpt lat="53.70408701710403" lon="-9.57877398468554">
        <ele>82.810000000000002</ele>
        <time>2026-07-02T15:46:11Z</time>
      </trkpt>
      <trkpt lat="53.704057009890676" lon="-9.578654961660504">
        <ele>81.849999999999994</ele>
        <time>2026-07-02T15:46:12Z</time>
      </trkpt>
      <trkpt lat="53.703999007120728" lon="-9.578424962237477">
        <ele>80.890000000000001</ele>
        <time>2026-07-02T15:46:14Z</time>
      </trkpt>
      <trkpt lat="53.703992972150445" lon="-9.578306023031473">
        <ele>80.890000000000001</ele>
        <time>2026-07-02T15:46:15Z</time>
      </trkpt>
      <trkpt lat="53.704015016555786" lon="-9.578187000006437">
        <ele>80.409999999999997</ele>
        <time>2026-07-02T15:46:16Z</time>
      </trkpt>
      <trkpt lat="53.704036977142096" lon="-9.578064037486911">
        <ele>80.409999999999997</ele>
        <time>2026-07-02T15:46:17Z</time>
      </trkpt>
      <trkpt lat="53.704059021547437" lon="-9.577939985319972">
        <ele>80.409999999999997</ele>
        <time>2026-07-02T15:46:18Z</time>
      </trkpt>
      <trkpt lat="53.704079976305366" lon="-9.577820962294936">
        <ele>80.409999999999997</ele>
        <time>2026-07-02T15:46:19Z</time>
      </trkpt>
      <trkpt lat="53.704081987962127" lon="-9.577703028917313">
        <ele>79.930000000000007</ele>
        <time>2026-07-02T15:46:20Z</time>
      </trkpt>
      <trkpt lat="53.704061033204198" lon="-9.577556010335684">
        <ele>78.969999999999999</ele>
        <time>2026-07-02T15:46:21Z</time>
      </trkpt>
      <trkpt lat="53.704037982970476" lon="-9.577401028946042">
        <ele>78.969999999999999</ele>
        <time>2026-07-02T15:46:22Z</time>
      </trkpt>
      <trkpt lat="53.704013004899025" lon="-9.577233977615833">
        <ele>78.480000000000004</ele>
        <time>2026-07-02T15:46:23Z</time>
      </trkpt>
      <trkpt lat="53.703975034877658" lon="-9.576854025945067">
        <ele>78</ele>
        <time>2026-07-02T15:46:25Z</time>
      </trkpt>
      <trkpt lat="53.703945027664304" lon="-9.576113987714052">
        <ele>76.560000000000002</ele>
        <time>2026-07-02T15:46:29Z</time>
      </trkpt>
      <trkpt lat="53.703951984643936" lon="-9.576003011316061">
        <ele>76.560000000000002</ele>
        <time>2026-07-02T15:46:30Z</time>
      </trkpt>
      <trkpt lat="53.703956007957458" lon="-9.575949031859636">
        <ele>76.560000000000002</ele>
        <time>2026-07-02T15:46:31Z</time>
      </trkpt>
      <trkpt lat="53.70395801961422" lon="-9.575923969969153">
        <ele>76.560000000000002</ele>
        <time>2026-07-02T15:46:32Z</time>
      </trkpt>
      <trkpt lat="53.70395801961422" lon="-9.575910978019238">
        <ele>76.560000000000002</ele>
        <time>2026-07-02T15:46:43Z</time>
      </trkpt>
      <trkpt lat="53.703961037099361" lon="-9.575875019654632">
        <ele>77.040000000000006</ele>
        <time>2026-07-02T15:46:44Z</time>
      </trkpt>
      <trkpt lat="53.703963970765471" lon="-9.575836965814233">
        <ele>78</ele>
        <time>2026-07-02T15:46:45Z</time>
      </trkpt>
      <trkpt lat="53.703965982422233" lon="-9.575797989964485">
        <ele>78</ele>
        <time>2026-07-02T15:46:46Z</time>
      </trkpt>
      <trkpt lat="53.703970005735755" lon="-9.575736969709396">
        <ele>78.480000000000004</ele>
        <time>2026-07-02T15:46:47Z</time>
      </trkpt>
      <trkpt lat="53.703976962715387" lon="-9.575644014403224">
        <ele>78.969999999999999</ele>
        <time>2026-07-02T15:46:48Z</time>
      </trkpt>
      <trkpt lat="53.703985009342432" lon="-9.575524991378188">
        <ele>79.450000000000003</ele>
        <time>2026-07-02T15:46:49Z</time>
      </trkpt>
      <trkpt lat="53.704073019325733" lon="-9.574242979288101">
        <ele>80.890000000000001</ele>
        <time>2026-07-02T15:46:56Z</time>
      </trkpt>
      <trkpt lat="53.704171003773808" lon="-9.572816966101527">
        <ele>82.810000000000002</ele>
        <time>2026-07-02T15:47:03Z</time>
      </trkpt>
      <trkpt lat="53.704204028472304" lon="-9.572694003582001">
        <ele>82.810000000000002</ele>
        <time>2026-07-02T15:47:04Z</time>
      </trkpt>
      <trkpt lat="53.704272005707026" lon="-9.572581015527248">
        <ele>83.290000000000006</ele>
        <time>2026-07-02T15:47:05Z</time>
      </trkpt>
      <trkpt lat="53.704350041225553" lon="-9.572452018037438">
        <ele>83.290000000000006</ele>
        <time>2026-07-02T15:47:06Z</time>
      </trkpt>
      <trkpt lat="53.704436039552093" lon="-9.572310028597713">
        <ele>83.769999999999996</ele>
        <time>2026-07-02T15:47:07Z</time>
      </trkpt>
      <trkpt lat="53.705101981759071" lon="-9.571204036474228">
        <ele>84.730000000000004</ele>
        <time>2026-07-02T15:47:14Z</time>
      </trkpt>
      <trkpt lat="53.705151015892625" lon="-9.571052994579077">
        <ele>84.730000000000004</ele>
        <time>2026-07-02T15:47:15Z</time>
      </trkpt>
      <trkpt lat="53.705187980085611" lon="-9.570904970169067">
        <ele>84.730000000000004</ele>
        <time>2026-07-02T15:47:16Z</time>
      </trkpt>
      <trkpt lat="53.705215975642204" lon="-9.57075803540647">
        <ele>85.209999999999994</ele>
        <time>2026-07-02T15:47:17Z</time>
      </trkpt>
      <trkpt lat="53.705238020047545" lon="-9.570590984076262">
        <ele>85.209999999999994</ele>
        <time>2026-07-02T15:47:18Z</time>
      </trkpt>
      <trkpt lat="53.705246988683939" lon="-9.570405995473266">
        <ele>85.689999999999998</ele>
        <time>2026-07-02T15:47:19Z</time>
      </trkpt>
      <trkpt lat="53.705241959542036" lon="-9.570208014920354">
        <ele>86.180000000000007</ele>
        <time>2026-07-02T15:47:20Z</time>
      </trkpt>
      <trkpt lat="53.705189991742373" lon="-9.568047998473048">
        <ele>83.290000000000006</ele>
        <time>2026-07-02T15:47:29Z</time>
      </trkpt>
      <trkpt lat="53.705138023942709" lon="-9.565692013129592">
        <ele>80.409999999999997</ele>
        <time>2026-07-02T15:47:40Z</time>
      </trkpt>
      <trkpt lat="53.705121008679271" lon="-9.56491400487721">
        <ele>79.450000000000003</ele>
        <time>2026-07-02T15:47:44Z</time>
      </trkpt>
      <trkpt lat="53.705091001465917" lon="-9.56474200822413">
        <ele>79.450000000000003</ele>
        <time>2026-07-02T15:47:45Z</time>
      </trkpt>
      <trkpt lat="53.705054959282279" lon="-9.564560959115624">
        <ele>79.450000000000003</ele>
        <time>2026-07-02T15:47:46Z</time>
      </trkpt>
      <trkpt lat="53.704844992607832" lon="-9.563524033874273">
        <ele>79.450000000000003</ele>
        <time>2026-07-02T15:47:54Z</time>
      </trkpt>
      <trkpt lat="53.704830994829535" lon="-9.563457984477282">
        <ele>78.480000000000004</ele>
        <time>2026-07-02T15:47:56Z</time>
      </trkpt>
      <trkpt lat="53.704827977344394" lon="-9.563442980870605">
        <ele>78</ele>
        <time>2026-07-02T15:47:57Z</time>
      </trkpt>
      <trkpt lat="53.704931996762753" lon="-9.563351031392813">
        <ele>77.040000000000006</ele>
        <time>2026-07-02T15:48:03Z</time>
      </trkpt>
      <trkpt lat="53.7049899995327" lon="-9.563373997807503">
        <ele>76.560000000000002</ele>
        <time>2026-07-02T15:48:04Z</time>
      </trkpt>
      <trkpt lat="53.705063005909324" lon="-9.563402999192476">
        <ele>76.560000000000002</ele>
        <time>2026-07-02T15:48:05Z</time>
      </trkpt>
      <trkpt lat="53.70574202388525" lon="-9.563666023313999">
        <ele>76.560000000000002</ele>
        <time>2026-07-02T15:48:11Z</time>
      </trkpt>
      <trkpt lat="53.706048969179392" lon="-9.563720002770424">
        <ele>77.519999999999996</ele>
        <time>2026-07-02T15:48:13Z</time>
      </trkpt>
      <trkpt lat="53.70621501468122" lon="-9.563749004155397">
        <ele>78</ele>
        <time>2026-07-02T15:48:14Z</time>
      </trkpt>
      <trkpt lat="53.706378964707255" lon="-9.563728971406817">
        <ele>78</ele>
        <time>2026-07-02T15:48:15Z</time>
      </trkpt>
      <trkpt lat="53.706552973017097" lon="-9.563707010820508">
        <ele>78</ele>
        <time>2026-07-02T15:48:16Z</time>
      </trkpt>
      <trkpt lat="53.706724969670177" lon="-9.563626041635871">
        <ele>78</ele>
        <time>2026-07-02T15:48:17Z</time>
      </trkpt>
      <trkpt lat="53.706897972151637" lon="-9.563542976975441">
        <ele>78</ele>
        <time>2026-07-02T15:48:18Z</time>
      </trkpt>
      <trkpt lat="53.70875196531415" lon="-9.562651980668306">
        <ele>80.890000000000001</ele>
        <time>2026-07-02T15:48:29Z</time>
      </trkpt>
      <trkpt lat="53.709771037101746" lon="-9.562016967684031">
        <ele>82.329999999999998</ele>
        <time>2026-07-02T15:48:36Z</time>
      </trkpt>
      <trkpt lat="53.709899028763175" lon="-9.561873972415924">
        <ele>82.329999999999998</ele>
        <time>2026-07-02T15:48:37Z</time>
      </trkpt>
      <trkpt lat="53.710000030696392" lon="-9.56167196854949">
        <ele>81.849999999999994</ele>
        <time>2026-07-02T15:48:38Z</time>
      </trkpt>
      <trkpt lat="53.7101049721241" lon="-9.561463007703424">
        <ele>81.370000000000005</ele>
        <time>2026-07-02T15:48:39Z</time>
      </trkpt>
      <trkpt lat="53.710228018462658" lon="-9.561216998845339">
        <ele>80.890000000000001</ele>
        <time>2026-07-02T15:48:40Z</time>
      </trkpt>
      <trkpt lat="53.710281997919083" lon="-9.560997979715467">
        <ele>80.409999999999997</ele>
        <time>2026-07-02T15:48:41Z</time>
      </trkpt>
      <trkpt lat="53.710342012345791" lon="-9.560730010271072">
        <ele>79.930000000000007</ele>
        <time>2026-07-02T15:48:42Z</time>
      </trkpt>
      <trkpt lat="53.710378976538777" lon="-9.560452988371253">
        <ele>79.930000000000007</ele>
        <time>2026-07-02T15:48:43Z</time>
      </trkpt>
      <trkpt lat="53.710395991802216" lon="-9.560162974521518">
        <ele>79.930000000000007</ele>
        <time>2026-07-02T15:48:44Z</time>
      </trkpt>
      <trkpt lat="53.710388028994203" lon="-9.559874972328544">
        <ele>80.409999999999997</ele>
        <time>2026-07-02T15:48:45Z</time>
      </trkpt>
      <trkpt lat="53.710380988195539" lon="-9.559585964307189">
        <ele>80.409999999999997</ele>
        <time>2026-07-02T15:48:46Z</time>
      </trkpt>
      <trkpt lat="53.710347041487694" lon="-9.559303997084498">
        <ele>80.890000000000001</ele>
        <time>2026-07-02T15:48:47Z</time>
      </trkpt>
      <trkpt lat="53.71029800735414" lon="-9.559023035690188">
        <ele>81.370000000000005</ele>
        <time>2026-07-02T15:48:48Z</time>
      </trkpt>
      <trkpt lat="53.710248973220587" lon="-9.55874701961875">
        <ele>81.849999999999994</ele>
        <time>2026-07-02T15:48:49Z</time>
      </trkpt>
      <trkpt lat="53.710101032629609" lon="-9.557355958968401">
        <ele>85.209999999999994</ele>
        <time>2026-07-02T15:48:54Z</time>
      </trkpt>
      <trkpt lat="53.710139002650976" lon="-9.557082960382104">
        <ele>85.689999999999998</ele>
        <time>2026-07-02T15:48:55Z</time>
      </trkpt>
      <trkpt lat="53.710182001814246" lon="-9.556813985109329">
        <ele>86.180000000000007</ele>
        <time>2026-07-02T15:48:56Z</time>
      </trkpt>
      <trkpt lat="53.710225000977516" lon="-9.556540986523032">
        <ele>86.659999999999997</ele>
        <time>2026-07-02T15:48:57Z</time>
      </trkpt>
      <trkpt lat="53.710285015404224" lon="-9.556269999593496">
        <ele>86.659999999999997</ele>
        <time>2026-07-02T15:48:58Z</time>
      </trkpt>
      <trkpt lat="53.710364978760481" lon="-9.556010998785496">
        <ele>87.140000000000001</ele>
        <time>2026-07-02T15:48:59Z</time>
      </trkpt>
      <trkpt lat="53.710444020107388" lon="-9.555749986320734">
        <ele>87.620000000000005</ele>
        <time>2026-07-02T15:49:00Z</time>
      </trkpt>
      <trkpt lat="53.71053203009069" lon="-9.555492997169495">
        <ele>88.099999999999994</ele>
        <time>2026-07-02T15:49:01Z</time>
      </trkpt>
      <trkpt lat="53.711711028590798" lon="-9.552982030436397">
        <ele>91.939999999999998</ele>
        <time>2026-07-02T15:49:11Z</time>
      </trkpt>
      <trkpt lat="53.713188003748655" lon="-9.550459999591112">
        <ele>94.349999999999994</ele>
        <time>2026-07-02T15:49:22Z</time>
      </trkpt>
      <trkpt lat="53.715222962200642" lon="-9.547826992347837">
        <ele>100.11</ele>
        <time>2026-07-02T15:49:36Z</time>
      </trkpt>
      <trkpt lat="53.716815020889044" lon="-9.545760015025735">
        <ele>103.95999999999999</ele>
        <time>2026-07-02T15:49:47Z</time>
      </trkpt>
      <trkpt lat="53.718587039038539" lon="-9.543450968340039">
        <ele>105.88</ele>
        <time>2026-07-02T15:49:58Z</time>
      </trkpt>
      <trkpt lat="53.719904003664851" lon="-9.541728990152478">
        <ele>105.88</ele>
        <time>2026-07-02T15:50:07Z</time>
      </trkpt>
      <trkpt lat="53.720346987247467" lon="-9.541148962453008">
        <ele>105.88</ele>
        <time>2026-07-02T15:50:12Z</time>
      </trkpt>
      <trkpt lat="53.720394009724259" lon="-9.541088026016951">
        <ele>105.88</ele>
        <time>2026-07-02T15:50:13Z</time>
      </trkpt>
      <trkpt lat="53.720429968088865" lon="-9.540975037962198">
        <ele>105.40000000000001</ele>
        <time>2026-07-02T15:50:14Z</time>
      </trkpt>
      <trkpt lat="53.720409013330936" lon="-9.540877975523472">
        <ele>105.40000000000001</ele>
        <time>2026-07-02T15:50:15Z</time>
      </trkpt>
      <trkpt lat="53.720381017774343" lon="-9.540749983862042">
        <ele>105.40000000000001</ele>
        <time>2026-07-02T15:50:16Z</time>
      </trkpt>
      <trkpt lat="53.720348998904228" lon="-9.540601959452033">
        <ele>104.92</ele>
        <time>2026-07-02T15:50:17Z</time>
      </trkpt>
      <trkpt lat="53.720312034711242" lon="-9.540434991940856">
        <ele>104.92</ele>
        <time>2026-07-02T15:50:18Z</time>
      </trkpt>
      <trkpt lat="53.719778023660183" lon="-9.538031984120607">
        <ele>107.31999999999999</ele>
        <time>2026-07-02T15:50:30Z</time>
      </trkpt>
      <trkpt lat="53.719185004010797" lon="-9.534737979993224">
        <ele>113.56999999999999</ele>
        <time>2026-07-02T15:50:45Z</time>
      </trkpt>
      <trkpt lat="53.719061035662889" lon="-9.533369969576597">
        <ele>115.5</ele>
        <time>2026-07-02T15:50:51Z</time>
      </trkpt>
      <trkpt lat="53.719070004299283" lon="-9.53315899707377">
        <ele>115.98</ele>
        <time>2026-07-02T15:50:52Z</time>
      </trkpt>
      <trkpt lat="53.719097999855876" lon="-9.532951964065433">
        <ele>115.98</ele>
        <time>2026-07-02T15:50:53Z</time>
      </trkpt>
      <trkpt lat="53.719607032835484" lon="-9.531219005584717">
        <ele>113.56999999999999</ele>
        <time>2026-07-02T15:51:01Z</time>
      </trkpt>
      <trkpt lat="53.720590984448791" lon="-9.529243977740407">
        <ele>110.20999999999999</ele>
        <time>2026-07-02T15:51:11Z</time>
      </trkpt>
      <trkpt lat="53.721392964944243" lon="-9.527736995369196">
        <ele>105.88</ele>
        <time>2026-07-02T15:51:19Z</time>
      </trkpt>
      <trkpt lat="53.721482986584306" lon="-9.527523005381227">
        <ele>105.40000000000001</ele>
        <time>2026-07-02T15:51:20Z</time>
      </trkpt>
      <trkpt lat="53.72157895937562" lon="-9.527292000129819">
        <ele>104.92</ele>
        <time>2026-07-02T15:51:21Z</time>
      </trkpt>
      <trkpt lat="53.722062008455396" lon="-9.525814019143581">
        <ele>104.44</ele>
        <time>2026-07-02T15:51:28Z</time>
      </trkpt>
      <trkpt lat="53.722162004560232" lon="-9.525507995858789">
        <ele>103</ele>
        <time>2026-07-02T15:51:35Z</time>
      </trkpt>
      <trkpt lat="53.722316985949874" lon="-9.525036010891199">
        <ele>103</ele>
        <time>2026-07-02T15:51:40Z</time>
      </trkpt>
      <trkpt lat="53.722783019766212" lon="-9.523650985211134">
        <ele>102.52</ele>
        <time>2026-07-02T15:51:47Z</time>
      </trkpt>
      <trkpt lat="53.723478969186544" lon="-9.521319977939129">
        <ele>103</ele>
        <time>2026-07-02T15:51:58Z</time>
      </trkpt>
      <trkpt lat="53.724265024065971" lon="-9.519057031720877">
        <ele>96.75</ele>
        <time>2026-07-02T15:52:09Z</time>
      </trkpt>
      <trkpt lat="53.725240007042885" lon="-9.516386976465583">
        <ele>95.790000000000006</ele>
        <time>2026-07-02T15:52:22Z</time>
      </trkpt>
      <trkpt lat="53.726026983931661" lon="-9.514054041355848">
        <ele>95.310000000000002</ele>
        <time>2026-07-02T15:52:33Z</time>
      </trkpt>
      <trkpt lat="53.727089976891875" lon="-9.510976960882545">
        <ele>96.75</ele>
        <time>2026-07-02T15:52:48Z</time>
      </trkpt>
      <trkpt lat="53.728033024817705" lon="-9.508508993312717">
        <ele>94.829999999999998</ele>
        <time>2026-07-02T15:53:01Z</time>
      </trkpt>
      <trkpt lat="53.728570975363255" lon="-9.507104018703103">
        <ele>93.870000000000005</ele>
        <time>2026-07-02T15:53:08Z</time>
      </trkpt>
      <trkpt lat="53.728957967832685" lon="-9.506014036014676">
        <ele>92.420000000000002</ele>
        <time>2026-07-02T15:53:14Z</time>
      </trkpt>
      <trkpt lat="53.728988980874419" lon="-9.505780013278127">
        <ele>91.939999999999998</ele>
        <time>2026-07-02T15:53:15Z</time>
      </trkpt>
      <trkpt lat="53.729072967544198" lon="-9.505104012787342">
        <ele>90.019999999999996</ele>
        <time>2026-07-02T15:53:18Z</time>
      </trkpt>
      <trkpt lat="53.729112027212977" lon="-9.504902008920908">
        <ele>89.540000000000006</ele>
        <time>2026-07-02T15:53:19Z</time>
      </trkpt>
      <trkpt lat="53.729168018326163" lon="-9.504719031974673">
        <ele>89.060000000000002</ele>
        <time>2026-07-02T15:53:20Z</time>
      </trkpt>
      <trkpt lat="53.729224009439349" lon="-9.504538988694549">
        <ele>88.099999999999994</ele>
        <time>2026-07-02T15:53:21Z</time>
      </trkpt>
      <trkpt lat="53.729301961138844" lon="-9.504366992041469">
        <ele>88.099999999999994</ele>
        <time>2026-07-02T15:53:22Z</time>
      </trkpt>
      <trkpt lat="53.729407992213964" lon="-9.504235982894898">
        <ele>87.620000000000005</ele>
        <time>2026-07-02T15:53:23Z</time>
      </trkpt>
      <trkpt lat="53.729521986097097" lon="-9.504094999283552">
        <ele>87.140000000000001</ele>
        <time>2026-07-02T15:53:24Z</time>
      </trkpt>
      <trkpt lat="53.729643020778894" lon="-9.503944041207433">
        <ele>87.140000000000001</ele>
        <time>2026-07-02T15:53:25Z</time>
      </trkpt>
      <trkpt lat="53.731039026752114" lon="-9.502215022221208">
        <ele>87.620000000000005</ele>
        <time>2026-07-02T15:53:36Z</time>
      </trkpt>
      <trkpt lat="53.732166979461908" lon="-9.500847011804581">
        <ele>86.659999999999997</ele>
        <time>2026-07-02T15:53:46Z</time>
      </trkpt>
      <trkpt lat="53.733034003525972" lon="-9.499840009957552">
        <ele>85.209999999999994</ele>
        <time>2026-07-02T15:53:55Z</time>
      </trkpt>
      <trkpt lat="53.734257007017732" lon="-9.4984180200845">
        <ele>85.209999999999994</ele>
        <time>2026-07-02T15:54:05Z</time>
      </trkpt>
      <trkpt lat="53.735290998592973" lon="-9.49721697717905">
        <ele>80.890000000000001</ele>
        <time>2026-07-02T15:54:13Z</time>
      </trkpt>
      <trkpt lat="53.736527999863029" lon="-9.495778977870941">
        <ele>74.640000000000001</ele>
        <time>2026-07-02T15:54:23Z</time>
      </trkpt>
      <trkpt lat="53.737610019743443" lon="-9.494478022679687">
        <ele>69.349999999999994</ele>
        <time>2026-07-02T15:54:32Z</time>
      </trkpt>
      <trkpt lat="53.738546026870608" lon="-9.493039017543197">
        <ele>70.310000000000002</ele>
        <time>2026-07-02T15:54:41Z</time>
      </trkpt>
      <trkpt lat="53.739301990717649" lon="-9.491642005741596">
        <ele>71.269999999999996</ele>
        <time>2026-07-02T15:54:49Z</time>
      </trkpt>
      <trkpt lat="53.739867014810443" lon="-9.490329986438155">
        <ele>73.200000000000003</ele>
        <time>2026-07-02T15:54:57Z</time>
      </trkpt>
      <trkpt lat="53.740144958719611" lon="-9.489908963441849">
        <ele>74.640000000000001</ele>
        <time>2026-07-02T15:55:00Z</time>
      </trkpt>
      <trkpt lat="53.740259958431125" lon="-9.489796981215477">
        <ele>75.120000000000005</ele>
        <time>2026-07-02T15:55:01Z</time>
      </trkpt>
      <trkpt lat="53.74132202938199" lon="-9.488826021552086">
        <ele>77.040000000000006</ele>
        <time>2026-07-02T15:55:11Z</time>
      </trkpt>
      <trkpt lat="53.741426970809698" lon="-9.488744968548417">
        <ele>77.040000000000006</ele>
        <time>2026-07-02T15:55:12Z</time>
      </trkpt>
      <trkpt lat="53.741540964692831" lon="-9.488683026283979">
        <ele>77.040000000000006</ele>
        <time>2026-07-02T15:55:13Z</time>
      </trkpt>
      <trkpt lat="53.742707977071404" lon="-9.488220009952784">
        <ele>77.040000000000006</ele>
        <time>2026-07-02T15:55:23Z</time>
      </trkpt>
      <trkpt lat="53.742819959297776" lon="-9.488176004961133">
        <ele>77.040000000000006</ele>
        <time>2026-07-02T15:55:24Z</time>
      </trkpt>
      <trkpt lat="53.74293303117156" lon="-9.488129988312721">
        <ele>77.519999999999996</ele>
        <time>2026-07-02T15:55:25Z</time>
      </trkpt>
      <trkpt lat="53.744315961375833" lon="-9.487554989755154">
        <ele>75.120000000000005</ele>
        <time>2026-07-02T15:55:36Z</time>
      </trkpt>
      <trkpt lat="53.745504012331367" lon="-9.486912013962865">
        <ele>74.640000000000001</ele>
        <time>2026-07-02T15:55:45Z</time>
      </trkpt>
      <trkpt lat="53.746970007196069" lon="-9.486331986263394">
        <ele>69.829999999999998</ele>
        <time>2026-07-02T15:55:56Z</time>
      </trkpt>
      <trkpt lat="53.748807990923524" lon="-9.485789006575942">
        <ele>67.909999999999997</ele>
        <time>2026-07-02T15:56:10Z</time>
      </trkpt>
      <trkpt lat="53.750241966918111" lon="-9.485493963584304">
        <ele>62.140000000000001</ele>
        <time>2026-07-02T15:56:21Z</time>
      </trkpt>
      <trkpt lat="53.751552980393171" lon="-9.484850987792015">
        <ele>54.450000000000003</ele>
        <time>2026-07-02T15:56:31Z</time>
      </trkpt>
      <trkpt lat="53.752057990059257" lon="-9.484515963122249">
        <ele>53.969999999999999</ele>
        <time>2026-07-02T15:56:35Z</time>
      </trkpt>
      <trkpt lat="53.752178018912673" lon="-9.484434993937612">
        <ele>54.450000000000003</ele>
        <time>2026-07-02T15:56:36Z</time>
      </trkpt>
      <trkpt lat="53.752270974218845" lon="-9.484312031418085">
        <ele>54.450000000000003</ele>
        <time>2026-07-02T15:56:37Z</time>
      </trkpt>
      <trkpt lat="53.752357978373766" lon="-9.484181022271514">
        <ele>54.450000000000003</ele>
        <time>2026-07-02T15:56:38Z</time>
      </trkpt>
      <trkpt lat="53.752442970871925" lon="-9.484024029225111">
        <ele>54.450000000000003</ele>
        <time>2026-07-02T15:56:39Z</time>
      </trkpt>
      <trkpt lat="53.752514971420169" lon="-9.483841974288225">
        <ele>54.450000000000003</ele>
        <time>2026-07-02T15:56:40Z</time>
      </trkpt>
      <trkpt lat="53.753018975257874" lon="-9.482607990503311">
        <ele>57.340000000000003</ele>
        <time>2026-07-02T15:56:47Z</time>
      </trkpt>
      <trkpt lat="53.753092987462878" lon="-9.482458960264921">
        <ele>57.82</ele>
        <time>2026-07-02T15:56:48Z</time>
      </trkpt>
      <trkpt lat="53.753191977739334" lon="-9.482331974431872">
        <ele>57.82</ele>
        <time>2026-07-02T15:56:49Z</time>
      </trkpt>
      <trkpt lat="53.753297002986073" lon="-9.482271037995815">
        <ele>57.82</ele>
        <time>2026-07-02T15:56:50Z</time>
      </trkpt>
      <trkpt lat="53.753404039889574" lon="-9.482208006083965">
        <ele>57.82</ele>
        <time>2026-07-02T15:56:51Z</time>
      </trkpt>
      <trkpt lat="53.754594018682837" lon="-9.481517001986504">
        <ele>50.130000000000003</ele>
        <time>2026-07-02T15:57:01Z</time>
      </trkpt>
      <trkpt lat="53.755239006131887" lon="-9.480920964851975">
        <ele>45.32</ele>
        <time>2026-07-02T15:57:09Z</time>
      </trkpt>
      <trkpt lat="53.755317963659763" lon="-9.480773024260998">
        <ele>43.880000000000003</ele>
        <time>2026-07-02T15:57:11Z</time>
      </trkpt>
      <trkpt lat="53.755472023040056" lon="-9.480600021779537">
        <ele>42.920000000000002</ele>
        <time>2026-07-02T15:57:13Z</time>
      </trkpt>
      <trkpt lat="53.755578976124525" lon="-9.480528021231294">
        <ele>42.920000000000002</ele>
        <time>2026-07-02T15:57:14Z</time>
      </trkpt>
      <trkpt lat="53.75644700601697" lon="-9.479943970218301">
        <ele>49.159999999999997</ele>
        <time>2026-07-02T15:57:22Z</time>
      </trkpt>
      <trkpt lat="53.756529986858368" lon="-9.479857971891761">
        <ele>49.649999999999999</ele>
        <time>2026-07-02T15:57:23Z</time>
      </trkpt>
      <trkpt lat="53.75659603625536" lon="-9.479738026857376">
        <ele>50.130000000000003</ele>
        <time>2026-07-02T15:57:24Z</time>
      </trkpt>
      <trkpt lat="53.756664013490081" lon="-9.479611963033676">
        <ele>50.609999999999999</ele>
        <time>2026-07-02T15:57:25Z</time>
      </trkpt>
      <trkpt lat="53.756739031523466" lon="-9.479475002735853">
        <ele>51.090000000000003</ele>
        <time>2026-07-02T15:57:26Z</time>
      </trkpt>
      <trkpt lat="53.757153013721108" lon="-9.478660030290484">
        <ele>57.340000000000003</ele>
        <time>2026-07-02T15:57:32Z</time>
      </trkpt>
      <trkpt lat="53.757190983742476" lon="-9.478486021980643">
        <ele>58.299999999999997</ele>
        <time>2026-07-02T15:57:33Z</time>
      </trkpt>
      <trkpt lat="53.757211016491055" lon="-9.478302039206028">
        <ele>59.740000000000002</ele>
        <time>2026-07-02T15:57:34Z</time>
      </trkpt>
      <trkpt lat="53.757233982905746" lon="-9.478105986490846">
        <ele>61.18</ele>
        <time>2026-07-02T15:57:35Z</time>
      </trkpt>
      <trkpt lat="53.757257033139467" lon="-9.47790096513927">
        <ele>62.619999999999997</ele>
        <time>2026-07-02T15:57:36Z</time>
      </trkpt>
      <trkpt lat="53.757504969835281" lon="-9.4757080078125">
        <ele>76.079999999999998</ele>
        <time>2026-07-02T15:57:46Z</time>
      </trkpt>
      <trkpt lat="53.757969997823238" lon="-9.473579004406929">
        <ele>81.370000000000005</ele>
        <time>2026-07-02T15:57:56Z</time>
      </trkpt>
      <trkpt lat="53.758263029158115" lon="-9.472576025873423">
        <ele>84.730000000000004</ele>
        <time>2026-07-02T15:58:01Z</time>
      </trkpt>
      <trkpt lat="53.758392026647925" lon="-9.472297998145223">
        <ele>86.659999999999997</ele>
        <time>2026-07-02T15:58:03Z</time>
      </trkpt>
      <trkpt lat="53.758480036631227" lon="-9.472191967070103">
        <ele>86.659999999999997</ele>
        <time>2026-07-02T15:58:04Z</time>
      </trkpt>
      <trkpt lat="53.759488966315985" lon="-9.470863016322255">
        <ele>78</ele>
        <time>2026-07-02T15:58:14Z</time>
      </trkpt>
      <trkpt lat="53.760160021483898" lon="-9.469506992027164">
        <ele>70.310000000000002</ele>
        <time>2026-07-02T15:58:22Z</time>
      </trkpt>
      <trkpt lat="53.760265968739986" lon="-9.469410013407469">
        <ele>69.349999999999994</ele>
        <time>2026-07-02T15:58:23Z</time>
      </trkpt>
      <trkpt lat="53.760374011471868" lon="-9.469311023131013">
        <ele>68.870000000000005</ele>
        <time>2026-07-02T15:58:24Z</time>
      </trkpt>
      <trkpt lat="53.76083099283278" lon="-9.468895029276609">
        <ele>68.870000000000005</ele>
        <time>2026-07-02T15:58:28Z</time>
      </trkpt>
      <trkpt lat="53.761597014963627" lon="-9.467703960835934">
        <ele>67.909999999999997</ele>
        <time>2026-07-02T15:58:37Z</time>
      </trkpt>
      <trkpt lat="53.762029018253088" lon="-9.46687800809741">
        <ele>66.950000000000003</ele>
        <time>2026-07-02T15:58:44Z</time>
      </trkpt>
      <trkpt lat="53.76209900714457" lon="-9.466740963980556">
        <ele>66.950000000000003</ele>
        <time>2026-07-02T15:58:45Z</time>
      </trkpt>
      <trkpt lat="53.762711975723505" lon="-9.465950969606638">
        <ele>66.950000000000003</ele>
        <time>2026-07-02T15:58:54Z</time>
      </trkpt>
      <trkpt lat="53.76345201395452" lon="-9.465020997449756">
        <ele>62.140000000000001</ele>
        <time>2026-07-02T15:59:05Z</time>
      </trkpt>
      <trkpt lat="53.763590985909104" lon="-9.46483701467514">
        <ele>61.18</ele>
        <time>2026-07-02T15:59:07Z</time>
      </trkpt>
      <trkpt lat="53.763678995892406" lon="-9.464722014963627">
        <ele>61.18</ele>
        <time>2026-07-02T15:59:08Z</time>
      </trkpt>
      <trkpt lat="53.764301016926765" lon="-9.464371986687183">
        <ele>60.700000000000003</ele>
        <time>2026-07-02T15:59:17Z</time>
      </trkpt>
      <trkpt lat="53.764339992776513" lon="-9.464350026100874">
        <ele>60.700000000000003</ele>
        <time>2026-07-02T15:59:18Z</time>
      </trkpt>
      <trkpt lat="53.76437402330339" lon="-9.464274002239108">
        <ele>60.700000000000003</ele>
        <time>2026-07-02T15:59:19Z</time>
      </trkpt>
      <trkpt lat="53.764380980283022" lon="-9.464219016954303">
        <ele>60.700000000000003</ele>
        <time>2026-07-02T15:59:20Z</time>
      </trkpt>
      <trkpt lat="53.764388021081686" lon="-9.464174006134272">
        <ele>60.219999999999999</ele>
        <time>2026-07-02T15:59:21Z</time>
      </trkpt>
      <trkpt lat="53.764388021081686" lon="-9.464174006134272">
        <ele>60.219999999999999</ele>
        <time>2026-07-02T15:59:32Z</time>
      </trkpt>
      <trkpt lat="53.764388021081686" lon="-9.464174006134272">
        <ele>60.219999999999999</ele>
        <time>2026-07-02T16:00:01Z</time>
      </trkpt>
      <trkpt lat="53.764388021081686" lon="-9.464174006134272">
        <ele>60.700000000000003</ele>
        <time>2026-07-02T16:00:02Z</time>
      </trkpt>
      <trkpt lat="53.764388021081686" lon="-9.464174006134272">
        <ele>60.700000000000003</ele>
        <time>2026-07-02T16:00:03Z</time>
      </trkpt>
      <trkpt lat="53.764388021081686" lon="-9.464174006134272">
        <ele>60.700000000000003</ele>
        <time>2026-07-02T16:00:04Z</time>
      </trkpt>
      <trkpt lat="53.764388021081686" lon="-9.464174006134272">
        <ele>60.219999999999999</ele>
        <time>2026-07-02T16:00:05Z</time>
      </trkpt>
      <trkpt lat="53.764388021081686" lon="-9.464174006134272">
        <ele>60.219999999999999</ele>
        <time>2026-07-02T16:00:22Z</time>
      </trkpt>
      <trkpt lat="53.764388021081686" lon="-9.464174006134272">
        <ele>60.219999999999999</ele>
        <time>2026-07-02T16:01:20Z</time>
      </trkpt>
      <trkpt lat="53.76441802829504" lon="-9.463994968682528">
        <ele>68.390000000000001</ele>
        <time>2026-07-02T16:10:18Z</time>
      </trkpt>
      <trkpt lat="53.764414004981518" lon="-9.464023970067501">
        <ele>59.259999999999998</ele>
        <time>2026-07-02T16:11:09Z</time>
      </trkpt>
      <trkpt lat="53.764415010809898" lon="-9.463993962854147">
        <ele>60.219999999999999</ele>
        <time>2026-07-02T16:12:12Z</time>
      </trkpt>
      <trkpt lat="53.764415010809898" lon="-9.463993962854147">
        <ele>60.219999999999999</ele>
        <time>2026-07-02T16:12:31Z</time>
      </trkpt>
      <trkpt lat="53.764419034123421" lon="-9.463945012539625">
        <ele>60.219999999999999</ele>
        <time>2026-07-02T16:12:33Z</time>
      </trkpt>
      <trkpt lat="53.764430014416575" lon="-9.46386999450624">
        <ele>60.700000000000003</ele>
        <time>2026-07-02T16:12:34Z</time>
      </trkpt>
      <trkpt lat="53.764576027169824" lon="-9.462810019031167">
        <ele>61.18</ele>
        <time>2026-07-02T16:12:43Z</time>
      </trkpt>
      <trkpt lat="53.764751963317394" lon="-9.46165700443089">
        <ele>62.619999999999997</ele>
        <time>2026-07-02T16:12:51Z</time>
      </trkpt>
      <trkpt lat="53.76502001658082" lon="-9.459978025406599">
        <ele>65.989999999999995</ele>
        <time>2026-07-02T16:13:01Z</time>
      </trkpt>
      <trkpt lat="53.765331991016865" lon="-9.458021018654108">
        <ele>65.030000000000001</ele>
        <time>2026-07-02T16:13:11Z</time>
      </trkpt>
      <trkpt lat="53.765670033171773" lon="-9.455724963918328">
        <ele>67.430000000000007</ele>
        <time>2026-07-02T16:13:22Z</time>
      </trkpt>
      <trkpt lat="53.765819985419512" lon="-9.453652035444975">
        <ele>68.870000000000005</ele>
        <time>2026-07-02T16:13:30Z</time>
      </trkpt>
      <trkpt lat="53.76596599817276" lon="-9.451274005696178">
        <ele>69.829999999999998</ele>
        <time>2026-07-02T16:13:40Z</time>
      </trkpt>
      <trkpt lat="53.766317032277584" lon="-9.448896981775761">
        <ele>67.909999999999997</ele>
        <time>2026-07-02T16:13:51Z</time>
      </trkpt>
      <trkpt lat="53.766358019784093" lon="-9.448686009272933">
        <ele>68.870000000000005</ele>
        <time>2026-07-02T16:13:52Z</time>
      </trkpt>
      <trkpt lat="53.767223032191396" lon="-9.447035025805235">
        <ele>77.040000000000006</ele>
        <time>2026-07-02T16:14:01Z</time>
      </trkpt>
      <trkpt lat="53.768269009888172" lon="-9.445634996518493">
        <ele>70.790000000000006</ele>
        <time>2026-07-02T16:14:11Z</time>
      </trkpt>
      <trkpt lat="53.769226977601647" lon="-9.444032041355968">
        <ele>58.780000000000001</ele>
        <time>2026-07-02T16:14:20Z</time>
      </trkpt>
      <trkpt lat="53.770481999963522" lon="-9.442156003788114">
        <ele>51.090000000000003</ele>
        <time>2026-07-02T16:14:31Z</time>
      </trkpt>
      <trkpt lat="53.771286997944117" lon="-9.440427990630269">
        <ele>48.68</ele>
        <time>2026-07-02T16:14:40Z</time>
      </trkpt>
      <trkpt lat="53.771907007321715" lon="-9.438212988898158">
        <ele>51.57</ele>
        <time>2026-07-02T16:14:50Z</time>
      </trkpt>
      <trkpt lat="53.772649979218841" lon="-9.435106990858913">
        <ele>55.409999999999997</ele>
        <time>2026-07-02T16:15:03Z</time>
      </trkpt>
      <trkpt lat="53.773427987471223" lon="-9.432554030790925">
        <ele>57.82</ele>
        <time>2026-07-02T16:15:14Z</time>
      </trkpt>
      <trkpt lat="53.77453800290823" lon="-9.430574979633093">
        <ele>58.299999999999997</ele>
        <time>2026-07-02T16:15:25Z</time>
      </trkpt>
      <trkpt lat="53.775658998638391" lon="-9.428610010072589">
        <ele>56.859999999999999</ele>
        <time>2026-07-02T16:15:36Z</time>
      </trkpt>
      <trkpt lat="53.776299962773919" lon="-9.42758297547698">
        <ele>55.890000000000001</ele>
        <time>2026-07-02T16:15:42Z</time>
      </trkpt>
      <trkpt lat="53.776434995234013" lon="-9.427502006292343">
        <ele>56.369999999999997</ele>
        <time>2026-07-02T16:15:43Z</time>
      </trkpt>
      <trkpt lat="53.776574973016977" lon="-9.427449032664299">
        <ele>56.369999999999997</ele>
        <time>2026-07-02T16:15:44Z</time>
      </trkpt>
      <trkpt lat="53.777133040130138" lon="-9.427234958857298">
        <ele>57.340000000000003</ele>
        <time>2026-07-02T16:15:48Z</time>
      </trkpt>
      <trkpt lat="53.778389990329742" lon="-9.426475977525115">
        <ele>58.299999999999997</ele>
        <time>2026-07-02T16:15:59Z</time>
      </trkpt>
      <trkpt lat="53.778585037216544" lon="-9.426394002512097">
        <ele>58.780000000000001</ele>
        <time>2026-07-02T16:16:05Z</time>
      </trkpt>
      <trkpt lat="53.778673969209194" lon="-9.426290988922119">
        <ele>59.259999999999998</ele>
        <time>2026-07-02T16:16:07Z</time>
      </trkpt>
      <trkpt lat="53.778670029714704" lon="-9.426214965060353">
        <ele>59.259999999999998</ele>
        <time>2026-07-02T16:16:08Z</time>
      </trkpt>
      <trkpt lat="53.77866399474442" lon="-9.426103988662362">
        <ele>59.259999999999998</ele>
        <time>2026-07-02T16:16:09Z</time>
      </trkpt>
      <trkpt lat="53.778657037764788" lon="-9.4259690400213">
        <ele>59.740000000000002</ele>
        <time>2026-07-02T16:16:10Z</time>
      </trkpt>
      <trkpt lat="53.778648991137743" lon="-9.425812968984246">
        <ele>59.740000000000002</ele>
        <time>2026-07-02T16:16:11Z</time>
      </trkpt>
      <trkpt lat="53.778658965602517" lon="-9.424055032432079">
        <ele>56.859999999999999</ele>
        <time>2026-07-02T16:16:19Z</time>
      </trkpt>
      <trkpt lat="53.77860096283257" lon="-9.420536980032921">
        <ele>56.369999999999997</ele>
        <time>2026-07-02T16:16:32Z</time>
      </trkpt>
      <trkpt lat="53.778328970074654" lon="-9.418529011309147">
        <ele>56.859999999999999</ele>
        <time>2026-07-02T16:16:39Z</time>
      </trkpt>
      <trkpt lat="53.77825696952641" lon="-9.41827897913754">
        <ele>56.859999999999999</ele>
        <time>2026-07-02T16:16:40Z</time>
      </trkpt>
      <trkpt lat="53.778164014220238" lon="-9.418032970279455">
        <ele>57.340000000000003</ele>
        <time>2026-07-02T16:16:41Z</time>
      </trkpt>
      <trkpt lat="53.776975041255355" lon="-9.416026007384062">
        <ele>57.340000000000003</ele>
        <time>2026-07-02T16:16:50Z</time>
      </trkpt>
      <trkpt lat="53.77647103741765" lon="-9.415214974433184">
        <ele>56.369999999999997</ele>
        <time>2026-07-02T16:16:54Z</time>
      </trkpt>
      <trkpt lat="53.776373974978924" lon="-9.414968965575099">
        <ele>55.890000000000001</ele>
        <time>2026-07-02T16:16:55Z</time>
      </trkpt>
      <trkpt lat="53.776276996359229" lon="-9.414723040536046">
        <ele>55.409999999999997</ele>
        <time>2026-07-02T16:16:56Z</time>
      </trkpt>
      <trkpt lat="53.776227962225676" lon="-9.414467979222536">
        <ele>55.409999999999997</ele>
        <time>2026-07-02T16:16:57Z</time>
      </trkpt>
      <trkpt lat="53.776190998032689" lon="-9.414191041141748">
        <ele>54.93</ele>
        <time>2026-07-02T16:16:58Z</time>
      </trkpt>
      <trkpt lat="53.776154033839703" lon="-9.413911001756787">
        <ele>54.93</ele>
        <time>2026-07-02T16:16:59Z</time>
      </trkpt>
      <trkpt lat="53.776140036061406" lon="-9.41361403092742">
        <ele>54.450000000000003</ele>
        <time>2026-07-02T16:17:00Z</time>
      </trkpt>
      <trkpt lat="53.776060994714499" lon="-9.410279039293528">
        <ele>54.93</ele>
        <time>2026-07-02T16:17:11Z</time>
      </trkpt>
      <trkpt lat="53.776313960552216" lon="-9.407551987096667">
        <ele>53.969999999999999</ele>
        <time>2026-07-02T16:17:20Z</time>
      </trkpt>
      <trkpt lat="53.776547983288765" lon="-9.405239000916481">
        <ele>54.450000000000003</ele>
        <time>2026-07-02T16:17:28Z</time>
      </trkpt>
      <trkpt lat="53.776539014652371" lon="-9.404929038137198">
        <ele>54.93</ele>
        <time>2026-07-02T16:17:29Z</time>
      </trkpt>
      <trkpt lat="53.776520993560553" lon="-9.40461203455925">
        <ele>55.409999999999997</ele>
        <time>2026-07-02T16:17:30Z</time>
      </trkpt>
      <trkpt lat="53.776316978037357" lon="-9.403435969725251">
        <ele>55.890000000000001</ele>
        <time>2026-07-02T16:17:34Z</time>
      </trkpt>
      <trkpt lat="53.776241037994623" lon="-9.4031329639256">
        <ele>55.890000000000001</ele>
        <time>2026-07-02T16:17:35Z</time>
      </trkpt>
      <trkpt lat="53.775249039754272" lon="-9.399464037269354">
        <ele>57.82</ele>
        <time>2026-07-02T16:17:47Z</time>
      </trkpt>
      <trkpt lat="53.774532973766327" lon="-9.397250041365624">
        <ele>54.450000000000003</ele>
        <time>2026-07-02T16:17:55Z</time>
      </trkpt>
      <trkpt lat="53.774299034848809" lon="-9.396508997306228">
        <ele>53.490000000000002</ele>
        <time>2026-07-02T16:17:58Z</time>
      </trkpt>
      <trkpt lat="53.774253018200397" lon="-9.396245973184705">
        <ele>53.490000000000002</ele>
        <time>2026-07-02T16:17:59Z</time>
      </trkpt>
      <trkpt lat="53.774118991568685" lon="-9.395479029044509">
        <ele>53.490000000000002</ele>
        <time>2026-07-02T16:18:02Z</time>
      </trkpt>
      <trkpt lat="53.774041961878538" lon="-9.395275013521314">
        <ele>53.490000000000002</ele>
        <time>2026-07-02T16:18:03Z</time>
      </trkpt>
      <trkpt lat="53.773952024057508" lon="-9.395086001604796">
        <ele>53.969999999999999</ele>
        <time>2026-07-02T16:18:04Z</time>
      </trkpt>
      <trkpt lat="53.773779021576047" lon="-9.394718036055565">
        <ele>54.450000000000003</ele>
        <time>2026-07-02T16:18:06Z</time>
      </trkpt>
      <trkpt lat="53.773708026856184" lon="-9.394527012482286">
        <ele>55.409999999999997</ele>
        <time>2026-07-02T16:18:07Z</time>
      </trkpt>
      <trkpt lat="53.773644994944334" lon="-9.394319979473949">
        <ele>56.369999999999997</ele>
        <time>2026-07-02T16:18:08Z</time>
      </trkpt>
      <trkpt lat="53.773226989433169" lon="-9.39294601790607">
        <ele>59.740000000000002</ele>
        <time>2026-07-02T16:18:14Z</time>
      </trkpt>
      <trkpt lat="53.772472031414509" lon="-9.391362005844712">
        <ele>59.259999999999998</ele>
        <time>2026-07-02T16:18:21Z</time>
      </trkpt>
      <trkpt lat="53.772272039204836" lon="-9.390864036977291">
        <ele>59.740000000000002</ele>
        <time>2026-07-02T16:18:23Z</time>
      </trkpt>
      <trkpt lat="53.772223005071282" lon="-9.390592966228724">
        <ele>59.740000000000002</ele>
        <time>2026-07-02T16:18:24Z</time>
      </trkpt>
      <trkpt lat="53.772173970937729" lon="-9.390320973470807">
        <ele>59.740000000000002</ele>
        <time>2026-07-02T16:18:25Z</time>
      </trkpt>
      <trkpt lat="53.772026030346751" lon="-9.389556040987372">
        <ele>60.700000000000003</ele>
        <time>2026-07-02T16:18:28Z</time>
      </trkpt>
      <trkpt lat="53.771950006484985" lon="-9.389327969402075">
        <ele>60.219999999999999</ele>
        <time>2026-07-02T16:18:29Z</time>
      </trkpt>
      <trkpt lat="53.771836012601852" lon="-9.389145998284221">
        <ele>59.740000000000002</ele>
        <time>2026-07-02T16:18:30Z</time>
      </trkpt>
      <trkpt lat="53.771710032597184" lon="-9.388963021337986">
        <ele>59.740000000000002</ele>
        <time>2026-07-02T16:18:31Z</time>
      </trkpt>
      <trkpt lat="53.771580029278994" lon="-9.388773003593087">
        <ele>59.259999999999998</ele>
        <time>2026-07-02T16:18:32Z</time>
      </trkpt>
      <trkpt lat="53.770528016611934" lon="-9.387236014008522">
        <ele>61.18</ele>
        <time>2026-07-02T16:18:40Z</time>
      </trkpt>
      <trkpt lat="53.768792962655425" lon="-9.384505022317171">
        <ele>59.740000000000002</ele>
        <time>2026-07-02T16:18:53Z</time>
      </trkpt>
      <trkpt lat="53.766924971714616" lon="-9.381590969860554">
        <ele>52.049999999999997</ele>
        <time>2026-07-02T16:19:06Z</time>
      </trkpt>
      <trkpt lat="53.765564002096653" lon="-9.379475964233279">
        <ele>51.090000000000003</ele>
        <time>2026-07-02T16:19:16Z</time>
      </trkpt>
      <trkpt lat="53.763834983110428" lon="-9.376862989738584">
        <ele>53.969999999999999</ele>
        <time>2026-07-02T16:19:29Z</time>
      </trkpt>
      <trkpt lat="53.762542996555567" lon="-9.374794000759721">
        <ele>55.409999999999997</ele>
        <time>2026-07-02T16:19:39Z</time>
      </trkpt>
      <trkpt lat="53.762446017935872" lon="-9.374528964981437">
        <ele>55.409999999999997</ele>
        <time>2026-07-02T16:19:40Z</time>
      </trkpt>
      <trkpt lat="53.762260023504496" lon="-9.373970981687307">
        <ele>54.93</ele>
        <time>2026-07-02T16:19:42Z</time>
      </trkpt>
      <trkpt lat="53.762137982994318" lon="-9.37371701002121">
        <ele>54.93</ele>
        <time>2026-07-02T16:19:43Z</time>
      </trkpt>
      <trkpt lat="53.761614030227065" lon="-9.372820984572172">
        <ele>53.969999999999999</ele>
        <time>2026-07-02T16:19:47Z</time>
      </trkpt>
      <trkpt lat="53.761478997766972" lon="-9.372638007625938">
        <ele>53.490000000000002</ele>
        <time>2026-07-02T16:19:48Z</time>
      </trkpt>
      <trkpt lat="53.760738959535956" lon="-9.372025039047003">
        <ele>53.490000000000002</ele>
        <time>2026-07-02T16:19:53Z</time>
      </trkpt>
      <trkpt lat="53.760613985359669" lon="-9.371847007423639">
        <ele>53.490000000000002</ele>
        <time>2026-07-02T16:19:54Z</time>
      </trkpt>
      <trkpt lat="53.760481970384717" lon="-9.371660007163882">
        <ele>53.490000000000002</ele>
        <time>2026-07-02T16:19:55Z</time>
      </trkpt>
      <trkpt lat="53.760045021772385" lon="-9.370851991698146">
        <ele>53.969999999999999</ele>
        <time>2026-07-02T16:20:00Z</time>
      </trkpt>
      <trkpt lat="53.759976960718632" lon="-9.370659040287137">
        <ele>54.450000000000003</ele>
        <time>2026-07-02T16:20:01Z</time>
      </trkpt>
      <trkpt lat="53.759939996525645" lon="-9.370441026985645">
        <ele>53.969999999999999</ele>
        <time>2026-07-02T16:20:02Z</time>
      </trkpt>
      <trkpt lat="53.75990797765553" lon="-9.37021697871387">
        <ele>53.969999999999999</ele>
        <time>2026-07-02T16:20:03Z</time>
      </trkpt>
      <trkpt lat="53.759875036776066" lon="-9.369986979290843">
        <ele>53.490000000000002</ele>
        <time>2026-07-02T16:20:04Z</time>
      </trkpt>
      <trkpt lat="53.759503969922662" lon="-9.367912039160729">
        <ele>53.969999999999999</ele>
        <time>2026-07-02T16:20:14Z</time>
      </trkpt>
      <trkpt lat="53.759337002411485" lon="-9.36740200035274">
        <ele>54.93</ele>
        <time>2026-07-02T16:20:17Z</time>
      </trkpt>
      <trkpt lat="53.759271036833525" lon="-9.367265040054917">
        <ele>54.93</ele>
        <time>2026-07-02T16:20:18Z</time>
      </trkpt>
      <trkpt lat="53.759195012971759" lon="-9.367164960131049">
        <ele>55.409999999999997</ele>
        <time>2026-07-02T16:20:19Z</time>
      </trkpt>
      <trkpt lat="53.759128963574767" lon="-9.367078961804509">
        <ele>55.409999999999997</ele>
        <time>2026-07-02T16:20:20Z</time>
      </trkpt>
      <trkpt lat="53.759075989946723" lon="-9.367009978741407">
        <ele>54.93</ele>
        <time>2026-07-02T16:20:21Z</time>
      </trkpt>
      <trkpt lat="53.759059980511665" lon="-9.366824990138412">
        <ele>54.93</ele>
        <time>2026-07-02T16:20:22Z</time>
      </trkpt>
      <trkpt lat="53.7590909935534" lon="-9.366729017347097">
        <ele>54.450000000000003</ele>
        <time>2026-07-02T16:20:23Z</time>
      </trkpt>
      <trkpt lat="53.759129969403148" lon="-9.366608988493681">
        <ele>54.450000000000003</ele>
        <time>2026-07-02T16:20:24Z</time>
      </trkpt>
      <trkpt lat="53.759174980223179" lon="-9.366472028195858">
        <ele>54.450000000000003</ele>
        <time>2026-07-02T16:20:25Z</time>
      </trkpt>
      <trkpt lat="53.759224014356732" lon="-9.366321992129087">
        <ele>54.450000000000003</ele>
        <time>2026-07-02T16:20:26Z</time>
      </trkpt>
      <trkpt lat="53.759816028177738" lon="-9.364769998937845">
        <ele>55.890000000000001</ele>
        <time>2026-07-02T16:20:36Z</time>
      </trkpt>
      <trkpt lat="53.760158009827137" lon="-9.363752016797662">
        <ele>55.890000000000001</ele>
        <time>2026-07-02T16:20:43Z</time>
      </trkpt>
      <trkpt lat="53.760233027860522" lon="-9.363628970459104">
        <ele>55.890000000000001</ele>
        <time>2026-07-02T16:20:44Z</time>
      </trkpt>
      <trkpt lat="53.760309973731637" lon="-9.363502990454435">
        <ele>55.890000000000001</ele>
        <time>2026-07-02T16:20:45Z</time>
      </trkpt>
      <trkpt lat="53.761330973356962" lon="-9.36202903278172">
        <ele>53.009999999999998</ele>
        <time>2026-07-02T16:20:57Z</time>
      </trkpt>
      <trkpt lat="53.762160027399659" lon="-9.360923040658236">
        <ele>49.649999999999999</ele>
        <time>2026-07-02T16:21:07Z</time>
      </trkpt>
      <trkpt lat="53.76246202737093" lon="-9.360250979661942">
        <ele>48.68</ele>
        <time>2026-07-02T16:21:11Z</time>
      </trkpt>
      <trkpt lat="53.762503014877439" lon="-9.360031960532069">
        <ele>48.68</ele>
        <time>2026-07-02T16:21:12Z</time>
      </trkpt>
      <trkpt lat="53.762544002383947" lon="-9.359809001907706">
        <ele>48.200000000000003</ele>
        <time>2026-07-02T16:21:13Z</time>
      </trkpt>
      <trkpt lat="53.762670988216996" lon="-9.359125038608909">
        <ele>47.719999999999999</ele>
        <time>2026-07-02T16:21:16Z</time>
      </trkpt>
      <trkpt lat="53.762840973213315" lon="-9.358481978997588">
        <ele>47.719999999999999</ele>
        <time>2026-07-02T16:21:19Z</time>
      </trkpt>
      <trkpt lat="53.762870980426669" lon="-9.358242005109787">
        <ele>46.759999999999998</ele>
        <time>2026-07-02T16:21:20Z</time>
      </trkpt>
      <trkpt lat="53.762881960719824" lon="-9.358004964888096">
        <ele>46.280000000000001</ele>
        <time>2026-07-02T16:21:21Z</time>
      </trkpt>
      <trkpt lat="53.76289302483201" lon="-9.357773037627339">
        <ele>45.799999999999997</ele>
        <time>2026-07-02T16:21:22Z</time>
      </trkpt>
      <trkpt lat="53.762904005125165" lon="-9.357548989355564">
        <ele>45.32</ele>
        <time>2026-07-02T16:21:23Z</time>
      </trkpt>
      <trkpt lat="53.76289302483201" lon="-9.357323013246059">
        <ele>45.32</ele>
        <time>2026-07-02T16:21:24Z</time>
      </trkpt>
      <trkpt lat="53.762877015396953" lon="-9.357112040743232">
        <ele>45.799999999999997</ele>
        <time>2026-07-02T16:21:25Z</time>
      </trkpt>
      <trkpt lat="53.762725973501801" lon="-9.355141958221793">
        <ele>42.439999999999998</ele>
        <time>2026-07-02T16:21:35Z</time>
      </trkpt>
      <trkpt lat="53.762649027630687" lon="-9.354055998846889">
        <ele>41.469999999999999</ele>
        <time>2026-07-02T16:21:40Z</time>
      </trkpt>
      <trkpt lat="53.762649027630687" lon="-9.353857012465596">
        <ele>40.990000000000002</ele>
        <time>2026-07-02T16:21:41Z</time>
      </trkpt>
      <trkpt lat="53.762649027630687" lon="-9.353660959750414">
        <ele>40.509999999999998</ele>
        <time>2026-07-02T16:21:42Z</time>
      </trkpt>
      <trkpt lat="53.762689009308815" lon="-9.35345702804625">
        <ele>40.030000000000001</ele>
        <time>2026-07-02T16:21:43Z</time>
      </trkpt>
      <trkpt lat="53.762756986543536" lon="-9.353267010301352">
        <ele>39.549999999999997</ele>
        <time>2026-07-02T16:21:44Z</time>
      </trkpt>
      <trkpt lat="53.76282999292016" lon="-9.353058971464634">
        <ele>38.590000000000003</ele>
        <time>2026-07-02T16:21:45Z</time>
      </trkpt>
      <trkpt lat="53.762909034267068" lon="-9.35283500701189">
        <ele>37.630000000000003</ele>
        <time>2026-07-02T16:21:46Z</time>
      </trkpt>
      <trkpt lat="53.763597020879388" lon="-9.350684965029359">
        <ele>33.299999999999997</ele>
        <time>2026-07-02T16:21:55Z</time>
      </trkpt>
      <trkpt lat="53.764371005818248" lon="-9.348218003287911">
        <ele>30.899999999999999</ele>
        <time>2026-07-02T16:22:06Z</time>
      </trkpt>
      <trkpt lat="53.76508598215878" lon="-9.345914991572499">
        <ele>28.02</ele>
        <time>2026-07-02T16:22:16Z</time>
      </trkpt>
      <trkpt lat="53.765284968540072" lon="-9.344584029167891">
        <ele>27.530000000000001</ele>
        <time>2026-07-02T16:22:22Z</time>
      </trkpt>
      <trkpt lat="53.765355963259935" lon="-9.344429969787598">
        <ele>27.530000000000001</ele>
        <time>2026-07-02T16:22:23Z</time>
      </trkpt>
      <trkpt lat="53.765430981293321" lon="-9.344287980347872">
        <ele>28.02</ele>
        <time>2026-07-02T16:22:24Z</time>
      </trkpt>
      <trkpt lat="53.765509016811848" lon="-9.344141967594624">
        <ele>28.5</ele>
        <time>2026-07-02T16:22:25Z</time>
      </trkpt>
      <trkpt lat="53.765587974339724" lon="-9.343991009518504">
        <ele>28.5</ele>
        <time>2026-07-02T16:22:26Z</time>
      </trkpt>
      <trkpt lat="53.765670033171773" lon="-9.343838039785624">
        <ele>28.98</ele>
        <time>2026-07-02T16:22:27Z</time>
      </trkpt>
      <trkpt lat="53.765821997076273" lon="-9.34355003759265">
        <ele>29.460000000000001</ele>
        <time>2026-07-02T16:22:29Z</time>
      </trkpt>
      <trkpt lat="53.76587999984622" lon="-9.343383992090821">
        <ele>29.940000000000001</ele>
        <time>2026-07-02T16:22:30Z</time>
      </trkpt>
      <trkpt lat="53.765909001231194" lon="-9.343191962689161">
        <ele>30.420000000000002</ele>
        <time>2026-07-02T16:22:31Z</time>
      </trkpt>
      <trkpt lat="53.765941020101309" lon="-9.342981996014714">
        <ele>30.420000000000002</ele>
        <time>2026-07-02T16:22:32Z</time>
      </trkpt>
      <trkpt lat="53.765973960980773" lon="-9.342759037390351">
        <ele>29.940000000000001</ele>
        <time>2026-07-02T16:22:33Z</time>
      </trkpt>
      <trkpt lat="53.766371011734009" lon="-9.340101974084973">
        <ele>25.129999999999999</ele>
        <time>2026-07-02T16:22:44Z</time>
      </trkpt>
      <trkpt lat="53.766384003683925" lon="-9.339678017422557">
        <ele>24.649999999999999</ele>
        <time>2026-07-02T16:22:46Z</time>
      </trkpt>
      <trkpt lat="53.766361037269235" lon="-9.339481964707375">
        <ele>24.170000000000002</ele>
        <time>2026-07-02T16:22:47Z</time>
      </trkpt>
      <trkpt lat="53.766336981207132" lon="-9.339283984154463">
        <ele>24.170000000000002</ele>
        <time>2026-07-02T16:22:48Z</time>
      </trkpt>
      <trkpt lat="53.766304962337017" lon="-9.339100001379848">
        <ele>24.170000000000002</ele>
        <time>2026-07-02T16:22:49Z</time>
      </trkpt>
      <trkpt lat="53.766231033951044" lon="-9.338928004726768">
        <ele>24.170000000000002</ele>
        <time>2026-07-02T16:22:50Z</time>
      </trkpt>
      <trkpt lat="53.766155010089278" lon="-9.338750978931785">
        <ele>24.170000000000002</ele>
        <time>2026-07-02T16:22:51Z</time>
      </trkpt>
      <trkpt lat="53.766056019812822" lon="-9.338609995320439">
        <ele>24.170000000000002</ele>
        <time>2026-07-02T16:22:52Z</time>
      </trkpt>
      <trkpt lat="53.765935990959406" lon="-9.338490972295404">
        <ele>24.649999999999999</ele>
        <time>2026-07-02T16:22:53Z</time>
      </trkpt>
      <trkpt lat="53.765801964327693" lon="-9.338446967303753">
        <ele>24.649999999999999</ele>
        <time>2026-07-02T16:22:54Z</time>
      </trkpt>
      <trkpt lat="53.765657963231206" lon="-9.338402962312102">
        <ele>25.129999999999999</ele>
        <time>2026-07-02T16:22:55Z</time>
      </trkpt>
      <trkpt lat="53.76551597379148" lon="-9.338359041139484">
        <ele>25.129999999999999</ele>
        <time>2026-07-02T16:22:56Z</time>
      </trkpt>
      <trkpt lat="53.765387982130051" lon="-9.338319981470704">
        <ele>25.129999999999999</ele>
        <time>2026-07-02T16:22:57Z</time>
      </trkpt>
      <trkpt lat="53.765279017388821" lon="-9.33828704059124">
        <ele>25.609999999999999</ele>
        <time>2026-07-02T16:22:58Z</time>
      </trkpt>
      <trkpt lat="53.765158988535404" lon="-9.338249992579222">
        <ele>25.609999999999999</ele>
        <time>2026-07-02T16:22:59Z</time>
      </trkpt>
      <trkpt lat="53.765112971886992" lon="-9.338133987039328">
        <ele>26.09</ele>
        <time>2026-07-02T16:23:00Z</time>
      </trkpt>
      <trkpt lat="53.765081958845258" lon="-9.337955033406615">
        <ele>26.09</ele>
        <time>2026-07-02T16:23:01Z</time>
      </trkpt>
      <trkpt lat="53.765098974108696" lon="-9.337806003168225">
        <ele>26.09</ele>
        <time>2026-07-02T16:23:02Z</time>
      </trkpt>
      <trkpt lat="53.765122024342418" lon="-9.337624032050371">
        <ele>26.09</ele>
        <time>2026-07-02T16:23:03Z</time>
      </trkpt>
      <trkpt lat="53.765168963000178" lon="-9.33742898516357">
        <ele>26.09</ele>
        <time>2026-07-02T16:23:04Z</time>
      </trkpt>
      <trkpt lat="53.765414971858263" lon="-9.33556099422276">
        <ele>24.649999999999999</ele>
        <time>2026-07-02T16:23:11Z</time>
      </trkpt>
      <trkpt lat="53.765587974339724" lon="-9.333564005792141">
        <ele>25.609999999999999</ele>
        <time>2026-07-02T16:23:18Z</time>
      </trkpt>
      <trkpt lat="53.765587974339724" lon="-9.333336018025875">
        <ele>25.609999999999999</ele>
        <time>2026-07-02T16:23:19Z</time>
      </trkpt>
      <trkpt lat="53.765561990439892" lon="-9.333071988075972">
        <ele>25.609999999999999</ele>
        <time>2026-07-02T16:23:20Z</time>
      </trkpt>
      <trkpt lat="53.765537012368441" lon="-9.332821033895016">
        <ele>25.609999999999999</ele>
        <time>2026-07-02T16:23:21Z</time>
      </trkpt>
      <trkpt lat="53.765512034296989" lon="-9.332568990066648">
        <ele>25.609999999999999</ele>
        <time>2026-07-02T16:23:22Z</time>
      </trkpt>
      <trkpt lat="53.765428969636559" lon="-9.330300008878112">
        <ele>27.530000000000001</ele>
        <time>2026-07-02T16:23:31Z</time>
      </trkpt>
      <trkpt lat="53.765322016552091" lon="-9.32855598628521">
        <ele>30.420000000000002</ele>
        <time>2026-07-02T16:23:39Z</time>
      </trkpt>
      <trkpt lat="53.764928989112377" lon="-9.325807979330421">
        <ele>30.899999999999999</ele>
        <time>2026-07-02T16:23:51Z</time>
      </trkpt>
      <trkpt lat="53.764936029911041" lon="-9.325574040412903">
        <ele>30.420000000000002</ele>
        <time>2026-07-02T16:23:52Z</time>
      </trkpt>
      <trkpt lat="53.764943992719054" lon="-9.325329037383199">
        <ele>30.420000000000002</ele>
        <time>2026-07-02T16:23:53Z</time>
      </trkpt>
      <trkpt lat="53.765110960230231" lon="-9.322712039574981">
        <ele>30.899999999999999</ele>
        <time>2026-07-02T16:24:03Z</time>
      </trkpt>
      <trkpt lat="53.765259990468621" lon="-9.319888008758426">
        <ele>31.379999999999999</ele>
        <time>2026-07-02T16:24:14Z</time>
      </trkpt>
      <trkpt lat="53.765225037932396" lon="-9.319147970527411">
        <ele>31.379999999999999</ele>
        <time>2026-07-02T16:24:17Z</time>
      </trkpt>
      <trkpt lat="53.764843996614218" lon="-9.316957024857402">
        <ele>28.02</ele>
        <time>2026-07-02T16:24:26Z</time>
      </trkpt>
      <trkpt lat="53.764673005789518" lon="-9.316284041851759">
        <ele>27.050000000000001</ele>
        <time>2026-07-02T16:24:29Z</time>
      </trkpt>
      <trkpt lat="53.764576027169824" lon="-9.316143980249763">
        <ele>27.050000000000001</ele>
        <time>2026-07-02T16:24:30Z</time>
      </trkpt>
      <trkpt lat="53.764475025236607" lon="-9.316018000245094">
        <ele>27.530000000000001</ele>
        <time>2026-07-02T16:24:31Z</time>
      </trkpt>
      <trkpt lat="53.764371005818248" lon="-9.315889002755284">
        <ele>27.530000000000001</ele>
        <time>2026-07-02T16:24:32Z</time>
      </trkpt>
      <trkpt lat="53.764263968914747" lon="-9.315754976123571">
        <ele>27.050000000000001</ele>
        <time>2026-07-02T16:24:33Z</time>
      </trkpt>
      <trkpt lat="53.763367021456361" lon="-9.314635992050171">
        <ele>26.57</ele>
        <time>2026-07-02T16:24:41Z</time>
      </trkpt>
      <trkpt lat="53.7623789627105" lon="-9.313359009101987">
        <ele>28.98</ele>
        <time>2026-07-02T16:24:51Z</time>
      </trkpt>
      <trkpt lat="53.76229003071785" lon="-9.313227999955416">
        <ele>29.460000000000001</ele>
        <time>2026-07-02T16:24:52Z</time>
      </trkpt>
      <trkpt lat="53.762223981320858" lon="-9.313077963888645">
        <ele>29.940000000000001</ele>
        <time>2026-07-02T16:24:53Z</time>
      </trkpt>
      <trkpt lat="53.76216203905642" lon="-9.312901021912694">
        <ele>30.899999999999999</ele>
        <time>2026-07-02T16:24:54Z</time>
      </trkpt>
      <trkpt lat="53.762106969952583" lon="-9.312723996117711">
        <ele>30.899999999999999</ele>
        <time>2026-07-02T16:24:55Z</time>
      </trkpt>
      <trkpt lat="53.762076962739229" lon="-9.312521992251277">
        <ele>31.379999999999999</ele>
        <time>2026-07-02T16:24:56Z</time>
      </trkpt>
      <trkpt lat="53.762049973011017" lon="-9.312338009476662">
        <ele>31.859999999999999</ele>
        <time>2026-07-02T16:24:57Z</time>
      </trkpt>
      <trkpt lat="53.762030024081469" lon="-9.312170036137104">
        <ele>32.340000000000003</ele>
        <time>2026-07-02T16:24:58Z</time>
      </trkpt>
      <trkpt lat="53.762079980224371" lon="-9.312046989798546">
        <ele>32.340000000000003</ele>
        <time>2026-07-02T16:24:59Z</time>
      </trkpt>
      <trkpt lat="53.762133037671447" lon="-9.311917992308736">
        <ele>32.82</ele>
        <time>2026-07-02T16:25:00Z</time>
      </trkpt>
      <trkpt lat="53.762187017127872" lon="-9.311782959848642">
        <ele>32.82</ele>
        <time>2026-07-02T16:25:01Z</time>
      </trkpt>
      <trkpt lat="53.762248959392309" lon="-9.311630995944142">
        <ele>32.340000000000003</ele>
        <time>2026-07-02T16:25:02Z</time>
      </trkpt>
      <trkpt lat="53.762308973819017" lon="-9.311455981805921">
        <ele>31.859999999999999</ele>
        <time>2026-07-02T16:25:03Z</time>
      </trkpt>
      <trkpt lat="53.762331018224359" lon="-9.311251966282725">
        <ele>31.859999999999999</ele>
        <time>2026-07-02T16:25:04Z</time>
      </trkpt>
      <trkpt lat="53.762353984639049" lon="-9.311035964637995">
        <ele>31.379999999999999</ele>
        <time>2026-07-02T16:25:05Z</time>
      </trkpt>
      <trkpt lat="53.762378040701151" lon="-9.310814011842012">
        <ele>31.379999999999999</ele>
        <time>2026-07-02T16:25:06Z</time>
      </trkpt>
      <trkpt lat="53.762553976848722" lon="-9.309350028634071">
        <ele>31.379999999999999</ele>
        <time>2026-07-02T16:25:12Z</time>
      </trkpt>
      <trkpt lat="53.762611979618669" lon="-9.309136038646102">
        <ele>31.859999999999999</ele>
        <time>2026-07-02T16:25:13Z</time>
      </trkpt>
      <trkpt lat="53.76272002235055" lon="-9.308735970407724">
        <ele>32.82</ele>
        <time>2026-07-02T16:25:15Z</time>
      </trkpt>
      <trkpt lat="53.762722034007311" lon="-9.308546958491206">
        <ele>33.299999999999997</ele>
        <time>2026-07-02T16:25:16Z</time>
      </trkpt>
      <trkpt lat="53.762707030400634" lon="-9.30838099680841">
        <ele>33.299999999999997</ele>
        <time>2026-07-02T16:25:17Z</time>
      </trkpt>
      <trkpt lat="53.762692026793957" lon="-9.30821000598371">
        <ele>34.259999999999998</ele>
        <time>2026-07-02T16:25:18Z</time>
      </trkpt>
      <trkpt lat="53.762630000710487" lon="-9.308053012937307">
        <ele>34.259999999999998</ele>
        <time>2026-07-02T16:25:19Z</time>
      </trkpt>
      <trkpt lat="53.762561017647386" lon="-9.307880010455847">
        <ele>34.740000000000002</ele>
        <time>2026-07-02T16:25:20Z</time>
      </trkpt>
      <trkpt lat="53.761894991621375" lon="-9.306386020034552">
        <ele>32.82</ele>
        <time>2026-07-02T16:25:28Z</time>
      </trkpt>
      <trkpt lat="53.761828020215034" lon="-9.306193990632892">
        <ele>32.82</ele>
        <time>2026-07-02T16:25:29Z</time>
      </trkpt>
      <trkpt lat="53.761809999123216" lon="-9.305989975109696">
        <ele>32.82</ele>
        <time>2026-07-02T16:25:30Z</time>
      </trkpt>
      <trkpt lat="53.761791978031397" lon="-9.305788977071643">
        <ele>32.82</ele>
        <time>2026-07-02T16:25:31Z</time>
      </trkpt>
      <trkpt lat="53.761775968596339" lon="-9.305602982640266">
        <ele>32.82</ele>
        <time>2026-07-02T16:25:32Z</time>
      </trkpt>
      <trkpt lat="53.761772029101849" lon="-9.305431991815567">
        <ele>32.82</ele>
        <time>2026-07-02T16:25:33Z</time>
      </trkpt>
      <trkpt lat="53.761775968596339" lon="-9.305283967405558">
        <ele>32.340000000000003</ele>
        <time>2026-07-02T16:25:34Z</time>
      </trkpt>
      <trkpt lat="53.761784015223384" lon="-9.305017003789544">
        <ele>31.379999999999999</ele>
        <time>2026-07-02T16:25:39Z</time>
      </trkpt>
      <trkpt lat="53.761785021051764" lon="-9.304990014061332">
        <ele>30.899999999999999</ele>
        <time>2026-07-02T16:25:41Z</time>
      </trkpt>
      <trkpt lat="53.761786026880145" lon="-9.304962018504739">
        <ele>30.899999999999999</ele>
        <time>2026-07-02T16:25:42Z</time>
      </trkpt>
      <trkpt lat="53.761787032708526" lon="-9.304920025169849">
        <ele>30.899999999999999</ele>
        <time>2026-07-02T16:25:43Z</time>
      </trkpt>
      <trkpt lat="53.76173498108983" lon="-9.304819023236632">
        <ele>30.420000000000002</ele>
        <time>2026-07-02T16:25:44Z</time>
      </trkpt>
      <trkpt lat="53.761673960834742" lon="-9.304819023236632">
        <ele>30.420000000000002</ele>
        <time>2026-07-02T16:25:45Z</time>
      </trkpt>
      <trkpt lat="53.761597014963627" lon="-9.304819023236632">
        <ele>29.940000000000001</ele>
        <time>2026-07-02T16:25:46Z</time>
      </trkpt>
      <trkpt lat="53.761502970010042" lon="-9.304808964952827">
        <ele>29.940000000000001</ele>
        <time>2026-07-02T16:25:47Z</time>
      </trkpt>
      <trkpt lat="53.761400962248445" lon="-9.304793039336801">
        <ele>29.940000000000001</ele>
        <time>2026-07-02T16:25:48Z</time>
      </trkpt>
      <trkpt lat="53.760350039228797" lon="-9.304429013282061">
        <ele>30.420000000000002</ele>
        <time>2026-07-02T16:25:56Z</time>
      </trkpt>
      <trkpt lat="53.758879015222192" lon="-9.303663996979594">
        <ele>31.379999999999999</ele>
        <time>2026-07-02T16:26:06Z</time>
      </trkpt>
      <trkpt lat="53.7573710270226" lon="-9.302851036190987">
        <ele>32.82</ele>
        <time>2026-07-02T16:26:17Z</time>
      </trkpt>
      <trkpt lat="53.755901008844376" lon="-9.302232032641769">
        <ele>31.379999999999999</ele>
        <time>2026-07-02T16:26:26Z</time>
      </trkpt>
      <trkpt lat="53.755730018019676" lon="-9.302163971588016">
        <ele>31.379999999999999</ele>
        <time>2026-07-02T16:26:27Z</time>
      </trkpt>
      <trkpt lat="53.75391298905015" lon="-9.301409013569355">
        <ele>28.5</ele>
        <time>2026-07-02T16:26:37Z</time>
      </trkpt>
      <trkpt lat="53.751876018941402" lon="-9.300525980070233">
        <ele>28.02</ele>
        <time>2026-07-02T16:26:47Z</time>
      </trkpt>
      <trkpt lat="53.749223984777927" lon="-9.299352010712028">
        <ele>31.859999999999999</ele>
        <time>2026-07-02T16:27:00Z</time>
      </trkpt>
      <trkpt lat="53.747118031606078" lon="-9.298681961372495">
        <ele>33.299999999999997</ele>
        <time>2026-07-02T16:27:11Z</time>
      </trkpt>
      <trkpt lat="53.744638999924064" lon="-9.298247024416924">
        <ele>33.299999999999997</ele>
        <time>2026-07-02T16:27:23Z</time>
      </trkpt>
      <trkpt lat="53.742305980995297" lon="-9.297751989215612">
        <ele>32.82</ele>
        <time>2026-07-02T16:27:34Z</time>
      </trkpt>
      <trkpt lat="53.739195037633181" lon="-9.297086969017983">
        <ele>32.340000000000003</ele>
        <time>2026-07-02T16:27:48Z</time>
      </trkpt>
      <trkpt lat="53.735600039362907" lon="-9.296313989907503">
        <ele>32.340000000000003</ele>
        <time>2026-07-02T16:28:03Z</time>
      </trkpt>
      <trkpt lat="53.732604011893272" lon="-9.295513015240431">
        <ele>32.340000000000003</ele>
        <time>2026-07-02T16:28:16Z</time>
      </trkpt>
      <trkpt lat="53.729919036850333" lon="-9.294908009469509">
        <ele>34.259999999999998</ele>
        <time>2026-07-02T16:28:28Z</time>
      </trkpt>
      <trkpt lat="53.727310001850128" lon="-9.294333010911942">
        <ele>34.259999999999998</ele>
        <time>2026-07-02T16:28:39Z</time>
      </trkpt>
      <trkpt lat="53.724208027124405" lon="-9.292446998879314">
        <ele>31.859999999999999</ele>
        <time>2026-07-02T16:28:53Z</time>
      </trkpt>
      <trkpt lat="53.722275998443365" lon="-9.291049987077713">
        <ele>28.98</ele>
        <time>2026-07-02T16:29:02Z</time>
      </trkpt>
      <trkpt lat="53.719981033354998" lon="-9.29018103517592">
        <ele>24.649999999999999</ele>
        <time>2026-07-02T16:29:12Z</time>
      </trkpt>
      <trkpt lat="53.718306999653578" lon="-9.288795003667474">
        <ele>24.170000000000002</ele>
        <time>2026-07-02T16:29:20Z</time>
      </trkpt>
      <trkpt lat="53.716927003115416" lon="-9.287896966561675">
        <ele>24.170000000000002</ele>
        <time>2026-07-02T16:29:27Z</time>
      </trkpt>
      <trkpt lat="53.715264033526182" lon="-9.287211997434497">
        <ele>23.210000000000001</ele>
        <time>2026-07-02T16:29:36Z</time>
      </trkpt>
      <trkpt lat="53.713322030380368" lon="-9.28610198199749">
        <ele>22.73</ele>
        <time>2026-07-02T16:29:46Z</time>
      </trkpt>
      <trkpt lat="53.711927030235529" lon="-9.284311020746827">
        <ele>22.25</ele>
        <time>2026-07-02T16:29:54Z</time>
      </trkpt>
      <trkpt lat="53.710719030350447" lon="-9.283421030268073">
        <ele>21.289999999999999</ele>
        <time>2026-07-02T16:30:00Z</time>
      </trkpt>
      <trkpt lat="53.709254041314125" lon="-9.282680992037058">
        <ele>23.690000000000001</ele>
        <time>2026-07-02T16:30:08Z</time>
      </trkpt>
      <trkpt lat="53.707622000947595" lon="-9.282220993191004">
        <ele>27.050000000000001</ele>
        <time>2026-07-02T16:30:18Z</time>
      </trkpt>
      <trkpt lat="53.705221004784107" lon="-9.281736016273499">
        <ele>29.940000000000001</ele>
        <time>2026-07-02T16:30:31Z</time>
      </trkpt>
      <trkpt lat="53.703444041311741" lon="-9.281352963298559">
        <ele>31.379999999999999</ele>
        <time>2026-07-02T16:30:41Z</time>
      </trkpt>
      <trkpt lat="53.701284024864435" lon="-9.280633963644505">
        <ele>31.379999999999999</ele>
        <time>2026-07-02T16:30:53Z</time>
      </trkpt>
      <trkpt lat="53.699787016957998" lon="-9.27984899841249">
        <ele>28.98</ele>
        <time>2026-07-02T16:31:03Z</time>
      </trkpt>
      <trkpt lat="53.698208034038544" lon="-9.279090017080307">
        <ele>26.57</ele>
        <time>2026-07-02T16:31:15Z</time>
      </trkpt>
      <trkpt lat="53.696413971483707" lon="-9.278124002739787">
        <ele>27.530000000000001</ele>
        <time>2026-07-02T16:31:28Z</time>
      </trkpt>
      <trkpt lat="53.694490995258093" lon="-9.276993032544851">
        <ele>28.02</ele>
        <time>2026-07-02T16:31:41Z</time>
      </trkpt>
      <trkpt lat="53.692748984321952" lon="-9.276085020974279">
        <ele>27.050000000000001</ele>
        <time>2026-07-02T16:31:53Z</time>
      </trkpt>
      <trkpt lat="53.690903037786484" lon="-9.275296032428742">
        <ele>30.420000000000002</ele>
        <time>2026-07-02T16:32:05Z</time>
      </trkpt>
      <trkpt lat="53.68857798166573" lon="-9.274429008364677">
        <ele>27.530000000000001</ele>
        <time>2026-07-02T16:32:18Z</time>
      </trkpt>
      <trkpt lat="53.6859530210495" lon="-9.273491995409131">
        <ele>25.609999999999999</ele>
        <time>2026-07-02T16:32:32Z</time>
      </trkpt>
      <trkpt lat="53.683445993810892" lon="-9.272597981616855">
        <ele>26.09</ele>
        <time>2026-07-02T16:32:45Z</time>
      </trkpt>
      <trkpt lat="53.681435007601976" lon="-9.271861966699362">
        <ele>24.649999999999999</ele>
        <time>2026-07-02T16:32:56Z</time>
      </trkpt>
      <trkpt lat="53.679183041676879" lon="-9.271009024232626">
        <ele>25.609999999999999</ele>
        <time>2026-07-02T16:33:09Z</time>
      </trkpt>
      <trkpt lat="53.678637966513634" lon="-9.270775001496077">
        <ele>24.649999999999999</ele>
        <time>2026-07-02T16:33:15Z</time>
      </trkpt>
      <trkpt lat="53.67858599871397" lon="-9.270749017596245">
        <ele>24.649999999999999</ele>
        <time>2026-07-02T16:33:16Z</time>
      </trkpt>
      <trkpt lat="53.678547022864223" lon="-9.270728984847665">
        <ele>24.649999999999999</ele>
        <time>2026-07-02T16:33:17Z</time>
      </trkpt>
      <trkpt lat="53.678521038964391" lon="-9.270715992897749">
        <ele>24.649999999999999</ele>
        <time>2026-07-02T16:33:18Z</time>
      </trkpt>
      <trkpt lat="53.678507041186094" lon="-9.270709035918117">
        <ele>24.649999999999999</ele>
        <time>2026-07-02T16:33:19Z</time>
      </trkpt>
      <trkpt lat="53.678497988730669" lon="-9.270705012604594">
        <ele>24.649999999999999</ele>
        <time>2026-07-02T16:33:20Z</time>
      </trkpt>
      <trkpt lat="53.678484996780753" lon="-9.27069797180593">
        <ele>24.649999999999999</ele>
        <time>2026-07-02T16:33:21Z</time>
      </trkpt>
      <trkpt lat="53.678484996780753" lon="-9.27069797180593">
        <ele>24.649999999999999</ele>
        <time>2026-07-02T16:33:22Z</time>
      </trkpt>
      <trkpt lat="53.678484996780753" lon="-9.27069797180593">
        <ele>23.210000000000001</ele>
        <time>2026-07-02T16:33:36Z</time>
      </trkpt>
      <trkpt lat="53.678484996780753" lon="-9.27069797180593">
        <ele>22.73</ele>
        <time>2026-07-02T16:34:22Z</time>
      </trkpt>
      <trkpt lat="53.678484996780753" lon="-9.27069797180593">
        <ele>23.210000000000001</ele>
        <time>2026-07-02T16:35:10Z</time>
      </trkpt>
      <trkpt lat="53.678484996780753" lon="-9.27069797180593">
        <ele>23.210000000000001</ele>
        <time>2026-07-02T16:36:12Z</time>
      </trkpt>
      <trkpt lat="53.678398998454213" lon="-9.270876003429294">
        <ele>2.54</ele>
        <time>2026-07-02T19:09:11Z</time>
      </trkpt>
      <trkpt lat="53.67841400206089" lon="-9.270806014537811">
        <ele>25.609999999999999</ele>
        <time>2026-07-02T19:09:54Z</time>
      </trkpt>
      <trkpt lat="53.678416013717651" lon="-9.270842978730798">
        <ele>28.02</ele>
        <time>2026-07-02T19:10:58Z</time>
      </trkpt>
      <trkpt lat="53.678419031202793" lon="-9.270835015922785">
        <ele>27.530000000000001</ele>
        <time>2026-07-02T19:11:50Z</time>
      </trkpt>
      <trkpt lat="53.67841299623251" lon="-9.270830992609263">
        <ele>27.530000000000001</ele>
        <time>2026-07-02T19:12:42Z</time>
      </trkpt>
      <trkpt lat="53.678397992625833" lon="-9.270822023972869">
        <ele>27.530000000000001</ele>
        <time>2026-07-02T19:13:02Z</time>
      </trkpt>
      <trkpt lat="53.678421964868903" lon="-9.270666958764195">
        <ele>26.09</ele>
        <time>2026-07-02T19:13:07Z</time>
      </trkpt>
      <trkpt lat="53.678447026759386" lon="-9.270679028704763">
        <ele>26.09</ele>
        <time>2026-07-02T19:13:08Z</time>
      </trkpt>
      <trkpt lat="53.678478039801121" lon="-9.27069403231144">
        <ele>25.609999999999999</ele>
        <time>2026-07-02T19:13:09Z</time>
      </trkpt>
      <trkpt lat="53.678505029529333" lon="-9.270708030089736">
        <ele>25.609999999999999</ele>
        <time>2026-07-02T19:13:10Z</time>
      </trkpt>
      <trkpt lat="53.678529001772404" lon="-9.270720016211271">
        <ele>25.129999999999999</ele>
        <time>2026-07-02T19:13:11Z</time>
      </trkpt>
      <trkpt lat="53.678552974015474" lon="-9.270732002332807">
        <ele>25.129999999999999</ele>
        <time>2026-07-02T19:13:12Z</time>
      </trkpt>
      <trkpt lat="53.678604019805789" lon="-9.270757986232638">
        <ele>25.129999999999999</ele>
        <time>2026-07-02T19:13:14Z</time>
      </trkpt>
      <trkpt lat="53.678622962906957" lon="-9.270767038688064">
        <ele>25.129999999999999</ele>
        <time>2026-07-02T19:13:15Z</time>
      </trkpt>
      <trkpt lat="53.67865095846355" lon="-9.27078103646636">
        <ele>24.649999999999999</ele>
        <time>2026-07-02T19:13:22Z</time>
      </trkpt>
      <trkpt lat="53.678706027567387" lon="-9.270809032022953">
        <ele>24.649999999999999</ele>
        <time>2026-07-02T19:13:23Z</time>
      </trkpt>
      <trkpt lat="53.678751960396767" lon="-9.270827975124121">
        <ele>25.129999999999999</ele>
        <time>2026-07-02T19:13:24Z</time>
      </trkpt>
      <trkpt lat="53.679501973092556" lon="-9.271142967045307">
        <ele>24.649999999999999</ele>
        <time>2026-07-02T19:13:29Z</time>
      </trkpt>
      <trkpt lat="53.680920023471117" lon="-9.271679995581508">
        <ele>25.129999999999999</ele>
        <time>2026-07-02T19:13:37Z</time>
      </trkpt>
      <trkpt lat="53.682406973093748" lon="-9.272215012460947">
        <ele>25.129999999999999</ele>
        <time>2026-07-02T19:13:44Z</time>
      </trkpt>
      <trkpt lat="53.684941995888948" lon="-9.273134004324675">
        <ele>26.57</ele>
        <time>2026-07-02T19:13:57Z</time>
      </trkpt>
      <trkpt lat="53.687359001487494" lon="-9.273988958448172">
        <ele>28.98</ele>
        <time>2026-07-02T19:14:10Z</time>
      </trkpt>
      <trkpt lat="53.689694032073021" lon="-9.274877021089196">
        <ele>31.859999999999999</ele>
        <time>2026-07-02T19:14:23Z</time>
      </trkpt>
      <trkpt lat="53.69171398691833" lon="-9.275587974116206">
        <ele>32.82</ele>
        <time>2026-07-02T19:14:35Z</time>
      </trkpt>
      <trkpt lat="53.693469995632768" lon="-9.27643496543169">
        <ele>28.5</ele>
        <time>2026-07-02T19:14:46Z</time>
      </trkpt>
      <trkpt lat="53.695453992113471" lon="-9.277560990303755">
        <ele>28.98</ele>
        <time>2026-07-02T19:14:59Z</time>
      </trkpt>
      <trkpt lat="53.697171024978161" lon="-9.27855902351439">
        <ele>30.899999999999999</ele>
        <time>2026-07-02T19:15:11Z</time>
      </trkpt>
      <trkpt lat="53.698407020419836" lon="-9.279189007356763">
        <ele>32.340000000000003</ele>
        <time>2026-07-02T19:15:21Z</time>
      </trkpt>
      <trkpt lat="53.698724023997784" lon="-9.279348012059927">
        <ele>31.859999999999999</ele>
        <time>2026-07-02T19:15:25Z</time>
      </trkpt>
      <trkpt lat="53.698811028152704" lon="-9.27943903952837">
        <ele>30.899999999999999</ele>
        <time>2026-07-02T19:15:27Z</time>
      </trkpt>
      <trkpt lat="53.698808010667562" lon="-9.279537023976445">
        <ele>30.899999999999999</ele>
        <time>2026-07-02T19:15:28Z</time>
      </trkpt>
      <trkpt lat="53.698804993182421" lon="-9.279659986495972">
        <ele>30.420000000000002</ele>
        <time>2026-07-02T19:15:29Z</time>
      </trkpt>
      <trkpt lat="53.698800969868898" lon="-9.279811028391123">
        <ele>30.420000000000002</ele>
        <time>2026-07-02T19:15:30Z</time>
      </trkpt>
      <trkpt lat="53.698797030374408" lon="-9.279986964538693">
        <ele>29.940000000000001</ele>
        <time>2026-07-02T19:15:31Z</time>
      </trkpt>
      <trkpt lat="53.698715977370739" lon="-9.281983030959964">
        <ele>28.5</ele>
        <time>2026-07-02T19:15:40Z</time>
      </trkpt>
      <trkpt lat="53.698812033981085" lon="-9.283107966184616">
        <ele>26.57</ele>
        <time>2026-07-02T19:15:44Z</time>
      </trkpt>
      <trkpt lat="53.698904989287257" lon="-9.285361021757126">
        <ele>22.25</ele>
        <time>2026-07-02T19:15:53Z</time>
      </trkpt>
      <trkpt lat="53.699202965945005" lon="-9.289071019738913">
        <ele>19.84</ele>
        <time>2026-07-02T19:16:08Z</time>
      </trkpt>
      <trkpt lat="53.699377980083227" lon="-9.290858041495085">
        <ele>19.84</ele>
        <time>2026-07-02T19:16:14Z</time>
      </trkpt>
      <trkpt lat="53.699432965368032" lon="-9.291102038696408">
        <ele>19.84</ele>
        <time>2026-07-02T19:16:15Z</time>
      </trkpt>
      <trkpt lat="53.699581995606422" lon="-9.291562037542462">
        <ele>19.84</ele>
        <time>2026-07-02T19:16:17Z</time>
      </trkpt>
      <trkpt lat="53.700068984180689" lon="-9.292581025511026">
        <ele>21.77</ele>
        <time>2026-07-02T19:16:22Z</time>
      </trkpt>
      <trkpt lat="53.700185995548964" lon="-9.292760984972119">
        <ele>22.25</ele>
        <time>2026-07-02T19:16:23Z</time>
      </trkpt>
      <trkpt lat="53.700326979160309" lon="-9.29289098829031">
        <ele>22.25</ele>
        <time>2026-07-02T19:16:24Z</time>
      </trkpt>
      <trkpt lat="53.700470980256796" lon="-9.293021997436881">
        <ele>22.73</ele>
        <time>2026-07-02T19:16:25Z</time>
      </trkpt>
      <trkpt lat="53.700628979131579" lon="-9.293141020461917">
        <ele>22.73</ele>
        <time>2026-07-02T19:16:26Z</time>
      </trkpt>
      <trkpt lat="53.702203016728163" lon="-9.294294035062194">
        <ele>22.25</ele>
        <time>2026-07-02T19:16:36Z</time>
      </trkpt>
      <trkpt lat="53.703921977430582" lon="-9.295478984713554">
        <ele>22.25</ele>
        <time>2026-07-02T19:16:47Z</time>
      </trkpt>
      <trkpt lat="53.70550598949194" lon="-9.296621019020677">
        <ele>23.690000000000001</ele>
        <time>2026-07-02T19:16:57Z</time>
      </trkpt>
      <trkpt lat="53.705626018345356" lon="-9.296799972653389">
        <ele>24.170000000000002</ele>
        <time>2026-07-02T19:16:58Z</time>
      </trkpt>
      <trkpt lat="53.705734983086586" lon="-9.296965012326837">
        <ele>24.170000000000002</ele>
        <time>2026-07-02T19:16:59Z</time>
      </trkpt>
      <trkpt lat="53.705826010555029" lon="-9.297138014808297">
        <ele>24.170000000000002</ele>
        <time>2026-07-02T19:17:00Z</time>
      </trkpt>
      <trkpt lat="53.705885019153357" lon="-9.297350998967886">
        <ele>24.170000000000002</ele>
        <time>2026-07-02T19:17:01Z</time>
      </trkpt>
      <trkpt lat="53.705958025529981" lon="-9.297608993947506">
        <ele>24.170000000000002</ele>
        <time>2026-07-02T19:17:02Z</time>
      </trkpt>
      <trkpt lat="53.705989960581064" lon="-9.297817032784224">
        <ele>24.170000000000002</ele>
        <time>2026-07-02T19:17:03Z</time>
      </trkpt>
      <trkpt lat="53.706030026078224" lon="-9.298074021935463">
        <ele>23.690000000000001</ele>
        <time>2026-07-02T19:17:04Z</time>
      </trkpt>
      <trkpt lat="53.706112001091242" lon="-9.298596968874335">
        <ele>23.210000000000001</ele>
        <time>2026-07-02T19:17:06Z</time>
      </trkpt>
      <trkpt lat="53.706176960840821" lon="-9.298847001045942">
        <ele>23.210000000000001</ele>
        <time>2026-07-02T19:17:07Z</time>
      </trkpt>
      <trkpt lat="53.706535035744309" lon="-9.299736991524696">
        <ele>24.170000000000002</ele>
        <time>2026-07-02T19:17:11Z</time>
      </trkpt>
      <trkpt lat="53.706757994368672" lon="-9.300129013136029">
        <ele>24.170000000000002</ele>
        <time>2026-07-02T19:17:13Z</time>
      </trkpt>
      <trkpt lat="53.706883974373341" lon="-9.300307966768742">
        <ele>24.170000000000002</ele>
        <time>2026-07-02T19:17:14Z</time>
      </trkpt>
      <trkpt lat="53.707237020134926" lon="-9.300808031111956">
        <ele>22.73</ele>
        <time>2026-07-02T19:17:17Z</time>
      </trkpt>
      <trkpt lat="53.707328969612718" lon="-9.300982961431146">
        <ele>22.73</ele>
        <time>2026-07-02T19:17:18Z</time>
      </trkpt>
      <trkpt lat="53.707416979596019" lon="-9.301170967519283">
        <ele>22.73</ele>
        <time>2026-07-02T19:17:19Z</time>
      </trkpt>
      <trkpt lat="53.707465007901192" lon="-9.30139702744782">
        <ele>22.25</ele>
        <time>2026-07-02T19:17:20Z</time>
      </trkpt>
      <trkpt lat="53.707515969872475" lon="-9.301638007164002">
        <ele>22.25</ele>
        <time>2026-07-02T19:17:21Z</time>
      </trkpt>
      <trkpt lat="53.707776982337236" lon="-9.303284967318177">
        <ele>22.25</ele>
        <time>2026-07-02T19:17:28Z</time>
      </trkpt>
      <trkpt lat="53.707829033955932" lon="-9.30350398644805">
        <ele>21.77</ele>
        <time>2026-07-02T19:17:29Z</time>
      </trkpt>
      <trkpt lat="53.707917965948582" lon="-9.303700961172581">
        <ele>21.289999999999999</ele>
        <time>2026-07-02T19:17:30Z</time>
      </trkpt>
      <trkpt lat="53.708027014508843" lon="-9.303889973089099">
        <ele>20.809999999999999</ele>
        <time>2026-07-02T19:17:31Z</time>
      </trkpt>
      <trkpt lat="53.708140002563596" lon="-9.304087031632662">
        <ele>20.32</ele>
        <time>2026-07-02T19:17:32Z</time>
      </trkpt>
      <trkpt lat="53.709139041602612" lon="-9.306102963164449">
        <ele>20.32</ele>
        <time>2026-07-02T19:17:41Z</time>
      </trkpt>
      <trkpt lat="53.710197005420923" lon="-9.308484010398388">
        <ele>22.25</ele>
        <time>2026-07-02T19:17:52Z</time>
      </trkpt>
      <trkpt lat="53.710289960727096" lon="-9.308688025921583">
        <ele>22.73</ele>
        <time>2026-07-02T19:17:53Z</time>
      </trkpt>
      <trkpt lat="53.7103829998523" lon="-9.308894975110889">
        <ele>22.73</ele>
        <time>2026-07-02T19:17:54Z</time>
      </trkpt>
      <trkpt lat="53.710479978471994" lon="-9.309111982584">
        <ele>22.73</ele>
        <time>2026-07-02T19:17:55Z</time>
      </trkpt>
      <trkpt lat="53.711671968922019" lon="-9.311827970668674">
        <ele>21.77</ele>
        <time>2026-07-02T19:18:07Z</time>
      </trkpt>
      <trkpt lat="53.712557014077902" lon="-9.31371197104454">
        <ele>20.32</ele>
        <time>2026-07-02T19:18:16Z</time>
      </trkpt>
      <trkpt lat="53.713559992611408" lon="-9.315647017210722">
        <ele>16.960000000000001</ele>
        <time>2026-07-02T19:18:26Z</time>
      </trkpt>
      <trkpt lat="53.713629981502891" lon="-9.315877016633749">
        <ele>17.920000000000002</ele>
        <time>2026-07-02T19:18:27Z</time>
      </trkpt>
      <trkpt lat="53.713693013414741" lon="-9.316108021885157">
        <ele>17.920000000000002</ele>
        <time>2026-07-02T19:18:28Z</time>
      </trkpt>
      <trkpt lat="53.713728971779346" lon="-9.316356964409351">
        <ele>18.399999999999999</ele>
        <time>2026-07-02T19:18:29Z</time>
      </trkpt>
      <trkpt lat="53.71375797316432" lon="-9.316597022116184">
        <ele>18.879999999999999</ele>
        <time>2026-07-02T19:18:30Z</time>
      </trkpt>
      <trkpt lat="53.713760990649462" lon="-9.316832972690463">
        <ele>18.399999999999999</ele>
        <time>2026-07-02T19:18:31Z</time>
      </trkpt>
      <trkpt lat="53.713750010356307" lon="-9.317065989598632">
        <ele>18.399999999999999</ele>
        <time>2026-07-02T19:18:32Z</time>
      </trkpt>
      <trkpt lat="53.713723020628095" lon="-9.317295989021659">
        <ele>17.920000000000002</ele>
        <time>2026-07-02T19:18:33Z</time>
      </trkpt>
      <trkpt lat="53.71369200758636" lon="-9.317507967352867">
        <ele>17.920000000000002</ele>
        <time>2026-07-02T19:18:34Z</time>
      </trkpt>
      <trkpt lat="53.713660994544625" lon="-9.317898983135819">
        <ele>17.920000000000002</ele>
        <time>2026-07-02T19:18:36Z</time>
      </trkpt>
      <trkpt lat="53.713660994544625" lon="-9.318090006709099">
        <ele>17.920000000000002</ele>
        <time>2026-07-02T19:18:37Z</time>
      </trkpt>
      <trkpt lat="53.713683960959315" lon="-9.318268038332462">
        <ele>18.399999999999999</ele>
        <time>2026-07-02T19:18:38Z</time>
      </trkpt>
      <trkpt lat="53.713743975386024" lon="-9.318425031378865">
        <ele>18.399999999999999</ele>
        <time>2026-07-02T19:18:39Z</time>
      </trkpt>
      <trkpt lat="53.713822010904551" lon="-9.318555034697056">
        <ele>18.399999999999999</ele>
        <time>2026-07-02T19:18:40Z</time>
      </trkpt>
      <trkpt lat="53.713914966210723" lon="-9.31867104023695">
        <ele>18.879999999999999</ele>
        <time>2026-07-02T19:18:41Z</time>
      </trkpt>
      <trkpt lat="53.71401596814394" lon="-9.318774975836277">
        <ele>18.879999999999999</ele>
        <time>2026-07-02T19:18:42Z</time>
      </trkpt>
      <trkpt lat="53.715049037709832" lon="-9.319732021540403">
        <ele>21.77</ele>
        <time>2026-07-02T19:18:51Z</time>
      </trkpt>
      <trkpt lat="53.715659994632006" lon="-9.320063022896648">
        <ele>23.210000000000001</ele>
        <time>2026-07-02T19:18:55Z</time>
      </trkpt>
      <trkpt lat="53.715944979339838" lon="-9.320261003449559">
        <ele>23.690000000000001</ele>
        <time>2026-07-02T19:18:56Z</time>
      </trkpt>
      <trkpt lat="53.716073976829648" lon="-9.320367034524679">
        <ele>24.649999999999999</ele>
        <time>2026-07-02T19:18:57Z</time>
      </trkpt>
      <trkpt lat="53.717446010559797" lon="-9.321990022435784">
        <ele>30.899999999999999</ele>
        <time>2026-07-02T19:19:08Z</time>
      </trkpt>
      <trkpt lat="53.717598980292678" lon="-9.322135029360652">
        <ele>31.379999999999999</ele>
        <time>2026-07-02T19:19:10Z</time>
      </trkpt>
      <trkpt lat="53.719442998990417" lon="-9.323725998401642">
        <ele>32.82</ele>
        <time>2026-07-02T19:19:21Z</time>
      </trkpt>
      <trkpt lat="53.720033001154661" lon="-9.32417300529778">
        <ele>32.82</ele>
        <time>2026-07-02T19:19:25Z</time>
      </trkpt>
      <trkpt lat="53.720197034999728" lon="-9.324254980310798">
        <ele>32.82</ele>
        <time>2026-07-02T19:19:26Z</time>
      </trkpt>
      <trkpt lat="53.720364002510905" lon="-9.324260009452701">
        <ele>32.82</ele>
        <time>2026-07-02T19:19:27Z</time>
      </trkpt>
      <trkpt lat="53.720520995557308" lon="-9.324260009452701">
        <ele>32.340000000000003</ele>
        <time>2026-07-02T19:19:28Z</time>
      </trkpt>
      <trkpt lat="53.720669019967318" lon="-9.324226984754205">
        <ele>32.340000000000003</ele>
        <time>2026-07-02T19:19:29Z</time>
      </trkpt>
      <trkpt lat="53.720811009407043" lon="-9.324179962277412">
        <ele>31.859999999999999</ele>
        <time>2026-07-02T19:19:30Z</time>
      </trkpt>
      <trkpt lat="53.720946963876486" lon="-9.324135035276413">
        <ele>31.379999999999999</ele>
        <time>2026-07-02T19:19:31Z</time>
      </trkpt>
      <trkpt lat="53.721075039356947" lon="-9.324121959507465">
        <ele>30.899999999999999</ele>
        <time>2026-07-02T19:19:32Z</time>
      </trkpt>
      <trkpt lat="53.721204036846757" lon="-9.32415003888309">
        <ele>30.899999999999999</ele>
        <time>2026-07-02T19:19:33Z</time>
      </trkpt>
      <trkpt lat="53.721330016851425" lon="-9.324227990582585">
        <ele>30.420000000000002</ele>
        <time>2026-07-02T19:19:34Z</time>
      </trkpt>
      <trkpt lat="53.721459014341235" lon="-9.324310971423984">
        <ele>30.899999999999999</ele>
        <time>2026-07-02T19:19:35Z</time>
      </trkpt>
      <trkpt lat="53.721582982689142" lon="-9.324394036084414">
        <ele>30.899999999999999</ele>
        <time>2026-07-02T19:19:36Z</time>
      </trkpt>
      <trkpt lat="53.721693037077785" lon="-9.324512975290418">
        <ele>30.899999999999999</ele>
        <time>2026-07-02T19:19:37Z</time>
      </trkpt>
      <trkpt lat="53.721793033182621" lon="-9.32462302967906">
        <ele>30.899999999999999</ele>
        <time>2026-07-02T19:19:38Z</time>
      </trkpt>
      <trkpt lat="53.722531981766224" lon="-9.325368013232946">
        <ele>31.379999999999999</ele>
        <time>2026-07-02T19:19:45Z</time>
      </trkpt>
      <trkpt lat="53.723078984767199" lon="-9.32571804150939">
        <ele>33.299999999999997</ele>
        <time>2026-07-02T19:19:50Z</time>
      </trkpt>
      <trkpt lat="53.723264979198575" lon="-9.325816025957465">
        <ele>34.740000000000002</ele>
        <time>2026-07-02T19:19:53Z</time>
      </trkpt>
      <trkpt lat="53.72340302914381" lon="-9.325889032334089">
        <ele>35.229999999999997</ele>
        <time>2026-07-02T19:19:54Z</time>
      </trkpt>
      <trkpt lat="53.723471006378531" lon="-9.326031021773815">
        <ele>35.229999999999997</ele>
        <time>2026-07-02T19:19:56Z</time>
      </trkpt>
      <trkpt lat="53.723453991115093" lon="-9.326124982908368">
        <ele>35.710000000000001</ele>
        <time>2026-07-02T19:19:57Z</time>
      </trkpt>
      <trkpt lat="53.723221980035305" lon="-9.327408000826836">
        <ele>35.229999999999997</ele>
        <time>2026-07-02T19:20:06Z</time>
      </trkpt>
      <trkpt lat="53.723169006407261" lon="-9.327701032161713">
        <ele>35.229999999999997</ele>
        <time>2026-07-02T19:20:08Z</time>
      </trkpt>
      <trkpt lat="53.722743038088083" lon="-9.329460980370641">
        <ele>34.259999999999998</ele>
        <time>2026-07-02T19:20:18Z</time>
      </trkpt>
      <trkpt lat="53.722024038434029" lon="-9.331143982708454">
        <ele>33.780000000000001</ele>
        <time>2026-07-02T19:20:27Z</time>
      </trkpt>
      <trkpt lat="53.721403023228049" lon="-9.332894962280989">
        <ele>34.259999999999998</ele>
        <time>2026-07-02T19:20:37Z</time>
      </trkpt>
      <trkpt lat="53.720531975850463" lon="-9.33450797572732">
        <ele>32.82</ele>
        <time>2026-07-02T19:20:47Z</time>
      </trkpt>
      <trkpt lat="53.719697976484895" lon="-9.335167966783047">
        <ele>31.379999999999999</ele>
        <time>2026-07-02T19:20:54Z</time>
      </trkpt>
      <trkpt lat="53.718836987391114" lon="-9.335973970592022">
        <ele>29.940000000000001</ele>
        <time>2026-07-02T19:21:02Z</time>
      </trkpt>
      <trkpt lat="53.718544961884618" lon="-9.336326010525227">
        <ele>30.420000000000002</ele>
        <time>2026-07-02T19:21:05Z</time>
      </trkpt>
      <trkpt lat="53.717769971117377" lon="-9.33779401704669">
        <ele>32.82</ele>
        <time>2026-07-02T19:21:15Z</time>
      </trkpt>
      <trkpt lat="53.716976037248969" lon="-9.339330000802875">
        <ele>33.780000000000001</ele>
        <time>2026-07-02T19:21:25Z</time>
      </trkpt>
      <trkpt lat="53.716680994257331" lon="-9.339891001582146">
        <ele>35.710000000000001</ele>
        <time>2026-07-02T19:21:29Z</time>
      </trkpt>
      <trkpt lat="53.716616034507751" lon="-9.340014969930053">
        <ele>36.670000000000002</ele>
        <time>2026-07-02T19:21:31Z</time>
      </trkpt>
      <trkpt lat="53.715978004038334" lon="-9.341374011710286">
        <ele>40.030000000000001</ele>
        <time>2026-07-02T19:21:40Z</time>
      </trkpt>
      <trkpt lat="53.715468971058726" lon="-9.342862972989678">
        <ele>38.109999999999999</ele>
        <time>2026-07-02T19:21:49Z</time>
      </trkpt>
      <trkpt lat="53.715201001614332" lon="-9.344044988974929">
        <ele>38.109999999999999</ele>
        <time>2026-07-02T19:21:56Z</time>
      </trkpt>
      <trkpt lat="53.71519697830081" lon="-9.344220003113151">
        <ele>37.630000000000003</ele>
        <time>2026-07-02T19:21:57Z</time>
      </trkpt>
      <trkpt lat="53.715192032977939" lon="-9.344398034736514">
        <ele>37.630000000000003</ele>
        <time>2026-07-02T19:21:58Z</time>
      </trkpt>
      <trkpt lat="53.715142998844385" lon="-9.346272982656956">
        <ele>35.229999999999997</ele>
        <time>2026-07-02T19:22:09Z</time>
      </trkpt>
      <trkpt lat="53.715117014944553" lon="-9.346413966268301">
        <ele>35.229999999999997</ele>
        <time>2026-07-02T19:22:10Z</time>
      </trkpt>
      <trkpt lat="53.715073009952903" lon="-9.346543969586492">
        <ele>35.229999999999997</ele>
        <time>2026-07-02T19:22:11Z</time>
      </trkpt>
      <trkpt lat="53.715026993304491" lon="-9.346684031188488">
        <ele>35.710000000000001</ele>
        <time>2026-07-02T19:22:12Z</time>
      </trkpt>
      <trkpt lat="53.714971002191305" lon="-9.346810011193156">
        <ele>35.710000000000001</ele>
        <time>2026-07-02T19:22:13Z</time>
      </trkpt>
      <trkpt lat="53.71446599252522" lon="-9.347835034132004">
        <ele>36.670000000000002</ele>
        <time>2026-07-02T19:22:23Z</time>
      </trkpt>
      <trkpt lat="53.714412013068795" lon="-9.348120018839836">
        <ele>36.670000000000002</ele>
        <time>2026-07-02T19:22:24Z</time>
      </trkpt>
      <trkpt lat="53.714412013068795" lon="-9.348271982744336">
        <ele>36.670000000000002</ele>
        <time>2026-07-02T19:22:25Z</time>
      </trkpt>
      <trkpt lat="53.714412013068795" lon="-9.348424030467868">
        <ele>36.670000000000002</ele>
        <time>2026-07-02T19:22:26Z</time>
      </trkpt>
      <trkpt lat="53.714412013068795" lon="-9.349242020398378">
        <ele>37.149999999999999</ele>
        <time>2026-07-02T19:22:32Z</time>
      </trkpt>
      <trkpt lat="53.714412013068795" lon="-9.349407982081175">
        <ele>37.149999999999999</ele>
        <time>2026-07-02T19:22:33Z</time>
      </trkpt>
      <trkpt lat="53.714393991976976" lon="-9.349522981792688">
        <ele>37.149999999999999</ele>
        <time>2026-07-02T19:22:34Z</time>
      </trkpt>
      <trkpt lat="53.714361973106861" lon="-9.350016005337238">
        <ele>37.149999999999999</ele>
        <time>2026-07-02T19:22:38Z</time>
      </trkpt>
      <trkpt lat="53.714369013905525" lon="-9.350110972300172">
        <ele>37.149999999999999</ele>
        <time>2026-07-02T19:22:39Z</time>
      </trkpt>
      <trkpt lat="53.714373959228396" lon="-9.350188001990318">
        <ele>37.149999999999999</ele>
        <time>2026-07-02T19:22:41Z</time>
      </trkpt>
      <trkpt lat="53.714388962835073" lon="-9.350419007241726">
        <ele>36.670000000000002</ele>
        <time>2026-07-02T19:22:44Z</time>
      </trkpt>
      <trkpt lat="53.714349986985326" lon="-9.350474998354912">
        <ele>36.189999999999998</ele>
        <time>2026-07-02T19:22:45Z</time>
      </trkpt>
      <trkpt lat="53.714153012260795" lon="-9.350754031911492">
        <ele>36.189999999999998</ele>
        <time>2026-07-02T19:22:49Z</time>
      </trkpt>
      <trkpt lat="53.714108001440763" lon="-9.350859979167581">
        <ele>36.189999999999998</ele>
        <time>2026-07-02T19:22:50Z</time>
      </trkpt>
      <trkpt lat="53.714073970913887" lon="-9.350968021899462">
        <ele>36.189999999999998</ele>
        <time>2026-07-02T19:22:51Z</time>
      </trkpt>
      <trkpt lat="53.714039018377662" lon="-9.351078998297453">
        <ele>36.670000000000002</ele>
        <time>2026-07-02T19:22:52Z</time>
      </trkpt>
      <trkpt lat="53.714008005335927" lon="-9.351176982745528">
        <ele>37.630000000000003</ele>
        <time>2026-07-02T19:22:54Z</time>
      </trkpt>
      <trkpt lat="53.713928963989019" lon="-9.351342022418976">
        <ele>38.109999999999999</ele>
        <time>2026-07-02T19:22:55Z</time>
      </trkpt>
      <trkpt lat="53.713874984532595" lon="-9.351357026025653">
        <ele>38.590000000000003</ele>
        <time>2026-07-02T19:22:56Z</time>
      </trkpt>
      <trkpt lat="53.713816981762648" lon="-9.351373035460711">
        <ele>39.07</ele>
        <time>2026-07-02T19:22:57Z</time>
      </trkpt>
      <trkpt lat="53.713467959314585" lon="-9.351468002423644">
        <ele>44.840000000000003</ele>
        <time>2026-07-02T19:23:04Z</time>
      </trkpt>
      <trkpt lat="53.713415991514921" lon="-9.351586019620299">
        <ele>46.280000000000001</ele>
        <time>2026-07-02T19:23:06Z</time>
      </trkpt>
      <trkpt lat="53.713283976539969" lon="-9.351844014599919">
        <ele>49.159999999999997</ele>
        <time>2026-07-02T19:23:09Z</time>
      </trkpt>
      <trkpt lat="53.713226979598403" lon="-9.351898999884725">
        <ele>49.649999999999999</ele>
        <time>2026-07-02T19:23:10Z</time>
      </trkpt>
      <trkpt lat="53.713167971000075" lon="-9.351955996826291">
        <ele>50.609999999999999</ele>
        <time>2026-07-02T19:23:11Z</time>
      </trkpt>
      <trkpt lat="53.71311298571527" lon="-9.352008970454335">
        <ele>51.090000000000003</ele>
        <time>2026-07-02T19:23:12Z</time>
      </trkpt>
      <trkpt lat="53.713062023743987" lon="-9.352059010416269">
        <ele>51.57</ele>
        <time>2026-07-02T19:23:13Z</time>
      </trkpt>
      <trkpt lat="53.713010977953672" lon="-9.352107960730791">
        <ele>52.049999999999997</ele>
        <time>2026-07-02T19:23:14Z</time>
      </trkpt>
      <trkpt lat="53.712964039295912" lon="-9.352152971550822">
        <ele>52.049999999999997</ele>
        <time>2026-07-02T19:23:15Z</time>
      </trkpt>
      <trkpt lat="53.712922967970371" lon="-9.352193037047982">
        <ele>52.049999999999997</ele>
        <time>2026-07-02T19:23:16Z</time>
      </trkpt>
      <trkpt lat="53.712884997949004" lon="-9.352230001240969">
        <ele>52.530000000000001</ele>
        <time>2026-07-02T19:23:17Z</time>
      </trkpt>
      <trkpt lat="53.712846022099257" lon="-9.352266965433955">
        <ele>52.530000000000001</ele>
        <time>2026-07-02T19:23:18Z</time>
      </trkpt>
      <trkpt lat="53.712804028764367" lon="-9.352308958768845">
        <ele>52.530000000000001</ele>
        <time>2026-07-02T19:23:20Z</time>
      </trkpt>
      <trkpt lat="53.712373031303287" lon="-9.352583969011903">
        <ele>53.969999999999999</ele>
        <time>2026-07-02T19:23:30Z</time>
      </trkpt>
      <trkpt lat="53.712128028273582" lon="-9.352481961250305">
        <ele>58.299999999999997</ele>
        <time>2026-07-02T19:23:41Z</time>
      </trkpt>
      <trkpt lat="53.712128028273582" lon="-9.352481961250305">
        <ele>58.299999999999997</ele>
        <time>2026-07-02T19:23:44Z</time>
      </trkpt>
      <trkpt lat="53.712128028273582" lon="-9.352481961250305">
        <ele>59.740000000000002</ele>
        <time>2026-07-02T19:23:58Z</time>
      </trkpt>
      <trkpt lat="53.712128028273582" lon="-9.352481961250305">
        <ele>59.740000000000002</ele>
        <time>2026-07-02T19:24:16Z</time>
      </trkpt>
      <trkpt lat="53.712128028273582" lon="-9.352481961250305">
        <ele>59.259999999999998</ele>
        <time>2026-07-02T19:24:33Z</time>
      </trkpt>
      <trkpt lat="53.712128028273582" lon="-9.352481961250305">
        <ele>59.259999999999998</ele>
        <time>2026-07-02T19:24:52Z</time>
      </trkpt>
    </trkseg>
  </trk>

</gpx>